<?xml version="1.0" encoding="UTF-8" standalone="no" ?>
<gpx xmlns="http://www.topografix.com/GPX/1/1" xmlns:xsi="http://www.w3.org/2001/XMLSchema-instance" xsi:schemaLocation="http://www.topografix.com/GPX/1/1 http://www.topografix.com/GPX/1/1/gpx.xsd" version="1.1" creator="VisuGPX - https://www.visugpx.com">
  <metadata>
    <name>Trail au départ de MOUSSOULENS</name>
    <desc><![CDATA[Belle balade avec un passage à la chapelle St Roch et ses cyprès d'un autre âge (le plus vieux aurait au moins 600 ans). ]]></desc>
  </metadata>
  <trk>
    <name><![CDATA[TrailRunning]]></name>
    <trkseg>
      <trkpt lat="43.27925" lon="2.23154">
        <ele>169</ele>
        <time>2022-03-06T07:29:15.000Z</time>
      </trkpt>
      <trkpt lat="43.27925" lon="2.23154">
        <ele>169</ele>
        <time>2022-03-06T07:29:16.000Z</time>
      </trkpt>
      <trkpt lat="43.27925" lon="2.23155">
        <ele>169.1</ele>
        <time>2022-03-06T07:29:17.000Z</time>
      </trkpt>
      <trkpt lat="43.27925" lon="2.23156">
        <ele>169.1</ele>
        <time>2022-03-06T07:29:18.000Z</time>
      </trkpt>
      <trkpt lat="43.27926" lon="2.23157">
        <ele>169.1</ele>
        <time>2022-03-06T07:29:19.000Z</time>
      </trkpt>
      <trkpt lat="43.27926" lon="2.23158">
        <ele>169.1</ele>
        <time>2022-03-06T07:29:20.000Z</time>
      </trkpt>
      <trkpt lat="43.27926" lon="2.23159">
        <ele>169.1</ele>
        <time>2022-03-06T07:29:21.000Z</time>
      </trkpt>
      <trkpt lat="43.27927" lon="2.2316">
        <ele>169.1</ele>
        <time>2022-03-06T07:29:22.000Z</time>
      </trkpt>
      <trkpt lat="43.27927" lon="2.23162">
        <ele>169.1</ele>
        <time>2022-03-06T07:29:23.000Z</time>
      </trkpt>
      <trkpt lat="43.27927" lon="2.23163">
        <ele>169.1</ele>
        <time>2022-03-06T07:29:24.000Z</time>
      </trkpt>
      <trkpt lat="43.27928" lon="2.23164">
        <ele>169.1</ele>
        <time>2022-03-06T07:29:25.000Z</time>
      </trkpt>
      <trkpt lat="43.27928" lon="2.23166">
        <ele>169.1</ele>
        <time>2022-03-06T07:29:26.000Z</time>
      </trkpt>
      <trkpt lat="43.27928" lon="2.23167">
        <ele>169.1</ele>
        <time>2022-03-06T07:29:27.000Z</time>
      </trkpt>
      <trkpt lat="43.27929" lon="2.23169">
        <ele>169.2</ele>
        <time>2022-03-06T07:29:28.000Z</time>
      </trkpt>
      <trkpt lat="43.2793" lon="2.23171">
        <ele>169.2</ele>
        <time>2022-03-06T07:29:29.000Z</time>
      </trkpt>
      <trkpt lat="43.2793" lon="2.23172">
        <ele>169.3</ele>
        <time>2022-03-06T07:29:30.000Z</time>
      </trkpt>
      <trkpt lat="43.27931" lon="2.23174">
        <ele>169.4</ele>
        <time>2022-03-06T07:29:31.000Z</time>
      </trkpt>
      <trkpt lat="43.27932" lon="2.23176">
        <ele>169.4</ele>
        <time>2022-03-06T07:29:32.000Z</time>
      </trkpt>
      <trkpt lat="43.27932" lon="2.23177">
        <ele>169.5</ele>
        <time>2022-03-06T07:29:33.000Z</time>
      </trkpt>
      <trkpt lat="43.27933" lon="2.23179">
        <ele>169.6</ele>
        <time>2022-03-06T07:29:34.000Z</time>
      </trkpt>
      <trkpt lat="43.27934" lon="2.23181">
        <ele>169.7</ele>
        <time>2022-03-06T07:29:35.000Z</time>
      </trkpt>
      <trkpt lat="43.27935" lon="2.23183">
        <ele>169.8</ele>
        <time>2022-03-06T07:29:36.000Z</time>
      </trkpt>
      <trkpt lat="43.27936" lon="2.23186">
        <ele>169.9</ele>
        <time>2022-03-06T07:29:37.000Z</time>
      </trkpt>
      <trkpt lat="43.27936" lon="2.23188">
        <ele>169.9</ele>
        <time>2022-03-06T07:29:38.000Z</time>
      </trkpt>
      <trkpt lat="43.27937" lon="2.23191">
        <ele>170</ele>
        <time>2022-03-06T07:29:39.000Z</time>
      </trkpt>
      <trkpt lat="43.27938" lon="2.23194">
        <ele>170.1</ele>
        <time>2022-03-06T07:29:40.000Z</time>
      </trkpt>
      <trkpt lat="43.27939" lon="2.23197">
        <ele>170.2</ele>
        <time>2022-03-06T07:29:41.000Z</time>
      </trkpt>
      <trkpt lat="43.27939" lon="2.23199">
        <ele>170.3</ele>
        <time>2022-03-06T07:29:42.000Z</time>
      </trkpt>
      <trkpt lat="43.2794" lon="2.23202">
        <ele>170.4</ele>
        <time>2022-03-06T07:29:43.000Z</time>
      </trkpt>
      <trkpt lat="43.27941" lon="2.23205">
        <ele>170.5</ele>
        <time>2022-03-06T07:29:44.000Z</time>
      </trkpt>
      <trkpt lat="43.27942" lon="2.23208">
        <ele>170.6</ele>
        <time>2022-03-06T07:29:45.000Z</time>
      </trkpt>
      <trkpt lat="43.27943" lon="2.23211">
        <ele>170.7</ele>
        <time>2022-03-06T07:29:46.000Z</time>
      </trkpt>
      <trkpt lat="43.27944" lon="2.23214">
        <ele>170.8</ele>
        <time>2022-03-06T07:29:47.000Z</time>
      </trkpt>
      <trkpt lat="43.27944" lon="2.23217">
        <ele>170.9</ele>
        <time>2022-03-06T07:29:48.000Z</time>
      </trkpt>
      <trkpt lat="43.27945" lon="2.23219">
        <ele>171</ele>
        <time>2022-03-06T07:29:49.000Z</time>
      </trkpt>
      <trkpt lat="43.27946" lon="2.23222">
        <ele>171.1</ele>
        <time>2022-03-06T07:29:50.000Z</time>
      </trkpt>
      <trkpt lat="43.27947" lon="2.23225">
        <ele>171.2</ele>
        <time>2022-03-06T07:29:51.000Z</time>
      </trkpt>
      <trkpt lat="43.27948" lon="2.23227">
        <ele>171.3</ele>
        <time>2022-03-06T07:29:52.000Z</time>
      </trkpt>
      <trkpt lat="43.27949" lon="2.2323">
        <ele>171.4</ele>
        <time>2022-03-06T07:29:53.000Z</time>
      </trkpt>
      <trkpt lat="43.2795" lon="2.23233">
        <ele>171.5</ele>
        <time>2022-03-06T07:29:54.000Z</time>
      </trkpt>
      <trkpt lat="43.27951" lon="2.23235">
        <ele>171.6</ele>
        <time>2022-03-06T07:29:55.000Z</time>
      </trkpt>
      <trkpt lat="43.27952" lon="2.23238">
        <ele>171.7</ele>
        <time>2022-03-06T07:29:56.000Z</time>
      </trkpt>
      <trkpt lat="43.27952" lon="2.2324">
        <ele>171.8</ele>
        <time>2022-03-06T07:29:57.000Z</time>
      </trkpt>
      <trkpt lat="43.27953" lon="2.23243">
        <ele>171.9</ele>
        <time>2022-03-06T07:29:58.000Z</time>
      </trkpt>
      <trkpt lat="43.27954" lon="2.23245">
        <ele>172</ele>
        <time>2022-03-06T07:29:59.000Z</time>
      </trkpt>
      <trkpt lat="43.27955" lon="2.23248">
        <ele>172.1</ele>
        <time>2022-03-06T07:30:00.000Z</time>
      </trkpt>
      <trkpt lat="43.27956" lon="2.2325">
        <ele>172.3</ele>
        <time>2022-03-06T07:30:01.000Z</time>
      </trkpt>
      <trkpt lat="43.27957" lon="2.23253">
        <ele>172.4</ele>
        <time>2022-03-06T07:30:02.000Z</time>
      </trkpt>
      <trkpt lat="43.27958" lon="2.23255">
        <ele>172.5</ele>
        <time>2022-03-06T07:30:03.000Z</time>
      </trkpt>
      <trkpt lat="43.27959" lon="2.23258">
        <ele>172.6</ele>
        <time>2022-03-06T07:30:04.000Z</time>
      </trkpt>
      <trkpt lat="43.2796" lon="2.2326">
        <ele>172.7</ele>
        <time>2022-03-06T07:30:05.000Z</time>
      </trkpt>
      <trkpt lat="43.27961" lon="2.23263">
        <ele>172.8</ele>
        <time>2022-03-06T07:30:06.000Z</time>
      </trkpt>
      <trkpt lat="43.27962" lon="2.23265">
        <ele>173</ele>
        <time>2022-03-06T07:30:07.000Z</time>
      </trkpt>
      <trkpt lat="43.27963" lon="2.23268">
        <ele>173.1</ele>
        <time>2022-03-06T07:30:08.000Z</time>
      </trkpt>
      <trkpt lat="43.27964" lon="2.2327">
        <ele>173.2</ele>
        <time>2022-03-06T07:30:09.000Z</time>
      </trkpt>
      <trkpt lat="43.27965" lon="2.23273">
        <ele>173.3</ele>
        <time>2022-03-06T07:30:10.000Z</time>
      </trkpt>
      <trkpt lat="43.27966" lon="2.23275">
        <ele>173.4</ele>
        <time>2022-03-06T07:30:11.000Z</time>
      </trkpt>
      <trkpt lat="43.27967" lon="2.23278">
        <ele>173.5</ele>
        <time>2022-03-06T07:30:12.000Z</time>
      </trkpt>
      <trkpt lat="43.27968" lon="2.2328">
        <ele>173.6</ele>
        <time>2022-03-06T07:30:13.000Z</time>
      </trkpt>
      <trkpt lat="43.27969" lon="2.23282">
        <ele>173.6</ele>
        <time>2022-03-06T07:30:14.000Z</time>
      </trkpt>
      <trkpt lat="43.2797" lon="2.23285">
        <ele>173.7</ele>
        <time>2022-03-06T07:30:15.000Z</time>
      </trkpt>
      <trkpt lat="43.2797" lon="2.23287">
        <ele>173.8</ele>
        <time>2022-03-06T07:30:16.000Z</time>
      </trkpt>
      <trkpt lat="43.27971" lon="2.23289">
        <ele>173.9</ele>
        <time>2022-03-06T07:30:17.000Z</time>
      </trkpt>
      <trkpt lat="43.27972" lon="2.23292">
        <ele>174</ele>
        <time>2022-03-06T07:30:18.000Z</time>
      </trkpt>
      <trkpt lat="43.27973" lon="2.23294">
        <ele>174.1</ele>
        <time>2022-03-06T07:30:19.000Z</time>
      </trkpt>
      <trkpt lat="43.27974" lon="2.23297">
        <ele>174.2</ele>
        <time>2022-03-06T07:30:20.000Z</time>
      </trkpt>
      <trkpt lat="43.27975" lon="2.23299">
        <ele>174.2</ele>
        <time>2022-03-06T07:30:21.000Z</time>
      </trkpt>
      <trkpt lat="43.27976" lon="2.23302">
        <ele>174.3</ele>
        <time>2022-03-06T07:30:22.000Z</time>
      </trkpt>
      <trkpt lat="43.27977" lon="2.23304">
        <ele>174.4</ele>
        <time>2022-03-06T07:30:23.000Z</time>
      </trkpt>
      <trkpt lat="43.27978" lon="2.23307">
        <ele>174.5</ele>
        <time>2022-03-06T07:30:24.000Z</time>
      </trkpt>
      <trkpt lat="43.27979" lon="2.2331">
        <ele>174.5</ele>
        <time>2022-03-06T07:30:25.000Z</time>
      </trkpt>
      <trkpt lat="43.2798" lon="2.23312">
        <ele>174.6</ele>
        <time>2022-03-06T07:30:26.000Z</time>
      </trkpt>
      <trkpt lat="43.27981" lon="2.23315">
        <ele>174.7</ele>
        <time>2022-03-06T07:30:27.000Z</time>
      </trkpt>
      <trkpt lat="43.27982" lon="2.23317">
        <ele>174.8</ele>
        <time>2022-03-06T07:30:28.000Z</time>
      </trkpt>
      <trkpt lat="43.27983" lon="2.2332">
        <ele>174.8</ele>
        <time>2022-03-06T07:30:29.000Z</time>
      </trkpt>
      <trkpt lat="43.27984" lon="2.23322">
        <ele>174.9</ele>
        <time>2022-03-06T07:30:30.000Z</time>
      </trkpt>
      <trkpt lat="43.27985" lon="2.23324">
        <ele>175</ele>
        <time>2022-03-06T07:30:31.000Z</time>
      </trkpt>
      <trkpt lat="43.27986" lon="2.23326">
        <ele>175.1</ele>
        <time>2022-03-06T07:30:32.000Z</time>
      </trkpt>
      <trkpt lat="43.27988" lon="2.23329">
        <ele>175.1</ele>
        <time>2022-03-06T07:30:33.000Z</time>
      </trkpt>
      <trkpt lat="43.27989" lon="2.23331">
        <ele>175.2</ele>
        <time>2022-03-06T07:30:34.000Z</time>
      </trkpt>
      <trkpt lat="43.2799" lon="2.23333">
        <ele>175.3</ele>
        <time>2022-03-06T07:30:35.000Z</time>
      </trkpt>
      <trkpt lat="43.27992" lon="2.23335">
        <ele>175.4</ele>
        <time>2022-03-06T07:30:36.000Z</time>
      </trkpt>
      <trkpt lat="43.27993" lon="2.23337">
        <ele>175.5</ele>
        <time>2022-03-06T07:30:37.000Z</time>
      </trkpt>
      <trkpt lat="43.27994" lon="2.23339">
        <ele>175.7</ele>
        <time>2022-03-06T07:30:38.000Z</time>
      </trkpt>
      <trkpt lat="43.27996" lon="2.23341">
        <ele>175.8</ele>
        <time>2022-03-06T07:30:39.000Z</time>
      </trkpt>
      <trkpt lat="43.27997" lon="2.23343">
        <ele>175.9</ele>
        <time>2022-03-06T07:30:40.000Z</time>
      </trkpt>
      <trkpt lat="43.27999" lon="2.23344">
        <ele>176.1</ele>
        <time>2022-03-06T07:30:41.000Z</time>
      </trkpt>
      <trkpt lat="43.28001" lon="2.23346">
        <ele>176.2</ele>
        <time>2022-03-06T07:30:42.000Z</time>
      </trkpt>
      <trkpt lat="43.28002" lon="2.23348">
        <ele>176.3</ele>
        <time>2022-03-06T07:30:43.000Z</time>
      </trkpt>
      <trkpt lat="43.28004" lon="2.23349">
        <ele>176.4</ele>
        <time>2022-03-06T07:30:44.000Z</time>
      </trkpt>
      <trkpt lat="43.28006" lon="2.23351">
        <ele>176.5</ele>
        <time>2022-03-06T07:30:45.000Z</time>
      </trkpt>
      <trkpt lat="43.28008" lon="2.23352">
        <ele>176.6</ele>
        <time>2022-03-06T07:30:46.000Z</time>
      </trkpt>
      <trkpt lat="43.2801" lon="2.23354">
        <ele>176.7</ele>
        <time>2022-03-06T07:30:47.000Z</time>
      </trkpt>
      <trkpt lat="43.28012" lon="2.23355">
        <ele>176.8</ele>
        <time>2022-03-06T07:30:48.000Z</time>
      </trkpt>
      <trkpt lat="43.28014" lon="2.23356">
        <ele>176.9</ele>
        <time>2022-03-06T07:30:49.000Z</time>
      </trkpt>
      <trkpt lat="43.28016" lon="2.23357">
        <ele>177</ele>
        <time>2022-03-06T07:30:50.000Z</time>
      </trkpt>
      <trkpt lat="43.28018" lon="2.23359">
        <ele>177.2</ele>
        <time>2022-03-06T07:30:51.000Z</time>
      </trkpt>
      <trkpt lat="43.2802" lon="2.2336">
        <ele>177.3</ele>
        <time>2022-03-06T07:30:52.000Z</time>
      </trkpt>
      <trkpt lat="43.28022" lon="2.23361">
        <ele>177.4</ele>
        <time>2022-03-06T07:30:53.000Z</time>
      </trkpt>
      <trkpt lat="43.28024" lon="2.23362">
        <ele>177.5</ele>
        <time>2022-03-06T07:30:54.000Z</time>
      </trkpt>
      <trkpt lat="43.28026" lon="2.23363">
        <ele>177.6</ele>
        <time>2022-03-06T07:30:55.000Z</time>
      </trkpt>
      <trkpt lat="43.28029" lon="2.23364">
        <ele>177.7</ele>
        <time>2022-03-06T07:30:56.000Z</time>
      </trkpt>
      <trkpt lat="43.28031" lon="2.23365">
        <ele>177.8</ele>
        <time>2022-03-06T07:30:57.000Z</time>
      </trkpt>
      <trkpt lat="43.28033" lon="2.23365">
        <ele>178</ele>
        <time>2022-03-06T07:30:58.000Z</time>
      </trkpt>
      <trkpt lat="43.28035" lon="2.23366">
        <ele>178.1</ele>
        <time>2022-03-06T07:30:59.000Z</time>
      </trkpt>
      <trkpt lat="43.28037" lon="2.23367">
        <ele>178.2</ele>
        <time>2022-03-06T07:31:00.000Z</time>
      </trkpt>
      <trkpt lat="43.28039" lon="2.23368">
        <ele>178.3</ele>
        <time>2022-03-06T07:31:01.000Z</time>
      </trkpt>
      <trkpt lat="43.28041" lon="2.23369">
        <ele>178.4</ele>
        <time>2022-03-06T07:31:02.000Z</time>
      </trkpt>
      <trkpt lat="43.28044" lon="2.23369">
        <ele>178.5</ele>
        <time>2022-03-06T07:31:03.000Z</time>
      </trkpt>
      <trkpt lat="43.28046" lon="2.2337">
        <ele>178.6</ele>
        <time>2022-03-06T07:31:04.000Z</time>
      </trkpt>
      <trkpt lat="43.28048" lon="2.23371">
        <ele>178.7</ele>
        <time>2022-03-06T07:31:05.000Z</time>
      </trkpt>
      <trkpt lat="43.2805" lon="2.23371">
        <ele>178.8</ele>
        <time>2022-03-06T07:31:06.000Z</time>
      </trkpt>
      <trkpt lat="43.28052" lon="2.23372">
        <ele>178.9</ele>
        <time>2022-03-06T07:31:07.000Z</time>
      </trkpt>
      <trkpt lat="43.28054" lon="2.23373">
        <ele>179</ele>
        <time>2022-03-06T07:31:08.000Z</time>
      </trkpt>
      <trkpt lat="43.28056" lon="2.23373">
        <ele>179.1</ele>
        <time>2022-03-06T07:31:09.000Z</time>
      </trkpt>
      <trkpt lat="43.28058" lon="2.23374">
        <ele>179.2</ele>
        <time>2022-03-06T07:31:10.000Z</time>
      </trkpt>
      <trkpt lat="43.28059" lon="2.23375">
        <ele>179.3</ele>
        <time>2022-03-06T07:31:11.000Z</time>
      </trkpt>
      <trkpt lat="43.28061" lon="2.23375">
        <ele>179.4</ele>
        <time>2022-03-06T07:31:12.000Z</time>
      </trkpt>
      <trkpt lat="43.28063" lon="2.23376">
        <ele>179.5</ele>
        <time>2022-03-06T07:31:13.000Z</time>
      </trkpt>
      <trkpt lat="43.28065" lon="2.23377">
        <ele>179.6</ele>
        <time>2022-03-06T07:31:14.000Z</time>
      </trkpt>
      <trkpt lat="43.28066" lon="2.23378">
        <ele>179.7</ele>
        <time>2022-03-06T07:31:15.000Z</time>
      </trkpt>
      <trkpt lat="43.28068" lon="2.23378">
        <ele>179.8</ele>
        <time>2022-03-06T07:31:16.000Z</time>
      </trkpt>
      <trkpt lat="43.2807" lon="2.23379">
        <ele>179.9</ele>
        <time>2022-03-06T07:31:17.000Z</time>
      </trkpt>
      <trkpt lat="43.28071" lon="2.2338">
        <ele>180</ele>
        <time>2022-03-06T07:31:18.000Z</time>
      </trkpt>
      <trkpt lat="43.28073" lon="2.2338">
        <ele>180.1</ele>
        <time>2022-03-06T07:31:19.000Z</time>
      </trkpt>
      <trkpt lat="43.28075" lon="2.23381">
        <ele>180.2</ele>
        <time>2022-03-06T07:31:20.000Z</time>
      </trkpt>
      <trkpt lat="43.28076" lon="2.23382">
        <ele>180.2</ele>
        <time>2022-03-06T07:31:21.000Z</time>
      </trkpt>
      <trkpt lat="43.28078" lon="2.23382">
        <ele>180.3</ele>
        <time>2022-03-06T07:31:22.000Z</time>
      </trkpt>
      <trkpt lat="43.2808" lon="2.23383">
        <ele>180.4</ele>
        <time>2022-03-06T07:31:23.000Z</time>
      </trkpt>
      <trkpt lat="43.28081" lon="2.23383">
        <ele>180.5</ele>
        <time>2022-03-06T07:31:24.000Z</time>
      </trkpt>
      <trkpt lat="43.28083" lon="2.23384">
        <ele>180.6</ele>
        <time>2022-03-06T07:31:25.000Z</time>
      </trkpt>
      <trkpt lat="43.28085" lon="2.23385">
        <ele>180.7</ele>
        <time>2022-03-06T07:31:26.000Z</time>
      </trkpt>
      <trkpt lat="43.28087" lon="2.23385">
        <ele>180.8</ele>
        <time>2022-03-06T07:31:27.000Z</time>
      </trkpt>
      <trkpt lat="43.28089" lon="2.23386">
        <ele>180.9</ele>
        <time>2022-03-06T07:31:28.000Z</time>
      </trkpt>
      <trkpt lat="43.2809" lon="2.23386">
        <ele>181</ele>
        <time>2022-03-06T07:31:29.000Z</time>
      </trkpt>
      <trkpt lat="43.28092" lon="2.23387">
        <ele>181</ele>
        <time>2022-03-06T07:31:30.000Z</time>
      </trkpt>
      <trkpt lat="43.28094" lon="2.23387">
        <ele>181.1</ele>
        <time>2022-03-06T07:31:31.000Z</time>
      </trkpt>
      <trkpt lat="43.28096" lon="2.23388">
        <ele>181.2</ele>
        <time>2022-03-06T07:31:32.000Z</time>
      </trkpt>
      <trkpt lat="43.28098" lon="2.23389">
        <ele>181.3</ele>
        <time>2022-03-06T07:31:33.000Z</time>
      </trkpt>
      <trkpt lat="43.28099" lon="2.2339">
        <ele>181.4</ele>
        <time>2022-03-06T07:31:34.000Z</time>
      </trkpt>
      <trkpt lat="43.28101" lon="2.23391">
        <ele>181.5</ele>
        <time>2022-03-06T07:31:35.000Z</time>
      </trkpt>
      <trkpt lat="43.28103" lon="2.23392">
        <ele>181.5</ele>
        <time>2022-03-06T07:31:36.000Z</time>
      </trkpt>
      <trkpt lat="43.28105" lon="2.23393">
        <ele>181.6</ele>
        <time>2022-03-06T07:31:37.000Z</time>
      </trkpt>
      <trkpt lat="43.28106" lon="2.23394">
        <ele>181.7</ele>
        <time>2022-03-06T07:31:38.000Z</time>
      </trkpt>
      <trkpt lat="43.28108" lon="2.23395">
        <ele>181.8</ele>
        <time>2022-03-06T07:31:39.000Z</time>
      </trkpt>
      <trkpt lat="43.28109" lon="2.23397">
        <ele>181.8</ele>
        <time>2022-03-06T07:31:40.000Z</time>
      </trkpt>
      <trkpt lat="43.28111" lon="2.23399">
        <ele>181.9</ele>
        <time>2022-03-06T07:31:41.000Z</time>
      </trkpt>
      <trkpt lat="43.28112" lon="2.234">
        <ele>182</ele>
        <time>2022-03-06T07:31:42.000Z</time>
      </trkpt>
      <trkpt lat="43.28113" lon="2.23402">
        <ele>182</ele>
        <time>2022-03-06T07:31:43.000Z</time>
      </trkpt>
      <trkpt lat="43.28114" lon="2.23404">
        <ele>182.1</ele>
        <time>2022-03-06T07:31:44.000Z</time>
      </trkpt>
      <trkpt lat="43.28115" lon="2.23406">
        <ele>182.1</ele>
        <time>2022-03-06T07:31:45.000Z</time>
      </trkpt>
      <trkpt lat="43.28115" lon="2.23408">
        <ele>182.1</ele>
        <time>2022-03-06T07:31:46.000Z</time>
      </trkpt>
      <trkpt lat="43.28115" lon="2.2341">
        <ele>182.1</ele>
        <time>2022-03-06T07:31:47.000Z</time>
      </trkpt>
      <trkpt lat="43.28115" lon="2.23412">
        <ele>182.1</ele>
        <time>2022-03-06T07:31:48.000Z</time>
      </trkpt>
      <trkpt lat="43.28115" lon="2.23414">
        <ele>182.1</ele>
        <time>2022-03-06T07:31:49.000Z</time>
      </trkpt>
      <trkpt lat="43.28114" lon="2.23417">
        <ele>182.1</ele>
        <time>2022-03-06T07:31:50.000Z</time>
      </trkpt>
      <trkpt lat="43.28114" lon="2.23419">
        <ele>182.1</ele>
        <time>2022-03-06T07:31:51.000Z</time>
      </trkpt>
      <trkpt lat="43.28113" lon="2.23421">
        <ele>182.1</ele>
        <time>2022-03-06T07:31:52.000Z</time>
      </trkpt>
      <trkpt lat="43.28112" lon="2.23424">
        <ele>182.1</ele>
        <time>2022-03-06T07:31:53.000Z</time>
      </trkpt>
      <trkpt lat="43.28112" lon="2.23426">
        <ele>182.1</ele>
        <time>2022-03-06T07:31:54.000Z</time>
      </trkpt>
      <trkpt lat="43.28111" lon="2.23429">
        <ele>182.1</ele>
        <time>2022-03-06T07:31:55.000Z</time>
      </trkpt>
      <trkpt lat="43.2811" lon="2.23431">
        <ele>182.1</ele>
        <time>2022-03-06T07:31:56.000Z</time>
      </trkpt>
      <trkpt lat="43.2811" lon="2.23434">
        <ele>182.1</ele>
        <time>2022-03-06T07:31:57.000Z</time>
      </trkpt>
      <trkpt lat="43.28109" lon="2.23437">
        <ele>182.1</ele>
        <time>2022-03-06T07:31:58.000Z</time>
      </trkpt>
      <trkpt lat="43.28108" lon="2.23439">
        <ele>182.1</ele>
        <time>2022-03-06T07:31:59.000Z</time>
      </trkpt>
      <trkpt lat="43.28108" lon="2.23442">
        <ele>182.1</ele>
        <time>2022-03-06T07:32:00.000Z</time>
      </trkpt>
      <trkpt lat="43.28107" lon="2.23445">
        <ele>182.1</ele>
        <time>2022-03-06T07:32:01.000Z</time>
      </trkpt>
      <trkpt lat="43.28106" lon="2.23448">
        <ele>182.1</ele>
        <time>2022-03-06T07:32:02.000Z</time>
      </trkpt>
      <trkpt lat="43.28106" lon="2.23451">
        <ele>182.1</ele>
        <time>2022-03-06T07:32:03.000Z</time>
      </trkpt>
      <trkpt lat="43.28105" lon="2.23454">
        <ele>182.1</ele>
        <time>2022-03-06T07:32:04.000Z</time>
      </trkpt>
      <trkpt lat="43.28104" lon="2.23457">
        <ele>182.1</ele>
        <time>2022-03-06T07:32:05.000Z</time>
      </trkpt>
      <trkpt lat="43.28104" lon="2.2346">
        <ele>182.1</ele>
        <time>2022-03-06T07:32:06.000Z</time>
      </trkpt>
      <trkpt lat="43.28103" lon="2.23463">
        <ele>182.1</ele>
        <time>2022-03-06T07:32:07.000Z</time>
      </trkpt>
      <trkpt lat="43.28102" lon="2.23466">
        <ele>182.1</ele>
        <time>2022-03-06T07:32:08.000Z</time>
      </trkpt>
      <trkpt lat="43.28102" lon="2.23469">
        <ele>182.1</ele>
        <time>2022-03-06T07:32:09.000Z</time>
      </trkpt>
      <trkpt lat="43.28101" lon="2.23471">
        <ele>182.2</ele>
        <time>2022-03-06T07:32:10.000Z</time>
      </trkpt>
      <trkpt lat="43.281" lon="2.23474">
        <ele>182.2</ele>
        <time>2022-03-06T07:32:11.000Z</time>
      </trkpt>
      <trkpt lat="43.28099" lon="2.23477">
        <ele>182.2</ele>
        <time>2022-03-06T07:32:12.000Z</time>
      </trkpt>
      <trkpt lat="43.28099" lon="2.2348">
        <ele>182.2</ele>
        <time>2022-03-06T07:32:13.000Z</time>
      </trkpt>
      <trkpt lat="43.28098" lon="2.23483">
        <ele>182.2</ele>
        <time>2022-03-06T07:32:14.000Z</time>
      </trkpt>
      <trkpt lat="43.28097" lon="2.23486">
        <ele>182.2</ele>
        <time>2022-03-06T07:32:15.000Z</time>
      </trkpt>
      <trkpt lat="43.28096" lon="2.23489">
        <ele>182.2</ele>
        <time>2022-03-06T07:32:16.000Z</time>
      </trkpt>
      <trkpt lat="43.28095" lon="2.23493">
        <ele>182.2</ele>
        <time>2022-03-06T07:32:17.000Z</time>
      </trkpt>
      <trkpt lat="43.28094" lon="2.23496">
        <ele>182.2</ele>
        <time>2022-03-06T07:32:18.000Z</time>
      </trkpt>
      <trkpt lat="43.28093" lon="2.23499">
        <ele>182.2</ele>
        <time>2022-03-06T07:32:19.000Z</time>
      </trkpt>
      <trkpt lat="43.28092" lon="2.23502">
        <ele>182.2</ele>
        <time>2022-03-06T07:32:20.000Z</time>
      </trkpt>
      <trkpt lat="43.28091" lon="2.23505">
        <ele>182.2</ele>
        <time>2022-03-06T07:32:21.000Z</time>
      </trkpt>
      <trkpt lat="43.2809" lon="2.23508">
        <ele>182.2</ele>
        <time>2022-03-06T07:32:22.000Z</time>
      </trkpt>
      <trkpt lat="43.2809" lon="2.23511">
        <ele>182.2</ele>
        <time>2022-03-06T07:32:23.000Z</time>
      </trkpt>
      <trkpt lat="43.28089" lon="2.23515">
        <ele>182.1</ele>
        <time>2022-03-06T07:32:24.000Z</time>
      </trkpt>
      <trkpt lat="43.28088" lon="2.23518">
        <ele>182.1</ele>
        <time>2022-03-06T07:32:25.000Z</time>
      </trkpt>
      <trkpt lat="43.28087" lon="2.23521">
        <ele>182.1</ele>
        <time>2022-03-06T07:32:26.000Z</time>
      </trkpt>
      <trkpt lat="43.28086" lon="2.23524">
        <ele>182.1</ele>
        <time>2022-03-06T07:32:27.000Z</time>
      </trkpt>
      <trkpt lat="43.28085" lon="2.23527">
        <ele>182.1</ele>
        <time>2022-03-06T07:32:28.000Z</time>
      </trkpt>
      <trkpt lat="43.28085" lon="2.23531">
        <ele>182</ele>
        <time>2022-03-06T07:32:29.000Z</time>
      </trkpt>
      <trkpt lat="43.28084" lon="2.23534">
        <ele>182</ele>
        <time>2022-03-06T07:32:30.000Z</time>
      </trkpt>
      <trkpt lat="43.28084" lon="2.23537">
        <ele>182</ele>
        <time>2022-03-06T07:32:31.000Z</time>
      </trkpt>
      <trkpt lat="43.28083" lon="2.2354">
        <ele>182</ele>
        <time>2022-03-06T07:32:32.000Z</time>
      </trkpt>
      <trkpt lat="43.28082" lon="2.23543">
        <ele>181.9</ele>
        <time>2022-03-06T07:32:33.000Z</time>
      </trkpt>
      <trkpt lat="43.28082" lon="2.23546">
        <ele>181.9</ele>
        <time>2022-03-06T07:32:34.000Z</time>
      </trkpt>
      <trkpt lat="43.28081" lon="2.23549">
        <ele>181.9</ele>
        <time>2022-03-06T07:32:35.000Z</time>
      </trkpt>
      <trkpt lat="43.28081" lon="2.23552">
        <ele>181.8</ele>
        <time>2022-03-06T07:32:36.000Z</time>
      </trkpt>
      <trkpt lat="43.2808" lon="2.23556">
        <ele>181.8</ele>
        <time>2022-03-06T07:32:37.000Z</time>
      </trkpt>
      <trkpt lat="43.2808" lon="2.23559">
        <ele>181.8</ele>
        <time>2022-03-06T07:32:38.000Z</time>
      </trkpt>
      <trkpt lat="43.28079" lon="2.23562">
        <ele>181.7</ele>
        <time>2022-03-06T07:32:39.000Z</time>
      </trkpt>
      <trkpt lat="43.28079" lon="2.23566">
        <ele>181.7</ele>
        <time>2022-03-06T07:32:40.000Z</time>
      </trkpt>
      <trkpt lat="43.28079" lon="2.23569">
        <ele>181.7</ele>
        <time>2022-03-06T07:32:41.000Z</time>
      </trkpt>
      <trkpt lat="43.28078" lon="2.23573">
        <ele>181.7</ele>
        <time>2022-03-06T07:32:42.000Z</time>
      </trkpt>
      <trkpt lat="43.28078" lon="2.23576">
        <ele>181.7</ele>
        <time>2022-03-06T07:32:43.000Z</time>
      </trkpt>
      <trkpt lat="43.28079" lon="2.2358">
        <ele>181.7</ele>
        <time>2022-03-06T07:32:44.000Z</time>
      </trkpt>
      <trkpt lat="43.28079" lon="2.23583">
        <ele>181.7</ele>
        <time>2022-03-06T07:32:45.000Z</time>
      </trkpt>
      <trkpt lat="43.28079" lon="2.23587">
        <ele>181.8</ele>
        <time>2022-03-06T07:32:46.000Z</time>
      </trkpt>
      <trkpt lat="43.2808" lon="2.2359">
        <ele>181.8</ele>
        <time>2022-03-06T07:32:47.000Z</time>
      </trkpt>
      <trkpt lat="43.28081" lon="2.23593">
        <ele>181.9</ele>
        <time>2022-03-06T07:32:48.000Z</time>
      </trkpt>
      <trkpt lat="43.28082" lon="2.23596">
        <ele>181.9</ele>
        <time>2022-03-06T07:32:49.000Z</time>
      </trkpt>
      <trkpt lat="43.28083" lon="2.23599">
        <ele>182</ele>
        <time>2022-03-06T07:32:50.000Z</time>
      </trkpt>
      <trkpt lat="43.28084" lon="2.23602">
        <ele>182</ele>
        <time>2022-03-06T07:32:51.000Z</time>
      </trkpt>
      <trkpt lat="43.28086" lon="2.23605">
        <ele>182.1</ele>
        <time>2022-03-06T07:32:52.000Z</time>
      </trkpt>
      <trkpt lat="43.28087" lon="2.23608">
        <ele>182.2</ele>
        <time>2022-03-06T07:32:53.000Z</time>
      </trkpt>
      <trkpt lat="43.28089" lon="2.23611">
        <ele>182.3</ele>
        <time>2022-03-06T07:32:54.000Z</time>
      </trkpt>
      <trkpt lat="43.2809" lon="2.23613">
        <ele>182.3</ele>
        <time>2022-03-06T07:32:55.000Z</time>
      </trkpt>
      <trkpt lat="43.28091" lon="2.23616">
        <ele>182.4</ele>
        <time>2022-03-06T07:32:56.000Z</time>
      </trkpt>
      <trkpt lat="43.28093" lon="2.23619">
        <ele>182.5</ele>
        <time>2022-03-06T07:32:57.000Z</time>
      </trkpt>
      <trkpt lat="43.28094" lon="2.23621">
        <ele>182.6</ele>
        <time>2022-03-06T07:32:58.000Z</time>
      </trkpt>
      <trkpt lat="43.28096" lon="2.23624">
        <ele>182.7</ele>
        <time>2022-03-06T07:32:59.000Z</time>
      </trkpt>
      <trkpt lat="43.28097" lon="2.23627">
        <ele>182.7</ele>
        <time>2022-03-06T07:33:00.000Z</time>
      </trkpt>
      <trkpt lat="43.28099" lon="2.23629">
        <ele>182.8</ele>
        <time>2022-03-06T07:33:01.000Z</time>
      </trkpt>
      <trkpt lat="43.281" lon="2.23632">
        <ele>182.9</ele>
        <time>2022-03-06T07:33:02.000Z</time>
      </trkpt>
      <trkpt lat="43.28102" lon="2.23635">
        <ele>183</ele>
        <time>2022-03-06T07:33:03.000Z</time>
      </trkpt>
      <trkpt lat="43.28103" lon="2.23637">
        <ele>183.1</ele>
        <time>2022-03-06T07:33:04.000Z</time>
      </trkpt>
      <trkpt lat="43.28105" lon="2.2364">
        <ele>183.2</ele>
        <time>2022-03-06T07:33:05.000Z</time>
      </trkpt>
      <trkpt lat="43.28107" lon="2.23643">
        <ele>183.3</ele>
        <time>2022-03-06T07:33:06.000Z</time>
      </trkpt>
      <trkpt lat="43.28109" lon="2.23646">
        <ele>183.4</ele>
        <time>2022-03-06T07:33:07.000Z</time>
      </trkpt>
      <trkpt lat="43.2811" lon="2.23649">
        <ele>183.5</ele>
        <time>2022-03-06T07:33:08.000Z</time>
      </trkpt>
      <trkpt lat="43.28112" lon="2.23651">
        <ele>183.7</ele>
        <time>2022-03-06T07:33:09.000Z</time>
      </trkpt>
      <trkpt lat="43.28114" lon="2.23654">
        <ele>183.8</ele>
        <time>2022-03-06T07:33:10.000Z</time>
      </trkpt>
      <trkpt lat="43.28116" lon="2.23657">
        <ele>183.9</ele>
        <time>2022-03-06T07:33:11.000Z</time>
      </trkpt>
      <trkpt lat="43.28117" lon="2.2366">
        <ele>184</ele>
        <time>2022-03-06T07:33:12.000Z</time>
      </trkpt>
      <trkpt lat="43.28119" lon="2.23663">
        <ele>184.1</ele>
        <time>2022-03-06T07:33:13.000Z</time>
      </trkpt>
      <trkpt lat="43.2812" lon="2.23666">
        <ele>184.2</ele>
        <time>2022-03-06T07:33:14.000Z</time>
      </trkpt>
      <trkpt lat="43.28122" lon="2.23669">
        <ele>184.3</ele>
        <time>2022-03-06T07:33:15.000Z</time>
      </trkpt>
      <trkpt lat="43.28123" lon="2.23672">
        <ele>184.3</ele>
        <time>2022-03-06T07:33:16.000Z</time>
      </trkpt>
      <trkpt lat="43.28125" lon="2.23675">
        <ele>184.4</ele>
        <time>2022-03-06T07:33:17.000Z</time>
      </trkpt>
      <trkpt lat="43.28126" lon="2.23678">
        <ele>184.4</ele>
        <time>2022-03-06T07:33:18.000Z</time>
      </trkpt>
      <trkpt lat="43.28127" lon="2.23681">
        <ele>184.4</ele>
        <time>2022-03-06T07:33:19.000Z</time>
      </trkpt>
      <trkpt lat="43.28128" lon="2.23684">
        <ele>184.4</ele>
        <time>2022-03-06T07:33:20.000Z</time>
      </trkpt>
      <trkpt lat="43.28129" lon="2.23687">
        <ele>184.5</ele>
        <time>2022-03-06T07:33:21.000Z</time>
      </trkpt>
      <trkpt lat="43.2813" lon="2.2369">
        <ele>184.5</ele>
        <time>2022-03-06T07:33:22.000Z</time>
      </trkpt>
      <trkpt lat="43.2813" lon="2.23694">
        <ele>184.4</ele>
        <time>2022-03-06T07:33:23.000Z</time>
      </trkpt>
      <trkpt lat="43.28131" lon="2.23697">
        <ele>184.4</ele>
        <time>2022-03-06T07:33:24.000Z</time>
      </trkpt>
      <trkpt lat="43.28131" lon="2.237">
        <ele>184.4</ele>
        <time>2022-03-06T07:33:25.000Z</time>
      </trkpt>
      <trkpt lat="43.28132" lon="2.23703">
        <ele>184.4</ele>
        <time>2022-03-06T07:33:26.000Z</time>
      </trkpt>
      <trkpt lat="43.28132" lon="2.23706">
        <ele>184.4</ele>
        <time>2022-03-06T07:33:27.000Z</time>
      </trkpt>
      <trkpt lat="43.28133" lon="2.2371">
        <ele>184.4</ele>
        <time>2022-03-06T07:33:28.000Z</time>
      </trkpt>
      <trkpt lat="43.28133" lon="2.23713">
        <ele>184.3</ele>
        <time>2022-03-06T07:33:29.000Z</time>
      </trkpt>
      <trkpt lat="43.28134" lon="2.23716">
        <ele>184.3</ele>
        <time>2022-03-06T07:33:30.000Z</time>
      </trkpt>
      <trkpt lat="43.28134" lon="2.2372">
        <ele>184.3</ele>
        <time>2022-03-06T07:33:31.000Z</time>
      </trkpt>
      <trkpt lat="43.28134" lon="2.23723">
        <ele>184.2</ele>
        <time>2022-03-06T07:33:32.000Z</time>
      </trkpt>
      <trkpt lat="43.28134" lon="2.23726">
        <ele>184.2</ele>
        <time>2022-03-06T07:33:33.000Z</time>
      </trkpt>
      <trkpt lat="43.28135" lon="2.23729">
        <ele>184.1</ele>
        <time>2022-03-06T07:33:34.000Z</time>
      </trkpt>
      <trkpt lat="43.28135" lon="2.23733">
        <ele>184.1</ele>
        <time>2022-03-06T07:33:35.000Z</time>
      </trkpt>
      <trkpt lat="43.28135" lon="2.23736">
        <ele>184.1</ele>
        <time>2022-03-06T07:33:36.000Z</time>
      </trkpt>
      <trkpt lat="43.28135" lon="2.23739">
        <ele>184</ele>
        <time>2022-03-06T07:33:37.000Z</time>
      </trkpt>
      <trkpt lat="43.28135" lon="2.23743">
        <ele>184</ele>
        <time>2022-03-06T07:33:38.000Z</time>
      </trkpt>
      <trkpt lat="43.28135" lon="2.23746">
        <ele>183.9</ele>
        <time>2022-03-06T07:33:39.000Z</time>
      </trkpt>
      <trkpt lat="43.28135" lon="2.2375">
        <ele>183.9</ele>
        <time>2022-03-06T07:33:40.000Z</time>
      </trkpt>
      <trkpt lat="43.28135" lon="2.23753">
        <ele>183.8</ele>
        <time>2022-03-06T07:33:41.000Z</time>
      </trkpt>
      <trkpt lat="43.28135" lon="2.23756">
        <ele>183.8</ele>
        <time>2022-03-06T07:33:42.000Z</time>
      </trkpt>
      <trkpt lat="43.28135" lon="2.2376">
        <ele>183.7</ele>
        <time>2022-03-06T07:33:43.000Z</time>
      </trkpt>
      <trkpt lat="43.28135" lon="2.23763">
        <ele>183.7</ele>
        <time>2022-03-06T07:33:44.000Z</time>
      </trkpt>
      <trkpt lat="43.28135" lon="2.23766">
        <ele>183.7</ele>
        <time>2022-03-06T07:33:45.000Z</time>
      </trkpt>
      <trkpt lat="43.28136" lon="2.23769">
        <ele>183.6</ele>
        <time>2022-03-06T07:33:46.000Z</time>
      </trkpt>
      <trkpt lat="43.28136" lon="2.23772">
        <ele>183.6</ele>
        <time>2022-03-06T07:33:47.000Z</time>
      </trkpt>
      <trkpt lat="43.28136" lon="2.23775">
        <ele>183.6</ele>
        <time>2022-03-06T07:33:48.000Z</time>
      </trkpt>
      <trkpt lat="43.28136" lon="2.23778">
        <ele>183.6</ele>
        <time>2022-03-06T07:33:49.000Z</time>
      </trkpt>
      <trkpt lat="43.28137" lon="2.23781">
        <ele>183.5</ele>
        <time>2022-03-06T07:33:50.000Z</time>
      </trkpt>
      <trkpt lat="43.28137" lon="2.23784">
        <ele>183.5</ele>
        <time>2022-03-06T07:33:51.000Z</time>
      </trkpt>
      <trkpt lat="43.28137" lon="2.23787">
        <ele>183.5</ele>
        <time>2022-03-06T07:33:52.000Z</time>
      </trkpt>
      <trkpt lat="43.28137" lon="2.2379">
        <ele>183.5</ele>
        <time>2022-03-06T07:33:53.000Z</time>
      </trkpt>
      <trkpt lat="43.28137" lon="2.23792">
        <ele>183.4</ele>
        <time>2022-03-06T07:33:54.000Z</time>
      </trkpt>
      <trkpt lat="43.28137" lon="2.23795">
        <ele>183.4</ele>
        <time>2022-03-06T07:33:55.000Z</time>
      </trkpt>
      <trkpt lat="43.28137" lon="2.23798">
        <ele>183.4</ele>
        <time>2022-03-06T07:33:56.000Z</time>
      </trkpt>
      <trkpt lat="43.28137" lon="2.23801">
        <ele>183.3</ele>
        <time>2022-03-06T07:33:57.000Z</time>
      </trkpt>
      <trkpt lat="43.28137" lon="2.23804">
        <ele>183.3</ele>
        <time>2022-03-06T07:33:58.000Z</time>
      </trkpt>
      <trkpt lat="43.28136" lon="2.23807">
        <ele>183.2</ele>
        <time>2022-03-06T07:33:59.000Z</time>
      </trkpt>
      <trkpt lat="43.28136" lon="2.2381">
        <ele>183.2</ele>
        <time>2022-03-06T07:34:00.000Z</time>
      </trkpt>
      <trkpt lat="43.28136" lon="2.23813">
        <ele>183.2</ele>
        <time>2022-03-06T07:34:01.000Z</time>
      </trkpt>
      <trkpt lat="43.28136" lon="2.23816">
        <ele>183.1</ele>
        <time>2022-03-06T07:34:02.000Z</time>
      </trkpt>
      <trkpt lat="43.28136" lon="2.23819">
        <ele>183.1</ele>
        <time>2022-03-06T07:34:03.000Z</time>
      </trkpt>
      <trkpt lat="43.28136" lon="2.23822">
        <ele>183</ele>
        <time>2022-03-06T07:34:04.000Z</time>
      </trkpt>
      <trkpt lat="43.28136" lon="2.23826">
        <ele>183</ele>
        <time>2022-03-06T07:34:05.000Z</time>
      </trkpt>
      <trkpt lat="43.28136" lon="2.23829">
        <ele>183</ele>
        <time>2022-03-06T07:34:06.000Z</time>
      </trkpt>
      <trkpt lat="43.28136" lon="2.23832">
        <ele>182.9</ele>
        <time>2022-03-06T07:34:07.000Z</time>
      </trkpt>
      <trkpt lat="43.28136" lon="2.23835">
        <ele>182.9</ele>
        <time>2022-03-06T07:34:08.000Z</time>
      </trkpt>
      <trkpt lat="43.28136" lon="2.23839">
        <ele>182.9</ele>
        <time>2022-03-06T07:34:09.000Z</time>
      </trkpt>
      <trkpt lat="43.28136" lon="2.23842">
        <ele>182.9</ele>
        <time>2022-03-06T07:34:10.000Z</time>
      </trkpt>
      <trkpt lat="43.28136" lon="2.23845">
        <ele>182.9</ele>
        <time>2022-03-06T07:34:11.000Z</time>
      </trkpt>
      <trkpt lat="43.28136" lon="2.23849">
        <ele>182.8</ele>
        <time>2022-03-06T07:34:12.000Z</time>
      </trkpt>
      <trkpt lat="43.28136" lon="2.23852">
        <ele>182.8</ele>
        <time>2022-03-06T07:34:13.000Z</time>
      </trkpt>
      <trkpt lat="43.28136" lon="2.23855">
        <ele>182.8</ele>
        <time>2022-03-06T07:34:14.000Z</time>
      </trkpt>
      <trkpt lat="43.28136" lon="2.23859">
        <ele>182.8</ele>
        <time>2022-03-06T07:34:15.000Z</time>
      </trkpt>
      <trkpt lat="43.28136" lon="2.23862">
        <ele>182.8</ele>
        <time>2022-03-06T07:34:16.000Z</time>
      </trkpt>
      <trkpt lat="43.28136" lon="2.23865">
        <ele>182.7</ele>
        <time>2022-03-06T07:34:17.000Z</time>
      </trkpt>
      <trkpt lat="43.28135" lon="2.23869">
        <ele>182.7</ele>
        <time>2022-03-06T07:34:18.000Z</time>
      </trkpt>
      <trkpt lat="43.28135" lon="2.23872">
        <ele>182.7</ele>
        <time>2022-03-06T07:34:19.000Z</time>
      </trkpt>
      <trkpt lat="43.28135" lon="2.23875">
        <ele>182.7</ele>
        <time>2022-03-06T07:34:20.000Z</time>
      </trkpt>
      <trkpt lat="43.28135" lon="2.23879">
        <ele>182.6</ele>
        <time>2022-03-06T07:34:21.000Z</time>
      </trkpt>
      <trkpt lat="43.28134" lon="2.23882">
        <ele>182.6</ele>
        <time>2022-03-06T07:34:22.000Z</time>
      </trkpt>
      <trkpt lat="43.28134" lon="2.23885">
        <ele>182.6</ele>
        <time>2022-03-06T07:34:23.000Z</time>
      </trkpt>
      <trkpt lat="43.28134" lon="2.23888">
        <ele>182.6</ele>
        <time>2022-03-06T07:34:24.000Z</time>
      </trkpt>
      <trkpt lat="43.28134" lon="2.23892">
        <ele>182.5</ele>
        <time>2022-03-06T07:34:25.000Z</time>
      </trkpt>
      <trkpt lat="43.28134" lon="2.23895">
        <ele>182.5</ele>
        <time>2022-03-06T07:34:26.000Z</time>
      </trkpt>
      <trkpt lat="43.28133" lon="2.23898">
        <ele>182.5</ele>
        <time>2022-03-06T07:34:27.000Z</time>
      </trkpt>
      <trkpt lat="43.28133" lon="2.23902">
        <ele>182.5</ele>
        <time>2022-03-06T07:34:28.000Z</time>
      </trkpt>
      <trkpt lat="43.28133" lon="2.23905">
        <ele>182.4</ele>
        <time>2022-03-06T07:34:29.000Z</time>
      </trkpt>
      <trkpt lat="43.28133" lon="2.23909">
        <ele>182.4</ele>
        <time>2022-03-06T07:34:30.000Z</time>
      </trkpt>
      <trkpt lat="43.28133" lon="2.23912">
        <ele>182.4</ele>
        <time>2022-03-06T07:34:31.000Z</time>
      </trkpt>
      <trkpt lat="43.28133" lon="2.23916">
        <ele>182.4</ele>
        <time>2022-03-06T07:34:32.000Z</time>
      </trkpt>
      <trkpt lat="43.28132" lon="2.23919">
        <ele>182.3</ele>
        <time>2022-03-06T07:34:33.000Z</time>
      </trkpt>
      <trkpt lat="43.28132" lon="2.23923">
        <ele>182.3</ele>
        <time>2022-03-06T07:34:34.000Z</time>
      </trkpt>
      <trkpt lat="43.28132" lon="2.23926">
        <ele>182.2</ele>
        <time>2022-03-06T07:34:35.000Z</time>
      </trkpt>
      <trkpt lat="43.28131" lon="2.2393">
        <ele>182.1</ele>
        <time>2022-03-06T07:34:36.000Z</time>
      </trkpt>
      <trkpt lat="43.2813" lon="2.23933">
        <ele>182.1</ele>
        <time>2022-03-06T07:34:37.000Z</time>
      </trkpt>
      <trkpt lat="43.28129" lon="2.23936">
        <ele>182</ele>
        <time>2022-03-06T07:34:38.000Z</time>
      </trkpt>
      <trkpt lat="43.28127" lon="2.23938">
        <ele>181.9</ele>
        <time>2022-03-06T07:34:39.000Z</time>
      </trkpt>
      <trkpt lat="43.28125" lon="2.23939">
        <ele>181.7</ele>
        <time>2022-03-06T07:34:40.000Z</time>
      </trkpt>
      <trkpt lat="43.28122" lon="2.2394">
        <ele>181.6</ele>
        <time>2022-03-06T07:34:41.000Z</time>
      </trkpt>
      <trkpt lat="43.28119" lon="2.2394">
        <ele>181.4</ele>
        <time>2022-03-06T07:34:42.000Z</time>
      </trkpt>
      <trkpt lat="43.28116" lon="2.23939">
        <ele>181.3</ele>
        <time>2022-03-06T07:34:43.000Z</time>
      </trkpt>
      <trkpt lat="43.28113" lon="2.23939">
        <ele>181.2</ele>
        <time>2022-03-06T07:34:44.000Z</time>
      </trkpt>
      <trkpt lat="43.28111" lon="2.23938">
        <ele>181.1</ele>
        <time>2022-03-06T07:34:45.000Z</time>
      </trkpt>
      <trkpt lat="43.28108" lon="2.23938">
        <ele>180.9</ele>
        <time>2022-03-06T07:34:46.000Z</time>
      </trkpt>
      <trkpt lat="43.28105" lon="2.23937">
        <ele>180.8</ele>
        <time>2022-03-06T07:34:47.000Z</time>
      </trkpt>
      <trkpt lat="43.28103" lon="2.23936">
        <ele>180.7</ele>
        <time>2022-03-06T07:34:48.000Z</time>
      </trkpt>
      <trkpt lat="43.281" lon="2.23935">
        <ele>180.6</ele>
        <time>2022-03-06T07:34:49.000Z</time>
      </trkpt>
      <trkpt lat="43.28097" lon="2.23935">
        <ele>180.5</ele>
        <time>2022-03-06T07:34:50.000Z</time>
      </trkpt>
      <trkpt lat="43.28095" lon="2.23935">
        <ele>180.3</ele>
        <time>2022-03-06T07:34:51.000Z</time>
      </trkpt>
      <trkpt lat="43.28092" lon="2.23934">
        <ele>180.2</ele>
        <time>2022-03-06T07:34:52.000Z</time>
      </trkpt>
      <trkpt lat="43.28089" lon="2.23934">
        <ele>180.1</ele>
        <time>2022-03-06T07:34:53.000Z</time>
      </trkpt>
      <trkpt lat="43.28087" lon="2.23934">
        <ele>179.9</ele>
        <time>2022-03-06T07:34:54.000Z</time>
      </trkpt>
      <trkpt lat="43.28084" lon="2.23934">
        <ele>179.8</ele>
        <time>2022-03-06T07:34:55.000Z</time>
      </trkpt>
      <trkpt lat="43.28082" lon="2.23934">
        <ele>179.8</ele>
        <time>2022-03-06T07:34:56.000Z</time>
      </trkpt>
      <trkpt lat="43.28079" lon="2.23934">
        <ele>179.7</ele>
        <time>2022-03-06T07:34:57.000Z</time>
      </trkpt>
      <trkpt lat="43.28077" lon="2.23934">
        <ele>179.7</ele>
        <time>2022-03-06T07:34:58.000Z</time>
      </trkpt>
      <trkpt lat="43.28076" lon="2.23935">
        <ele>179.7</ele>
        <time>2022-03-06T07:34:59.000Z</time>
      </trkpt>
      <trkpt lat="43.28074" lon="2.23936">
        <ele>179.6</ele>
        <time>2022-03-06T07:35:00.000Z</time>
      </trkpt>
      <trkpt lat="43.28074" lon="2.23938">
        <ele>179.6</ele>
        <time>2022-03-06T07:35:01.000Z</time>
      </trkpt>
      <trkpt lat="43.28073" lon="2.2394">
        <ele>179.6</ele>
        <time>2022-03-06T07:35:02.000Z</time>
      </trkpt>
      <trkpt lat="43.28073" lon="2.23942">
        <ele>179.5</ele>
        <time>2022-03-06T07:35:03.000Z</time>
      </trkpt>
      <trkpt lat="43.28073" lon="2.23943">
        <ele>179.5</ele>
        <time>2022-03-06T07:35:04.000Z</time>
      </trkpt>
      <trkpt lat="43.28073" lon="2.23945">
        <ele>179.5</ele>
        <time>2022-03-06T07:35:05.000Z</time>
      </trkpt>
      <trkpt lat="43.28073" lon="2.23946">
        <ele>179.5</ele>
        <time>2022-03-06T07:35:06.000Z</time>
      </trkpt>
      <trkpt lat="43.28073" lon="2.23946">
        <ele>179.5</ele>
        <time>2022-03-06T07:35:07.000Z</time>
      </trkpt>
      <trkpt lat="43.28073" lon="2.23946">
        <ele>179.5</ele>
        <time>2022-03-06T07:35:08.000Z</time>
      </trkpt>
      <trkpt lat="43.28073" lon="2.23946">
        <ele>179.5</ele>
        <time>2022-03-06T07:35:09.000Z</time>
      </trkpt>
      <trkpt lat="43.28073" lon="2.23946">
        <ele>179.5</ele>
        <time>2022-03-06T07:35:10.000Z</time>
      </trkpt>
      <trkpt lat="43.28073" lon="2.23946">
        <ele>179.5</ele>
        <time>2022-03-06T07:35:11.000Z</time>
      </trkpt>
      <trkpt lat="43.28073" lon="2.23946">
        <ele>179.5</ele>
        <time>2022-03-06T07:35:12.000Z</time>
      </trkpt>
      <trkpt lat="43.28073" lon="2.23946">
        <ele>179.5</ele>
        <time>2022-03-06T07:35:13.000Z</time>
      </trkpt>
      <trkpt lat="43.28073" lon="2.23946">
        <ele>179.5</ele>
        <time>2022-03-06T07:35:14.000Z</time>
      </trkpt>
      <trkpt lat="43.28073" lon="2.23946">
        <ele>179.5</ele>
        <time>2022-03-06T07:35:15.000Z</time>
      </trkpt>
      <trkpt lat="43.28073" lon="2.23946">
        <ele>179.5</ele>
        <time>2022-03-06T07:35:16.000Z</time>
      </trkpt>
      <trkpt lat="43.28073" lon="2.23946">
        <ele>179.5</ele>
        <time>2022-03-06T07:35:17.000Z</time>
      </trkpt>
      <trkpt lat="43.28073" lon="2.23946">
        <ele>179.5</ele>
        <time>2022-03-06T07:35:18.000Z</time>
      </trkpt>
      <trkpt lat="43.28073" lon="2.23946">
        <ele>179.5</ele>
        <time>2022-03-06T07:35:19.000Z</time>
      </trkpt>
      <trkpt lat="43.28073" lon="2.23946">
        <ele>179.5</ele>
        <time>2022-03-06T07:35:20.000Z</time>
      </trkpt>
      <trkpt lat="43.28073" lon="2.23945">
        <ele>179.5</ele>
        <time>2022-03-06T07:35:21.000Z</time>
      </trkpt>
      <trkpt lat="43.28073" lon="2.23945">
        <ele>179.5</ele>
        <time>2022-03-06T07:35:22.000Z</time>
      </trkpt>
      <trkpt lat="43.28073" lon="2.23946">
        <ele>179.5</ele>
        <time>2022-03-06T07:35:23.000Z</time>
      </trkpt>
      <trkpt lat="43.28074" lon="2.23946">
        <ele>179.5</ele>
        <time>2022-03-06T07:35:24.000Z</time>
      </trkpt>
      <trkpt lat="43.28074" lon="2.23947">
        <ele>179.5</ele>
        <time>2022-03-06T07:35:25.000Z</time>
      </trkpt>
      <trkpt lat="43.28074" lon="2.23949">
        <ele>179.5</ele>
        <time>2022-03-06T07:35:26.000Z</time>
      </trkpt>
      <trkpt lat="43.28074" lon="2.23951">
        <ele>179.4</ele>
        <time>2022-03-06T07:35:27.000Z</time>
      </trkpt>
      <trkpt lat="43.28075" lon="2.23953">
        <ele>179.4</ele>
        <time>2022-03-06T07:35:28.000Z</time>
      </trkpt>
      <trkpt lat="43.28075" lon="2.23956">
        <ele>179.4</ele>
        <time>2022-03-06T07:35:29.000Z</time>
      </trkpt>
      <trkpt lat="43.28075" lon="2.23959">
        <ele>179.3</ele>
        <time>2022-03-06T07:35:30.000Z</time>
      </trkpt>
      <trkpt lat="43.28076" lon="2.23962">
        <ele>179.3</ele>
        <time>2022-03-06T07:35:31.000Z</time>
      </trkpt>
      <trkpt lat="43.28076" lon="2.23965">
        <ele>179.3</ele>
        <time>2022-03-06T07:35:32.000Z</time>
      </trkpt>
      <trkpt lat="43.28076" lon="2.23969">
        <ele>179.2</ele>
        <time>2022-03-06T07:35:33.000Z</time>
      </trkpt>
      <trkpt lat="43.28077" lon="2.23973">
        <ele>179.2</ele>
        <time>2022-03-06T07:35:34.000Z</time>
      </trkpt>
      <trkpt lat="43.28077" lon="2.23977">
        <ele>179.1</ele>
        <time>2022-03-06T07:35:35.000Z</time>
      </trkpt>
      <trkpt lat="43.28077" lon="2.23981">
        <ele>179.1</ele>
        <time>2022-03-06T07:35:36.000Z</time>
      </trkpt>
      <trkpt lat="43.28077" lon="2.23985">
        <ele>179.1</ele>
        <time>2022-03-06T07:35:37.000Z</time>
      </trkpt>
      <trkpt lat="43.28078" lon="2.23989">
        <ele>179</ele>
        <time>2022-03-06T07:35:38.000Z</time>
      </trkpt>
      <trkpt lat="43.28078" lon="2.23993">
        <ele>179</ele>
        <time>2022-03-06T07:35:39.000Z</time>
      </trkpt>
      <trkpt lat="43.28078" lon="2.23997">
        <ele>178.9</ele>
        <time>2022-03-06T07:35:40.000Z</time>
      </trkpt>
      <trkpt lat="43.28078" lon="2.24">
        <ele>178.9</ele>
        <time>2022-03-06T07:35:41.000Z</time>
      </trkpt>
      <trkpt lat="43.28078" lon="2.24004">
        <ele>178.7</ele>
        <time>2022-03-06T07:35:42.000Z</time>
      </trkpt>
      <trkpt lat="43.28078" lon="2.24008">
        <ele>178.6</ele>
        <time>2022-03-06T07:35:43.000Z</time>
      </trkpt>
      <trkpt lat="43.28078" lon="2.24011">
        <ele>178.5</ele>
        <time>2022-03-06T07:35:44.000Z</time>
      </trkpt>
      <trkpt lat="43.28078" lon="2.24015">
        <ele>178.4</ele>
        <time>2022-03-06T07:35:45.000Z</time>
      </trkpt>
      <trkpt lat="43.28078" lon="2.24018">
        <ele>178.2</ele>
        <time>2022-03-06T07:35:46.000Z</time>
      </trkpt>
      <trkpt lat="43.28078" lon="2.24022">
        <ele>178.1</ele>
        <time>2022-03-06T07:35:47.000Z</time>
      </trkpt>
      <trkpt lat="43.28079" lon="2.24025">
        <ele>178</ele>
        <time>2022-03-06T07:35:48.000Z</time>
      </trkpt>
      <trkpt lat="43.28079" lon="2.24029">
        <ele>177.9</ele>
        <time>2022-03-06T07:35:49.000Z</time>
      </trkpt>
      <trkpt lat="43.2808" lon="2.24033">
        <ele>177.8</ele>
        <time>2022-03-06T07:35:50.000Z</time>
      </trkpt>
      <trkpt lat="43.2808" lon="2.24036">
        <ele>177.6</ele>
        <time>2022-03-06T07:35:51.000Z</time>
      </trkpt>
      <trkpt lat="43.28081" lon="2.2404">
        <ele>177.5</ele>
        <time>2022-03-06T07:35:52.000Z</time>
      </trkpt>
      <trkpt lat="43.28082" lon="2.24043">
        <ele>177.4</ele>
        <time>2022-03-06T07:35:53.000Z</time>
      </trkpt>
      <trkpt lat="43.28083" lon="2.24047">
        <ele>177.3</ele>
        <time>2022-03-06T07:35:54.000Z</time>
      </trkpt>
      <trkpt lat="43.28083" lon="2.2405">
        <ele>177.2</ele>
        <time>2022-03-06T07:35:55.000Z</time>
      </trkpt>
      <trkpt lat="43.28084" lon="2.24054">
        <ele>177.1</ele>
        <time>2022-03-06T07:35:56.000Z</time>
      </trkpt>
      <trkpt lat="43.28085" lon="2.24057">
        <ele>177</ele>
        <time>2022-03-06T07:35:57.000Z</time>
      </trkpt>
      <trkpt lat="43.28086" lon="2.24061">
        <ele>176.9</ele>
        <time>2022-03-06T07:35:58.000Z</time>
      </trkpt>
      <trkpt lat="43.28087" lon="2.24064">
        <ele>176.9</ele>
        <time>2022-03-06T07:35:59.000Z</time>
      </trkpt>
      <trkpt lat="43.28088" lon="2.24068">
        <ele>176.8</ele>
        <time>2022-03-06T07:36:00.000Z</time>
      </trkpt>
      <trkpt lat="43.28089" lon="2.24071">
        <ele>176.7</ele>
        <time>2022-03-06T07:36:01.000Z</time>
      </trkpt>
      <trkpt lat="43.2809" lon="2.24075">
        <ele>176.6</ele>
        <time>2022-03-06T07:36:02.000Z</time>
      </trkpt>
      <trkpt lat="43.28091" lon="2.24079">
        <ele>176.5</ele>
        <time>2022-03-06T07:36:03.000Z</time>
      </trkpt>
      <trkpt lat="43.28092" lon="2.24082">
        <ele>176.5</ele>
        <time>2022-03-06T07:36:04.000Z</time>
      </trkpt>
      <trkpt lat="43.28093" lon="2.24086">
        <ele>176.5</ele>
        <time>2022-03-06T07:36:05.000Z</time>
      </trkpt>
      <trkpt lat="43.28094" lon="2.2409">
        <ele>176.5</ele>
        <time>2022-03-06T07:36:06.000Z</time>
      </trkpt>
      <trkpt lat="43.28095" lon="2.24093">
        <ele>176.6</ele>
        <time>2022-03-06T07:36:07.000Z</time>
      </trkpt>
      <trkpt lat="43.28097" lon="2.24097">
        <ele>176.6</ele>
        <time>2022-03-06T07:36:08.000Z</time>
      </trkpt>
      <trkpt lat="43.28098" lon="2.241">
        <ele>176.7</ele>
        <time>2022-03-06T07:36:09.000Z</time>
      </trkpt>
      <trkpt lat="43.28099" lon="2.24104">
        <ele>176.7</ele>
        <time>2022-03-06T07:36:10.000Z</time>
      </trkpt>
      <trkpt lat="43.281" lon="2.24107">
        <ele>176.7</ele>
        <time>2022-03-06T07:36:11.000Z</time>
      </trkpt>
      <trkpt lat="43.28101" lon="2.24111">
        <ele>176.8</ele>
        <time>2022-03-06T07:36:12.000Z</time>
      </trkpt>
      <trkpt lat="43.28102" lon="2.24114">
        <ele>176.8</ele>
        <time>2022-03-06T07:36:13.000Z</time>
      </trkpt>
      <trkpt lat="43.28104" lon="2.24117">
        <ele>176.9</ele>
        <time>2022-03-06T07:36:14.000Z</time>
      </trkpt>
      <trkpt lat="43.28105" lon="2.24121">
        <ele>176.9</ele>
        <time>2022-03-06T07:36:15.000Z</time>
      </trkpt>
      <trkpt lat="43.28106" lon="2.24124">
        <ele>177</ele>
        <time>2022-03-06T07:36:16.000Z</time>
      </trkpt>
      <trkpt lat="43.28108" lon="2.24127">
        <ele>177</ele>
        <time>2022-03-06T07:36:17.000Z</time>
      </trkpt>
      <trkpt lat="43.28109" lon="2.2413">
        <ele>177.1</ele>
        <time>2022-03-06T07:36:18.000Z</time>
      </trkpt>
      <trkpt lat="43.28111" lon="2.24133">
        <ele>177.1</ele>
        <time>2022-03-06T07:36:19.000Z</time>
      </trkpt>
      <trkpt lat="43.28112" lon="2.24137">
        <ele>177.2</ele>
        <time>2022-03-06T07:36:20.000Z</time>
      </trkpt>
      <trkpt lat="43.28114" lon="2.2414">
        <ele>177.2</ele>
        <time>2022-03-06T07:36:21.000Z</time>
      </trkpt>
      <trkpt lat="43.28116" lon="2.24143">
        <ele>177.3</ele>
        <time>2022-03-06T07:36:22.000Z</time>
      </trkpt>
      <trkpt lat="43.28118" lon="2.24146">
        <ele>177.3</ele>
        <time>2022-03-06T07:36:23.000Z</time>
      </trkpt>
      <trkpt lat="43.28119" lon="2.24149">
        <ele>177.4</ele>
        <time>2022-03-06T07:36:24.000Z</time>
      </trkpt>
      <trkpt lat="43.28121" lon="2.24153">
        <ele>177.4</ele>
        <time>2022-03-06T07:36:25.000Z</time>
      </trkpt>
      <trkpt lat="43.28123" lon="2.24156">
        <ele>177.5</ele>
        <time>2022-03-06T07:36:26.000Z</time>
      </trkpt>
      <trkpt lat="43.28124" lon="2.24159">
        <ele>177.5</ele>
        <time>2022-03-06T07:36:27.000Z</time>
      </trkpt>
      <trkpt lat="43.28126" lon="2.24163">
        <ele>177.5</ele>
        <time>2022-03-06T07:36:28.000Z</time>
      </trkpt>
      <trkpt lat="43.28127" lon="2.24166">
        <ele>177.6</ele>
        <time>2022-03-06T07:36:29.000Z</time>
      </trkpt>
      <trkpt lat="43.28128" lon="2.2417">
        <ele>177.5</ele>
        <time>2022-03-06T07:36:30.000Z</time>
      </trkpt>
      <trkpt lat="43.28128" lon="2.24173">
        <ele>177.5</ele>
        <time>2022-03-06T07:36:31.000Z</time>
      </trkpt>
      <trkpt lat="43.28129" lon="2.24177">
        <ele>177.4</ele>
        <time>2022-03-06T07:36:32.000Z</time>
      </trkpt>
      <trkpt lat="43.28129" lon="2.24181">
        <ele>177.3</ele>
        <time>2022-03-06T07:36:33.000Z</time>
      </trkpt>
      <trkpt lat="43.2813" lon="2.24185">
        <ele>177.3</ele>
        <time>2022-03-06T07:36:34.000Z</time>
      </trkpt>
      <trkpt lat="43.2813" lon="2.24189">
        <ele>177.2</ele>
        <time>2022-03-06T07:36:35.000Z</time>
      </trkpt>
      <trkpt lat="43.2813" lon="2.24193">
        <ele>177.1</ele>
        <time>2022-03-06T07:36:36.000Z</time>
      </trkpt>
      <trkpt lat="43.2813" lon="2.24197">
        <ele>177</ele>
        <time>2022-03-06T07:36:37.000Z</time>
      </trkpt>
      <trkpt lat="43.28129" lon="2.24201">
        <ele>176.9</ele>
        <time>2022-03-06T07:36:38.000Z</time>
      </trkpt>
      <trkpt lat="43.28129" lon="2.24206">
        <ele>176.7</ele>
        <time>2022-03-06T07:36:39.000Z</time>
      </trkpt>
      <trkpt lat="43.28129" lon="2.2421">
        <ele>176.6</ele>
        <time>2022-03-06T07:36:40.000Z</time>
      </trkpt>
      <trkpt lat="43.28128" lon="2.24214">
        <ele>176.5</ele>
        <time>2022-03-06T07:36:41.000Z</time>
      </trkpt>
      <trkpt lat="43.28128" lon="2.24218">
        <ele>176.4</ele>
        <time>2022-03-06T07:36:42.000Z</time>
      </trkpt>
      <trkpt lat="43.28127" lon="2.24222">
        <ele>176.3</ele>
        <time>2022-03-06T07:36:43.000Z</time>
      </trkpt>
      <trkpt lat="43.28127" lon="2.24226">
        <ele>176.2</ele>
        <time>2022-03-06T07:36:44.000Z</time>
      </trkpt>
      <trkpt lat="43.28127" lon="2.2423">
        <ele>176.1</ele>
        <time>2022-03-06T07:36:45.000Z</time>
      </trkpt>
      <trkpt lat="43.28126" lon="2.24235">
        <ele>175.9</ele>
        <time>2022-03-06T07:36:46.000Z</time>
      </trkpt>
      <trkpt lat="43.28126" lon="2.24239">
        <ele>175.8</ele>
        <time>2022-03-06T07:36:47.000Z</time>
      </trkpt>
      <trkpt lat="43.28126" lon="2.24243">
        <ele>175.7</ele>
        <time>2022-03-06T07:36:48.000Z</time>
      </trkpt>
      <trkpt lat="43.28126" lon="2.24247">
        <ele>175.6</ele>
        <time>2022-03-06T07:36:49.000Z</time>
      </trkpt>
      <trkpt lat="43.28125" lon="2.24251">
        <ele>175.5</ele>
        <time>2022-03-06T07:36:50.000Z</time>
      </trkpt>
      <trkpt lat="43.28125" lon="2.24255">
        <ele>175.4</ele>
        <time>2022-03-06T07:36:51.000Z</time>
      </trkpt>
      <trkpt lat="43.28125" lon="2.24259">
        <ele>175.3</ele>
        <time>2022-03-06T07:36:52.000Z</time>
      </trkpt>
      <trkpt lat="43.28125" lon="2.24263">
        <ele>175.3</ele>
        <time>2022-03-06T07:36:53.000Z</time>
      </trkpt>
      <trkpt lat="43.28125" lon="2.24268">
        <ele>175.2</ele>
        <time>2022-03-06T07:36:54.000Z</time>
      </trkpt>
      <trkpt lat="43.28125" lon="2.24272">
        <ele>175.1</ele>
        <time>2022-03-06T07:36:55.000Z</time>
      </trkpt>
      <trkpt lat="43.28125" lon="2.24276">
        <ele>175</ele>
        <time>2022-03-06T07:36:56.000Z</time>
      </trkpt>
      <trkpt lat="43.28125" lon="2.2428">
        <ele>174.9</ele>
        <time>2022-03-06T07:36:57.000Z</time>
      </trkpt>
      <trkpt lat="43.28125" lon="2.24284">
        <ele>174.9</ele>
        <time>2022-03-06T07:36:58.000Z</time>
      </trkpt>
      <trkpt lat="43.28125" lon="2.24289">
        <ele>174.8</ele>
        <time>2022-03-06T07:36:59.000Z</time>
      </trkpt>
      <trkpt lat="43.28125" lon="2.24293">
        <ele>174.7</ele>
        <time>2022-03-06T07:37:00.000Z</time>
      </trkpt>
      <trkpt lat="43.28125" lon="2.24297">
        <ele>174.6</ele>
        <time>2022-03-06T07:37:01.000Z</time>
      </trkpt>
      <trkpt lat="43.28125" lon="2.24301">
        <ele>174.6</ele>
        <time>2022-03-06T07:37:02.000Z</time>
      </trkpt>
      <trkpt lat="43.28125" lon="2.24305">
        <ele>174.5</ele>
        <time>2022-03-06T07:37:03.000Z</time>
      </trkpt>
      <trkpt lat="43.28125" lon="2.24309">
        <ele>174.5</ele>
        <time>2022-03-06T07:37:04.000Z</time>
      </trkpt>
      <trkpt lat="43.28126" lon="2.24313">
        <ele>174.4</ele>
        <time>2022-03-06T07:37:05.000Z</time>
      </trkpt>
      <trkpt lat="43.28126" lon="2.24316">
        <ele>174.4</ele>
        <time>2022-03-06T07:37:06.000Z</time>
      </trkpt>
      <trkpt lat="43.28126" lon="2.2432">
        <ele>174.3</ele>
        <time>2022-03-06T07:37:07.000Z</time>
      </trkpt>
      <trkpt lat="43.28127" lon="2.24324">
        <ele>174.3</ele>
        <time>2022-03-06T07:37:08.000Z</time>
      </trkpt>
      <trkpt lat="43.28127" lon="2.24327">
        <ele>174.2</ele>
        <time>2022-03-06T07:37:09.000Z</time>
      </trkpt>
      <trkpt lat="43.28128" lon="2.24331">
        <ele>174.2</ele>
        <time>2022-03-06T07:37:10.000Z</time>
      </trkpt>
      <trkpt lat="43.28128" lon="2.24334">
        <ele>174.1</ele>
        <time>2022-03-06T07:37:11.000Z</time>
      </trkpt>
      <trkpt lat="43.28128" lon="2.24338">
        <ele>173.9</ele>
        <time>2022-03-06T07:37:12.000Z</time>
      </trkpt>
      <trkpt lat="43.28129" lon="2.24341">
        <ele>173.7</ele>
        <time>2022-03-06T07:37:13.000Z</time>
      </trkpt>
      <trkpt lat="43.28129" lon="2.24344">
        <ele>173.4</ele>
        <time>2022-03-06T07:37:14.000Z</time>
      </trkpt>
      <trkpt lat="43.2813" lon="2.24348">
        <ele>173.2</ele>
        <time>2022-03-06T07:37:15.000Z</time>
      </trkpt>
      <trkpt lat="43.2813" lon="2.24351">
        <ele>173</ele>
        <time>2022-03-06T07:37:16.000Z</time>
      </trkpt>
      <trkpt lat="43.2813" lon="2.24354">
        <ele>172.8</ele>
        <time>2022-03-06T07:37:17.000Z</time>
      </trkpt>
      <trkpt lat="43.28131" lon="2.24357">
        <ele>172.6</ele>
        <time>2022-03-06T07:37:18.000Z</time>
      </trkpt>
      <trkpt lat="43.28131" lon="2.24361">
        <ele>172.4</ele>
        <time>2022-03-06T07:37:19.000Z</time>
      </trkpt>
      <trkpt lat="43.28131" lon="2.24364">
        <ele>172.1</ele>
        <time>2022-03-06T07:37:20.000Z</time>
      </trkpt>
      <trkpt lat="43.28131" lon="2.24367">
        <ele>171.9</ele>
        <time>2022-03-06T07:37:21.000Z</time>
      </trkpt>
      <trkpt lat="43.28131" lon="2.2437">
        <ele>171.7</ele>
        <time>2022-03-06T07:37:22.000Z</time>
      </trkpt>
      <trkpt lat="43.28132" lon="2.24374">
        <ele>171.5</ele>
        <time>2022-03-06T07:37:23.000Z</time>
      </trkpt>
      <trkpt lat="43.28132" lon="2.24377">
        <ele>171.2</ele>
        <time>2022-03-06T07:37:24.000Z</time>
      </trkpt>
      <trkpt lat="43.28132" lon="2.24381">
        <ele>170.9</ele>
        <time>2022-03-06T07:37:25.000Z</time>
      </trkpt>
      <trkpt lat="43.28133" lon="2.24385">
        <ele>170.7</ele>
        <time>2022-03-06T07:37:26.000Z</time>
      </trkpt>
      <trkpt lat="43.28134" lon="2.24389">
        <ele>170.4</ele>
        <time>2022-03-06T07:37:27.000Z</time>
      </trkpt>
      <trkpt lat="43.28134" lon="2.24393">
        <ele>170.1</ele>
        <time>2022-03-06T07:37:28.000Z</time>
      </trkpt>
      <trkpt lat="43.28135" lon="2.24397">
        <ele>169.8</ele>
        <time>2022-03-06T07:37:29.000Z</time>
      </trkpt>
      <trkpt lat="43.28135" lon="2.244">
        <ele>169.6</ele>
        <time>2022-03-06T07:37:30.000Z</time>
      </trkpt>
      <trkpt lat="43.28135" lon="2.24404">
        <ele>169.3</ele>
        <time>2022-03-06T07:37:31.000Z</time>
      </trkpt>
      <trkpt lat="43.28135" lon="2.24407">
        <ele>169.1</ele>
        <time>2022-03-06T07:37:32.000Z</time>
      </trkpt>
      <trkpt lat="43.28136" lon="2.24411">
        <ele>168.8</ele>
        <time>2022-03-06T07:37:33.000Z</time>
      </trkpt>
      <trkpt lat="43.28136" lon="2.24415">
        <ele>168.5</ele>
        <time>2022-03-06T07:37:34.000Z</time>
      </trkpt>
      <trkpt lat="43.28136" lon="2.24418">
        <ele>168.3</ele>
        <time>2022-03-06T07:37:35.000Z</time>
      </trkpt>
      <trkpt lat="43.28136" lon="2.24422">
        <ele>168</ele>
        <time>2022-03-06T07:37:36.000Z</time>
      </trkpt>
      <trkpt lat="43.28137" lon="2.24425">
        <ele>167.8</ele>
        <time>2022-03-06T07:37:37.000Z</time>
      </trkpt>
      <trkpt lat="43.28137" lon="2.24429">
        <ele>167.5</ele>
        <time>2022-03-06T07:37:38.000Z</time>
      </trkpt>
      <trkpt lat="43.28138" lon="2.24432">
        <ele>167.2</ele>
        <time>2022-03-06T07:37:39.000Z</time>
      </trkpt>
      <trkpt lat="43.28138" lon="2.24436">
        <ele>167</ele>
        <time>2022-03-06T07:37:40.000Z</time>
      </trkpt>
      <trkpt lat="43.28138" lon="2.2444">
        <ele>166.7</ele>
        <time>2022-03-06T07:37:41.000Z</time>
      </trkpt>
      <trkpt lat="43.28139" lon="2.24443">
        <ele>166.4</ele>
        <time>2022-03-06T07:37:42.000Z</time>
      </trkpt>
      <trkpt lat="43.28139" lon="2.24447">
        <ele>166.2</ele>
        <time>2022-03-06T07:37:43.000Z</time>
      </trkpt>
      <trkpt lat="43.28139" lon="2.24451">
        <ele>165.9</ele>
        <time>2022-03-06T07:37:44.000Z</time>
      </trkpt>
      <trkpt lat="43.2814" lon="2.24454">
        <ele>165.6</ele>
        <time>2022-03-06T07:37:45.000Z</time>
      </trkpt>
      <trkpt lat="43.2814" lon="2.24458">
        <ele>165.3</ele>
        <time>2022-03-06T07:37:46.000Z</time>
      </trkpt>
      <trkpt lat="43.2814" lon="2.24461">
        <ele>165.1</ele>
        <time>2022-03-06T07:37:47.000Z</time>
      </trkpt>
      <trkpt lat="43.28141" lon="2.24465">
        <ele>164.8</ele>
        <time>2022-03-06T07:37:48.000Z</time>
      </trkpt>
      <trkpt lat="43.28141" lon="2.24468">
        <ele>164.5</ele>
        <time>2022-03-06T07:37:49.000Z</time>
      </trkpt>
      <trkpt lat="43.28141" lon="2.24472">
        <ele>164.3</ele>
        <time>2022-03-06T07:37:50.000Z</time>
      </trkpt>
      <trkpt lat="43.28141" lon="2.24475">
        <ele>164.1</ele>
        <time>2022-03-06T07:37:51.000Z</time>
      </trkpt>
      <trkpt lat="43.28141" lon="2.24478">
        <ele>163.9</ele>
        <time>2022-03-06T07:37:52.000Z</time>
      </trkpt>
      <trkpt lat="43.28141" lon="2.2448">
        <ele>163.7</ele>
        <time>2022-03-06T07:37:53.000Z</time>
      </trkpt>
      <trkpt lat="43.28141" lon="2.24483">
        <ele>163.5</ele>
        <time>2022-03-06T07:37:54.000Z</time>
      </trkpt>
      <trkpt lat="43.2814" lon="2.24485">
        <ele>163.4</ele>
        <time>2022-03-06T07:37:55.000Z</time>
      </trkpt>
      <trkpt lat="43.2814" lon="2.24486">
        <ele>163.3</ele>
        <time>2022-03-06T07:37:56.000Z</time>
      </trkpt>
      <trkpt lat="43.28139" lon="2.24488">
        <ele>163.2</ele>
        <time>2022-03-06T07:37:57.000Z</time>
      </trkpt>
      <trkpt lat="43.28139" lon="2.24489">
        <ele>163.1</ele>
        <time>2022-03-06T07:37:58.000Z</time>
      </trkpt>
      <trkpt lat="43.28138" lon="2.24491">
        <ele>163</ele>
        <time>2022-03-06T07:37:59.000Z</time>
      </trkpt>
      <trkpt lat="43.28138" lon="2.24492">
        <ele>163</ele>
        <time>2022-03-06T07:38:00.000Z</time>
      </trkpt>
      <trkpt lat="43.28138" lon="2.24493">
        <ele>162.9</ele>
        <time>2022-03-06T07:38:01.000Z</time>
      </trkpt>
      <trkpt lat="43.28138" lon="2.24494">
        <ele>162.8</ele>
        <time>2022-03-06T07:38:02.000Z</time>
      </trkpt>
      <trkpt lat="43.28138" lon="2.24496">
        <ele>162.7</ele>
        <time>2022-03-06T07:38:03.000Z</time>
      </trkpt>
      <trkpt lat="43.28138" lon="2.24498">
        <ele>162.5</ele>
        <time>2022-03-06T07:38:04.000Z</time>
      </trkpt>
      <trkpt lat="43.28139" lon="2.245">
        <ele>162.3</ele>
        <time>2022-03-06T07:38:05.000Z</time>
      </trkpt>
      <trkpt lat="43.28139" lon="2.24503">
        <ele>162.2</ele>
        <time>2022-03-06T07:38:06.000Z</time>
      </trkpt>
      <trkpt lat="43.2814" lon="2.24506">
        <ele>162.1</ele>
        <time>2022-03-06T07:38:07.000Z</time>
      </trkpt>
      <trkpt lat="43.2814" lon="2.24508">
        <ele>162</ele>
        <time>2022-03-06T07:38:08.000Z</time>
      </trkpt>
      <trkpt lat="43.2814" lon="2.2451">
        <ele>161.9</ele>
        <time>2022-03-06T07:38:09.000Z</time>
      </trkpt>
      <trkpt lat="43.28141" lon="2.24512">
        <ele>161.8</ele>
        <time>2022-03-06T07:38:10.000Z</time>
      </trkpt>
      <trkpt lat="43.28141" lon="2.24513">
        <ele>161.7</ele>
        <time>2022-03-06T07:38:11.000Z</time>
      </trkpt>
      <trkpt lat="43.28142" lon="2.24514">
        <ele>161.7</ele>
        <time>2022-03-06T07:38:12.000Z</time>
      </trkpt>
      <trkpt lat="43.28143" lon="2.24515">
        <ele>161.6</ele>
        <time>2022-03-06T07:38:13.000Z</time>
      </trkpt>
      <trkpt lat="43.28144" lon="2.24516">
        <ele>161.5</ele>
        <time>2022-03-06T07:38:14.000Z</time>
      </trkpt>
      <trkpt lat="43.28146" lon="2.24517">
        <ele>161.4</ele>
        <time>2022-03-06T07:38:15.000Z</time>
      </trkpt>
      <trkpt lat="43.28147" lon="2.24519">
        <ele>161.3</ele>
        <time>2022-03-06T07:38:16.000Z</time>
      </trkpt>
      <trkpt lat="43.28148" lon="2.2452">
        <ele>161.1</ele>
        <time>2022-03-06T07:38:17.000Z</time>
      </trkpt>
      <trkpt lat="43.2815" lon="2.24522">
        <ele>161</ele>
        <time>2022-03-06T07:38:18.000Z</time>
      </trkpt>
      <trkpt lat="43.28151" lon="2.24524">
        <ele>160.9</ele>
        <time>2022-03-06T07:38:19.000Z</time>
      </trkpt>
      <trkpt lat="43.28153" lon="2.24526">
        <ele>160.7</ele>
        <time>2022-03-06T07:38:20.000Z</time>
      </trkpt>
      <trkpt lat="43.28154" lon="2.24528">
        <ele>160.6</ele>
        <time>2022-03-06T07:38:21.000Z</time>
      </trkpt>
      <trkpt lat="43.28156" lon="2.24531">
        <ele>160.4</ele>
        <time>2022-03-06T07:38:22.000Z</time>
      </trkpt>
      <trkpt lat="43.28158" lon="2.24533">
        <ele>160.2</ele>
        <time>2022-03-06T07:38:23.000Z</time>
      </trkpt>
      <trkpt lat="43.2816" lon="2.24535">
        <ele>160.1</ele>
        <time>2022-03-06T07:38:24.000Z</time>
      </trkpt>
      <trkpt lat="43.28161" lon="2.24537">
        <ele>159.9</ele>
        <time>2022-03-06T07:38:25.000Z</time>
      </trkpt>
      <trkpt lat="43.28163" lon="2.24539">
        <ele>159.7</ele>
        <time>2022-03-06T07:38:26.000Z</time>
      </trkpt>
      <trkpt lat="43.28165" lon="2.24542">
        <ele>159.6</ele>
        <time>2022-03-06T07:38:27.000Z</time>
      </trkpt>
      <trkpt lat="43.28167" lon="2.24544">
        <ele>159.4</ele>
        <time>2022-03-06T07:38:28.000Z</time>
      </trkpt>
      <trkpt lat="43.28169" lon="2.24546">
        <ele>159.3</ele>
        <time>2022-03-06T07:38:29.000Z</time>
      </trkpt>
      <trkpt lat="43.2817" lon="2.24548">
        <ele>159.2</ele>
        <time>2022-03-06T07:38:30.000Z</time>
      </trkpt>
      <trkpt lat="43.28172" lon="2.2455">
        <ele>159</ele>
        <time>2022-03-06T07:38:31.000Z</time>
      </trkpt>
      <trkpt lat="43.28174" lon="2.24552">
        <ele>158.9</ele>
        <time>2022-03-06T07:38:32.000Z</time>
      </trkpt>
      <trkpt lat="43.28175" lon="2.24554">
        <ele>158.8</ele>
        <time>2022-03-06T07:38:33.000Z</time>
      </trkpt>
      <trkpt lat="43.28177" lon="2.24557">
        <ele>158.6</ele>
        <time>2022-03-06T07:38:34.000Z</time>
      </trkpt>
      <trkpt lat="43.28179" lon="2.24559">
        <ele>158.5</ele>
        <time>2022-03-06T07:38:35.000Z</time>
      </trkpt>
      <trkpt lat="43.28181" lon="2.24562">
        <ele>158.3</ele>
        <time>2022-03-06T07:38:36.000Z</time>
      </trkpt>
      <trkpt lat="43.28183" lon="2.24564">
        <ele>158.2</ele>
        <time>2022-03-06T07:38:37.000Z</time>
      </trkpt>
      <trkpt lat="43.28185" lon="2.24567">
        <ele>158.1</ele>
        <time>2022-03-06T07:38:38.000Z</time>
      </trkpt>
      <trkpt lat="43.28186" lon="2.24569">
        <ele>158</ele>
        <time>2022-03-06T07:38:39.000Z</time>
      </trkpt>
      <trkpt lat="43.28188" lon="2.2457">
        <ele>157.9</ele>
        <time>2022-03-06T07:38:40.000Z</time>
      </trkpt>
      <trkpt lat="43.28188" lon="2.24571">
        <ele>157.9</ele>
        <time>2022-03-06T07:38:41.000Z</time>
      </trkpt>
      <trkpt lat="43.28188" lon="2.24571">
        <ele>157.8</ele>
        <time>2022-03-06T07:38:42.000Z</time>
      </trkpt>
      <trkpt lat="43.28188" lon="2.24571">
        <ele>157.8</ele>
        <time>2022-03-06T07:38:43.000Z</time>
      </trkpt>
      <trkpt lat="43.28189" lon="2.24571">
        <ele>157.8</ele>
        <time>2022-03-06T07:38:44.000Z</time>
      </trkpt>
      <trkpt lat="43.28189" lon="2.24572">
        <ele>157.8</ele>
        <time>2022-03-06T07:38:45.000Z</time>
      </trkpt>
      <trkpt lat="43.28189" lon="2.24572">
        <ele>157.8</ele>
        <time>2022-03-06T07:38:46.000Z</time>
      </trkpt>
      <trkpt lat="43.28189" lon="2.24573">
        <ele>157.8</ele>
        <time>2022-03-06T07:38:47.000Z</time>
      </trkpt>
      <trkpt lat="43.2819" lon="2.24573">
        <ele>157.7</ele>
        <time>2022-03-06T07:38:48.000Z</time>
      </trkpt>
      <trkpt lat="43.2819" lon="2.24574">
        <ele>157.7</ele>
        <time>2022-03-06T07:38:49.000Z</time>
      </trkpt>
      <trkpt lat="43.28191" lon="2.24575">
        <ele>157.7</ele>
        <time>2022-03-06T07:38:50.000Z</time>
      </trkpt>
      <trkpt lat="43.28191" lon="2.24576">
        <ele>157.6</ele>
        <time>2022-03-06T07:38:51.000Z</time>
      </trkpt>
      <trkpt lat="43.28192" lon="2.24578">
        <ele>157.6</ele>
        <time>2022-03-06T07:38:52.000Z</time>
      </trkpt>
      <trkpt lat="43.28193" lon="2.24579">
        <ele>157.5</ele>
        <time>2022-03-06T07:38:53.000Z</time>
      </trkpt>
      <trkpt lat="43.28194" lon="2.24581">
        <ele>157.4</ele>
        <time>2022-03-06T07:38:54.000Z</time>
      </trkpt>
      <trkpt lat="43.28195" lon="2.24583">
        <ele>157.3</ele>
        <time>2022-03-06T07:38:55.000Z</time>
      </trkpt>
      <trkpt lat="43.28196" lon="2.24585">
        <ele>157.3</ele>
        <time>2022-03-06T07:38:56.000Z</time>
      </trkpt>
      <trkpt lat="43.28197" lon="2.24588">
        <ele>157.4</ele>
        <time>2022-03-06T07:38:57.000Z</time>
      </trkpt>
      <trkpt lat="43.28198" lon="2.2459">
        <ele>157.4</ele>
        <time>2022-03-06T07:38:58.000Z</time>
      </trkpt>
      <trkpt lat="43.28199" lon="2.24593">
        <ele>157.4</ele>
        <time>2022-03-06T07:38:59.000Z</time>
      </trkpt>
      <trkpt lat="43.28201" lon="2.24596">
        <ele>157.5</ele>
        <time>2022-03-06T07:39:00.000Z</time>
      </trkpt>
      <trkpt lat="43.28202" lon="2.24599">
        <ele>157.5</ele>
        <time>2022-03-06T07:39:01.000Z</time>
      </trkpt>
      <trkpt lat="43.28203" lon="2.24602">
        <ele>157.5</ele>
        <time>2022-03-06T07:39:02.000Z</time>
      </trkpt>
      <trkpt lat="43.28204" lon="2.24605">
        <ele>157.6</ele>
        <time>2022-03-06T07:39:03.000Z</time>
      </trkpt>
      <trkpt lat="43.28205" lon="2.24609">
        <ele>157.7</ele>
        <time>2022-03-06T07:39:04.000Z</time>
      </trkpt>
      <trkpt lat="43.28206" lon="2.24612">
        <ele>157.7</ele>
        <time>2022-03-06T07:39:05.000Z</time>
      </trkpt>
      <trkpt lat="43.28207" lon="2.24615">
        <ele>157.8</ele>
        <time>2022-03-06T07:39:06.000Z</time>
      </trkpt>
      <trkpt lat="43.28207" lon="2.24618">
        <ele>157.8</ele>
        <time>2022-03-06T07:39:07.000Z</time>
      </trkpt>
      <trkpt lat="43.28208" lon="2.24621">
        <ele>157.9</ele>
        <time>2022-03-06T07:39:08.000Z</time>
      </trkpt>
      <trkpt lat="43.28208" lon="2.24624">
        <ele>158</ele>
        <time>2022-03-06T07:39:09.000Z</time>
      </trkpt>
      <trkpt lat="43.28209" lon="2.24627">
        <ele>158</ele>
        <time>2022-03-06T07:39:10.000Z</time>
      </trkpt>
      <trkpt lat="43.2821" lon="2.2463">
        <ele>158.1</ele>
        <time>2022-03-06T07:39:11.000Z</time>
      </trkpt>
      <trkpt lat="43.2821" lon="2.24634">
        <ele>158.2</ele>
        <time>2022-03-06T07:39:12.000Z</time>
      </trkpt>
      <trkpt lat="43.28211" lon="2.24637">
        <ele>158.3</ele>
        <time>2022-03-06T07:39:13.000Z</time>
      </trkpt>
      <trkpt lat="43.28212" lon="2.24641">
        <ele>158.4</ele>
        <time>2022-03-06T07:39:14.000Z</time>
      </trkpt>
      <trkpt lat="43.28213" lon="2.24645">
        <ele>158.4</ele>
        <time>2022-03-06T07:39:15.000Z</time>
      </trkpt>
      <trkpt lat="43.28215" lon="2.24648">
        <ele>158.5</ele>
        <time>2022-03-06T07:39:16.000Z</time>
      </trkpt>
      <trkpt lat="43.28216" lon="2.24651">
        <ele>158.6</ele>
        <time>2022-03-06T07:39:17.000Z</time>
      </trkpt>
      <trkpt lat="43.28218" lon="2.24654">
        <ele>158.7</ele>
        <time>2022-03-06T07:39:18.000Z</time>
      </trkpt>
      <trkpt lat="43.2822" lon="2.24657">
        <ele>158.7</ele>
        <time>2022-03-06T07:39:19.000Z</time>
      </trkpt>
      <trkpt lat="43.28222" lon="2.24659">
        <ele>158.8</ele>
        <time>2022-03-06T07:39:20.000Z</time>
      </trkpt>
      <trkpt lat="43.28224" lon="2.2466">
        <ele>158.8</ele>
        <time>2022-03-06T07:39:21.000Z</time>
      </trkpt>
      <trkpt lat="43.28226" lon="2.24661">
        <ele>158.8</ele>
        <time>2022-03-06T07:39:22.000Z</time>
      </trkpt>
      <trkpt lat="43.28229" lon="2.24662">
        <ele>158.9</ele>
        <time>2022-03-06T07:39:23.000Z</time>
      </trkpt>
      <trkpt lat="43.28231" lon="2.24663">
        <ele>158.9</ele>
        <time>2022-03-06T07:39:24.000Z</time>
      </trkpt>
      <trkpt lat="43.28234" lon="2.24663">
        <ele>158.9</ele>
        <time>2022-03-06T07:39:25.000Z</time>
      </trkpt>
      <trkpt lat="43.28236" lon="2.24663">
        <ele>158.9</ele>
        <time>2022-03-06T07:39:26.000Z</time>
      </trkpt>
      <trkpt lat="43.28239" lon="2.24664">
        <ele>158.9</ele>
        <time>2022-03-06T07:39:27.000Z</time>
      </trkpt>
      <trkpt lat="43.28241" lon="2.24664">
        <ele>158.9</ele>
        <time>2022-03-06T07:39:28.000Z</time>
      </trkpt>
      <trkpt lat="43.28244" lon="2.24664">
        <ele>158.9</ele>
        <time>2022-03-06T07:39:29.000Z</time>
      </trkpt>
      <trkpt lat="43.28246" lon="2.24664">
        <ele>158.9</ele>
        <time>2022-03-06T07:39:30.000Z</time>
      </trkpt>
      <trkpt lat="43.28249" lon="2.24665">
        <ele>158.9</ele>
        <time>2022-03-06T07:39:31.000Z</time>
      </trkpt>
      <trkpt lat="43.28252" lon="2.24665">
        <ele>159</ele>
        <time>2022-03-06T07:39:32.000Z</time>
      </trkpt>
      <trkpt lat="43.28254" lon="2.24665">
        <ele>159.2</ele>
        <time>2022-03-06T07:39:33.000Z</time>
      </trkpt>
      <trkpt lat="43.28257" lon="2.24665">
        <ele>159.4</ele>
        <time>2022-03-06T07:39:34.000Z</time>
      </trkpt>
      <trkpt lat="43.28259" lon="2.24666">
        <ele>159.5</ele>
        <time>2022-03-06T07:39:35.000Z</time>
      </trkpt>
      <trkpt lat="43.28262" lon="2.24666">
        <ele>159.7</ele>
        <time>2022-03-06T07:39:36.000Z</time>
      </trkpt>
      <trkpt lat="43.28265" lon="2.24667">
        <ele>159.9</ele>
        <time>2022-03-06T07:39:37.000Z</time>
      </trkpt>
      <trkpt lat="43.28267" lon="2.24667">
        <ele>160</ele>
        <time>2022-03-06T07:39:38.000Z</time>
      </trkpt>
      <trkpt lat="43.2827" lon="2.24667">
        <ele>160.2</ele>
        <time>2022-03-06T07:39:39.000Z</time>
      </trkpt>
      <trkpt lat="43.28272" lon="2.24668">
        <ele>160.3</ele>
        <time>2022-03-06T07:39:40.000Z</time>
      </trkpt>
      <trkpt lat="43.28275" lon="2.24668">
        <ele>160.5</ele>
        <time>2022-03-06T07:39:41.000Z</time>
      </trkpt>
      <trkpt lat="43.28278" lon="2.24669">
        <ele>160.7</ele>
        <time>2022-03-06T07:39:42.000Z</time>
      </trkpt>
      <trkpt lat="43.2828" lon="2.24669">
        <ele>160.8</ele>
        <time>2022-03-06T07:39:43.000Z</time>
      </trkpt>
      <trkpt lat="43.28283" lon="2.2467">
        <ele>161</ele>
        <time>2022-03-06T07:39:44.000Z</time>
      </trkpt>
      <trkpt lat="43.28285" lon="2.24671">
        <ele>161.1</ele>
        <time>2022-03-06T07:39:45.000Z</time>
      </trkpt>
      <trkpt lat="43.28288" lon="2.24671">
        <ele>161.3</ele>
        <time>2022-03-06T07:39:46.000Z</time>
      </trkpt>
      <trkpt lat="43.28291" lon="2.24672">
        <ele>161.5</ele>
        <time>2022-03-06T07:39:47.000Z</time>
      </trkpt>
      <trkpt lat="43.28293" lon="2.24672">
        <ele>161.6</ele>
        <time>2022-03-06T07:39:48.000Z</time>
      </trkpt>
      <trkpt lat="43.28296" lon="2.24673">
        <ele>161.8</ele>
        <time>2022-03-06T07:39:49.000Z</time>
      </trkpt>
      <trkpt lat="43.28298" lon="2.24674">
        <ele>161.9</ele>
        <time>2022-03-06T07:39:50.000Z</time>
      </trkpt>
      <trkpt lat="43.28301" lon="2.24674">
        <ele>162.1</ele>
        <time>2022-03-06T07:39:51.000Z</time>
      </trkpt>
      <trkpt lat="43.28303" lon="2.24675">
        <ele>162.2</ele>
        <time>2022-03-06T07:39:52.000Z</time>
      </trkpt>
      <trkpt lat="43.28306" lon="2.24676">
        <ele>162.4</ele>
        <time>2022-03-06T07:39:53.000Z</time>
      </trkpt>
      <trkpt lat="43.28308" lon="2.24676">
        <ele>162.5</ele>
        <time>2022-03-06T07:39:54.000Z</time>
      </trkpt>
      <trkpt lat="43.28311" lon="2.24677">
        <ele>162.7</ele>
        <time>2022-03-06T07:39:55.000Z</time>
      </trkpt>
      <trkpt lat="43.28313" lon="2.24677">
        <ele>162.8</ele>
        <time>2022-03-06T07:39:56.000Z</time>
      </trkpt>
      <trkpt lat="43.28316" lon="2.24678">
        <ele>163</ele>
        <time>2022-03-06T07:39:57.000Z</time>
      </trkpt>
      <trkpt lat="43.28318" lon="2.24678">
        <ele>163.1</ele>
        <time>2022-03-06T07:39:58.000Z</time>
      </trkpt>
      <trkpt lat="43.28321" lon="2.24678">
        <ele>163.3</ele>
        <time>2022-03-06T07:39:59.000Z</time>
      </trkpt>
      <trkpt lat="43.28323" lon="2.24679">
        <ele>163.4</ele>
        <time>2022-03-06T07:40:00.000Z</time>
      </trkpt>
      <trkpt lat="43.28326" lon="2.24679">
        <ele>163.5</ele>
        <time>2022-03-06T07:40:01.000Z</time>
      </trkpt>
      <trkpt lat="43.28328" lon="2.2468">
        <ele>163.7</ele>
        <time>2022-03-06T07:40:02.000Z</time>
      </trkpt>
      <trkpt lat="43.2833" lon="2.2468">
        <ele>163.8</ele>
        <time>2022-03-06T07:40:03.000Z</time>
      </trkpt>
      <trkpt lat="43.28333" lon="2.2468">
        <ele>164</ele>
        <time>2022-03-06T07:40:04.000Z</time>
      </trkpt>
      <trkpt lat="43.28335" lon="2.24681">
        <ele>164.1</ele>
        <time>2022-03-06T07:40:05.000Z</time>
      </trkpt>
      <trkpt lat="43.28338" lon="2.24681">
        <ele>164.2</ele>
        <time>2022-03-06T07:40:06.000Z</time>
      </trkpt>
      <trkpt lat="43.2834" lon="2.24681">
        <ele>164.3</ele>
        <time>2022-03-06T07:40:07.000Z</time>
      </trkpt>
      <trkpt lat="43.28342" lon="2.24682">
        <ele>164.4</ele>
        <time>2022-03-06T07:40:08.000Z</time>
      </trkpt>
      <trkpt lat="43.28345" lon="2.24682">
        <ele>164.5</ele>
        <time>2022-03-06T07:40:09.000Z</time>
      </trkpt>
      <trkpt lat="43.28347" lon="2.24683">
        <ele>164.6</ele>
        <time>2022-03-06T07:40:10.000Z</time>
      </trkpt>
      <trkpt lat="43.2835" lon="2.24683">
        <ele>164.7</ele>
        <time>2022-03-06T07:40:11.000Z</time>
      </trkpt>
      <trkpt lat="43.28352" lon="2.24683">
        <ele>164.9</ele>
        <time>2022-03-06T07:40:12.000Z</time>
      </trkpt>
      <trkpt lat="43.28354" lon="2.24684">
        <ele>165</ele>
        <time>2022-03-06T07:40:13.000Z</time>
      </trkpt>
      <trkpt lat="43.28357" lon="2.24684">
        <ele>165.1</ele>
        <time>2022-03-06T07:40:14.000Z</time>
      </trkpt>
      <trkpt lat="43.28359" lon="2.24685">
        <ele>165.2</ele>
        <time>2022-03-06T07:40:15.000Z</time>
      </trkpt>
      <trkpt lat="43.28362" lon="2.24685">
        <ele>165.3</ele>
        <time>2022-03-06T07:40:16.000Z</time>
      </trkpt>
      <trkpt lat="43.28364" lon="2.24686">
        <ele>165.4</ele>
        <time>2022-03-06T07:40:17.000Z</time>
      </trkpt>
      <trkpt lat="43.28366" lon="2.24686">
        <ele>165.5</ele>
        <time>2022-03-06T07:40:18.000Z</time>
      </trkpt>
      <trkpt lat="43.28369" lon="2.24687">
        <ele>165.6</ele>
        <time>2022-03-06T07:40:19.000Z</time>
      </trkpt>
      <trkpt lat="43.28371" lon="2.24687">
        <ele>165.7</ele>
        <time>2022-03-06T07:40:20.000Z</time>
      </trkpt>
      <trkpt lat="43.28373" lon="2.24688">
        <ele>165.8</ele>
        <time>2022-03-06T07:40:21.000Z</time>
      </trkpt>
      <trkpt lat="43.28376" lon="2.24688">
        <ele>165.9</ele>
        <time>2022-03-06T07:40:22.000Z</time>
      </trkpt>
      <trkpt lat="43.28378" lon="2.24689">
        <ele>166</ele>
        <time>2022-03-06T07:40:23.000Z</time>
      </trkpt>
      <trkpt lat="43.2838" lon="2.24689">
        <ele>166.1</ele>
        <time>2022-03-06T07:40:24.000Z</time>
      </trkpt>
      <trkpt lat="43.28382" lon="2.2469">
        <ele>166.2</ele>
        <time>2022-03-06T07:40:25.000Z</time>
      </trkpt>
      <trkpt lat="43.28385" lon="2.24691">
        <ele>166.3</ele>
        <time>2022-03-06T07:40:26.000Z</time>
      </trkpt>
      <trkpt lat="43.28387" lon="2.24691">
        <ele>166.4</ele>
        <time>2022-03-06T07:40:27.000Z</time>
      </trkpt>
      <trkpt lat="43.28389" lon="2.24692">
        <ele>166.5</ele>
        <time>2022-03-06T07:40:28.000Z</time>
      </trkpt>
      <trkpt lat="43.28391" lon="2.24692">
        <ele>166.6</ele>
        <time>2022-03-06T07:40:29.000Z</time>
      </trkpt>
      <trkpt lat="43.28393" lon="2.24693">
        <ele>166.7</ele>
        <time>2022-03-06T07:40:30.000Z</time>
      </trkpt>
      <trkpt lat="43.28396" lon="2.24693">
        <ele>166.7</ele>
        <time>2022-03-06T07:40:31.000Z</time>
      </trkpt>
      <trkpt lat="43.28398" lon="2.24694">
        <ele>166.8</ele>
        <time>2022-03-06T07:40:32.000Z</time>
      </trkpt>
      <trkpt lat="43.284" lon="2.24695">
        <ele>166.9</ele>
        <time>2022-03-06T07:40:33.000Z</time>
      </trkpt>
      <trkpt lat="43.28402" lon="2.24695">
        <ele>167</ele>
        <time>2022-03-06T07:40:34.000Z</time>
      </trkpt>
      <trkpt lat="43.28405" lon="2.24696">
        <ele>167.1</ele>
        <time>2022-03-06T07:40:35.000Z</time>
      </trkpt>
      <trkpt lat="43.28407" lon="2.24696">
        <ele>167.2</ele>
        <time>2022-03-06T07:40:36.000Z</time>
      </trkpt>
      <trkpt lat="43.28409" lon="2.24697">
        <ele>167.3</ele>
        <time>2022-03-06T07:40:37.000Z</time>
      </trkpt>
      <trkpt lat="43.28412" lon="2.24698">
        <ele>167.4</ele>
        <time>2022-03-06T07:40:38.000Z</time>
      </trkpt>
      <trkpt lat="43.28414" lon="2.24698">
        <ele>167.5</ele>
        <time>2022-03-06T07:40:39.000Z</time>
      </trkpt>
      <trkpt lat="43.28416" lon="2.24699">
        <ele>167.6</ele>
        <time>2022-03-06T07:40:40.000Z</time>
      </trkpt>
      <trkpt lat="43.28419" lon="2.24699">
        <ele>167.7</ele>
        <time>2022-03-06T07:40:41.000Z</time>
      </trkpt>
      <trkpt lat="43.28421" lon="2.247">
        <ele>167.8</ele>
        <time>2022-03-06T07:40:42.000Z</time>
      </trkpt>
      <trkpt lat="43.28423" lon="2.247">
        <ele>167.9</ele>
        <time>2022-03-06T07:40:43.000Z</time>
      </trkpt>
      <trkpt lat="43.28426" lon="2.24701">
        <ele>168</ele>
        <time>2022-03-06T07:40:44.000Z</time>
      </trkpt>
      <trkpt lat="43.28428" lon="2.24701">
        <ele>168.1</ele>
        <time>2022-03-06T07:40:45.000Z</time>
      </trkpt>
      <trkpt lat="43.2843" lon="2.24701">
        <ele>168.2</ele>
        <time>2022-03-06T07:40:46.000Z</time>
      </trkpt>
      <trkpt lat="43.28433" lon="2.24702">
        <ele>168.3</ele>
        <time>2022-03-06T07:40:47.000Z</time>
      </trkpt>
      <trkpt lat="43.28435" lon="2.24702">
        <ele>168.4</ele>
        <time>2022-03-06T07:40:48.000Z</time>
      </trkpt>
      <trkpt lat="43.28437" lon="2.24702">
        <ele>168.5</ele>
        <time>2022-03-06T07:40:49.000Z</time>
      </trkpt>
      <trkpt lat="43.2844" lon="2.24702">
        <ele>168.6</ele>
        <time>2022-03-06T07:40:50.000Z</time>
      </trkpt>
      <trkpt lat="43.28442" lon="2.24703">
        <ele>168.6</ele>
        <time>2022-03-06T07:40:51.000Z</time>
      </trkpt>
      <trkpt lat="43.28444" lon="2.24703">
        <ele>168.7</ele>
        <time>2022-03-06T07:40:52.000Z</time>
      </trkpt>
      <trkpt lat="43.28446" lon="2.24703">
        <ele>168.8</ele>
        <time>2022-03-06T07:40:53.000Z</time>
      </trkpt>
      <trkpt lat="43.28449" lon="2.24704">
        <ele>168.9</ele>
        <time>2022-03-06T07:40:54.000Z</time>
      </trkpt>
      <trkpt lat="43.28451" lon="2.24704">
        <ele>169</ele>
        <time>2022-03-06T07:40:55.000Z</time>
      </trkpt>
      <trkpt lat="43.28453" lon="2.24705">
        <ele>169.1</ele>
        <time>2022-03-06T07:40:56.000Z</time>
      </trkpt>
      <trkpt lat="43.28455" lon="2.24705">
        <ele>169.2</ele>
        <time>2022-03-06T07:40:57.000Z</time>
      </trkpt>
      <trkpt lat="43.28458" lon="2.24705">
        <ele>169.3</ele>
        <time>2022-03-06T07:40:58.000Z</time>
      </trkpt>
      <trkpt lat="43.2846" lon="2.24705">
        <ele>169.4</ele>
        <time>2022-03-06T07:40:59.000Z</time>
      </trkpt>
      <trkpt lat="43.28462" lon="2.24705">
        <ele>169.5</ele>
        <time>2022-03-06T07:41:00.000Z</time>
      </trkpt>
      <trkpt lat="43.28464" lon="2.24705">
        <ele>169.6</ele>
        <time>2022-03-06T07:41:01.000Z</time>
      </trkpt>
      <trkpt lat="43.28466" lon="2.24704">
        <ele>169.7</ele>
        <time>2022-03-06T07:41:02.000Z</time>
      </trkpt>
      <trkpt lat="43.28468" lon="2.24704">
        <ele>169.8</ele>
        <time>2022-03-06T07:41:03.000Z</time>
      </trkpt>
      <trkpt lat="43.2847" lon="2.24703">
        <ele>169.9</ele>
        <time>2022-03-06T07:41:04.000Z</time>
      </trkpt>
      <trkpt lat="43.28472" lon="2.24701">
        <ele>170</ele>
        <time>2022-03-06T07:41:05.000Z</time>
      </trkpt>
      <trkpt lat="43.28474" lon="2.247">
        <ele>170.1</ele>
        <time>2022-03-06T07:41:06.000Z</time>
      </trkpt>
      <trkpt lat="43.28476" lon="2.24698">
        <ele>170.2</ele>
        <time>2022-03-06T07:41:07.000Z</time>
      </trkpt>
      <trkpt lat="43.28477" lon="2.24696">
        <ele>170.3</ele>
        <time>2022-03-06T07:41:08.000Z</time>
      </trkpt>
      <trkpt lat="43.28479" lon="2.24693">
        <ele>170.4</ele>
        <time>2022-03-06T07:41:09.000Z</time>
      </trkpt>
      <trkpt lat="43.28481" lon="2.24691">
        <ele>170.5</ele>
        <time>2022-03-06T07:41:10.000Z</time>
      </trkpt>
      <trkpt lat="43.28482" lon="2.24689">
        <ele>170.7</ele>
        <time>2022-03-06T07:41:11.000Z</time>
      </trkpt>
      <trkpt lat="43.28483" lon="2.24686">
        <ele>170.8</ele>
        <time>2022-03-06T07:41:12.000Z</time>
      </trkpt>
      <trkpt lat="43.28485" lon="2.24684">
        <ele>170.9</ele>
        <time>2022-03-06T07:41:13.000Z</time>
      </trkpt>
      <trkpt lat="43.28486" lon="2.24682">
        <ele>171</ele>
        <time>2022-03-06T07:41:14.000Z</time>
      </trkpt>
      <trkpt lat="43.28487" lon="2.2468">
        <ele>171.1</ele>
        <time>2022-03-06T07:41:15.000Z</time>
      </trkpt>
      <trkpt lat="43.28488" lon="2.24678">
        <ele>171.2</ele>
        <time>2022-03-06T07:41:16.000Z</time>
      </trkpt>
      <trkpt lat="43.2849" lon="2.24676">
        <ele>171.3</ele>
        <time>2022-03-06T07:41:17.000Z</time>
      </trkpt>
      <trkpt lat="43.28491" lon="2.24674">
        <ele>171.4</ele>
        <time>2022-03-06T07:41:18.000Z</time>
      </trkpt>
      <trkpt lat="43.28492" lon="2.24672">
        <ele>171.5</ele>
        <time>2022-03-06T07:41:19.000Z</time>
      </trkpt>
      <trkpt lat="43.28494" lon="2.2467">
        <ele>171.6</ele>
        <time>2022-03-06T07:41:20.000Z</time>
      </trkpt>
      <trkpt lat="43.28495" lon="2.24668">
        <ele>171.7</ele>
        <time>2022-03-06T07:41:21.000Z</time>
      </trkpt>
      <trkpt lat="43.28497" lon="2.24666">
        <ele>171.8</ele>
        <time>2022-03-06T07:41:22.000Z</time>
      </trkpt>
      <trkpt lat="43.28498" lon="2.24664">
        <ele>171.9</ele>
        <time>2022-03-06T07:41:23.000Z</time>
      </trkpt>
      <trkpt lat="43.285" lon="2.24662">
        <ele>171.9</ele>
        <time>2022-03-06T07:41:24.000Z</time>
      </trkpt>
      <trkpt lat="43.28502" lon="2.2466">
        <ele>172</ele>
        <time>2022-03-06T07:41:25.000Z</time>
      </trkpt>
      <trkpt lat="43.28504" lon="2.24658">
        <ele>172.1</ele>
        <time>2022-03-06T07:41:26.000Z</time>
      </trkpt>
      <trkpt lat="43.28506" lon="2.24656">
        <ele>172.2</ele>
        <time>2022-03-06T07:41:27.000Z</time>
      </trkpt>
      <trkpt lat="43.28507" lon="2.24654">
        <ele>172.3</ele>
        <time>2022-03-06T07:41:28.000Z</time>
      </trkpt>
      <trkpt lat="43.28509" lon="2.24652">
        <ele>172.4</ele>
        <time>2022-03-06T07:41:29.000Z</time>
      </trkpt>
      <trkpt lat="43.28511" lon="2.2465">
        <ele>172.5</ele>
        <time>2022-03-06T07:41:30.000Z</time>
      </trkpt>
      <trkpt lat="43.28513" lon="2.24649">
        <ele>172.6</ele>
        <time>2022-03-06T07:41:31.000Z</time>
      </trkpt>
      <trkpt lat="43.28515" lon="2.24647">
        <ele>172.7</ele>
        <time>2022-03-06T07:41:32.000Z</time>
      </trkpt>
      <trkpt lat="43.28517" lon="2.24645">
        <ele>172.8</ele>
        <time>2022-03-06T07:41:33.000Z</time>
      </trkpt>
      <trkpt lat="43.28519" lon="2.24644">
        <ele>172.9</ele>
        <time>2022-03-06T07:41:34.000Z</time>
      </trkpt>
      <trkpt lat="43.28521" lon="2.24642">
        <ele>173</ele>
        <time>2022-03-06T07:41:35.000Z</time>
      </trkpt>
      <trkpt lat="43.28523" lon="2.2464">
        <ele>173.1</ele>
        <time>2022-03-06T07:41:36.000Z</time>
      </trkpt>
      <trkpt lat="43.28525" lon="2.24639">
        <ele>173.2</ele>
        <time>2022-03-06T07:41:37.000Z</time>
      </trkpt>
      <trkpt lat="43.28527" lon="2.24638">
        <ele>173.4</ele>
        <time>2022-03-06T07:41:38.000Z</time>
      </trkpt>
      <trkpt lat="43.28529" lon="2.24636">
        <ele>173.5</ele>
        <time>2022-03-06T07:41:39.000Z</time>
      </trkpt>
      <trkpt lat="43.28531" lon="2.24635">
        <ele>173.6</ele>
        <time>2022-03-06T07:41:40.000Z</time>
      </trkpt>
      <trkpt lat="43.28533" lon="2.24633">
        <ele>173.7</ele>
        <time>2022-03-06T07:41:41.000Z</time>
      </trkpt>
      <trkpt lat="43.28535" lon="2.24632">
        <ele>173.9</ele>
        <time>2022-03-06T07:41:42.000Z</time>
      </trkpt>
      <trkpt lat="43.28537" lon="2.24631">
        <ele>174</ele>
        <time>2022-03-06T07:41:43.000Z</time>
      </trkpt>
      <trkpt lat="43.28539" lon="2.24629">
        <ele>174.1</ele>
        <time>2022-03-06T07:41:44.000Z</time>
      </trkpt>
      <trkpt lat="43.28542" lon="2.24628">
        <ele>174.3</ele>
        <time>2022-03-06T07:41:45.000Z</time>
      </trkpt>
      <trkpt lat="43.28544" lon="2.24627">
        <ele>174.4</ele>
        <time>2022-03-06T07:41:46.000Z</time>
      </trkpt>
      <trkpt lat="43.28546" lon="2.24625">
        <ele>174.5</ele>
        <time>2022-03-06T07:41:47.000Z</time>
      </trkpt>
      <trkpt lat="43.28548" lon="2.24624">
        <ele>174.7</ele>
        <time>2022-03-06T07:41:48.000Z</time>
      </trkpt>
      <trkpt lat="43.2855" lon="2.24623">
        <ele>174.8</ele>
        <time>2022-03-06T07:41:49.000Z</time>
      </trkpt>
      <trkpt lat="43.28552" lon="2.24622">
        <ele>174.9</ele>
        <time>2022-03-06T07:41:50.000Z</time>
      </trkpt>
      <trkpt lat="43.28554" lon="2.24621">
        <ele>175.1</ele>
        <time>2022-03-06T07:41:51.000Z</time>
      </trkpt>
      <trkpt lat="43.28556" lon="2.24619">
        <ele>175.2</ele>
        <time>2022-03-06T07:41:52.000Z</time>
      </trkpt>
      <trkpt lat="43.28558" lon="2.24618">
        <ele>175.3</ele>
        <time>2022-03-06T07:41:53.000Z</time>
      </trkpt>
      <trkpt lat="43.2856" lon="2.24617">
        <ele>175.4</ele>
        <time>2022-03-06T07:41:54.000Z</time>
      </trkpt>
      <trkpt lat="43.28562" lon="2.24616">
        <ele>175.6</ele>
        <time>2022-03-06T07:41:55.000Z</time>
      </trkpt>
      <trkpt lat="43.28564" lon="2.24615">
        <ele>175.7</ele>
        <time>2022-03-06T07:41:56.000Z</time>
      </trkpt>
      <trkpt lat="43.28566" lon="2.24614">
        <ele>175.8</ele>
        <time>2022-03-06T07:41:57.000Z</time>
      </trkpt>
      <trkpt lat="43.28568" lon="2.24612">
        <ele>175.9</ele>
        <time>2022-03-06T07:41:58.000Z</time>
      </trkpt>
      <trkpt lat="43.2857" lon="2.24611">
        <ele>176.1</ele>
        <time>2022-03-06T07:41:59.000Z</time>
      </trkpt>
      <trkpt lat="43.28571" lon="2.2461">
        <ele>176.2</ele>
        <time>2022-03-06T07:42:00.000Z</time>
      </trkpt>
      <trkpt lat="43.28573" lon="2.24608">
        <ele>176.3</ele>
        <time>2022-03-06T07:42:01.000Z</time>
      </trkpt>
      <trkpt lat="43.28575" lon="2.24607">
        <ele>176.4</ele>
        <time>2022-03-06T07:42:02.000Z</time>
      </trkpt>
      <trkpt lat="43.28577" lon="2.24605">
        <ele>176.6</ele>
        <time>2022-03-06T07:42:03.000Z</time>
      </trkpt>
      <trkpt lat="43.28579" lon="2.24603">
        <ele>176.7</ele>
        <time>2022-03-06T07:42:04.000Z</time>
      </trkpt>
      <trkpt lat="43.28581" lon="2.24602">
        <ele>176.9</ele>
        <time>2022-03-06T07:42:05.000Z</time>
      </trkpt>
      <trkpt lat="43.28583" lon="2.246">
        <ele>177</ele>
        <time>2022-03-06T07:42:06.000Z</time>
      </trkpt>
      <trkpt lat="43.28585" lon="2.24599">
        <ele>177.1</ele>
        <time>2022-03-06T07:42:07.000Z</time>
      </trkpt>
      <trkpt lat="43.28587" lon="2.24597">
        <ele>177.2</ele>
        <time>2022-03-06T07:42:08.000Z</time>
      </trkpt>
      <trkpt lat="43.28589" lon="2.24595">
        <ele>177.3</ele>
        <time>2022-03-06T07:42:09.000Z</time>
      </trkpt>
      <trkpt lat="43.28591" lon="2.24594">
        <ele>177.4</ele>
        <time>2022-03-06T07:42:10.000Z</time>
      </trkpt>
      <trkpt lat="43.28593" lon="2.24592">
        <ele>177.5</ele>
        <time>2022-03-06T07:42:11.000Z</time>
      </trkpt>
      <trkpt lat="43.28595" lon="2.24591">
        <ele>177.6</ele>
        <time>2022-03-06T07:42:12.000Z</time>
      </trkpt>
      <trkpt lat="43.28597" lon="2.2459">
        <ele>177.7</ele>
        <time>2022-03-06T07:42:13.000Z</time>
      </trkpt>
      <trkpt lat="43.28599" lon="2.24588">
        <ele>177.8</ele>
        <time>2022-03-06T07:42:14.000Z</time>
      </trkpt>
      <trkpt lat="43.28601" lon="2.24587">
        <ele>177.9</ele>
        <time>2022-03-06T07:42:15.000Z</time>
      </trkpt>
      <trkpt lat="43.28603" lon="2.24585">
        <ele>178</ele>
        <time>2022-03-06T07:42:16.000Z</time>
      </trkpt>
      <trkpt lat="43.28606" lon="2.24584">
        <ele>178.1</ele>
        <time>2022-03-06T07:42:17.000Z</time>
      </trkpt>
      <trkpt lat="43.28608" lon="2.24583">
        <ele>178.2</ele>
        <time>2022-03-06T07:42:18.000Z</time>
      </trkpt>
      <trkpt lat="43.2861" lon="2.24581">
        <ele>178.3</ele>
        <time>2022-03-06T07:42:19.000Z</time>
      </trkpt>
      <trkpt lat="43.28612" lon="2.2458">
        <ele>178.3</ele>
        <time>2022-03-06T07:42:20.000Z</time>
      </trkpt>
      <trkpt lat="43.28614" lon="2.24578">
        <ele>178.4</ele>
        <time>2022-03-06T07:42:21.000Z</time>
      </trkpt>
      <trkpt lat="43.28616" lon="2.24577">
        <ele>178.5</ele>
        <time>2022-03-06T07:42:22.000Z</time>
      </trkpt>
      <trkpt lat="43.28618" lon="2.24575">
        <ele>178.6</ele>
        <time>2022-03-06T07:42:23.000Z</time>
      </trkpt>
      <trkpt lat="43.2862" lon="2.24574">
        <ele>178.7</ele>
        <time>2022-03-06T07:42:24.000Z</time>
      </trkpt>
      <trkpt lat="43.28622" lon="2.24573">
        <ele>178.8</ele>
        <time>2022-03-06T07:42:25.000Z</time>
      </trkpt>
      <trkpt lat="43.28624" lon="2.24571">
        <ele>178.9</ele>
        <time>2022-03-06T07:42:26.000Z</time>
      </trkpt>
      <trkpt lat="43.28626" lon="2.2457">
        <ele>179.1</ele>
        <time>2022-03-06T07:42:27.000Z</time>
      </trkpt>
      <trkpt lat="43.28628" lon="2.24569">
        <ele>179.2</ele>
        <time>2022-03-06T07:42:28.000Z</time>
      </trkpt>
      <trkpt lat="43.2863" lon="2.24568">
        <ele>179.3</ele>
        <time>2022-03-06T07:42:29.000Z</time>
      </trkpt>
      <trkpt lat="43.28632" lon="2.24567">
        <ele>179.4</ele>
        <time>2022-03-06T07:42:30.000Z</time>
      </trkpt>
      <trkpt lat="43.28634" lon="2.24565">
        <ele>179.5</ele>
        <time>2022-03-06T07:42:31.000Z</time>
      </trkpt>
      <trkpt lat="43.28635" lon="2.24564">
        <ele>179.6</ele>
        <time>2022-03-06T07:42:32.000Z</time>
      </trkpt>
      <trkpt lat="43.28637" lon="2.24563">
        <ele>179.7</ele>
        <time>2022-03-06T07:42:33.000Z</time>
      </trkpt>
      <trkpt lat="43.28639" lon="2.24562">
        <ele>179.8</ele>
        <time>2022-03-06T07:42:34.000Z</time>
      </trkpt>
      <trkpt lat="43.28641" lon="2.24561">
        <ele>179.9</ele>
        <time>2022-03-06T07:42:35.000Z</time>
      </trkpt>
      <trkpt lat="43.28643" lon="2.24559">
        <ele>180</ele>
        <time>2022-03-06T07:42:36.000Z</time>
      </trkpt>
      <trkpt lat="43.28644" lon="2.24558">
        <ele>180.1</ele>
        <time>2022-03-06T07:42:37.000Z</time>
      </trkpt>
      <trkpt lat="43.28646" lon="2.24556">
        <ele>180.2</ele>
        <time>2022-03-06T07:42:38.000Z</time>
      </trkpt>
      <trkpt lat="43.28648" lon="2.24554">
        <ele>180.3</ele>
        <time>2022-03-06T07:42:39.000Z</time>
      </trkpt>
      <trkpt lat="43.2865" lon="2.24552">
        <ele>180.4</ele>
        <time>2022-03-06T07:42:40.000Z</time>
      </trkpt>
      <trkpt lat="43.28651" lon="2.2455">
        <ele>180.5</ele>
        <time>2022-03-06T07:42:41.000Z</time>
      </trkpt>
      <trkpt lat="43.28653" lon="2.24548">
        <ele>180.6</ele>
        <time>2022-03-06T07:42:42.000Z</time>
      </trkpt>
      <trkpt lat="43.28655" lon="2.24546">
        <ele>180.7</ele>
        <time>2022-03-06T07:42:43.000Z</time>
      </trkpt>
      <trkpt lat="43.28656" lon="2.24544">
        <ele>180.9</ele>
        <time>2022-03-06T07:42:44.000Z</time>
      </trkpt>
      <trkpt lat="43.28658" lon="2.24542">
        <ele>181</ele>
        <time>2022-03-06T07:42:45.000Z</time>
      </trkpt>
      <trkpt lat="43.2866" lon="2.2454">
        <ele>181.1</ele>
        <time>2022-03-06T07:42:46.000Z</time>
      </trkpt>
      <trkpt lat="43.28661" lon="2.24539">
        <ele>181.2</ele>
        <time>2022-03-06T07:42:47.000Z</time>
      </trkpt>
      <trkpt lat="43.28663" lon="2.24537">
        <ele>181.3</ele>
        <time>2022-03-06T07:42:48.000Z</time>
      </trkpt>
      <trkpt lat="43.28664" lon="2.24535">
        <ele>181.4</ele>
        <time>2022-03-06T07:42:49.000Z</time>
      </trkpt>
      <trkpt lat="43.28666" lon="2.24534">
        <ele>181.5</ele>
        <time>2022-03-06T07:42:50.000Z</time>
      </trkpt>
      <trkpt lat="43.28668" lon="2.24532">
        <ele>181.6</ele>
        <time>2022-03-06T07:42:51.000Z</time>
      </trkpt>
      <trkpt lat="43.28669" lon="2.24531">
        <ele>181.7</ele>
        <time>2022-03-06T07:42:52.000Z</time>
      </trkpt>
      <trkpt lat="43.28671" lon="2.24529">
        <ele>181.8</ele>
        <time>2022-03-06T07:42:53.000Z</time>
      </trkpt>
      <trkpt lat="43.28673" lon="2.24528">
        <ele>181.9</ele>
        <time>2022-03-06T07:42:54.000Z</time>
      </trkpt>
      <trkpt lat="43.28674" lon="2.24527">
        <ele>182</ele>
        <time>2022-03-06T07:42:55.000Z</time>
      </trkpt>
      <trkpt lat="43.28676" lon="2.24526">
        <ele>182.1</ele>
        <time>2022-03-06T07:42:56.000Z</time>
      </trkpt>
      <trkpt lat="43.28678" lon="2.24525">
        <ele>182.1</ele>
        <time>2022-03-06T07:42:57.000Z</time>
      </trkpt>
      <trkpt lat="43.28679" lon="2.24524">
        <ele>182.2</ele>
        <time>2022-03-06T07:42:58.000Z</time>
      </trkpt>
      <trkpt lat="43.28681" lon="2.24523">
        <ele>182.3</ele>
        <time>2022-03-06T07:42:59.000Z</time>
      </trkpt>
      <trkpt lat="43.28683" lon="2.24522">
        <ele>182.4</ele>
        <time>2022-03-06T07:43:00.000Z</time>
      </trkpt>
      <trkpt lat="43.28685" lon="2.2452">
        <ele>182.5</ele>
        <time>2022-03-06T07:43:01.000Z</time>
      </trkpt>
      <trkpt lat="43.28687" lon="2.24519">
        <ele>182.6</ele>
        <time>2022-03-06T07:43:02.000Z</time>
      </trkpt>
      <trkpt lat="43.28689" lon="2.24518">
        <ele>182.6</ele>
        <time>2022-03-06T07:43:03.000Z</time>
      </trkpt>
      <trkpt lat="43.28691" lon="2.24517">
        <ele>182.7</ele>
        <time>2022-03-06T07:43:04.000Z</time>
      </trkpt>
      <trkpt lat="43.28693" lon="2.24515">
        <ele>182.8</ele>
        <time>2022-03-06T07:43:05.000Z</time>
      </trkpt>
      <trkpt lat="43.28695" lon="2.24513">
        <ele>182.9</ele>
        <time>2022-03-06T07:43:06.000Z</time>
      </trkpt>
      <trkpt lat="43.28696" lon="2.24511">
        <ele>183</ele>
        <time>2022-03-06T07:43:07.000Z</time>
      </trkpt>
      <trkpt lat="43.28698" lon="2.24509">
        <ele>183.1</ele>
        <time>2022-03-06T07:43:08.000Z</time>
      </trkpt>
      <trkpt lat="43.287" lon="2.24507">
        <ele>183.1</ele>
        <time>2022-03-06T07:43:09.000Z</time>
      </trkpt>
      <trkpt lat="43.28702" lon="2.24505">
        <ele>183.2</ele>
        <time>2022-03-06T07:43:10.000Z</time>
      </trkpt>
      <trkpt lat="43.28704" lon="2.24503">
        <ele>183.3</ele>
        <time>2022-03-06T07:43:11.000Z</time>
      </trkpt>
      <trkpt lat="43.28706" lon="2.24501">
        <ele>183.4</ele>
        <time>2022-03-06T07:43:12.000Z</time>
      </trkpt>
      <trkpt lat="43.28708" lon="2.24499">
        <ele>183.5</ele>
        <time>2022-03-06T07:43:13.000Z</time>
      </trkpt>
      <trkpt lat="43.28709" lon="2.24497">
        <ele>183.6</ele>
        <time>2022-03-06T07:43:14.000Z</time>
      </trkpt>
      <trkpt lat="43.28711" lon="2.24496">
        <ele>183.7</ele>
        <time>2022-03-06T07:43:15.000Z</time>
      </trkpt>
      <trkpt lat="43.28713" lon="2.24495">
        <ele>183.9</ele>
        <time>2022-03-06T07:43:16.000Z</time>
      </trkpt>
      <trkpt lat="43.28715" lon="2.24494">
        <ele>184</ele>
        <time>2022-03-06T07:43:17.000Z</time>
      </trkpt>
      <trkpt lat="43.28717" lon="2.24493">
        <ele>184.1</ele>
        <time>2022-03-06T07:43:18.000Z</time>
      </trkpt>
      <trkpt lat="43.28719" lon="2.24493">
        <ele>184.1</ele>
        <time>2022-03-06T07:43:19.000Z</time>
      </trkpt>
      <trkpt lat="43.28721" lon="2.24493">
        <ele>184.2</ele>
        <time>2022-03-06T07:43:20.000Z</time>
      </trkpt>
      <trkpt lat="43.28722" lon="2.24493">
        <ele>184.3</ele>
        <time>2022-03-06T07:43:21.000Z</time>
      </trkpt>
      <trkpt lat="43.28724" lon="2.24493">
        <ele>184.3</ele>
        <time>2022-03-06T07:43:22.000Z</time>
      </trkpt>
      <trkpt lat="43.28726" lon="2.24493">
        <ele>184.4</ele>
        <time>2022-03-06T07:43:23.000Z</time>
      </trkpt>
      <trkpt lat="43.28727" lon="2.24494">
        <ele>184.4</ele>
        <time>2022-03-06T07:43:24.000Z</time>
      </trkpt>
      <trkpt lat="43.28728" lon="2.24494">
        <ele>184.4</ele>
        <time>2022-03-06T07:43:25.000Z</time>
      </trkpt>
      <trkpt lat="43.2873" lon="2.24495">
        <ele>184.5</ele>
        <time>2022-03-06T07:43:26.000Z</time>
      </trkpt>
      <trkpt lat="43.28731" lon="2.24495">
        <ele>184.5</ele>
        <time>2022-03-06T07:43:27.000Z</time>
      </trkpt>
      <trkpt lat="43.28733" lon="2.24495">
        <ele>184.6</ele>
        <time>2022-03-06T07:43:28.000Z</time>
      </trkpt>
      <trkpt lat="43.28734" lon="2.24495">
        <ele>184.6</ele>
        <time>2022-03-06T07:43:29.000Z</time>
      </trkpt>
      <trkpt lat="43.28735" lon="2.24495">
        <ele>184.6</ele>
        <time>2022-03-06T07:43:30.000Z</time>
      </trkpt>
      <trkpt lat="43.28736" lon="2.24495">
        <ele>184.7</ele>
        <time>2022-03-06T07:43:31.000Z</time>
      </trkpt>
      <trkpt lat="43.28736" lon="2.24494">
        <ele>184.7</ele>
        <time>2022-03-06T07:43:32.000Z</time>
      </trkpt>
      <trkpt lat="43.28737" lon="2.24494">
        <ele>184.8</ele>
        <time>2022-03-06T07:43:33.000Z</time>
      </trkpt>
      <trkpt lat="43.28737" lon="2.24494">
        <ele>184.8</ele>
        <time>2022-03-06T07:43:34.000Z</time>
      </trkpt>
      <trkpt lat="43.28738" lon="2.24494">
        <ele>184.8</ele>
        <time>2022-03-06T07:43:35.000Z</time>
      </trkpt>
      <trkpt lat="43.28738" lon="2.24494">
        <ele>184.8</ele>
        <time>2022-03-06T07:43:36.000Z</time>
      </trkpt>
      <trkpt lat="43.28739" lon="2.24495">
        <ele>184.8</ele>
        <time>2022-03-06T07:43:37.000Z</time>
      </trkpt>
      <trkpt lat="43.28739" lon="2.24495">
        <ele>184.8</ele>
        <time>2022-03-06T07:43:38.000Z</time>
      </trkpt>
      <trkpt lat="43.2874" lon="2.24496">
        <ele>184.8</ele>
        <time>2022-03-06T07:43:39.000Z</time>
      </trkpt>
      <trkpt lat="43.28741" lon="2.24496">
        <ele>184.8</ele>
        <time>2022-03-06T07:43:40.000Z</time>
      </trkpt>
      <trkpt lat="43.28742" lon="2.24497">
        <ele>184.8</ele>
        <time>2022-03-06T07:43:41.000Z</time>
      </trkpt>
      <trkpt lat="43.28742" lon="2.24498">
        <ele>184.8</ele>
        <time>2022-03-06T07:43:42.000Z</time>
      </trkpt>
      <trkpt lat="43.28743" lon="2.24499">
        <ele>184.8</ele>
        <time>2022-03-06T07:43:43.000Z</time>
      </trkpt>
      <trkpt lat="43.28744" lon="2.24499">
        <ele>184.8</ele>
        <time>2022-03-06T07:43:44.000Z</time>
      </trkpt>
      <trkpt lat="43.28745" lon="2.245">
        <ele>184.8</ele>
        <time>2022-03-06T07:43:45.000Z</time>
      </trkpt>
      <trkpt lat="43.28746" lon="2.24501">
        <ele>184.9</ele>
        <time>2022-03-06T07:43:46.000Z</time>
      </trkpt>
      <trkpt lat="43.28747" lon="2.24502">
        <ele>184.9</ele>
        <time>2022-03-06T07:43:47.000Z</time>
      </trkpt>
      <trkpt lat="43.28748" lon="2.24503">
        <ele>184.9</ele>
        <time>2022-03-06T07:43:48.000Z</time>
      </trkpt>
      <trkpt lat="43.28749" lon="2.24504">
        <ele>185</ele>
        <time>2022-03-06T07:43:49.000Z</time>
      </trkpt>
      <trkpt lat="43.2875" lon="2.24505">
        <ele>185</ele>
        <time>2022-03-06T07:43:50.000Z</time>
      </trkpt>
      <trkpt lat="43.28751" lon="2.24507">
        <ele>185</ele>
        <time>2022-03-06T07:43:51.000Z</time>
      </trkpt>
      <trkpt lat="43.28751" lon="2.24508">
        <ele>185.1</ele>
        <time>2022-03-06T07:43:52.000Z</time>
      </trkpt>
      <trkpt lat="43.28752" lon="2.24509">
        <ele>185.1</ele>
        <time>2022-03-06T07:43:53.000Z</time>
      </trkpt>
      <trkpt lat="43.28753" lon="2.24511">
        <ele>185.2</ele>
        <time>2022-03-06T07:43:54.000Z</time>
      </trkpt>
      <trkpt lat="43.28754" lon="2.24513">
        <ele>185.2</ele>
        <time>2022-03-06T07:43:55.000Z</time>
      </trkpt>
      <trkpt lat="43.28754" lon="2.24515">
        <ele>185.2</ele>
        <time>2022-03-06T07:43:56.000Z</time>
      </trkpt>
      <trkpt lat="43.28755" lon="2.24517">
        <ele>185.3</ele>
        <time>2022-03-06T07:43:57.000Z</time>
      </trkpt>
      <trkpt lat="43.28755" lon="2.24519">
        <ele>185.3</ele>
        <time>2022-03-06T07:43:58.000Z</time>
      </trkpt>
      <trkpt lat="43.28756" lon="2.24521">
        <ele>185.3</ele>
        <time>2022-03-06T07:43:59.000Z</time>
      </trkpt>
      <trkpt lat="43.28756" lon="2.24523">
        <ele>185.3</ele>
        <time>2022-03-06T07:44:00.000Z</time>
      </trkpt>
      <trkpt lat="43.28756" lon="2.24526">
        <ele>185.4</ele>
        <time>2022-03-06T07:44:01.000Z</time>
      </trkpt>
      <trkpt lat="43.28756" lon="2.24528">
        <ele>185.4</ele>
        <time>2022-03-06T07:44:02.000Z</time>
      </trkpt>
      <trkpt lat="43.28756" lon="2.24531">
        <ele>185.4</ele>
        <time>2022-03-06T07:44:03.000Z</time>
      </trkpt>
      <trkpt lat="43.28756" lon="2.24533">
        <ele>185.3</ele>
        <time>2022-03-06T07:44:04.000Z</time>
      </trkpt>
      <trkpt lat="43.28756" lon="2.24535">
        <ele>185.3</ele>
        <time>2022-03-06T07:44:05.000Z</time>
      </trkpt>
      <trkpt lat="43.28756" lon="2.24538">
        <ele>185.3</ele>
        <time>2022-03-06T07:44:06.000Z</time>
      </trkpt>
      <trkpt lat="43.28755" lon="2.2454">
        <ele>185.3</ele>
        <time>2022-03-06T07:44:07.000Z</time>
      </trkpt>
      <trkpt lat="43.28754" lon="2.24542">
        <ele>185.2</ele>
        <time>2022-03-06T07:44:08.000Z</time>
      </trkpt>
      <trkpt lat="43.28753" lon="2.24544">
        <ele>185.2</ele>
        <time>2022-03-06T07:44:09.000Z</time>
      </trkpt>
      <trkpt lat="43.28753" lon="2.24545">
        <ele>185.1</ele>
        <time>2022-03-06T07:44:10.000Z</time>
      </trkpt>
      <trkpt lat="43.28752" lon="2.24547">
        <ele>185.1</ele>
        <time>2022-03-06T07:44:11.000Z</time>
      </trkpt>
      <trkpt lat="43.28751" lon="2.24549">
        <ele>185</ele>
        <time>2022-03-06T07:44:12.000Z</time>
      </trkpt>
      <trkpt lat="43.2875" lon="2.2455">
        <ele>185</ele>
        <time>2022-03-06T07:44:13.000Z</time>
      </trkpt>
      <trkpt lat="43.28749" lon="2.24552">
        <ele>185</ele>
        <time>2022-03-06T07:44:14.000Z</time>
      </trkpt>
      <trkpt lat="43.28748" lon="2.24553">
        <ele>184.9</ele>
        <time>2022-03-06T07:44:15.000Z</time>
      </trkpt>
      <trkpt lat="43.28748" lon="2.24554">
        <ele>184.9</ele>
        <time>2022-03-06T07:44:16.000Z</time>
      </trkpt>
      <trkpt lat="43.28747" lon="2.24555">
        <ele>184.9</ele>
        <time>2022-03-06T07:44:17.000Z</time>
      </trkpt>
      <trkpt lat="43.28747" lon="2.24556">
        <ele>184.9</ele>
        <time>2022-03-06T07:44:18.000Z</time>
      </trkpt>
      <trkpt lat="43.28747" lon="2.24557">
        <ele>184.8</ele>
        <time>2022-03-06T07:44:19.000Z</time>
      </trkpt>
      <trkpt lat="43.28746" lon="2.24558">
        <ele>184.8</ele>
        <time>2022-03-06T07:44:20.000Z</time>
      </trkpt>
      <trkpt lat="43.28746" lon="2.24559">
        <ele>184.8</ele>
        <time>2022-03-06T07:44:21.000Z</time>
      </trkpt>
      <trkpt lat="43.28746" lon="2.24559">
        <ele>184.8</ele>
        <time>2022-03-06T07:44:22.000Z</time>
      </trkpt>
      <trkpt lat="43.28745" lon="2.2456">
        <ele>184.8</ele>
        <time>2022-03-06T07:44:23.000Z</time>
      </trkpt>
      <trkpt lat="43.28745" lon="2.24561">
        <ele>184.8</ele>
        <time>2022-03-06T07:44:24.000Z</time>
      </trkpt>
      <trkpt lat="43.28745" lon="2.24562">
        <ele>184.8</ele>
        <time>2022-03-06T07:44:25.000Z</time>
      </trkpt>
      <trkpt lat="43.28744" lon="2.24563">
        <ele>184.7</ele>
        <time>2022-03-06T07:44:26.000Z</time>
      </trkpt>
      <trkpt lat="43.28744" lon="2.24565">
        <ele>184.7</ele>
        <time>2022-03-06T07:44:27.000Z</time>
      </trkpt>
      <trkpt lat="43.28744" lon="2.24566">
        <ele>184.7</ele>
        <time>2022-03-06T07:44:28.000Z</time>
      </trkpt>
      <trkpt lat="43.28743" lon="2.24567">
        <ele>184.7</ele>
        <time>2022-03-06T07:44:29.000Z</time>
      </trkpt>
      <trkpt lat="43.28743" lon="2.24569">
        <ele>184.7</ele>
        <time>2022-03-06T07:44:30.000Z</time>
      </trkpt>
      <trkpt lat="43.28743" lon="2.2457">
        <ele>184.7</ele>
        <time>2022-03-06T07:44:31.000Z</time>
      </trkpt>
      <trkpt lat="43.28742" lon="2.24572">
        <ele>184.6</ele>
        <time>2022-03-06T07:44:32.000Z</time>
      </trkpt>
      <trkpt lat="43.28742" lon="2.24574">
        <ele>184.6</ele>
        <time>2022-03-06T07:44:33.000Z</time>
      </trkpt>
      <trkpt lat="43.28742" lon="2.24575">
        <ele>184.6</ele>
        <time>2022-03-06T07:44:34.000Z</time>
      </trkpt>
      <trkpt lat="43.28742" lon="2.24577">
        <ele>184.6</ele>
        <time>2022-03-06T07:44:35.000Z</time>
      </trkpt>
      <trkpt lat="43.28741" lon="2.24579">
        <ele>184.6</ele>
        <time>2022-03-06T07:44:36.000Z</time>
      </trkpt>
      <trkpt lat="43.28741" lon="2.24581">
        <ele>184.6</ele>
        <time>2022-03-06T07:44:37.000Z</time>
      </trkpt>
      <trkpt lat="43.28741" lon="2.24583">
        <ele>184.6</ele>
        <time>2022-03-06T07:44:38.000Z</time>
      </trkpt>
      <trkpt lat="43.28741" lon="2.24586">
        <ele>184.6</ele>
        <time>2022-03-06T07:44:39.000Z</time>
      </trkpt>
      <trkpt lat="43.28741" lon="2.24588">
        <ele>184.7</ele>
        <time>2022-03-06T07:44:40.000Z</time>
      </trkpt>
      <trkpt lat="43.28741" lon="2.2459">
        <ele>184.8</ele>
        <time>2022-03-06T07:44:41.000Z</time>
      </trkpt>
      <trkpt lat="43.28741" lon="2.24593">
        <ele>184.9</ele>
        <time>2022-03-06T07:44:42.000Z</time>
      </trkpt>
      <trkpt lat="43.28741" lon="2.24596">
        <ele>185</ele>
        <time>2022-03-06T07:44:43.000Z</time>
      </trkpt>
      <trkpt lat="43.28741" lon="2.24598">
        <ele>185.1</ele>
        <time>2022-03-06T07:44:44.000Z</time>
      </trkpt>
      <trkpt lat="43.28741" lon="2.24601">
        <ele>185.1</ele>
        <time>2022-03-06T07:44:45.000Z</time>
      </trkpt>
      <trkpt lat="43.28741" lon="2.24604">
        <ele>185.2</ele>
        <time>2022-03-06T07:44:46.000Z</time>
      </trkpt>
      <trkpt lat="43.28741" lon="2.24607">
        <ele>185.3</ele>
        <time>2022-03-06T07:44:47.000Z</time>
      </trkpt>
      <trkpt lat="43.28741" lon="2.2461">
        <ele>185.5</ele>
        <time>2022-03-06T07:44:48.000Z</time>
      </trkpt>
      <trkpt lat="43.28741" lon="2.24613">
        <ele>185.6</ele>
        <time>2022-03-06T07:44:49.000Z</time>
      </trkpt>
      <trkpt lat="43.28742" lon="2.24616">
        <ele>185.7</ele>
        <time>2022-03-06T07:44:50.000Z</time>
      </trkpt>
      <trkpt lat="43.28742" lon="2.24619">
        <ele>185.8</ele>
        <time>2022-03-06T07:44:51.000Z</time>
      </trkpt>
      <trkpt lat="43.28742" lon="2.24622">
        <ele>185.9</ele>
        <time>2022-03-06T07:44:52.000Z</time>
      </trkpt>
      <trkpt lat="43.28742" lon="2.24625">
        <ele>186.1</ele>
        <time>2022-03-06T07:44:53.000Z</time>
      </trkpt>
      <trkpt lat="43.28743" lon="2.24629">
        <ele>186.2</ele>
        <time>2022-03-06T07:44:54.000Z</time>
      </trkpt>
      <trkpt lat="43.28743" lon="2.24632">
        <ele>186.3</ele>
        <time>2022-03-06T07:44:55.000Z</time>
      </trkpt>
      <trkpt lat="43.28743" lon="2.24635">
        <ele>186.4</ele>
        <time>2022-03-06T07:44:56.000Z</time>
      </trkpt>
      <trkpt lat="43.28743" lon="2.24639">
        <ele>186.5</ele>
        <time>2022-03-06T07:44:57.000Z</time>
      </trkpt>
      <trkpt lat="43.28742" lon="2.24642">
        <ele>186.6</ele>
        <time>2022-03-06T07:44:58.000Z</time>
      </trkpt>
      <trkpt lat="43.28742" lon="2.24645">
        <ele>186.7</ele>
        <time>2022-03-06T07:44:59.000Z</time>
      </trkpt>
      <trkpt lat="43.28741" lon="2.24648">
        <ele>186.8</ele>
        <time>2022-03-06T07:45:00.000Z</time>
      </trkpt>
      <trkpt lat="43.28741" lon="2.24652">
        <ele>186.8</ele>
        <time>2022-03-06T07:45:01.000Z</time>
      </trkpt>
      <trkpt lat="43.2874" lon="2.24655">
        <ele>186.9</ele>
        <time>2022-03-06T07:45:02.000Z</time>
      </trkpt>
      <trkpt lat="43.28739" lon="2.24658">
        <ele>186.9</ele>
        <time>2022-03-06T07:45:03.000Z</time>
      </trkpt>
      <trkpt lat="43.28738" lon="2.24662">
        <ele>187</ele>
        <time>2022-03-06T07:45:04.000Z</time>
      </trkpt>
      <trkpt lat="43.28737" lon="2.24665">
        <ele>187</ele>
        <time>2022-03-06T07:45:05.000Z</time>
      </trkpt>
      <trkpt lat="43.28737" lon="2.24668">
        <ele>187.1</ele>
        <time>2022-03-06T07:45:06.000Z</time>
      </trkpt>
      <trkpt lat="43.28736" lon="2.24672">
        <ele>187</ele>
        <time>2022-03-06T07:45:07.000Z</time>
      </trkpt>
      <trkpt lat="43.28736" lon="2.24675">
        <ele>187</ele>
        <time>2022-03-06T07:45:08.000Z</time>
      </trkpt>
      <trkpt lat="43.28735" lon="2.24679">
        <ele>187</ele>
        <time>2022-03-06T07:45:09.000Z</time>
      </trkpt>
      <trkpt lat="43.28735" lon="2.24682">
        <ele>187.1</ele>
        <time>2022-03-06T07:45:10.000Z</time>
      </trkpt>
      <trkpt lat="43.28734" lon="2.24686">
        <ele>187.1</ele>
        <time>2022-03-06T07:45:11.000Z</time>
      </trkpt>
      <trkpt lat="43.28734" lon="2.24689">
        <ele>187.1</ele>
        <time>2022-03-06T07:45:12.000Z</time>
      </trkpt>
      <trkpt lat="43.28734" lon="2.24693">
        <ele>187.1</ele>
        <time>2022-03-06T07:45:13.000Z</time>
      </trkpt>
      <trkpt lat="43.28734" lon="2.24696">
        <ele>187.1</ele>
        <time>2022-03-06T07:45:14.000Z</time>
      </trkpt>
      <trkpt lat="43.28733" lon="2.247">
        <ele>187.1</ele>
        <time>2022-03-06T07:45:15.000Z</time>
      </trkpt>
      <trkpt lat="43.28733" lon="2.24703">
        <ele>187.1</ele>
        <time>2022-03-06T07:45:16.000Z</time>
      </trkpt>
      <trkpt lat="43.28733" lon="2.24707">
        <ele>187.2</ele>
        <time>2022-03-06T07:45:17.000Z</time>
      </trkpt>
      <trkpt lat="43.28733" lon="2.2471">
        <ele>187.2</ele>
        <time>2022-03-06T07:45:18.000Z</time>
      </trkpt>
      <trkpt lat="43.28733" lon="2.24714">
        <ele>187.2</ele>
        <time>2022-03-06T07:45:19.000Z</time>
      </trkpt>
      <trkpt lat="43.28732" lon="2.24717">
        <ele>187.2</ele>
        <time>2022-03-06T07:45:20.000Z</time>
      </trkpt>
      <trkpt lat="43.28732" lon="2.2472">
        <ele>187.2</ele>
        <time>2022-03-06T07:45:21.000Z</time>
      </trkpt>
      <trkpt lat="43.28732" lon="2.24723">
        <ele>187.2</ele>
        <time>2022-03-06T07:45:22.000Z</time>
      </trkpt>
      <trkpt lat="43.28732" lon="2.24726">
        <ele>187.2</ele>
        <time>2022-03-06T07:45:23.000Z</time>
      </trkpt>
      <trkpt lat="43.28731" lon="2.2473">
        <ele>187.2</ele>
        <time>2022-03-06T07:45:24.000Z</time>
      </trkpt>
      <trkpt lat="43.28731" lon="2.24733">
        <ele>187.2</ele>
        <time>2022-03-06T07:45:25.000Z</time>
      </trkpt>
      <trkpt lat="43.2873" lon="2.24736">
        <ele>187.2</ele>
        <time>2022-03-06T07:45:26.000Z</time>
      </trkpt>
      <trkpt lat="43.2873" lon="2.24739">
        <ele>187.2</ele>
        <time>2022-03-06T07:45:27.000Z</time>
      </trkpt>
      <trkpt lat="43.2873" lon="2.24742">
        <ele>187.2</ele>
        <time>2022-03-06T07:45:28.000Z</time>
      </trkpt>
      <trkpt lat="43.28729" lon="2.24745">
        <ele>187.2</ele>
        <time>2022-03-06T07:45:29.000Z</time>
      </trkpt>
      <trkpt lat="43.28729" lon="2.24748">
        <ele>187.2</ele>
        <time>2022-03-06T07:45:30.000Z</time>
      </trkpt>
      <trkpt lat="43.28728" lon="2.24752">
        <ele>187.2</ele>
        <time>2022-03-06T07:45:31.000Z</time>
      </trkpt>
      <trkpt lat="43.28728" lon="2.24755">
        <ele>187.1</ele>
        <time>2022-03-06T07:45:32.000Z</time>
      </trkpt>
      <trkpt lat="43.28727" lon="2.24758">
        <ele>187</ele>
        <time>2022-03-06T07:45:33.000Z</time>
      </trkpt>
      <trkpt lat="43.28726" lon="2.24761">
        <ele>186.9</ele>
        <time>2022-03-06T07:45:34.000Z</time>
      </trkpt>
      <trkpt lat="43.28726" lon="2.24765">
        <ele>186.9</ele>
        <time>2022-03-06T07:45:35.000Z</time>
      </trkpt>
      <trkpt lat="43.28725" lon="2.24768">
        <ele>186.8</ele>
        <time>2022-03-06T07:45:36.000Z</time>
      </trkpt>
      <trkpt lat="43.28724" lon="2.24772">
        <ele>186.7</ele>
        <time>2022-03-06T07:45:37.000Z</time>
      </trkpt>
      <trkpt lat="43.28724" lon="2.24775">
        <ele>186.7</ele>
        <time>2022-03-06T07:45:38.000Z</time>
      </trkpt>
      <trkpt lat="43.28723" lon="2.24778">
        <ele>186.6</ele>
        <time>2022-03-06T07:45:39.000Z</time>
      </trkpt>
      <trkpt lat="43.28723" lon="2.24781">
        <ele>186.6</ele>
        <time>2022-03-06T07:45:40.000Z</time>
      </trkpt>
      <trkpt lat="43.28722" lon="2.24784">
        <ele>186.5</ele>
        <time>2022-03-06T07:45:41.000Z</time>
      </trkpt>
      <trkpt lat="43.28721" lon="2.24787">
        <ele>186.5</ele>
        <time>2022-03-06T07:45:42.000Z</time>
      </trkpt>
      <trkpt lat="43.28721" lon="2.24791">
        <ele>186.4</ele>
        <time>2022-03-06T07:45:43.000Z</time>
      </trkpt>
      <trkpt lat="43.2872" lon="2.24794">
        <ele>186.3</ele>
        <time>2022-03-06T07:45:44.000Z</time>
      </trkpt>
      <trkpt lat="43.28719" lon="2.24798">
        <ele>186.3</ele>
        <time>2022-03-06T07:45:45.000Z</time>
      </trkpt>
      <trkpt lat="43.28718" lon="2.24801">
        <ele>186.2</ele>
        <time>2022-03-06T07:45:46.000Z</time>
      </trkpt>
      <trkpt lat="43.28718" lon="2.24804">
        <ele>186.1</ele>
        <time>2022-03-06T07:45:47.000Z</time>
      </trkpt>
      <trkpt lat="43.28717" lon="2.24807">
        <ele>186.1</ele>
        <time>2022-03-06T07:45:48.000Z</time>
      </trkpt>
      <trkpt lat="43.28716" lon="2.2481">
        <ele>186</ele>
        <time>2022-03-06T07:45:49.000Z</time>
      </trkpt>
      <trkpt lat="43.28716" lon="2.24813">
        <ele>186</ele>
        <time>2022-03-06T07:45:50.000Z</time>
      </trkpt>
      <trkpt lat="43.28715" lon="2.24816">
        <ele>185.9</ele>
        <time>2022-03-06T07:45:51.000Z</time>
      </trkpt>
      <trkpt lat="43.28715" lon="2.24818">
        <ele>185.9</ele>
        <time>2022-03-06T07:45:52.000Z</time>
      </trkpt>
      <trkpt lat="43.28714" lon="2.24821">
        <ele>185.9</ele>
        <time>2022-03-06T07:45:53.000Z</time>
      </trkpt>
      <trkpt lat="43.28713" lon="2.24823">
        <ele>185.8</ele>
        <time>2022-03-06T07:45:54.000Z</time>
      </trkpt>
      <trkpt lat="43.28713" lon="2.24826">
        <ele>185.8</ele>
        <time>2022-03-06T07:45:55.000Z</time>
      </trkpt>
      <trkpt lat="43.28712" lon="2.24828">
        <ele>185.7</ele>
        <time>2022-03-06T07:45:56.000Z</time>
      </trkpt>
      <trkpt lat="43.28711" lon="2.24831">
        <ele>185.7</ele>
        <time>2022-03-06T07:45:57.000Z</time>
      </trkpt>
      <trkpt lat="43.2871" lon="2.24834">
        <ele>185.6</ele>
        <time>2022-03-06T07:45:58.000Z</time>
      </trkpt>
      <trkpt lat="43.2871" lon="2.24836">
        <ele>185.7</ele>
        <time>2022-03-06T07:45:59.000Z</time>
      </trkpt>
      <trkpt lat="43.28709" lon="2.24839">
        <ele>185.7</ele>
        <time>2022-03-06T07:46:00.000Z</time>
      </trkpt>
      <trkpt lat="43.28708" lon="2.24842">
        <ele>185.8</ele>
        <time>2022-03-06T07:46:01.000Z</time>
      </trkpt>
      <trkpt lat="43.28707" lon="2.24845">
        <ele>185.9</ele>
        <time>2022-03-06T07:46:02.000Z</time>
      </trkpt>
      <trkpt lat="43.28706" lon="2.24849">
        <ele>185.9</ele>
        <time>2022-03-06T07:46:03.000Z</time>
      </trkpt>
      <trkpt lat="43.28706" lon="2.24852">
        <ele>186</ele>
        <time>2022-03-06T07:46:04.000Z</time>
      </trkpt>
      <trkpt lat="43.28705" lon="2.24855">
        <ele>186.1</ele>
        <time>2022-03-06T07:46:05.000Z</time>
      </trkpt>
      <trkpt lat="43.28705" lon="2.24858">
        <ele>186.2</ele>
        <time>2022-03-06T07:46:06.000Z</time>
      </trkpt>
      <trkpt lat="43.28705" lon="2.24862">
        <ele>186.4</ele>
        <time>2022-03-06T07:46:07.000Z</time>
      </trkpt>
      <trkpt lat="43.28706" lon="2.24865">
        <ele>186.5</ele>
        <time>2022-03-06T07:46:08.000Z</time>
      </trkpt>
      <trkpt lat="43.28706" lon="2.24868">
        <ele>186.6</ele>
        <time>2022-03-06T07:46:09.000Z</time>
      </trkpt>
      <trkpt lat="43.28707" lon="2.2487">
        <ele>186.8</ele>
        <time>2022-03-06T07:46:10.000Z</time>
      </trkpt>
      <trkpt lat="43.28709" lon="2.24873">
        <ele>186.9</ele>
        <time>2022-03-06T07:46:11.000Z</time>
      </trkpt>
      <trkpt lat="43.28711" lon="2.24875">
        <ele>187.1</ele>
        <time>2022-03-06T07:46:12.000Z</time>
      </trkpt>
      <trkpt lat="43.28712" lon="2.24877">
        <ele>187.3</ele>
        <time>2022-03-06T07:46:13.000Z</time>
      </trkpt>
      <trkpt lat="43.28714" lon="2.2488">
        <ele>187.4</ele>
        <time>2022-03-06T07:46:14.000Z</time>
      </trkpt>
      <trkpt lat="43.28716" lon="2.24882">
        <ele>187.6</ele>
        <time>2022-03-06T07:46:15.000Z</time>
      </trkpt>
      <trkpt lat="43.28718" lon="2.24884">
        <ele>187.8</ele>
        <time>2022-03-06T07:46:16.000Z</time>
      </trkpt>
      <trkpt lat="43.2872" lon="2.24885">
        <ele>187.9</ele>
        <time>2022-03-06T07:46:17.000Z</time>
      </trkpt>
      <trkpt lat="43.28722" lon="2.24887">
        <ele>188</ele>
        <time>2022-03-06T07:46:18.000Z</time>
      </trkpt>
      <trkpt lat="43.28724" lon="2.24889">
        <ele>188.2</ele>
        <time>2022-03-06T07:46:19.000Z</time>
      </trkpt>
      <trkpt lat="43.28725" lon="2.24891">
        <ele>188.3</ele>
        <time>2022-03-06T07:46:20.000Z</time>
      </trkpt>
      <trkpt lat="43.28727" lon="2.24892">
        <ele>188.4</ele>
        <time>2022-03-06T07:46:21.000Z</time>
      </trkpt>
      <trkpt lat="43.28729" lon="2.24894">
        <ele>188.5</ele>
        <time>2022-03-06T07:46:22.000Z</time>
      </trkpt>
      <trkpt lat="43.2873" lon="2.24895">
        <ele>188.7</ele>
        <time>2022-03-06T07:46:23.000Z</time>
      </trkpt>
      <trkpt lat="43.28732" lon="2.24897">
        <ele>188.8</ele>
        <time>2022-03-06T07:46:24.000Z</time>
      </trkpt>
      <trkpt lat="43.28734" lon="2.24898">
        <ele>188.9</ele>
        <time>2022-03-06T07:46:25.000Z</time>
      </trkpt>
      <trkpt lat="43.28736" lon="2.24899">
        <ele>189</ele>
        <time>2022-03-06T07:46:26.000Z</time>
      </trkpt>
      <trkpt lat="43.28738" lon="2.249">
        <ele>189.1</ele>
        <time>2022-03-06T07:46:27.000Z</time>
      </trkpt>
      <trkpt lat="43.2874" lon="2.24901">
        <ele>189.2</ele>
        <time>2022-03-06T07:46:28.000Z</time>
      </trkpt>
      <trkpt lat="43.28742" lon="2.24903">
        <ele>189.4</ele>
        <time>2022-03-06T07:46:29.000Z</time>
      </trkpt>
      <trkpt lat="43.28744" lon="2.24904">
        <ele>189.5</ele>
        <time>2022-03-06T07:46:30.000Z</time>
      </trkpt>
      <trkpt lat="43.28746" lon="2.24906">
        <ele>189.6</ele>
        <time>2022-03-06T07:46:31.000Z</time>
      </trkpt>
      <trkpt lat="43.28748" lon="2.24908">
        <ele>189.7</ele>
        <time>2022-03-06T07:46:32.000Z</time>
      </trkpt>
      <trkpt lat="43.28749" lon="2.2491">
        <ele>189.8</ele>
        <time>2022-03-06T07:46:33.000Z</time>
      </trkpt>
      <trkpt lat="43.2875" lon="2.24912">
        <ele>189.9</ele>
        <time>2022-03-06T07:46:34.000Z</time>
      </trkpt>
      <trkpt lat="43.28752" lon="2.24914">
        <ele>190</ele>
        <time>2022-03-06T07:46:35.000Z</time>
      </trkpt>
      <trkpt lat="43.28753" lon="2.24915">
        <ele>190.2</ele>
        <time>2022-03-06T07:46:36.000Z</time>
      </trkpt>
      <trkpt lat="43.28755" lon="2.24917">
        <ele>190.4</ele>
        <time>2022-03-06T07:46:37.000Z</time>
      </trkpt>
      <trkpt lat="43.28757" lon="2.24918">
        <ele>190.5</ele>
        <time>2022-03-06T07:46:38.000Z</time>
      </trkpt>
      <trkpt lat="43.28759" lon="2.24919">
        <ele>190.7</ele>
        <time>2022-03-06T07:46:39.000Z</time>
      </trkpt>
      <trkpt lat="43.2876" lon="2.2492">
        <ele>190.8</ele>
        <time>2022-03-06T07:46:40.000Z</time>
      </trkpt>
      <trkpt lat="43.28762" lon="2.24921">
        <ele>191</ele>
        <time>2022-03-06T07:46:41.000Z</time>
      </trkpt>
      <trkpt lat="43.28765" lon="2.24922">
        <ele>191.2</ele>
        <time>2022-03-06T07:46:42.000Z</time>
      </trkpt>
      <trkpt lat="43.28767" lon="2.24923">
        <ele>191.4</ele>
        <time>2022-03-06T07:46:43.000Z</time>
      </trkpt>
      <trkpt lat="43.28769" lon="2.24925">
        <ele>191.5</ele>
        <time>2022-03-06T07:46:44.000Z</time>
      </trkpt>
      <trkpt lat="43.28771" lon="2.24926">
        <ele>191.7</ele>
        <time>2022-03-06T07:46:45.000Z</time>
      </trkpt>
      <trkpt lat="43.28773" lon="2.24928">
        <ele>191.9</ele>
        <time>2022-03-06T07:46:46.000Z</time>
      </trkpt>
      <trkpt lat="43.28775" lon="2.2493">
        <ele>192.1</ele>
        <time>2022-03-06T07:46:47.000Z</time>
      </trkpt>
      <trkpt lat="43.28777" lon="2.24932">
        <ele>192.2</ele>
        <time>2022-03-06T07:46:48.000Z</time>
      </trkpt>
      <trkpt lat="43.28778" lon="2.24935">
        <ele>192.4</ele>
        <time>2022-03-06T07:46:49.000Z</time>
      </trkpt>
      <trkpt lat="43.2878" lon="2.24937">
        <ele>192.5</ele>
        <time>2022-03-06T07:46:50.000Z</time>
      </trkpt>
      <trkpt lat="43.28781" lon="2.2494">
        <ele>192.7</ele>
        <time>2022-03-06T07:46:51.000Z</time>
      </trkpt>
      <trkpt lat="43.28782" lon="2.24942">
        <ele>192.8</ele>
        <time>2022-03-06T07:46:52.000Z</time>
      </trkpt>
      <trkpt lat="43.28784" lon="2.24945">
        <ele>193</ele>
        <time>2022-03-06T07:46:53.000Z</time>
      </trkpt>
      <trkpt lat="43.28785" lon="2.24947">
        <ele>193.1</ele>
        <time>2022-03-06T07:46:54.000Z</time>
      </trkpt>
      <trkpt lat="43.28787" lon="2.24949">
        <ele>193.3</ele>
        <time>2022-03-06T07:46:55.000Z</time>
      </trkpt>
      <trkpt lat="43.28788" lon="2.24952">
        <ele>193.4</ele>
        <time>2022-03-06T07:46:56.000Z</time>
      </trkpt>
      <trkpt lat="43.28789" lon="2.24954">
        <ele>193.5</ele>
        <time>2022-03-06T07:46:57.000Z</time>
      </trkpt>
      <trkpt lat="43.28791" lon="2.24957">
        <ele>193.7</ele>
        <time>2022-03-06T07:46:58.000Z</time>
      </trkpt>
      <trkpt lat="43.28792" lon="2.2496">
        <ele>193.8</ele>
        <time>2022-03-06T07:46:59.000Z</time>
      </trkpt>
      <trkpt lat="43.28793" lon="2.24963">
        <ele>193.9</ele>
        <time>2022-03-06T07:47:00.000Z</time>
      </trkpt>
      <trkpt lat="43.28793" lon="2.24965">
        <ele>194</ele>
        <time>2022-03-06T07:47:01.000Z</time>
      </trkpt>
      <trkpt lat="43.28794" lon="2.24968">
        <ele>194.1</ele>
        <time>2022-03-06T07:47:02.000Z</time>
      </trkpt>
      <trkpt lat="43.28794" lon="2.24971">
        <ele>194.1</ele>
        <time>2022-03-06T07:47:03.000Z</time>
      </trkpt>
      <trkpt lat="43.28795" lon="2.24974">
        <ele>194.2</ele>
        <time>2022-03-06T07:47:04.000Z</time>
      </trkpt>
      <trkpt lat="43.28795" lon="2.24977">
        <ele>194.3</ele>
        <time>2022-03-06T07:47:05.000Z</time>
      </trkpt>
      <trkpt lat="43.28795" lon="2.2498">
        <ele>194.3</ele>
        <time>2022-03-06T07:47:06.000Z</time>
      </trkpt>
      <trkpt lat="43.28795" lon="2.24982">
        <ele>194.4</ele>
        <time>2022-03-06T07:47:07.000Z</time>
      </trkpt>
      <trkpt lat="43.28795" lon="2.24985">
        <ele>194.4</ele>
        <time>2022-03-06T07:47:08.000Z</time>
      </trkpt>
      <trkpt lat="43.28795" lon="2.24988">
        <ele>194.5</ele>
        <time>2022-03-06T07:47:09.000Z</time>
      </trkpt>
      <trkpt lat="43.28795" lon="2.24991">
        <ele>194.5</ele>
        <time>2022-03-06T07:47:10.000Z</time>
      </trkpt>
      <trkpt lat="43.28795" lon="2.24994">
        <ele>194.6</ele>
        <time>2022-03-06T07:47:11.000Z</time>
      </trkpt>
      <trkpt lat="43.28795" lon="2.24997">
        <ele>194.6</ele>
        <time>2022-03-06T07:47:12.000Z</time>
      </trkpt>
      <trkpt lat="43.28795" lon="2.25001">
        <ele>194.7</ele>
        <time>2022-03-06T07:47:13.000Z</time>
      </trkpt>
      <trkpt lat="43.28795" lon="2.25005">
        <ele>194.6</ele>
        <time>2022-03-06T07:47:14.000Z</time>
      </trkpt>
      <trkpt lat="43.28795" lon="2.25008">
        <ele>194.5</ele>
        <time>2022-03-06T07:47:15.000Z</time>
      </trkpt>
      <trkpt lat="43.28795" lon="2.25012">
        <ele>194.4</ele>
        <time>2022-03-06T07:47:16.000Z</time>
      </trkpt>
      <trkpt lat="43.28795" lon="2.25015">
        <ele>194.3</ele>
        <time>2022-03-06T07:47:17.000Z</time>
      </trkpt>
      <trkpt lat="43.28794" lon="2.25018">
        <ele>194.2</ele>
        <time>2022-03-06T07:47:18.000Z</time>
      </trkpt>
      <trkpt lat="43.28794" lon="2.25021">
        <ele>194.1</ele>
        <time>2022-03-06T07:47:19.000Z</time>
      </trkpt>
      <trkpt lat="43.28793" lon="2.25025">
        <ele>194</ele>
        <time>2022-03-06T07:47:20.000Z</time>
      </trkpt>
      <trkpt lat="43.28793" lon="2.25028">
        <ele>193.9</ele>
        <time>2022-03-06T07:47:21.000Z</time>
      </trkpt>
      <trkpt lat="43.28792" lon="2.25031">
        <ele>193.8</ele>
        <time>2022-03-06T07:47:22.000Z</time>
      </trkpt>
      <trkpt lat="43.28792" lon="2.25034">
        <ele>193.7</ele>
        <time>2022-03-06T07:47:23.000Z</time>
      </trkpt>
      <trkpt lat="43.28791" lon="2.25037">
        <ele>193.6</ele>
        <time>2022-03-06T07:47:24.000Z</time>
      </trkpt>
      <trkpt lat="43.2879" lon="2.2504">
        <ele>193.5</ele>
        <time>2022-03-06T07:47:25.000Z</time>
      </trkpt>
      <trkpt lat="43.2879" lon="2.25042">
        <ele>193.4</ele>
        <time>2022-03-06T07:47:26.000Z</time>
      </trkpt>
      <trkpt lat="43.28789" lon="2.25045">
        <ele>193.2</ele>
        <time>2022-03-06T07:47:27.000Z</time>
      </trkpt>
      <trkpt lat="43.28789" lon="2.25048">
        <ele>193.1</ele>
        <time>2022-03-06T07:47:28.000Z</time>
      </trkpt>
      <trkpt lat="43.28788" lon="2.2505">
        <ele>193</ele>
        <time>2022-03-06T07:47:29.000Z</time>
      </trkpt>
      <trkpt lat="43.28788" lon="2.25053">
        <ele>192.9</ele>
        <time>2022-03-06T07:47:30.000Z</time>
      </trkpt>
      <trkpt lat="43.28787" lon="2.25056">
        <ele>192.8</ele>
        <time>2022-03-06T07:47:31.000Z</time>
      </trkpt>
      <trkpt lat="43.28787" lon="2.25059">
        <ele>192.7</ele>
        <time>2022-03-06T07:47:32.000Z</time>
      </trkpt>
      <trkpt lat="43.28786" lon="2.25062">
        <ele>192.6</ele>
        <time>2022-03-06T07:47:33.000Z</time>
      </trkpt>
      <trkpt lat="43.28785" lon="2.25064">
        <ele>192.4</ele>
        <time>2022-03-06T07:47:34.000Z</time>
      </trkpt>
      <trkpt lat="43.28784" lon="2.25068">
        <ele>192.3</ele>
        <time>2022-03-06T07:47:35.000Z</time>
      </trkpt>
      <trkpt lat="43.28783" lon="2.25071">
        <ele>192.1</ele>
        <time>2022-03-06T07:47:36.000Z</time>
      </trkpt>
      <trkpt lat="43.28782" lon="2.25074">
        <ele>192</ele>
        <time>2022-03-06T07:47:37.000Z</time>
      </trkpt>
      <trkpt lat="43.28781" lon="2.25077">
        <ele>191.8</ele>
        <time>2022-03-06T07:47:38.000Z</time>
      </trkpt>
      <trkpt lat="43.2878" lon="2.2508">
        <ele>191.6</ele>
        <time>2022-03-06T07:47:39.000Z</time>
      </trkpt>
      <trkpt lat="43.28779" lon="2.25083">
        <ele>191.5</ele>
        <time>2022-03-06T07:47:40.000Z</time>
      </trkpt>
      <trkpt lat="43.28779" lon="2.25086">
        <ele>191.4</ele>
        <time>2022-03-06T07:47:41.000Z</time>
      </trkpt>
      <trkpt lat="43.28778" lon="2.25089">
        <ele>191.3</ele>
        <time>2022-03-06T07:47:42.000Z</time>
      </trkpt>
      <trkpt lat="43.28778" lon="2.25092">
        <ele>191.2</ele>
        <time>2022-03-06T07:47:43.000Z</time>
      </trkpt>
      <trkpt lat="43.28777" lon="2.25096">
        <ele>191.1</ele>
        <time>2022-03-06T07:47:44.000Z</time>
      </trkpt>
      <trkpt lat="43.28777" lon="2.25099">
        <ele>191.1</ele>
        <time>2022-03-06T07:47:45.000Z</time>
      </trkpt>
      <trkpt lat="43.28777" lon="2.25103">
        <ele>191.1</ele>
        <time>2022-03-06T07:47:46.000Z</time>
      </trkpt>
      <trkpt lat="43.28778" lon="2.25106">
        <ele>191</ele>
        <time>2022-03-06T07:47:47.000Z</time>
      </trkpt>
      <trkpt lat="43.28778" lon="2.2511">
        <ele>191</ele>
        <time>2022-03-06T07:47:48.000Z</time>
      </trkpt>
      <trkpt lat="43.28778" lon="2.25114">
        <ele>191</ele>
        <time>2022-03-06T07:47:49.000Z</time>
      </trkpt>
      <trkpt lat="43.28778" lon="2.25117">
        <ele>191</ele>
        <time>2022-03-06T07:47:50.000Z</time>
      </trkpt>
      <trkpt lat="43.28779" lon="2.25121">
        <ele>191</ele>
        <time>2022-03-06T07:47:51.000Z</time>
      </trkpt>
      <trkpt lat="43.28779" lon="2.25125">
        <ele>190.9</ele>
        <time>2022-03-06T07:47:52.000Z</time>
      </trkpt>
      <trkpt lat="43.28779" lon="2.25128">
        <ele>190.9</ele>
        <time>2022-03-06T07:47:53.000Z</time>
      </trkpt>
      <trkpt lat="43.28779" lon="2.25132">
        <ele>190.9</ele>
        <time>2022-03-06T07:47:54.000Z</time>
      </trkpt>
      <trkpt lat="43.28779" lon="2.25135">
        <ele>190.8</ele>
        <time>2022-03-06T07:47:55.000Z</time>
      </trkpt>
      <trkpt lat="43.28779" lon="2.25139">
        <ele>190.8</ele>
        <time>2022-03-06T07:47:56.000Z</time>
      </trkpt>
      <trkpt lat="43.28779" lon="2.25142">
        <ele>190.7</ele>
        <time>2022-03-06T07:47:57.000Z</time>
      </trkpt>
      <trkpt lat="43.28778" lon="2.25145">
        <ele>190.6</ele>
        <time>2022-03-06T07:47:58.000Z</time>
      </trkpt>
      <trkpt lat="43.28778" lon="2.25149">
        <ele>190.6</ele>
        <time>2022-03-06T07:47:59.000Z</time>
      </trkpt>
      <trkpt lat="43.28778" lon="2.25152">
        <ele>190.5</ele>
        <time>2022-03-06T07:48:00.000Z</time>
      </trkpt>
      <trkpt lat="43.28777" lon="2.25155">
        <ele>190.4</ele>
        <time>2022-03-06T07:48:01.000Z</time>
      </trkpt>
      <trkpt lat="43.28777" lon="2.25158">
        <ele>190.4</ele>
        <time>2022-03-06T07:48:02.000Z</time>
      </trkpt>
      <trkpt lat="43.28777" lon="2.25162">
        <ele>190.3</ele>
        <time>2022-03-06T07:48:03.000Z</time>
      </trkpt>
      <trkpt lat="43.28777" lon="2.25165">
        <ele>190.3</ele>
        <time>2022-03-06T07:48:04.000Z</time>
      </trkpt>
      <trkpt lat="43.28778" lon="2.25168">
        <ele>190.3</ele>
        <time>2022-03-06T07:48:05.000Z</time>
      </trkpt>
      <trkpt lat="43.28778" lon="2.25172">
        <ele>190.4</ele>
        <time>2022-03-06T07:48:06.000Z</time>
      </trkpt>
      <trkpt lat="43.28778" lon="2.25175">
        <ele>190.5</ele>
        <time>2022-03-06T07:48:07.000Z</time>
      </trkpt>
      <trkpt lat="43.28778" lon="2.25178">
        <ele>190.6</ele>
        <time>2022-03-06T07:48:08.000Z</time>
      </trkpt>
      <trkpt lat="43.28778" lon="2.25181">
        <ele>190.6</ele>
        <time>2022-03-06T07:48:09.000Z</time>
      </trkpt>
      <trkpt lat="43.28778" lon="2.25184">
        <ele>190.7</ele>
        <time>2022-03-06T07:48:10.000Z</time>
      </trkpt>
      <trkpt lat="43.28778" lon="2.25187">
        <ele>190.7</ele>
        <time>2022-03-06T07:48:11.000Z</time>
      </trkpt>
      <trkpt lat="43.28778" lon="2.25189">
        <ele>190.8</ele>
        <time>2022-03-06T07:48:12.000Z</time>
      </trkpt>
      <trkpt lat="43.28778" lon="2.25192">
        <ele>190.8</ele>
        <time>2022-03-06T07:48:13.000Z</time>
      </trkpt>
      <trkpt lat="43.28778" lon="2.25194">
        <ele>190.9</ele>
        <time>2022-03-06T07:48:14.000Z</time>
      </trkpt>
      <trkpt lat="43.28779" lon="2.25196">
        <ele>191</ele>
        <time>2022-03-06T07:48:15.000Z</time>
      </trkpt>
      <trkpt lat="43.28781" lon="2.25198">
        <ele>191.2</ele>
        <time>2022-03-06T07:48:16.000Z</time>
      </trkpt>
      <trkpt lat="43.28782" lon="2.252">
        <ele>191.3</ele>
        <time>2022-03-06T07:48:17.000Z</time>
      </trkpt>
      <trkpt lat="43.28784" lon="2.25201">
        <ele>191.5</ele>
        <time>2022-03-06T07:48:18.000Z</time>
      </trkpt>
      <trkpt lat="43.28786" lon="2.25202">
        <ele>191.7</ele>
        <time>2022-03-06T07:48:19.000Z</time>
      </trkpt>
      <trkpt lat="43.28789" lon="2.25204">
        <ele>191.9</ele>
        <time>2022-03-06T07:48:20.000Z</time>
      </trkpt>
      <trkpt lat="43.28791" lon="2.25205">
        <ele>192.1</ele>
        <time>2022-03-06T07:48:21.000Z</time>
      </trkpt>
      <trkpt lat="43.28793" lon="2.25207">
        <ele>192.3</ele>
        <time>2022-03-06T07:48:22.000Z</time>
      </trkpt>
      <trkpt lat="43.28795" lon="2.25208">
        <ele>192.5</ele>
        <time>2022-03-06T07:48:23.000Z</time>
      </trkpt>
      <trkpt lat="43.28797" lon="2.2521">
        <ele>192.7</ele>
        <time>2022-03-06T07:48:24.000Z</time>
      </trkpt>
      <trkpt lat="43.28798" lon="2.25213">
        <ele>192.8</ele>
        <time>2022-03-06T07:48:25.000Z</time>
      </trkpt>
      <trkpt lat="43.28799" lon="2.25215">
        <ele>192.9</ele>
        <time>2022-03-06T07:48:26.000Z</time>
      </trkpt>
      <trkpt lat="43.288" lon="2.25217">
        <ele>193</ele>
        <time>2022-03-06T07:48:27.000Z</time>
      </trkpt>
      <trkpt lat="43.28801" lon="2.25219">
        <ele>193.1</ele>
        <time>2022-03-06T07:48:28.000Z</time>
      </trkpt>
      <trkpt lat="43.28801" lon="2.25222">
        <ele>193.2</ele>
        <time>2022-03-06T07:48:29.000Z</time>
      </trkpt>
      <trkpt lat="43.28801" lon="2.25224">
        <ele>193.2</ele>
        <time>2022-03-06T07:48:30.000Z</time>
      </trkpt>
      <trkpt lat="43.28801" lon="2.25226">
        <ele>193.3</ele>
        <time>2022-03-06T07:48:31.000Z</time>
      </trkpt>
      <trkpt lat="43.28801" lon="2.25229">
        <ele>193.3</ele>
        <time>2022-03-06T07:48:32.000Z</time>
      </trkpt>
      <trkpt lat="43.288" lon="2.25231">
        <ele>193.3</ele>
        <time>2022-03-06T07:48:33.000Z</time>
      </trkpt>
      <trkpt lat="43.288" lon="2.25233">
        <ele>193.3</ele>
        <time>2022-03-06T07:48:34.000Z</time>
      </trkpt>
      <trkpt lat="43.288" lon="2.25235">
        <ele>193.4</ele>
        <time>2022-03-06T07:48:35.000Z</time>
      </trkpt>
      <trkpt lat="43.28801" lon="2.25237">
        <ele>193.5</ele>
        <time>2022-03-06T07:48:36.000Z</time>
      </trkpt>
      <trkpt lat="43.28803" lon="2.25239">
        <ele>193.6</ele>
        <time>2022-03-06T07:48:37.000Z</time>
      </trkpt>
      <trkpt lat="43.28804" lon="2.2524">
        <ele>193.7</ele>
        <time>2022-03-06T07:48:38.000Z</time>
      </trkpt>
      <trkpt lat="43.28806" lon="2.25241">
        <ele>193.9</ele>
        <time>2022-03-06T07:48:39.000Z</time>
      </trkpt>
      <trkpt lat="43.28808" lon="2.25241">
        <ele>194</ele>
        <time>2022-03-06T07:48:40.000Z</time>
      </trkpt>
      <trkpt lat="43.2881" lon="2.25242">
        <ele>194.2</ele>
        <time>2022-03-06T07:48:41.000Z</time>
      </trkpt>
      <trkpt lat="43.28812" lon="2.25241">
        <ele>194.3</ele>
        <time>2022-03-06T07:48:42.000Z</time>
      </trkpt>
      <trkpt lat="43.28814" lon="2.25241">
        <ele>194.5</ele>
        <time>2022-03-06T07:48:43.000Z</time>
      </trkpt>
      <trkpt lat="43.28817" lon="2.25241">
        <ele>194.7</ele>
        <time>2022-03-06T07:48:44.000Z</time>
      </trkpt>
      <trkpt lat="43.28819" lon="2.25241">
        <ele>194.8</ele>
        <time>2022-03-06T07:48:45.000Z</time>
      </trkpt>
      <trkpt lat="43.28821" lon="2.25241">
        <ele>195</ele>
        <time>2022-03-06T07:48:46.000Z</time>
      </trkpt>
      <trkpt lat="43.28823" lon="2.25241">
        <ele>195.2</ele>
        <time>2022-03-06T07:48:47.000Z</time>
      </trkpt>
      <trkpt lat="43.28826" lon="2.25242">
        <ele>195.3</ele>
        <time>2022-03-06T07:48:48.000Z</time>
      </trkpt>
      <trkpt lat="43.28828" lon="2.25242">
        <ele>195.5</ele>
        <time>2022-03-06T07:48:49.000Z</time>
      </trkpt>
      <trkpt lat="43.2883" lon="2.25243">
        <ele>195.7</ele>
        <time>2022-03-06T07:48:50.000Z</time>
      </trkpt>
      <trkpt lat="43.28832" lon="2.25243">
        <ele>195.8</ele>
        <time>2022-03-06T07:48:51.000Z</time>
      </trkpt>
      <trkpt lat="43.28834" lon="2.25244">
        <ele>196</ele>
        <time>2022-03-06T07:48:52.000Z</time>
      </trkpt>
      <trkpt lat="43.28836" lon="2.25245">
        <ele>196.1</ele>
        <time>2022-03-06T07:48:53.000Z</time>
      </trkpt>
      <trkpt lat="43.28838" lon="2.25246">
        <ele>196.3</ele>
        <time>2022-03-06T07:48:54.000Z</time>
      </trkpt>
      <trkpt lat="43.2884" lon="2.25247">
        <ele>196.4</ele>
        <time>2022-03-06T07:48:55.000Z</time>
      </trkpt>
      <trkpt lat="43.28841" lon="2.25248">
        <ele>196.5</ele>
        <time>2022-03-06T07:48:56.000Z</time>
      </trkpt>
      <trkpt lat="43.28843" lon="2.25249">
        <ele>196.7</ele>
        <time>2022-03-06T07:48:57.000Z</time>
      </trkpt>
      <trkpt lat="43.28844" lon="2.2525">
        <ele>196.8</ele>
        <time>2022-03-06T07:48:58.000Z</time>
      </trkpt>
      <trkpt lat="43.28846" lon="2.25252">
        <ele>196.9</ele>
        <time>2022-03-06T07:48:59.000Z</time>
      </trkpt>
      <trkpt lat="43.28847" lon="2.25253">
        <ele>197.1</ele>
        <time>2022-03-06T07:49:00.000Z</time>
      </trkpt>
      <trkpt lat="43.28848" lon="2.25255">
        <ele>197.2</ele>
        <time>2022-03-06T07:49:01.000Z</time>
      </trkpt>
      <trkpt lat="43.2885" lon="2.25256">
        <ele>197.4</ele>
        <time>2022-03-06T07:49:02.000Z</time>
      </trkpt>
      <trkpt lat="43.28851" lon="2.25258">
        <ele>197.5</ele>
        <time>2022-03-06T07:49:03.000Z</time>
      </trkpt>
      <trkpt lat="43.28853" lon="2.25259">
        <ele>197.7</ele>
        <time>2022-03-06T07:49:04.000Z</time>
      </trkpt>
      <trkpt lat="43.28855" lon="2.25261">
        <ele>197.9</ele>
        <time>2022-03-06T07:49:05.000Z</time>
      </trkpt>
      <trkpt lat="43.28857" lon="2.25262">
        <ele>198</ele>
        <time>2022-03-06T07:49:06.000Z</time>
      </trkpt>
      <trkpt lat="43.28859" lon="2.25264">
        <ele>198.2</ele>
        <time>2022-03-06T07:49:07.000Z</time>
      </trkpt>
      <trkpt lat="43.2886" lon="2.25266">
        <ele>198.4</ele>
        <time>2022-03-06T07:49:08.000Z</time>
      </trkpt>
      <trkpt lat="43.28862" lon="2.25268">
        <ele>198.5</ele>
        <time>2022-03-06T07:49:09.000Z</time>
      </trkpt>
      <trkpt lat="43.28863" lon="2.25269">
        <ele>198.7</ele>
        <time>2022-03-06T07:49:10.000Z</time>
      </trkpt>
      <trkpt lat="43.28865" lon="2.25271">
        <ele>198.8</ele>
        <time>2022-03-06T07:49:11.000Z</time>
      </trkpt>
      <trkpt lat="43.28866" lon="2.25274">
        <ele>199</ele>
        <time>2022-03-06T07:49:12.000Z</time>
      </trkpt>
      <trkpt lat="43.28867" lon="2.25275">
        <ele>199.1</ele>
        <time>2022-03-06T07:49:13.000Z</time>
      </trkpt>
      <trkpt lat="43.28869" lon="2.25277">
        <ele>199.3</ele>
        <time>2022-03-06T07:49:14.000Z</time>
      </trkpt>
      <trkpt lat="43.28871" lon="2.25279">
        <ele>199.4</ele>
        <time>2022-03-06T07:49:15.000Z</time>
      </trkpt>
      <trkpt lat="43.28872" lon="2.2528">
        <ele>199.5</ele>
        <time>2022-03-06T07:49:16.000Z</time>
      </trkpt>
      <trkpt lat="43.28874" lon="2.25281">
        <ele>199.7</ele>
        <time>2022-03-06T07:49:17.000Z</time>
      </trkpt>
      <trkpt lat="43.28876" lon="2.25282">
        <ele>199.8</ele>
        <time>2022-03-06T07:49:18.000Z</time>
      </trkpt>
      <trkpt lat="43.28878" lon="2.25282">
        <ele>200</ele>
        <time>2022-03-06T07:49:19.000Z</time>
      </trkpt>
      <trkpt lat="43.2888" lon="2.25283">
        <ele>200.1</ele>
        <time>2022-03-06T07:49:20.000Z</time>
      </trkpt>
      <trkpt lat="43.28883" lon="2.25284">
        <ele>200.3</ele>
        <time>2022-03-06T07:49:21.000Z</time>
      </trkpt>
      <trkpt lat="43.28885" lon="2.25285">
        <ele>200.4</ele>
        <time>2022-03-06T07:49:22.000Z</time>
      </trkpt>
      <trkpt lat="43.28887" lon="2.25287">
        <ele>200.6</ele>
        <time>2022-03-06T07:49:23.000Z</time>
      </trkpt>
      <trkpt lat="43.28888" lon="2.25288">
        <ele>200.7</ele>
        <time>2022-03-06T07:49:24.000Z</time>
      </trkpt>
      <trkpt lat="43.2889" lon="2.2529">
        <ele>200.9</ele>
        <time>2022-03-06T07:49:25.000Z</time>
      </trkpt>
      <trkpt lat="43.28892" lon="2.25291">
        <ele>201</ele>
        <time>2022-03-06T07:49:26.000Z</time>
      </trkpt>
      <trkpt lat="43.28894" lon="2.25293">
        <ele>201.2</ele>
        <time>2022-03-06T07:49:27.000Z</time>
      </trkpt>
      <trkpt lat="43.28896" lon="2.25295">
        <ele>201.3</ele>
        <time>2022-03-06T07:49:28.000Z</time>
      </trkpt>
      <trkpt lat="43.28897" lon="2.25297">
        <ele>201.4</ele>
        <time>2022-03-06T07:49:29.000Z</time>
      </trkpt>
      <trkpt lat="43.28899" lon="2.25299">
        <ele>201.6</ele>
        <time>2022-03-06T07:49:30.000Z</time>
      </trkpt>
      <trkpt lat="43.28901" lon="2.25301">
        <ele>201.7</ele>
        <time>2022-03-06T07:49:31.000Z</time>
      </trkpt>
      <trkpt lat="43.28902" lon="2.25303">
        <ele>201.8</ele>
        <time>2022-03-06T07:49:32.000Z</time>
      </trkpt>
      <trkpt lat="43.28904" lon="2.25306">
        <ele>202</ele>
        <time>2022-03-06T07:49:33.000Z</time>
      </trkpt>
      <trkpt lat="43.28906" lon="2.25308">
        <ele>202.1</ele>
        <time>2022-03-06T07:49:34.000Z</time>
      </trkpt>
      <trkpt lat="43.28907" lon="2.2531">
        <ele>202.2</ele>
        <time>2022-03-06T07:49:35.000Z</time>
      </trkpt>
      <trkpt lat="43.28909" lon="2.25312">
        <ele>202.3</ele>
        <time>2022-03-06T07:49:36.000Z</time>
      </trkpt>
      <trkpt lat="43.2891" lon="2.25313">
        <ele>202.4</ele>
        <time>2022-03-06T07:49:37.000Z</time>
      </trkpt>
      <trkpt lat="43.28912" lon="2.25315">
        <ele>202.5</ele>
        <time>2022-03-06T07:49:38.000Z</time>
      </trkpt>
      <trkpt lat="43.28913" lon="2.25317">
        <ele>202.6</ele>
        <time>2022-03-06T07:49:39.000Z</time>
      </trkpt>
      <trkpt lat="43.28915" lon="2.25319">
        <ele>202.7</ele>
        <time>2022-03-06T07:49:40.000Z</time>
      </trkpt>
      <trkpt lat="43.28916" lon="2.25321">
        <ele>202.8</ele>
        <time>2022-03-06T07:49:41.000Z</time>
      </trkpt>
      <trkpt lat="43.28917" lon="2.25323">
        <ele>202.9</ele>
        <time>2022-03-06T07:49:42.000Z</time>
      </trkpt>
      <trkpt lat="43.28919" lon="2.25325">
        <ele>203</ele>
        <time>2022-03-06T07:49:43.000Z</time>
      </trkpt>
      <trkpt lat="43.2892" lon="2.25326">
        <ele>203.1</ele>
        <time>2022-03-06T07:49:44.000Z</time>
      </trkpt>
      <trkpt lat="43.28922" lon="2.25328">
        <ele>203.1</ele>
        <time>2022-03-06T07:49:45.000Z</time>
      </trkpt>
      <trkpt lat="43.28923" lon="2.2533">
        <ele>203.2</ele>
        <time>2022-03-06T07:49:46.000Z</time>
      </trkpt>
      <trkpt lat="43.28925" lon="2.25332">
        <ele>203.3</ele>
        <time>2022-03-06T07:49:47.000Z</time>
      </trkpt>
      <trkpt lat="43.28927" lon="2.25334">
        <ele>203.4</ele>
        <time>2022-03-06T07:49:48.000Z</time>
      </trkpt>
      <trkpt lat="43.28928" lon="2.25336">
        <ele>203.5</ele>
        <time>2022-03-06T07:49:49.000Z</time>
      </trkpt>
      <trkpt lat="43.2893" lon="2.25339">
        <ele>203.6</ele>
        <time>2022-03-06T07:49:50.000Z</time>
      </trkpt>
      <trkpt lat="43.28932" lon="2.25341">
        <ele>203.7</ele>
        <time>2022-03-06T07:49:51.000Z</time>
      </trkpt>
      <trkpt lat="43.28934" lon="2.25343">
        <ele>203.8</ele>
        <time>2022-03-06T07:49:52.000Z</time>
      </trkpt>
      <trkpt lat="43.28935" lon="2.25345">
        <ele>203.9</ele>
        <time>2022-03-06T07:49:53.000Z</time>
      </trkpt>
      <trkpt lat="43.28937" lon="2.25348">
        <ele>204</ele>
        <time>2022-03-06T07:49:54.000Z</time>
      </trkpt>
      <trkpt lat="43.28939" lon="2.2535">
        <ele>204.1</ele>
        <time>2022-03-06T07:49:55.000Z</time>
      </trkpt>
      <trkpt lat="43.28941" lon="2.25353">
        <ele>204.3</ele>
        <time>2022-03-06T07:49:56.000Z</time>
      </trkpt>
      <trkpt lat="43.28942" lon="2.25355">
        <ele>204.4</ele>
        <time>2022-03-06T07:49:57.000Z</time>
      </trkpt>
      <trkpt lat="43.28944" lon="2.25357">
        <ele>204.5</ele>
        <time>2022-03-06T07:49:58.000Z</time>
      </trkpt>
      <trkpt lat="43.28945" lon="2.2536">
        <ele>204.6</ele>
        <time>2022-03-06T07:49:59.000Z</time>
      </trkpt>
      <trkpt lat="43.28947" lon="2.25362">
        <ele>204.6</ele>
        <time>2022-03-06T07:50:00.000Z</time>
      </trkpt>
      <trkpt lat="43.28948" lon="2.25364">
        <ele>204.7</ele>
        <time>2022-03-06T07:50:01.000Z</time>
      </trkpt>
      <trkpt lat="43.2895" lon="2.25366">
        <ele>204.8</ele>
        <time>2022-03-06T07:50:02.000Z</time>
      </trkpt>
      <trkpt lat="43.28951" lon="2.25368">
        <ele>204.9</ele>
        <time>2022-03-06T07:50:03.000Z</time>
      </trkpt>
      <trkpt lat="43.28953" lon="2.25371">
        <ele>205</ele>
        <time>2022-03-06T07:50:04.000Z</time>
      </trkpt>
      <trkpt lat="43.28954" lon="2.25373">
        <ele>205.1</ele>
        <time>2022-03-06T07:50:05.000Z</time>
      </trkpt>
      <trkpt lat="43.28956" lon="2.25375">
        <ele>205.2</ele>
        <time>2022-03-06T07:50:06.000Z</time>
      </trkpt>
      <trkpt lat="43.28958" lon="2.25378">
        <ele>205.3</ele>
        <time>2022-03-06T07:50:07.000Z</time>
      </trkpt>
      <trkpt lat="43.28959" lon="2.2538">
        <ele>205.3</ele>
        <time>2022-03-06T07:50:08.000Z</time>
      </trkpt>
      <trkpt lat="43.28959" lon="2.2538">
        <ele>205.3</ele>
        <time>2022-03-06T07:50:09.000Z</time>
      </trkpt>
      <trkpt lat="43.28959" lon="2.2538">
        <ele>205.4</ele>
        <time>2022-03-06T07:50:10.000Z</time>
      </trkpt>
      <trkpt lat="43.2896" lon="2.25381">
        <ele>205.4</ele>
        <time>2022-03-06T07:50:11.000Z</time>
      </trkpt>
      <trkpt lat="43.28961" lon="2.25383">
        <ele>205.5</ele>
        <time>2022-03-06T07:50:12.000Z</time>
      </trkpt>
      <trkpt lat="43.28961" lon="2.25385">
        <ele>205.5</ele>
        <time>2022-03-06T07:50:13.000Z</time>
      </trkpt>
      <trkpt lat="43.28962" lon="2.25388">
        <ele>205.6</ele>
        <time>2022-03-06T07:50:14.000Z</time>
      </trkpt>
      <trkpt lat="43.28962" lon="2.25391">
        <ele>205.6</ele>
        <time>2022-03-06T07:50:15.000Z</time>
      </trkpt>
      <trkpt lat="43.28963" lon="2.25394">
        <ele>205.7</ele>
        <time>2022-03-06T07:50:16.000Z</time>
      </trkpt>
      <trkpt lat="43.28964" lon="2.25397">
        <ele>205.8</ele>
        <time>2022-03-06T07:50:17.000Z</time>
      </trkpt>
      <trkpt lat="43.28965" lon="2.25401">
        <ele>205.9</ele>
        <time>2022-03-06T07:50:18.000Z</time>
      </trkpt>
      <trkpt lat="43.28966" lon="2.25404">
        <ele>206</ele>
        <time>2022-03-06T07:50:19.000Z</time>
      </trkpt>
      <trkpt lat="43.28967" lon="2.25407">
        <ele>206</ele>
        <time>2022-03-06T07:50:20.000Z</time>
      </trkpt>
      <trkpt lat="43.28969" lon="2.2541">
        <ele>206.1</ele>
        <time>2022-03-06T07:50:21.000Z</time>
      </trkpt>
      <trkpt lat="43.2897" lon="2.25412">
        <ele>206.2</ele>
        <time>2022-03-06T07:50:22.000Z</time>
      </trkpt>
      <trkpt lat="43.28972" lon="2.25415">
        <ele>206.3</ele>
        <time>2022-03-06T07:50:23.000Z</time>
      </trkpt>
      <trkpt lat="43.28973" lon="2.25418">
        <ele>206.4</ele>
        <time>2022-03-06T07:50:24.000Z</time>
      </trkpt>
      <trkpt lat="43.28975" lon="2.25421">
        <ele>206.4</ele>
        <time>2022-03-06T07:50:25.000Z</time>
      </trkpt>
      <trkpt lat="43.28976" lon="2.25424">
        <ele>206.5</ele>
        <time>2022-03-06T07:50:26.000Z</time>
      </trkpt>
      <trkpt lat="43.28977" lon="2.25427">
        <ele>206.5</ele>
        <time>2022-03-06T07:50:27.000Z</time>
      </trkpt>
      <trkpt lat="43.28978" lon="2.2543">
        <ele>206.6</ele>
        <time>2022-03-06T07:50:28.000Z</time>
      </trkpt>
      <trkpt lat="43.28979" lon="2.25434">
        <ele>206.6</ele>
        <time>2022-03-06T07:50:29.000Z</time>
      </trkpt>
      <trkpt lat="43.2898" lon="2.25437">
        <ele>206.6</ele>
        <time>2022-03-06T07:50:30.000Z</time>
      </trkpt>
      <trkpt lat="43.28981" lon="2.2544">
        <ele>206.7</ele>
        <time>2022-03-06T07:50:31.000Z</time>
      </trkpt>
      <trkpt lat="43.28982" lon="2.25443">
        <ele>206.7</ele>
        <time>2022-03-06T07:50:32.000Z</time>
      </trkpt>
      <trkpt lat="43.28982" lon="2.25446">
        <ele>206.8</ele>
        <time>2022-03-06T07:50:33.000Z</time>
      </trkpt>
      <trkpt lat="43.28983" lon="2.25449">
        <ele>206.8</ele>
        <time>2022-03-06T07:50:34.000Z</time>
      </trkpt>
      <trkpt lat="43.28984" lon="2.25452">
        <ele>206.9</ele>
        <time>2022-03-06T07:50:35.000Z</time>
      </trkpt>
      <trkpt lat="43.28984" lon="2.25455">
        <ele>206.9</ele>
        <time>2022-03-06T07:50:36.000Z</time>
      </trkpt>
      <trkpt lat="43.28985" lon="2.25458">
        <ele>207</ele>
        <time>2022-03-06T07:50:37.000Z</time>
      </trkpt>
      <trkpt lat="43.28986" lon="2.25461">
        <ele>207</ele>
        <time>2022-03-06T07:50:38.000Z</time>
      </trkpt>
      <trkpt lat="43.28987" lon="2.25463">
        <ele>207.1</ele>
        <time>2022-03-06T07:50:39.000Z</time>
      </trkpt>
      <trkpt lat="43.28988" lon="2.25466">
        <ele>207.1</ele>
        <time>2022-03-06T07:50:40.000Z</time>
      </trkpt>
      <trkpt lat="43.28989" lon="2.25469">
        <ele>207.2</ele>
        <time>2022-03-06T07:50:41.000Z</time>
      </trkpt>
      <trkpt lat="43.2899" lon="2.25472">
        <ele>207.2</ele>
        <time>2022-03-06T07:50:42.000Z</time>
      </trkpt>
      <trkpt lat="43.28991" lon="2.25474">
        <ele>207.3</ele>
        <time>2022-03-06T07:50:43.000Z</time>
      </trkpt>
      <trkpt lat="43.28992" lon="2.25476">
        <ele>207.4</ele>
        <time>2022-03-06T07:50:44.000Z</time>
      </trkpt>
      <trkpt lat="43.28993" lon="2.25478">
        <ele>207.4</ele>
        <time>2022-03-06T07:50:45.000Z</time>
      </trkpt>
      <trkpt lat="43.28994" lon="2.25479">
        <ele>207.5</ele>
        <time>2022-03-06T07:50:46.000Z</time>
      </trkpt>
      <trkpt lat="43.28995" lon="2.25479">
        <ele>207.6</ele>
        <time>2022-03-06T07:50:47.000Z</time>
      </trkpt>
      <trkpt lat="43.28997" lon="2.25479">
        <ele>207.6</ele>
        <time>2022-03-06T07:50:48.000Z</time>
      </trkpt>
      <trkpt lat="43.28998" lon="2.25478">
        <ele>207.7</ele>
        <time>2022-03-06T07:50:49.000Z</time>
      </trkpt>
      <trkpt lat="43.29" lon="2.25477">
        <ele>207.7</ele>
        <time>2022-03-06T07:50:50.000Z</time>
      </trkpt>
      <trkpt lat="43.29001" lon="2.25476">
        <ele>207.8</ele>
        <time>2022-03-06T07:50:51.000Z</time>
      </trkpt>
      <trkpt lat="43.29003" lon="2.25475">
        <ele>207.9</ele>
        <time>2022-03-06T07:50:52.000Z</time>
      </trkpt>
      <trkpt lat="43.29004" lon="2.25473">
        <ele>207.9</ele>
        <time>2022-03-06T07:50:53.000Z</time>
      </trkpt>
      <trkpt lat="43.29006" lon="2.25472">
        <ele>208</ele>
        <time>2022-03-06T07:50:54.000Z</time>
      </trkpt>
      <trkpt lat="43.29007" lon="2.25471">
        <ele>208.1</ele>
        <time>2022-03-06T07:50:55.000Z</time>
      </trkpt>
      <trkpt lat="43.29009" lon="2.25469">
        <ele>208.2</ele>
        <time>2022-03-06T07:50:56.000Z</time>
      </trkpt>
      <trkpt lat="43.29011" lon="2.25468">
        <ele>208.3</ele>
        <time>2022-03-06T07:50:57.000Z</time>
      </trkpt>
      <trkpt lat="43.29012" lon="2.25467">
        <ele>208.4</ele>
        <time>2022-03-06T07:50:58.000Z</time>
      </trkpt>
      <trkpt lat="43.29014" lon="2.25465">
        <ele>208.5</ele>
        <time>2022-03-06T07:50:59.000Z</time>
      </trkpt>
      <trkpt lat="43.29015" lon="2.25464">
        <ele>208.6</ele>
        <time>2022-03-06T07:51:00.000Z</time>
      </trkpt>
      <trkpt lat="43.29017" lon="2.25462">
        <ele>208.7</ele>
        <time>2022-03-06T07:51:01.000Z</time>
      </trkpt>
      <trkpt lat="43.29019" lon="2.25461">
        <ele>208.7</ele>
        <time>2022-03-06T07:51:02.000Z</time>
      </trkpt>
      <trkpt lat="43.2902" lon="2.25459">
        <ele>208.8</ele>
        <time>2022-03-06T07:51:03.000Z</time>
      </trkpt>
      <trkpt lat="43.29022" lon="2.25457">
        <ele>208.9</ele>
        <time>2022-03-06T07:51:04.000Z</time>
      </trkpt>
      <trkpt lat="43.29023" lon="2.25455">
        <ele>209</ele>
        <time>2022-03-06T07:51:05.000Z</time>
      </trkpt>
      <trkpt lat="43.29025" lon="2.25454">
        <ele>209.1</ele>
        <time>2022-03-06T07:51:06.000Z</time>
      </trkpt>
      <trkpt lat="43.29027" lon="2.25452">
        <ele>209.2</ele>
        <time>2022-03-06T07:51:07.000Z</time>
      </trkpt>
      <trkpt lat="43.29028" lon="2.2545">
        <ele>209.3</ele>
        <time>2022-03-06T07:51:08.000Z</time>
      </trkpt>
      <trkpt lat="43.2903" lon="2.25448">
        <ele>209.4</ele>
        <time>2022-03-06T07:51:09.000Z</time>
      </trkpt>
      <trkpt lat="43.29032" lon="2.25446">
        <ele>209.5</ele>
        <time>2022-03-06T07:51:10.000Z</time>
      </trkpt>
      <trkpt lat="43.29034" lon="2.25445">
        <ele>209.6</ele>
        <time>2022-03-06T07:51:11.000Z</time>
      </trkpt>
      <trkpt lat="43.29035" lon="2.25443">
        <ele>209.7</ele>
        <time>2022-03-06T07:51:12.000Z</time>
      </trkpt>
      <trkpt lat="43.29037" lon="2.25441">
        <ele>209.8</ele>
        <time>2022-03-06T07:51:13.000Z</time>
      </trkpt>
      <trkpt lat="43.29039" lon="2.25438">
        <ele>209.9</ele>
        <time>2022-03-06T07:51:14.000Z</time>
      </trkpt>
      <trkpt lat="43.2904" lon="2.25436">
        <ele>210</ele>
        <time>2022-03-06T07:51:15.000Z</time>
      </trkpt>
      <trkpt lat="43.29042" lon="2.25434">
        <ele>210.1</ele>
        <time>2022-03-06T07:51:16.000Z</time>
      </trkpt>
      <trkpt lat="43.29044" lon="2.25432">
        <ele>210.2</ele>
        <time>2022-03-06T07:51:17.000Z</time>
      </trkpt>
      <trkpt lat="43.29045" lon="2.2543">
        <ele>210.3</ele>
        <time>2022-03-06T07:51:18.000Z</time>
      </trkpt>
      <trkpt lat="43.29047" lon="2.25428">
        <ele>210.4</ele>
        <time>2022-03-06T07:51:19.000Z</time>
      </trkpt>
      <trkpt lat="43.29049" lon="2.25426">
        <ele>210.6</ele>
        <time>2022-03-06T07:51:20.000Z</time>
      </trkpt>
      <trkpt lat="43.29051" lon="2.25424">
        <ele>210.7</ele>
        <time>2022-03-06T07:51:21.000Z</time>
      </trkpt>
      <trkpt lat="43.29053" lon="2.25422">
        <ele>210.8</ele>
        <time>2022-03-06T07:51:22.000Z</time>
      </trkpt>
      <trkpt lat="43.29055" lon="2.25421">
        <ele>211</ele>
        <time>2022-03-06T07:51:23.000Z</time>
      </trkpt>
      <trkpt lat="43.29057" lon="2.2542">
        <ele>211.1</ele>
        <time>2022-03-06T07:51:24.000Z</time>
      </trkpt>
      <trkpt lat="43.29059" lon="2.25419">
        <ele>211.3</ele>
        <time>2022-03-06T07:51:25.000Z</time>
      </trkpt>
      <trkpt lat="43.29061" lon="2.25419">
        <ele>211.4</ele>
        <time>2022-03-06T07:51:26.000Z</time>
      </trkpt>
      <trkpt lat="43.29063" lon="2.25418">
        <ele>211.6</ele>
        <time>2022-03-06T07:51:27.000Z</time>
      </trkpt>
      <trkpt lat="43.29065" lon="2.25418">
        <ele>211.7</ele>
        <time>2022-03-06T07:51:28.000Z</time>
      </trkpt>
      <trkpt lat="43.29067" lon="2.25418">
        <ele>211.8</ele>
        <time>2022-03-06T07:51:29.000Z</time>
      </trkpt>
      <trkpt lat="43.29069" lon="2.25418">
        <ele>212</ele>
        <time>2022-03-06T07:51:30.000Z</time>
      </trkpt>
      <trkpt lat="43.2907" lon="2.25418">
        <ele>212.1</ele>
        <time>2022-03-06T07:51:31.000Z</time>
      </trkpt>
      <trkpt lat="43.29072" lon="2.25418">
        <ele>212.2</ele>
        <time>2022-03-06T07:51:32.000Z</time>
      </trkpt>
      <trkpt lat="43.29073" lon="2.25418">
        <ele>212.3</ele>
        <time>2022-03-06T07:51:33.000Z</time>
      </trkpt>
      <trkpt lat="43.29074" lon="2.25418">
        <ele>212.3</ele>
        <time>2022-03-06T07:51:34.000Z</time>
      </trkpt>
      <trkpt lat="43.29075" lon="2.25418">
        <ele>212.4</ele>
        <time>2022-03-06T07:51:35.000Z</time>
      </trkpt>
      <trkpt lat="43.29077" lon="2.25417">
        <ele>212.5</ele>
        <time>2022-03-06T07:51:36.000Z</time>
      </trkpt>
      <trkpt lat="43.29078" lon="2.25417">
        <ele>212.6</ele>
        <time>2022-03-06T07:51:37.000Z</time>
      </trkpt>
      <trkpt lat="43.29079" lon="2.25417">
        <ele>212.7</ele>
        <time>2022-03-06T07:51:38.000Z</time>
      </trkpt>
      <trkpt lat="43.2908" lon="2.25417">
        <ele>212.8</ele>
        <time>2022-03-06T07:51:39.000Z</time>
      </trkpt>
      <trkpt lat="43.29082" lon="2.25417">
        <ele>212.9</ele>
        <time>2022-03-06T07:51:40.000Z</time>
      </trkpt>
      <trkpt lat="43.29083" lon="2.25417">
        <ele>213</ele>
        <time>2022-03-06T07:51:41.000Z</time>
      </trkpt>
      <trkpt lat="43.29084" lon="2.25417">
        <ele>213.1</ele>
        <time>2022-03-06T07:51:42.000Z</time>
      </trkpt>
      <trkpt lat="43.29085" lon="2.25416">
        <ele>213.1</ele>
        <time>2022-03-06T07:51:43.000Z</time>
      </trkpt>
      <trkpt lat="43.29087" lon="2.25416">
        <ele>213.2</ele>
        <time>2022-03-06T07:51:44.000Z</time>
      </trkpt>
      <trkpt lat="43.29088" lon="2.25415">
        <ele>213.3</ele>
        <time>2022-03-06T07:51:45.000Z</time>
      </trkpt>
      <trkpt lat="43.29089" lon="2.25415">
        <ele>213.4</ele>
        <time>2022-03-06T07:51:46.000Z</time>
      </trkpt>
      <trkpt lat="43.2909" lon="2.25414">
        <ele>213.5</ele>
        <time>2022-03-06T07:51:47.000Z</time>
      </trkpt>
      <trkpt lat="43.29091" lon="2.25414">
        <ele>213.5</ele>
        <time>2022-03-06T07:51:48.000Z</time>
      </trkpt>
      <trkpt lat="43.29092" lon="2.25413">
        <ele>213.6</ele>
        <time>2022-03-06T07:51:49.000Z</time>
      </trkpt>
      <trkpt lat="43.29093" lon="2.25412">
        <ele>213.6</ele>
        <time>2022-03-06T07:51:50.000Z</time>
      </trkpt>
      <trkpt lat="43.29094" lon="2.25411">
        <ele>213.7</ele>
        <time>2022-03-06T07:51:51.000Z</time>
      </trkpt>
      <trkpt lat="43.29095" lon="2.2541">
        <ele>213.7</ele>
        <time>2022-03-06T07:51:52.000Z</time>
      </trkpt>
      <trkpt lat="43.29095" lon="2.25409">
        <ele>213.8</ele>
        <time>2022-03-06T07:51:53.000Z</time>
      </trkpt>
      <trkpt lat="43.29096" lon="2.25408">
        <ele>213.8</ele>
        <time>2022-03-06T07:51:54.000Z</time>
      </trkpt>
      <trkpt lat="43.29097" lon="2.25407">
        <ele>213.8</ele>
        <time>2022-03-06T07:51:55.000Z</time>
      </trkpt>
      <trkpt lat="43.29097" lon="2.25406">
        <ele>213.9</ele>
        <time>2022-03-06T07:51:56.000Z</time>
      </trkpt>
      <trkpt lat="43.29098" lon="2.25405">
        <ele>213.9</ele>
        <time>2022-03-06T07:51:57.000Z</time>
      </trkpt>
      <trkpt lat="43.29099" lon="2.25404">
        <ele>214</ele>
        <time>2022-03-06T07:51:58.000Z</time>
      </trkpt>
      <trkpt lat="43.291" lon="2.25403">
        <ele>214.1</ele>
        <time>2022-03-06T07:51:59.000Z</time>
      </trkpt>
      <trkpt lat="43.29102" lon="2.25402">
        <ele>214.1</ele>
        <time>2022-03-06T07:52:00.000Z</time>
      </trkpt>
      <trkpt lat="43.29103" lon="2.25401">
        <ele>214.2</ele>
        <time>2022-03-06T07:52:01.000Z</time>
      </trkpt>
      <trkpt lat="43.29104" lon="2.254">
        <ele>214.3</ele>
        <time>2022-03-06T07:52:02.000Z</time>
      </trkpt>
      <trkpt lat="43.29106" lon="2.25399">
        <ele>214.4</ele>
        <time>2022-03-06T07:52:03.000Z</time>
      </trkpt>
      <trkpt lat="43.29107" lon="2.25398">
        <ele>214.5</ele>
        <time>2022-03-06T07:52:04.000Z</time>
      </trkpt>
      <trkpt lat="43.29109" lon="2.25397">
        <ele>214.6</ele>
        <time>2022-03-06T07:52:05.000Z</time>
      </trkpt>
      <trkpt lat="43.29111" lon="2.25396">
        <ele>214.7</ele>
        <time>2022-03-06T07:52:06.000Z</time>
      </trkpt>
      <trkpt lat="43.29113" lon="2.25395">
        <ele>214.9</ele>
        <time>2022-03-06T07:52:07.000Z</time>
      </trkpt>
      <trkpt lat="43.29115" lon="2.25394">
        <ele>215</ele>
        <time>2022-03-06T07:52:08.000Z</time>
      </trkpt>
      <trkpt lat="43.29116" lon="2.25393">
        <ele>215.1</ele>
        <time>2022-03-06T07:52:09.000Z</time>
      </trkpt>
      <trkpt lat="43.29118" lon="2.25393">
        <ele>215.2</ele>
        <time>2022-03-06T07:52:10.000Z</time>
      </trkpt>
      <trkpt lat="43.29119" lon="2.25392">
        <ele>215.3</ele>
        <time>2022-03-06T07:52:11.000Z</time>
      </trkpt>
      <trkpt lat="43.29121" lon="2.25392">
        <ele>215.4</ele>
        <time>2022-03-06T07:52:12.000Z</time>
      </trkpt>
      <trkpt lat="43.29122" lon="2.25391">
        <ele>215.4</ele>
        <time>2022-03-06T07:52:13.000Z</time>
      </trkpt>
      <trkpt lat="43.29123" lon="2.25391">
        <ele>215.5</ele>
        <time>2022-03-06T07:52:14.000Z</time>
      </trkpt>
      <trkpt lat="43.29124" lon="2.2539">
        <ele>215.6</ele>
        <time>2022-03-06T07:52:15.000Z</time>
      </trkpt>
      <trkpt lat="43.29124" lon="2.2539">
        <ele>215.6</ele>
        <time>2022-03-06T07:52:16.000Z</time>
      </trkpt>
      <trkpt lat="43.29125" lon="2.2539">
        <ele>215.7</ele>
        <time>2022-03-06T07:52:17.000Z</time>
      </trkpt>
      <trkpt lat="43.29126" lon="2.25389">
        <ele>215.8</ele>
        <time>2022-03-06T07:52:18.000Z</time>
      </trkpt>
      <trkpt lat="43.29128" lon="2.25389">
        <ele>215.9</ele>
        <time>2022-03-06T07:52:19.000Z</time>
      </trkpt>
      <trkpt lat="43.29129" lon="2.25388">
        <ele>216</ele>
        <time>2022-03-06T07:52:20.000Z</time>
      </trkpt>
      <trkpt lat="43.29131" lon="2.25388">
        <ele>216.1</ele>
        <time>2022-03-06T07:52:21.000Z</time>
      </trkpt>
      <trkpt lat="43.29132" lon="2.25387">
        <ele>216.2</ele>
        <time>2022-03-06T07:52:22.000Z</time>
      </trkpt>
      <trkpt lat="43.29134" lon="2.25387">
        <ele>216.3</ele>
        <time>2022-03-06T07:52:23.000Z</time>
      </trkpt>
      <trkpt lat="43.29136" lon="2.25387">
        <ele>216.4</ele>
        <time>2022-03-06T07:52:24.000Z</time>
      </trkpt>
      <trkpt lat="43.29138" lon="2.25386">
        <ele>216.6</ele>
        <time>2022-03-06T07:52:25.000Z</time>
      </trkpt>
      <trkpt lat="43.2914" lon="2.25386">
        <ele>216.7</ele>
        <time>2022-03-06T07:52:26.000Z</time>
      </trkpt>
      <trkpt lat="43.29142" lon="2.25386">
        <ele>216.8</ele>
        <time>2022-03-06T07:52:27.000Z</time>
      </trkpt>
      <trkpt lat="43.29144" lon="2.25386">
        <ele>217</ele>
        <time>2022-03-06T07:52:28.000Z</time>
      </trkpt>
      <trkpt lat="43.29146" lon="2.25386">
        <ele>217.1</ele>
        <time>2022-03-06T07:52:29.000Z</time>
      </trkpt>
      <trkpt lat="43.29147" lon="2.25385">
        <ele>217.2</ele>
        <time>2022-03-06T07:52:30.000Z</time>
      </trkpt>
      <trkpt lat="43.29149" lon="2.25385">
        <ele>217.3</ele>
        <time>2022-03-06T07:52:31.000Z</time>
      </trkpt>
      <trkpt lat="43.2915" lon="2.25385">
        <ele>217.4</ele>
        <time>2022-03-06T07:52:32.000Z</time>
      </trkpt>
      <trkpt lat="43.29152" lon="2.25385">
        <ele>217.5</ele>
        <time>2022-03-06T07:52:33.000Z</time>
      </trkpt>
      <trkpt lat="43.29153" lon="2.25384">
        <ele>217.6</ele>
        <time>2022-03-06T07:52:34.000Z</time>
      </trkpt>
      <trkpt lat="43.29154" lon="2.25384">
        <ele>217.7</ele>
        <time>2022-03-06T07:52:35.000Z</time>
      </trkpt>
      <trkpt lat="43.29155" lon="2.25384">
        <ele>217.8</ele>
        <time>2022-03-06T07:52:36.000Z</time>
      </trkpt>
      <trkpt lat="43.29156" lon="2.25383">
        <ele>217.8</ele>
        <time>2022-03-06T07:52:37.000Z</time>
      </trkpt>
      <trkpt lat="43.29157" lon="2.25383">
        <ele>217.9</ele>
        <time>2022-03-06T07:52:38.000Z</time>
      </trkpt>
      <trkpt lat="43.29158" lon="2.25383">
        <ele>218</ele>
        <time>2022-03-06T07:52:39.000Z</time>
      </trkpt>
      <trkpt lat="43.29159" lon="2.25382">
        <ele>218</ele>
        <time>2022-03-06T07:52:40.000Z</time>
      </trkpt>
      <trkpt lat="43.2916" lon="2.25382">
        <ele>218.1</ele>
        <time>2022-03-06T07:52:41.000Z</time>
      </trkpt>
      <trkpt lat="43.29162" lon="2.25382">
        <ele>218.2</ele>
        <time>2022-03-06T07:52:42.000Z</time>
      </trkpt>
      <trkpt lat="43.29163" lon="2.25382">
        <ele>218.3</ele>
        <time>2022-03-06T07:52:43.000Z</time>
      </trkpt>
      <trkpt lat="43.29164" lon="2.25382">
        <ele>218.4</ele>
        <time>2022-03-06T07:52:44.000Z</time>
      </trkpt>
      <trkpt lat="43.29166" lon="2.25381">
        <ele>218.5</ele>
        <time>2022-03-06T07:52:45.000Z</time>
      </trkpt>
      <trkpt lat="43.29167" lon="2.25381">
        <ele>218.6</ele>
        <time>2022-03-06T07:52:46.000Z</time>
      </trkpt>
      <trkpt lat="43.29168" lon="2.25381">
        <ele>218.6</ele>
        <time>2022-03-06T07:52:47.000Z</time>
      </trkpt>
      <trkpt lat="43.29169" lon="2.25381">
        <ele>218.7</ele>
        <time>2022-03-06T07:52:48.000Z</time>
      </trkpt>
      <trkpt lat="43.2917" lon="2.25381">
        <ele>218.7</ele>
        <time>2022-03-06T07:52:49.000Z</time>
      </trkpt>
      <trkpt lat="43.29172" lon="2.25381">
        <ele>218.8</ele>
        <time>2022-03-06T07:52:50.000Z</time>
      </trkpt>
      <trkpt lat="43.29173" lon="2.25381">
        <ele>218.9</ele>
        <time>2022-03-06T07:52:51.000Z</time>
      </trkpt>
      <trkpt lat="43.29174" lon="2.25381">
        <ele>218.9</ele>
        <time>2022-03-06T07:52:52.000Z</time>
      </trkpt>
      <trkpt lat="43.29176" lon="2.25381">
        <ele>219</ele>
        <time>2022-03-06T07:52:53.000Z</time>
      </trkpt>
      <trkpt lat="43.29177" lon="2.25381">
        <ele>219.1</ele>
        <time>2022-03-06T07:52:54.000Z</time>
      </trkpt>
      <trkpt lat="43.29179" lon="2.25381">
        <ele>219.2</ele>
        <time>2022-03-06T07:52:55.000Z</time>
      </trkpt>
      <trkpt lat="43.29181" lon="2.25381">
        <ele>219.2</ele>
        <time>2022-03-06T07:52:56.000Z</time>
      </trkpt>
      <trkpt lat="43.29183" lon="2.25381">
        <ele>219.3</ele>
        <time>2022-03-06T07:52:57.000Z</time>
      </trkpt>
      <trkpt lat="43.29184" lon="2.25381">
        <ele>219.4</ele>
        <time>2022-03-06T07:52:58.000Z</time>
      </trkpt>
      <trkpt lat="43.29186" lon="2.25381">
        <ele>219.5</ele>
        <time>2022-03-06T07:52:59.000Z</time>
      </trkpt>
      <trkpt lat="43.29188" lon="2.25381">
        <ele>219.6</ele>
        <time>2022-03-06T07:53:00.000Z</time>
      </trkpt>
      <trkpt lat="43.29189" lon="2.25381">
        <ele>219.6</ele>
        <time>2022-03-06T07:53:01.000Z</time>
      </trkpt>
      <trkpt lat="43.2919" lon="2.25381">
        <ele>219.7</ele>
        <time>2022-03-06T07:53:02.000Z</time>
      </trkpt>
      <trkpt lat="43.29192" lon="2.25381">
        <ele>219.8</ele>
        <time>2022-03-06T07:53:03.000Z</time>
      </trkpt>
      <trkpt lat="43.29193" lon="2.25381">
        <ele>219.8</ele>
        <time>2022-03-06T07:53:04.000Z</time>
      </trkpt>
      <trkpt lat="43.29194" lon="2.25381">
        <ele>219.9</ele>
        <time>2022-03-06T07:53:05.000Z</time>
      </trkpt>
      <trkpt lat="43.29194" lon="2.25381">
        <ele>219.9</ele>
        <time>2022-03-06T07:53:06.000Z</time>
      </trkpt>
      <trkpt lat="43.29195" lon="2.25381">
        <ele>219.9</ele>
        <time>2022-03-06T07:53:07.000Z</time>
      </trkpt>
      <trkpt lat="43.29196" lon="2.25381">
        <ele>220</ele>
        <time>2022-03-06T07:53:08.000Z</time>
      </trkpt>
      <trkpt lat="43.29197" lon="2.25381">
        <ele>220</ele>
        <time>2022-03-06T07:53:09.000Z</time>
      </trkpt>
      <trkpt lat="43.29198" lon="2.25381">
        <ele>220.1</ele>
        <time>2022-03-06T07:53:10.000Z</time>
      </trkpt>
      <trkpt lat="43.292" lon="2.25381">
        <ele>220.2</ele>
        <time>2022-03-06T07:53:11.000Z</time>
      </trkpt>
      <trkpt lat="43.29201" lon="2.25381">
        <ele>220.2</ele>
        <time>2022-03-06T07:53:12.000Z</time>
      </trkpt>
      <trkpt lat="43.29202" lon="2.25381">
        <ele>220.3</ele>
        <time>2022-03-06T07:53:13.000Z</time>
      </trkpt>
      <trkpt lat="43.29204" lon="2.25381">
        <ele>220.3</ele>
        <time>2022-03-06T07:53:14.000Z</time>
      </trkpt>
      <trkpt lat="43.29205" lon="2.25381">
        <ele>220.4</ele>
        <time>2022-03-06T07:53:15.000Z</time>
      </trkpt>
      <trkpt lat="43.29207" lon="2.25381">
        <ele>220.5</ele>
        <time>2022-03-06T07:53:16.000Z</time>
      </trkpt>
      <trkpt lat="43.29208" lon="2.25381">
        <ele>220.6</ele>
        <time>2022-03-06T07:53:17.000Z</time>
      </trkpt>
      <trkpt lat="43.2921" lon="2.25382">
        <ele>220.6</ele>
        <time>2022-03-06T07:53:18.000Z</time>
      </trkpt>
      <trkpt lat="43.29211" lon="2.25381">
        <ele>220.7</ele>
        <time>2022-03-06T07:53:19.000Z</time>
      </trkpt>
      <trkpt lat="43.29213" lon="2.25381">
        <ele>220.8</ele>
        <time>2022-03-06T07:53:20.000Z</time>
      </trkpt>
      <trkpt lat="43.29214" lon="2.25381">
        <ele>220.9</ele>
        <time>2022-03-06T07:53:21.000Z</time>
      </trkpt>
      <trkpt lat="43.29216" lon="2.25381">
        <ele>220.9</ele>
        <time>2022-03-06T07:53:22.000Z</time>
      </trkpt>
      <trkpt lat="43.29217" lon="2.25381">
        <ele>221</ele>
        <time>2022-03-06T07:53:23.000Z</time>
      </trkpt>
      <trkpt lat="43.29218" lon="2.25381">
        <ele>221</ele>
        <time>2022-03-06T07:53:24.000Z</time>
      </trkpt>
      <trkpt lat="43.29219" lon="2.25381">
        <ele>221.1</ele>
        <time>2022-03-06T07:53:25.000Z</time>
      </trkpt>
      <trkpt lat="43.29221" lon="2.2538">
        <ele>221.1</ele>
        <time>2022-03-06T07:53:26.000Z</time>
      </trkpt>
      <trkpt lat="43.29222" lon="2.2538">
        <ele>221.2</ele>
        <time>2022-03-06T07:53:27.000Z</time>
      </trkpt>
      <trkpt lat="43.29223" lon="2.2538">
        <ele>221.3</ele>
        <time>2022-03-06T07:53:28.000Z</time>
      </trkpt>
      <trkpt lat="43.29224" lon="2.2538">
        <ele>221.3</ele>
        <time>2022-03-06T07:53:29.000Z</time>
      </trkpt>
      <trkpt lat="43.29226" lon="2.25379">
        <ele>221.4</ele>
        <time>2022-03-06T07:53:30.000Z</time>
      </trkpt>
      <trkpt lat="43.29227" lon="2.25379">
        <ele>221.5</ele>
        <time>2022-03-06T07:53:31.000Z</time>
      </trkpt>
      <trkpt lat="43.29229" lon="2.25379">
        <ele>221.5</ele>
        <time>2022-03-06T07:53:32.000Z</time>
      </trkpt>
      <trkpt lat="43.29231" lon="2.25379">
        <ele>221.6</ele>
        <time>2022-03-06T07:53:33.000Z</time>
      </trkpt>
      <trkpt lat="43.29232" lon="2.25379">
        <ele>221.7</ele>
        <time>2022-03-06T07:53:34.000Z</time>
      </trkpt>
      <trkpt lat="43.29234" lon="2.25379">
        <ele>221.8</ele>
        <time>2022-03-06T07:53:35.000Z</time>
      </trkpt>
      <trkpt lat="43.29236" lon="2.25379">
        <ele>221.9</ele>
        <time>2022-03-06T07:53:36.000Z</time>
      </trkpt>
      <trkpt lat="43.29238" lon="2.25379">
        <ele>222</ele>
        <time>2022-03-06T07:53:37.000Z</time>
      </trkpt>
      <trkpt lat="43.2924" lon="2.25379">
        <ele>222.1</ele>
        <time>2022-03-06T07:53:38.000Z</time>
      </trkpt>
      <trkpt lat="43.29242" lon="2.25379">
        <ele>222.1</ele>
        <time>2022-03-06T07:53:39.000Z</time>
      </trkpt>
      <trkpt lat="43.29244" lon="2.25379">
        <ele>222.2</ele>
        <time>2022-03-06T07:53:40.000Z</time>
      </trkpt>
      <trkpt lat="43.29245" lon="2.25379">
        <ele>222.3</ele>
        <time>2022-03-06T07:53:41.000Z</time>
      </trkpt>
      <trkpt lat="43.29247" lon="2.25379">
        <ele>222.4</ele>
        <time>2022-03-06T07:53:42.000Z</time>
      </trkpt>
      <trkpt lat="43.29249" lon="2.25379">
        <ele>222.5</ele>
        <time>2022-03-06T07:53:43.000Z</time>
      </trkpt>
      <trkpt lat="43.29251" lon="2.25379">
        <ele>222.6</ele>
        <time>2022-03-06T07:53:44.000Z</time>
      </trkpt>
      <trkpt lat="43.29253" lon="2.25379">
        <ele>222.8</ele>
        <time>2022-03-06T07:53:45.000Z</time>
      </trkpt>
      <trkpt lat="43.29255" lon="2.25379">
        <ele>222.9</ele>
        <time>2022-03-06T07:53:46.000Z</time>
      </trkpt>
      <trkpt lat="43.29257" lon="2.25378">
        <ele>223.1</ele>
        <time>2022-03-06T07:53:47.000Z</time>
      </trkpt>
      <trkpt lat="43.29259" lon="2.25378">
        <ele>223.2</ele>
        <time>2022-03-06T07:53:48.000Z</time>
      </trkpt>
      <trkpt lat="43.29261" lon="2.25378">
        <ele>223.3</ele>
        <time>2022-03-06T07:53:49.000Z</time>
      </trkpt>
      <trkpt lat="43.29263" lon="2.25377">
        <ele>223.5</ele>
        <time>2022-03-06T07:53:50.000Z</time>
      </trkpt>
      <trkpt lat="43.29265" lon="2.25377">
        <ele>223.6</ele>
        <time>2022-03-06T07:53:51.000Z</time>
      </trkpt>
      <trkpt lat="43.29268" lon="2.25376">
        <ele>223.8</ele>
        <time>2022-03-06T07:53:52.000Z</time>
      </trkpt>
      <trkpt lat="43.2927" lon="2.25376">
        <ele>223.9</ele>
        <time>2022-03-06T07:53:53.000Z</time>
      </trkpt>
      <trkpt lat="43.29272" lon="2.25375">
        <ele>224.1</ele>
        <time>2022-03-06T07:53:54.000Z</time>
      </trkpt>
      <trkpt lat="43.29274" lon="2.25375">
        <ele>224.2</ele>
        <time>2022-03-06T07:53:55.000Z</time>
      </trkpt>
      <trkpt lat="43.29276" lon="2.25374">
        <ele>224.4</ele>
        <time>2022-03-06T07:53:56.000Z</time>
      </trkpt>
      <trkpt lat="43.29278" lon="2.25374">
        <ele>224.5</ele>
        <time>2022-03-06T07:53:57.000Z</time>
      </trkpt>
      <trkpt lat="43.2928" lon="2.25373">
        <ele>224.6</ele>
        <time>2022-03-06T07:53:58.000Z</time>
      </trkpt>
      <trkpt lat="43.29282" lon="2.25373">
        <ele>224.8</ele>
        <time>2022-03-06T07:53:59.000Z</time>
      </trkpt>
      <trkpt lat="43.29284" lon="2.25372">
        <ele>224.9</ele>
        <time>2022-03-06T07:54:00.000Z</time>
      </trkpt>
      <trkpt lat="43.29286" lon="2.25372">
        <ele>225.1</ele>
        <time>2022-03-06T07:54:01.000Z</time>
      </trkpt>
      <trkpt lat="43.29288" lon="2.25371">
        <ele>225.2</ele>
        <time>2022-03-06T07:54:02.000Z</time>
      </trkpt>
      <trkpt lat="43.2929" lon="2.25371">
        <ele>225.4</ele>
        <time>2022-03-06T07:54:03.000Z</time>
      </trkpt>
      <trkpt lat="43.29292" lon="2.2537">
        <ele>225.5</ele>
        <time>2022-03-06T07:54:04.000Z</time>
      </trkpt>
      <trkpt lat="43.29294" lon="2.2537">
        <ele>225.6</ele>
        <time>2022-03-06T07:54:05.000Z</time>
      </trkpt>
      <trkpt lat="43.29296" lon="2.2537">
        <ele>225.8</ele>
        <time>2022-03-06T07:54:06.000Z</time>
      </trkpt>
      <trkpt lat="43.29298" lon="2.2537">
        <ele>225.9</ele>
        <time>2022-03-06T07:54:07.000Z</time>
      </trkpt>
      <trkpt lat="43.293" lon="2.2537">
        <ele>226</ele>
        <time>2022-03-06T07:54:08.000Z</time>
      </trkpt>
      <trkpt lat="43.29302" lon="2.25369">
        <ele>226.2</ele>
        <time>2022-03-06T07:54:09.000Z</time>
      </trkpt>
      <trkpt lat="43.29304" lon="2.25369">
        <ele>226.3</ele>
        <time>2022-03-06T07:54:10.000Z</time>
      </trkpt>
      <trkpt lat="43.29306" lon="2.25369">
        <ele>226.5</ele>
        <time>2022-03-06T07:54:11.000Z</time>
      </trkpt>
      <trkpt lat="43.29308" lon="2.25369">
        <ele>226.6</ele>
        <time>2022-03-06T07:54:12.000Z</time>
      </trkpt>
      <trkpt lat="43.2931" lon="2.25369">
        <ele>226.8</ele>
        <time>2022-03-06T07:54:13.000Z</time>
      </trkpt>
      <trkpt lat="43.29313" lon="2.25369">
        <ele>226.9</ele>
        <time>2022-03-06T07:54:14.000Z</time>
      </trkpt>
      <trkpt lat="43.29315" lon="2.25369">
        <ele>227.1</ele>
        <time>2022-03-06T07:54:15.000Z</time>
      </trkpt>
      <trkpt lat="43.29317" lon="2.25369">
        <ele>227.2</ele>
        <time>2022-03-06T07:54:16.000Z</time>
      </trkpt>
      <trkpt lat="43.29319" lon="2.25369">
        <ele>227.4</ele>
        <time>2022-03-06T07:54:17.000Z</time>
      </trkpt>
      <trkpt lat="43.29321" lon="2.25369">
        <ele>227.6</ele>
        <time>2022-03-06T07:54:18.000Z</time>
      </trkpt>
      <trkpt lat="43.29324" lon="2.25368">
        <ele>227.7</ele>
        <time>2022-03-06T07:54:19.000Z</time>
      </trkpt>
      <trkpt lat="43.29326" lon="2.25368">
        <ele>227.9</ele>
        <time>2022-03-06T07:54:20.000Z</time>
      </trkpt>
      <trkpt lat="43.29328" lon="2.25368">
        <ele>228</ele>
        <time>2022-03-06T07:54:21.000Z</time>
      </trkpt>
      <trkpt lat="43.2933" lon="2.25368">
        <ele>228.2</ele>
        <time>2022-03-06T07:54:22.000Z</time>
      </trkpt>
      <trkpt lat="43.29332" lon="2.25367">
        <ele>228.3</ele>
        <time>2022-03-06T07:54:23.000Z</time>
      </trkpt>
      <trkpt lat="43.29334" lon="2.25367">
        <ele>228.4</ele>
        <time>2022-03-06T07:54:24.000Z</time>
      </trkpt>
      <trkpt lat="43.29336" lon="2.25367">
        <ele>228.5</ele>
        <time>2022-03-06T07:54:25.000Z</time>
      </trkpt>
      <trkpt lat="43.29338" lon="2.25366">
        <ele>228.6</ele>
        <time>2022-03-06T07:54:26.000Z</time>
      </trkpt>
      <trkpt lat="43.2934" lon="2.25366">
        <ele>228.7</ele>
        <time>2022-03-06T07:54:27.000Z</time>
      </trkpt>
      <trkpt lat="43.29343" lon="2.25366">
        <ele>228.8</ele>
        <time>2022-03-06T07:54:28.000Z</time>
      </trkpt>
      <trkpt lat="43.29345" lon="2.25365">
        <ele>228.9</ele>
        <time>2022-03-06T07:54:29.000Z</time>
      </trkpt>
      <trkpt lat="43.29347" lon="2.25365">
        <ele>229</ele>
        <time>2022-03-06T07:54:30.000Z</time>
      </trkpt>
      <trkpt lat="43.29349" lon="2.25364">
        <ele>229</ele>
        <time>2022-03-06T07:54:31.000Z</time>
      </trkpt>
      <trkpt lat="43.29351" lon="2.25364">
        <ele>229.1</ele>
        <time>2022-03-06T07:54:32.000Z</time>
      </trkpt>
      <trkpt lat="43.29353" lon="2.25364">
        <ele>229.2</ele>
        <time>2022-03-06T07:54:33.000Z</time>
      </trkpt>
      <trkpt lat="43.29355" lon="2.25363">
        <ele>229.3</ele>
        <time>2022-03-06T07:54:34.000Z</time>
      </trkpt>
      <trkpt lat="43.29357" lon="2.25363">
        <ele>229.4</ele>
        <time>2022-03-06T07:54:35.000Z</time>
      </trkpt>
      <trkpt lat="43.29359" lon="2.25363">
        <ele>229.5</ele>
        <time>2022-03-06T07:54:36.000Z</time>
      </trkpt>
      <trkpt lat="43.29361" lon="2.25362">
        <ele>229.6</ele>
        <time>2022-03-06T07:54:37.000Z</time>
      </trkpt>
      <trkpt lat="43.29363" lon="2.25362">
        <ele>229.6</ele>
        <time>2022-03-06T07:54:38.000Z</time>
      </trkpt>
      <trkpt lat="43.29365" lon="2.25361">
        <ele>229.7</ele>
        <time>2022-03-06T07:54:39.000Z</time>
      </trkpt>
      <trkpt lat="43.29367" lon="2.25361">
        <ele>229.8</ele>
        <time>2022-03-06T07:54:40.000Z</time>
      </trkpt>
      <trkpt lat="43.29369" lon="2.25361">
        <ele>229.9</ele>
        <time>2022-03-06T07:54:41.000Z</time>
      </trkpt>
      <trkpt lat="43.29372" lon="2.2536">
        <ele>230</ele>
        <time>2022-03-06T07:54:42.000Z</time>
      </trkpt>
      <trkpt lat="43.29374" lon="2.2536">
        <ele>230.1</ele>
        <time>2022-03-06T07:54:43.000Z</time>
      </trkpt>
      <trkpt lat="43.29376" lon="2.2536">
        <ele>230.2</ele>
        <time>2022-03-06T07:54:44.000Z</time>
      </trkpt>
      <trkpt lat="43.29378" lon="2.25359">
        <ele>230.3</ele>
        <time>2022-03-06T07:54:45.000Z</time>
      </trkpt>
      <trkpt lat="43.2938" lon="2.25359">
        <ele>230.4</ele>
        <time>2022-03-06T07:54:46.000Z</time>
      </trkpt>
      <trkpt lat="43.29382" lon="2.25359">
        <ele>230.5</ele>
        <time>2022-03-06T07:54:47.000Z</time>
      </trkpt>
      <trkpt lat="43.29384" lon="2.25358">
        <ele>230.6</ele>
        <time>2022-03-06T07:54:48.000Z</time>
      </trkpt>
      <trkpt lat="43.29386" lon="2.25358">
        <ele>230.6</ele>
        <time>2022-03-06T07:54:49.000Z</time>
      </trkpt>
      <trkpt lat="43.29388" lon="2.25357">
        <ele>230.7</ele>
        <time>2022-03-06T07:54:50.000Z</time>
      </trkpt>
      <trkpt lat="43.29391" lon="2.25357">
        <ele>230.8</ele>
        <time>2022-03-06T07:54:51.000Z</time>
      </trkpt>
      <trkpt lat="43.29393" lon="2.25357">
        <ele>230.9</ele>
        <time>2022-03-06T07:54:52.000Z</time>
      </trkpt>
      <trkpt lat="43.29395" lon="2.25356">
        <ele>231</ele>
        <time>2022-03-06T07:54:53.000Z</time>
      </trkpt>
      <trkpt lat="43.29397" lon="2.25356">
        <ele>231.1</ele>
        <time>2022-03-06T07:54:54.000Z</time>
      </trkpt>
      <trkpt lat="43.29399" lon="2.25356">
        <ele>231.2</ele>
        <time>2022-03-06T07:54:55.000Z</time>
      </trkpt>
      <trkpt lat="43.29402" lon="2.25355">
        <ele>231.3</ele>
        <time>2022-03-06T07:54:56.000Z</time>
      </trkpt>
      <trkpt lat="43.29404" lon="2.25355">
        <ele>231.4</ele>
        <time>2022-03-06T07:54:57.000Z</time>
      </trkpt>
      <trkpt lat="43.29406" lon="2.25355">
        <ele>231.5</ele>
        <time>2022-03-06T07:54:58.000Z</time>
      </trkpt>
      <trkpt lat="43.29409" lon="2.25354">
        <ele>231.6</ele>
        <time>2022-03-06T07:54:59.000Z</time>
      </trkpt>
      <trkpt lat="43.29411" lon="2.25354">
        <ele>231.7</ele>
        <time>2022-03-06T07:55:00.000Z</time>
      </trkpt>
      <trkpt lat="43.29413" lon="2.25353">
        <ele>231.8</ele>
        <time>2022-03-06T07:55:01.000Z</time>
      </trkpt>
      <trkpt lat="43.29415" lon="2.25353">
        <ele>231.9</ele>
        <time>2022-03-06T07:55:02.000Z</time>
      </trkpt>
      <trkpt lat="43.29417" lon="2.25352">
        <ele>232.1</ele>
        <time>2022-03-06T07:55:03.000Z</time>
      </trkpt>
      <trkpt lat="43.29419" lon="2.25351">
        <ele>232.2</ele>
        <time>2022-03-06T07:55:04.000Z</time>
      </trkpt>
      <trkpt lat="43.29421" lon="2.2535">
        <ele>232.3</ele>
        <time>2022-03-06T07:55:05.000Z</time>
      </trkpt>
      <trkpt lat="43.29423" lon="2.25349">
        <ele>232.5</ele>
        <time>2022-03-06T07:55:06.000Z</time>
      </trkpt>
      <trkpt lat="43.29425" lon="2.25349">
        <ele>232.6</ele>
        <time>2022-03-06T07:55:07.000Z</time>
      </trkpt>
      <trkpt lat="43.29427" lon="2.25348">
        <ele>232.8</ele>
        <time>2022-03-06T07:55:08.000Z</time>
      </trkpt>
      <trkpt lat="43.29429" lon="2.25347">
        <ele>232.9</ele>
        <time>2022-03-06T07:55:09.000Z</time>
      </trkpt>
      <trkpt lat="43.29431" lon="2.25346">
        <ele>233</ele>
        <time>2022-03-06T07:55:10.000Z</time>
      </trkpt>
      <trkpt lat="43.29433" lon="2.25346">
        <ele>233.2</ele>
        <time>2022-03-06T07:55:11.000Z</time>
      </trkpt>
      <trkpt lat="43.29435" lon="2.25345">
        <ele>233.3</ele>
        <time>2022-03-06T07:55:12.000Z</time>
      </trkpt>
      <trkpt lat="43.29437" lon="2.25344">
        <ele>233.5</ele>
        <time>2022-03-06T07:55:13.000Z</time>
      </trkpt>
      <trkpt lat="43.29439" lon="2.25343">
        <ele>233.6</ele>
        <time>2022-03-06T07:55:14.000Z</time>
      </trkpt>
      <trkpt lat="43.29441" lon="2.25343">
        <ele>233.8</ele>
        <time>2022-03-06T07:55:15.000Z</time>
      </trkpt>
      <trkpt lat="43.29444" lon="2.25342">
        <ele>233.9</ele>
        <time>2022-03-06T07:55:16.000Z</time>
      </trkpt>
      <trkpt lat="43.29446" lon="2.25341">
        <ele>234.1</ele>
        <time>2022-03-06T07:55:17.000Z</time>
      </trkpt>
      <trkpt lat="43.29448" lon="2.2534">
        <ele>234.3</ele>
        <time>2022-03-06T07:55:18.000Z</time>
      </trkpt>
      <trkpt lat="43.2945" lon="2.25339">
        <ele>234.4</ele>
        <time>2022-03-06T07:55:19.000Z</time>
      </trkpt>
      <trkpt lat="43.29452" lon="2.25338">
        <ele>234.6</ele>
        <time>2022-03-06T07:55:20.000Z</time>
      </trkpt>
      <trkpt lat="43.29455" lon="2.25338">
        <ele>234.7</ele>
        <time>2022-03-06T07:55:21.000Z</time>
      </trkpt>
      <trkpt lat="43.29457" lon="2.25337">
        <ele>234.9</ele>
        <time>2022-03-06T07:55:22.000Z</time>
      </trkpt>
      <trkpt lat="43.29459" lon="2.25336">
        <ele>235</ele>
        <time>2022-03-06T07:55:23.000Z</time>
      </trkpt>
      <trkpt lat="43.29461" lon="2.25335">
        <ele>235.2</ele>
        <time>2022-03-06T07:55:24.000Z</time>
      </trkpt>
      <trkpt lat="43.29463" lon="2.25334">
        <ele>235.3</ele>
        <time>2022-03-06T07:55:25.000Z</time>
      </trkpt>
      <trkpt lat="43.29465" lon="2.25333">
        <ele>235.5</ele>
        <time>2022-03-06T07:55:26.000Z</time>
      </trkpt>
      <trkpt lat="43.29467" lon="2.25332">
        <ele>235.6</ele>
        <time>2022-03-06T07:55:27.000Z</time>
      </trkpt>
      <trkpt lat="43.29468" lon="2.25331">
        <ele>235.7</ele>
        <time>2022-03-06T07:55:28.000Z</time>
      </trkpt>
      <trkpt lat="43.2947" lon="2.25331">
        <ele>235.8</ele>
        <time>2022-03-06T07:55:29.000Z</time>
      </trkpt>
      <trkpt lat="43.29472" lon="2.2533">
        <ele>235.9</ele>
        <time>2022-03-06T07:55:30.000Z</time>
      </trkpt>
      <trkpt lat="43.29473" lon="2.25329">
        <ele>236</ele>
        <time>2022-03-06T07:55:31.000Z</time>
      </trkpt>
      <trkpt lat="43.29474" lon="2.25328">
        <ele>236.1</ele>
        <time>2022-03-06T07:55:32.000Z</time>
      </trkpt>
      <trkpt lat="43.29475" lon="2.25328">
        <ele>236.2</ele>
        <time>2022-03-06T07:55:33.000Z</time>
      </trkpt>
      <trkpt lat="43.29476" lon="2.25327">
        <ele>236.3</ele>
        <time>2022-03-06T07:55:34.000Z</time>
      </trkpt>
      <trkpt lat="43.29478" lon="2.25326">
        <ele>236.4</ele>
        <time>2022-03-06T07:55:35.000Z</time>
      </trkpt>
      <trkpt lat="43.29479" lon="2.25326">
        <ele>236.5</ele>
        <time>2022-03-06T07:55:36.000Z</time>
      </trkpt>
      <trkpt lat="43.2948" lon="2.25325">
        <ele>236.6</ele>
        <time>2022-03-06T07:55:37.000Z</time>
      </trkpt>
      <trkpt lat="43.29481" lon="2.25325">
        <ele>236.6</ele>
        <time>2022-03-06T07:55:38.000Z</time>
      </trkpt>
      <trkpt lat="43.29482" lon="2.25325">
        <ele>236.7</ele>
        <time>2022-03-06T07:55:39.000Z</time>
      </trkpt>
      <trkpt lat="43.29483" lon="2.25324">
        <ele>236.8</ele>
        <time>2022-03-06T07:55:40.000Z</time>
      </trkpt>
      <trkpt lat="43.29484" lon="2.25324">
        <ele>236.9</ele>
        <time>2022-03-06T07:55:41.000Z</time>
      </trkpt>
      <trkpt lat="43.29485" lon="2.25323">
        <ele>236.9</ele>
        <time>2022-03-06T07:55:42.000Z</time>
      </trkpt>
      <trkpt lat="43.29486" lon="2.25323">
        <ele>237</ele>
        <time>2022-03-06T07:55:43.000Z</time>
      </trkpt>
      <trkpt lat="43.29487" lon="2.25323">
        <ele>237</ele>
        <time>2022-03-06T07:55:44.000Z</time>
      </trkpt>
      <trkpt lat="43.29487" lon="2.25322">
        <ele>237.1</ele>
        <time>2022-03-06T07:55:45.000Z</time>
      </trkpt>
      <trkpt lat="43.29487" lon="2.25322">
        <ele>237.1</ele>
        <time>2022-03-06T07:55:46.000Z</time>
      </trkpt>
      <trkpt lat="43.29488" lon="2.25322">
        <ele>237.1</ele>
        <time>2022-03-06T07:55:47.000Z</time>
      </trkpt>
      <trkpt lat="43.29488" lon="2.25322">
        <ele>237.1</ele>
        <time>2022-03-06T07:55:48.000Z</time>
      </trkpt>
      <trkpt lat="43.29488" lon="2.25323">
        <ele>237.1</ele>
        <time>2022-03-06T07:55:49.000Z</time>
      </trkpt>
      <trkpt lat="43.29488" lon="2.25323">
        <ele>237.1</ele>
        <time>2022-03-06T07:55:50.000Z</time>
      </trkpt>
      <trkpt lat="43.29488" lon="2.25323">
        <ele>237.1</ele>
        <time>2022-03-06T07:55:51.000Z</time>
      </trkpt>
      <trkpt lat="43.29488" lon="2.25323">
        <ele>237.2</ele>
        <time>2022-03-06T07:55:52.000Z</time>
      </trkpt>
      <trkpt lat="43.29489" lon="2.25323">
        <ele>237.2</ele>
        <time>2022-03-06T07:55:53.000Z</time>
      </trkpt>
      <trkpt lat="43.29489" lon="2.25322">
        <ele>237.2</ele>
        <time>2022-03-06T07:55:54.000Z</time>
      </trkpt>
      <trkpt lat="43.2949" lon="2.25321">
        <ele>237.3</ele>
        <time>2022-03-06T07:55:55.000Z</time>
      </trkpt>
      <trkpt lat="43.29491" lon="2.2532">
        <ele>237.3</ele>
        <time>2022-03-06T07:55:56.000Z</time>
      </trkpt>
      <trkpt lat="43.29491" lon="2.25319">
        <ele>237.4</ele>
        <time>2022-03-06T07:55:57.000Z</time>
      </trkpt>
      <trkpt lat="43.29493" lon="2.25318">
        <ele>237.5</ele>
        <time>2022-03-06T07:55:58.000Z</time>
      </trkpt>
      <trkpt lat="43.29494" lon="2.25317">
        <ele>237.5</ele>
        <time>2022-03-06T07:55:59.000Z</time>
      </trkpt>
      <trkpt lat="43.29495" lon="2.25315">
        <ele>237.6</ele>
        <time>2022-03-06T07:56:00.000Z</time>
      </trkpt>
      <trkpt lat="43.29497" lon="2.25314">
        <ele>237.8</ele>
        <time>2022-03-06T07:56:01.000Z</time>
      </trkpt>
      <trkpt lat="43.29498" lon="2.25313">
        <ele>237.9</ele>
        <time>2022-03-06T07:56:02.000Z</time>
      </trkpt>
      <trkpt lat="43.295" lon="2.25311">
        <ele>238</ele>
        <time>2022-03-06T07:56:03.000Z</time>
      </trkpt>
      <trkpt lat="43.29502" lon="2.2531">
        <ele>238.1</ele>
        <time>2022-03-06T07:56:04.000Z</time>
      </trkpt>
      <trkpt lat="43.29504" lon="2.25308">
        <ele>238.1</ele>
        <time>2022-03-06T07:56:05.000Z</time>
      </trkpt>
      <trkpt lat="43.29506" lon="2.25307">
        <ele>238.2</ele>
        <time>2022-03-06T07:56:06.000Z</time>
      </trkpt>
      <trkpt lat="43.29509" lon="2.25306">
        <ele>238.2</ele>
        <time>2022-03-06T07:56:07.000Z</time>
      </trkpt>
      <trkpt lat="43.29511" lon="2.25304">
        <ele>238.3</ele>
        <time>2022-03-06T07:56:08.000Z</time>
      </trkpt>
      <trkpt lat="43.29513" lon="2.25303">
        <ele>238.3</ele>
        <time>2022-03-06T07:56:09.000Z</time>
      </trkpt>
      <trkpt lat="43.29515" lon="2.25302">
        <ele>238.4</ele>
        <time>2022-03-06T07:56:10.000Z</time>
      </trkpt>
      <trkpt lat="43.29518" lon="2.253">
        <ele>238.4</ele>
        <time>2022-03-06T07:56:11.000Z</time>
      </trkpt>
      <trkpt lat="43.2952" lon="2.25299">
        <ele>238.5</ele>
        <time>2022-03-06T07:56:12.000Z</time>
      </trkpt>
      <trkpt lat="43.29522" lon="2.25298">
        <ele>238.5</ele>
        <time>2022-03-06T07:56:13.000Z</time>
      </trkpt>
      <trkpt lat="43.29525" lon="2.25297">
        <ele>238.6</ele>
        <time>2022-03-06T07:56:14.000Z</time>
      </trkpt>
      <trkpt lat="43.29527" lon="2.25296">
        <ele>238.6</ele>
        <time>2022-03-06T07:56:15.000Z</time>
      </trkpt>
      <trkpt lat="43.29529" lon="2.25295">
        <ele>238.7</ele>
        <time>2022-03-06T07:56:16.000Z</time>
      </trkpt>
      <trkpt lat="43.29532" lon="2.25293">
        <ele>238.8</ele>
        <time>2022-03-06T07:56:17.000Z</time>
      </trkpt>
      <trkpt lat="43.29534" lon="2.25292">
        <ele>238.8</ele>
        <time>2022-03-06T07:56:18.000Z</time>
      </trkpt>
      <trkpt lat="43.29536" lon="2.25291">
        <ele>238.9</ele>
        <time>2022-03-06T07:56:19.000Z</time>
      </trkpt>
      <trkpt lat="43.29538" lon="2.2529">
        <ele>238.9</ele>
        <time>2022-03-06T07:56:20.000Z</time>
      </trkpt>
      <trkpt lat="43.29541" lon="2.25289">
        <ele>239</ele>
        <time>2022-03-06T07:56:21.000Z</time>
      </trkpt>
      <trkpt lat="43.29543" lon="2.25288">
        <ele>239</ele>
        <time>2022-03-06T07:56:22.000Z</time>
      </trkpt>
      <trkpt lat="43.29545" lon="2.25288">
        <ele>239.1</ele>
        <time>2022-03-06T07:56:23.000Z</time>
      </trkpt>
      <trkpt lat="43.29547" lon="2.25287">
        <ele>239.1</ele>
        <time>2022-03-06T07:56:24.000Z</time>
      </trkpt>
      <trkpt lat="43.2955" lon="2.25286">
        <ele>239.2</ele>
        <time>2022-03-06T07:56:25.000Z</time>
      </trkpt>
      <trkpt lat="43.29552" lon="2.25285">
        <ele>239.2</ele>
        <time>2022-03-06T07:56:26.000Z</time>
      </trkpt>
      <trkpt lat="43.29554" lon="2.25284">
        <ele>239.3</ele>
        <time>2022-03-06T07:56:27.000Z</time>
      </trkpt>
      <trkpt lat="43.29556" lon="2.25283">
        <ele>239.3</ele>
        <time>2022-03-06T07:56:28.000Z</time>
      </trkpt>
      <trkpt lat="43.29558" lon="2.25282">
        <ele>239.4</ele>
        <time>2022-03-06T07:56:29.000Z</time>
      </trkpt>
      <trkpt lat="43.29561" lon="2.25282">
        <ele>239.5</ele>
        <time>2022-03-06T07:56:30.000Z</time>
      </trkpt>
      <trkpt lat="43.29563" lon="2.25281">
        <ele>239.5</ele>
        <time>2022-03-06T07:56:31.000Z</time>
      </trkpt>
      <trkpt lat="43.29565" lon="2.2528">
        <ele>239.6</ele>
        <time>2022-03-06T07:56:32.000Z</time>
      </trkpt>
      <trkpt lat="43.29567" lon="2.25279">
        <ele>239.6</ele>
        <time>2022-03-06T07:56:33.000Z</time>
      </trkpt>
      <trkpt lat="43.29569" lon="2.25279">
        <ele>239.7</ele>
        <time>2022-03-06T07:56:34.000Z</time>
      </trkpt>
      <trkpt lat="43.29572" lon="2.25278">
        <ele>239.7</ele>
        <time>2022-03-06T07:56:35.000Z</time>
      </trkpt>
      <trkpt lat="43.29574" lon="2.25277">
        <ele>239.8</ele>
        <time>2022-03-06T07:56:36.000Z</time>
      </trkpt>
      <trkpt lat="43.29576" lon="2.25276">
        <ele>239.8</ele>
        <time>2022-03-06T07:56:37.000Z</time>
      </trkpt>
      <trkpt lat="43.29578" lon="2.25276">
        <ele>239.9</ele>
        <time>2022-03-06T07:56:38.000Z</time>
      </trkpt>
      <trkpt lat="43.2958" lon="2.25275">
        <ele>239.9</ele>
        <time>2022-03-06T07:56:39.000Z</time>
      </trkpt>
      <trkpt lat="43.29582" lon="2.25274">
        <ele>240</ele>
        <time>2022-03-06T07:56:40.000Z</time>
      </trkpt>
      <trkpt lat="43.29585" lon="2.25273">
        <ele>240</ele>
        <time>2022-03-06T07:56:41.000Z</time>
      </trkpt>
      <trkpt lat="43.29587" lon="2.25273">
        <ele>240</ele>
        <time>2022-03-06T07:56:42.000Z</time>
      </trkpt>
      <trkpt lat="43.29589" lon="2.25272">
        <ele>240</ele>
        <time>2022-03-06T07:56:43.000Z</time>
      </trkpt>
      <trkpt lat="43.29591" lon="2.25271">
        <ele>240</ele>
        <time>2022-03-06T07:56:44.000Z</time>
      </trkpt>
      <trkpt lat="43.29593" lon="2.25271">
        <ele>240</ele>
        <time>2022-03-06T07:56:45.000Z</time>
      </trkpt>
      <trkpt lat="43.29596" lon="2.2527">
        <ele>240</ele>
        <time>2022-03-06T07:56:46.000Z</time>
      </trkpt>
      <trkpt lat="43.29598" lon="2.25269">
        <ele>240</ele>
        <time>2022-03-06T07:56:47.000Z</time>
      </trkpt>
      <trkpt lat="43.296" lon="2.25268">
        <ele>240</ele>
        <time>2022-03-06T07:56:48.000Z</time>
      </trkpt>
      <trkpt lat="43.29602" lon="2.25267">
        <ele>240</ele>
        <time>2022-03-06T07:56:49.000Z</time>
      </trkpt>
      <trkpt lat="43.29604" lon="2.25266">
        <ele>240</ele>
        <time>2022-03-06T07:56:50.000Z</time>
      </trkpt>
      <trkpt lat="43.29607" lon="2.25266">
        <ele>240</ele>
        <time>2022-03-06T07:56:51.000Z</time>
      </trkpt>
      <trkpt lat="43.29609" lon="2.25265">
        <ele>240</ele>
        <time>2022-03-06T07:56:52.000Z</time>
      </trkpt>
      <trkpt lat="43.29611" lon="2.25264">
        <ele>240.1</ele>
        <time>2022-03-06T07:56:53.000Z</time>
      </trkpt>
      <trkpt lat="43.29613" lon="2.25263">
        <ele>240.1</ele>
        <time>2022-03-06T07:56:54.000Z</time>
      </trkpt>
      <trkpt lat="43.29614" lon="2.25262">
        <ele>240.1</ele>
        <time>2022-03-06T07:56:55.000Z</time>
      </trkpt>
      <trkpt lat="43.29616" lon="2.25261">
        <ele>240.1</ele>
        <time>2022-03-06T07:56:56.000Z</time>
      </trkpt>
      <trkpt lat="43.29617" lon="2.2526">
        <ele>240.2</ele>
        <time>2022-03-06T07:56:57.000Z</time>
      </trkpt>
      <trkpt lat="43.29619" lon="2.25259">
        <ele>240.2</ele>
        <time>2022-03-06T07:56:58.000Z</time>
      </trkpt>
      <trkpt lat="43.2962" lon="2.25258">
        <ele>240.2</ele>
        <time>2022-03-06T07:56:59.000Z</time>
      </trkpt>
      <trkpt lat="43.29621" lon="2.25257">
        <ele>240.3</ele>
        <time>2022-03-06T07:57:00.000Z</time>
      </trkpt>
      <trkpt lat="43.29622" lon="2.25256">
        <ele>240.3</ele>
        <time>2022-03-06T07:57:01.000Z</time>
      </trkpt>
      <trkpt lat="43.29623" lon="2.25255">
        <ele>240.3</ele>
        <time>2022-03-06T07:57:02.000Z</time>
      </trkpt>
      <trkpt lat="43.29624" lon="2.25254">
        <ele>240.4</ele>
        <time>2022-03-06T07:57:03.000Z</time>
      </trkpt>
      <trkpt lat="43.29624" lon="2.25253">
        <ele>240.4</ele>
        <time>2022-03-06T07:57:04.000Z</time>
      </trkpt>
      <trkpt lat="43.29625" lon="2.25252">
        <ele>240.4</ele>
        <time>2022-03-06T07:57:05.000Z</time>
      </trkpt>
      <trkpt lat="43.29626" lon="2.25251">
        <ele>240.5</ele>
        <time>2022-03-06T07:57:06.000Z</time>
      </trkpt>
      <trkpt lat="43.29626" lon="2.2525">
        <ele>240.5</ele>
        <time>2022-03-06T07:57:07.000Z</time>
      </trkpt>
      <trkpt lat="43.29627" lon="2.25248">
        <ele>240.6</ele>
        <time>2022-03-06T07:57:08.000Z</time>
      </trkpt>
      <trkpt lat="43.29627" lon="2.25247">
        <ele>240.6</ele>
        <time>2022-03-06T07:57:09.000Z</time>
      </trkpt>
      <trkpt lat="43.29627" lon="2.25246">
        <ele>240.6</ele>
        <time>2022-03-06T07:57:10.000Z</time>
      </trkpt>
      <trkpt lat="43.29627" lon="2.25244">
        <ele>240.6</ele>
        <time>2022-03-06T07:57:11.000Z</time>
      </trkpt>
      <trkpt lat="43.29627" lon="2.25243">
        <ele>240.6</ele>
        <time>2022-03-06T07:57:12.000Z</time>
      </trkpt>
      <trkpt lat="43.29626" lon="2.25242">
        <ele>240.6</ele>
        <time>2022-03-06T07:57:13.000Z</time>
      </trkpt>
      <trkpt lat="43.29625" lon="2.25242">
        <ele>240.6</ele>
        <time>2022-03-06T07:57:14.000Z</time>
      </trkpt>
      <trkpt lat="43.29623" lon="2.25241">
        <ele>240.6</ele>
        <time>2022-03-06T07:57:15.000Z</time>
      </trkpt>
      <trkpt lat="43.29622" lon="2.25241">
        <ele>240.6</ele>
        <time>2022-03-06T07:57:16.000Z</time>
      </trkpt>
      <trkpt lat="43.2962" lon="2.25241">
        <ele>240.6</ele>
        <time>2022-03-06T07:57:17.000Z</time>
      </trkpt>
      <trkpt lat="43.29619" lon="2.25241">
        <ele>240.6</ele>
        <time>2022-03-06T07:57:18.000Z</time>
      </trkpt>
      <trkpt lat="43.29618" lon="2.25242">
        <ele>240.6</ele>
        <time>2022-03-06T07:57:19.000Z</time>
      </trkpt>
      <trkpt lat="43.29616" lon="2.25242">
        <ele>240.5</ele>
        <time>2022-03-06T07:57:20.000Z</time>
      </trkpt>
      <trkpt lat="43.29615" lon="2.25242">
        <ele>240.5</ele>
        <time>2022-03-06T07:57:21.000Z</time>
      </trkpt>
      <trkpt lat="43.29614" lon="2.25242">
        <ele>240.5</ele>
        <time>2022-03-06T07:57:22.000Z</time>
      </trkpt>
      <trkpt lat="43.29614" lon="2.25243">
        <ele>240.5</ele>
        <time>2022-03-06T07:57:23.000Z</time>
      </trkpt>
      <trkpt lat="43.29613" lon="2.25243">
        <ele>240.5</ele>
        <time>2022-03-06T07:57:24.000Z</time>
      </trkpt>
      <trkpt lat="43.29613" lon="2.25242">
        <ele>240.5</ele>
        <time>2022-03-06T07:57:25.000Z</time>
      </trkpt>
      <trkpt lat="43.29613" lon="2.25242">
        <ele>240.5</ele>
        <time>2022-03-06T07:57:26.000Z</time>
      </trkpt>
      <trkpt lat="43.29613" lon="2.25242">
        <ele>240.5</ele>
        <time>2022-03-06T07:57:27.000Z</time>
      </trkpt>
      <trkpt lat="43.29613" lon="2.25242">
        <ele>240.5</ele>
        <time>2022-03-06T07:57:28.000Z</time>
      </trkpt>
      <trkpt lat="43.29613" lon="2.25242">
        <ele>240.5</ele>
        <time>2022-03-06T07:57:29.000Z</time>
      </trkpt>
      <trkpt lat="43.29613" lon="2.25242">
        <ele>240.5</ele>
        <time>2022-03-06T07:57:30.000Z</time>
      </trkpt>
      <trkpt lat="43.29612" lon="2.25242">
        <ele>240.5</ele>
        <time>2022-03-06T07:57:31.000Z</time>
      </trkpt>
      <trkpt lat="43.29612" lon="2.25242">
        <ele>240.5</ele>
        <time>2022-03-06T07:57:32.000Z</time>
      </trkpt>
      <trkpt lat="43.29612" lon="2.25242">
        <ele>240.5</ele>
        <time>2022-03-06T07:57:33.000Z</time>
      </trkpt>
      <trkpt lat="43.29612" lon="2.25242">
        <ele>240.5</ele>
        <time>2022-03-06T07:57:34.000Z</time>
      </trkpt>
      <trkpt lat="43.29613" lon="2.25242">
        <ele>240.5</ele>
        <time>2022-03-06T07:57:35.000Z</time>
      </trkpt>
      <trkpt lat="43.29613" lon="2.25242">
        <ele>240.5</ele>
        <time>2022-03-06T07:57:36.000Z</time>
      </trkpt>
      <trkpt lat="43.29614" lon="2.25242">
        <ele>240.5</ele>
        <time>2022-03-06T07:57:37.000Z</time>
      </trkpt>
      <trkpt lat="43.29614" lon="2.25242">
        <ele>240.5</ele>
        <time>2022-03-06T07:57:38.000Z</time>
      </trkpt>
      <trkpt lat="43.29615" lon="2.25242">
        <ele>240.5</ele>
        <time>2022-03-06T07:57:39.000Z</time>
      </trkpt>
      <trkpt lat="43.29617" lon="2.25242">
        <ele>240.5</ele>
        <time>2022-03-06T07:57:40.000Z</time>
      </trkpt>
      <trkpt lat="43.29618" lon="2.25242">
        <ele>240.6</ele>
        <time>2022-03-06T07:57:41.000Z</time>
      </trkpt>
      <trkpt lat="43.2962" lon="2.25242">
        <ele>240.6</ele>
        <time>2022-03-06T07:57:42.000Z</time>
      </trkpt>
      <trkpt lat="43.29622" lon="2.25242">
        <ele>240.6</ele>
        <time>2022-03-06T07:57:43.000Z</time>
      </trkpt>
      <trkpt lat="43.29624" lon="2.25242">
        <ele>240.6</ele>
        <time>2022-03-06T07:57:44.000Z</time>
      </trkpt>
      <trkpt lat="43.29626" lon="2.25243">
        <ele>240.6</ele>
        <time>2022-03-06T07:57:45.000Z</time>
      </trkpt>
      <trkpt lat="43.29629" lon="2.25243">
        <ele>240.7</ele>
        <time>2022-03-06T07:57:46.000Z</time>
      </trkpt>
      <trkpt lat="43.29631" lon="2.25244">
        <ele>240.7</ele>
        <time>2022-03-06T07:57:47.000Z</time>
      </trkpt>
      <trkpt lat="43.29634" lon="2.25244">
        <ele>240.7</ele>
        <time>2022-03-06T07:57:48.000Z</time>
      </trkpt>
      <trkpt lat="43.29637" lon="2.25245">
        <ele>240.7</ele>
        <time>2022-03-06T07:57:49.000Z</time>
      </trkpt>
      <trkpt lat="43.2964" lon="2.25245">
        <ele>240.8</ele>
        <time>2022-03-06T07:57:50.000Z</time>
      </trkpt>
      <trkpt lat="43.29643" lon="2.25246">
        <ele>240.8</ele>
        <time>2022-03-06T07:57:51.000Z</time>
      </trkpt>
      <trkpt lat="43.29645" lon="2.25246">
        <ele>240.8</ele>
        <time>2022-03-06T07:57:52.000Z</time>
      </trkpt>
      <trkpt lat="43.29648" lon="2.25247">
        <ele>240.8</ele>
        <time>2022-03-06T07:57:53.000Z</time>
      </trkpt>
      <trkpt lat="43.29651" lon="2.25247">
        <ele>240.9</ele>
        <time>2022-03-06T07:57:54.000Z</time>
      </trkpt>
      <trkpt lat="43.29653" lon="2.25247">
        <ele>240.9</ele>
        <time>2022-03-06T07:57:55.000Z</time>
      </trkpt>
      <trkpt lat="43.29656" lon="2.25247">
        <ele>240.9</ele>
        <time>2022-03-06T07:57:56.000Z</time>
      </trkpt>
      <trkpt lat="43.29658" lon="2.25246">
        <ele>241</ele>
        <time>2022-03-06T07:57:57.000Z</time>
      </trkpt>
      <trkpt lat="43.2966" lon="2.25246">
        <ele>241</ele>
        <time>2022-03-06T07:57:58.000Z</time>
      </trkpt>
      <trkpt lat="43.29663" lon="2.25245">
        <ele>241.1</ele>
        <time>2022-03-06T07:57:59.000Z</time>
      </trkpt>
      <trkpt lat="43.29665" lon="2.25244">
        <ele>241.1</ele>
        <time>2022-03-06T07:58:00.000Z</time>
      </trkpt>
      <trkpt lat="43.29667" lon="2.25243">
        <ele>241.2</ele>
        <time>2022-03-06T07:58:01.000Z</time>
      </trkpt>
      <trkpt lat="43.2967" lon="2.25242">
        <ele>241.2</ele>
        <time>2022-03-06T07:58:02.000Z</time>
      </trkpt>
      <trkpt lat="43.29672" lon="2.25241">
        <ele>241.2</ele>
        <time>2022-03-06T07:58:03.000Z</time>
      </trkpt>
      <trkpt lat="43.29674" lon="2.2524">
        <ele>241.3</ele>
        <time>2022-03-06T07:58:04.000Z</time>
      </trkpt>
      <trkpt lat="43.29677" lon="2.25239">
        <ele>241.3</ele>
        <time>2022-03-06T07:58:05.000Z</time>
      </trkpt>
      <trkpt lat="43.29679" lon="2.25237">
        <ele>241.3</ele>
        <time>2022-03-06T07:58:06.000Z</time>
      </trkpt>
      <trkpt lat="43.29681" lon="2.25236">
        <ele>241.4</ele>
        <time>2022-03-06T07:58:07.000Z</time>
      </trkpt>
      <trkpt lat="43.29683" lon="2.25234">
        <ele>241.4</ele>
        <time>2022-03-06T07:58:08.000Z</time>
      </trkpt>
      <trkpt lat="43.29685" lon="2.25232">
        <ele>241.5</ele>
        <time>2022-03-06T07:58:09.000Z</time>
      </trkpt>
      <trkpt lat="43.29687" lon="2.2523">
        <ele>241.5</ele>
        <time>2022-03-06T07:58:10.000Z</time>
      </trkpt>
      <trkpt lat="43.29689" lon="2.25228">
        <ele>241.6</ele>
        <time>2022-03-06T07:58:11.000Z</time>
      </trkpt>
      <trkpt lat="43.2969" lon="2.25226">
        <ele>241.7</ele>
        <time>2022-03-06T07:58:12.000Z</time>
      </trkpt>
      <trkpt lat="43.29692" lon="2.25223">
        <ele>241.7</ele>
        <time>2022-03-06T07:58:13.000Z</time>
      </trkpt>
      <trkpt lat="43.29693" lon="2.2522">
        <ele>241.8</ele>
        <time>2022-03-06T07:58:14.000Z</time>
      </trkpt>
      <trkpt lat="43.29694" lon="2.25217">
        <ele>241.9</ele>
        <time>2022-03-06T07:58:15.000Z</time>
      </trkpt>
      <trkpt lat="43.29695" lon="2.25213">
        <ele>242</ele>
        <time>2022-03-06T07:58:16.000Z</time>
      </trkpt>
      <trkpt lat="43.29696" lon="2.2521">
        <ele>242.1</ele>
        <time>2022-03-06T07:58:17.000Z</time>
      </trkpt>
      <trkpt lat="43.29696" lon="2.25207">
        <ele>242.2</ele>
        <time>2022-03-06T07:58:18.000Z</time>
      </trkpt>
      <trkpt lat="43.29698" lon="2.25204">
        <ele>242.3</ele>
        <time>2022-03-06T07:58:19.000Z</time>
      </trkpt>
      <trkpt lat="43.29699" lon="2.25201">
        <ele>242.4</ele>
        <time>2022-03-06T07:58:20.000Z</time>
      </trkpt>
      <trkpt lat="43.297" lon="2.25198">
        <ele>242.5</ele>
        <time>2022-03-06T07:58:21.000Z</time>
      </trkpt>
      <trkpt lat="43.29701" lon="2.25195">
        <ele>242.6</ele>
        <time>2022-03-06T07:58:22.000Z</time>
      </trkpt>
      <trkpt lat="43.29703" lon="2.25193">
        <ele>242.7</ele>
        <time>2022-03-06T07:58:23.000Z</time>
      </trkpt>
      <trkpt lat="43.29705" lon="2.2519">
        <ele>242.8</ele>
        <time>2022-03-06T07:58:24.000Z</time>
      </trkpt>
      <trkpt lat="43.29706" lon="2.25188">
        <ele>242.8</ele>
        <time>2022-03-06T07:58:25.000Z</time>
      </trkpt>
      <trkpt lat="43.29708" lon="2.25186">
        <ele>242.9</ele>
        <time>2022-03-06T07:58:26.000Z</time>
      </trkpt>
      <trkpt lat="43.2971" lon="2.25184">
        <ele>243</ele>
        <time>2022-03-06T07:58:27.000Z</time>
      </trkpt>
      <trkpt lat="43.29712" lon="2.25182">
        <ele>243.1</ele>
        <time>2022-03-06T07:58:28.000Z</time>
      </trkpt>
      <trkpt lat="43.29714" lon="2.2518">
        <ele>243.2</ele>
        <time>2022-03-06T07:58:29.000Z</time>
      </trkpt>
      <trkpt lat="43.29716" lon="2.25178">
        <ele>243.2</ele>
        <time>2022-03-06T07:58:30.000Z</time>
      </trkpt>
      <trkpt lat="43.29718" lon="2.25176">
        <ele>243.3</ele>
        <time>2022-03-06T07:58:31.000Z</time>
      </trkpt>
      <trkpt lat="43.2972" lon="2.25175">
        <ele>243.4</ele>
        <time>2022-03-06T07:58:32.000Z</time>
      </trkpt>
      <trkpt lat="43.29722" lon="2.25173">
        <ele>243.5</ele>
        <time>2022-03-06T07:58:33.000Z</time>
      </trkpt>
      <trkpt lat="43.29724" lon="2.25171">
        <ele>243.6</ele>
        <time>2022-03-06T07:58:34.000Z</time>
      </trkpt>
      <trkpt lat="43.29726" lon="2.25169">
        <ele>243.6</ele>
        <time>2022-03-06T07:58:35.000Z</time>
      </trkpt>
      <trkpt lat="43.29727" lon="2.25167">
        <ele>243.7</ele>
        <time>2022-03-06T07:58:36.000Z</time>
      </trkpt>
      <trkpt lat="43.29729" lon="2.25165">
        <ele>243.8</ele>
        <time>2022-03-06T07:58:37.000Z</time>
      </trkpt>
      <trkpt lat="43.29731" lon="2.25163">
        <ele>243.8</ele>
        <time>2022-03-06T07:58:38.000Z</time>
      </trkpt>
      <trkpt lat="43.29733" lon="2.25161">
        <ele>243.9</ele>
        <time>2022-03-06T07:58:39.000Z</time>
      </trkpt>
      <trkpt lat="43.29735" lon="2.25159">
        <ele>243.9</ele>
        <time>2022-03-06T07:58:40.000Z</time>
      </trkpt>
      <trkpt lat="43.29737" lon="2.25157">
        <ele>244</ele>
        <time>2022-03-06T07:58:41.000Z</time>
      </trkpt>
      <trkpt lat="43.29738" lon="2.25155">
        <ele>244</ele>
        <time>2022-03-06T07:58:42.000Z</time>
      </trkpt>
      <trkpt lat="43.2974" lon="2.25153">
        <ele>244.1</ele>
        <time>2022-03-06T07:58:43.000Z</time>
      </trkpt>
      <trkpt lat="43.29742" lon="2.25151">
        <ele>244.1</ele>
        <time>2022-03-06T07:58:44.000Z</time>
      </trkpt>
      <trkpt lat="43.29744" lon="2.25148">
        <ele>244.2</ele>
        <time>2022-03-06T07:58:45.000Z</time>
      </trkpt>
      <trkpt lat="43.29746" lon="2.25146">
        <ele>244.2</ele>
        <time>2022-03-06T07:58:46.000Z</time>
      </trkpt>
      <trkpt lat="43.29747" lon="2.25144">
        <ele>244.3</ele>
        <time>2022-03-06T07:58:47.000Z</time>
      </trkpt>
      <trkpt lat="43.29749" lon="2.25142">
        <ele>244.3</ele>
        <time>2022-03-06T07:58:48.000Z</time>
      </trkpt>
      <trkpt lat="43.29751" lon="2.25139">
        <ele>244.3</ele>
        <time>2022-03-06T07:58:49.000Z</time>
      </trkpt>
      <trkpt lat="43.29753" lon="2.25137">
        <ele>244.4</ele>
        <time>2022-03-06T07:58:50.000Z</time>
      </trkpt>
      <trkpt lat="43.29755" lon="2.25135">
        <ele>244.5</ele>
        <time>2022-03-06T07:58:51.000Z</time>
      </trkpt>
      <trkpt lat="43.29757" lon="2.25132">
        <ele>244.5</ele>
        <time>2022-03-06T07:58:52.000Z</time>
      </trkpt>
      <trkpt lat="43.29759" lon="2.2513">
        <ele>244.6</ele>
        <time>2022-03-06T07:58:53.000Z</time>
      </trkpt>
      <trkpt lat="43.29761" lon="2.25128">
        <ele>244.7</ele>
        <time>2022-03-06T07:58:54.000Z</time>
      </trkpt>
      <trkpt lat="43.29762" lon="2.25125">
        <ele>244.7</ele>
        <time>2022-03-06T07:58:55.000Z</time>
      </trkpt>
      <trkpt lat="43.29764" lon="2.25123">
        <ele>244.8</ele>
        <time>2022-03-06T07:58:56.000Z</time>
      </trkpt>
      <trkpt lat="43.29766" lon="2.2512">
        <ele>244.8</ele>
        <time>2022-03-06T07:58:57.000Z</time>
      </trkpt>
      <trkpt lat="43.29767" lon="2.25118">
        <ele>244.9</ele>
        <time>2022-03-06T07:58:58.000Z</time>
      </trkpt>
      <trkpt lat="43.29769" lon="2.25116">
        <ele>245</ele>
        <time>2022-03-06T07:58:59.000Z</time>
      </trkpt>
      <trkpt lat="43.29771" lon="2.25114">
        <ele>245</ele>
        <time>2022-03-06T07:59:00.000Z</time>
      </trkpt>
      <trkpt lat="43.29773" lon="2.25112">
        <ele>245.1</ele>
        <time>2022-03-06T07:59:01.000Z</time>
      </trkpt>
      <trkpt lat="43.29775" lon="2.2511">
        <ele>245.2</ele>
        <time>2022-03-06T07:59:02.000Z</time>
      </trkpt>
      <trkpt lat="43.29777" lon="2.25108">
        <ele>245.2</ele>
        <time>2022-03-06T07:59:03.000Z</time>
      </trkpt>
      <trkpt lat="43.29779" lon="2.25107">
        <ele>245.3</ele>
        <time>2022-03-06T07:59:04.000Z</time>
      </trkpt>
      <trkpt lat="43.29781" lon="2.25105">
        <ele>245.4</ele>
        <time>2022-03-06T07:59:05.000Z</time>
      </trkpt>
      <trkpt lat="43.29783" lon="2.25103">
        <ele>245.5</ele>
        <time>2022-03-06T07:59:06.000Z</time>
      </trkpt>
      <trkpt lat="43.29785" lon="2.25101">
        <ele>245.5</ele>
        <time>2022-03-06T07:59:07.000Z</time>
      </trkpt>
      <trkpt lat="43.29787" lon="2.25099">
        <ele>245.6</ele>
        <time>2022-03-06T07:59:08.000Z</time>
      </trkpt>
      <trkpt lat="43.29789" lon="2.25097">
        <ele>245.7</ele>
        <time>2022-03-06T07:59:09.000Z</time>
      </trkpt>
      <trkpt lat="43.29791" lon="2.25095">
        <ele>245.8</ele>
        <time>2022-03-06T07:59:10.000Z</time>
      </trkpt>
      <trkpt lat="43.29793" lon="2.25093">
        <ele>245.8</ele>
        <time>2022-03-06T07:59:11.000Z</time>
      </trkpt>
      <trkpt lat="43.29794" lon="2.25091">
        <ele>245.9</ele>
        <time>2022-03-06T07:59:12.000Z</time>
      </trkpt>
      <trkpt lat="43.29796" lon="2.25089">
        <ele>246</ele>
        <time>2022-03-06T07:59:13.000Z</time>
      </trkpt>
      <trkpt lat="43.29798" lon="2.25087">
        <ele>246.1</ele>
        <time>2022-03-06T07:59:14.000Z</time>
      </trkpt>
      <trkpt lat="43.298" lon="2.25085">
        <ele>246.2</ele>
        <time>2022-03-06T07:59:15.000Z</time>
      </trkpt>
      <trkpt lat="43.29801" lon="2.25082">
        <ele>246.2</ele>
        <time>2022-03-06T07:59:16.000Z</time>
      </trkpt>
      <trkpt lat="43.29803" lon="2.2508">
        <ele>246.3</ele>
        <time>2022-03-06T07:59:17.000Z</time>
      </trkpt>
      <trkpt lat="43.29805" lon="2.25078">
        <ele>246.4</ele>
        <time>2022-03-06T07:59:18.000Z</time>
      </trkpt>
      <trkpt lat="43.29806" lon="2.25075">
        <ele>246.5</ele>
        <time>2022-03-06T07:59:19.000Z</time>
      </trkpt>
      <trkpt lat="43.29808" lon="2.25073">
        <ele>246.6</ele>
        <time>2022-03-06T07:59:20.000Z</time>
      </trkpt>
      <trkpt lat="43.2981" lon="2.25071">
        <ele>246.6</ele>
        <time>2022-03-06T07:59:21.000Z</time>
      </trkpt>
      <trkpt lat="43.29811" lon="2.25068">
        <ele>246.7</ele>
        <time>2022-03-06T07:59:22.000Z</time>
      </trkpt>
      <trkpt lat="43.29813" lon="2.25066">
        <ele>246.8</ele>
        <time>2022-03-06T07:59:23.000Z</time>
      </trkpt>
      <trkpt lat="43.29815" lon="2.25063">
        <ele>246.8</ele>
        <time>2022-03-06T07:59:24.000Z</time>
      </trkpt>
      <trkpt lat="43.29817" lon="2.25061">
        <ele>246.9</ele>
        <time>2022-03-06T07:59:25.000Z</time>
      </trkpt>
      <trkpt lat="43.29818" lon="2.25059">
        <ele>247</ele>
        <time>2022-03-06T07:59:26.000Z</time>
      </trkpt>
      <trkpt lat="43.2982" lon="2.25056">
        <ele>247.1</ele>
        <time>2022-03-06T07:59:27.000Z</time>
      </trkpt>
      <trkpt lat="43.29822" lon="2.25054">
        <ele>247.1</ele>
        <time>2022-03-06T07:59:28.000Z</time>
      </trkpt>
      <trkpt lat="43.29823" lon="2.25051">
        <ele>247.2</ele>
        <time>2022-03-06T07:59:29.000Z</time>
      </trkpt>
      <trkpt lat="43.29825" lon="2.25049">
        <ele>247.3</ele>
        <time>2022-03-06T07:59:30.000Z</time>
      </trkpt>
      <trkpt lat="43.29827" lon="2.25047">
        <ele>247.3</ele>
        <time>2022-03-06T07:59:31.000Z</time>
      </trkpt>
      <trkpt lat="43.29828" lon="2.25044">
        <ele>247.4</ele>
        <time>2022-03-06T07:59:32.000Z</time>
      </trkpt>
      <trkpt lat="43.2983" lon="2.25042">
        <ele>247.4</ele>
        <time>2022-03-06T07:59:33.000Z</time>
      </trkpt>
      <trkpt lat="43.29832" lon="2.2504">
        <ele>247.5</ele>
        <time>2022-03-06T07:59:34.000Z</time>
      </trkpt>
      <trkpt lat="43.29834" lon="2.25037">
        <ele>247.6</ele>
        <time>2022-03-06T07:59:35.000Z</time>
      </trkpt>
      <trkpt lat="43.29835" lon="2.25035">
        <ele>247.6</ele>
        <time>2022-03-06T07:59:36.000Z</time>
      </trkpt>
      <trkpt lat="43.29837" lon="2.25033">
        <ele>247.7</ele>
        <time>2022-03-06T07:59:37.000Z</time>
      </trkpt>
      <trkpt lat="43.29839" lon="2.2503">
        <ele>247.7</ele>
        <time>2022-03-06T07:59:38.000Z</time>
      </trkpt>
      <trkpt lat="43.29841" lon="2.25028">
        <ele>247.7</ele>
        <time>2022-03-06T07:59:39.000Z</time>
      </trkpt>
      <trkpt lat="43.29842" lon="2.25026">
        <ele>247.8</ele>
        <time>2022-03-06T07:59:40.000Z</time>
      </trkpt>
      <trkpt lat="43.29844" lon="2.25024">
        <ele>247.8</ele>
        <time>2022-03-06T07:59:41.000Z</time>
      </trkpt>
      <trkpt lat="43.29846" lon="2.25021">
        <ele>247.9</ele>
        <time>2022-03-06T07:59:42.000Z</time>
      </trkpt>
      <trkpt lat="43.29848" lon="2.25019">
        <ele>247.9</ele>
        <time>2022-03-06T07:59:43.000Z</time>
      </trkpt>
      <trkpt lat="43.29849" lon="2.25017">
        <ele>248</ele>
        <time>2022-03-06T07:59:44.000Z</time>
      </trkpt>
      <trkpt lat="43.29851" lon="2.25015">
        <ele>248</ele>
        <time>2022-03-06T07:59:45.000Z</time>
      </trkpt>
      <trkpt lat="43.29853" lon="2.25013">
        <ele>248.1</ele>
        <time>2022-03-06T07:59:46.000Z</time>
      </trkpt>
      <trkpt lat="43.29854" lon="2.25011">
        <ele>248.1</ele>
        <time>2022-03-06T07:59:47.000Z</time>
      </trkpt>
      <trkpt lat="43.29856" lon="2.25008">
        <ele>248.2</ele>
        <time>2022-03-06T07:59:48.000Z</time>
      </trkpt>
      <trkpt lat="43.29858" lon="2.25006">
        <ele>248.2</ele>
        <time>2022-03-06T07:59:49.000Z</time>
      </trkpt>
      <trkpt lat="43.2986" lon="2.25004">
        <ele>248.3</ele>
        <time>2022-03-06T07:59:50.000Z</time>
      </trkpt>
      <trkpt lat="43.29861" lon="2.25002">
        <ele>248.3</ele>
        <time>2022-03-06T07:59:51.000Z</time>
      </trkpt>
      <trkpt lat="43.29863" lon="2.25">
        <ele>248.4</ele>
        <time>2022-03-06T07:59:52.000Z</time>
      </trkpt>
      <trkpt lat="43.29865" lon="2.24998">
        <ele>248.4</ele>
        <time>2022-03-06T07:59:53.000Z</time>
      </trkpt>
      <trkpt lat="43.29866" lon="2.24996">
        <ele>248.5</ele>
        <time>2022-03-06T07:59:54.000Z</time>
      </trkpt>
      <trkpt lat="43.29868" lon="2.24994">
        <ele>248.5</ele>
        <time>2022-03-06T07:59:55.000Z</time>
      </trkpt>
      <trkpt lat="43.2987" lon="2.24992">
        <ele>248.6</ele>
        <time>2022-03-06T07:59:56.000Z</time>
      </trkpt>
      <trkpt lat="43.29871" lon="2.2499">
        <ele>248.6</ele>
        <time>2022-03-06T07:59:57.000Z</time>
      </trkpt>
      <trkpt lat="43.29873" lon="2.24988">
        <ele>248.7</ele>
        <time>2022-03-06T07:59:58.000Z</time>
      </trkpt>
      <trkpt lat="43.29875" lon="2.24986">
        <ele>248.8</ele>
        <time>2022-03-06T07:59:59.000Z</time>
      </trkpt>
      <trkpt lat="43.29876" lon="2.24984">
        <ele>248.8</ele>
        <time>2022-03-06T08:00:00.000Z</time>
      </trkpt>
      <trkpt lat="43.29878" lon="2.24982">
        <ele>248.9</ele>
        <time>2022-03-06T08:00:01.000Z</time>
      </trkpt>
      <trkpt lat="43.2988" lon="2.2498">
        <ele>248.9</ele>
        <time>2022-03-06T08:00:02.000Z</time>
      </trkpt>
      <trkpt lat="43.29881" lon="2.24978">
        <ele>249</ele>
        <time>2022-03-06T08:00:03.000Z</time>
      </trkpt>
      <trkpt lat="43.29883" lon="2.24976">
        <ele>249.1</ele>
        <time>2022-03-06T08:00:04.000Z</time>
      </trkpt>
      <trkpt lat="43.29884" lon="2.24974">
        <ele>249.1</ele>
        <time>2022-03-06T08:00:05.000Z</time>
      </trkpt>
      <trkpt lat="43.29886" lon="2.24972">
        <ele>249.2</ele>
        <time>2022-03-06T08:00:06.000Z</time>
      </trkpt>
      <trkpt lat="43.29888" lon="2.24969">
        <ele>249.3</ele>
        <time>2022-03-06T08:00:07.000Z</time>
      </trkpt>
      <trkpt lat="43.29889" lon="2.24967">
        <ele>249.3</ele>
        <time>2022-03-06T08:00:08.000Z</time>
      </trkpt>
      <trkpt lat="43.29891" lon="2.24965">
        <ele>249.4</ele>
        <time>2022-03-06T08:00:09.000Z</time>
      </trkpt>
      <trkpt lat="43.29893" lon="2.24963">
        <ele>249.5</ele>
        <time>2022-03-06T08:00:10.000Z</time>
      </trkpt>
      <trkpt lat="43.29895" lon="2.24961">
        <ele>249.5</ele>
        <time>2022-03-06T08:00:11.000Z</time>
      </trkpt>
      <trkpt lat="43.29896" lon="2.24959">
        <ele>249.6</ele>
        <time>2022-03-06T08:00:12.000Z</time>
      </trkpt>
      <trkpt lat="43.29898" lon="2.24956">
        <ele>249.7</ele>
        <time>2022-03-06T08:00:13.000Z</time>
      </trkpt>
      <trkpt lat="43.299" lon="2.24954">
        <ele>249.8</ele>
        <time>2022-03-06T08:00:14.000Z</time>
      </trkpt>
      <trkpt lat="43.29901" lon="2.24952">
        <ele>249.9</ele>
        <time>2022-03-06T08:00:15.000Z</time>
      </trkpt>
      <trkpt lat="43.29903" lon="2.24949">
        <ele>250</ele>
        <time>2022-03-06T08:00:16.000Z</time>
      </trkpt>
      <trkpt lat="43.29905" lon="2.24947">
        <ele>250</ele>
        <time>2022-03-06T08:00:17.000Z</time>
      </trkpt>
      <trkpt lat="43.29907" lon="2.24945">
        <ele>250.1</ele>
        <time>2022-03-06T08:00:18.000Z</time>
      </trkpt>
      <trkpt lat="43.29908" lon="2.24942">
        <ele>250.2</ele>
        <time>2022-03-06T08:00:19.000Z</time>
      </trkpt>
      <trkpt lat="43.2991" lon="2.2494">
        <ele>250.3</ele>
        <time>2022-03-06T08:00:20.000Z</time>
      </trkpt>
      <trkpt lat="43.29912" lon="2.24937">
        <ele>250.4</ele>
        <time>2022-03-06T08:00:21.000Z</time>
      </trkpt>
      <trkpt lat="43.29913" lon="2.24935">
        <ele>250.5</ele>
        <time>2022-03-06T08:00:22.000Z</time>
      </trkpt>
      <trkpt lat="43.29915" lon="2.24932">
        <ele>250.6</ele>
        <time>2022-03-06T08:00:23.000Z</time>
      </trkpt>
      <trkpt lat="43.29916" lon="2.2493">
        <ele>250.7</ele>
        <time>2022-03-06T08:00:24.000Z</time>
      </trkpt>
      <trkpt lat="43.29918" lon="2.24927">
        <ele>250.8</ele>
        <time>2022-03-06T08:00:25.000Z</time>
      </trkpt>
      <trkpt lat="43.2992" lon="2.24925">
        <ele>250.9</ele>
        <time>2022-03-06T08:00:26.000Z</time>
      </trkpt>
      <trkpt lat="43.29921" lon="2.24922">
        <ele>251.1</ele>
        <time>2022-03-06T08:00:27.000Z</time>
      </trkpt>
      <trkpt lat="43.29923" lon="2.2492">
        <ele>251.2</ele>
        <time>2022-03-06T08:00:28.000Z</time>
      </trkpt>
      <trkpt lat="43.29924" lon="2.24918">
        <ele>251.3</ele>
        <time>2022-03-06T08:00:29.000Z</time>
      </trkpt>
      <trkpt lat="43.29926" lon="2.24915">
        <ele>251.5</ele>
        <time>2022-03-06T08:00:30.000Z</time>
      </trkpt>
      <trkpt lat="43.29927" lon="2.24913">
        <ele>251.6</ele>
        <time>2022-03-06T08:00:31.000Z</time>
      </trkpt>
      <trkpt lat="43.29928" lon="2.2491">
        <ele>251.8</ele>
        <time>2022-03-06T08:00:32.000Z</time>
      </trkpt>
      <trkpt lat="43.2993" lon="2.24908">
        <ele>251.9</ele>
        <time>2022-03-06T08:00:33.000Z</time>
      </trkpt>
      <trkpt lat="43.29931" lon="2.24905">
        <ele>252.1</ele>
        <time>2022-03-06T08:00:34.000Z</time>
      </trkpt>
      <trkpt lat="43.29933" lon="2.24903">
        <ele>252.2</ele>
        <time>2022-03-06T08:00:35.000Z</time>
      </trkpt>
      <trkpt lat="43.29934" lon="2.249">
        <ele>252.4</ele>
        <time>2022-03-06T08:00:36.000Z</time>
      </trkpt>
      <trkpt lat="43.29936" lon="2.24898">
        <ele>252.5</ele>
        <time>2022-03-06T08:00:37.000Z</time>
      </trkpt>
      <trkpt lat="43.29937" lon="2.24895">
        <ele>252.6</ele>
        <time>2022-03-06T08:00:38.000Z</time>
      </trkpt>
      <trkpt lat="43.29939" lon="2.24893">
        <ele>252.8</ele>
        <time>2022-03-06T08:00:39.000Z</time>
      </trkpt>
      <trkpt lat="43.2994" lon="2.2489">
        <ele>252.9</ele>
        <time>2022-03-06T08:00:40.000Z</time>
      </trkpt>
      <trkpt lat="43.29942" lon="2.24888">
        <ele>253</ele>
        <time>2022-03-06T08:00:41.000Z</time>
      </trkpt>
      <trkpt lat="43.29943" lon="2.24885">
        <ele>253.2</ele>
        <time>2022-03-06T08:00:42.000Z</time>
      </trkpt>
      <trkpt lat="43.29945" lon="2.24883">
        <ele>253.3</ele>
        <time>2022-03-06T08:00:43.000Z</time>
      </trkpt>
      <trkpt lat="43.29946" lon="2.2488">
        <ele>253.4</ele>
        <time>2022-03-06T08:00:44.000Z</time>
      </trkpt>
      <trkpt lat="43.29947" lon="2.24878">
        <ele>253.5</ele>
        <time>2022-03-06T08:00:45.000Z</time>
      </trkpt>
      <trkpt lat="43.29949" lon="2.24875">
        <ele>253.7</ele>
        <time>2022-03-06T08:00:46.000Z</time>
      </trkpt>
      <trkpt lat="43.2995" lon="2.24873">
        <ele>253.8</ele>
        <time>2022-03-06T08:00:47.000Z</time>
      </trkpt>
      <trkpt lat="43.29952" lon="2.2487">
        <ele>253.9</ele>
        <time>2022-03-06T08:00:48.000Z</time>
      </trkpt>
      <trkpt lat="43.29953" lon="2.24868">
        <ele>254</ele>
        <time>2022-03-06T08:00:49.000Z</time>
      </trkpt>
      <trkpt lat="43.29954" lon="2.24866">
        <ele>254.1</ele>
        <time>2022-03-06T08:00:50.000Z</time>
      </trkpt>
      <trkpt lat="43.29956" lon="2.24863">
        <ele>254.2</ele>
        <time>2022-03-06T08:00:51.000Z</time>
      </trkpt>
      <trkpt lat="43.29957" lon="2.24861">
        <ele>254.3</ele>
        <time>2022-03-06T08:00:52.000Z</time>
      </trkpt>
      <trkpt lat="43.29959" lon="2.24859">
        <ele>254.4</ele>
        <time>2022-03-06T08:00:53.000Z</time>
      </trkpt>
      <trkpt lat="43.2996" lon="2.24856">
        <ele>254.5</ele>
        <time>2022-03-06T08:00:54.000Z</time>
      </trkpt>
      <trkpt lat="43.29962" lon="2.24854">
        <ele>254.6</ele>
        <time>2022-03-06T08:00:55.000Z</time>
      </trkpt>
      <trkpt lat="43.29963" lon="2.24852">
        <ele>254.7</ele>
        <time>2022-03-06T08:00:56.000Z</time>
      </trkpt>
      <trkpt lat="43.29965" lon="2.24849">
        <ele>254.8</ele>
        <time>2022-03-06T08:00:57.000Z</time>
      </trkpt>
      <trkpt lat="43.29966" lon="2.24847">
        <ele>254.9</ele>
        <time>2022-03-06T08:00:58.000Z</time>
      </trkpt>
      <trkpt lat="43.29968" lon="2.24845">
        <ele>255</ele>
        <time>2022-03-06T08:00:59.000Z</time>
      </trkpt>
      <trkpt lat="43.2997" lon="2.24843">
        <ele>255.1</ele>
        <time>2022-03-06T08:01:00.000Z</time>
      </trkpt>
      <trkpt lat="43.29971" lon="2.2484">
        <ele>255.2</ele>
        <time>2022-03-06T08:01:01.000Z</time>
      </trkpt>
      <trkpt lat="43.29973" lon="2.24838">
        <ele>255.3</ele>
        <time>2022-03-06T08:01:02.000Z</time>
      </trkpt>
      <trkpt lat="43.29975" lon="2.24836">
        <ele>255.4</ele>
        <time>2022-03-06T08:01:03.000Z</time>
      </trkpt>
      <trkpt lat="43.29977" lon="2.24834">
        <ele>255.4</ele>
        <time>2022-03-06T08:01:04.000Z</time>
      </trkpt>
      <trkpt lat="43.29979" lon="2.24831">
        <ele>255.5</ele>
        <time>2022-03-06T08:01:05.000Z</time>
      </trkpt>
      <trkpt lat="43.29981" lon="2.24829">
        <ele>255.5</ele>
        <time>2022-03-06T08:01:06.000Z</time>
      </trkpt>
      <trkpt lat="43.29983" lon="2.24827">
        <ele>255.6</ele>
        <time>2022-03-06T08:01:07.000Z</time>
      </trkpt>
      <trkpt lat="43.29985" lon="2.24825">
        <ele>255.6</ele>
        <time>2022-03-06T08:01:08.000Z</time>
      </trkpt>
      <trkpt lat="43.29986" lon="2.24822">
        <ele>255.7</ele>
        <time>2022-03-06T08:01:09.000Z</time>
      </trkpt>
      <trkpt lat="43.29988" lon="2.2482">
        <ele>255.7</ele>
        <time>2022-03-06T08:01:10.000Z</time>
      </trkpt>
      <trkpt lat="43.29989" lon="2.24818">
        <ele>255.7</ele>
        <time>2022-03-06T08:01:11.000Z</time>
      </trkpt>
      <trkpt lat="43.2999" lon="2.24816">
        <ele>255.8</ele>
        <time>2022-03-06T08:01:12.000Z</time>
      </trkpt>
      <trkpt lat="43.29991" lon="2.24813">
        <ele>255.8</ele>
        <time>2022-03-06T08:01:13.000Z</time>
      </trkpt>
      <trkpt lat="43.29992" lon="2.24811">
        <ele>255.8</ele>
        <time>2022-03-06T08:01:14.000Z</time>
      </trkpt>
      <trkpt lat="43.29993" lon="2.24809">
        <ele>255.8</ele>
        <time>2022-03-06T08:01:15.000Z</time>
      </trkpt>
      <trkpt lat="43.29994" lon="2.24807">
        <ele>255.8</ele>
        <time>2022-03-06T08:01:16.000Z</time>
      </trkpt>
      <trkpt lat="43.29995" lon="2.24805">
        <ele>255.9</ele>
        <time>2022-03-06T08:01:17.000Z</time>
      </trkpt>
      <trkpt lat="43.29995" lon="2.24804">
        <ele>255.9</ele>
        <time>2022-03-06T08:01:18.000Z</time>
      </trkpt>
      <trkpt lat="43.29996" lon="2.24802">
        <ele>255.9</ele>
        <time>2022-03-06T08:01:19.000Z</time>
      </trkpt>
      <trkpt lat="43.29997" lon="2.248">
        <ele>255.9</ele>
        <time>2022-03-06T08:01:20.000Z</time>
      </trkpt>
      <trkpt lat="43.29997" lon="2.24799">
        <ele>255.9</ele>
        <time>2022-03-06T08:01:21.000Z</time>
      </trkpt>
      <trkpt lat="43.29998" lon="2.24797">
        <ele>255.9</ele>
        <time>2022-03-06T08:01:22.000Z</time>
      </trkpt>
      <trkpt lat="43.29998" lon="2.24796">
        <ele>256</ele>
        <time>2022-03-06T08:01:23.000Z</time>
      </trkpt>
      <trkpt lat="43.29999" lon="2.24794">
        <ele>256</ele>
        <time>2022-03-06T08:01:24.000Z</time>
      </trkpt>
      <trkpt lat="43.3" lon="2.24792">
        <ele>256</ele>
        <time>2022-03-06T08:01:25.000Z</time>
      </trkpt>
      <trkpt lat="43.3" lon="2.24791">
        <ele>256</ele>
        <time>2022-03-06T08:01:26.000Z</time>
      </trkpt>
      <trkpt lat="43.30001" lon="2.24789">
        <ele>256</ele>
        <time>2022-03-06T08:01:27.000Z</time>
      </trkpt>
      <trkpt lat="43.30001" lon="2.24787">
        <ele>256</ele>
        <time>2022-03-06T08:01:28.000Z</time>
      </trkpt>
      <trkpt lat="43.30001" lon="2.24786">
        <ele>256</ele>
        <time>2022-03-06T08:01:29.000Z</time>
      </trkpt>
      <trkpt lat="43.30002" lon="2.24784">
        <ele>256</ele>
        <time>2022-03-06T08:01:30.000Z</time>
      </trkpt>
      <trkpt lat="43.30002" lon="2.24782">
        <ele>256</ele>
        <time>2022-03-06T08:01:31.000Z</time>
      </trkpt>
      <trkpt lat="43.30002" lon="2.24781">
        <ele>256</ele>
        <time>2022-03-06T08:01:32.000Z</time>
      </trkpt>
      <trkpt lat="43.30002" lon="2.24779">
        <ele>256</ele>
        <time>2022-03-06T08:01:33.000Z</time>
      </trkpt>
      <trkpt lat="43.30002" lon="2.24778">
        <ele>256</ele>
        <time>2022-03-06T08:01:34.000Z</time>
      </trkpt>
      <trkpt lat="43.30001" lon="2.24777">
        <ele>256</ele>
        <time>2022-03-06T08:01:35.000Z</time>
      </trkpt>
      <trkpt lat="43.30001" lon="2.24775">
        <ele>256</ele>
        <time>2022-03-06T08:01:36.000Z</time>
      </trkpt>
      <trkpt lat="43.30001" lon="2.24774">
        <ele>256</ele>
        <time>2022-03-06T08:01:37.000Z</time>
      </trkpt>
      <trkpt lat="43.3" lon="2.24773">
        <ele>256</ele>
        <time>2022-03-06T08:01:38.000Z</time>
      </trkpt>
      <trkpt lat="43.29999" lon="2.24772">
        <ele>256</ele>
        <time>2022-03-06T08:01:39.000Z</time>
      </trkpt>
      <trkpt lat="43.29998" lon="2.24771">
        <ele>256</ele>
        <time>2022-03-06T08:01:40.000Z</time>
      </trkpt>
      <trkpt lat="43.29998" lon="2.2477">
        <ele>255.9</ele>
        <time>2022-03-06T08:01:41.000Z</time>
      </trkpt>
      <trkpt lat="43.29997" lon="2.2477">
        <ele>255.9</ele>
        <time>2022-03-06T08:01:42.000Z</time>
      </trkpt>
      <trkpt lat="43.29997" lon="2.24769">
        <ele>255.9</ele>
        <time>2022-03-06T08:01:43.000Z</time>
      </trkpt>
      <trkpt lat="43.29997" lon="2.24769">
        <ele>255.9</ele>
        <time>2022-03-06T08:01:44.000Z</time>
      </trkpt>
      <trkpt lat="43.29997" lon="2.24769">
        <ele>255.9</ele>
        <time>2022-03-06T08:01:45.000Z</time>
      </trkpt>
      <trkpt lat="43.29997" lon="2.2477">
        <ele>255.9</ele>
        <time>2022-03-06T08:01:46.000Z</time>
      </trkpt>
      <trkpt lat="43.29997" lon="2.2477">
        <ele>255.9</ele>
        <time>2022-03-06T08:01:47.000Z</time>
      </trkpt>
      <trkpt lat="43.29997" lon="2.2477">
        <ele>255.9</ele>
        <time>2022-03-06T08:01:48.000Z</time>
      </trkpt>
      <trkpt lat="43.29997" lon="2.2477">
        <ele>255.9</ele>
        <time>2022-03-06T08:01:49.000Z</time>
      </trkpt>
      <trkpt lat="43.29997" lon="2.2477">
        <ele>255.9</ele>
        <time>2022-03-06T08:01:50.000Z</time>
      </trkpt>
      <trkpt lat="43.29997" lon="2.2477">
        <ele>255.9</ele>
        <time>2022-03-06T08:01:51.000Z</time>
      </trkpt>
      <trkpt lat="43.29997" lon="2.24769">
        <ele>255.9</ele>
        <time>2022-03-06T08:01:52.000Z</time>
      </trkpt>
      <trkpt lat="43.29997" lon="2.24769">
        <ele>255.9</ele>
        <time>2022-03-06T08:01:53.000Z</time>
      </trkpt>
      <trkpt lat="43.29997" lon="2.24769">
        <ele>255.9</ele>
        <time>2022-03-06T08:01:54.000Z</time>
      </trkpt>
      <trkpt lat="43.29997" lon="2.24769">
        <ele>255.9</ele>
        <time>2022-03-06T08:01:55.000Z</time>
      </trkpt>
      <trkpt lat="43.29997" lon="2.24769">
        <ele>255.9</ele>
        <time>2022-03-06T08:01:56.000Z</time>
      </trkpt>
      <trkpt lat="43.29997" lon="2.24769">
        <ele>255.9</ele>
        <time>2022-03-06T08:01:57.000Z</time>
      </trkpt>
      <trkpt lat="43.29997" lon="2.24769">
        <ele>255.9</ele>
        <time>2022-03-06T08:01:58.000Z</time>
      </trkpt>
      <trkpt lat="43.29998" lon="2.24768">
        <ele>255.9</ele>
        <time>2022-03-06T08:01:59.000Z</time>
      </trkpt>
      <trkpt lat="43.29999" lon="2.24768">
        <ele>256</ele>
        <time>2022-03-06T08:02:00.000Z</time>
      </trkpt>
      <trkpt lat="43.3" lon="2.24767">
        <ele>256</ele>
        <time>2022-03-06T08:02:01.000Z</time>
      </trkpt>
      <trkpt lat="43.30001" lon="2.24767">
        <ele>256</ele>
        <time>2022-03-06T08:02:02.000Z</time>
      </trkpt>
      <trkpt lat="43.30002" lon="2.24766">
        <ele>256</ele>
        <time>2022-03-06T08:02:03.000Z</time>
      </trkpt>
      <trkpt lat="43.30003" lon="2.24766">
        <ele>256</ele>
        <time>2022-03-06T08:02:04.000Z</time>
      </trkpt>
      <trkpt lat="43.30004" lon="2.24765">
        <ele>256.1</ele>
        <time>2022-03-06T08:02:05.000Z</time>
      </trkpt>
      <trkpt lat="43.30005" lon="2.24764">
        <ele>256.1</ele>
        <time>2022-03-06T08:02:06.000Z</time>
      </trkpt>
      <trkpt lat="43.30006" lon="2.24763">
        <ele>256.1</ele>
        <time>2022-03-06T08:02:07.000Z</time>
      </trkpt>
      <trkpt lat="43.30007" lon="2.24762">
        <ele>256.1</ele>
        <time>2022-03-06T08:02:08.000Z</time>
      </trkpt>
      <trkpt lat="43.30008" lon="2.24761">
        <ele>256.1</ele>
        <time>2022-03-06T08:02:09.000Z</time>
      </trkpt>
      <trkpt lat="43.30009" lon="2.2476">
        <ele>256.1</ele>
        <time>2022-03-06T08:02:10.000Z</time>
      </trkpt>
      <trkpt lat="43.3001" lon="2.24758">
        <ele>256.1</ele>
        <time>2022-03-06T08:02:11.000Z</time>
      </trkpt>
      <trkpt lat="43.30011" lon="2.24757">
        <ele>256.1</ele>
        <time>2022-03-06T08:02:12.000Z</time>
      </trkpt>
      <trkpt lat="43.30011" lon="2.24755">
        <ele>256.2</ele>
        <time>2022-03-06T08:02:13.000Z</time>
      </trkpt>
      <trkpt lat="43.30012" lon="2.24754">
        <ele>256.2</ele>
        <time>2022-03-06T08:02:14.000Z</time>
      </trkpt>
      <trkpt lat="43.30013" lon="2.24752">
        <ele>256.2</ele>
        <time>2022-03-06T08:02:15.000Z</time>
      </trkpt>
      <trkpt lat="43.30013" lon="2.24751">
        <ele>256.2</ele>
        <time>2022-03-06T08:02:16.000Z</time>
      </trkpt>
      <trkpt lat="43.30014" lon="2.24749">
        <ele>256.2</ele>
        <time>2022-03-06T08:02:17.000Z</time>
      </trkpt>
      <trkpt lat="43.30014" lon="2.24747">
        <ele>256.2</ele>
        <time>2022-03-06T08:02:18.000Z</time>
      </trkpt>
      <trkpt lat="43.30015" lon="2.24746">
        <ele>256.2</ele>
        <time>2022-03-06T08:02:19.000Z</time>
      </trkpt>
      <trkpt lat="43.30015" lon="2.24744">
        <ele>256.2</ele>
        <time>2022-03-06T08:02:20.000Z</time>
      </trkpt>
      <trkpt lat="43.30016" lon="2.24742">
        <ele>256.3</ele>
        <time>2022-03-06T08:02:21.000Z</time>
      </trkpt>
      <trkpt lat="43.30016" lon="2.2474">
        <ele>256.3</ele>
        <time>2022-03-06T08:02:22.000Z</time>
      </trkpt>
      <trkpt lat="43.30017" lon="2.24739">
        <ele>256.3</ele>
        <time>2022-03-06T08:02:23.000Z</time>
      </trkpt>
      <trkpt lat="43.30018" lon="2.24737">
        <ele>256.3</ele>
        <time>2022-03-06T08:02:24.000Z</time>
      </trkpt>
      <trkpt lat="43.30018" lon="2.24735">
        <ele>256.4</ele>
        <time>2022-03-06T08:02:25.000Z</time>
      </trkpt>
      <trkpt lat="43.30019" lon="2.24733">
        <ele>256.4</ele>
        <time>2022-03-06T08:02:26.000Z</time>
      </trkpt>
      <trkpt lat="43.30019" lon="2.24732">
        <ele>256.4</ele>
        <time>2022-03-06T08:02:27.000Z</time>
      </trkpt>
      <trkpt lat="43.3002" lon="2.2473">
        <ele>256.4</ele>
        <time>2022-03-06T08:02:28.000Z</time>
      </trkpt>
      <trkpt lat="43.3002" lon="2.24728">
        <ele>256.4</ele>
        <time>2022-03-06T08:02:29.000Z</time>
      </trkpt>
      <trkpt lat="43.30021" lon="2.24727">
        <ele>256.5</ele>
        <time>2022-03-06T08:02:30.000Z</time>
      </trkpt>
      <trkpt lat="43.30021" lon="2.24725">
        <ele>256.5</ele>
        <time>2022-03-06T08:02:31.000Z</time>
      </trkpt>
      <trkpt lat="43.30022" lon="2.24723">
        <ele>256.5</ele>
        <time>2022-03-06T08:02:32.000Z</time>
      </trkpt>
      <trkpt lat="43.30023" lon="2.24722">
        <ele>256.5</ele>
        <time>2022-03-06T08:02:33.000Z</time>
      </trkpt>
      <trkpt lat="43.30023" lon="2.2472">
        <ele>256.5</ele>
        <time>2022-03-06T08:02:34.000Z</time>
      </trkpt>
      <trkpt lat="43.30024" lon="2.24719">
        <ele>256.6</ele>
        <time>2022-03-06T08:02:35.000Z</time>
      </trkpt>
      <trkpt lat="43.30024" lon="2.24717">
        <ele>256.6</ele>
        <time>2022-03-06T08:02:36.000Z</time>
      </trkpt>
      <trkpt lat="43.30025" lon="2.24716">
        <ele>256.6</ele>
        <time>2022-03-06T08:02:37.000Z</time>
      </trkpt>
      <trkpt lat="43.30025" lon="2.24714">
        <ele>256.6</ele>
        <time>2022-03-06T08:02:38.000Z</time>
      </trkpt>
      <trkpt lat="43.30026" lon="2.24713">
        <ele>256.6</ele>
        <time>2022-03-06T08:02:39.000Z</time>
      </trkpt>
      <trkpt lat="43.30027" lon="2.24711">
        <ele>256.6</ele>
        <time>2022-03-06T08:02:40.000Z</time>
      </trkpt>
      <trkpt lat="43.30027" lon="2.2471">
        <ele>256.6</ele>
        <time>2022-03-06T08:02:41.000Z</time>
      </trkpt>
      <trkpt lat="43.30028" lon="2.24709">
        <ele>256.7</ele>
        <time>2022-03-06T08:02:42.000Z</time>
      </trkpt>
      <trkpt lat="43.30028" lon="2.24707">
        <ele>256.7</ele>
        <time>2022-03-06T08:02:43.000Z</time>
      </trkpt>
      <trkpt lat="43.30029" lon="2.24706">
        <ele>256.7</ele>
        <time>2022-03-06T08:02:44.000Z</time>
      </trkpt>
      <trkpt lat="43.3003" lon="2.24705">
        <ele>256.7</ele>
        <time>2022-03-06T08:02:45.000Z</time>
      </trkpt>
      <trkpt lat="43.3003" lon="2.24703">
        <ele>256.7</ele>
        <time>2022-03-06T08:02:46.000Z</time>
      </trkpt>
      <trkpt lat="43.30031" lon="2.24702">
        <ele>256.7</ele>
        <time>2022-03-06T08:02:47.000Z</time>
      </trkpt>
      <trkpt lat="43.30031" lon="2.247">
        <ele>256.7</ele>
        <time>2022-03-06T08:02:48.000Z</time>
      </trkpt>
      <trkpt lat="43.30032" lon="2.24699">
        <ele>256.8</ele>
        <time>2022-03-06T08:02:49.000Z</time>
      </trkpt>
      <trkpt lat="43.30032" lon="2.24698">
        <ele>256.8</ele>
        <time>2022-03-06T08:02:50.000Z</time>
      </trkpt>
      <trkpt lat="43.30033" lon="2.24696">
        <ele>256.8</ele>
        <time>2022-03-06T08:02:51.000Z</time>
      </trkpt>
      <trkpt lat="43.30033" lon="2.24694">
        <ele>256.8</ele>
        <time>2022-03-06T08:02:52.000Z</time>
      </trkpt>
      <trkpt lat="43.30034" lon="2.24693">
        <ele>256.8</ele>
        <time>2022-03-06T08:02:53.000Z</time>
      </trkpt>
      <trkpt lat="43.30034" lon="2.24691">
        <ele>256.8</ele>
        <time>2022-03-06T08:02:54.000Z</time>
      </trkpt>
      <trkpt lat="43.30035" lon="2.2469">
        <ele>256.8</ele>
        <time>2022-03-06T08:02:55.000Z</time>
      </trkpt>
      <trkpt lat="43.30036" lon="2.24688">
        <ele>256.9</ele>
        <time>2022-03-06T08:02:56.000Z</time>
      </trkpt>
      <trkpt lat="43.30036" lon="2.24686">
        <ele>256.9</ele>
        <time>2022-03-06T08:02:57.000Z</time>
      </trkpt>
      <trkpt lat="43.30037" lon="2.24684">
        <ele>256.9</ele>
        <time>2022-03-06T08:02:58.000Z</time>
      </trkpt>
      <trkpt lat="43.30037" lon="2.24682">
        <ele>256.9</ele>
        <time>2022-03-06T08:02:59.000Z</time>
      </trkpt>
      <trkpt lat="43.30038" lon="2.2468">
        <ele>256.9</ele>
        <time>2022-03-06T08:03:00.000Z</time>
      </trkpt>
      <trkpt lat="43.30039" lon="2.24678">
        <ele>256.9</ele>
        <time>2022-03-06T08:03:01.000Z</time>
      </trkpt>
      <trkpt lat="43.3004" lon="2.24676">
        <ele>256.9</ele>
        <time>2022-03-06T08:03:02.000Z</time>
      </trkpt>
      <trkpt lat="43.3004" lon="2.24674">
        <ele>257</ele>
        <time>2022-03-06T08:03:03.000Z</time>
      </trkpt>
      <trkpt lat="43.30041" lon="2.24671">
        <ele>257</ele>
        <time>2022-03-06T08:03:04.000Z</time>
      </trkpt>
      <trkpt lat="43.30042" lon="2.24669">
        <ele>257</ele>
        <time>2022-03-06T08:03:05.000Z</time>
      </trkpt>
      <trkpt lat="43.30043" lon="2.24667">
        <ele>257</ele>
        <time>2022-03-06T08:03:06.000Z</time>
      </trkpt>
      <trkpt lat="43.30044" lon="2.24664">
        <ele>257.1</ele>
        <time>2022-03-06T08:03:07.000Z</time>
      </trkpt>
      <trkpt lat="43.30045" lon="2.24662">
        <ele>257.1</ele>
        <time>2022-03-06T08:03:08.000Z</time>
      </trkpt>
      <trkpt lat="43.30046" lon="2.2466">
        <ele>257.2</ele>
        <time>2022-03-06T08:03:09.000Z</time>
      </trkpt>
      <trkpt lat="43.30046" lon="2.24658">
        <ele>257.2</ele>
        <time>2022-03-06T08:03:10.000Z</time>
      </trkpt>
      <trkpt lat="43.30047" lon="2.24656">
        <ele>257.3</ele>
        <time>2022-03-06T08:03:11.000Z</time>
      </trkpt>
      <trkpt lat="43.30048" lon="2.24654">
        <ele>257.3</ele>
        <time>2022-03-06T08:03:12.000Z</time>
      </trkpt>
      <trkpt lat="43.30049" lon="2.24652">
        <ele>257.4</ele>
        <time>2022-03-06T08:03:13.000Z</time>
      </trkpt>
      <trkpt lat="43.30049" lon="2.2465">
        <ele>257.4</ele>
        <time>2022-03-06T08:03:14.000Z</time>
      </trkpt>
      <trkpt lat="43.3005" lon="2.24648">
        <ele>257.5</ele>
        <time>2022-03-06T08:03:15.000Z</time>
      </trkpt>
      <trkpt lat="43.30051" lon="2.24646">
        <ele>257.5</ele>
        <time>2022-03-06T08:03:16.000Z</time>
      </trkpt>
      <trkpt lat="43.30051" lon="2.24643">
        <ele>257.6</ele>
        <time>2022-03-06T08:03:17.000Z</time>
      </trkpt>
      <trkpt lat="43.30051" lon="2.24641">
        <ele>257.7</ele>
        <time>2022-03-06T08:03:18.000Z</time>
      </trkpt>
      <trkpt lat="43.30052" lon="2.24638">
        <ele>257.8</ele>
        <time>2022-03-06T08:03:19.000Z</time>
      </trkpt>
      <trkpt lat="43.30052" lon="2.24635">
        <ele>257.9</ele>
        <time>2022-03-06T08:03:20.000Z</time>
      </trkpt>
      <trkpt lat="43.30052" lon="2.24632">
        <ele>257.9</ele>
        <time>2022-03-06T08:03:21.000Z</time>
      </trkpt>
      <trkpt lat="43.30052" lon="2.24629">
        <ele>258</ele>
        <time>2022-03-06T08:03:22.000Z</time>
      </trkpt>
      <trkpt lat="43.30053" lon="2.24625">
        <ele>258.1</ele>
        <time>2022-03-06T08:03:23.000Z</time>
      </trkpt>
      <trkpt lat="43.30053" lon="2.24622">
        <ele>258.2</ele>
        <time>2022-03-06T08:03:24.000Z</time>
      </trkpt>
      <trkpt lat="43.30053" lon="2.2462">
        <ele>258.3</ele>
        <time>2022-03-06T08:03:25.000Z</time>
      </trkpt>
      <trkpt lat="43.30054" lon="2.24617">
        <ele>258.4</ele>
        <time>2022-03-06T08:03:26.000Z</time>
      </trkpt>
      <trkpt lat="43.30054" lon="2.24614">
        <ele>258.4</ele>
        <time>2022-03-06T08:03:27.000Z</time>
      </trkpt>
      <trkpt lat="43.30054" lon="2.24611">
        <ele>258.5</ele>
        <time>2022-03-06T08:03:28.000Z</time>
      </trkpt>
      <trkpt lat="43.30055" lon="2.24609">
        <ele>258.6</ele>
        <time>2022-03-06T08:03:29.000Z</time>
      </trkpt>
      <trkpt lat="43.30055" lon="2.24606">
        <ele>258.7</ele>
        <time>2022-03-06T08:03:30.000Z</time>
      </trkpt>
      <trkpt lat="43.30056" lon="2.24603">
        <ele>258.8</ele>
        <time>2022-03-06T08:03:31.000Z</time>
      </trkpt>
      <trkpt lat="43.30057" lon="2.246">
        <ele>258.9</ele>
        <time>2022-03-06T08:03:32.000Z</time>
      </trkpt>
      <trkpt lat="43.30057" lon="2.24598">
        <ele>259</ele>
        <time>2022-03-06T08:03:33.000Z</time>
      </trkpt>
      <trkpt lat="43.30058" lon="2.24595">
        <ele>259.1</ele>
        <time>2022-03-06T08:03:34.000Z</time>
      </trkpt>
      <trkpt lat="43.30059" lon="2.24592">
        <ele>259.2</ele>
        <time>2022-03-06T08:03:35.000Z</time>
      </trkpt>
      <trkpt lat="43.3006" lon="2.24589">
        <ele>259.3</ele>
        <time>2022-03-06T08:03:36.000Z</time>
      </trkpt>
      <trkpt lat="43.30061" lon="2.24586">
        <ele>259.4</ele>
        <time>2022-03-06T08:03:37.000Z</time>
      </trkpt>
      <trkpt lat="43.30062" lon="2.24583">
        <ele>259.5</ele>
        <time>2022-03-06T08:03:38.000Z</time>
      </trkpt>
      <trkpt lat="43.30063" lon="2.2458">
        <ele>259.6</ele>
        <time>2022-03-06T08:03:39.000Z</time>
      </trkpt>
      <trkpt lat="43.30064" lon="2.24577">
        <ele>259.6</ele>
        <time>2022-03-06T08:03:40.000Z</time>
      </trkpt>
      <trkpt lat="43.30065" lon="2.24574">
        <ele>259.7</ele>
        <time>2022-03-06T08:03:41.000Z</time>
      </trkpt>
      <trkpt lat="43.30066" lon="2.24571">
        <ele>259.8</ele>
        <time>2022-03-06T08:03:42.000Z</time>
      </trkpt>
      <trkpt lat="43.30067" lon="2.24568">
        <ele>259.9</ele>
        <time>2022-03-06T08:03:43.000Z</time>
      </trkpt>
      <trkpt lat="43.30067" lon="2.24565">
        <ele>259.9</ele>
        <time>2022-03-06T08:03:44.000Z</time>
      </trkpt>
      <trkpt lat="43.30068" lon="2.24562">
        <ele>260</ele>
        <time>2022-03-06T08:03:45.000Z</time>
      </trkpt>
      <trkpt lat="43.30069" lon="2.24559">
        <ele>260.1</ele>
        <time>2022-03-06T08:03:46.000Z</time>
      </trkpt>
      <trkpt lat="43.30069" lon="2.24556">
        <ele>260.1</ele>
        <time>2022-03-06T08:03:47.000Z</time>
      </trkpt>
      <trkpt lat="43.3007" lon="2.24554">
        <ele>260.2</ele>
        <time>2022-03-06T08:03:48.000Z</time>
      </trkpt>
      <trkpt lat="43.3007" lon="2.24551">
        <ele>260.3</ele>
        <time>2022-03-06T08:03:49.000Z</time>
      </trkpt>
      <trkpt lat="43.30071" lon="2.24548">
        <ele>260.4</ele>
        <time>2022-03-06T08:03:50.000Z</time>
      </trkpt>
      <trkpt lat="43.30071" lon="2.24545">
        <ele>260.4</ele>
        <time>2022-03-06T08:03:51.000Z</time>
      </trkpt>
      <trkpt lat="43.30071" lon="2.24543">
        <ele>260.5</ele>
        <time>2022-03-06T08:03:52.000Z</time>
      </trkpt>
      <trkpt lat="43.30072" lon="2.2454">
        <ele>260.5</ele>
        <time>2022-03-06T08:03:53.000Z</time>
      </trkpt>
      <trkpt lat="43.30072" lon="2.24537">
        <ele>260.6</ele>
        <time>2022-03-06T08:03:54.000Z</time>
      </trkpt>
      <trkpt lat="43.30073" lon="2.24534">
        <ele>260.7</ele>
        <time>2022-03-06T08:03:55.000Z</time>
      </trkpt>
      <trkpt lat="43.30073" lon="2.24531">
        <ele>260.8</ele>
        <time>2022-03-06T08:03:56.000Z</time>
      </trkpt>
      <trkpt lat="43.30075" lon="2.24528">
        <ele>260.9</ele>
        <time>2022-03-06T08:03:57.000Z</time>
      </trkpt>
      <trkpt lat="43.30076" lon="2.24525">
        <ele>261</ele>
        <time>2022-03-06T08:03:58.000Z</time>
      </trkpt>
      <trkpt lat="43.30077" lon="2.24522">
        <ele>261.2</ele>
        <time>2022-03-06T08:03:59.000Z</time>
      </trkpt>
      <trkpt lat="43.30078" lon="2.24519">
        <ele>261.3</ele>
        <time>2022-03-06T08:04:00.000Z</time>
      </trkpt>
      <trkpt lat="43.3008" lon="2.24516">
        <ele>261.4</ele>
        <time>2022-03-06T08:04:01.000Z</time>
      </trkpt>
      <trkpt lat="43.30081" lon="2.24512">
        <ele>261.6</ele>
        <time>2022-03-06T08:04:02.000Z</time>
      </trkpt>
      <trkpt lat="43.30082" lon="2.24509">
        <ele>261.7</ele>
        <time>2022-03-06T08:04:03.000Z</time>
      </trkpt>
      <trkpt lat="43.30083" lon="2.24506">
        <ele>261.8</ele>
        <time>2022-03-06T08:04:04.000Z</time>
      </trkpt>
      <trkpt lat="43.30083" lon="2.24502">
        <ele>261.9</ele>
        <time>2022-03-06T08:04:05.000Z</time>
      </trkpt>
      <trkpt lat="43.30084" lon="2.24499">
        <ele>262</ele>
        <time>2022-03-06T08:04:06.000Z</time>
      </trkpt>
      <trkpt lat="43.30084" lon="2.24495">
        <ele>262</ele>
        <time>2022-03-06T08:04:07.000Z</time>
      </trkpt>
      <trkpt lat="43.30084" lon="2.24492">
        <ele>261.9</ele>
        <time>2022-03-06T08:04:08.000Z</time>
      </trkpt>
      <trkpt lat="43.30084" lon="2.2449">
        <ele>261.9</ele>
        <time>2022-03-06T08:04:09.000Z</time>
      </trkpt>
      <trkpt lat="43.30085" lon="2.24488">
        <ele>261.9</ele>
        <time>2022-03-06T08:04:10.000Z</time>
      </trkpt>
      <trkpt lat="43.30085" lon="2.24487">
        <ele>261.9</ele>
        <time>2022-03-06T08:04:11.000Z</time>
      </trkpt>
      <trkpt lat="43.30085" lon="2.24486">
        <ele>261.9</ele>
        <time>2022-03-06T08:04:12.000Z</time>
      </trkpt>
      <trkpt lat="43.30085" lon="2.24486">
        <ele>261.9</ele>
        <time>2022-03-06T08:04:13.000Z</time>
      </trkpt>
      <trkpt lat="43.30085" lon="2.24485">
        <ele>261.8</ele>
        <time>2022-03-06T08:04:14.000Z</time>
      </trkpt>
      <trkpt lat="43.30086" lon="2.24483">
        <ele>261.8</ele>
        <time>2022-03-06T08:04:15.000Z</time>
      </trkpt>
      <trkpt lat="43.30087" lon="2.24481">
        <ele>261.8</ele>
        <time>2022-03-06T08:04:16.000Z</time>
      </trkpt>
      <trkpt lat="43.30087" lon="2.24479">
        <ele>261.8</ele>
        <time>2022-03-06T08:04:17.000Z</time>
      </trkpt>
      <trkpt lat="43.30088" lon="2.24477">
        <ele>261.8</ele>
        <time>2022-03-06T08:04:18.000Z</time>
      </trkpt>
      <trkpt lat="43.30089" lon="2.24475">
        <ele>261.8</ele>
        <time>2022-03-06T08:04:19.000Z</time>
      </trkpt>
      <trkpt lat="43.30091" lon="2.24472">
        <ele>261.8</ele>
        <time>2022-03-06T08:04:20.000Z</time>
      </trkpt>
      <trkpt lat="43.30092" lon="2.24469">
        <ele>261.8</ele>
        <time>2022-03-06T08:04:21.000Z</time>
      </trkpt>
      <trkpt lat="43.30093" lon="2.24466">
        <ele>261.8</ele>
        <time>2022-03-06T08:04:22.000Z</time>
      </trkpt>
      <trkpt lat="43.30094" lon="2.24463">
        <ele>261.7</ele>
        <time>2022-03-06T08:04:23.000Z</time>
      </trkpt>
      <trkpt lat="43.30095" lon="2.24459">
        <ele>261.7</ele>
        <time>2022-03-06T08:04:24.000Z</time>
      </trkpt>
      <trkpt lat="43.30096" lon="2.24456">
        <ele>261.7</ele>
        <time>2022-03-06T08:04:25.000Z</time>
      </trkpt>
      <trkpt lat="43.30096" lon="2.24452">
        <ele>261.7</ele>
        <time>2022-03-06T08:04:26.000Z</time>
      </trkpt>
      <trkpt lat="43.30097" lon="2.24448">
        <ele>261.6</ele>
        <time>2022-03-06T08:04:27.000Z</time>
      </trkpt>
      <trkpt lat="43.30097" lon="2.24444">
        <ele>261.6</ele>
        <time>2022-03-06T08:04:28.000Z</time>
      </trkpt>
      <trkpt lat="43.30098" lon="2.24441">
        <ele>261.6</ele>
        <time>2022-03-06T08:04:29.000Z</time>
      </trkpt>
      <trkpt lat="43.30098" lon="2.24437">
        <ele>261.5</ele>
        <time>2022-03-06T08:04:30.000Z</time>
      </trkpt>
      <trkpt lat="43.30098" lon="2.24434">
        <ele>261.5</ele>
        <time>2022-03-06T08:04:31.000Z</time>
      </trkpt>
      <trkpt lat="43.30097" lon="2.24431">
        <ele>261.5</ele>
        <time>2022-03-06T08:04:32.000Z</time>
      </trkpt>
      <trkpt lat="43.30097" lon="2.24428">
        <ele>261.4</ele>
        <time>2022-03-06T08:04:33.000Z</time>
      </trkpt>
      <trkpt lat="43.30097" lon="2.24425">
        <ele>261.4</ele>
        <time>2022-03-06T08:04:34.000Z</time>
      </trkpt>
      <trkpt lat="43.30097" lon="2.24423">
        <ele>261.4</ele>
        <time>2022-03-06T08:04:35.000Z</time>
      </trkpt>
      <trkpt lat="43.30097" lon="2.24422">
        <ele>261.4</ele>
        <time>2022-03-06T08:04:36.000Z</time>
      </trkpt>
      <trkpt lat="43.30097" lon="2.24421">
        <ele>261.4</ele>
        <time>2022-03-06T08:04:37.000Z</time>
      </trkpt>
      <trkpt lat="43.30096" lon="2.2442">
        <ele>261.3</ele>
        <time>2022-03-06T08:04:38.000Z</time>
      </trkpt>
      <trkpt lat="43.30096" lon="2.2442">
        <ele>261.3</ele>
        <time>2022-03-06T08:04:39.000Z</time>
      </trkpt>
      <trkpt lat="43.30096" lon="2.2442">
        <ele>261.3</ele>
        <time>2022-03-06T08:04:40.000Z</time>
      </trkpt>
      <trkpt lat="43.30096" lon="2.24419">
        <ele>261.3</ele>
        <time>2022-03-06T08:04:41.000Z</time>
      </trkpt>
      <trkpt lat="43.30096" lon="2.24419">
        <ele>261.3</ele>
        <time>2022-03-06T08:04:42.000Z</time>
      </trkpt>
      <trkpt lat="43.30095" lon="2.24418">
        <ele>261.3</ele>
        <time>2022-03-06T08:04:43.000Z</time>
      </trkpt>
      <trkpt lat="43.30095" lon="2.24417">
        <ele>261.3</ele>
        <time>2022-03-06T08:04:44.000Z</time>
      </trkpt>
      <trkpt lat="43.30095" lon="2.24415">
        <ele>261.3</ele>
        <time>2022-03-06T08:04:45.000Z</time>
      </trkpt>
      <trkpt lat="43.30095" lon="2.24413">
        <ele>261.2</ele>
        <time>2022-03-06T08:04:46.000Z</time>
      </trkpt>
      <trkpt lat="43.30096" lon="2.24412">
        <ele>261.2</ele>
        <time>2022-03-06T08:04:47.000Z</time>
      </trkpt>
      <trkpt lat="43.30097" lon="2.24409">
        <ele>261.2</ele>
        <time>2022-03-06T08:04:48.000Z</time>
      </trkpt>
      <trkpt lat="43.30098" lon="2.24407">
        <ele>261.2</ele>
        <time>2022-03-06T08:04:49.000Z</time>
      </trkpt>
      <trkpt lat="43.30099" lon="2.24403">
        <ele>261.2</ele>
        <time>2022-03-06T08:04:50.000Z</time>
      </trkpt>
      <trkpt lat="43.30099" lon="2.244">
        <ele>261.1</ele>
        <time>2022-03-06T08:04:51.000Z</time>
      </trkpt>
      <trkpt lat="43.301" lon="2.24397">
        <ele>261.1</ele>
        <time>2022-03-06T08:04:52.000Z</time>
      </trkpt>
      <trkpt lat="43.30101" lon="2.24394">
        <ele>261.1</ele>
        <time>2022-03-06T08:04:53.000Z</time>
      </trkpt>
      <trkpt lat="43.30103" lon="2.24391">
        <ele>261.1</ele>
        <time>2022-03-06T08:04:54.000Z</time>
      </trkpt>
      <trkpt lat="43.30104" lon="2.24389">
        <ele>261.1</ele>
        <time>2022-03-06T08:04:55.000Z</time>
      </trkpt>
      <trkpt lat="43.30106" lon="2.24388">
        <ele>261.1</ele>
        <time>2022-03-06T08:04:56.000Z</time>
      </trkpt>
      <trkpt lat="43.30108" lon="2.24388">
        <ele>261.2</ele>
        <time>2022-03-06T08:04:57.000Z</time>
      </trkpt>
      <trkpt lat="43.3011" lon="2.24389">
        <ele>261.2</ele>
        <time>2022-03-06T08:04:58.000Z</time>
      </trkpt>
      <trkpt lat="43.30112" lon="2.2439">
        <ele>261.3</ele>
        <time>2022-03-06T08:04:59.000Z</time>
      </trkpt>
      <trkpt lat="43.30113" lon="2.24391">
        <ele>261.3</ele>
        <time>2022-03-06T08:05:00.000Z</time>
      </trkpt>
      <trkpt lat="43.30114" lon="2.24391">
        <ele>261.3</ele>
        <time>2022-03-06T08:05:01.000Z</time>
      </trkpt>
      <trkpt lat="43.30114" lon="2.24392">
        <ele>261.3</ele>
        <time>2022-03-06T08:05:02.000Z</time>
      </trkpt>
      <trkpt lat="43.30114" lon="2.24392">
        <ele>261.3</ele>
        <time>2022-03-06T08:05:03.000Z</time>
      </trkpt>
      <trkpt lat="43.30114" lon="2.24393">
        <ele>261.4</ele>
        <time>2022-03-06T08:05:04.000Z</time>
      </trkpt>
      <trkpt lat="43.30115" lon="2.24394">
        <ele>261.4</ele>
        <time>2022-03-06T08:05:05.000Z</time>
      </trkpt>
      <trkpt lat="43.30116" lon="2.24395">
        <ele>261.4</ele>
        <time>2022-03-06T08:05:06.000Z</time>
      </trkpt>
      <trkpt lat="43.30117" lon="2.24396">
        <ele>261.5</ele>
        <time>2022-03-06T08:05:07.000Z</time>
      </trkpt>
      <trkpt lat="43.30118" lon="2.24398">
        <ele>261.5</ele>
        <time>2022-03-06T08:05:08.000Z</time>
      </trkpt>
      <trkpt lat="43.3012" lon="2.24399">
        <ele>261.6</ele>
        <time>2022-03-06T08:05:09.000Z</time>
      </trkpt>
      <trkpt lat="43.30121" lon="2.24401">
        <ele>261.6</ele>
        <time>2022-03-06T08:05:10.000Z</time>
      </trkpt>
      <trkpt lat="43.30122" lon="2.24402">
        <ele>261.7</ele>
        <time>2022-03-06T08:05:11.000Z</time>
      </trkpt>
      <trkpt lat="43.30124" lon="2.24404">
        <ele>261.7</ele>
        <time>2022-03-06T08:05:12.000Z</time>
      </trkpt>
      <trkpt lat="43.30125" lon="2.24405">
        <ele>261.8</ele>
        <time>2022-03-06T08:05:13.000Z</time>
      </trkpt>
      <trkpt lat="43.30126" lon="2.24406">
        <ele>261.8</ele>
        <time>2022-03-06T08:05:14.000Z</time>
      </trkpt>
      <trkpt lat="43.30128" lon="2.24408">
        <ele>261.9</ele>
        <time>2022-03-06T08:05:15.000Z</time>
      </trkpt>
      <trkpt lat="43.30129" lon="2.24409">
        <ele>262</ele>
        <time>2022-03-06T08:05:16.000Z</time>
      </trkpt>
      <trkpt lat="43.30131" lon="2.2441">
        <ele>262</ele>
        <time>2022-03-06T08:05:17.000Z</time>
      </trkpt>
      <trkpt lat="43.30132" lon="2.24411">
        <ele>262.1</ele>
        <time>2022-03-06T08:05:18.000Z</time>
      </trkpt>
      <trkpt lat="43.30133" lon="2.24412">
        <ele>262.1</ele>
        <time>2022-03-06T08:05:19.000Z</time>
      </trkpt>
      <trkpt lat="43.30135" lon="2.24413">
        <ele>262.2</ele>
        <time>2022-03-06T08:05:20.000Z</time>
      </trkpt>
      <trkpt lat="43.30136" lon="2.24414">
        <ele>262.2</ele>
        <time>2022-03-06T08:05:21.000Z</time>
      </trkpt>
      <trkpt lat="43.30138" lon="2.24416">
        <ele>262.3</ele>
        <time>2022-03-06T08:05:22.000Z</time>
      </trkpt>
      <trkpt lat="43.3014" lon="2.24417">
        <ele>262.4</ele>
        <time>2022-03-06T08:05:23.000Z</time>
      </trkpt>
      <trkpt lat="43.30142" lon="2.24418">
        <ele>262.4</ele>
        <time>2022-03-06T08:05:24.000Z</time>
      </trkpt>
      <trkpt lat="43.30144" lon="2.2442">
        <ele>262.5</ele>
        <time>2022-03-06T08:05:25.000Z</time>
      </trkpt>
      <trkpt lat="43.30146" lon="2.24421">
        <ele>262.5</ele>
        <time>2022-03-06T08:05:26.000Z</time>
      </trkpt>
      <trkpt lat="43.30148" lon="2.24423">
        <ele>262.6</ele>
        <time>2022-03-06T08:05:27.000Z</time>
      </trkpt>
      <trkpt lat="43.30151" lon="2.24425">
        <ele>262.6</ele>
        <time>2022-03-06T08:05:28.000Z</time>
      </trkpt>
      <trkpt lat="43.30153" lon="2.24427">
        <ele>262.7</ele>
        <time>2022-03-06T08:05:29.000Z</time>
      </trkpt>
      <trkpt lat="43.30156" lon="2.24429">
        <ele>262.8</ele>
        <time>2022-03-06T08:05:30.000Z</time>
      </trkpt>
      <trkpt lat="43.30158" lon="2.24431">
        <ele>262.8</ele>
        <time>2022-03-06T08:05:31.000Z</time>
      </trkpt>
      <trkpt lat="43.30161" lon="2.24432">
        <ele>262.9</ele>
        <time>2022-03-06T08:05:32.000Z</time>
      </trkpt>
      <trkpt lat="43.30163" lon="2.24434">
        <ele>262.9</ele>
        <time>2022-03-06T08:05:33.000Z</time>
      </trkpt>
      <trkpt lat="43.30165" lon="2.24436">
        <ele>263</ele>
        <time>2022-03-06T08:05:34.000Z</time>
      </trkpt>
      <trkpt lat="43.30167" lon="2.24438">
        <ele>263</ele>
        <time>2022-03-06T08:05:35.000Z</time>
      </trkpt>
      <trkpt lat="43.30169" lon="2.24439">
        <ele>262.9</ele>
        <time>2022-03-06T08:05:36.000Z</time>
      </trkpt>
      <trkpt lat="43.30171" lon="2.24441">
        <ele>262.8</ele>
        <time>2022-03-06T08:05:37.000Z</time>
      </trkpt>
      <trkpt lat="43.30173" lon="2.24443">
        <ele>262.7</ele>
        <time>2022-03-06T08:05:38.000Z</time>
      </trkpt>
      <trkpt lat="43.30175" lon="2.24445">
        <ele>262.6</ele>
        <time>2022-03-06T08:05:39.000Z</time>
      </trkpt>
      <trkpt lat="43.30177" lon="2.24447">
        <ele>262.5</ele>
        <time>2022-03-06T08:05:40.000Z</time>
      </trkpt>
      <trkpt lat="43.3018" lon="2.24448">
        <ele>262.4</ele>
        <time>2022-03-06T08:05:41.000Z</time>
      </trkpt>
      <trkpt lat="43.30182" lon="2.2445">
        <ele>262.3</ele>
        <time>2022-03-06T08:05:42.000Z</time>
      </trkpt>
      <trkpt lat="43.30184" lon="2.24452">
        <ele>262.3</ele>
        <time>2022-03-06T08:05:43.000Z</time>
      </trkpt>
      <trkpt lat="43.30187" lon="2.24454">
        <ele>262.2</ele>
        <time>2022-03-06T08:05:44.000Z</time>
      </trkpt>
      <trkpt lat="43.30189" lon="2.24456">
        <ele>262.1</ele>
        <time>2022-03-06T08:05:45.000Z</time>
      </trkpt>
      <trkpt lat="43.30191" lon="2.24457">
        <ele>262.1</ele>
        <time>2022-03-06T08:05:46.000Z</time>
      </trkpt>
      <trkpt lat="43.30194" lon="2.24459">
        <ele>262</ele>
        <time>2022-03-06T08:05:47.000Z</time>
      </trkpt>
      <trkpt lat="43.30196" lon="2.24461">
        <ele>262</ele>
        <time>2022-03-06T08:05:48.000Z</time>
      </trkpt>
      <trkpt lat="43.30198" lon="2.24462">
        <ele>262</ele>
        <time>2022-03-06T08:05:49.000Z</time>
      </trkpt>
      <trkpt lat="43.302" lon="2.24464">
        <ele>261.9</ele>
        <time>2022-03-06T08:05:50.000Z</time>
      </trkpt>
      <trkpt lat="43.30203" lon="2.24465">
        <ele>261.9</ele>
        <time>2022-03-06T08:05:51.000Z</time>
      </trkpt>
      <trkpt lat="43.30205" lon="2.24467">
        <ele>261.9</ele>
        <time>2022-03-06T08:05:52.000Z</time>
      </trkpt>
      <trkpt lat="43.30207" lon="2.24469">
        <ele>261.9</ele>
        <time>2022-03-06T08:05:53.000Z</time>
      </trkpt>
      <trkpt lat="43.30209" lon="2.24471">
        <ele>261.9</ele>
        <time>2022-03-06T08:05:54.000Z</time>
      </trkpt>
      <trkpt lat="43.30211" lon="2.24473">
        <ele>261.9</ele>
        <time>2022-03-06T08:05:55.000Z</time>
      </trkpt>
      <trkpt lat="43.30214" lon="2.24475">
        <ele>262</ele>
        <time>2022-03-06T08:05:56.000Z</time>
      </trkpt>
      <trkpt lat="43.30216" lon="2.24477">
        <ele>262</ele>
        <time>2022-03-06T08:05:57.000Z</time>
      </trkpt>
      <trkpt lat="43.30218" lon="2.24478">
        <ele>262</ele>
        <time>2022-03-06T08:05:58.000Z</time>
      </trkpt>
      <trkpt lat="43.30221" lon="2.2448">
        <ele>262.1</ele>
        <time>2022-03-06T08:05:59.000Z</time>
      </trkpt>
      <trkpt lat="43.30223" lon="2.24482">
        <ele>262.1</ele>
        <time>2022-03-06T08:06:00.000Z</time>
      </trkpt>
      <trkpt lat="43.30226" lon="2.24484">
        <ele>262.2</ele>
        <time>2022-03-06T08:06:01.000Z</time>
      </trkpt>
      <trkpt lat="43.30228" lon="2.24485">
        <ele>262.2</ele>
        <time>2022-03-06T08:06:02.000Z</time>
      </trkpt>
      <trkpt lat="43.30231" lon="2.24487">
        <ele>262.3</ele>
        <time>2022-03-06T08:06:03.000Z</time>
      </trkpt>
      <trkpt lat="43.30234" lon="2.24489">
        <ele>262.3</ele>
        <time>2022-03-06T08:06:04.000Z</time>
      </trkpt>
      <trkpt lat="43.30236" lon="2.2449">
        <ele>262.4</ele>
        <time>2022-03-06T08:06:05.000Z</time>
      </trkpt>
      <trkpt lat="43.30239" lon="2.24492">
        <ele>262.5</ele>
        <time>2022-03-06T08:06:06.000Z</time>
      </trkpt>
      <trkpt lat="43.30241" lon="2.24494">
        <ele>262.6</ele>
        <time>2022-03-06T08:06:07.000Z</time>
      </trkpt>
      <trkpt lat="43.30243" lon="2.24496">
        <ele>262.7</ele>
        <time>2022-03-06T08:06:08.000Z</time>
      </trkpt>
      <trkpt lat="43.30245" lon="2.24498">
        <ele>262.8</ele>
        <time>2022-03-06T08:06:09.000Z</time>
      </trkpt>
      <trkpt lat="43.30247" lon="2.245">
        <ele>263</ele>
        <time>2022-03-06T08:06:10.000Z</time>
      </trkpt>
      <trkpt lat="43.30249" lon="2.24502">
        <ele>263</ele>
        <time>2022-03-06T08:06:11.000Z</time>
      </trkpt>
      <trkpt lat="43.30251" lon="2.24504">
        <ele>263</ele>
        <time>2022-03-06T08:06:12.000Z</time>
      </trkpt>
      <trkpt lat="43.30253" lon="2.24507">
        <ele>263.1</ele>
        <time>2022-03-06T08:06:13.000Z</time>
      </trkpt>
      <trkpt lat="43.30255" lon="2.24509">
        <ele>263.1</ele>
        <time>2022-03-06T08:06:14.000Z</time>
      </trkpt>
      <trkpt lat="43.30257" lon="2.24511">
        <ele>263.2</ele>
        <time>2022-03-06T08:06:15.000Z</time>
      </trkpt>
      <trkpt lat="43.30259" lon="2.24513">
        <ele>263.2</ele>
        <time>2022-03-06T08:06:16.000Z</time>
      </trkpt>
      <trkpt lat="43.30261" lon="2.24515">
        <ele>263.3</ele>
        <time>2022-03-06T08:06:17.000Z</time>
      </trkpt>
      <trkpt lat="43.30263" lon="2.24517">
        <ele>263.4</ele>
        <time>2022-03-06T08:06:18.000Z</time>
      </trkpt>
      <trkpt lat="43.30265" lon="2.24519">
        <ele>263.4</ele>
        <time>2022-03-06T08:06:19.000Z</time>
      </trkpt>
      <trkpt lat="43.30268" lon="2.24521">
        <ele>263.5</ele>
        <time>2022-03-06T08:06:20.000Z</time>
      </trkpt>
      <trkpt lat="43.3027" lon="2.24522">
        <ele>263.6</ele>
        <time>2022-03-06T08:06:21.000Z</time>
      </trkpt>
      <trkpt lat="43.30272" lon="2.24524">
        <ele>263.7</ele>
        <time>2022-03-06T08:06:22.000Z</time>
      </trkpt>
      <trkpt lat="43.30274" lon="2.24526">
        <ele>263.8</ele>
        <time>2022-03-06T08:06:23.000Z</time>
      </trkpt>
      <trkpt lat="43.30277" lon="2.24527">
        <ele>263.9</ele>
        <time>2022-03-06T08:06:24.000Z</time>
      </trkpt>
      <trkpt lat="43.30279" lon="2.24529">
        <ele>263.9</ele>
        <time>2022-03-06T08:06:25.000Z</time>
      </trkpt>
      <trkpt lat="43.30281" lon="2.24531">
        <ele>264</ele>
        <time>2022-03-06T08:06:26.000Z</time>
      </trkpt>
      <trkpt lat="43.30284" lon="2.24532">
        <ele>264.1</ele>
        <time>2022-03-06T08:06:27.000Z</time>
      </trkpt>
      <trkpt lat="43.30286" lon="2.24534">
        <ele>264.2</ele>
        <time>2022-03-06T08:06:28.000Z</time>
      </trkpt>
      <trkpt lat="43.30288" lon="2.24536">
        <ele>264.3</ele>
        <time>2022-03-06T08:06:29.000Z</time>
      </trkpt>
      <trkpt lat="43.3029" lon="2.24537">
        <ele>264.4</ele>
        <time>2022-03-06T08:06:30.000Z</time>
      </trkpt>
      <trkpt lat="43.30292" lon="2.24539">
        <ele>264.5</ele>
        <time>2022-03-06T08:06:31.000Z</time>
      </trkpt>
      <trkpt lat="43.30294" lon="2.24541">
        <ele>264.6</ele>
        <time>2022-03-06T08:06:32.000Z</time>
      </trkpt>
      <trkpt lat="43.30297" lon="2.24542">
        <ele>264.7</ele>
        <time>2022-03-06T08:06:33.000Z</time>
      </trkpt>
      <trkpt lat="43.30299" lon="2.24543">
        <ele>264.8</ele>
        <time>2022-03-06T08:06:34.000Z</time>
      </trkpt>
      <trkpt lat="43.30301" lon="2.24544">
        <ele>264.9</ele>
        <time>2022-03-06T08:06:35.000Z</time>
      </trkpt>
      <trkpt lat="43.30303" lon="2.24544">
        <ele>265</ele>
        <time>2022-03-06T08:06:36.000Z</time>
      </trkpt>
      <trkpt lat="43.30306" lon="2.24545">
        <ele>265.1</ele>
        <time>2022-03-06T08:06:37.000Z</time>
      </trkpt>
      <trkpt lat="43.30308" lon="2.24545">
        <ele>265.1</ele>
        <time>2022-03-06T08:06:38.000Z</time>
      </trkpt>
      <trkpt lat="43.30311" lon="2.24545">
        <ele>265.2</ele>
        <time>2022-03-06T08:06:39.000Z</time>
      </trkpt>
      <trkpt lat="43.30313" lon="2.24544">
        <ele>265.3</ele>
        <time>2022-03-06T08:06:40.000Z</time>
      </trkpt>
      <trkpt lat="43.30316" lon="2.24544">
        <ele>265.4</ele>
        <time>2022-03-06T08:06:41.000Z</time>
      </trkpt>
      <trkpt lat="43.30318" lon="2.24544">
        <ele>265.5</ele>
        <time>2022-03-06T08:06:42.000Z</time>
      </trkpt>
      <trkpt lat="43.3032" lon="2.24544">
        <ele>265.6</ele>
        <time>2022-03-06T08:06:43.000Z</time>
      </trkpt>
      <trkpt lat="43.30323" lon="2.24544">
        <ele>265.7</ele>
        <time>2022-03-06T08:06:44.000Z</time>
      </trkpt>
      <trkpt lat="43.30325" lon="2.24544">
        <ele>265.8</ele>
        <time>2022-03-06T08:06:45.000Z</time>
      </trkpt>
      <trkpt lat="43.30327" lon="2.24544">
        <ele>265.8</ele>
        <time>2022-03-06T08:06:46.000Z</time>
      </trkpt>
      <trkpt lat="43.30329" lon="2.24545">
        <ele>265.9</ele>
        <time>2022-03-06T08:06:47.000Z</time>
      </trkpt>
      <trkpt lat="43.30332" lon="2.24545">
        <ele>266</ele>
        <time>2022-03-06T08:06:48.000Z</time>
      </trkpt>
      <trkpt lat="43.30334" lon="2.24545">
        <ele>266.1</ele>
        <time>2022-03-06T08:06:49.000Z</time>
      </trkpt>
      <trkpt lat="43.30336" lon="2.24545">
        <ele>266.2</ele>
        <time>2022-03-06T08:06:50.000Z</time>
      </trkpt>
      <trkpt lat="43.30338" lon="2.24545">
        <ele>266.3</ele>
        <time>2022-03-06T08:06:51.000Z</time>
      </trkpt>
      <trkpt lat="43.3034" lon="2.24545">
        <ele>266.4</ele>
        <time>2022-03-06T08:06:52.000Z</time>
      </trkpt>
      <trkpt lat="43.30342" lon="2.24545">
        <ele>266.5</ele>
        <time>2022-03-06T08:06:53.000Z</time>
      </trkpt>
      <trkpt lat="43.30344" lon="2.24544">
        <ele>266.6</ele>
        <time>2022-03-06T08:06:54.000Z</time>
      </trkpt>
      <trkpt lat="43.30346" lon="2.24544">
        <ele>266.7</ele>
        <time>2022-03-06T08:06:55.000Z</time>
      </trkpt>
      <trkpt lat="43.30349" lon="2.24544">
        <ele>266.8</ele>
        <time>2022-03-06T08:06:56.000Z</time>
      </trkpt>
      <trkpt lat="43.30351" lon="2.24543">
        <ele>266.9</ele>
        <time>2022-03-06T08:06:57.000Z</time>
      </trkpt>
      <trkpt lat="43.30353" lon="2.24542">
        <ele>266.9</ele>
        <time>2022-03-06T08:06:58.000Z</time>
      </trkpt>
      <trkpt lat="43.30355" lon="2.24542">
        <ele>267</ele>
        <time>2022-03-06T08:06:59.000Z</time>
      </trkpt>
      <trkpt lat="43.30356" lon="2.24541">
        <ele>267.1</ele>
        <time>2022-03-06T08:07:00.000Z</time>
      </trkpt>
      <trkpt lat="43.30358" lon="2.2454">
        <ele>267.1</ele>
        <time>2022-03-06T08:07:01.000Z</time>
      </trkpt>
      <trkpt lat="43.30359" lon="2.24539">
        <ele>267.2</ele>
        <time>2022-03-06T08:07:02.000Z</time>
      </trkpt>
      <trkpt lat="43.30359" lon="2.24539">
        <ele>267.2</ele>
        <time>2022-03-06T08:07:03.000Z</time>
      </trkpt>
      <trkpt lat="43.3036" lon="2.24538">
        <ele>267.2</ele>
        <time>2022-03-06T08:07:04.000Z</time>
      </trkpt>
      <trkpt lat="43.30361" lon="2.24537">
        <ele>267.3</ele>
        <time>2022-03-06T08:07:05.000Z</time>
      </trkpt>
      <trkpt lat="43.30362" lon="2.24536">
        <ele>267.3</ele>
        <time>2022-03-06T08:07:06.000Z</time>
      </trkpt>
      <trkpt lat="43.30363" lon="2.24536">
        <ele>267.3</ele>
        <time>2022-03-06T08:07:07.000Z</time>
      </trkpt>
      <trkpt lat="43.30364" lon="2.24535">
        <ele>267.4</ele>
        <time>2022-03-06T08:07:08.000Z</time>
      </trkpt>
      <trkpt lat="43.30365" lon="2.24534">
        <ele>267.4</ele>
        <time>2022-03-06T08:07:09.000Z</time>
      </trkpt>
      <trkpt lat="43.30366" lon="2.24534">
        <ele>267.4</ele>
        <time>2022-03-06T08:07:10.000Z</time>
      </trkpt>
      <trkpt lat="43.30367" lon="2.24533">
        <ele>267.5</ele>
        <time>2022-03-06T08:07:11.000Z</time>
      </trkpt>
      <trkpt lat="43.30368" lon="2.24533">
        <ele>267.5</ele>
        <time>2022-03-06T08:07:12.000Z</time>
      </trkpt>
      <trkpt lat="43.30369" lon="2.24532">
        <ele>267.6</ele>
        <time>2022-03-06T08:07:13.000Z</time>
      </trkpt>
      <trkpt lat="43.3037" lon="2.24532">
        <ele>267.6</ele>
        <time>2022-03-06T08:07:14.000Z</time>
      </trkpt>
      <trkpt lat="43.30372" lon="2.24532">
        <ele>267.7</ele>
        <time>2022-03-06T08:07:15.000Z</time>
      </trkpt>
      <trkpt lat="43.30373" lon="2.24531">
        <ele>267.8</ele>
        <time>2022-03-06T08:07:16.000Z</time>
      </trkpt>
      <trkpt lat="43.30375" lon="2.24531">
        <ele>267.8</ele>
        <time>2022-03-06T08:07:17.000Z</time>
      </trkpt>
      <trkpt lat="43.30376" lon="2.24531">
        <ele>267.9</ele>
        <time>2022-03-06T08:07:18.000Z</time>
      </trkpt>
      <trkpt lat="43.30378" lon="2.24531">
        <ele>268</ele>
        <time>2022-03-06T08:07:19.000Z</time>
      </trkpt>
      <trkpt lat="43.30379" lon="2.24531">
        <ele>268.1</ele>
        <time>2022-03-06T08:07:20.000Z</time>
      </trkpt>
      <trkpt lat="43.30381" lon="2.24531">
        <ele>268.2</ele>
        <time>2022-03-06T08:07:21.000Z</time>
      </trkpt>
      <trkpt lat="43.30383" lon="2.24531">
        <ele>268.3</ele>
        <time>2022-03-06T08:07:22.000Z</time>
      </trkpt>
      <trkpt lat="43.30385" lon="2.24532">
        <ele>268.4</ele>
        <time>2022-03-06T08:07:23.000Z</time>
      </trkpt>
      <trkpt lat="43.30387" lon="2.24532">
        <ele>268.5</ele>
        <time>2022-03-06T08:07:24.000Z</time>
      </trkpt>
      <trkpt lat="43.30388" lon="2.24532">
        <ele>268.6</ele>
        <time>2022-03-06T08:07:25.000Z</time>
      </trkpt>
      <trkpt lat="43.3039" lon="2.24532">
        <ele>268.7</ele>
        <time>2022-03-06T08:07:26.000Z</time>
      </trkpt>
      <trkpt lat="43.30392" lon="2.24532">
        <ele>268.8</ele>
        <time>2022-03-06T08:07:27.000Z</time>
      </trkpt>
      <trkpt lat="43.30394" lon="2.24532">
        <ele>268.9</ele>
        <time>2022-03-06T08:07:28.000Z</time>
      </trkpt>
      <trkpt lat="43.30396" lon="2.24532">
        <ele>269</ele>
        <time>2022-03-06T08:07:29.000Z</time>
      </trkpt>
      <trkpt lat="43.30398" lon="2.24531">
        <ele>269</ele>
        <time>2022-03-06T08:07:30.000Z</time>
      </trkpt>
      <trkpt lat="43.304" lon="2.24531">
        <ele>269.2</ele>
        <time>2022-03-06T08:07:31.000Z</time>
      </trkpt>
      <trkpt lat="43.30402" lon="2.2453">
        <ele>269.3</ele>
        <time>2022-03-06T08:07:32.000Z</time>
      </trkpt>
      <trkpt lat="43.30404" lon="2.2453">
        <ele>269.4</ele>
        <time>2022-03-06T08:07:33.000Z</time>
      </trkpt>
      <trkpt lat="43.30406" lon="2.24529">
        <ele>269.5</ele>
        <time>2022-03-06T08:07:34.000Z</time>
      </trkpt>
      <trkpt lat="43.30408" lon="2.24529">
        <ele>269.6</ele>
        <time>2022-03-06T08:07:35.000Z</time>
      </trkpt>
      <trkpt lat="43.3041" lon="2.24529">
        <ele>269.7</ele>
        <time>2022-03-06T08:07:36.000Z</time>
      </trkpt>
      <trkpt lat="43.30412" lon="2.24528">
        <ele>269.8</ele>
        <time>2022-03-06T08:07:37.000Z</time>
      </trkpt>
      <trkpt lat="43.30414" lon="2.24528">
        <ele>269.9</ele>
        <time>2022-03-06T08:07:38.000Z</time>
      </trkpt>
      <trkpt lat="43.30416" lon="2.24527">
        <ele>269.9</ele>
        <time>2022-03-06T08:07:39.000Z</time>
      </trkpt>
      <trkpt lat="43.30418" lon="2.24525">
        <ele>270</ele>
        <time>2022-03-06T08:07:40.000Z</time>
      </trkpt>
      <trkpt lat="43.30419" lon="2.24524">
        <ele>270.1</ele>
        <time>2022-03-06T08:07:41.000Z</time>
      </trkpt>
      <trkpt lat="43.30421" lon="2.24522">
        <ele>270.2</ele>
        <time>2022-03-06T08:07:42.000Z</time>
      </trkpt>
      <trkpt lat="43.30423" lon="2.2452">
        <ele>270.3</ele>
        <time>2022-03-06T08:07:43.000Z</time>
      </trkpt>
      <trkpt lat="43.30424" lon="2.24518">
        <ele>270.4</ele>
        <time>2022-03-06T08:07:44.000Z</time>
      </trkpt>
      <trkpt lat="43.30426" lon="2.24516">
        <ele>270.6</ele>
        <time>2022-03-06T08:07:45.000Z</time>
      </trkpt>
      <trkpt lat="43.30428" lon="2.24513">
        <ele>270.7</ele>
        <time>2022-03-06T08:07:46.000Z</time>
      </trkpt>
      <trkpt lat="43.3043" lon="2.24511">
        <ele>270.8</ele>
        <time>2022-03-06T08:07:47.000Z</time>
      </trkpt>
      <trkpt lat="43.30432" lon="2.24509">
        <ele>270.9</ele>
        <time>2022-03-06T08:07:48.000Z</time>
      </trkpt>
      <trkpt lat="43.30434" lon="2.24507">
        <ele>271</ele>
        <time>2022-03-06T08:07:49.000Z</time>
      </trkpt>
      <trkpt lat="43.30436" lon="2.24505">
        <ele>271.1</ele>
        <time>2022-03-06T08:07:50.000Z</time>
      </trkpt>
      <trkpt lat="43.30438" lon="2.24503">
        <ele>271.3</ele>
        <time>2022-03-06T08:07:51.000Z</time>
      </trkpt>
      <trkpt lat="43.3044" lon="2.24501">
        <ele>271.4</ele>
        <time>2022-03-06T08:07:52.000Z</time>
      </trkpt>
      <trkpt lat="43.30442" lon="2.245">
        <ele>271.5</ele>
        <time>2022-03-06T08:07:53.000Z</time>
      </trkpt>
      <trkpt lat="43.30445" lon="2.245">
        <ele>271.7</ele>
        <time>2022-03-06T08:07:54.000Z</time>
      </trkpt>
      <trkpt lat="43.30447" lon="2.24499">
        <ele>271.8</ele>
        <time>2022-03-06T08:07:55.000Z</time>
      </trkpt>
      <trkpt lat="43.3045" lon="2.24499">
        <ele>272</ele>
        <time>2022-03-06T08:07:56.000Z</time>
      </trkpt>
      <trkpt lat="43.30452" lon="2.24499">
        <ele>272.1</ele>
        <time>2022-03-06T08:07:57.000Z</time>
      </trkpt>
      <trkpt lat="43.30455" lon="2.245">
        <ele>272.3</ele>
        <time>2022-03-06T08:07:58.000Z</time>
      </trkpt>
      <trkpt lat="43.30457" lon="2.245">
        <ele>272.4</ele>
        <time>2022-03-06T08:07:59.000Z</time>
      </trkpt>
      <trkpt lat="43.30459" lon="2.245">
        <ele>272.6</ele>
        <time>2022-03-06T08:08:00.000Z</time>
      </trkpt>
      <trkpt lat="43.30462" lon="2.245">
        <ele>272.7</ele>
        <time>2022-03-06T08:08:01.000Z</time>
      </trkpt>
      <trkpt lat="43.30464" lon="2.245">
        <ele>272.8</ele>
        <time>2022-03-06T08:08:02.000Z</time>
      </trkpt>
      <trkpt lat="43.30466" lon="2.245">
        <ele>272.9</ele>
        <time>2022-03-06T08:08:03.000Z</time>
      </trkpt>
      <trkpt lat="43.30468" lon="2.24499">
        <ele>273.1</ele>
        <time>2022-03-06T08:08:04.000Z</time>
      </trkpt>
      <trkpt lat="43.30469" lon="2.24499">
        <ele>273.2</ele>
        <time>2022-03-06T08:08:05.000Z</time>
      </trkpt>
      <trkpt lat="43.30471" lon="2.24498">
        <ele>273.3</ele>
        <time>2022-03-06T08:08:06.000Z</time>
      </trkpt>
      <trkpt lat="43.30473" lon="2.24497">
        <ele>273.4</ele>
        <time>2022-03-06T08:08:07.000Z</time>
      </trkpt>
      <trkpt lat="43.30475" lon="2.24497">
        <ele>273.5</ele>
        <time>2022-03-06T08:08:08.000Z</time>
      </trkpt>
      <trkpt lat="43.30477" lon="2.24496">
        <ele>273.6</ele>
        <time>2022-03-06T08:08:09.000Z</time>
      </trkpt>
      <trkpt lat="43.30479" lon="2.24495">
        <ele>273.8</ele>
        <time>2022-03-06T08:08:10.000Z</time>
      </trkpt>
      <trkpt lat="43.30481" lon="2.24494">
        <ele>273.9</ele>
        <time>2022-03-06T08:08:11.000Z</time>
      </trkpt>
      <trkpt lat="43.30483" lon="2.24493">
        <ele>274</ele>
        <time>2022-03-06T08:08:12.000Z</time>
      </trkpt>
      <trkpt lat="43.30485" lon="2.24491">
        <ele>274.1</ele>
        <time>2022-03-06T08:08:13.000Z</time>
      </trkpt>
      <trkpt lat="43.30488" lon="2.2449">
        <ele>274.3</ele>
        <time>2022-03-06T08:08:14.000Z</time>
      </trkpt>
      <trkpt lat="43.3049" lon="2.24489">
        <ele>274.4</ele>
        <time>2022-03-06T08:08:15.000Z</time>
      </trkpt>
      <trkpt lat="43.30492" lon="2.24488">
        <ele>274.5</ele>
        <time>2022-03-06T08:08:16.000Z</time>
      </trkpt>
      <trkpt lat="43.30494" lon="2.24487">
        <ele>274.7</ele>
        <time>2022-03-06T08:08:17.000Z</time>
      </trkpt>
      <trkpt lat="43.30496" lon="2.24486">
        <ele>274.8</ele>
        <time>2022-03-06T08:08:18.000Z</time>
      </trkpt>
      <trkpt lat="43.30499" lon="2.24485">
        <ele>274.9</ele>
        <time>2022-03-06T08:08:19.000Z</time>
      </trkpt>
      <trkpt lat="43.30501" lon="2.24483">
        <ele>275</ele>
        <time>2022-03-06T08:08:20.000Z</time>
      </trkpt>
      <trkpt lat="43.30503" lon="2.24482">
        <ele>275.1</ele>
        <time>2022-03-06T08:08:21.000Z</time>
      </trkpt>
      <trkpt lat="43.30505" lon="2.24481">
        <ele>275.2</ele>
        <time>2022-03-06T08:08:22.000Z</time>
      </trkpt>
      <trkpt lat="43.30507" lon="2.2448">
        <ele>275.2</ele>
        <time>2022-03-06T08:08:23.000Z</time>
      </trkpt>
      <trkpt lat="43.3051" lon="2.24479">
        <ele>275.3</ele>
        <time>2022-03-06T08:08:24.000Z</time>
      </trkpt>
      <trkpt lat="43.30512" lon="2.24478">
        <ele>275.4</ele>
        <time>2022-03-06T08:08:25.000Z</time>
      </trkpt>
      <trkpt lat="43.30514" lon="2.24477">
        <ele>275.5</ele>
        <time>2022-03-06T08:08:26.000Z</time>
      </trkpt>
      <trkpt lat="43.30517" lon="2.24476">
        <ele>275.6</ele>
        <time>2022-03-06T08:08:27.000Z</time>
      </trkpt>
      <trkpt lat="43.30519" lon="2.24475">
        <ele>275.7</ele>
        <time>2022-03-06T08:08:28.000Z</time>
      </trkpt>
      <trkpt lat="43.30521" lon="2.24474">
        <ele>275.7</ele>
        <time>2022-03-06T08:08:29.000Z</time>
      </trkpt>
      <trkpt lat="43.30523" lon="2.24473">
        <ele>275.8</ele>
        <time>2022-03-06T08:08:30.000Z</time>
      </trkpt>
      <trkpt lat="43.30526" lon="2.24472">
        <ele>275.9</ele>
        <time>2022-03-06T08:08:31.000Z</time>
      </trkpt>
      <trkpt lat="43.30528" lon="2.24471">
        <ele>276</ele>
        <time>2022-03-06T08:08:32.000Z</time>
      </trkpt>
      <trkpt lat="43.3053" lon="2.2447">
        <ele>276.1</ele>
        <time>2022-03-06T08:08:33.000Z</time>
      </trkpt>
      <trkpt lat="43.30533" lon="2.24469">
        <ele>276.2</ele>
        <time>2022-03-06T08:08:34.000Z</time>
      </trkpt>
      <trkpt lat="43.30535" lon="2.24468">
        <ele>276.3</ele>
        <time>2022-03-06T08:08:35.000Z</time>
      </trkpt>
      <trkpt lat="43.30537" lon="2.24467">
        <ele>276.4</ele>
        <time>2022-03-06T08:08:36.000Z</time>
      </trkpt>
      <trkpt lat="43.30539" lon="2.24466">
        <ele>276.5</ele>
        <time>2022-03-06T08:08:37.000Z</time>
      </trkpt>
      <trkpt lat="43.30542" lon="2.24465">
        <ele>276.6</ele>
        <time>2022-03-06T08:08:38.000Z</time>
      </trkpt>
      <trkpt lat="43.30544" lon="2.24464">
        <ele>276.7</ele>
        <time>2022-03-06T08:08:39.000Z</time>
      </trkpt>
      <trkpt lat="43.30546" lon="2.24463">
        <ele>276.9</ele>
        <time>2022-03-06T08:08:40.000Z</time>
      </trkpt>
      <trkpt lat="43.30549" lon="2.24462">
        <ele>277</ele>
        <time>2022-03-06T08:08:41.000Z</time>
      </trkpt>
      <trkpt lat="43.30551" lon="2.24461">
        <ele>277.1</ele>
        <time>2022-03-06T08:08:42.000Z</time>
      </trkpt>
      <trkpt lat="43.30553" lon="2.2446">
        <ele>277.2</ele>
        <time>2022-03-06T08:08:43.000Z</time>
      </trkpt>
      <trkpt lat="43.30556" lon="2.24459">
        <ele>277.3</ele>
        <time>2022-03-06T08:08:44.000Z</time>
      </trkpt>
      <trkpt lat="43.30558" lon="2.24458">
        <ele>277.5</ele>
        <time>2022-03-06T08:08:45.000Z</time>
      </trkpt>
      <trkpt lat="43.3056" lon="2.24457">
        <ele>277.6</ele>
        <time>2022-03-06T08:08:46.000Z</time>
      </trkpt>
      <trkpt lat="43.30563" lon="2.24456">
        <ele>277.7</ele>
        <time>2022-03-06T08:08:47.000Z</time>
      </trkpt>
      <trkpt lat="43.30565" lon="2.24454">
        <ele>277.8</ele>
        <time>2022-03-06T08:08:48.000Z</time>
      </trkpt>
      <trkpt lat="43.30567" lon="2.24453">
        <ele>278</ele>
        <time>2022-03-06T08:08:49.000Z</time>
      </trkpt>
      <trkpt lat="43.3057" lon="2.24452">
        <ele>278.1</ele>
        <time>2022-03-06T08:08:50.000Z</time>
      </trkpt>
      <trkpt lat="43.30572" lon="2.24451">
        <ele>278.3</ele>
        <time>2022-03-06T08:08:51.000Z</time>
      </trkpt>
      <trkpt lat="43.30574" lon="2.2445">
        <ele>278.4</ele>
        <time>2022-03-06T08:08:52.000Z</time>
      </trkpt>
      <trkpt lat="43.30576" lon="2.24449">
        <ele>278.5</ele>
        <time>2022-03-06T08:08:53.000Z</time>
      </trkpt>
      <trkpt lat="43.30579" lon="2.24447">
        <ele>278.7</ele>
        <time>2022-03-06T08:08:54.000Z</time>
      </trkpt>
      <trkpt lat="43.30581" lon="2.24446">
        <ele>278.8</ele>
        <time>2022-03-06T08:08:55.000Z</time>
      </trkpt>
      <trkpt lat="43.30583" lon="2.24445">
        <ele>278.9</ele>
        <time>2022-03-06T08:08:56.000Z</time>
      </trkpt>
      <trkpt lat="43.30585" lon="2.24444">
        <ele>279</ele>
        <time>2022-03-06T08:08:57.000Z</time>
      </trkpt>
      <trkpt lat="43.30587" lon="2.24443">
        <ele>279</ele>
        <time>2022-03-06T08:08:58.000Z</time>
      </trkpt>
      <trkpt lat="43.30589" lon="2.24442">
        <ele>279.1</ele>
        <time>2022-03-06T08:08:59.000Z</time>
      </trkpt>
      <trkpt lat="43.30591" lon="2.2444">
        <ele>279.1</ele>
        <time>2022-03-06T08:09:00.000Z</time>
      </trkpt>
      <trkpt lat="43.30592" lon="2.24439">
        <ele>279.1</ele>
        <time>2022-03-06T08:09:01.000Z</time>
      </trkpt>
      <trkpt lat="43.30594" lon="2.24438">
        <ele>279.2</ele>
        <time>2022-03-06T08:09:02.000Z</time>
      </trkpt>
      <trkpt lat="43.30596" lon="2.24437">
        <ele>279.2</ele>
        <time>2022-03-06T08:09:03.000Z</time>
      </trkpt>
      <trkpt lat="43.30598" lon="2.24435">
        <ele>279.2</ele>
        <time>2022-03-06T08:09:04.000Z</time>
      </trkpt>
      <trkpt lat="43.306" lon="2.24434">
        <ele>279.3</ele>
        <time>2022-03-06T08:09:05.000Z</time>
      </trkpt>
      <trkpt lat="43.30602" lon="2.24433">
        <ele>279.3</ele>
        <time>2022-03-06T08:09:06.000Z</time>
      </trkpt>
      <trkpt lat="43.30604" lon="2.24431">
        <ele>279.3</ele>
        <time>2022-03-06T08:09:07.000Z</time>
      </trkpt>
      <trkpt lat="43.30606" lon="2.2443">
        <ele>279.3</ele>
        <time>2022-03-06T08:09:08.000Z</time>
      </trkpt>
      <trkpt lat="43.30607" lon="2.24428">
        <ele>279.4</ele>
        <time>2022-03-06T08:09:09.000Z</time>
      </trkpt>
      <trkpt lat="43.30609" lon="2.24427">
        <ele>279.4</ele>
        <time>2022-03-06T08:09:10.000Z</time>
      </trkpt>
      <trkpt lat="43.30611" lon="2.24426">
        <ele>279.4</ele>
        <time>2022-03-06T08:09:11.000Z</time>
      </trkpt>
      <trkpt lat="43.30613" lon="2.24425">
        <ele>279.4</ele>
        <time>2022-03-06T08:09:12.000Z</time>
      </trkpt>
      <trkpt lat="43.30615" lon="2.24423">
        <ele>279.4</ele>
        <time>2022-03-06T08:09:13.000Z</time>
      </trkpt>
      <trkpt lat="43.30617" lon="2.24422">
        <ele>279.4</ele>
        <time>2022-03-06T08:09:14.000Z</time>
      </trkpt>
      <trkpt lat="43.30619" lon="2.24421">
        <ele>279.5</ele>
        <time>2022-03-06T08:09:15.000Z</time>
      </trkpt>
      <trkpt lat="43.30621" lon="2.2442">
        <ele>279.5</ele>
        <time>2022-03-06T08:09:16.000Z</time>
      </trkpt>
      <trkpt lat="43.30623" lon="2.24419">
        <ele>279.5</ele>
        <time>2022-03-06T08:09:17.000Z</time>
      </trkpt>
      <trkpt lat="43.30625" lon="2.24418">
        <ele>279.5</ele>
        <time>2022-03-06T08:09:18.000Z</time>
      </trkpt>
      <trkpt lat="43.30627" lon="2.24417">
        <ele>279.5</ele>
        <time>2022-03-06T08:09:19.000Z</time>
      </trkpt>
      <trkpt lat="43.30629" lon="2.24415">
        <ele>279.4</ele>
        <time>2022-03-06T08:09:20.000Z</time>
      </trkpt>
      <trkpt lat="43.30631" lon="2.24413">
        <ele>279.3</ele>
        <time>2022-03-06T08:09:21.000Z</time>
      </trkpt>
      <trkpt lat="43.30633" lon="2.24411">
        <ele>279.2</ele>
        <time>2022-03-06T08:09:22.000Z</time>
      </trkpt>
      <trkpt lat="43.30636" lon="2.2441">
        <ele>279.1</ele>
        <time>2022-03-06T08:09:23.000Z</time>
      </trkpt>
      <trkpt lat="43.30638" lon="2.24408">
        <ele>278.9</ele>
        <time>2022-03-06T08:09:24.000Z</time>
      </trkpt>
      <trkpt lat="43.3064" lon="2.24406">
        <ele>278.8</ele>
        <time>2022-03-06T08:09:25.000Z</time>
      </trkpt>
      <trkpt lat="43.30642" lon="2.24405">
        <ele>278.7</ele>
        <time>2022-03-06T08:09:26.000Z</time>
      </trkpt>
      <trkpt lat="43.30644" lon="2.24404">
        <ele>278.6</ele>
        <time>2022-03-06T08:09:27.000Z</time>
      </trkpt>
      <trkpt lat="43.30646" lon="2.24403">
        <ele>278.5</ele>
        <time>2022-03-06T08:09:28.000Z</time>
      </trkpt>
      <trkpt lat="43.30648" lon="2.24402">
        <ele>278.4</ele>
        <time>2022-03-06T08:09:29.000Z</time>
      </trkpt>
      <trkpt lat="43.3065" lon="2.24402">
        <ele>278.3</ele>
        <time>2022-03-06T08:09:30.000Z</time>
      </trkpt>
      <trkpt lat="43.30652" lon="2.24402">
        <ele>278.3</ele>
        <time>2022-03-06T08:09:31.000Z</time>
      </trkpt>
      <trkpt lat="43.30654" lon="2.24402">
        <ele>278.2</ele>
        <time>2022-03-06T08:09:32.000Z</time>
      </trkpt>
      <trkpt lat="43.30656" lon="2.24402">
        <ele>278.2</ele>
        <time>2022-03-06T08:09:33.000Z</time>
      </trkpt>
      <trkpt lat="43.30657" lon="2.24402">
        <ele>278.1</ele>
        <time>2022-03-06T08:09:34.000Z</time>
      </trkpt>
      <trkpt lat="43.30659" lon="2.24402">
        <ele>278.1</ele>
        <time>2022-03-06T08:09:35.000Z</time>
      </trkpt>
      <trkpt lat="43.3066" lon="2.24402">
        <ele>278.1</ele>
        <time>2022-03-06T08:09:36.000Z</time>
      </trkpt>
      <trkpt lat="43.30661" lon="2.24403">
        <ele>278.1</ele>
        <time>2022-03-06T08:09:37.000Z</time>
      </trkpt>
      <trkpt lat="43.30662" lon="2.24403">
        <ele>278.1</ele>
        <time>2022-03-06T08:09:38.000Z</time>
      </trkpt>
      <trkpt lat="43.30663" lon="2.24404">
        <ele>278.2</ele>
        <time>2022-03-06T08:09:39.000Z</time>
      </trkpt>
      <trkpt lat="43.30664" lon="2.24404">
        <ele>278.2</ele>
        <time>2022-03-06T08:09:40.000Z</time>
      </trkpt>
      <trkpt lat="43.30664" lon="2.24405">
        <ele>278.2</ele>
        <time>2022-03-06T08:09:41.000Z</time>
      </trkpt>
      <trkpt lat="43.30665" lon="2.24406">
        <ele>278.3</ele>
        <time>2022-03-06T08:09:42.000Z</time>
      </trkpt>
      <trkpt lat="43.30665" lon="2.24407">
        <ele>278.3</ele>
        <time>2022-03-06T08:09:43.000Z</time>
      </trkpt>
      <trkpt lat="43.30666" lon="2.24408">
        <ele>278.4</ele>
        <time>2022-03-06T08:09:44.000Z</time>
      </trkpt>
      <trkpt lat="43.30667" lon="2.2441">
        <ele>278.4</ele>
        <time>2022-03-06T08:09:45.000Z</time>
      </trkpt>
      <trkpt lat="43.30668" lon="2.24411">
        <ele>278.4</ele>
        <time>2022-03-06T08:09:46.000Z</time>
      </trkpt>
      <trkpt lat="43.30669" lon="2.24413">
        <ele>278.3</ele>
        <time>2022-03-06T08:09:47.000Z</time>
      </trkpt>
      <trkpt lat="43.3067" lon="2.24415">
        <ele>278.2</ele>
        <time>2022-03-06T08:09:48.000Z</time>
      </trkpt>
      <trkpt lat="43.30671" lon="2.24417">
        <ele>278</ele>
        <time>2022-03-06T08:09:49.000Z</time>
      </trkpt>
      <trkpt lat="43.30673" lon="2.24419">
        <ele>277.7</ele>
        <time>2022-03-06T08:09:50.000Z</time>
      </trkpt>
      <trkpt lat="43.30675" lon="2.24421">
        <ele>277.4</ele>
        <time>2022-03-06T08:09:51.000Z</time>
      </trkpt>
      <trkpt lat="43.30677" lon="2.24422">
        <ele>277</ele>
        <time>2022-03-06T08:09:52.000Z</time>
      </trkpt>
      <trkpt lat="43.30679" lon="2.24424">
        <ele>276.7</ele>
        <time>2022-03-06T08:09:53.000Z</time>
      </trkpt>
      <trkpt lat="43.30681" lon="2.24425">
        <ele>276.3</ele>
        <time>2022-03-06T08:09:54.000Z</time>
      </trkpt>
      <trkpt lat="43.30683" lon="2.24426">
        <ele>275.9</ele>
        <time>2022-03-06T08:09:55.000Z</time>
      </trkpt>
      <trkpt lat="43.30685" lon="2.24427">
        <ele>275.6</ele>
        <time>2022-03-06T08:09:56.000Z</time>
      </trkpt>
      <trkpt lat="43.30687" lon="2.24428">
        <ele>275.2</ele>
        <time>2022-03-06T08:09:57.000Z</time>
      </trkpt>
      <trkpt lat="43.30689" lon="2.24429">
        <ele>274.9</ele>
        <time>2022-03-06T08:09:58.000Z</time>
      </trkpt>
      <trkpt lat="43.30691" lon="2.24431">
        <ele>274.7</ele>
        <time>2022-03-06T08:09:59.000Z</time>
      </trkpt>
      <trkpt lat="43.30693" lon="2.24433">
        <ele>274.5</ele>
        <time>2022-03-06T08:10:00.000Z</time>
      </trkpt>
      <trkpt lat="43.30694" lon="2.24436">
        <ele>274.4</ele>
        <time>2022-03-06T08:10:01.000Z</time>
      </trkpt>
      <trkpt lat="43.30695" lon="2.24439">
        <ele>274.4</ele>
        <time>2022-03-06T08:10:02.000Z</time>
      </trkpt>
      <trkpt lat="43.30696" lon="2.24442">
        <ele>274.5</ele>
        <time>2022-03-06T08:10:03.000Z</time>
      </trkpt>
      <trkpt lat="43.30696" lon="2.24446">
        <ele>274.6</ele>
        <time>2022-03-06T08:10:04.000Z</time>
      </trkpt>
      <trkpt lat="43.30696" lon="2.24449">
        <ele>274.8</ele>
        <time>2022-03-06T08:10:05.000Z</time>
      </trkpt>
      <trkpt lat="43.30696" lon="2.24452">
        <ele>275</ele>
        <time>2022-03-06T08:10:06.000Z</time>
      </trkpt>
      <trkpt lat="43.30696" lon="2.24455">
        <ele>275.2</ele>
        <time>2022-03-06T08:10:07.000Z</time>
      </trkpt>
      <trkpt lat="43.30696" lon="2.24458">
        <ele>275.3</ele>
        <time>2022-03-06T08:10:08.000Z</time>
      </trkpt>
      <trkpt lat="43.30696" lon="2.24461">
        <ele>275.5</ele>
        <time>2022-03-06T08:10:09.000Z</time>
      </trkpt>
      <trkpt lat="43.30697" lon="2.24464">
        <ele>275.6</ele>
        <time>2022-03-06T08:10:10.000Z</time>
      </trkpt>
      <trkpt lat="43.30697" lon="2.24467">
        <ele>275.7</ele>
        <time>2022-03-06T08:10:11.000Z</time>
      </trkpt>
      <trkpt lat="43.30698" lon="2.2447">
        <ele>275.8</ele>
        <time>2022-03-06T08:10:12.000Z</time>
      </trkpt>
      <trkpt lat="43.30699" lon="2.24474">
        <ele>275.9</ele>
        <time>2022-03-06T08:10:13.000Z</time>
      </trkpt>
      <trkpt lat="43.30701" lon="2.24477">
        <ele>276.1</ele>
        <time>2022-03-06T08:10:14.000Z</time>
      </trkpt>
      <trkpt lat="43.30702" lon="2.2448">
        <ele>276.2</ele>
        <time>2022-03-06T08:10:15.000Z</time>
      </trkpt>
      <trkpt lat="43.30704" lon="2.24483">
        <ele>276.3</ele>
        <time>2022-03-06T08:10:16.000Z</time>
      </trkpt>
      <trkpt lat="43.30705" lon="2.24486">
        <ele>276.5</ele>
        <time>2022-03-06T08:10:17.000Z</time>
      </trkpt>
      <trkpt lat="43.30707" lon="2.24489">
        <ele>276.6</ele>
        <time>2022-03-06T08:10:18.000Z</time>
      </trkpt>
      <trkpt lat="43.30708" lon="2.24492">
        <ele>276.8</ele>
        <time>2022-03-06T08:10:19.000Z</time>
      </trkpt>
      <trkpt lat="43.3071" lon="2.24495">
        <ele>277</ele>
        <time>2022-03-06T08:10:20.000Z</time>
      </trkpt>
      <trkpt lat="43.30711" lon="2.24497">
        <ele>277.2</ele>
        <time>2022-03-06T08:10:21.000Z</time>
      </trkpt>
      <trkpt lat="43.30713" lon="2.24499">
        <ele>277.3</ele>
        <time>2022-03-06T08:10:22.000Z</time>
      </trkpt>
      <trkpt lat="43.30714" lon="2.245">
        <ele>277.4</ele>
        <time>2022-03-06T08:10:23.000Z</time>
      </trkpt>
      <trkpt lat="43.30715" lon="2.245">
        <ele>277.4</ele>
        <time>2022-03-06T08:10:24.000Z</time>
      </trkpt>
      <trkpt lat="43.30715" lon="2.24501">
        <ele>277.4</ele>
        <time>2022-03-06T08:10:25.000Z</time>
      </trkpt>
      <trkpt lat="43.30716" lon="2.24501">
        <ele>277.4</ele>
        <time>2022-03-06T08:10:26.000Z</time>
      </trkpt>
      <trkpt lat="43.30717" lon="2.245">
        <ele>277.4</ele>
        <time>2022-03-06T08:10:27.000Z</time>
      </trkpt>
      <trkpt lat="43.30718" lon="2.245">
        <ele>277.4</ele>
        <time>2022-03-06T08:10:28.000Z</time>
      </trkpt>
      <trkpt lat="43.30719" lon="2.24499">
        <ele>277.3</ele>
        <time>2022-03-06T08:10:29.000Z</time>
      </trkpt>
      <trkpt lat="43.3072" lon="2.24498">
        <ele>277.1</ele>
        <time>2022-03-06T08:10:30.000Z</time>
      </trkpt>
      <trkpt lat="43.30722" lon="2.24497">
        <ele>277</ele>
        <time>2022-03-06T08:10:31.000Z</time>
      </trkpt>
      <trkpt lat="43.30723" lon="2.24496">
        <ele>276.8</ele>
        <time>2022-03-06T08:10:32.000Z</time>
      </trkpt>
      <trkpt lat="43.30725" lon="2.24495">
        <ele>276.6</ele>
        <time>2022-03-06T08:10:33.000Z</time>
      </trkpt>
      <trkpt lat="43.30727" lon="2.24493">
        <ele>276.4</ele>
        <time>2022-03-06T08:10:34.000Z</time>
      </trkpt>
      <trkpt lat="43.30729" lon="2.24492">
        <ele>276.3</ele>
        <time>2022-03-06T08:10:35.000Z</time>
      </trkpt>
      <trkpt lat="43.30731" lon="2.24491">
        <ele>276.1</ele>
        <time>2022-03-06T08:10:36.000Z</time>
      </trkpt>
      <trkpt lat="43.30733" lon="2.24491">
        <ele>275.9</ele>
        <time>2022-03-06T08:10:37.000Z</time>
      </trkpt>
      <trkpt lat="43.30735" lon="2.2449">
        <ele>275.7</ele>
        <time>2022-03-06T08:10:38.000Z</time>
      </trkpt>
      <trkpt lat="43.30737" lon="2.2449">
        <ele>275.6</ele>
        <time>2022-03-06T08:10:39.000Z</time>
      </trkpt>
      <trkpt lat="43.30739" lon="2.24489">
        <ele>275.5</ele>
        <time>2022-03-06T08:10:40.000Z</time>
      </trkpt>
      <trkpt lat="43.30741" lon="2.24489">
        <ele>275.4</ele>
        <time>2022-03-06T08:10:41.000Z</time>
      </trkpt>
      <trkpt lat="43.30743" lon="2.24489">
        <ele>275.4</ele>
        <time>2022-03-06T08:10:42.000Z</time>
      </trkpt>
      <trkpt lat="43.30745" lon="2.2449">
        <ele>275.4</ele>
        <time>2022-03-06T08:10:43.000Z</time>
      </trkpt>
      <trkpt lat="43.30747" lon="2.24491">
        <ele>275.5</ele>
        <time>2022-03-06T08:10:44.000Z</time>
      </trkpt>
      <trkpt lat="43.30748" lon="2.24492">
        <ele>275.6</ele>
        <time>2022-03-06T08:10:45.000Z</time>
      </trkpt>
      <trkpt lat="43.3075" lon="2.24493">
        <ele>275.7</ele>
        <time>2022-03-06T08:10:46.000Z</time>
      </trkpt>
      <trkpt lat="43.30752" lon="2.24494">
        <ele>275.8</ele>
        <time>2022-03-06T08:10:47.000Z</time>
      </trkpt>
      <trkpt lat="43.30753" lon="2.24496">
        <ele>275.8</ele>
        <time>2022-03-06T08:10:48.000Z</time>
      </trkpt>
      <trkpt lat="43.30754" lon="2.24497">
        <ele>275.9</ele>
        <time>2022-03-06T08:10:49.000Z</time>
      </trkpt>
      <trkpt lat="43.30755" lon="2.24498">
        <ele>275.9</ele>
        <time>2022-03-06T08:10:50.000Z</time>
      </trkpt>
      <trkpt lat="43.30756" lon="2.24498">
        <ele>275.9</ele>
        <time>2022-03-06T08:10:51.000Z</time>
      </trkpt>
      <trkpt lat="43.30756" lon="2.24499">
        <ele>275.9</ele>
        <time>2022-03-06T08:10:52.000Z</time>
      </trkpt>
      <trkpt lat="43.30757" lon="2.24499">
        <ele>275.9</ele>
        <time>2022-03-06T08:10:53.000Z</time>
      </trkpt>
      <trkpt lat="43.30757" lon="2.24499">
        <ele>275.9</ele>
        <time>2022-03-06T08:10:54.000Z</time>
      </trkpt>
      <trkpt lat="43.30757" lon="2.24499">
        <ele>275.9</ele>
        <time>2022-03-06T08:10:55.000Z</time>
      </trkpt>
      <trkpt lat="43.30757" lon="2.24499">
        <ele>275.9</ele>
        <time>2022-03-06T08:10:56.000Z</time>
      </trkpt>
      <trkpt lat="43.30757" lon="2.24498">
        <ele>275.8</ele>
        <time>2022-03-06T08:10:57.000Z</time>
      </trkpt>
      <trkpt lat="43.30757" lon="2.24498">
        <ele>275.8</ele>
        <time>2022-03-06T08:10:58.000Z</time>
      </trkpt>
      <trkpt lat="43.30757" lon="2.24498">
        <ele>275.8</ele>
        <time>2022-03-06T08:10:59.000Z</time>
      </trkpt>
      <trkpt lat="43.30757" lon="2.24498">
        <ele>275.8</ele>
        <time>2022-03-06T08:11:00.000Z</time>
      </trkpt>
      <trkpt lat="43.30757" lon="2.24498">
        <ele>275.8</ele>
        <time>2022-03-06T08:11:01.000Z</time>
      </trkpt>
      <trkpt lat="43.30757" lon="2.24498">
        <ele>275.8</ele>
        <time>2022-03-06T08:11:02.000Z</time>
      </trkpt>
      <trkpt lat="43.30757" lon="2.24498">
        <ele>275.8</ele>
        <time>2022-03-06T08:11:03.000Z</time>
      </trkpt>
      <trkpt lat="43.30757" lon="2.24498">
        <ele>275.8</ele>
        <time>2022-03-06T08:11:04.000Z</time>
      </trkpt>
      <trkpt lat="43.30757" lon="2.24498">
        <ele>275.8</ele>
        <time>2022-03-06T08:11:05.000Z</time>
      </trkpt>
      <trkpt lat="43.30757" lon="2.24498">
        <ele>275.8</ele>
        <time>2022-03-06T08:11:06.000Z</time>
      </trkpt>
      <trkpt lat="43.30757" lon="2.24498">
        <ele>275.8</ele>
        <time>2022-03-06T08:11:07.000Z</time>
      </trkpt>
      <trkpt lat="43.30757" lon="2.24498">
        <ele>275.8</ele>
        <time>2022-03-06T08:11:08.000Z</time>
      </trkpt>
      <trkpt lat="43.30757" lon="2.24498">
        <ele>275.8</ele>
        <time>2022-03-06T08:11:09.000Z</time>
      </trkpt>
      <trkpt lat="43.30757" lon="2.24498">
        <ele>275.8</ele>
        <time>2022-03-06T08:11:10.000Z</time>
      </trkpt>
      <trkpt lat="43.30757" lon="2.24498">
        <ele>275.8</ele>
        <time>2022-03-06T08:11:11.000Z</time>
      </trkpt>
      <trkpt lat="43.30757" lon="2.24498">
        <ele>275.8</ele>
        <time>2022-03-06T08:11:12.000Z</time>
      </trkpt>
      <trkpt lat="43.30758" lon="2.24499">
        <ele>275.8</ele>
        <time>2022-03-06T08:11:13.000Z</time>
      </trkpt>
      <trkpt lat="43.30758" lon="2.24499">
        <ele>275.8</ele>
        <time>2022-03-06T08:11:14.000Z</time>
      </trkpt>
      <trkpt lat="43.30759" lon="2.245">
        <ele>275.8</ele>
        <time>2022-03-06T08:11:15.000Z</time>
      </trkpt>
      <trkpt lat="43.3076" lon="2.245">
        <ele>275.8</ele>
        <time>2022-03-06T08:11:16.000Z</time>
      </trkpt>
      <trkpt lat="43.30761" lon="2.24501">
        <ele>275.7</ele>
        <time>2022-03-06T08:11:17.000Z</time>
      </trkpt>
      <trkpt lat="43.30761" lon="2.24502">
        <ele>275.7</ele>
        <time>2022-03-06T08:11:18.000Z</time>
      </trkpt>
      <trkpt lat="43.30762" lon="2.24503">
        <ele>275.6</ele>
        <time>2022-03-06T08:11:19.000Z</time>
      </trkpt>
      <trkpt lat="43.30763" lon="2.24504">
        <ele>275.6</ele>
        <time>2022-03-06T08:11:20.000Z</time>
      </trkpt>
      <trkpt lat="43.30764" lon="2.24505">
        <ele>275.6</ele>
        <time>2022-03-06T08:11:21.000Z</time>
      </trkpt>
      <trkpt lat="43.30765" lon="2.24506">
        <ele>275.6</ele>
        <time>2022-03-06T08:11:22.000Z</time>
      </trkpt>
      <trkpt lat="43.30766" lon="2.24507">
        <ele>275.5</ele>
        <time>2022-03-06T08:11:23.000Z</time>
      </trkpt>
      <trkpt lat="43.30767" lon="2.24508">
        <ele>275.5</ele>
        <time>2022-03-06T08:11:24.000Z</time>
      </trkpt>
      <trkpt lat="43.30768" lon="2.24509">
        <ele>275.5</ele>
        <time>2022-03-06T08:11:25.000Z</time>
      </trkpt>
      <trkpt lat="43.3077" lon="2.24511">
        <ele>275.5</ele>
        <time>2022-03-06T08:11:26.000Z</time>
      </trkpt>
      <trkpt lat="43.30771" lon="2.24512">
        <ele>275.5</ele>
        <time>2022-03-06T08:11:27.000Z</time>
      </trkpt>
      <trkpt lat="43.30772" lon="2.24513">
        <ele>275.5</ele>
        <time>2022-03-06T08:11:28.000Z</time>
      </trkpt>
      <trkpt lat="43.30773" lon="2.24515">
        <ele>275.5</ele>
        <time>2022-03-06T08:11:29.000Z</time>
      </trkpt>
      <trkpt lat="43.30774" lon="2.24516">
        <ele>275.6</ele>
        <time>2022-03-06T08:11:30.000Z</time>
      </trkpt>
      <trkpt lat="43.30776" lon="2.24518">
        <ele>275.6</ele>
        <time>2022-03-06T08:11:31.000Z</time>
      </trkpt>
      <trkpt lat="43.30777" lon="2.24519">
        <ele>275.7</ele>
        <time>2022-03-06T08:11:32.000Z</time>
      </trkpt>
      <trkpt lat="43.30778" lon="2.24521">
        <ele>275.7</ele>
        <time>2022-03-06T08:11:33.000Z</time>
      </trkpt>
      <trkpt lat="43.3078" lon="2.24522">
        <ele>275.8</ele>
        <time>2022-03-06T08:11:34.000Z</time>
      </trkpt>
      <trkpt lat="43.30781" lon="2.24524">
        <ele>275.8</ele>
        <time>2022-03-06T08:11:35.000Z</time>
      </trkpt>
      <trkpt lat="43.30783" lon="2.24526">
        <ele>275.9</ele>
        <time>2022-03-06T08:11:36.000Z</time>
      </trkpt>
      <trkpt lat="43.30784" lon="2.24528">
        <ele>276</ele>
        <time>2022-03-06T08:11:37.000Z</time>
      </trkpt>
      <trkpt lat="43.30785" lon="2.24529">
        <ele>276.1</ele>
        <time>2022-03-06T08:11:38.000Z</time>
      </trkpt>
      <trkpt lat="43.30787" lon="2.24531">
        <ele>276.2</ele>
        <time>2022-03-06T08:11:39.000Z</time>
      </trkpt>
      <trkpt lat="43.30788" lon="2.24533">
        <ele>276.3</ele>
        <time>2022-03-06T08:11:40.000Z</time>
      </trkpt>
      <trkpt lat="43.3079" lon="2.24535">
        <ele>276.4</ele>
        <time>2022-03-06T08:11:41.000Z</time>
      </trkpt>
      <trkpt lat="43.30791" lon="2.24536">
        <ele>276.5</ele>
        <time>2022-03-06T08:11:42.000Z</time>
      </trkpt>
      <trkpt lat="43.30793" lon="2.24538">
        <ele>276.6</ele>
        <time>2022-03-06T08:11:43.000Z</time>
      </trkpt>
      <trkpt lat="43.30794" lon="2.2454">
        <ele>276.8</ele>
        <time>2022-03-06T08:11:44.000Z</time>
      </trkpt>
      <trkpt lat="43.30795" lon="2.24541">
        <ele>276.9</ele>
        <time>2022-03-06T08:11:45.000Z</time>
      </trkpt>
      <trkpt lat="43.30797" lon="2.24543">
        <ele>277.1</ele>
        <time>2022-03-06T08:11:46.000Z</time>
      </trkpt>
      <trkpt lat="43.30798" lon="2.24544">
        <ele>277.2</ele>
        <time>2022-03-06T08:11:47.000Z</time>
      </trkpt>
      <trkpt lat="43.30799" lon="2.24546">
        <ele>277.3</ele>
        <time>2022-03-06T08:11:48.000Z</time>
      </trkpt>
      <trkpt lat="43.308" lon="2.24547">
        <ele>277.5</ele>
        <time>2022-03-06T08:11:49.000Z</time>
      </trkpt>
      <trkpt lat="43.30801" lon="2.24548">
        <ele>277.6</ele>
        <time>2022-03-06T08:11:50.000Z</time>
      </trkpt>
      <trkpt lat="43.30803" lon="2.2455">
        <ele>277.8</ele>
        <time>2022-03-06T08:11:51.000Z</time>
      </trkpt>
      <trkpt lat="43.30804" lon="2.24551">
        <ele>277.9</ele>
        <time>2022-03-06T08:11:52.000Z</time>
      </trkpt>
      <trkpt lat="43.30806" lon="2.24553">
        <ele>278.1</ele>
        <time>2022-03-06T08:11:53.000Z</time>
      </trkpt>
      <trkpt lat="43.30807" lon="2.24554">
        <ele>278.2</ele>
        <time>2022-03-06T08:11:54.000Z</time>
      </trkpt>
      <trkpt lat="43.30809" lon="2.24556">
        <ele>278.4</ele>
        <time>2022-03-06T08:11:55.000Z</time>
      </trkpt>
      <trkpt lat="43.30811" lon="2.24557">
        <ele>278.5</ele>
        <time>2022-03-06T08:11:56.000Z</time>
      </trkpt>
      <trkpt lat="43.30813" lon="2.24558">
        <ele>278.7</ele>
        <time>2022-03-06T08:11:57.000Z</time>
      </trkpt>
      <trkpt lat="43.30814" lon="2.2456">
        <ele>278.9</ele>
        <time>2022-03-06T08:11:58.000Z</time>
      </trkpt>
      <trkpt lat="43.30816" lon="2.24561">
        <ele>279.1</ele>
        <time>2022-03-06T08:11:59.000Z</time>
      </trkpt>
      <trkpt lat="43.30818" lon="2.24563">
        <ele>279.3</ele>
        <time>2022-03-06T08:12:00.000Z</time>
      </trkpt>
      <trkpt lat="43.30819" lon="2.24564">
        <ele>279.5</ele>
        <time>2022-03-06T08:12:01.000Z</time>
      </trkpt>
      <trkpt lat="43.30821" lon="2.24566">
        <ele>279.8</ele>
        <time>2022-03-06T08:12:02.000Z</time>
      </trkpt>
      <trkpt lat="43.30823" lon="2.24567">
        <ele>280</ele>
        <time>2022-03-06T08:12:03.000Z</time>
      </trkpt>
      <trkpt lat="43.30825" lon="2.24569">
        <ele>280.2</ele>
        <time>2022-03-06T08:12:04.000Z</time>
      </trkpt>
      <trkpt lat="43.30826" lon="2.2457">
        <ele>280.5</ele>
        <time>2022-03-06T08:12:05.000Z</time>
      </trkpt>
      <trkpt lat="43.30828" lon="2.24572">
        <ele>280.7</ele>
        <time>2022-03-06T08:12:06.000Z</time>
      </trkpt>
      <trkpt lat="43.3083" lon="2.24573">
        <ele>281</ele>
        <time>2022-03-06T08:12:07.000Z</time>
      </trkpt>
      <trkpt lat="43.30832" lon="2.24575">
        <ele>281.2</ele>
        <time>2022-03-06T08:12:08.000Z</time>
      </trkpt>
      <trkpt lat="43.30833" lon="2.24576">
        <ele>281.5</ele>
        <time>2022-03-06T08:12:09.000Z</time>
      </trkpt>
      <trkpt lat="43.30835" lon="2.24577">
        <ele>281.7</ele>
        <time>2022-03-06T08:12:10.000Z</time>
      </trkpt>
      <trkpt lat="43.30837" lon="2.24578">
        <ele>281.8</ele>
        <time>2022-03-06T08:12:11.000Z</time>
      </trkpt>
      <trkpt lat="43.30839" lon="2.2458">
        <ele>282</ele>
        <time>2022-03-06T08:12:12.000Z</time>
      </trkpt>
      <trkpt lat="43.3084" lon="2.24581">
        <ele>282.2</ele>
        <time>2022-03-06T08:12:13.000Z</time>
      </trkpt>
      <trkpt lat="43.30842" lon="2.24582">
        <ele>282.3</ele>
        <time>2022-03-06T08:12:14.000Z</time>
      </trkpt>
      <trkpt lat="43.30844" lon="2.24583">
        <ele>282.5</ele>
        <time>2022-03-06T08:12:15.000Z</time>
      </trkpt>
      <trkpt lat="43.30846" lon="2.24585">
        <ele>282.5</ele>
        <time>2022-03-06T08:12:16.000Z</time>
      </trkpt>
      <trkpt lat="43.30848" lon="2.24586">
        <ele>282.5</ele>
        <time>2022-03-06T08:12:17.000Z</time>
      </trkpt>
      <trkpt lat="43.3085" lon="2.24587">
        <ele>282.5</ele>
        <time>2022-03-06T08:12:18.000Z</time>
      </trkpt>
      <trkpt lat="43.30852" lon="2.24588">
        <ele>282.5</ele>
        <time>2022-03-06T08:12:19.000Z</time>
      </trkpt>
      <trkpt lat="43.30854" lon="2.24589">
        <ele>282.5</ele>
        <time>2022-03-06T08:12:20.000Z</time>
      </trkpt>
      <trkpt lat="43.30856" lon="2.2459">
        <ele>282.5</ele>
        <time>2022-03-06T08:12:21.000Z</time>
      </trkpt>
      <trkpt lat="43.30858" lon="2.24591">
        <ele>282.5</ele>
        <time>2022-03-06T08:12:22.000Z</time>
      </trkpt>
      <trkpt lat="43.3086" lon="2.24593">
        <ele>282.5</ele>
        <time>2022-03-06T08:12:23.000Z</time>
      </trkpt>
      <trkpt lat="43.30862" lon="2.24594">
        <ele>282.5</ele>
        <time>2022-03-06T08:12:24.000Z</time>
      </trkpt>
      <trkpt lat="43.30864" lon="2.24595">
        <ele>282.6</ele>
        <time>2022-03-06T08:12:25.000Z</time>
      </trkpt>
      <trkpt lat="43.30866" lon="2.24596">
        <ele>282.6</ele>
        <time>2022-03-06T08:12:26.000Z</time>
      </trkpt>
      <trkpt lat="43.30868" lon="2.24597">
        <ele>282.6</ele>
        <time>2022-03-06T08:12:27.000Z</time>
      </trkpt>
      <trkpt lat="43.3087" lon="2.24598">
        <ele>282.7</ele>
        <time>2022-03-06T08:12:28.000Z</time>
      </trkpt>
      <trkpt lat="43.30872" lon="2.24599">
        <ele>282.7</ele>
        <time>2022-03-06T08:12:29.000Z</time>
      </trkpt>
      <trkpt lat="43.30874" lon="2.246">
        <ele>282.7</ele>
        <time>2022-03-06T08:12:30.000Z</time>
      </trkpt>
      <trkpt lat="43.30876" lon="2.24601">
        <ele>282.8</ele>
        <time>2022-03-06T08:12:31.000Z</time>
      </trkpt>
      <trkpt lat="43.30878" lon="2.24602">
        <ele>282.8</ele>
        <time>2022-03-06T08:12:32.000Z</time>
      </trkpt>
      <trkpt lat="43.30881" lon="2.24602">
        <ele>282.8</ele>
        <time>2022-03-06T08:12:33.000Z</time>
      </trkpt>
      <trkpt lat="43.30883" lon="2.24603">
        <ele>282.7</ele>
        <time>2022-03-06T08:12:34.000Z</time>
      </trkpt>
      <trkpt lat="43.30885" lon="2.24603">
        <ele>282.7</ele>
        <time>2022-03-06T08:12:35.000Z</time>
      </trkpt>
      <trkpt lat="43.30887" lon="2.24603">
        <ele>282.7</ele>
        <time>2022-03-06T08:12:36.000Z</time>
      </trkpt>
      <trkpt lat="43.30889" lon="2.24604">
        <ele>282.7</ele>
        <time>2022-03-06T08:12:37.000Z</time>
      </trkpt>
      <trkpt lat="43.30891" lon="2.24604">
        <ele>282.7</ele>
        <time>2022-03-06T08:12:38.000Z</time>
      </trkpt>
      <trkpt lat="43.30893" lon="2.24605">
        <ele>282.7</ele>
        <time>2022-03-06T08:12:39.000Z</time>
      </trkpt>
      <trkpt lat="43.30895" lon="2.24606">
        <ele>282.8</ele>
        <time>2022-03-06T08:12:40.000Z</time>
      </trkpt>
      <trkpt lat="43.30897" lon="2.24607">
        <ele>282.9</ele>
        <time>2022-03-06T08:12:41.000Z</time>
      </trkpt>
      <trkpt lat="43.309" lon="2.24608">
        <ele>282.9</ele>
        <time>2022-03-06T08:12:42.000Z</time>
      </trkpt>
      <trkpt lat="43.30902" lon="2.24609">
        <ele>283</ele>
        <time>2022-03-06T08:12:43.000Z</time>
      </trkpt>
      <trkpt lat="43.30904" lon="2.2461">
        <ele>283.1</ele>
        <time>2022-03-06T08:12:44.000Z</time>
      </trkpt>
      <trkpt lat="43.30905" lon="2.24611">
        <ele>283.2</ele>
        <time>2022-03-06T08:12:45.000Z</time>
      </trkpt>
      <trkpt lat="43.30907" lon="2.24612">
        <ele>283.3</ele>
        <time>2022-03-06T08:12:46.000Z</time>
      </trkpt>
      <trkpt lat="43.30909" lon="2.24613">
        <ele>283.4</ele>
        <time>2022-03-06T08:12:47.000Z</time>
      </trkpt>
      <trkpt lat="43.30911" lon="2.24614">
        <ele>283.5</ele>
        <time>2022-03-06T08:12:48.000Z</time>
      </trkpt>
      <trkpt lat="43.30912" lon="2.24615">
        <ele>283.6</ele>
        <time>2022-03-06T08:12:49.000Z</time>
      </trkpt>
      <trkpt lat="43.30914" lon="2.24616">
        <ele>283.7</ele>
        <time>2022-03-06T08:12:50.000Z</time>
      </trkpt>
      <trkpt lat="43.30916" lon="2.24617">
        <ele>283.9</ele>
        <time>2022-03-06T08:12:51.000Z</time>
      </trkpt>
      <trkpt lat="43.30917" lon="2.24618">
        <ele>284.1</ele>
        <time>2022-03-06T08:12:52.000Z</time>
      </trkpt>
      <trkpt lat="43.30919" lon="2.24619">
        <ele>284.3</ele>
        <time>2022-03-06T08:12:53.000Z</time>
      </trkpt>
      <trkpt lat="43.30921" lon="2.24621">
        <ele>284.6</ele>
        <time>2022-03-06T08:12:54.000Z</time>
      </trkpt>
      <trkpt lat="43.30922" lon="2.24622">
        <ele>284.9</ele>
        <time>2022-03-06T08:12:55.000Z</time>
      </trkpt>
      <trkpt lat="43.30924" lon="2.24623">
        <ele>285.2</ele>
        <time>2022-03-06T08:12:56.000Z</time>
      </trkpt>
      <trkpt lat="43.30926" lon="2.24625">
        <ele>285.5</ele>
        <time>2022-03-06T08:12:57.000Z</time>
      </trkpt>
      <trkpt lat="43.30927" lon="2.24626">
        <ele>285.8</ele>
        <time>2022-03-06T08:12:58.000Z</time>
      </trkpt>
      <trkpt lat="43.30929" lon="2.24627">
        <ele>286.1</ele>
        <time>2022-03-06T08:12:59.000Z</time>
      </trkpt>
      <trkpt lat="43.30931" lon="2.24629">
        <ele>286.5</ele>
        <time>2022-03-06T08:13:00.000Z</time>
      </trkpt>
      <trkpt lat="43.30932" lon="2.2463">
        <ele>286.8</ele>
        <time>2022-03-06T08:13:01.000Z</time>
      </trkpt>
      <trkpt lat="43.30934" lon="2.24632">
        <ele>287.1</ele>
        <time>2022-03-06T08:13:02.000Z</time>
      </trkpt>
      <trkpt lat="43.30936" lon="2.24634">
        <ele>287.4</ele>
        <time>2022-03-06T08:13:03.000Z</time>
      </trkpt>
      <trkpt lat="43.30938" lon="2.24635">
        <ele>287.8</ele>
        <time>2022-03-06T08:13:04.000Z</time>
      </trkpt>
      <trkpt lat="43.30939" lon="2.24637">
        <ele>288.1</ele>
        <time>2022-03-06T08:13:05.000Z</time>
      </trkpt>
      <trkpt lat="43.30941" lon="2.24639">
        <ele>288.5</ele>
        <time>2022-03-06T08:13:06.000Z</time>
      </trkpt>
      <trkpt lat="43.30943" lon="2.24641">
        <ele>288.8</ele>
        <time>2022-03-06T08:13:07.000Z</time>
      </trkpt>
      <trkpt lat="43.30945" lon="2.24642">
        <ele>289.1</ele>
        <time>2022-03-06T08:13:08.000Z</time>
      </trkpt>
      <trkpt lat="43.30946" lon="2.24644">
        <ele>289.4</ele>
        <time>2022-03-06T08:13:09.000Z</time>
      </trkpt>
      <trkpt lat="43.30948" lon="2.24645">
        <ele>289.7</ele>
        <time>2022-03-06T08:13:10.000Z</time>
      </trkpt>
      <trkpt lat="43.3095" lon="2.24646">
        <ele>289.9</ele>
        <time>2022-03-06T08:13:11.000Z</time>
      </trkpt>
      <trkpt lat="43.30952" lon="2.24646">
        <ele>290</ele>
        <time>2022-03-06T08:13:12.000Z</time>
      </trkpt>
      <trkpt lat="43.30954" lon="2.24646">
        <ele>290.1</ele>
        <time>2022-03-06T08:13:13.000Z</time>
      </trkpt>
      <trkpt lat="43.30956" lon="2.24645">
        <ele>290.2</ele>
        <time>2022-03-06T08:13:14.000Z</time>
      </trkpt>
      <trkpt lat="43.30958" lon="2.24645">
        <ele>290.2</ele>
        <time>2022-03-06T08:13:15.000Z</time>
      </trkpt>
      <trkpt lat="43.30961" lon="2.24644">
        <ele>290.2</ele>
        <time>2022-03-06T08:13:16.000Z</time>
      </trkpt>
      <trkpt lat="43.30963" lon="2.24643">
        <ele>290.2</ele>
        <time>2022-03-06T08:13:17.000Z</time>
      </trkpt>
      <trkpt lat="43.30965" lon="2.24642">
        <ele>290.2</ele>
        <time>2022-03-06T08:13:18.000Z</time>
      </trkpt>
      <trkpt lat="43.30967" lon="2.24641">
        <ele>290.2</ele>
        <time>2022-03-06T08:13:19.000Z</time>
      </trkpt>
      <trkpt lat="43.30969" lon="2.2464">
        <ele>290.3</ele>
        <time>2022-03-06T08:13:20.000Z</time>
      </trkpt>
      <trkpt lat="43.30971" lon="2.24639">
        <ele>290.3</ele>
        <time>2022-03-06T08:13:21.000Z</time>
      </trkpt>
      <trkpt lat="43.30973" lon="2.24639">
        <ele>290.4</ele>
        <time>2022-03-06T08:13:22.000Z</time>
      </trkpt>
      <trkpt lat="43.30975" lon="2.24639">
        <ele>290.5</ele>
        <time>2022-03-06T08:13:23.000Z</time>
      </trkpt>
      <trkpt lat="43.30977" lon="2.24639">
        <ele>290.6</ele>
        <time>2022-03-06T08:13:24.000Z</time>
      </trkpt>
      <trkpt lat="43.30979" lon="2.24639">
        <ele>290.7</ele>
        <time>2022-03-06T08:13:25.000Z</time>
      </trkpt>
      <trkpt lat="43.3098" lon="2.24638">
        <ele>290.8</ele>
        <time>2022-03-06T08:13:26.000Z</time>
      </trkpt>
      <trkpt lat="43.30982" lon="2.24638">
        <ele>290.9</ele>
        <time>2022-03-06T08:13:27.000Z</time>
      </trkpt>
      <trkpt lat="43.30984" lon="2.24638">
        <ele>291</ele>
        <time>2022-03-06T08:13:28.000Z</time>
      </trkpt>
      <trkpt lat="43.30986" lon="2.24638">
        <ele>291.1</ele>
        <time>2022-03-06T08:13:29.000Z</time>
      </trkpt>
      <trkpt lat="43.30988" lon="2.24638">
        <ele>291.1</ele>
        <time>2022-03-06T08:13:30.000Z</time>
      </trkpt>
      <trkpt lat="43.30989" lon="2.24638">
        <ele>291.2</ele>
        <time>2022-03-06T08:13:31.000Z</time>
      </trkpt>
      <trkpt lat="43.30991" lon="2.24638">
        <ele>291.3</ele>
        <time>2022-03-06T08:13:32.000Z</time>
      </trkpt>
      <trkpt lat="43.30993" lon="2.24638">
        <ele>291.4</ele>
        <time>2022-03-06T08:13:33.000Z</time>
      </trkpt>
      <trkpt lat="43.30995" lon="2.24638">
        <ele>291.5</ele>
        <time>2022-03-06T08:13:34.000Z</time>
      </trkpt>
      <trkpt lat="43.30997" lon="2.24638">
        <ele>291.7</ele>
        <time>2022-03-06T08:13:35.000Z</time>
      </trkpt>
      <trkpt lat="43.30999" lon="2.24637">
        <ele>291.7</ele>
        <time>2022-03-06T08:13:36.000Z</time>
      </trkpt>
      <trkpt lat="43.31001" lon="2.24637">
        <ele>291.9</ele>
        <time>2022-03-06T08:13:37.000Z</time>
      </trkpt>
      <trkpt lat="43.31003" lon="2.24637">
        <ele>292</ele>
        <time>2022-03-06T08:13:38.000Z</time>
      </trkpt>
      <trkpt lat="43.31005" lon="2.24637">
        <ele>292.1</ele>
        <time>2022-03-06T08:13:39.000Z</time>
      </trkpt>
      <trkpt lat="43.31007" lon="2.24637">
        <ele>292.2</ele>
        <time>2022-03-06T08:13:40.000Z</time>
      </trkpt>
      <trkpt lat="43.31009" lon="2.24637">
        <ele>292.3</ele>
        <time>2022-03-06T08:13:41.000Z</time>
      </trkpt>
      <trkpt lat="43.31011" lon="2.24636">
        <ele>292.4</ele>
        <time>2022-03-06T08:13:42.000Z</time>
      </trkpt>
      <trkpt lat="43.31013" lon="2.24636">
        <ele>292.5</ele>
        <time>2022-03-06T08:13:43.000Z</time>
      </trkpt>
      <trkpt lat="43.31015" lon="2.24636">
        <ele>292.7</ele>
        <time>2022-03-06T08:13:44.000Z</time>
      </trkpt>
      <trkpt lat="43.31017" lon="2.24636">
        <ele>292.8</ele>
        <time>2022-03-06T08:13:45.000Z</time>
      </trkpt>
      <trkpt lat="43.31019" lon="2.24635">
        <ele>292.9</ele>
        <time>2022-03-06T08:13:46.000Z</time>
      </trkpt>
      <trkpt lat="43.31021" lon="2.24635">
        <ele>293</ele>
        <time>2022-03-06T08:13:47.000Z</time>
      </trkpt>
      <trkpt lat="43.31022" lon="2.24635">
        <ele>293</ele>
        <time>2022-03-06T08:13:48.000Z</time>
      </trkpt>
      <trkpt lat="43.31024" lon="2.24634">
        <ele>293.1</ele>
        <time>2022-03-06T08:13:49.000Z</time>
      </trkpt>
      <trkpt lat="43.31025" lon="2.24634">
        <ele>293.2</ele>
        <time>2022-03-06T08:13:50.000Z</time>
      </trkpt>
      <trkpt lat="43.31027" lon="2.24634">
        <ele>293.2</ele>
        <time>2022-03-06T08:13:51.000Z</time>
      </trkpt>
      <trkpt lat="43.31028" lon="2.24633">
        <ele>293.3</ele>
        <time>2022-03-06T08:13:52.000Z</time>
      </trkpt>
      <trkpt lat="43.31029" lon="2.24633">
        <ele>293.3</ele>
        <time>2022-03-06T08:13:53.000Z</time>
      </trkpt>
      <trkpt lat="43.31031" lon="2.24632">
        <ele>293.4</ele>
        <time>2022-03-06T08:13:54.000Z</time>
      </trkpt>
      <trkpt lat="43.31032" lon="2.24632">
        <ele>293.4</ele>
        <time>2022-03-06T08:13:55.000Z</time>
      </trkpt>
      <trkpt lat="43.31033" lon="2.24631">
        <ele>293.5</ele>
        <time>2022-03-06T08:13:56.000Z</time>
      </trkpt>
      <trkpt lat="43.31035" lon="2.24631">
        <ele>293.5</ele>
        <time>2022-03-06T08:13:57.000Z</time>
      </trkpt>
      <trkpt lat="43.31036" lon="2.2463">
        <ele>293.6</ele>
        <time>2022-03-06T08:13:58.000Z</time>
      </trkpt>
      <trkpt lat="43.31037" lon="2.2463">
        <ele>293.6</ele>
        <time>2022-03-06T08:13:59.000Z</time>
      </trkpt>
      <trkpt lat="43.31039" lon="2.24629">
        <ele>293.7</ele>
        <time>2022-03-06T08:14:00.000Z</time>
      </trkpt>
      <trkpt lat="43.3104" lon="2.24629">
        <ele>293.7</ele>
        <time>2022-03-06T08:14:01.000Z</time>
      </trkpt>
      <trkpt lat="43.31042" lon="2.24628">
        <ele>293.8</ele>
        <time>2022-03-06T08:14:02.000Z</time>
      </trkpt>
      <trkpt lat="43.31043" lon="2.24628">
        <ele>293.8</ele>
        <time>2022-03-06T08:14:03.000Z</time>
      </trkpt>
      <trkpt lat="43.31045" lon="2.24627">
        <ele>293.9</ele>
        <time>2022-03-06T08:14:04.000Z</time>
      </trkpt>
      <trkpt lat="43.31046" lon="2.24627">
        <ele>294</ele>
        <time>2022-03-06T08:14:05.000Z</time>
      </trkpt>
      <trkpt lat="43.31048" lon="2.24627">
        <ele>294.1</ele>
        <time>2022-03-06T08:14:06.000Z</time>
      </trkpt>
      <trkpt lat="43.31049" lon="2.24626">
        <ele>294.2</ele>
        <time>2022-03-06T08:14:07.000Z</time>
      </trkpt>
      <trkpt lat="43.31051" lon="2.24626">
        <ele>294.3</ele>
        <time>2022-03-06T08:14:08.000Z</time>
      </trkpt>
      <trkpt lat="43.31053" lon="2.24626">
        <ele>294.3</ele>
        <time>2022-03-06T08:14:09.000Z</time>
      </trkpt>
      <trkpt lat="43.31054" lon="2.24626">
        <ele>294.5</ele>
        <time>2022-03-06T08:14:10.000Z</time>
      </trkpt>
      <trkpt lat="43.31056" lon="2.24625">
        <ele>294.6</ele>
        <time>2022-03-06T08:14:11.000Z</time>
      </trkpt>
      <trkpt lat="43.31058" lon="2.24625">
        <ele>294.7</ele>
        <time>2022-03-06T08:14:12.000Z</time>
      </trkpt>
      <trkpt lat="43.31059" lon="2.24625">
        <ele>294.8</ele>
        <time>2022-03-06T08:14:13.000Z</time>
      </trkpt>
      <trkpt lat="43.31061" lon="2.24625">
        <ele>294.9</ele>
        <time>2022-03-06T08:14:14.000Z</time>
      </trkpt>
      <trkpt lat="43.31063" lon="2.24625">
        <ele>295</ele>
        <time>2022-03-06T08:14:15.000Z</time>
      </trkpt>
      <trkpt lat="43.31064" lon="2.24625">
        <ele>295.1</ele>
        <time>2022-03-06T08:14:16.000Z</time>
      </trkpt>
      <trkpt lat="43.31065" lon="2.24625">
        <ele>295.2</ele>
        <time>2022-03-06T08:14:17.000Z</time>
      </trkpt>
      <trkpt lat="43.31067" lon="2.24625">
        <ele>295.3</ele>
        <time>2022-03-06T08:14:18.000Z</time>
      </trkpt>
      <trkpt lat="43.31068" lon="2.24625">
        <ele>295.4</ele>
        <time>2022-03-06T08:14:19.000Z</time>
      </trkpt>
      <trkpt lat="43.31069" lon="2.24625">
        <ele>295.5</ele>
        <time>2022-03-06T08:14:20.000Z</time>
      </trkpt>
      <trkpt lat="43.31071" lon="2.24624">
        <ele>295.5</ele>
        <time>2022-03-06T08:14:21.000Z</time>
      </trkpt>
      <trkpt lat="43.31072" lon="2.24624">
        <ele>295.6</ele>
        <time>2022-03-06T08:14:22.000Z</time>
      </trkpt>
      <trkpt lat="43.31073" lon="2.24624">
        <ele>295.7</ele>
        <time>2022-03-06T08:14:23.000Z</time>
      </trkpt>
      <trkpt lat="43.31075" lon="2.24624">
        <ele>295.8</ele>
        <time>2022-03-06T08:14:24.000Z</time>
      </trkpt>
      <trkpt lat="43.31077" lon="2.24623">
        <ele>295.9</ele>
        <time>2022-03-06T08:14:25.000Z</time>
      </trkpt>
      <trkpt lat="43.31078" lon="2.24623">
        <ele>296</ele>
        <time>2022-03-06T08:14:26.000Z</time>
      </trkpt>
      <trkpt lat="43.3108" lon="2.24623">
        <ele>296.1</ele>
        <time>2022-03-06T08:14:27.000Z</time>
      </trkpt>
      <trkpt lat="43.31081" lon="2.24622">
        <ele>296.2</ele>
        <time>2022-03-06T08:14:28.000Z</time>
      </trkpt>
      <trkpt lat="43.31082" lon="2.24622">
        <ele>296.2</ele>
        <time>2022-03-06T08:14:29.000Z</time>
      </trkpt>
      <trkpt lat="43.31084" lon="2.24622">
        <ele>296.3</ele>
        <time>2022-03-06T08:14:30.000Z</time>
      </trkpt>
      <trkpt lat="43.31085" lon="2.24621">
        <ele>296.4</ele>
        <time>2022-03-06T08:14:31.000Z</time>
      </trkpt>
      <trkpt lat="43.31086" lon="2.24621">
        <ele>296.5</ele>
        <time>2022-03-06T08:14:32.000Z</time>
      </trkpt>
      <trkpt lat="43.31087" lon="2.24621">
        <ele>296.6</ele>
        <time>2022-03-06T08:14:33.000Z</time>
      </trkpt>
      <trkpt lat="43.31089" lon="2.2462">
        <ele>296.8</ele>
        <time>2022-03-06T08:14:34.000Z</time>
      </trkpt>
      <trkpt lat="43.3109" lon="2.2462">
        <ele>296.9</ele>
        <time>2022-03-06T08:14:35.000Z</time>
      </trkpt>
      <trkpt lat="43.31092" lon="2.24619">
        <ele>297</ele>
        <time>2022-03-06T08:14:36.000Z</time>
      </trkpt>
      <trkpt lat="43.31094" lon="2.24619">
        <ele>297.2</ele>
        <time>2022-03-06T08:14:37.000Z</time>
      </trkpt>
      <trkpt lat="43.31096" lon="2.24618">
        <ele>297.4</ele>
        <time>2022-03-06T08:14:38.000Z</time>
      </trkpt>
      <trkpt lat="43.31098" lon="2.24618">
        <ele>297.6</ele>
        <time>2022-03-06T08:14:39.000Z</time>
      </trkpt>
      <trkpt lat="43.311" lon="2.24617">
        <ele>297.7</ele>
        <time>2022-03-06T08:14:40.000Z</time>
      </trkpt>
      <trkpt lat="43.31102" lon="2.24616">
        <ele>297.9</ele>
        <time>2022-03-06T08:14:41.000Z</time>
      </trkpt>
      <trkpt lat="43.31104" lon="2.24615">
        <ele>298.1</ele>
        <time>2022-03-06T08:14:42.000Z</time>
      </trkpt>
      <trkpt lat="43.31107" lon="2.24615">
        <ele>298.4</ele>
        <time>2022-03-06T08:14:43.000Z</time>
      </trkpt>
      <trkpt lat="43.31109" lon="2.24614">
        <ele>298.6</ele>
        <time>2022-03-06T08:14:44.000Z</time>
      </trkpt>
      <trkpt lat="43.31111" lon="2.24614">
        <ele>298.8</ele>
        <time>2022-03-06T08:14:45.000Z</time>
      </trkpt>
      <trkpt lat="43.31113" lon="2.24613">
        <ele>299</ele>
        <time>2022-03-06T08:14:46.000Z</time>
      </trkpt>
      <trkpt lat="43.31115" lon="2.24613">
        <ele>299.1</ele>
        <time>2022-03-06T08:14:47.000Z</time>
      </trkpt>
      <trkpt lat="43.31117" lon="2.24613">
        <ele>299.3</ele>
        <time>2022-03-06T08:14:48.000Z</time>
      </trkpt>
      <trkpt lat="43.31119" lon="2.24613">
        <ele>299.5</ele>
        <time>2022-03-06T08:14:49.000Z</time>
      </trkpt>
      <trkpt lat="43.3112" lon="2.24612">
        <ele>299.7</ele>
        <time>2022-03-06T08:14:50.000Z</time>
      </trkpt>
      <trkpt lat="43.31122" lon="2.24612">
        <ele>299.9</ele>
        <time>2022-03-06T08:14:51.000Z</time>
      </trkpt>
      <trkpt lat="43.31124" lon="2.24612">
        <ele>300.1</ele>
        <time>2022-03-06T08:14:52.000Z</time>
      </trkpt>
      <trkpt lat="43.31126" lon="2.24612">
        <ele>300.3</ele>
        <time>2022-03-06T08:14:53.000Z</time>
      </trkpt>
      <trkpt lat="43.31127" lon="2.24612">
        <ele>300.4</ele>
        <time>2022-03-06T08:14:54.000Z</time>
      </trkpt>
      <trkpt lat="43.31129" lon="2.24611">
        <ele>300.6</ele>
        <time>2022-03-06T08:14:55.000Z</time>
      </trkpt>
      <trkpt lat="43.31131" lon="2.24611">
        <ele>300.8</ele>
        <time>2022-03-06T08:14:56.000Z</time>
      </trkpt>
      <trkpt lat="43.31133" lon="2.24611">
        <ele>301</ele>
        <time>2022-03-06T08:14:57.000Z</time>
      </trkpt>
      <trkpt lat="43.31134" lon="2.24611">
        <ele>301.2</ele>
        <time>2022-03-06T08:14:58.000Z</time>
      </trkpt>
      <trkpt lat="43.31136" lon="2.2461">
        <ele>301.3</ele>
        <time>2022-03-06T08:14:59.000Z</time>
      </trkpt>
      <trkpt lat="43.31138" lon="2.2461">
        <ele>301.5</ele>
        <time>2022-03-06T08:15:00.000Z</time>
      </trkpt>
      <trkpt lat="43.3114" lon="2.2461">
        <ele>301.7</ele>
        <time>2022-03-06T08:15:01.000Z</time>
      </trkpt>
      <trkpt lat="43.31141" lon="2.2461">
        <ele>301.9</ele>
        <time>2022-03-06T08:15:02.000Z</time>
      </trkpt>
      <trkpt lat="43.31143" lon="2.24609">
        <ele>302.1</ele>
        <time>2022-03-06T08:15:03.000Z</time>
      </trkpt>
      <trkpt lat="43.31145" lon="2.24609">
        <ele>302.2</ele>
        <time>2022-03-06T08:15:04.000Z</time>
      </trkpt>
      <trkpt lat="43.31147" lon="2.24609">
        <ele>302.4</ele>
        <time>2022-03-06T08:15:05.000Z</time>
      </trkpt>
      <trkpt lat="43.31148" lon="2.24608">
        <ele>302.6</ele>
        <time>2022-03-06T08:15:06.000Z</time>
      </trkpt>
      <trkpt lat="43.3115" lon="2.24608">
        <ele>302.8</ele>
        <time>2022-03-06T08:15:07.000Z</time>
      </trkpt>
      <trkpt lat="43.31152" lon="2.24608">
        <ele>303</ele>
        <time>2022-03-06T08:15:08.000Z</time>
      </trkpt>
      <trkpt lat="43.31154" lon="2.24607">
        <ele>303.2</ele>
        <time>2022-03-06T08:15:09.000Z</time>
      </trkpt>
      <trkpt lat="43.31156" lon="2.24607">
        <ele>303.4</ele>
        <time>2022-03-06T08:15:10.000Z</time>
      </trkpt>
      <trkpt lat="43.31158" lon="2.24606">
        <ele>303.6</ele>
        <time>2022-03-06T08:15:11.000Z</time>
      </trkpt>
      <trkpt lat="43.3116" lon="2.24606">
        <ele>303.8</ele>
        <time>2022-03-06T08:15:12.000Z</time>
      </trkpt>
      <trkpt lat="43.31162" lon="2.24605">
        <ele>304</ele>
        <time>2022-03-06T08:15:13.000Z</time>
      </trkpt>
      <trkpt lat="43.31164" lon="2.24605">
        <ele>304.2</ele>
        <time>2022-03-06T08:15:14.000Z</time>
      </trkpt>
      <trkpt lat="43.31166" lon="2.24604">
        <ele>304.4</ele>
        <time>2022-03-06T08:15:15.000Z</time>
      </trkpt>
      <trkpt lat="43.31168" lon="2.24603">
        <ele>304.5</ele>
        <time>2022-03-06T08:15:16.000Z</time>
      </trkpt>
      <trkpt lat="43.3117" lon="2.24603">
        <ele>304.6</ele>
        <time>2022-03-06T08:15:17.000Z</time>
      </trkpt>
      <trkpt lat="43.31172" lon="2.24602">
        <ele>304.7</ele>
        <time>2022-03-06T08:15:18.000Z</time>
      </trkpt>
      <trkpt lat="43.31174" lon="2.24602">
        <ele>304.8</ele>
        <time>2022-03-06T08:15:19.000Z</time>
      </trkpt>
      <trkpt lat="43.31176" lon="2.24601">
        <ele>304.9</ele>
        <time>2022-03-06T08:15:20.000Z</time>
      </trkpt>
      <trkpt lat="43.31178" lon="2.24601">
        <ele>305</ele>
        <time>2022-03-06T08:15:21.000Z</time>
      </trkpt>
      <trkpt lat="43.3118" lon="2.24601">
        <ele>305.1</ele>
        <time>2022-03-06T08:15:22.000Z</time>
      </trkpt>
      <trkpt lat="43.31182" lon="2.246">
        <ele>305.2</ele>
        <time>2022-03-06T08:15:23.000Z</time>
      </trkpt>
      <trkpt lat="43.31184" lon="2.246">
        <ele>305.3</ele>
        <time>2022-03-06T08:15:24.000Z</time>
      </trkpt>
      <trkpt lat="43.31186" lon="2.246">
        <ele>305.4</ele>
        <time>2022-03-06T08:15:25.000Z</time>
      </trkpt>
      <trkpt lat="43.31187" lon="2.246">
        <ele>305.5</ele>
        <time>2022-03-06T08:15:26.000Z</time>
      </trkpt>
      <trkpt lat="43.31189" lon="2.246">
        <ele>305.6</ele>
        <time>2022-03-06T08:15:27.000Z</time>
      </trkpt>
      <trkpt lat="43.31191" lon="2.246">
        <ele>305.7</ele>
        <time>2022-03-06T08:15:28.000Z</time>
      </trkpt>
      <trkpt lat="43.31193" lon="2.246">
        <ele>305.8</ele>
        <time>2022-03-06T08:15:29.000Z</time>
      </trkpt>
      <trkpt lat="43.31195" lon="2.246">
        <ele>305.9</ele>
        <time>2022-03-06T08:15:30.000Z</time>
      </trkpt>
      <trkpt lat="43.31196" lon="2.246">
        <ele>306</ele>
        <time>2022-03-06T08:15:31.000Z</time>
      </trkpt>
      <trkpt lat="43.31198" lon="2.24599">
        <ele>306.1</ele>
        <time>2022-03-06T08:15:32.000Z</time>
      </trkpt>
      <trkpt lat="43.312" lon="2.24599">
        <ele>306.2</ele>
        <time>2022-03-06T08:15:33.000Z</time>
      </trkpt>
      <trkpt lat="43.31202" lon="2.24599">
        <ele>306.3</ele>
        <time>2022-03-06T08:15:34.000Z</time>
      </trkpt>
      <trkpt lat="43.31204" lon="2.24599">
        <ele>306.4</ele>
        <time>2022-03-06T08:15:35.000Z</time>
      </trkpt>
      <trkpt lat="43.31205" lon="2.24598">
        <ele>306.5</ele>
        <time>2022-03-06T08:15:36.000Z</time>
      </trkpt>
      <trkpt lat="43.31207" lon="2.24598">
        <ele>306.6</ele>
        <time>2022-03-06T08:15:37.000Z</time>
      </trkpt>
      <trkpt lat="43.31209" lon="2.24598">
        <ele>306.7</ele>
        <time>2022-03-06T08:15:38.000Z</time>
      </trkpt>
      <trkpt lat="43.31211" lon="2.24597">
        <ele>306.8</ele>
        <time>2022-03-06T08:15:39.000Z</time>
      </trkpt>
      <trkpt lat="43.31213" lon="2.24597">
        <ele>306.9</ele>
        <time>2022-03-06T08:15:40.000Z</time>
      </trkpt>
      <trkpt lat="43.31215" lon="2.24596">
        <ele>307</ele>
        <time>2022-03-06T08:15:41.000Z</time>
      </trkpt>
      <trkpt lat="43.31217" lon="2.24595">
        <ele>307.1</ele>
        <time>2022-03-06T08:15:42.000Z</time>
      </trkpt>
      <trkpt lat="43.31218" lon="2.24595">
        <ele>307.2</ele>
        <time>2022-03-06T08:15:43.000Z</time>
      </trkpt>
      <trkpt lat="43.3122" lon="2.24594">
        <ele>307.3</ele>
        <time>2022-03-06T08:15:44.000Z</time>
      </trkpt>
      <trkpt lat="43.31222" lon="2.24594">
        <ele>307.4</ele>
        <time>2022-03-06T08:15:45.000Z</time>
      </trkpt>
      <trkpt lat="43.31224" lon="2.24593">
        <ele>307.5</ele>
        <time>2022-03-06T08:15:46.000Z</time>
      </trkpt>
      <trkpt lat="43.31226" lon="2.24592">
        <ele>307.6</ele>
        <time>2022-03-06T08:15:47.000Z</time>
      </trkpt>
      <trkpt lat="43.31228" lon="2.24592">
        <ele>307.7</ele>
        <time>2022-03-06T08:15:48.000Z</time>
      </trkpt>
      <trkpt lat="43.31229" lon="2.24591">
        <ele>307.8</ele>
        <time>2022-03-06T08:15:49.000Z</time>
      </trkpt>
      <trkpt lat="43.31231" lon="2.2459">
        <ele>307.9</ele>
        <time>2022-03-06T08:15:50.000Z</time>
      </trkpt>
      <trkpt lat="43.31233" lon="2.2459">
        <ele>308</ele>
        <time>2022-03-06T08:15:51.000Z</time>
      </trkpt>
      <trkpt lat="43.31235" lon="2.24589">
        <ele>308.1</ele>
        <time>2022-03-06T08:15:52.000Z</time>
      </trkpt>
      <trkpt lat="43.31237" lon="2.24588">
        <ele>308.2</ele>
        <time>2022-03-06T08:15:53.000Z</time>
      </trkpt>
      <trkpt lat="43.31239" lon="2.24588">
        <ele>308.3</ele>
        <time>2022-03-06T08:15:54.000Z</time>
      </trkpt>
      <trkpt lat="43.3124" lon="2.24587">
        <ele>308.4</ele>
        <time>2022-03-06T08:15:55.000Z</time>
      </trkpt>
      <trkpt lat="43.31242" lon="2.24586">
        <ele>308.5</ele>
        <time>2022-03-06T08:15:56.000Z</time>
      </trkpt>
      <trkpt lat="43.31244" lon="2.24586">
        <ele>308.6</ele>
        <time>2022-03-06T08:15:57.000Z</time>
      </trkpt>
      <trkpt lat="43.31246" lon="2.24585">
        <ele>308.8</ele>
        <time>2022-03-06T08:15:58.000Z</time>
      </trkpt>
      <trkpt lat="43.31248" lon="2.24584">
        <ele>308.9</ele>
        <time>2022-03-06T08:15:59.000Z</time>
      </trkpt>
      <trkpt lat="43.3125" lon="2.24583">
        <ele>309</ele>
        <time>2022-03-06T08:16:00.000Z</time>
      </trkpt>
      <trkpt lat="43.31252" lon="2.24583">
        <ele>309.1</ele>
        <time>2022-03-06T08:16:01.000Z</time>
      </trkpt>
      <trkpt lat="43.31254" lon="2.24582">
        <ele>309.1</ele>
        <time>2022-03-06T08:16:02.000Z</time>
      </trkpt>
      <trkpt lat="43.31256" lon="2.24581">
        <ele>309.2</ele>
        <time>2022-03-06T08:16:03.000Z</time>
      </trkpt>
      <trkpt lat="43.31258" lon="2.24581">
        <ele>309.3</ele>
        <time>2022-03-06T08:16:04.000Z</time>
      </trkpt>
      <trkpt lat="43.3126" lon="2.2458">
        <ele>309.4</ele>
        <time>2022-03-06T08:16:05.000Z</time>
      </trkpt>
      <trkpt lat="43.31263" lon="2.24579">
        <ele>309.4</ele>
        <time>2022-03-06T08:16:06.000Z</time>
      </trkpt>
      <trkpt lat="43.31265" lon="2.24579">
        <ele>309.5</ele>
        <time>2022-03-06T08:16:07.000Z</time>
      </trkpt>
      <trkpt lat="43.31267" lon="2.24578">
        <ele>309.6</ele>
        <time>2022-03-06T08:16:08.000Z</time>
      </trkpt>
      <trkpt lat="43.31269" lon="2.24577">
        <ele>309.7</ele>
        <time>2022-03-06T08:16:09.000Z</time>
      </trkpt>
      <trkpt lat="43.31271" lon="2.24577">
        <ele>309.7</ele>
        <time>2022-03-06T08:16:10.000Z</time>
      </trkpt>
      <trkpt lat="43.31273" lon="2.24577">
        <ele>309.8</ele>
        <time>2022-03-06T08:16:11.000Z</time>
      </trkpt>
      <trkpt lat="43.31275" lon="2.24576">
        <ele>309.9</ele>
        <time>2022-03-06T08:16:12.000Z</time>
      </trkpt>
      <trkpt lat="43.31277" lon="2.24576">
        <ele>309.9</ele>
        <time>2022-03-06T08:16:13.000Z</time>
      </trkpt>
      <trkpt lat="43.31279" lon="2.24576">
        <ele>310</ele>
        <time>2022-03-06T08:16:14.000Z</time>
      </trkpt>
      <trkpt lat="43.31281" lon="2.24575">
        <ele>310.1</ele>
        <time>2022-03-06T08:16:15.000Z</time>
      </trkpt>
      <trkpt lat="43.31283" lon="2.24575">
        <ele>310.1</ele>
        <time>2022-03-06T08:16:16.000Z</time>
      </trkpt>
      <trkpt lat="43.31285" lon="2.24575">
        <ele>310.2</ele>
        <time>2022-03-06T08:16:17.000Z</time>
      </trkpt>
      <trkpt lat="43.31287" lon="2.24574">
        <ele>310.2</ele>
        <time>2022-03-06T08:16:18.000Z</time>
      </trkpt>
      <trkpt lat="43.3129" lon="2.24573">
        <ele>310.3</ele>
        <time>2022-03-06T08:16:19.000Z</time>
      </trkpt>
      <trkpt lat="43.31292" lon="2.24573">
        <ele>310.4</ele>
        <time>2022-03-06T08:16:20.000Z</time>
      </trkpt>
      <trkpt lat="43.31294" lon="2.24572">
        <ele>310.4</ele>
        <time>2022-03-06T08:16:21.000Z</time>
      </trkpt>
      <trkpt lat="43.31296" lon="2.24572">
        <ele>310.5</ele>
        <time>2022-03-06T08:16:22.000Z</time>
      </trkpt>
      <trkpt lat="43.31299" lon="2.24571">
        <ele>310.6</ele>
        <time>2022-03-06T08:16:23.000Z</time>
      </trkpt>
      <trkpt lat="43.31301" lon="2.24571">
        <ele>310.7</ele>
        <time>2022-03-06T08:16:24.000Z</time>
      </trkpt>
      <trkpt lat="43.31304" lon="2.24571">
        <ele>310.7</ele>
        <time>2022-03-06T08:16:25.000Z</time>
      </trkpt>
      <trkpt lat="43.31306" lon="2.24571">
        <ele>310.8</ele>
        <time>2022-03-06T08:16:26.000Z</time>
      </trkpt>
      <trkpt lat="43.31309" lon="2.24571">
        <ele>310.9</ele>
        <time>2022-03-06T08:16:27.000Z</time>
      </trkpt>
      <trkpt lat="43.31312" lon="2.24571">
        <ele>311</ele>
        <time>2022-03-06T08:16:28.000Z</time>
      </trkpt>
      <trkpt lat="43.31314" lon="2.2457">
        <ele>311.1</ele>
        <time>2022-03-06T08:16:29.000Z</time>
      </trkpt>
      <trkpt lat="43.31317" lon="2.2457">
        <ele>311.2</ele>
        <time>2022-03-06T08:16:30.000Z</time>
      </trkpt>
      <trkpt lat="43.31319" lon="2.2457">
        <ele>311.2</ele>
        <time>2022-03-06T08:16:31.000Z</time>
      </trkpt>
      <trkpt lat="43.31322" lon="2.2457">
        <ele>311.3</ele>
        <time>2022-03-06T08:16:32.000Z</time>
      </trkpt>
      <trkpt lat="43.31324" lon="2.2457">
        <ele>311.4</ele>
        <time>2022-03-06T08:16:33.000Z</time>
      </trkpt>
      <trkpt lat="43.31325" lon="2.24571">
        <ele>311.4</ele>
        <time>2022-03-06T08:16:34.000Z</time>
      </trkpt>
      <trkpt lat="43.31327" lon="2.24571">
        <ele>311.5</ele>
        <time>2022-03-06T08:16:35.000Z</time>
      </trkpt>
      <trkpt lat="43.31328" lon="2.24572">
        <ele>311.6</ele>
        <time>2022-03-06T08:16:36.000Z</time>
      </trkpt>
      <trkpt lat="43.3133" lon="2.24571">
        <ele>311.6</ele>
        <time>2022-03-06T08:16:37.000Z</time>
      </trkpt>
      <trkpt lat="43.31331" lon="2.24571">
        <ele>311.6</ele>
        <time>2022-03-06T08:16:38.000Z</time>
      </trkpt>
      <trkpt lat="43.31332" lon="2.2457">
        <ele>311.6</ele>
        <time>2022-03-06T08:16:39.000Z</time>
      </trkpt>
      <trkpt lat="43.31332" lon="2.2457">
        <ele>311.6</ele>
        <time>2022-03-06T08:16:40.000Z</time>
      </trkpt>
      <trkpt lat="43.31332" lon="2.2457">
        <ele>311.6</ele>
        <time>2022-03-06T08:16:41.000Z</time>
      </trkpt>
      <trkpt lat="43.31332" lon="2.24569">
        <ele>311.6</ele>
        <time>2022-03-06T08:16:42.000Z</time>
      </trkpt>
      <trkpt lat="43.31332" lon="2.24569">
        <ele>311.6</ele>
        <time>2022-03-06T08:16:43.000Z</time>
      </trkpt>
      <trkpt lat="43.31332" lon="2.24569">
        <ele>311.6</ele>
        <time>2022-03-06T08:16:44.000Z</time>
      </trkpt>
      <trkpt lat="43.31332" lon="2.24569">
        <ele>311.6</ele>
        <time>2022-03-06T08:16:45.000Z</time>
      </trkpt>
      <trkpt lat="43.31333" lon="2.24569">
        <ele>311.6</ele>
        <time>2022-03-06T08:16:46.000Z</time>
      </trkpt>
      <trkpt lat="43.31333" lon="2.24569">
        <ele>311.6</ele>
        <time>2022-03-06T08:16:47.000Z</time>
      </trkpt>
      <trkpt lat="43.31333" lon="2.24568">
        <ele>311.6</ele>
        <time>2022-03-06T08:16:48.000Z</time>
      </trkpt>
      <trkpt lat="43.31334" lon="2.24568">
        <ele>311.7</ele>
        <time>2022-03-06T08:16:49.000Z</time>
      </trkpt>
      <trkpt lat="43.31335" lon="2.24567">
        <ele>311.7</ele>
        <time>2022-03-06T08:16:50.000Z</time>
      </trkpt>
      <trkpt lat="43.31336" lon="2.24567">
        <ele>311.7</ele>
        <time>2022-03-06T08:16:51.000Z</time>
      </trkpt>
      <trkpt lat="43.31337" lon="2.24566">
        <ele>311.8</ele>
        <time>2022-03-06T08:16:52.000Z</time>
      </trkpt>
      <trkpt lat="43.31338" lon="2.24566">
        <ele>311.8</ele>
        <time>2022-03-06T08:16:53.000Z</time>
      </trkpt>
      <trkpt lat="43.31339" lon="2.24565">
        <ele>311.9</ele>
        <time>2022-03-06T08:16:54.000Z</time>
      </trkpt>
      <trkpt lat="43.3134" lon="2.24564">
        <ele>311.9</ele>
        <time>2022-03-06T08:16:55.000Z</time>
      </trkpt>
      <trkpt lat="43.31341" lon="2.24564">
        <ele>312</ele>
        <time>2022-03-06T08:16:56.000Z</time>
      </trkpt>
      <trkpt lat="43.31342" lon="2.24563">
        <ele>312.1</ele>
        <time>2022-03-06T08:16:57.000Z</time>
      </trkpt>
      <trkpt lat="43.31343" lon="2.24562">
        <ele>312.1</ele>
        <time>2022-03-06T08:16:58.000Z</time>
      </trkpt>
      <trkpt lat="43.31345" lon="2.24561">
        <ele>312.2</ele>
        <time>2022-03-06T08:16:59.000Z</time>
      </trkpt>
      <trkpt lat="43.31346" lon="2.2456">
        <ele>312.3</ele>
        <time>2022-03-06T08:17:00.000Z</time>
      </trkpt>
      <trkpt lat="43.31348" lon="2.24559">
        <ele>312.3</ele>
        <time>2022-03-06T08:17:01.000Z</time>
      </trkpt>
      <trkpt lat="43.31349" lon="2.24558">
        <ele>312.4</ele>
        <time>2022-03-06T08:17:02.000Z</time>
      </trkpt>
      <trkpt lat="43.31351" lon="2.24557">
        <ele>312.5</ele>
        <time>2022-03-06T08:17:03.000Z</time>
      </trkpt>
      <trkpt lat="43.31353" lon="2.24555">
        <ele>312.6</ele>
        <time>2022-03-06T08:17:04.000Z</time>
      </trkpt>
      <trkpt lat="43.31354" lon="2.24554">
        <ele>312.6</ele>
        <time>2022-03-06T08:17:05.000Z</time>
      </trkpt>
      <trkpt lat="43.31356" lon="2.24553">
        <ele>312.7</ele>
        <time>2022-03-06T08:17:06.000Z</time>
      </trkpt>
      <trkpt lat="43.31357" lon="2.24552">
        <ele>312.8</ele>
        <time>2022-03-06T08:17:07.000Z</time>
      </trkpt>
      <trkpt lat="43.31359" lon="2.2455">
        <ele>312.8</ele>
        <time>2022-03-06T08:17:08.000Z</time>
      </trkpt>
      <trkpt lat="43.3136" lon="2.24549">
        <ele>312.9</ele>
        <time>2022-03-06T08:17:09.000Z</time>
      </trkpt>
      <trkpt lat="43.31362" lon="2.24548">
        <ele>313</ele>
        <time>2022-03-06T08:17:10.000Z</time>
      </trkpt>
      <trkpt lat="43.31363" lon="2.24546">
        <ele>313</ele>
        <time>2022-03-06T08:17:11.000Z</time>
      </trkpt>
      <trkpt lat="43.31364" lon="2.24545">
        <ele>313.1</ele>
        <time>2022-03-06T08:17:12.000Z</time>
      </trkpt>
      <trkpt lat="43.31366" lon="2.24543">
        <ele>313.2</ele>
        <time>2022-03-06T08:17:13.000Z</time>
      </trkpt>
      <trkpt lat="43.31367" lon="2.24541">
        <ele>313.2</ele>
        <time>2022-03-06T08:17:14.000Z</time>
      </trkpt>
      <trkpt lat="43.31368" lon="2.24539">
        <ele>313.3</ele>
        <time>2022-03-06T08:17:15.000Z</time>
      </trkpt>
      <trkpt lat="43.3137" lon="2.24537">
        <ele>313.3</ele>
        <time>2022-03-06T08:17:16.000Z</time>
      </trkpt>
      <trkpt lat="43.31371" lon="2.24535">
        <ele>313.4</ele>
        <time>2022-03-06T08:17:17.000Z</time>
      </trkpt>
      <trkpt lat="43.31373" lon="2.24533">
        <ele>313.4</ele>
        <time>2022-03-06T08:17:18.000Z</time>
      </trkpt>
      <trkpt lat="43.31374" lon="2.24531">
        <ele>313.5</ele>
        <time>2022-03-06T08:17:19.000Z</time>
      </trkpt>
      <trkpt lat="43.31376" lon="2.24528">
        <ele>313.5</ele>
        <time>2022-03-06T08:17:20.000Z</time>
      </trkpt>
      <trkpt lat="43.31377" lon="2.24526">
        <ele>313.6</ele>
        <time>2022-03-06T08:17:21.000Z</time>
      </trkpt>
      <trkpt lat="43.31378" lon="2.24524">
        <ele>313.7</ele>
        <time>2022-03-06T08:17:22.000Z</time>
      </trkpt>
      <trkpt lat="43.3138" lon="2.24521">
        <ele>313.7</ele>
        <time>2022-03-06T08:17:23.000Z</time>
      </trkpt>
      <trkpt lat="43.31381" lon="2.24519">
        <ele>313.8</ele>
        <time>2022-03-06T08:17:24.000Z</time>
      </trkpt>
      <trkpt lat="43.31383" lon="2.24517">
        <ele>313.8</ele>
        <time>2022-03-06T08:17:25.000Z</time>
      </trkpt>
      <trkpt lat="43.31384" lon="2.24514">
        <ele>313.9</ele>
        <time>2022-03-06T08:17:26.000Z</time>
      </trkpt>
      <trkpt lat="43.31386" lon="2.24512">
        <ele>314</ele>
        <time>2022-03-06T08:17:27.000Z</time>
      </trkpt>
      <trkpt lat="43.31387" lon="2.2451">
        <ele>314</ele>
        <time>2022-03-06T08:17:28.000Z</time>
      </trkpt>
      <trkpt lat="43.31388" lon="2.24508">
        <ele>314.1</ele>
        <time>2022-03-06T08:17:29.000Z</time>
      </trkpt>
      <trkpt lat="43.3139" lon="2.24506">
        <ele>314.2</ele>
        <time>2022-03-06T08:17:30.000Z</time>
      </trkpt>
      <trkpt lat="43.31391" lon="2.24503">
        <ele>314.2</ele>
        <time>2022-03-06T08:17:31.000Z</time>
      </trkpt>
      <trkpt lat="43.31393" lon="2.24501">
        <ele>314.3</ele>
        <time>2022-03-06T08:17:32.000Z</time>
      </trkpt>
      <trkpt lat="43.31394" lon="2.24499">
        <ele>314.3</ele>
        <time>2022-03-06T08:17:33.000Z</time>
      </trkpt>
      <trkpt lat="43.31395" lon="2.24497">
        <ele>314.4</ele>
        <time>2022-03-06T08:17:34.000Z</time>
      </trkpt>
      <trkpt lat="43.31396" lon="2.24495">
        <ele>314.4</ele>
        <time>2022-03-06T08:17:35.000Z</time>
      </trkpt>
      <trkpt lat="43.31397" lon="2.24493">
        <ele>314.5</ele>
        <time>2022-03-06T08:17:36.000Z</time>
      </trkpt>
      <trkpt lat="43.31398" lon="2.2449">
        <ele>314.5</ele>
        <time>2022-03-06T08:17:37.000Z</time>
      </trkpt>
      <trkpt lat="43.31399" lon="2.24488">
        <ele>314.6</ele>
        <time>2022-03-06T08:17:38.000Z</time>
      </trkpt>
      <trkpt lat="43.314" lon="2.24485">
        <ele>314.6</ele>
        <time>2022-03-06T08:17:39.000Z</time>
      </trkpt>
      <trkpt lat="43.31401" lon="2.24483">
        <ele>314.6</ele>
        <time>2022-03-06T08:17:40.000Z</time>
      </trkpt>
      <trkpt lat="43.31402" lon="2.2448">
        <ele>314.7</ele>
        <time>2022-03-06T08:17:41.000Z</time>
      </trkpt>
      <trkpt lat="43.31402" lon="2.24477">
        <ele>314.7</ele>
        <time>2022-03-06T08:17:42.000Z</time>
      </trkpt>
      <trkpt lat="43.31403" lon="2.24474">
        <ele>314.7</ele>
        <time>2022-03-06T08:17:43.000Z</time>
      </trkpt>
      <trkpt lat="43.31403" lon="2.24471">
        <ele>314.7</ele>
        <time>2022-03-06T08:17:44.000Z</time>
      </trkpt>
      <trkpt lat="43.31404" lon="2.24468">
        <ele>314.7</ele>
        <time>2022-03-06T08:17:45.000Z</time>
      </trkpt>
      <trkpt lat="43.31404" lon="2.24464">
        <ele>314.7</ele>
        <time>2022-03-06T08:17:46.000Z</time>
      </trkpt>
      <trkpt lat="43.31404" lon="2.24461">
        <ele>314.7</ele>
        <time>2022-03-06T08:17:47.000Z</time>
      </trkpt>
      <trkpt lat="43.31404" lon="2.24457">
        <ele>314.6</ele>
        <time>2022-03-06T08:17:48.000Z</time>
      </trkpt>
      <trkpt lat="43.31404" lon="2.24453">
        <ele>314.6</ele>
        <time>2022-03-06T08:17:49.000Z</time>
      </trkpt>
      <trkpt lat="43.31404" lon="2.24449">
        <ele>314.5</ele>
        <time>2022-03-06T08:17:50.000Z</time>
      </trkpt>
      <trkpt lat="43.31403" lon="2.24445">
        <ele>314.4</ele>
        <time>2022-03-06T08:17:51.000Z</time>
      </trkpt>
      <trkpt lat="43.31403" lon="2.24441">
        <ele>314.3</ele>
        <time>2022-03-06T08:17:52.000Z</time>
      </trkpt>
      <trkpt lat="43.31403" lon="2.24437">
        <ele>314.3</ele>
        <time>2022-03-06T08:17:53.000Z</time>
      </trkpt>
      <trkpt lat="43.31404" lon="2.24433">
        <ele>314.3</ele>
        <time>2022-03-06T08:17:54.000Z</time>
      </trkpt>
      <trkpt lat="43.31404" lon="2.2443">
        <ele>314.3</ele>
        <time>2022-03-06T08:17:55.000Z</time>
      </trkpt>
      <trkpt lat="43.31405" lon="2.24427">
        <ele>314.5</ele>
        <time>2022-03-06T08:17:56.000Z</time>
      </trkpt>
      <trkpt lat="43.31407" lon="2.24425">
        <ele>314.6</ele>
        <time>2022-03-06T08:17:57.000Z</time>
      </trkpt>
      <trkpt lat="43.31408" lon="2.24423">
        <ele>314.8</ele>
        <time>2022-03-06T08:17:58.000Z</time>
      </trkpt>
      <trkpt lat="43.3141" lon="2.24421">
        <ele>315.1</ele>
        <time>2022-03-06T08:17:59.000Z</time>
      </trkpt>
      <trkpt lat="43.31412" lon="2.24419">
        <ele>315.4</ele>
        <time>2022-03-06T08:18:00.000Z</time>
      </trkpt>
      <trkpt lat="43.31414" lon="2.24418">
        <ele>315.7</ele>
        <time>2022-03-06T08:18:01.000Z</time>
      </trkpt>
      <trkpt lat="43.31416" lon="2.24416">
        <ele>315.9</ele>
        <time>2022-03-06T08:18:02.000Z</time>
      </trkpt>
      <trkpt lat="43.31418" lon="2.24414">
        <ele>316.1</ele>
        <time>2022-03-06T08:18:03.000Z</time>
      </trkpt>
      <trkpt lat="43.3142" lon="2.24412">
        <ele>316.2</ele>
        <time>2022-03-06T08:18:04.000Z</time>
      </trkpt>
      <trkpt lat="43.31421" lon="2.24411">
        <ele>316.3</ele>
        <time>2022-03-06T08:18:05.000Z</time>
      </trkpt>
      <trkpt lat="43.31423" lon="2.24409">
        <ele>316.3</ele>
        <time>2022-03-06T08:18:06.000Z</time>
      </trkpt>
      <trkpt lat="43.31424" lon="2.24407">
        <ele>316.4</ele>
        <time>2022-03-06T08:18:07.000Z</time>
      </trkpt>
      <trkpt lat="43.31425" lon="2.24405">
        <ele>316.5</ele>
        <time>2022-03-06T08:18:08.000Z</time>
      </trkpt>
      <trkpt lat="43.31426" lon="2.24403">
        <ele>316.5</ele>
        <time>2022-03-06T08:18:09.000Z</time>
      </trkpt>
      <trkpt lat="43.31427" lon="2.24401">
        <ele>316.6</ele>
        <time>2022-03-06T08:18:10.000Z</time>
      </trkpt>
      <trkpt lat="43.31428" lon="2.24399">
        <ele>316.6</ele>
        <time>2022-03-06T08:18:11.000Z</time>
      </trkpt>
      <trkpt lat="43.31429" lon="2.24397">
        <ele>316.6</ele>
        <time>2022-03-06T08:18:12.000Z</time>
      </trkpt>
      <trkpt lat="43.3143" lon="2.24395">
        <ele>316.7</ele>
        <time>2022-03-06T08:18:13.000Z</time>
      </trkpt>
      <trkpt lat="43.3143" lon="2.24392">
        <ele>316.7</ele>
        <time>2022-03-06T08:18:14.000Z</time>
      </trkpt>
      <trkpt lat="43.31431" lon="2.2439">
        <ele>316.7</ele>
        <time>2022-03-06T08:18:15.000Z</time>
      </trkpt>
      <trkpt lat="43.31431" lon="2.24387">
        <ele>316.6</ele>
        <time>2022-03-06T08:18:16.000Z</time>
      </trkpt>
      <trkpt lat="43.31432" lon="2.24384">
        <ele>316.6</ele>
        <time>2022-03-06T08:18:17.000Z</time>
      </trkpt>
      <trkpt lat="43.31432" lon="2.24381">
        <ele>316.6</ele>
        <time>2022-03-06T08:18:18.000Z</time>
      </trkpt>
      <trkpt lat="43.31432" lon="2.24377">
        <ele>316.5</ele>
        <time>2022-03-06T08:18:19.000Z</time>
      </trkpt>
      <trkpt lat="43.31432" lon="2.24374">
        <ele>316.5</ele>
        <time>2022-03-06T08:18:20.000Z</time>
      </trkpt>
      <trkpt lat="43.31432" lon="2.2437">
        <ele>316.4</ele>
        <time>2022-03-06T08:18:21.000Z</time>
      </trkpt>
      <trkpt lat="43.31433" lon="2.24367">
        <ele>316.4</ele>
        <time>2022-03-06T08:18:22.000Z</time>
      </trkpt>
      <trkpt lat="43.31433" lon="2.24364">
        <ele>316.3</ele>
        <time>2022-03-06T08:18:23.000Z</time>
      </trkpt>
      <trkpt lat="43.31433" lon="2.24361">
        <ele>316.3</ele>
        <time>2022-03-06T08:18:24.000Z</time>
      </trkpt>
      <trkpt lat="43.31434" lon="2.24358">
        <ele>316.3</ele>
        <time>2022-03-06T08:18:25.000Z</time>
      </trkpt>
      <trkpt lat="43.31434" lon="2.24356">
        <ele>316.3</ele>
        <time>2022-03-06T08:18:26.000Z</time>
      </trkpt>
      <trkpt lat="43.31435" lon="2.24353">
        <ele>316.3</ele>
        <time>2022-03-06T08:18:27.000Z</time>
      </trkpt>
      <trkpt lat="43.31436" lon="2.2435">
        <ele>316.4</ele>
        <time>2022-03-06T08:18:28.000Z</time>
      </trkpt>
      <trkpt lat="43.31437" lon="2.24347">
        <ele>316.4</ele>
        <time>2022-03-06T08:18:29.000Z</time>
      </trkpt>
      <trkpt lat="43.31438" lon="2.24344">
        <ele>316.4</ele>
        <time>2022-03-06T08:18:30.000Z</time>
      </trkpt>
      <trkpt lat="43.31438" lon="2.24341">
        <ele>316.5</ele>
        <time>2022-03-06T08:18:31.000Z</time>
      </trkpt>
      <trkpt lat="43.31439" lon="2.24338">
        <ele>316.5</ele>
        <time>2022-03-06T08:18:32.000Z</time>
      </trkpt>
      <trkpt lat="43.3144" lon="2.24335">
        <ele>316.6</ele>
        <time>2022-03-06T08:18:33.000Z</time>
      </trkpt>
      <trkpt lat="43.31441" lon="2.24333">
        <ele>316.6</ele>
        <time>2022-03-06T08:18:34.000Z</time>
      </trkpt>
      <trkpt lat="43.31441" lon="2.2433">
        <ele>316.6</ele>
        <time>2022-03-06T08:18:35.000Z</time>
      </trkpt>
      <trkpt lat="43.31442" lon="2.24327">
        <ele>316.5</ele>
        <time>2022-03-06T08:18:36.000Z</time>
      </trkpt>
      <trkpt lat="43.31442" lon="2.24324">
        <ele>316.5</ele>
        <time>2022-03-06T08:18:37.000Z</time>
      </trkpt>
      <trkpt lat="43.31443" lon="2.24321">
        <ele>316.5</ele>
        <time>2022-03-06T08:18:38.000Z</time>
      </trkpt>
      <trkpt lat="43.31443" lon="2.24318">
        <ele>316.4</ele>
        <time>2022-03-06T08:18:39.000Z</time>
      </trkpt>
      <trkpt lat="43.31444" lon="2.24314">
        <ele>316.4</ele>
        <time>2022-03-06T08:18:40.000Z</time>
      </trkpt>
      <trkpt lat="43.31444" lon="2.24311">
        <ele>316.3</ele>
        <time>2022-03-06T08:18:41.000Z</time>
      </trkpt>
      <trkpt lat="43.31444" lon="2.24307">
        <ele>316.2</ele>
        <time>2022-03-06T08:18:42.000Z</time>
      </trkpt>
      <trkpt lat="43.31444" lon="2.24303">
        <ele>316.1</ele>
        <time>2022-03-06T08:18:43.000Z</time>
      </trkpt>
      <trkpt lat="43.31445" lon="2.243">
        <ele>316.1</ele>
        <time>2022-03-06T08:18:44.000Z</time>
      </trkpt>
      <trkpt lat="43.31445" lon="2.24296">
        <ele>316</ele>
        <time>2022-03-06T08:18:45.000Z</time>
      </trkpt>
      <trkpt lat="43.31446" lon="2.24293">
        <ele>316</ele>
        <time>2022-03-06T08:18:46.000Z</time>
      </trkpt>
      <trkpt lat="43.31446" lon="2.2429">
        <ele>316</ele>
        <time>2022-03-06T08:18:47.000Z</time>
      </trkpt>
      <trkpt lat="43.31447" lon="2.24287">
        <ele>316</ele>
        <time>2022-03-06T08:18:48.000Z</time>
      </trkpt>
      <trkpt lat="43.31448" lon="2.24284">
        <ele>316</ele>
        <time>2022-03-06T08:18:49.000Z</time>
      </trkpt>
      <trkpt lat="43.31449" lon="2.24282">
        <ele>316</ele>
        <time>2022-03-06T08:18:50.000Z</time>
      </trkpt>
      <trkpt lat="43.3145" lon="2.24279">
        <ele>316.1</ele>
        <time>2022-03-06T08:18:51.000Z</time>
      </trkpt>
      <trkpt lat="43.31451" lon="2.24276">
        <ele>316.2</ele>
        <time>2022-03-06T08:18:52.000Z</time>
      </trkpt>
      <trkpt lat="43.31452" lon="2.24274">
        <ele>316.3</ele>
        <time>2022-03-06T08:18:53.000Z</time>
      </trkpt>
      <trkpt lat="43.31453" lon="2.24272">
        <ele>316.3</ele>
        <time>2022-03-06T08:18:54.000Z</time>
      </trkpt>
      <trkpt lat="43.31454" lon="2.24269">
        <ele>316.5</ele>
        <time>2022-03-06T08:18:55.000Z</time>
      </trkpt>
      <trkpt lat="43.31456" lon="2.24267">
        <ele>316.6</ele>
        <time>2022-03-06T08:18:56.000Z</time>
      </trkpt>
      <trkpt lat="43.31457" lon="2.24265">
        <ele>316.7</ele>
        <time>2022-03-06T08:18:57.000Z</time>
      </trkpt>
      <trkpt lat="43.31459" lon="2.24263">
        <ele>316.9</ele>
        <time>2022-03-06T08:18:58.000Z</time>
      </trkpt>
      <trkpt lat="43.3146" lon="2.24261">
        <ele>317</ele>
        <time>2022-03-06T08:18:59.000Z</time>
      </trkpt>
      <trkpt lat="43.31462" lon="2.24259">
        <ele>317.2</ele>
        <time>2022-03-06T08:19:00.000Z</time>
      </trkpt>
      <trkpt lat="43.31464" lon="2.24256">
        <ele>317.4</ele>
        <time>2022-03-06T08:19:01.000Z</time>
      </trkpt>
      <trkpt lat="43.31466" lon="2.24254">
        <ele>317.5</ele>
        <time>2022-03-06T08:19:02.000Z</time>
      </trkpt>
      <trkpt lat="43.31467" lon="2.24253">
        <ele>317.7</ele>
        <time>2022-03-06T08:19:03.000Z</time>
      </trkpt>
      <trkpt lat="43.31469" lon="2.24251">
        <ele>317.9</ele>
        <time>2022-03-06T08:19:04.000Z</time>
      </trkpt>
      <trkpt lat="43.31471" lon="2.24249">
        <ele>318.1</ele>
        <time>2022-03-06T08:19:05.000Z</time>
      </trkpt>
      <trkpt lat="43.31473" lon="2.24247">
        <ele>318.3</ele>
        <time>2022-03-06T08:19:06.000Z</time>
      </trkpt>
      <trkpt lat="43.31475" lon="2.24245">
        <ele>318.5</ele>
        <time>2022-03-06T08:19:07.000Z</time>
      </trkpt>
      <trkpt lat="43.31477" lon="2.24243">
        <ele>318.7</ele>
        <time>2022-03-06T08:19:08.000Z</time>
      </trkpt>
      <trkpt lat="43.31478" lon="2.24241">
        <ele>318.8</ele>
        <time>2022-03-06T08:19:09.000Z</time>
      </trkpt>
      <trkpt lat="43.3148" lon="2.24239">
        <ele>319</ele>
        <time>2022-03-06T08:19:10.000Z</time>
      </trkpt>
      <trkpt lat="43.31482" lon="2.24237">
        <ele>319.1</ele>
        <time>2022-03-06T08:19:11.000Z</time>
      </trkpt>
      <trkpt lat="43.31483" lon="2.24235">
        <ele>319.2</ele>
        <time>2022-03-06T08:19:12.000Z</time>
      </trkpt>
      <trkpt lat="43.31484" lon="2.24233">
        <ele>319.3</ele>
        <time>2022-03-06T08:19:13.000Z</time>
      </trkpt>
      <trkpt lat="43.31485" lon="2.24231">
        <ele>319.3</ele>
        <time>2022-03-06T08:19:14.000Z</time>
      </trkpt>
      <trkpt lat="43.31486" lon="2.24229">
        <ele>319.4</ele>
        <time>2022-03-06T08:19:15.000Z</time>
      </trkpt>
      <trkpt lat="43.31486" lon="2.24227">
        <ele>319.3</ele>
        <time>2022-03-06T08:19:16.000Z</time>
      </trkpt>
      <trkpt lat="43.31487" lon="2.24224">
        <ele>319.3</ele>
        <time>2022-03-06T08:19:17.000Z</time>
      </trkpt>
      <trkpt lat="43.31487" lon="2.24222">
        <ele>319.3</ele>
        <time>2022-03-06T08:19:18.000Z</time>
      </trkpt>
      <trkpt lat="43.31487" lon="2.24219">
        <ele>319.2</ele>
        <time>2022-03-06T08:19:19.000Z</time>
      </trkpt>
      <trkpt lat="43.31488" lon="2.24217">
        <ele>319.2</ele>
        <time>2022-03-06T08:19:20.000Z</time>
      </trkpt>
      <trkpt lat="43.31488" lon="2.24214">
        <ele>319.1</ele>
        <time>2022-03-06T08:19:21.000Z</time>
      </trkpt>
      <trkpt lat="43.31489" lon="2.24211">
        <ele>319.1</ele>
        <time>2022-03-06T08:19:22.000Z</time>
      </trkpt>
      <trkpt lat="43.31489" lon="2.24209">
        <ele>319</ele>
        <time>2022-03-06T08:19:23.000Z</time>
      </trkpt>
      <trkpt lat="43.31489" lon="2.24206">
        <ele>319</ele>
        <time>2022-03-06T08:19:24.000Z</time>
      </trkpt>
      <trkpt lat="43.3149" lon="2.24203">
        <ele>319</ele>
        <time>2022-03-06T08:19:25.000Z</time>
      </trkpt>
      <trkpt lat="43.3149" lon="2.24201">
        <ele>318.9</ele>
        <time>2022-03-06T08:19:26.000Z</time>
      </trkpt>
      <trkpt lat="43.31491" lon="2.24198">
        <ele>318.9</ele>
        <time>2022-03-06T08:19:27.000Z</time>
      </trkpt>
      <trkpt lat="43.31491" lon="2.24196">
        <ele>318.9</ele>
        <time>2022-03-06T08:19:28.000Z</time>
      </trkpt>
      <trkpt lat="43.31492" lon="2.24193">
        <ele>318.8</ele>
        <time>2022-03-06T08:19:29.000Z</time>
      </trkpt>
      <trkpt lat="43.31492" lon="2.24191">
        <ele>318.8</ele>
        <time>2022-03-06T08:19:30.000Z</time>
      </trkpt>
      <trkpt lat="43.31492" lon="2.24188">
        <ele>318.7</ele>
        <time>2022-03-06T08:19:31.000Z</time>
      </trkpt>
      <trkpt lat="43.31492" lon="2.24186">
        <ele>318.6</ele>
        <time>2022-03-06T08:19:32.000Z</time>
      </trkpt>
      <trkpt lat="43.31492" lon="2.24184">
        <ele>318.6</ele>
        <time>2022-03-06T08:19:33.000Z</time>
      </trkpt>
      <trkpt lat="43.31492" lon="2.24181">
        <ele>318.5</ele>
        <time>2022-03-06T08:19:34.000Z</time>
      </trkpt>
      <trkpt lat="43.31492" lon="2.24178">
        <ele>318.4</ele>
        <time>2022-03-06T08:19:35.000Z</time>
      </trkpt>
      <trkpt lat="43.31493" lon="2.24175">
        <ele>318.3</ele>
        <time>2022-03-06T08:19:36.000Z</time>
      </trkpt>
      <trkpt lat="43.31493" lon="2.24172">
        <ele>318.2</ele>
        <time>2022-03-06T08:19:37.000Z</time>
      </trkpt>
      <trkpt lat="43.31493" lon="2.24169">
        <ele>318.1</ele>
        <time>2022-03-06T08:19:38.000Z</time>
      </trkpt>
      <trkpt lat="43.31493" lon="2.24165">
        <ele>318</ele>
        <time>2022-03-06T08:19:39.000Z</time>
      </trkpt>
      <trkpt lat="43.31493" lon="2.24162">
        <ele>317.9</ele>
        <time>2022-03-06T08:19:40.000Z</time>
      </trkpt>
      <trkpt lat="43.31493" lon="2.24158">
        <ele>317.9</ele>
        <time>2022-03-06T08:19:41.000Z</time>
      </trkpt>
      <trkpt lat="43.31493" lon="2.24154">
        <ele>317.8</ele>
        <time>2022-03-06T08:19:42.000Z</time>
      </trkpt>
      <trkpt lat="43.31493" lon="2.24151">
        <ele>317.8</ele>
        <time>2022-03-06T08:19:43.000Z</time>
      </trkpt>
      <trkpt lat="43.31494" lon="2.24147">
        <ele>317.7</ele>
        <time>2022-03-06T08:19:44.000Z</time>
      </trkpt>
      <trkpt lat="43.31494" lon="2.24144">
        <ele>317.7</ele>
        <time>2022-03-06T08:19:45.000Z</time>
      </trkpt>
      <trkpt lat="43.31494" lon="2.24141">
        <ele>317.7</ele>
        <time>2022-03-06T08:19:46.000Z</time>
      </trkpt>
      <trkpt lat="43.31494" lon="2.24138">
        <ele>317.6</ele>
        <time>2022-03-06T08:19:47.000Z</time>
      </trkpt>
      <trkpt lat="43.31494" lon="2.24135">
        <ele>317.6</ele>
        <time>2022-03-06T08:19:48.000Z</time>
      </trkpt>
      <trkpt lat="43.31494" lon="2.24133">
        <ele>317.6</ele>
        <time>2022-03-06T08:19:49.000Z</time>
      </trkpt>
      <trkpt lat="43.31495" lon="2.24131">
        <ele>317.6</ele>
        <time>2022-03-06T08:19:50.000Z</time>
      </trkpt>
      <trkpt lat="43.31495" lon="2.24128">
        <ele>317.6</ele>
        <time>2022-03-06T08:19:51.000Z</time>
      </trkpt>
      <trkpt lat="43.31496" lon="2.24126">
        <ele>317.6</ele>
        <time>2022-03-06T08:19:52.000Z</time>
      </trkpt>
      <trkpt lat="43.31497" lon="2.24124">
        <ele>317.6</ele>
        <time>2022-03-06T08:19:53.000Z</time>
      </trkpt>
      <trkpt lat="43.31498" lon="2.24121">
        <ele>317.7</ele>
        <time>2022-03-06T08:19:54.000Z</time>
      </trkpt>
      <trkpt lat="43.31499" lon="2.24119">
        <ele>317.8</ele>
        <time>2022-03-06T08:19:55.000Z</time>
      </trkpt>
      <trkpt lat="43.315" lon="2.24116">
        <ele>317.8</ele>
        <time>2022-03-06T08:19:56.000Z</time>
      </trkpt>
      <trkpt lat="43.31502" lon="2.24114">
        <ele>317.7</ele>
        <time>2022-03-06T08:19:57.000Z</time>
      </trkpt>
      <trkpt lat="43.31503" lon="2.24112">
        <ele>317.5</ele>
        <time>2022-03-06T08:19:58.000Z</time>
      </trkpt>
      <trkpt lat="43.31504" lon="2.24109">
        <ele>317.4</ele>
        <time>2022-03-06T08:19:59.000Z</time>
      </trkpt>
      <trkpt lat="43.31506" lon="2.24107">
        <ele>317.3</ele>
        <time>2022-03-06T08:20:00.000Z</time>
      </trkpt>
      <trkpt lat="43.31507" lon="2.24104">
        <ele>317.1</ele>
        <time>2022-03-06T08:20:01.000Z</time>
      </trkpt>
      <trkpt lat="43.31508" lon="2.24101">
        <ele>316.9</ele>
        <time>2022-03-06T08:20:02.000Z</time>
      </trkpt>
      <trkpt lat="43.31509" lon="2.24098">
        <ele>316.7</ele>
        <time>2022-03-06T08:20:03.000Z</time>
      </trkpt>
      <trkpt lat="43.31511" lon="2.24095">
        <ele>316.6</ele>
        <time>2022-03-06T08:20:04.000Z</time>
      </trkpt>
      <trkpt lat="43.31511" lon="2.24092">
        <ele>316.4</ele>
        <time>2022-03-06T08:20:05.000Z</time>
      </trkpt>
      <trkpt lat="43.31512" lon="2.24088">
        <ele>316.2</ele>
        <time>2022-03-06T08:20:06.000Z</time>
      </trkpt>
      <trkpt lat="43.31513" lon="2.24085">
        <ele>315.9</ele>
        <time>2022-03-06T08:20:07.000Z</time>
      </trkpt>
      <trkpt lat="43.31514" lon="2.24081">
        <ele>315.8</ele>
        <time>2022-03-06T08:20:08.000Z</time>
      </trkpt>
      <trkpt lat="43.31514" lon="2.24077">
        <ele>315.6</ele>
        <time>2022-03-06T08:20:09.000Z</time>
      </trkpt>
      <trkpt lat="43.31515" lon="2.24073">
        <ele>315.5</ele>
        <time>2022-03-06T08:20:10.000Z</time>
      </trkpt>
      <trkpt lat="43.31515" lon="2.24068">
        <ele>315.3</ele>
        <time>2022-03-06T08:20:11.000Z</time>
      </trkpt>
      <trkpt lat="43.31516" lon="2.24064">
        <ele>315.1</ele>
        <time>2022-03-06T08:20:12.000Z</time>
      </trkpt>
      <trkpt lat="43.31516" lon="2.24059">
        <ele>315</ele>
        <time>2022-03-06T08:20:13.000Z</time>
      </trkpt>
      <trkpt lat="43.31516" lon="2.24055">
        <ele>314.9</ele>
        <time>2022-03-06T08:20:14.000Z</time>
      </trkpt>
      <trkpt lat="43.31516" lon="2.24051">
        <ele>314.7</ele>
        <time>2022-03-06T08:20:15.000Z</time>
      </trkpt>
      <trkpt lat="43.31516" lon="2.24047">
        <ele>314.6</ele>
        <time>2022-03-06T08:20:16.000Z</time>
      </trkpt>
      <trkpt lat="43.31516" lon="2.24043">
        <ele>314.5</ele>
        <time>2022-03-06T08:20:17.000Z</time>
      </trkpt>
      <trkpt lat="43.31516" lon="2.24039">
        <ele>314.5</ele>
        <time>2022-03-06T08:20:18.000Z</time>
      </trkpt>
      <trkpt lat="43.31516" lon="2.24036">
        <ele>314.4</ele>
        <time>2022-03-06T08:20:19.000Z</time>
      </trkpt>
      <trkpt lat="43.31515" lon="2.24033">
        <ele>314.3</ele>
        <time>2022-03-06T08:20:20.000Z</time>
      </trkpt>
      <trkpt lat="43.31515" lon="2.2403">
        <ele>314.3</ele>
        <time>2022-03-06T08:20:21.000Z</time>
      </trkpt>
      <trkpt lat="43.31515" lon="2.24027">
        <ele>314.3</ele>
        <time>2022-03-06T08:20:22.000Z</time>
      </trkpt>
      <trkpt lat="43.31514" lon="2.24024">
        <ele>314.2</ele>
        <time>2022-03-06T08:20:23.000Z</time>
      </trkpt>
      <trkpt lat="43.31514" lon="2.24022">
        <ele>314.2</ele>
        <time>2022-03-06T08:20:24.000Z</time>
      </trkpt>
      <trkpt lat="43.31514" lon="2.24019">
        <ele>314.1</ele>
        <time>2022-03-06T08:20:25.000Z</time>
      </trkpt>
      <trkpt lat="43.31514" lon="2.24016">
        <ele>314.1</ele>
        <time>2022-03-06T08:20:26.000Z</time>
      </trkpt>
      <trkpt lat="43.31514" lon="2.24013">
        <ele>314</ele>
        <time>2022-03-06T08:20:27.000Z</time>
      </trkpt>
      <trkpt lat="43.31514" lon="2.2401">
        <ele>313.9</ele>
        <time>2022-03-06T08:20:28.000Z</time>
      </trkpt>
      <trkpt lat="43.31514" lon="2.24006">
        <ele>313.8</ele>
        <time>2022-03-06T08:20:29.000Z</time>
      </trkpt>
      <trkpt lat="43.31514" lon="2.24003">
        <ele>313.7</ele>
        <time>2022-03-06T08:20:30.000Z</time>
      </trkpt>
      <trkpt lat="43.31515" lon="2.24">
        <ele>313.5</ele>
        <time>2022-03-06T08:20:31.000Z</time>
      </trkpt>
      <trkpt lat="43.31515" lon="2.23997">
        <ele>313.4</ele>
        <time>2022-03-06T08:20:32.000Z</time>
      </trkpt>
      <trkpt lat="43.31515" lon="2.23994">
        <ele>313.2</ele>
        <time>2022-03-06T08:20:33.000Z</time>
      </trkpt>
      <trkpt lat="43.31515" lon="2.23991">
        <ele>313</ele>
        <time>2022-03-06T08:20:34.000Z</time>
      </trkpt>
      <trkpt lat="43.31515" lon="2.23987">
        <ele>312.9</ele>
        <time>2022-03-06T08:20:35.000Z</time>
      </trkpt>
      <trkpt lat="43.31515" lon="2.23984">
        <ele>312.7</ele>
        <time>2022-03-06T08:20:36.000Z</time>
      </trkpt>
      <trkpt lat="43.31515" lon="2.23981">
        <ele>312.6</ele>
        <time>2022-03-06T08:20:37.000Z</time>
      </trkpt>
      <trkpt lat="43.31515" lon="2.23978">
        <ele>312.4</ele>
        <time>2022-03-06T08:20:38.000Z</time>
      </trkpt>
      <trkpt lat="43.31515" lon="2.23975">
        <ele>312.3</ele>
        <time>2022-03-06T08:20:39.000Z</time>
      </trkpt>
      <trkpt lat="43.31515" lon="2.23972">
        <ele>312.1</ele>
        <time>2022-03-06T08:20:40.000Z</time>
      </trkpt>
      <trkpt lat="43.31515" lon="2.23969">
        <ele>312</ele>
        <time>2022-03-06T08:20:41.000Z</time>
      </trkpt>
      <trkpt lat="43.31515" lon="2.23966">
        <ele>311.9</ele>
        <time>2022-03-06T08:20:42.000Z</time>
      </trkpt>
      <trkpt lat="43.31515" lon="2.23963">
        <ele>311.7</ele>
        <time>2022-03-06T08:20:43.000Z</time>
      </trkpt>
      <trkpt lat="43.31515" lon="2.2396">
        <ele>311.5</ele>
        <time>2022-03-06T08:20:44.000Z</time>
      </trkpt>
      <trkpt lat="43.31515" lon="2.23957">
        <ele>311.4</ele>
        <time>2022-03-06T08:20:45.000Z</time>
      </trkpt>
      <trkpt lat="43.31515" lon="2.23954">
        <ele>311.2</ele>
        <time>2022-03-06T08:20:46.000Z</time>
      </trkpt>
      <trkpt lat="43.31515" lon="2.2395">
        <ele>311</ele>
        <time>2022-03-06T08:20:47.000Z</time>
      </trkpt>
      <trkpt lat="43.31515" lon="2.23947">
        <ele>310.8</ele>
        <time>2022-03-06T08:20:48.000Z</time>
      </trkpt>
      <trkpt lat="43.31515" lon="2.23944">
        <ele>310.6</ele>
        <time>2022-03-06T08:20:49.000Z</time>
      </trkpt>
      <trkpt lat="43.31516" lon="2.23941">
        <ele>310.4</ele>
        <time>2022-03-06T08:20:50.000Z</time>
      </trkpt>
      <trkpt lat="43.31516" lon="2.23938">
        <ele>310.1</ele>
        <time>2022-03-06T08:20:51.000Z</time>
      </trkpt>
      <trkpt lat="43.31517" lon="2.23935">
        <ele>309.9</ele>
        <time>2022-03-06T08:20:52.000Z</time>
      </trkpt>
      <trkpt lat="43.31517" lon="2.23931">
        <ele>309.7</ele>
        <time>2022-03-06T08:20:53.000Z</time>
      </trkpt>
      <trkpt lat="43.31518" lon="2.23928">
        <ele>309.4</ele>
        <time>2022-03-06T08:20:54.000Z</time>
      </trkpt>
      <trkpt lat="43.31518" lon="2.23925">
        <ele>309.1</ele>
        <time>2022-03-06T08:20:55.000Z</time>
      </trkpt>
      <trkpt lat="43.31519" lon="2.23922">
        <ele>308.9</ele>
        <time>2022-03-06T08:20:56.000Z</time>
      </trkpt>
      <trkpt lat="43.3152" lon="2.23919">
        <ele>308.6</ele>
        <time>2022-03-06T08:20:57.000Z</time>
      </trkpt>
      <trkpt lat="43.31521" lon="2.23916">
        <ele>308.2</ele>
        <time>2022-03-06T08:20:58.000Z</time>
      </trkpt>
      <trkpt lat="43.31522" lon="2.23913">
        <ele>307.8</ele>
        <time>2022-03-06T08:20:59.000Z</time>
      </trkpt>
      <trkpt lat="43.31522" lon="2.2391">
        <ele>307.3</ele>
        <time>2022-03-06T08:21:00.000Z</time>
      </trkpt>
      <trkpt lat="43.31523" lon="2.23907">
        <ele>306.9</ele>
        <time>2022-03-06T08:21:01.000Z</time>
      </trkpt>
      <trkpt lat="43.31525" lon="2.23904">
        <ele>306.4</ele>
        <time>2022-03-06T08:21:02.000Z</time>
      </trkpt>
      <trkpt lat="43.31526" lon="2.23902">
        <ele>306</ele>
        <time>2022-03-06T08:21:03.000Z</time>
      </trkpt>
      <trkpt lat="43.31527" lon="2.23899">
        <ele>305.5</ele>
        <time>2022-03-06T08:21:04.000Z</time>
      </trkpt>
      <trkpt lat="43.31528" lon="2.23896">
        <ele>305.1</ele>
        <time>2022-03-06T08:21:05.000Z</time>
      </trkpt>
      <trkpt lat="43.31529" lon="2.23894">
        <ele>304.7</ele>
        <time>2022-03-06T08:21:06.000Z</time>
      </trkpt>
      <trkpt lat="43.3153" lon="2.23891">
        <ele>304.2</ele>
        <time>2022-03-06T08:21:07.000Z</time>
      </trkpt>
      <trkpt lat="43.31531" lon="2.23889">
        <ele>303.8</ele>
        <time>2022-03-06T08:21:08.000Z</time>
      </trkpt>
      <trkpt lat="43.31533" lon="2.23886">
        <ele>303.4</ele>
        <time>2022-03-06T08:21:09.000Z</time>
      </trkpt>
      <trkpt lat="43.31534" lon="2.23884">
        <ele>303</ele>
        <time>2022-03-06T08:21:10.000Z</time>
      </trkpt>
      <trkpt lat="43.31535" lon="2.23881">
        <ele>302.6</ele>
        <time>2022-03-06T08:21:11.000Z</time>
      </trkpt>
      <trkpt lat="43.31536" lon="2.23879">
        <ele>302.2</ele>
        <time>2022-03-06T08:21:12.000Z</time>
      </trkpt>
      <trkpt lat="43.31537" lon="2.23876">
        <ele>301.8</ele>
        <time>2022-03-06T08:21:13.000Z</time>
      </trkpt>
      <trkpt lat="43.31538" lon="2.23874">
        <ele>301.5</ele>
        <time>2022-03-06T08:21:14.000Z</time>
      </trkpt>
      <trkpt lat="43.31539" lon="2.23871">
        <ele>301.1</ele>
        <time>2022-03-06T08:21:15.000Z</time>
      </trkpt>
      <trkpt lat="43.3154" lon="2.23869">
        <ele>300.8</ele>
        <time>2022-03-06T08:21:16.000Z</time>
      </trkpt>
      <trkpt lat="43.31541" lon="2.23866">
        <ele>300.4</ele>
        <time>2022-03-06T08:21:17.000Z</time>
      </trkpt>
      <trkpt lat="43.31542" lon="2.23864">
        <ele>300.1</ele>
        <time>2022-03-06T08:21:18.000Z</time>
      </trkpt>
      <trkpt lat="43.31543" lon="2.23861">
        <ele>299.7</ele>
        <time>2022-03-06T08:21:19.000Z</time>
      </trkpt>
      <trkpt lat="43.31544" lon="2.23858">
        <ele>299.3</ele>
        <time>2022-03-06T08:21:20.000Z</time>
      </trkpt>
      <trkpt lat="43.31544" lon="2.23856">
        <ele>299</ele>
        <time>2022-03-06T08:21:21.000Z</time>
      </trkpt>
      <trkpt lat="43.31545" lon="2.23852">
        <ele>298.7</ele>
        <time>2022-03-06T08:21:22.000Z</time>
      </trkpt>
      <trkpt lat="43.31544" lon="2.23849">
        <ele>298.5</ele>
        <time>2022-03-06T08:21:23.000Z</time>
      </trkpt>
      <trkpt lat="43.31544" lon="2.23846">
        <ele>298.2</ele>
        <time>2022-03-06T08:21:24.000Z</time>
      </trkpt>
      <trkpt lat="43.31543" lon="2.23843">
        <ele>298.1</ele>
        <time>2022-03-06T08:21:25.000Z</time>
      </trkpt>
      <trkpt lat="43.31542" lon="2.2384">
        <ele>297.9</ele>
        <time>2022-03-06T08:21:26.000Z</time>
      </trkpt>
      <trkpt lat="43.31541" lon="2.23836">
        <ele>297.8</ele>
        <time>2022-03-06T08:21:27.000Z</time>
      </trkpt>
      <trkpt lat="43.3154" lon="2.23833">
        <ele>297.6</ele>
        <time>2022-03-06T08:21:28.000Z</time>
      </trkpt>
      <trkpt lat="43.31539" lon="2.2383">
        <ele>297.5</ele>
        <time>2022-03-06T08:21:29.000Z</time>
      </trkpt>
      <trkpt lat="43.31538" lon="2.23826">
        <ele>297.4</ele>
        <time>2022-03-06T08:21:30.000Z</time>
      </trkpt>
      <trkpt lat="43.31537" lon="2.23823">
        <ele>297.3</ele>
        <time>2022-03-06T08:21:31.000Z</time>
      </trkpt>
      <trkpt lat="43.31536" lon="2.2382">
        <ele>297.2</ele>
        <time>2022-03-06T08:21:32.000Z</time>
      </trkpt>
      <trkpt lat="43.31535" lon="2.23818">
        <ele>297.1</ele>
        <time>2022-03-06T08:21:33.000Z</time>
      </trkpt>
      <trkpt lat="43.31534" lon="2.23815">
        <ele>297</ele>
        <time>2022-03-06T08:21:34.000Z</time>
      </trkpt>
      <trkpt lat="43.31533" lon="2.23813">
        <ele>296.9</ele>
        <time>2022-03-06T08:21:35.000Z</time>
      </trkpt>
      <trkpt lat="43.31532" lon="2.23811">
        <ele>296.9</ele>
        <time>2022-03-06T08:21:36.000Z</time>
      </trkpt>
      <trkpt lat="43.31531" lon="2.2381">
        <ele>296.9</ele>
        <time>2022-03-06T08:21:37.000Z</time>
      </trkpt>
      <trkpt lat="43.3153" lon="2.23809">
        <ele>296.8</ele>
        <time>2022-03-06T08:21:38.000Z</time>
      </trkpt>
      <trkpt lat="43.31529" lon="2.23808">
        <ele>296.8</ele>
        <time>2022-03-06T08:21:39.000Z</time>
      </trkpt>
      <trkpt lat="43.31529" lon="2.23808">
        <ele>296.8</ele>
        <time>2022-03-06T08:21:40.000Z</time>
      </trkpt>
      <trkpt lat="43.31529" lon="2.23807">
        <ele>296.8</ele>
        <time>2022-03-06T08:21:41.000Z</time>
      </trkpt>
      <trkpt lat="43.31529" lon="2.23807">
        <ele>296.8</ele>
        <time>2022-03-06T08:21:42.000Z</time>
      </trkpt>
      <trkpt lat="43.31529" lon="2.23807">
        <ele>296.8</ele>
        <time>2022-03-06T08:21:43.000Z</time>
      </trkpt>
      <trkpt lat="43.31529" lon="2.23807">
        <ele>296.8</ele>
        <time>2022-03-06T08:21:44.000Z</time>
      </trkpt>
      <trkpt lat="43.31529" lon="2.23807">
        <ele>296.8</ele>
        <time>2022-03-06T08:21:45.000Z</time>
      </trkpt>
      <trkpt lat="43.31529" lon="2.23807">
        <ele>296.8</ele>
        <time>2022-03-06T08:21:46.000Z</time>
      </trkpt>
      <trkpt lat="43.31528" lon="2.23807">
        <ele>296.8</ele>
        <time>2022-03-06T08:21:47.000Z</time>
      </trkpt>
      <trkpt lat="43.31528" lon="2.23807">
        <ele>296.8</ele>
        <time>2022-03-06T08:21:48.000Z</time>
      </trkpt>
      <trkpt lat="43.31528" lon="2.23807">
        <ele>296.8</ele>
        <time>2022-03-06T08:21:49.000Z</time>
      </trkpt>
      <trkpt lat="43.31528" lon="2.23807">
        <ele>296.8</ele>
        <time>2022-03-06T08:21:50.000Z</time>
      </trkpt>
      <trkpt lat="43.31528" lon="2.23807">
        <ele>296.8</ele>
        <time>2022-03-06T08:21:51.000Z</time>
      </trkpt>
      <trkpt lat="43.31528" lon="2.23807">
        <ele>296.8</ele>
        <time>2022-03-06T08:21:52.000Z</time>
      </trkpt>
      <trkpt lat="43.31528" lon="2.23807">
        <ele>296.8</ele>
        <time>2022-03-06T08:21:53.000Z</time>
      </trkpt>
      <trkpt lat="43.31528" lon="2.23807">
        <ele>296.8</ele>
        <time>2022-03-06T08:21:54.000Z</time>
      </trkpt>
      <trkpt lat="43.31528" lon="2.23807">
        <ele>296.8</ele>
        <time>2022-03-06T08:21:55.000Z</time>
      </trkpt>
      <trkpt lat="43.31528" lon="2.23807">
        <ele>296.9</ele>
        <time>2022-03-06T08:21:56.000Z</time>
      </trkpt>
      <trkpt lat="43.31528" lon="2.23807">
        <ele>296.9</ele>
        <time>2022-03-06T08:21:57.000Z</time>
      </trkpt>
      <trkpt lat="43.31528" lon="2.23807">
        <ele>296.9</ele>
        <time>2022-03-06T08:21:58.000Z</time>
      </trkpt>
      <trkpt lat="43.31528" lon="2.23807">
        <ele>296.9</ele>
        <time>2022-03-06T08:21:59.000Z</time>
      </trkpt>
      <trkpt lat="43.31528" lon="2.23807">
        <ele>296.9</ele>
        <time>2022-03-06T08:22:00.000Z</time>
      </trkpt>
      <trkpt lat="43.31528" lon="2.23807">
        <ele>296.8</ele>
        <time>2022-03-06T08:22:01.000Z</time>
      </trkpt>
      <trkpt lat="43.31528" lon="2.23807">
        <ele>296.8</ele>
        <time>2022-03-06T08:22:02.000Z</time>
      </trkpt>
      <trkpt lat="43.31528" lon="2.23807">
        <ele>296.8</ele>
        <time>2022-03-06T08:22:03.000Z</time>
      </trkpt>
      <trkpt lat="43.31528" lon="2.23807">
        <ele>296.8</ele>
        <time>2022-03-06T08:22:04.000Z</time>
      </trkpt>
      <trkpt lat="43.31528" lon="2.23807">
        <ele>296.8</ele>
        <time>2022-03-06T08:22:05.000Z</time>
      </trkpt>
      <trkpt lat="43.31528" lon="2.23807">
        <ele>296.8</ele>
        <time>2022-03-06T08:22:06.000Z</time>
      </trkpt>
      <trkpt lat="43.31528" lon="2.23807">
        <ele>296.8</ele>
        <time>2022-03-06T08:22:07.000Z</time>
      </trkpt>
      <trkpt lat="43.31528" lon="2.23807">
        <ele>296.8</ele>
        <time>2022-03-06T08:22:08.000Z</time>
      </trkpt>
      <trkpt lat="43.31528" lon="2.23807">
        <ele>296.8</ele>
        <time>2022-03-06T08:22:09.000Z</time>
      </trkpt>
      <trkpt lat="43.31528" lon="2.23807">
        <ele>296.9</ele>
        <time>2022-03-06T08:22:10.000Z</time>
      </trkpt>
      <trkpt lat="43.31528" lon="2.23807">
        <ele>296.9</ele>
        <time>2022-03-06T08:22:11.000Z</time>
      </trkpt>
      <trkpt lat="43.31528" lon="2.23807">
        <ele>296.9</ele>
        <time>2022-03-06T08:22:12.000Z</time>
      </trkpt>
      <trkpt lat="43.31528" lon="2.23807">
        <ele>296.9</ele>
        <time>2022-03-06T08:22:13.000Z</time>
      </trkpt>
      <trkpt lat="43.31528" lon="2.23807">
        <ele>296.9</ele>
        <time>2022-03-06T08:22:14.000Z</time>
      </trkpt>
      <trkpt lat="43.31528" lon="2.23807">
        <ele>296.9</ele>
        <time>2022-03-06T08:22:15.000Z</time>
      </trkpt>
      <trkpt lat="43.31528" lon="2.23806">
        <ele>296.9</ele>
        <time>2022-03-06T08:22:16.000Z</time>
      </trkpt>
      <trkpt lat="43.31527" lon="2.23806">
        <ele>296.9</ele>
        <time>2022-03-06T08:22:17.000Z</time>
      </trkpt>
      <trkpt lat="43.31527" lon="2.23806">
        <ele>296.9</ele>
        <time>2022-03-06T08:22:18.000Z</time>
      </trkpt>
      <trkpt lat="43.31527" lon="2.23806">
        <ele>296.9</ele>
        <time>2022-03-06T08:22:19.000Z</time>
      </trkpt>
      <trkpt lat="43.31527" lon="2.23806">
        <ele>296.9</ele>
        <time>2022-03-06T08:22:20.000Z</time>
      </trkpt>
      <trkpt lat="43.31527" lon="2.23806">
        <ele>296.9</ele>
        <time>2022-03-06T08:22:21.000Z</time>
      </trkpt>
      <trkpt lat="43.31527" lon="2.23806">
        <ele>296.9</ele>
        <time>2022-03-06T08:22:22.000Z</time>
      </trkpt>
      <trkpt lat="43.31527" lon="2.23806">
        <ele>296.9</ele>
        <time>2022-03-06T08:22:23.000Z</time>
      </trkpt>
      <trkpt lat="43.31527" lon="2.23806">
        <ele>296.9</ele>
        <time>2022-03-06T08:22:24.000Z</time>
      </trkpt>
      <trkpt lat="43.31527" lon="2.23806">
        <ele>296.9</ele>
        <time>2022-03-06T08:22:25.000Z</time>
      </trkpt>
      <trkpt lat="43.31527" lon="2.23806">
        <ele>296.9</ele>
        <time>2022-03-06T08:22:26.000Z</time>
      </trkpt>
      <trkpt lat="43.31527" lon="2.23806">
        <ele>296.9</ele>
        <time>2022-03-06T08:22:27.000Z</time>
      </trkpt>
      <trkpt lat="43.31527" lon="2.23806">
        <ele>296.9</ele>
        <time>2022-03-06T08:22:28.000Z</time>
      </trkpt>
      <trkpt lat="43.31527" lon="2.23806">
        <ele>296.9</ele>
        <time>2022-03-06T08:22:29.000Z</time>
      </trkpt>
      <trkpt lat="43.31527" lon="2.23806">
        <ele>296.9</ele>
        <time>2022-03-06T08:22:30.000Z</time>
      </trkpt>
      <trkpt lat="43.31527" lon="2.23806">
        <ele>296.9</ele>
        <time>2022-03-06T08:22:31.000Z</time>
      </trkpt>
      <trkpt lat="43.31527" lon="2.23806">
        <ele>297</ele>
        <time>2022-03-06T08:22:32.000Z</time>
      </trkpt>
      <trkpt lat="43.31526" lon="2.23806">
        <ele>297</ele>
        <time>2022-03-06T08:22:33.000Z</time>
      </trkpt>
      <trkpt lat="43.31526" lon="2.23806">
        <ele>297</ele>
        <time>2022-03-06T08:22:34.000Z</time>
      </trkpt>
      <trkpt lat="43.31525" lon="2.23805">
        <ele>297</ele>
        <time>2022-03-06T08:22:35.000Z</time>
      </trkpt>
      <trkpt lat="43.31524" lon="2.23805">
        <ele>297.1</ele>
        <time>2022-03-06T08:22:36.000Z</time>
      </trkpt>
      <trkpt lat="43.31523" lon="2.23804">
        <ele>297.1</ele>
        <time>2022-03-06T08:22:37.000Z</time>
      </trkpt>
      <trkpt lat="43.31522" lon="2.23803">
        <ele>297.1</ele>
        <time>2022-03-06T08:22:38.000Z</time>
      </trkpt>
      <trkpt lat="43.3152" lon="2.23802">
        <ele>297.2</ele>
        <time>2022-03-06T08:22:39.000Z</time>
      </trkpt>
      <trkpt lat="43.31518" lon="2.238">
        <ele>297.2</ele>
        <time>2022-03-06T08:22:40.000Z</time>
      </trkpt>
      <trkpt lat="43.31517" lon="2.23799">
        <ele>297.2</ele>
        <time>2022-03-06T08:22:41.000Z</time>
      </trkpt>
      <trkpt lat="43.31515" lon="2.23798">
        <ele>297.3</ele>
        <time>2022-03-06T08:22:42.000Z</time>
      </trkpt>
      <trkpt lat="43.31513" lon="2.23797">
        <ele>297.4</ele>
        <time>2022-03-06T08:22:43.000Z</time>
      </trkpt>
      <trkpt lat="43.31511" lon="2.23796">
        <ele>297.5</ele>
        <time>2022-03-06T08:22:44.000Z</time>
      </trkpt>
      <trkpt lat="43.31508" lon="2.23795">
        <ele>297.7</ele>
        <time>2022-03-06T08:22:45.000Z</time>
      </trkpt>
      <trkpt lat="43.31506" lon="2.23794">
        <ele>297.8</ele>
        <time>2022-03-06T08:22:46.000Z</time>
      </trkpt>
      <trkpt lat="43.31503" lon="2.23794">
        <ele>298</ele>
        <time>2022-03-06T08:22:47.000Z</time>
      </trkpt>
      <trkpt lat="43.315" lon="2.23793">
        <ele>298.1</ele>
        <time>2022-03-06T08:22:48.000Z</time>
      </trkpt>
      <trkpt lat="43.31498" lon="2.23792">
        <ele>297.9</ele>
        <time>2022-03-06T08:22:49.000Z</time>
      </trkpt>
      <trkpt lat="43.31495" lon="2.23791">
        <ele>297.7</ele>
        <time>2022-03-06T08:22:50.000Z</time>
      </trkpt>
      <trkpt lat="43.31493" lon="2.2379">
        <ele>297.4</ele>
        <time>2022-03-06T08:22:51.000Z</time>
      </trkpt>
      <trkpt lat="43.31491" lon="2.23788">
        <ele>297.2</ele>
        <time>2022-03-06T08:22:52.000Z</time>
      </trkpt>
      <trkpt lat="43.31488" lon="2.23787">
        <ele>297</ele>
        <time>2022-03-06T08:22:53.000Z</time>
      </trkpt>
      <trkpt lat="43.31486" lon="2.23787">
        <ele>296.8</ele>
        <time>2022-03-06T08:22:54.000Z</time>
      </trkpt>
      <trkpt lat="43.31484" lon="2.23786">
        <ele>296.6</ele>
        <time>2022-03-06T08:22:55.000Z</time>
      </trkpt>
      <trkpt lat="43.31482" lon="2.23785">
        <ele>296.4</ele>
        <time>2022-03-06T08:22:56.000Z</time>
      </trkpt>
      <trkpt lat="43.31479" lon="2.23785">
        <ele>296.3</ele>
        <time>2022-03-06T08:22:57.000Z</time>
      </trkpt>
      <trkpt lat="43.31477" lon="2.23784">
        <ele>296.1</ele>
        <time>2022-03-06T08:22:58.000Z</time>
      </trkpt>
      <trkpt lat="43.31475" lon="2.23784">
        <ele>296</ele>
        <time>2022-03-06T08:22:59.000Z</time>
      </trkpt>
      <trkpt lat="43.31473" lon="2.23784">
        <ele>295.9</ele>
        <time>2022-03-06T08:23:00.000Z</time>
      </trkpt>
      <trkpt lat="43.31471" lon="2.23783">
        <ele>295.7</ele>
        <time>2022-03-06T08:23:01.000Z</time>
      </trkpt>
      <trkpt lat="43.31469" lon="2.23783">
        <ele>295.6</ele>
        <time>2022-03-06T08:23:02.000Z</time>
      </trkpt>
      <trkpt lat="43.31467" lon="2.23783">
        <ele>295.5</ele>
        <time>2022-03-06T08:23:03.000Z</time>
      </trkpt>
      <trkpt lat="43.31464" lon="2.23783">
        <ele>295.4</ele>
        <time>2022-03-06T08:23:04.000Z</time>
      </trkpt>
      <trkpt lat="43.31462" lon="2.23783">
        <ele>295.3</ele>
        <time>2022-03-06T08:23:05.000Z</time>
      </trkpt>
      <trkpt lat="43.3146" lon="2.23782">
        <ele>295.1</ele>
        <time>2022-03-06T08:23:06.000Z</time>
      </trkpt>
      <trkpt lat="43.31458" lon="2.23782">
        <ele>295</ele>
        <time>2022-03-06T08:23:07.000Z</time>
      </trkpt>
      <trkpt lat="43.31455" lon="2.23782">
        <ele>294.8</ele>
        <time>2022-03-06T08:23:08.000Z</time>
      </trkpt>
      <trkpt lat="43.31453" lon="2.23781">
        <ele>294.7</ele>
        <time>2022-03-06T08:23:09.000Z</time>
      </trkpt>
      <trkpt lat="43.31451" lon="2.2378">
        <ele>294.5</ele>
        <time>2022-03-06T08:23:10.000Z</time>
      </trkpt>
      <trkpt lat="43.31448" lon="2.2378">
        <ele>294.3</ele>
        <time>2022-03-06T08:23:11.000Z</time>
      </trkpt>
      <trkpt lat="43.31446" lon="2.23779">
        <ele>294.1</ele>
        <time>2022-03-06T08:23:12.000Z</time>
      </trkpt>
      <trkpt lat="43.31445" lon="2.23778">
        <ele>293.9</ele>
        <time>2022-03-06T08:23:13.000Z</time>
      </trkpt>
      <trkpt lat="43.31443" lon="2.23777">
        <ele>293.8</ele>
        <time>2022-03-06T08:23:14.000Z</time>
      </trkpt>
      <trkpt lat="43.31442" lon="2.23776">
        <ele>293.6</ele>
        <time>2022-03-06T08:23:15.000Z</time>
      </trkpt>
      <trkpt lat="43.31441" lon="2.23776">
        <ele>293.5</ele>
        <time>2022-03-06T08:23:16.000Z</time>
      </trkpt>
      <trkpt lat="43.31441" lon="2.23775">
        <ele>293.3</ele>
        <time>2022-03-06T08:23:17.000Z</time>
      </trkpt>
      <trkpt lat="43.31441" lon="2.23774">
        <ele>293.2</ele>
        <time>2022-03-06T08:23:18.000Z</time>
      </trkpt>
      <trkpt lat="43.3144" lon="2.23773">
        <ele>293.1</ele>
        <time>2022-03-06T08:23:19.000Z</time>
      </trkpt>
      <trkpt lat="43.3144" lon="2.23773">
        <ele>293</ele>
        <time>2022-03-06T08:23:20.000Z</time>
      </trkpt>
      <trkpt lat="43.3144" lon="2.23772">
        <ele>293</ele>
        <time>2022-03-06T08:23:21.000Z</time>
      </trkpt>
      <trkpt lat="43.3144" lon="2.23772">
        <ele>292.9</ele>
        <time>2022-03-06T08:23:22.000Z</time>
      </trkpt>
      <trkpt lat="43.31441" lon="2.23771">
        <ele>292.8</ele>
        <time>2022-03-06T08:23:23.000Z</time>
      </trkpt>
      <trkpt lat="43.31441" lon="2.2377">
        <ele>292.7</ele>
        <time>2022-03-06T08:23:24.000Z</time>
      </trkpt>
      <trkpt lat="43.31442" lon="2.23769">
        <ele>292.6</ele>
        <time>2022-03-06T08:23:25.000Z</time>
      </trkpt>
      <trkpt lat="43.31442" lon="2.23768">
        <ele>292.5</ele>
        <time>2022-03-06T08:23:26.000Z</time>
      </trkpt>
      <trkpt lat="43.31443" lon="2.23767">
        <ele>292.5</ele>
        <time>2022-03-06T08:23:27.000Z</time>
      </trkpt>
      <trkpt lat="43.31444" lon="2.23766">
        <ele>292.4</ele>
        <time>2022-03-06T08:23:28.000Z</time>
      </trkpt>
      <trkpt lat="43.31445" lon="2.23766">
        <ele>292.3</ele>
        <time>2022-03-06T08:23:29.000Z</time>
      </trkpt>
      <trkpt lat="43.31445" lon="2.23765">
        <ele>292.3</ele>
        <time>2022-03-06T08:23:30.000Z</time>
      </trkpt>
      <trkpt lat="43.31446" lon="2.23765">
        <ele>292.3</ele>
        <time>2022-03-06T08:23:31.000Z</time>
      </trkpt>
      <trkpt lat="43.31447" lon="2.23765">
        <ele>292.3</ele>
        <time>2022-03-06T08:23:32.000Z</time>
      </trkpt>
      <trkpt lat="43.31447" lon="2.23765">
        <ele>292.3</ele>
        <time>2022-03-06T08:23:33.000Z</time>
      </trkpt>
      <trkpt lat="43.31448" lon="2.23764">
        <ele>292.3</ele>
        <time>2022-03-06T08:23:34.000Z</time>
      </trkpt>
      <trkpt lat="43.31449" lon="2.23764">
        <ele>292.4</ele>
        <time>2022-03-06T08:23:35.000Z</time>
      </trkpt>
      <trkpt lat="43.3145" lon="2.23764">
        <ele>292.4</ele>
        <time>2022-03-06T08:23:36.000Z</time>
      </trkpt>
      <trkpt lat="43.31451" lon="2.23764">
        <ele>292.4</ele>
        <time>2022-03-06T08:23:37.000Z</time>
      </trkpt>
      <trkpt lat="43.31452" lon="2.23763">
        <ele>292.3</ele>
        <time>2022-03-06T08:23:38.000Z</time>
      </trkpt>
      <trkpt lat="43.31453" lon="2.23763">
        <ele>292.3</ele>
        <time>2022-03-06T08:23:39.000Z</time>
      </trkpt>
      <trkpt lat="43.31453" lon="2.23763">
        <ele>292.3</ele>
        <time>2022-03-06T08:23:40.000Z</time>
      </trkpt>
      <trkpt lat="43.31452" lon="2.23763">
        <ele>292.3</ele>
        <time>2022-03-06T08:23:41.000Z</time>
      </trkpt>
      <trkpt lat="43.31452" lon="2.23763">
        <ele>292.4</ele>
        <time>2022-03-06T08:23:42.000Z</time>
      </trkpt>
      <trkpt lat="43.31451" lon="2.23764">
        <ele>292.4</ele>
        <time>2022-03-06T08:23:43.000Z</time>
      </trkpt>
      <trkpt lat="43.3145" lon="2.23765">
        <ele>292.4</ele>
        <time>2022-03-06T08:23:44.000Z</time>
      </trkpt>
      <trkpt lat="43.31449" lon="2.23765">
        <ele>292.5</ele>
        <time>2022-03-06T08:23:45.000Z</time>
      </trkpt>
      <trkpt lat="43.31448" lon="2.23766">
        <ele>292.6</ele>
        <time>2022-03-06T08:23:46.000Z</time>
      </trkpt>
      <trkpt lat="43.31447" lon="2.23767">
        <ele>292.6</ele>
        <time>2022-03-06T08:23:47.000Z</time>
      </trkpt>
      <trkpt lat="43.31446" lon="2.23768">
        <ele>292.7</ele>
        <time>2022-03-06T08:23:48.000Z</time>
      </trkpt>
      <trkpt lat="43.31445" lon="2.23769">
        <ele>292.8</ele>
        <time>2022-03-06T08:23:49.000Z</time>
      </trkpt>
      <trkpt lat="43.31444" lon="2.2377">
        <ele>292.9</ele>
        <time>2022-03-06T08:23:50.000Z</time>
      </trkpt>
      <trkpt lat="43.31442" lon="2.23771">
        <ele>293</ele>
        <time>2022-03-06T08:23:51.000Z</time>
      </trkpt>
      <trkpt lat="43.31441" lon="2.23773">
        <ele>293.1</ele>
        <time>2022-03-06T08:23:52.000Z</time>
      </trkpt>
      <trkpt lat="43.3144" lon="2.23774">
        <ele>293.1</ele>
        <time>2022-03-06T08:23:53.000Z</time>
      </trkpt>
      <trkpt lat="43.31439" lon="2.23775">
        <ele>293.2</ele>
        <time>2022-03-06T08:23:54.000Z</time>
      </trkpt>
      <trkpt lat="43.31438" lon="2.23775">
        <ele>293.3</ele>
        <time>2022-03-06T08:23:55.000Z</time>
      </trkpt>
      <trkpt lat="43.31437" lon="2.23776">
        <ele>293.4</ele>
        <time>2022-03-06T08:23:56.000Z</time>
      </trkpt>
      <trkpt lat="43.31436" lon="2.23777">
        <ele>293.4</ele>
        <time>2022-03-06T08:23:57.000Z</time>
      </trkpt>
      <trkpt lat="43.31436" lon="2.23777">
        <ele>293.5</ele>
        <time>2022-03-06T08:23:58.000Z</time>
      </trkpt>
      <trkpt lat="43.31435" lon="2.23778">
        <ele>293.5</ele>
        <time>2022-03-06T08:23:59.000Z</time>
      </trkpt>
      <trkpt lat="43.31435" lon="2.23778">
        <ele>293.5</ele>
        <time>2022-03-06T08:24:00.000Z</time>
      </trkpt>
      <trkpt lat="43.31435" lon="2.23779">
        <ele>293.6</ele>
        <time>2022-03-06T08:24:01.000Z</time>
      </trkpt>
      <trkpt lat="43.31434" lon="2.23779">
        <ele>293.6</ele>
        <time>2022-03-06T08:24:02.000Z</time>
      </trkpt>
      <trkpt lat="43.31434" lon="2.23779">
        <ele>293.6</ele>
        <time>2022-03-06T08:24:03.000Z</time>
      </trkpt>
      <trkpt lat="43.31434" lon="2.23779">
        <ele>293.6</ele>
        <time>2022-03-06T08:24:04.000Z</time>
      </trkpt>
      <trkpt lat="43.31434" lon="2.23779">
        <ele>293.6</ele>
        <time>2022-03-06T08:24:05.000Z</time>
      </trkpt>
      <trkpt lat="43.31434" lon="2.23779">
        <ele>293.6</ele>
        <time>2022-03-06T08:24:06.000Z</time>
      </trkpt>
      <trkpt lat="43.31434" lon="2.2378">
        <ele>293.7</ele>
        <time>2022-03-06T08:24:07.000Z</time>
      </trkpt>
      <trkpt lat="43.31434" lon="2.2378">
        <ele>293.7</ele>
        <time>2022-03-06T08:24:08.000Z</time>
      </trkpt>
      <trkpt lat="43.31434" lon="2.2378">
        <ele>293.7</ele>
        <time>2022-03-06T08:24:09.000Z</time>
      </trkpt>
      <trkpt lat="43.31434" lon="2.2378">
        <ele>293.7</ele>
        <time>2022-03-06T08:24:10.000Z</time>
      </trkpt>
      <trkpt lat="43.31434" lon="2.2378">
        <ele>293.7</ele>
        <time>2022-03-06T08:24:11.000Z</time>
      </trkpt>
      <trkpt lat="43.31434" lon="2.2378">
        <ele>293.7</ele>
        <time>2022-03-06T08:24:12.000Z</time>
      </trkpt>
      <trkpt lat="43.31434" lon="2.2378">
        <ele>293.7</ele>
        <time>2022-03-06T08:24:13.000Z</time>
      </trkpt>
      <trkpt lat="43.31434" lon="2.2378">
        <ele>293.7</ele>
        <time>2022-03-06T08:24:14.000Z</time>
      </trkpt>
      <trkpt lat="43.31434" lon="2.2378">
        <ele>293.7</ele>
        <time>2022-03-06T08:24:15.000Z</time>
      </trkpt>
      <trkpt lat="43.31434" lon="2.2378">
        <ele>293.7</ele>
        <time>2022-03-06T08:24:16.000Z</time>
      </trkpt>
      <trkpt lat="43.31434" lon="2.2378">
        <ele>293.7</ele>
        <time>2022-03-06T08:24:17.000Z</time>
      </trkpt>
      <trkpt lat="43.31434" lon="2.2378">
        <ele>293.7</ele>
        <time>2022-03-06T08:24:18.000Z</time>
      </trkpt>
      <trkpt lat="43.31434" lon="2.2378">
        <ele>293.7</ele>
        <time>2022-03-06T08:24:19.000Z</time>
      </trkpt>
      <trkpt lat="43.31434" lon="2.2378">
        <ele>293.7</ele>
        <time>2022-03-06T08:24:20.000Z</time>
      </trkpt>
      <trkpt lat="43.31434" lon="2.2378">
        <ele>293.7</ele>
        <time>2022-03-06T08:24:21.000Z</time>
      </trkpt>
      <trkpt lat="43.31434" lon="2.2378">
        <ele>293.7</ele>
        <time>2022-03-06T08:24:22.000Z</time>
      </trkpt>
      <trkpt lat="43.31434" lon="2.2378">
        <ele>293.7</ele>
        <time>2022-03-06T08:24:23.000Z</time>
      </trkpt>
      <trkpt lat="43.31434" lon="2.2378">
        <ele>293.7</ele>
        <time>2022-03-06T08:24:24.000Z</time>
      </trkpt>
      <trkpt lat="43.31434" lon="2.2378">
        <ele>293.7</ele>
        <time>2022-03-06T08:24:25.000Z</time>
      </trkpt>
      <trkpt lat="43.31434" lon="2.2378">
        <ele>293.7</ele>
        <time>2022-03-06T08:24:26.000Z</time>
      </trkpt>
      <trkpt lat="43.31434" lon="2.2378">
        <ele>293.7</ele>
        <time>2022-03-06T08:24:27.000Z</time>
      </trkpt>
      <trkpt lat="43.31434" lon="2.2378">
        <ele>293.7</ele>
        <time>2022-03-06T08:24:28.000Z</time>
      </trkpt>
      <trkpt lat="43.31434" lon="2.2378">
        <ele>293.7</ele>
        <time>2022-03-06T08:24:29.000Z</time>
      </trkpt>
      <trkpt lat="43.31434" lon="2.2378">
        <ele>293.7</ele>
        <time>2022-03-06T08:24:30.000Z</time>
      </trkpt>
      <trkpt lat="43.31434" lon="2.2378">
        <ele>293.7</ele>
        <time>2022-03-06T08:24:31.000Z</time>
      </trkpt>
      <trkpt lat="43.31434" lon="2.2378">
        <ele>293.7</ele>
        <time>2022-03-06T08:24:32.000Z</time>
      </trkpt>
      <trkpt lat="43.31434" lon="2.2378">
        <ele>293.7</ele>
        <time>2022-03-06T08:24:33.000Z</time>
      </trkpt>
      <trkpt lat="43.31434" lon="2.2378">
        <ele>293.7</ele>
        <time>2022-03-06T08:24:34.000Z</time>
      </trkpt>
      <trkpt lat="43.31434" lon="2.2378">
        <ele>293.7</ele>
        <time>2022-03-06T08:24:35.000Z</time>
      </trkpt>
      <trkpt lat="43.31434" lon="2.2378">
        <ele>293.7</ele>
        <time>2022-03-06T08:24:36.000Z</time>
      </trkpt>
      <trkpt lat="43.31434" lon="2.2378">
        <ele>293.7</ele>
        <time>2022-03-06T08:24:37.000Z</time>
      </trkpt>
      <trkpt lat="43.31434" lon="2.2378">
        <ele>293.7</ele>
        <time>2022-03-06T08:24:38.000Z</time>
      </trkpt>
      <trkpt lat="43.31434" lon="2.2378">
        <ele>293.7</ele>
        <time>2022-03-06T08:24:39.000Z</time>
      </trkpt>
      <trkpt lat="43.31434" lon="2.2378">
        <ele>293.7</ele>
        <time>2022-03-06T08:24:40.000Z</time>
      </trkpt>
      <trkpt lat="43.31434" lon="2.2378">
        <ele>293.7</ele>
        <time>2022-03-06T08:24:41.000Z</time>
      </trkpt>
      <trkpt lat="43.31434" lon="2.2378">
        <ele>293.7</ele>
        <time>2022-03-06T08:24:42.000Z</time>
      </trkpt>
      <trkpt lat="43.31434" lon="2.2378">
        <ele>293.7</ele>
        <time>2022-03-06T08:24:43.000Z</time>
      </trkpt>
      <trkpt lat="43.31434" lon="2.2378">
        <ele>293.7</ele>
        <time>2022-03-06T08:24:44.000Z</time>
      </trkpt>
      <trkpt lat="43.31434" lon="2.2378">
        <ele>293.7</ele>
        <time>2022-03-06T08:24:45.000Z</time>
      </trkpt>
      <trkpt lat="43.31434" lon="2.2378">
        <ele>293.7</ele>
        <time>2022-03-06T08:24:46.000Z</time>
      </trkpt>
      <trkpt lat="43.31434" lon="2.2378">
        <ele>293.7</ele>
        <time>2022-03-06T08:24:47.000Z</time>
      </trkpt>
      <trkpt lat="43.31434" lon="2.2378">
        <ele>293.7</ele>
        <time>2022-03-06T08:24:48.000Z</time>
      </trkpt>
      <trkpt lat="43.31434" lon="2.2378">
        <ele>293.7</ele>
        <time>2022-03-06T08:24:49.000Z</time>
      </trkpt>
      <trkpt lat="43.31434" lon="2.2378">
        <ele>293.7</ele>
        <time>2022-03-06T08:24:50.000Z</time>
      </trkpt>
      <trkpt lat="43.31434" lon="2.2378">
        <ele>293.7</ele>
        <time>2022-03-06T08:24:51.000Z</time>
      </trkpt>
      <trkpt lat="43.31434" lon="2.2378">
        <ele>293.7</ele>
        <time>2022-03-06T08:24:52.000Z</time>
      </trkpt>
      <trkpt lat="43.31434" lon="2.2378">
        <ele>293.7</ele>
        <time>2022-03-06T08:24:53.000Z</time>
      </trkpt>
      <trkpt lat="43.31434" lon="2.2378">
        <ele>293.7</ele>
        <time>2022-03-06T08:24:54.000Z</time>
      </trkpt>
      <trkpt lat="43.31434" lon="2.2378">
        <ele>293.7</ele>
        <time>2022-03-06T08:24:55.000Z</time>
      </trkpt>
      <trkpt lat="43.31434" lon="2.2378">
        <ele>293.7</ele>
        <time>2022-03-06T08:24:56.000Z</time>
      </trkpt>
      <trkpt lat="43.31434" lon="2.2378">
        <ele>293.7</ele>
        <time>2022-03-06T08:24:57.000Z</time>
      </trkpt>
      <trkpt lat="43.31434" lon="2.2378">
        <ele>293.7</ele>
        <time>2022-03-06T08:24:58.000Z</time>
      </trkpt>
      <trkpt lat="43.31434" lon="2.2378">
        <ele>293.7</ele>
        <time>2022-03-06T08:24:59.000Z</time>
      </trkpt>
      <trkpt lat="43.31434" lon="2.2378">
        <ele>293.7</ele>
        <time>2022-03-06T08:25:00.000Z</time>
      </trkpt>
      <trkpt lat="43.31434" lon="2.2378">
        <ele>293.7</ele>
        <time>2022-03-06T08:25:01.000Z</time>
      </trkpt>
      <trkpt lat="43.31434" lon="2.2378">
        <ele>293.7</ele>
        <time>2022-03-06T08:25:02.000Z</time>
      </trkpt>
      <trkpt lat="43.31434" lon="2.23779">
        <ele>293.6</ele>
        <time>2022-03-06T08:25:03.000Z</time>
      </trkpt>
      <trkpt lat="43.31435" lon="2.23779">
        <ele>293.6</ele>
        <time>2022-03-06T08:25:04.000Z</time>
      </trkpt>
      <trkpt lat="43.31435" lon="2.23778">
        <ele>293.5</ele>
        <time>2022-03-06T08:25:05.000Z</time>
      </trkpt>
      <trkpt lat="43.31435" lon="2.23777">
        <ele>293.4</ele>
        <time>2022-03-06T08:25:06.000Z</time>
      </trkpt>
      <trkpt lat="43.31436" lon="2.23776">
        <ele>293.2</ele>
        <time>2022-03-06T08:25:07.000Z</time>
      </trkpt>
      <trkpt lat="43.31436" lon="2.23775">
        <ele>293.1</ele>
        <time>2022-03-06T08:25:08.000Z</time>
      </trkpt>
      <trkpt lat="43.31437" lon="2.23774">
        <ele>293</ele>
        <time>2022-03-06T08:25:09.000Z</time>
      </trkpt>
      <trkpt lat="43.31438" lon="2.23773">
        <ele>293</ele>
        <time>2022-03-06T08:25:10.000Z</time>
      </trkpt>
      <trkpt lat="43.31438" lon="2.23773">
        <ele>292.9</ele>
        <time>2022-03-06T08:25:11.000Z</time>
      </trkpt>
      <trkpt lat="43.31439" lon="2.23772">
        <ele>292.9</ele>
        <time>2022-03-06T08:25:12.000Z</time>
      </trkpt>
      <trkpt lat="43.31439" lon="2.23772">
        <ele>292.9</ele>
        <time>2022-03-06T08:25:13.000Z</time>
      </trkpt>
      <trkpt lat="43.3144" lon="2.23772">
        <ele>292.9</ele>
        <time>2022-03-06T08:25:14.000Z</time>
      </trkpt>
      <trkpt lat="43.31441" lon="2.23771">
        <ele>292.9</ele>
        <time>2022-03-06T08:25:15.000Z</time>
      </trkpt>
      <trkpt lat="43.31442" lon="2.23771">
        <ele>292.9</ele>
        <time>2022-03-06T08:25:16.000Z</time>
      </trkpt>
      <trkpt lat="43.31442" lon="2.2377">
        <ele>292.8</ele>
        <time>2022-03-06T08:25:17.000Z</time>
      </trkpt>
      <trkpt lat="43.31443" lon="2.23769">
        <ele>292.7</ele>
        <time>2022-03-06T08:25:18.000Z</time>
      </trkpt>
      <trkpt lat="43.31444" lon="2.23768">
        <ele>292.7</ele>
        <time>2022-03-06T08:25:19.000Z</time>
      </trkpt>
      <trkpt lat="43.31445" lon="2.23768">
        <ele>292.6</ele>
        <time>2022-03-06T08:25:20.000Z</time>
      </trkpt>
      <trkpt lat="43.31445" lon="2.23767">
        <ele>292.5</ele>
        <time>2022-03-06T08:25:21.000Z</time>
      </trkpt>
      <trkpt lat="43.31446" lon="2.23766">
        <ele>292.4</ele>
        <time>2022-03-06T08:25:22.000Z</time>
      </trkpt>
      <trkpt lat="43.31446" lon="2.23765">
        <ele>292.4</ele>
        <time>2022-03-06T08:25:23.000Z</time>
      </trkpt>
      <trkpt lat="43.31447" lon="2.23765">
        <ele>292.3</ele>
        <time>2022-03-06T08:25:24.000Z</time>
      </trkpt>
      <trkpt lat="43.31447" lon="2.23764">
        <ele>292.3</ele>
        <time>2022-03-06T08:25:25.000Z</time>
      </trkpt>
      <trkpt lat="43.31448" lon="2.23764">
        <ele>292.2</ele>
        <time>2022-03-06T08:25:26.000Z</time>
      </trkpt>
      <trkpt lat="43.31448" lon="2.23764">
        <ele>292.2</ele>
        <time>2022-03-06T08:25:27.000Z</time>
      </trkpt>
      <trkpt lat="43.31448" lon="2.23763">
        <ele>292.2</ele>
        <time>2022-03-06T08:25:28.000Z</time>
      </trkpt>
      <trkpt lat="43.31448" lon="2.23763">
        <ele>292.2</ele>
        <time>2022-03-06T08:25:29.000Z</time>
      </trkpt>
      <trkpt lat="43.31448" lon="2.23763">
        <ele>292.2</ele>
        <time>2022-03-06T08:25:30.000Z</time>
      </trkpt>
      <trkpt lat="43.31448" lon="2.23763">
        <ele>292.1</ele>
        <time>2022-03-06T08:25:31.000Z</time>
      </trkpt>
      <trkpt lat="43.31449" lon="2.23763">
        <ele>292.1</ele>
        <time>2022-03-06T08:25:32.000Z</time>
      </trkpt>
      <trkpt lat="43.31449" lon="2.23762">
        <ele>292.1</ele>
        <time>2022-03-06T08:25:33.000Z</time>
      </trkpt>
      <trkpt lat="43.3145" lon="2.23762">
        <ele>292.1</ele>
        <time>2022-03-06T08:25:34.000Z</time>
      </trkpt>
      <trkpt lat="43.31452" lon="2.23761">
        <ele>292.1</ele>
        <time>2022-03-06T08:25:35.000Z</time>
      </trkpt>
      <trkpt lat="43.31453" lon="2.23761">
        <ele>292.1</ele>
        <time>2022-03-06T08:25:36.000Z</time>
      </trkpt>
      <trkpt lat="43.31454" lon="2.2376">
        <ele>292.1</ele>
        <time>2022-03-06T08:25:37.000Z</time>
      </trkpt>
      <trkpt lat="43.31455" lon="2.2376">
        <ele>292.1</ele>
        <time>2022-03-06T08:25:38.000Z</time>
      </trkpt>
      <trkpt lat="43.31456" lon="2.23759">
        <ele>292.1</ele>
        <time>2022-03-06T08:25:39.000Z</time>
      </trkpt>
      <trkpt lat="43.31457" lon="2.23759">
        <ele>292.1</ele>
        <time>2022-03-06T08:25:40.000Z</time>
      </trkpt>
      <trkpt lat="43.31458" lon="2.23759">
        <ele>292.1</ele>
        <time>2022-03-06T08:25:41.000Z</time>
      </trkpt>
      <trkpt lat="43.31459" lon="2.23758">
        <ele>292</ele>
        <time>2022-03-06T08:25:42.000Z</time>
      </trkpt>
      <trkpt lat="43.3146" lon="2.23757">
        <ele>292</ele>
        <time>2022-03-06T08:25:43.000Z</time>
      </trkpt>
      <trkpt lat="43.31461" lon="2.23757">
        <ele>291.9</ele>
        <time>2022-03-06T08:25:44.000Z</time>
      </trkpt>
      <trkpt lat="43.31461" lon="2.23756">
        <ele>291.9</ele>
        <time>2022-03-06T08:25:45.000Z</time>
      </trkpt>
      <trkpt lat="43.31462" lon="2.23755">
        <ele>291.8</ele>
        <time>2022-03-06T08:25:46.000Z</time>
      </trkpt>
      <trkpt lat="43.31464" lon="2.23754">
        <ele>291.7</ele>
        <time>2022-03-06T08:25:47.000Z</time>
      </trkpt>
      <trkpt lat="43.31465" lon="2.23753">
        <ele>291.7</ele>
        <time>2022-03-06T08:25:48.000Z</time>
      </trkpt>
      <trkpt lat="43.31466" lon="2.23751">
        <ele>291.6</ele>
        <time>2022-03-06T08:25:49.000Z</time>
      </trkpt>
      <trkpt lat="43.31468" lon="2.2375">
        <ele>291.5</ele>
        <time>2022-03-06T08:25:50.000Z</time>
      </trkpt>
      <trkpt lat="43.3147" lon="2.23749">
        <ele>291.4</ele>
        <time>2022-03-06T08:25:51.000Z</time>
      </trkpt>
      <trkpt lat="43.31472" lon="2.23747">
        <ele>291.3</ele>
        <time>2022-03-06T08:25:52.000Z</time>
      </trkpt>
      <trkpt lat="43.31474" lon="2.23745">
        <ele>291.3</ele>
        <time>2022-03-06T08:25:53.000Z</time>
      </trkpt>
      <trkpt lat="43.31476" lon="2.23744">
        <ele>291.2</ele>
        <time>2022-03-06T08:25:54.000Z</time>
      </trkpt>
      <trkpt lat="43.31478" lon="2.23742">
        <ele>291.1</ele>
        <time>2022-03-06T08:25:55.000Z</time>
      </trkpt>
      <trkpt lat="43.31481" lon="2.23741">
        <ele>291.1</ele>
        <time>2022-03-06T08:25:56.000Z</time>
      </trkpt>
      <trkpt lat="43.31483" lon="2.23739">
        <ele>291</ele>
        <time>2022-03-06T08:25:57.000Z</time>
      </trkpt>
      <trkpt lat="43.31485" lon="2.23738">
        <ele>291</ele>
        <time>2022-03-06T08:25:58.000Z</time>
      </trkpt>
      <trkpt lat="43.31487" lon="2.23737">
        <ele>291</ele>
        <time>2022-03-06T08:25:59.000Z</time>
      </trkpt>
      <trkpt lat="43.31489" lon="2.23736">
        <ele>291</ele>
        <time>2022-03-06T08:26:00.000Z</time>
      </trkpt>
      <trkpt lat="43.31492" lon="2.23735">
        <ele>290.9</ele>
        <time>2022-03-06T08:26:01.000Z</time>
      </trkpt>
      <trkpt lat="43.31494" lon="2.23734">
        <ele>290.9</ele>
        <time>2022-03-06T08:26:02.000Z</time>
      </trkpt>
      <trkpt lat="43.31496" lon="2.23732">
        <ele>290.9</ele>
        <time>2022-03-06T08:26:03.000Z</time>
      </trkpt>
      <trkpt lat="43.31498" lon="2.23731">
        <ele>290.9</ele>
        <time>2022-03-06T08:26:04.000Z</time>
      </trkpt>
      <trkpt lat="43.315" lon="2.2373">
        <ele>290.8</ele>
        <time>2022-03-06T08:26:05.000Z</time>
      </trkpt>
      <trkpt lat="43.31503" lon="2.23728">
        <ele>290.6</ele>
        <time>2022-03-06T08:26:06.000Z</time>
      </trkpt>
      <trkpt lat="43.31505" lon="2.23727">
        <ele>290.3</ele>
        <time>2022-03-06T08:26:07.000Z</time>
      </trkpt>
      <trkpt lat="43.31507" lon="2.23725">
        <ele>290.1</ele>
        <time>2022-03-06T08:26:08.000Z</time>
      </trkpt>
      <trkpt lat="43.3151" lon="2.23723">
        <ele>289.8</ele>
        <time>2022-03-06T08:26:09.000Z</time>
      </trkpt>
      <trkpt lat="43.31511" lon="2.23722">
        <ele>289.6</ele>
        <time>2022-03-06T08:26:10.000Z</time>
      </trkpt>
      <trkpt lat="43.31513" lon="2.2372">
        <ele>289.5</ele>
        <time>2022-03-06T08:26:11.000Z</time>
      </trkpt>
      <trkpt lat="43.31514" lon="2.23719">
        <ele>289.3</ele>
        <time>2022-03-06T08:26:12.000Z</time>
      </trkpt>
      <trkpt lat="43.31515" lon="2.23719">
        <ele>289.2</ele>
        <time>2022-03-06T08:26:13.000Z</time>
      </trkpt>
      <trkpt lat="43.31516" lon="2.23718">
        <ele>289.1</ele>
        <time>2022-03-06T08:26:14.000Z</time>
      </trkpt>
      <trkpt lat="43.31516" lon="2.23717">
        <ele>289.1</ele>
        <time>2022-03-06T08:26:15.000Z</time>
      </trkpt>
      <trkpt lat="43.31516" lon="2.23716">
        <ele>289</ele>
        <time>2022-03-06T08:26:16.000Z</time>
      </trkpt>
      <trkpt lat="43.31515" lon="2.23715">
        <ele>288.9</ele>
        <time>2022-03-06T08:26:17.000Z</time>
      </trkpt>
      <trkpt lat="43.31515" lon="2.23713">
        <ele>288.7</ele>
        <time>2022-03-06T08:26:18.000Z</time>
      </trkpt>
      <trkpt lat="43.31514" lon="2.23712">
        <ele>288.5</ele>
        <time>2022-03-06T08:26:19.000Z</time>
      </trkpt>
      <trkpt lat="43.31514" lon="2.2371">
        <ele>288.4</ele>
        <time>2022-03-06T08:26:20.000Z</time>
      </trkpt>
      <trkpt lat="43.31514" lon="2.23708">
        <ele>288.3</ele>
        <time>2022-03-06T08:26:21.000Z</time>
      </trkpt>
      <trkpt lat="43.31513" lon="2.23706">
        <ele>288.1</ele>
        <time>2022-03-06T08:26:22.000Z</time>
      </trkpt>
      <trkpt lat="43.31513" lon="2.23704">
        <ele>287.8</ele>
        <time>2022-03-06T08:26:23.000Z</time>
      </trkpt>
      <trkpt lat="43.31512" lon="2.23701">
        <ele>287.5</ele>
        <time>2022-03-06T08:26:24.000Z</time>
      </trkpt>
      <trkpt lat="43.31512" lon="2.23697">
        <ele>287.2</ele>
        <time>2022-03-06T08:26:25.000Z</time>
      </trkpt>
      <trkpt lat="43.31511" lon="2.23694">
        <ele>286.8</ele>
        <time>2022-03-06T08:26:26.000Z</time>
      </trkpt>
      <trkpt lat="43.3151" lon="2.2369">
        <ele>286.5</ele>
        <time>2022-03-06T08:26:27.000Z</time>
      </trkpt>
      <trkpt lat="43.31508" lon="2.23686">
        <ele>286.1</ele>
        <time>2022-03-06T08:26:28.000Z</time>
      </trkpt>
      <trkpt lat="43.31507" lon="2.23683">
        <ele>285.8</ele>
        <time>2022-03-06T08:26:29.000Z</time>
      </trkpt>
      <trkpt lat="43.31506" lon="2.2368">
        <ele>285.4</ele>
        <time>2022-03-06T08:26:30.000Z</time>
      </trkpt>
      <trkpt lat="43.31504" lon="2.23676">
        <ele>285.1</ele>
        <time>2022-03-06T08:26:31.000Z</time>
      </trkpt>
      <trkpt lat="43.31503" lon="2.23673">
        <ele>284.7</ele>
        <time>2022-03-06T08:26:32.000Z</time>
      </trkpt>
      <trkpt lat="43.31501" lon="2.2367">
        <ele>284.4</ele>
        <time>2022-03-06T08:26:33.000Z</time>
      </trkpt>
      <trkpt lat="43.31499" lon="2.23667">
        <ele>284</ele>
        <time>2022-03-06T08:26:34.000Z</time>
      </trkpt>
      <trkpt lat="43.31498" lon="2.23664">
        <ele>283.8</ele>
        <time>2022-03-06T08:26:35.000Z</time>
      </trkpt>
      <trkpt lat="43.31496" lon="2.23661">
        <ele>283.7</ele>
        <time>2022-03-06T08:26:36.000Z</time>
      </trkpt>
      <trkpt lat="43.31494" lon="2.23658">
        <ele>283.6</ele>
        <time>2022-03-06T08:26:37.000Z</time>
      </trkpt>
      <trkpt lat="43.31492" lon="2.23655">
        <ele>283.4</ele>
        <time>2022-03-06T08:26:38.000Z</time>
      </trkpt>
      <trkpt lat="43.3149" lon="2.23652">
        <ele>283.3</ele>
        <time>2022-03-06T08:26:39.000Z</time>
      </trkpt>
      <trkpt lat="43.31489" lon="2.23649">
        <ele>283.1</ele>
        <time>2022-03-06T08:26:40.000Z</time>
      </trkpt>
      <trkpt lat="43.31487" lon="2.23646">
        <ele>283</ele>
        <time>2022-03-06T08:26:41.000Z</time>
      </trkpt>
      <trkpt lat="43.31485" lon="2.23643">
        <ele>282.8</ele>
        <time>2022-03-06T08:26:42.000Z</time>
      </trkpt>
      <trkpt lat="43.31483" lon="2.2364">
        <ele>282.7</ele>
        <time>2022-03-06T08:26:43.000Z</time>
      </trkpt>
      <trkpt lat="43.31481" lon="2.23637">
        <ele>282.5</ele>
        <time>2022-03-06T08:26:44.000Z</time>
      </trkpt>
      <trkpt lat="43.3148" lon="2.23634">
        <ele>282.3</ele>
        <time>2022-03-06T08:26:45.000Z</time>
      </trkpt>
      <trkpt lat="43.31478" lon="2.23631">
        <ele>282.2</ele>
        <time>2022-03-06T08:26:46.000Z</time>
      </trkpt>
      <trkpt lat="43.31476" lon="2.23628">
        <ele>282</ele>
        <time>2022-03-06T08:26:47.000Z</time>
      </trkpt>
      <trkpt lat="43.31474" lon="2.23625">
        <ele>281.8</ele>
        <time>2022-03-06T08:26:48.000Z</time>
      </trkpt>
      <trkpt lat="43.31472" lon="2.23622">
        <ele>281.6</ele>
        <time>2022-03-06T08:26:49.000Z</time>
      </trkpt>
      <trkpt lat="43.3147" lon="2.23619">
        <ele>281.4</ele>
        <time>2022-03-06T08:26:50.000Z</time>
      </trkpt>
      <trkpt lat="43.31468" lon="2.23617">
        <ele>281.2</ele>
        <time>2022-03-06T08:26:51.000Z</time>
      </trkpt>
      <trkpt lat="43.31466" lon="2.23614">
        <ele>281</ele>
        <time>2022-03-06T08:26:52.000Z</time>
      </trkpt>
      <trkpt lat="43.31464" lon="2.23611">
        <ele>280.7</ele>
        <time>2022-03-06T08:26:53.000Z</time>
      </trkpt>
      <trkpt lat="43.31462" lon="2.23608">
        <ele>280.5</ele>
        <time>2022-03-06T08:26:54.000Z</time>
      </trkpt>
      <trkpt lat="43.31459" lon="2.23606">
        <ele>280.2</ele>
        <time>2022-03-06T08:26:55.000Z</time>
      </trkpt>
      <trkpt lat="43.31457" lon="2.23603">
        <ele>280</ele>
        <time>2022-03-06T08:26:56.000Z</time>
      </trkpt>
      <trkpt lat="43.31455" lon="2.236">
        <ele>279.7</ele>
        <time>2022-03-06T08:26:57.000Z</time>
      </trkpt>
      <trkpt lat="43.31452" lon="2.23598">
        <ele>279.4</ele>
        <time>2022-03-06T08:26:58.000Z</time>
      </trkpt>
      <trkpt lat="43.3145" lon="2.23595">
        <ele>279.2</ele>
        <time>2022-03-06T08:26:59.000Z</time>
      </trkpt>
      <trkpt lat="43.31447" lon="2.23593">
        <ele>278.9</ele>
        <time>2022-03-06T08:27:00.000Z</time>
      </trkpt>
      <trkpt lat="43.31445" lon="2.2359">
        <ele>278.6</ele>
        <time>2022-03-06T08:27:01.000Z</time>
      </trkpt>
      <trkpt lat="43.31443" lon="2.23588">
        <ele>278.4</ele>
        <time>2022-03-06T08:27:02.000Z</time>
      </trkpt>
      <trkpt lat="43.31441" lon="2.23586">
        <ele>278.1</ele>
        <time>2022-03-06T08:27:03.000Z</time>
      </trkpt>
      <trkpt lat="43.31439" lon="2.23583">
        <ele>277.9</ele>
        <time>2022-03-06T08:27:04.000Z</time>
      </trkpt>
      <trkpt lat="43.31437" lon="2.23581">
        <ele>277.7</ele>
        <time>2022-03-06T08:27:05.000Z</time>
      </trkpt>
      <trkpt lat="43.31435" lon="2.23578">
        <ele>277.5</ele>
        <time>2022-03-06T08:27:06.000Z</time>
      </trkpt>
      <trkpt lat="43.31433" lon="2.23576">
        <ele>277.3</ele>
        <time>2022-03-06T08:27:07.000Z</time>
      </trkpt>
      <trkpt lat="43.3143" lon="2.23573">
        <ele>277.1</ele>
        <time>2022-03-06T08:27:08.000Z</time>
      </trkpt>
      <trkpt lat="43.31428" lon="2.2357">
        <ele>276.9</ele>
        <time>2022-03-06T08:27:09.000Z</time>
      </trkpt>
      <trkpt lat="43.31426" lon="2.23567">
        <ele>276.7</ele>
        <time>2022-03-06T08:27:10.000Z</time>
      </trkpt>
      <trkpt lat="43.31423" lon="2.23565">
        <ele>276.5</ele>
        <time>2022-03-06T08:27:11.000Z</time>
      </trkpt>
      <trkpt lat="43.31421" lon="2.23562">
        <ele>276.3</ele>
        <time>2022-03-06T08:27:12.000Z</time>
      </trkpt>
      <trkpt lat="43.31418" lon="2.2356">
        <ele>276.1</ele>
        <time>2022-03-06T08:27:13.000Z</time>
      </trkpt>
      <trkpt lat="43.31415" lon="2.23559">
        <ele>275.8</ele>
        <time>2022-03-06T08:27:14.000Z</time>
      </trkpt>
      <trkpt lat="43.31413" lon="2.23558">
        <ele>275.5</ele>
        <time>2022-03-06T08:27:15.000Z</time>
      </trkpt>
      <trkpt lat="43.3141" lon="2.23558">
        <ele>275.2</ele>
        <time>2022-03-06T08:27:16.000Z</time>
      </trkpt>
      <trkpt lat="43.31408" lon="2.23558">
        <ele>274.8</ele>
        <time>2022-03-06T08:27:17.000Z</time>
      </trkpt>
      <trkpt lat="43.31405" lon="2.23559">
        <ele>274.5</ele>
        <time>2022-03-06T08:27:18.000Z</time>
      </trkpt>
      <trkpt lat="43.31403" lon="2.23561">
        <ele>274.2</ele>
        <time>2022-03-06T08:27:19.000Z</time>
      </trkpt>
      <trkpt lat="43.31401" lon="2.23563">
        <ele>273.9</ele>
        <time>2022-03-06T08:27:20.000Z</time>
      </trkpt>
      <trkpt lat="43.31398" lon="2.23566">
        <ele>273.7</ele>
        <time>2022-03-06T08:27:21.000Z</time>
      </trkpt>
      <trkpt lat="43.31396" lon="2.23568">
        <ele>273.4</ele>
        <time>2022-03-06T08:27:22.000Z</time>
      </trkpt>
      <trkpt lat="43.31394" lon="2.23571">
        <ele>273.2</ele>
        <time>2022-03-06T08:27:23.000Z</time>
      </trkpt>
      <trkpt lat="43.31393" lon="2.23573">
        <ele>273</ele>
        <time>2022-03-06T08:27:24.000Z</time>
      </trkpt>
      <trkpt lat="43.31391" lon="2.23576">
        <ele>272.8</ele>
        <time>2022-03-06T08:27:25.000Z</time>
      </trkpt>
      <trkpt lat="43.31389" lon="2.23579">
        <ele>272.6</ele>
        <time>2022-03-06T08:27:26.000Z</time>
      </trkpt>
      <trkpt lat="43.31387" lon="2.23582">
        <ele>272.5</ele>
        <time>2022-03-06T08:27:27.000Z</time>
      </trkpt>
      <trkpt lat="43.31386" lon="2.23585">
        <ele>272.3</ele>
        <time>2022-03-06T08:27:28.000Z</time>
      </trkpt>
      <trkpt lat="43.31384" lon="2.23588">
        <ele>272.3</ele>
        <time>2022-03-06T08:27:29.000Z</time>
      </trkpt>
      <trkpt lat="43.31382" lon="2.2359">
        <ele>272.3</ele>
        <time>2022-03-06T08:27:30.000Z</time>
      </trkpt>
      <trkpt lat="43.3138" lon="2.23593">
        <ele>272.2</ele>
        <time>2022-03-06T08:27:31.000Z</time>
      </trkpt>
      <trkpt lat="43.31379" lon="2.23596">
        <ele>272.2</ele>
        <time>2022-03-06T08:27:32.000Z</time>
      </trkpt>
      <trkpt lat="43.31377" lon="2.23598">
        <ele>272.1</ele>
        <time>2022-03-06T08:27:33.000Z</time>
      </trkpt>
      <trkpt lat="43.31376" lon="2.23601">
        <ele>272.1</ele>
        <time>2022-03-06T08:27:34.000Z</time>
      </trkpt>
      <trkpt lat="43.31374" lon="2.23603">
        <ele>272.1</ele>
        <time>2022-03-06T08:27:35.000Z</time>
      </trkpt>
      <trkpt lat="43.31373" lon="2.23605">
        <ele>272.1</ele>
        <time>2022-03-06T08:27:36.000Z</time>
      </trkpt>
      <trkpt lat="43.31372" lon="2.23606">
        <ele>272.1</ele>
        <time>2022-03-06T08:27:37.000Z</time>
      </trkpt>
      <trkpt lat="43.31372" lon="2.23607">
        <ele>272.1</ele>
        <time>2022-03-06T08:27:38.000Z</time>
      </trkpt>
      <trkpt lat="43.31371" lon="2.23608">
        <ele>272</ele>
        <time>2022-03-06T08:27:39.000Z</time>
      </trkpt>
      <trkpt lat="43.3137" lon="2.23609">
        <ele>272</ele>
        <time>2022-03-06T08:27:40.000Z</time>
      </trkpt>
      <trkpt lat="43.31369" lon="2.23608">
        <ele>271.8</ele>
        <time>2022-03-06T08:27:41.000Z</time>
      </trkpt>
      <trkpt lat="43.31367" lon="2.23608">
        <ele>271.6</ele>
        <time>2022-03-06T08:27:42.000Z</time>
      </trkpt>
      <trkpt lat="43.31366" lon="2.23606">
        <ele>271.3</ele>
        <time>2022-03-06T08:27:43.000Z</time>
      </trkpt>
      <trkpt lat="43.31365" lon="2.23604">
        <ele>271.1</ele>
        <time>2022-03-06T08:27:44.000Z</time>
      </trkpt>
      <trkpt lat="43.31365" lon="2.23602">
        <ele>270.9</ele>
        <time>2022-03-06T08:27:45.000Z</time>
      </trkpt>
      <trkpt lat="43.31365" lon="2.236">
        <ele>270.8</ele>
        <time>2022-03-06T08:27:46.000Z</time>
      </trkpt>
      <trkpt lat="43.31364" lon="2.23597">
        <ele>270.5</ele>
        <time>2022-03-06T08:27:47.000Z</time>
      </trkpt>
      <trkpt lat="43.31363" lon="2.23594">
        <ele>270.3</ele>
        <time>2022-03-06T08:27:48.000Z</time>
      </trkpt>
      <trkpt lat="43.31362" lon="2.23591">
        <ele>270</ele>
        <time>2022-03-06T08:27:49.000Z</time>
      </trkpt>
      <trkpt lat="43.31361" lon="2.23588">
        <ele>269.6</ele>
        <time>2022-03-06T08:27:50.000Z</time>
      </trkpt>
      <trkpt lat="43.3136" lon="2.23585">
        <ele>269.3</ele>
        <time>2022-03-06T08:27:51.000Z</time>
      </trkpt>
      <trkpt lat="43.31358" lon="2.23581">
        <ele>269</ele>
        <time>2022-03-06T08:27:52.000Z</time>
      </trkpt>
      <trkpt lat="43.31357" lon="2.23578">
        <ele>268.7</ele>
        <time>2022-03-06T08:27:53.000Z</time>
      </trkpt>
      <trkpt lat="43.31356" lon="2.23574">
        <ele>268.4</ele>
        <time>2022-03-06T08:27:54.000Z</time>
      </trkpt>
      <trkpt lat="43.31354" lon="2.23571">
        <ele>268.2</ele>
        <time>2022-03-06T08:27:55.000Z</time>
      </trkpt>
      <trkpt lat="43.31353" lon="2.23568">
        <ele>267.9</ele>
        <time>2022-03-06T08:27:56.000Z</time>
      </trkpt>
      <trkpt lat="43.31351" lon="2.23565">
        <ele>267.6</ele>
        <time>2022-03-06T08:27:57.000Z</time>
      </trkpt>
      <trkpt lat="43.31349" lon="2.23563">
        <ele>267.3</ele>
        <time>2022-03-06T08:27:58.000Z</time>
      </trkpt>
      <trkpt lat="43.31348" lon="2.23562">
        <ele>267.1</ele>
        <time>2022-03-06T08:27:59.000Z</time>
      </trkpt>
      <trkpt lat="43.31346" lon="2.23561">
        <ele>266.8</ele>
        <time>2022-03-06T08:28:00.000Z</time>
      </trkpt>
      <trkpt lat="43.31344" lon="2.2356">
        <ele>266.6</ele>
        <time>2022-03-06T08:28:01.000Z</time>
      </trkpt>
      <trkpt lat="43.31343" lon="2.2356">
        <ele>266.4</ele>
        <time>2022-03-06T08:28:02.000Z</time>
      </trkpt>
      <trkpt lat="43.31341" lon="2.2356">
        <ele>266.2</ele>
        <time>2022-03-06T08:28:03.000Z</time>
      </trkpt>
      <trkpt lat="43.3134" lon="2.2356">
        <ele>266.1</ele>
        <time>2022-03-06T08:28:04.000Z</time>
      </trkpt>
      <trkpt lat="43.31339" lon="2.23561">
        <ele>265.9</ele>
        <time>2022-03-06T08:28:05.000Z</time>
      </trkpt>
      <trkpt lat="43.31337" lon="2.23561">
        <ele>265.7</ele>
        <time>2022-03-06T08:28:06.000Z</time>
      </trkpt>
      <trkpt lat="43.31336" lon="2.23561">
        <ele>265.5</ele>
        <time>2022-03-06T08:28:07.000Z</time>
      </trkpt>
      <trkpt lat="43.31334" lon="2.23562">
        <ele>265.3</ele>
        <time>2022-03-06T08:28:08.000Z</time>
      </trkpt>
      <trkpt lat="43.31333" lon="2.23562">
        <ele>265.1</ele>
        <time>2022-03-06T08:28:09.000Z</time>
      </trkpt>
      <trkpt lat="43.31331" lon="2.23563">
        <ele>264.7</ele>
        <time>2022-03-06T08:28:10.000Z</time>
      </trkpt>
      <trkpt lat="43.31329" lon="2.23563">
        <ele>264.3</ele>
        <time>2022-03-06T08:28:11.000Z</time>
      </trkpt>
      <trkpt lat="43.31327" lon="2.23564">
        <ele>264</ele>
        <time>2022-03-06T08:28:12.000Z</time>
      </trkpt>
      <trkpt lat="43.31326" lon="2.23564">
        <ele>263.7</ele>
        <time>2022-03-06T08:28:13.000Z</time>
      </trkpt>
      <trkpt lat="43.31324" lon="2.23565">
        <ele>263.3</ele>
        <time>2022-03-06T08:28:14.000Z</time>
      </trkpt>
      <trkpt lat="43.31323" lon="2.23565">
        <ele>263</ele>
        <time>2022-03-06T08:28:15.000Z</time>
      </trkpt>
      <trkpt lat="43.31321" lon="2.23565">
        <ele>262.7</ele>
        <time>2022-03-06T08:28:16.000Z</time>
      </trkpt>
      <trkpt lat="43.3132" lon="2.23566">
        <ele>262.5</ele>
        <time>2022-03-06T08:28:17.000Z</time>
      </trkpt>
      <trkpt lat="43.31319" lon="2.23566">
        <ele>262.2</ele>
        <time>2022-03-06T08:28:18.000Z</time>
      </trkpt>
      <trkpt lat="43.31318" lon="2.23565">
        <ele>262</ele>
        <time>2022-03-06T08:28:19.000Z</time>
      </trkpt>
      <trkpt lat="43.31317" lon="2.23565">
        <ele>261.7</ele>
        <time>2022-03-06T08:28:20.000Z</time>
      </trkpt>
      <trkpt lat="43.31316" lon="2.23564">
        <ele>261.5</ele>
        <time>2022-03-06T08:28:21.000Z</time>
      </trkpt>
      <trkpt lat="43.31315" lon="2.23563">
        <ele>261.3</ele>
        <time>2022-03-06T08:28:22.000Z</time>
      </trkpt>
      <trkpt lat="43.31314" lon="2.23562">
        <ele>261</ele>
        <time>2022-03-06T08:28:23.000Z</time>
      </trkpt>
      <trkpt lat="43.31313" lon="2.2356">
        <ele>260.8</ele>
        <time>2022-03-06T08:28:24.000Z</time>
      </trkpt>
      <trkpt lat="43.31312" lon="2.23559">
        <ele>260.5</ele>
        <time>2022-03-06T08:28:25.000Z</time>
      </trkpt>
      <trkpt lat="43.31311" lon="2.23557">
        <ele>260.2</ele>
        <time>2022-03-06T08:28:26.000Z</time>
      </trkpt>
      <trkpt lat="43.3131" lon="2.23556">
        <ele>259.9</ele>
        <time>2022-03-06T08:28:27.000Z</time>
      </trkpt>
      <trkpt lat="43.31309" lon="2.23554">
        <ele>259.5</ele>
        <time>2022-03-06T08:28:28.000Z</time>
      </trkpt>
      <trkpt lat="43.31307" lon="2.23553">
        <ele>259.1</ele>
        <time>2022-03-06T08:28:29.000Z</time>
      </trkpt>
      <trkpt lat="43.31306" lon="2.23551">
        <ele>258.7</ele>
        <time>2022-03-06T08:28:30.000Z</time>
      </trkpt>
      <trkpt lat="43.31304" lon="2.23549">
        <ele>258.3</ele>
        <time>2022-03-06T08:28:31.000Z</time>
      </trkpt>
      <trkpt lat="43.31303" lon="2.23547">
        <ele>257.9</ele>
        <time>2022-03-06T08:28:32.000Z</time>
      </trkpt>
      <trkpt lat="43.31301" lon="2.23545">
        <ele>257.4</ele>
        <time>2022-03-06T08:28:33.000Z</time>
      </trkpt>
      <trkpt lat="43.31299" lon="2.23542">
        <ele>257</ele>
        <time>2022-03-06T08:28:34.000Z</time>
      </trkpt>
      <trkpt lat="43.31298" lon="2.2354">
        <ele>256.6</ele>
        <time>2022-03-06T08:28:35.000Z</time>
      </trkpt>
      <trkpt lat="43.31296" lon="2.23538">
        <ele>256.1</ele>
        <time>2022-03-06T08:28:36.000Z</time>
      </trkpt>
      <trkpt lat="43.31295" lon="2.23536">
        <ele>255.7</ele>
        <time>2022-03-06T08:28:37.000Z</time>
      </trkpt>
      <trkpt lat="43.31294" lon="2.23534">
        <ele>255.4</ele>
        <time>2022-03-06T08:28:38.000Z</time>
      </trkpt>
      <trkpt lat="43.31293" lon="2.23533">
        <ele>255.1</ele>
        <time>2022-03-06T08:28:39.000Z</time>
      </trkpt>
      <trkpt lat="43.31292" lon="2.23533">
        <ele>254.8</ele>
        <time>2022-03-06T08:28:40.000Z</time>
      </trkpt>
      <trkpt lat="43.31291" lon="2.23533">
        <ele>254.6</ele>
        <time>2022-03-06T08:28:41.000Z</time>
      </trkpt>
      <trkpt lat="43.3129" lon="2.23534">
        <ele>254.5</ele>
        <time>2022-03-06T08:28:42.000Z</time>
      </trkpt>
      <trkpt lat="43.31289" lon="2.23536">
        <ele>254.4</ele>
        <time>2022-03-06T08:28:43.000Z</time>
      </trkpt>
      <trkpt lat="43.31289" lon="2.23539">
        <ele>254.4</ele>
        <time>2022-03-06T08:28:44.000Z</time>
      </trkpt>
      <trkpt lat="43.31288" lon="2.23542">
        <ele>254.5</ele>
        <time>2022-03-06T08:28:45.000Z</time>
      </trkpt>
      <trkpt lat="43.31288" lon="2.23545">
        <ele>254.5</ele>
        <time>2022-03-06T08:28:46.000Z</time>
      </trkpt>
      <trkpt lat="43.31288" lon="2.23548">
        <ele>254.6</ele>
        <time>2022-03-06T08:28:47.000Z</time>
      </trkpt>
      <trkpt lat="43.31288" lon="2.23551">
        <ele>254.8</ele>
        <time>2022-03-06T08:28:48.000Z</time>
      </trkpt>
      <trkpt lat="43.31288" lon="2.23554">
        <ele>254.9</ele>
        <time>2022-03-06T08:28:49.000Z</time>
      </trkpt>
      <trkpt lat="43.31288" lon="2.23557">
        <ele>255</ele>
        <time>2022-03-06T08:28:50.000Z</time>
      </trkpt>
      <trkpt lat="43.31287" lon="2.2356">
        <ele>255</ele>
        <time>2022-03-06T08:28:51.000Z</time>
      </trkpt>
      <trkpt lat="43.31286" lon="2.23562">
        <ele>255</ele>
        <time>2022-03-06T08:28:52.000Z</time>
      </trkpt>
      <trkpt lat="43.31285" lon="2.23565">
        <ele>254.8</ele>
        <time>2022-03-06T08:28:53.000Z</time>
      </trkpt>
      <trkpt lat="43.31284" lon="2.23566">
        <ele>254.5</ele>
        <time>2022-03-06T08:28:54.000Z</time>
      </trkpt>
      <trkpt lat="43.31282" lon="2.23568">
        <ele>254.2</ele>
        <time>2022-03-06T08:28:55.000Z</time>
      </trkpt>
      <trkpt lat="43.3128" lon="2.23568">
        <ele>253.8</ele>
        <time>2022-03-06T08:28:56.000Z</time>
      </trkpt>
      <trkpt lat="43.31278" lon="2.23568">
        <ele>253.4</ele>
        <time>2022-03-06T08:28:57.000Z</time>
      </trkpt>
      <trkpt lat="43.31277" lon="2.23567">
        <ele>253.1</ele>
        <time>2022-03-06T08:28:58.000Z</time>
      </trkpt>
      <trkpt lat="43.31276" lon="2.23565">
        <ele>252.8</ele>
        <time>2022-03-06T08:28:59.000Z</time>
      </trkpt>
      <trkpt lat="43.31276" lon="2.23562">
        <ele>252.6</ele>
        <time>2022-03-06T08:29:00.000Z</time>
      </trkpt>
      <trkpt lat="43.31276" lon="2.23559">
        <ele>252.4</ele>
        <time>2022-03-06T08:29:01.000Z</time>
      </trkpt>
      <trkpt lat="43.31275" lon="2.23557">
        <ele>252.2</ele>
        <time>2022-03-06T08:29:02.000Z</time>
      </trkpt>
      <trkpt lat="43.31274" lon="2.23554">
        <ele>252</ele>
        <time>2022-03-06T08:29:03.000Z</time>
      </trkpt>
      <trkpt lat="43.31274" lon="2.23552">
        <ele>251.7</ele>
        <time>2022-03-06T08:29:04.000Z</time>
      </trkpt>
      <trkpt lat="43.31272" lon="2.23549">
        <ele>251.3</ele>
        <time>2022-03-06T08:29:05.000Z</time>
      </trkpt>
      <trkpt lat="43.31271" lon="2.23547">
        <ele>250.9</ele>
        <time>2022-03-06T08:29:06.000Z</time>
      </trkpt>
      <trkpt lat="43.31269" lon="2.23545">
        <ele>250.4</ele>
        <time>2022-03-06T08:29:07.000Z</time>
      </trkpt>
      <trkpt lat="43.31267" lon="2.23543">
        <ele>249.9</ele>
        <time>2022-03-06T08:29:08.000Z</time>
      </trkpt>
      <trkpt lat="43.31265" lon="2.23542">
        <ele>249.4</ele>
        <time>2022-03-06T08:29:09.000Z</time>
      </trkpt>
      <trkpt lat="43.31263" lon="2.2354">
        <ele>248.8</ele>
        <time>2022-03-06T08:29:10.000Z</time>
      </trkpt>
      <trkpt lat="43.31261" lon="2.23538">
        <ele>248.2</ele>
        <time>2022-03-06T08:29:11.000Z</time>
      </trkpt>
      <trkpt lat="43.31259" lon="2.23536">
        <ele>247.6</ele>
        <time>2022-03-06T08:29:12.000Z</time>
      </trkpt>
      <trkpt lat="43.31257" lon="2.23534">
        <ele>247.1</ele>
        <time>2022-03-06T08:29:13.000Z</time>
      </trkpt>
      <trkpt lat="43.31255" lon="2.23532">
        <ele>246.7</ele>
        <time>2022-03-06T08:29:14.000Z</time>
      </trkpt>
      <trkpt lat="43.31254" lon="2.2353">
        <ele>246.3</ele>
        <time>2022-03-06T08:29:15.000Z</time>
      </trkpt>
      <trkpt lat="43.31254" lon="2.23528">
        <ele>246.1</ele>
        <time>2022-03-06T08:29:16.000Z</time>
      </trkpt>
      <trkpt lat="43.31254" lon="2.23525">
        <ele>246</ele>
        <time>2022-03-06T08:29:17.000Z</time>
      </trkpt>
      <trkpt lat="43.31254" lon="2.23522">
        <ele>246</ele>
        <time>2022-03-06T08:29:18.000Z</time>
      </trkpt>
      <trkpt lat="43.31255" lon="2.23519">
        <ele>246</ele>
        <time>2022-03-06T08:29:19.000Z</time>
      </trkpt>
      <trkpt lat="43.31256" lon="2.23517">
        <ele>246.1</ele>
        <time>2022-03-06T08:29:20.000Z</time>
      </trkpt>
      <trkpt lat="43.31257" lon="2.23514">
        <ele>246.2</ele>
        <time>2022-03-06T08:29:21.000Z</time>
      </trkpt>
      <trkpt lat="43.31258" lon="2.23512">
        <ele>246.3</ele>
        <time>2022-03-06T08:29:22.000Z</time>
      </trkpt>
      <trkpt lat="43.31258" lon="2.2351">
        <ele>246.4</ele>
        <time>2022-03-06T08:29:23.000Z</time>
      </trkpt>
      <trkpt lat="43.31259" lon="2.23509">
        <ele>246.5</ele>
        <time>2022-03-06T08:29:24.000Z</time>
      </trkpt>
      <trkpt lat="43.31259" lon="2.23508">
        <ele>246.5</ele>
        <time>2022-03-06T08:29:25.000Z</time>
      </trkpt>
      <trkpt lat="43.3126" lon="2.23506">
        <ele>246.5</ele>
        <time>2022-03-06T08:29:26.000Z</time>
      </trkpt>
      <trkpt lat="43.3126" lon="2.23505">
        <ele>246.4</ele>
        <time>2022-03-06T08:29:27.000Z</time>
      </trkpt>
      <trkpt lat="43.31259" lon="2.23503">
        <ele>246.3</ele>
        <time>2022-03-06T08:29:28.000Z</time>
      </trkpt>
      <trkpt lat="43.31259" lon="2.23501">
        <ele>246.1</ele>
        <time>2022-03-06T08:29:29.000Z</time>
      </trkpt>
      <trkpt lat="43.31258" lon="2.23499">
        <ele>246</ele>
        <time>2022-03-06T08:29:30.000Z</time>
      </trkpt>
      <trkpt lat="43.31258" lon="2.23496">
        <ele>246.2</ele>
        <time>2022-03-06T08:29:31.000Z</time>
      </trkpt>
      <trkpt lat="43.31257" lon="2.23493">
        <ele>246.3</ele>
        <time>2022-03-06T08:29:32.000Z</time>
      </trkpt>
      <trkpt lat="43.31256" lon="2.23491">
        <ele>246.4</ele>
        <time>2022-03-06T08:29:33.000Z</time>
      </trkpt>
      <trkpt lat="43.31255" lon="2.23489">
        <ele>246.4</ele>
        <time>2022-03-06T08:29:34.000Z</time>
      </trkpt>
      <trkpt lat="43.31254" lon="2.23487">
        <ele>246.5</ele>
        <time>2022-03-06T08:29:35.000Z</time>
      </trkpt>
      <trkpt lat="43.31253" lon="2.23486">
        <ele>246.5</ele>
        <time>2022-03-06T08:29:36.000Z</time>
      </trkpt>
      <trkpt lat="43.31253" lon="2.23485">
        <ele>246.6</ele>
        <time>2022-03-06T08:29:37.000Z</time>
      </trkpt>
      <trkpt lat="43.31253" lon="2.23485">
        <ele>246.7</ele>
        <time>2022-03-06T08:29:38.000Z</time>
      </trkpt>
      <trkpt lat="43.31253" lon="2.23484">
        <ele>246.8</ele>
        <time>2022-03-06T08:29:39.000Z</time>
      </trkpt>
      <trkpt lat="43.31254" lon="2.23484">
        <ele>246.9</ele>
        <time>2022-03-06T08:29:40.000Z</time>
      </trkpt>
      <trkpt lat="43.31254" lon="2.23484">
        <ele>246.9</ele>
        <time>2022-03-06T08:29:41.000Z</time>
      </trkpt>
      <trkpt lat="43.31254" lon="2.23484">
        <ele>246.9</ele>
        <time>2022-03-06T08:29:42.000Z</time>
      </trkpt>
      <trkpt lat="43.31254" lon="2.23484">
        <ele>246.9</ele>
        <time>2022-03-06T08:29:43.000Z</time>
      </trkpt>
      <trkpt lat="43.31254" lon="2.23484">
        <ele>247</ele>
        <time>2022-03-06T08:29:44.000Z</time>
      </trkpt>
      <trkpt lat="43.31254" lon="2.23484">
        <ele>247</ele>
        <time>2022-03-06T08:29:45.000Z</time>
      </trkpt>
      <trkpt lat="43.31254" lon="2.23484">
        <ele>247</ele>
        <time>2022-03-06T08:29:46.000Z</time>
      </trkpt>
      <trkpt lat="43.31254" lon="2.23484">
        <ele>247.1</ele>
        <time>2022-03-06T08:29:47.000Z</time>
      </trkpt>
      <trkpt lat="43.31254" lon="2.23484">
        <ele>247.1</ele>
        <time>2022-03-06T08:29:48.000Z</time>
      </trkpt>
      <trkpt lat="43.31255" lon="2.23483">
        <ele>247.1</ele>
        <time>2022-03-06T08:29:49.000Z</time>
      </trkpt>
      <trkpt lat="43.31255" lon="2.23483">
        <ele>247.2</ele>
        <time>2022-03-06T08:29:50.000Z</time>
      </trkpt>
      <trkpt lat="43.31255" lon="2.23483">
        <ele>247.2</ele>
        <time>2022-03-06T08:29:51.000Z</time>
      </trkpt>
      <trkpt lat="43.31255" lon="2.23483">
        <ele>247.3</ele>
        <time>2022-03-06T08:29:52.000Z</time>
      </trkpt>
      <trkpt lat="43.31255" lon="2.23483">
        <ele>247.3</ele>
        <time>2022-03-06T08:29:53.000Z</time>
      </trkpt>
      <trkpt lat="43.31255" lon="2.23483">
        <ele>247.3</ele>
        <time>2022-03-06T08:29:54.000Z</time>
      </trkpt>
      <trkpt lat="43.31255" lon="2.23483">
        <ele>247.3</ele>
        <time>2022-03-06T08:29:55.000Z</time>
      </trkpt>
      <trkpt lat="43.31255" lon="2.23483">
        <ele>247.3</ele>
        <time>2022-03-06T08:29:56.000Z</time>
      </trkpt>
      <trkpt lat="43.31255" lon="2.23483">
        <ele>247.4</ele>
        <time>2022-03-06T08:29:57.000Z</time>
      </trkpt>
      <trkpt lat="43.31255" lon="2.23483">
        <ele>247.4</ele>
        <time>2022-03-06T08:29:58.000Z</time>
      </trkpt>
      <trkpt lat="43.31255" lon="2.23483">
        <ele>247.4</ele>
        <time>2022-03-06T08:29:59.000Z</time>
      </trkpt>
      <trkpt lat="43.31255" lon="2.23483">
        <ele>247.4</ele>
        <time>2022-03-06T08:30:00.000Z</time>
      </trkpt>
      <trkpt lat="43.31255" lon="2.23483">
        <ele>247.4</ele>
        <time>2022-03-06T08:30:01.000Z</time>
      </trkpt>
      <trkpt lat="43.31255" lon="2.23483">
        <ele>247.4</ele>
        <time>2022-03-06T08:30:02.000Z</time>
      </trkpt>
      <trkpt lat="43.31255" lon="2.23483">
        <ele>247.4</ele>
        <time>2022-03-06T08:30:03.000Z</time>
      </trkpt>
      <trkpt lat="43.31255" lon="2.23483">
        <ele>247.4</ele>
        <time>2022-03-06T08:30:04.000Z</time>
      </trkpt>
      <trkpt lat="43.31255" lon="2.23483">
        <ele>247.4</ele>
        <time>2022-03-06T08:30:05.000Z</time>
      </trkpt>
      <trkpt lat="43.31255" lon="2.23483">
        <ele>247.4</ele>
        <time>2022-03-06T08:30:06.000Z</time>
      </trkpt>
      <trkpt lat="43.31255" lon="2.23483">
        <ele>247.4</ele>
        <time>2022-03-06T08:30:07.000Z</time>
      </trkpt>
      <trkpt lat="43.31255" lon="2.23483">
        <ele>247.4</ele>
        <time>2022-03-06T08:30:08.000Z</time>
      </trkpt>
      <trkpt lat="43.31255" lon="2.23483">
        <ele>247.4</ele>
        <time>2022-03-06T08:30:09.000Z</time>
      </trkpt>
      <trkpt lat="43.31255" lon="2.23483">
        <ele>247.4</ele>
        <time>2022-03-06T08:30:10.000Z</time>
      </trkpt>
      <trkpt lat="43.31255" lon="2.23483">
        <ele>247.4</ele>
        <time>2022-03-06T08:30:11.000Z</time>
      </trkpt>
      <trkpt lat="43.31255" lon="2.23483">
        <ele>247.4</ele>
        <time>2022-03-06T08:30:12.000Z</time>
      </trkpt>
      <trkpt lat="43.31255" lon="2.23483">
        <ele>247.4</ele>
        <time>2022-03-06T08:30:13.000Z</time>
      </trkpt>
      <trkpt lat="43.31255" lon="2.23483">
        <ele>247.4</ele>
        <time>2022-03-06T08:30:14.000Z</time>
      </trkpt>
      <trkpt lat="43.31255" lon="2.23483">
        <ele>247.3</ele>
        <time>2022-03-06T08:30:15.000Z</time>
      </trkpt>
      <trkpt lat="43.31255" lon="2.23482">
        <ele>247.3</ele>
        <time>2022-03-06T08:30:16.000Z</time>
      </trkpt>
      <trkpt lat="43.31254" lon="2.23482">
        <ele>247.2</ele>
        <time>2022-03-06T08:30:17.000Z</time>
      </trkpt>
      <trkpt lat="43.31253" lon="2.23482">
        <ele>247.1</ele>
        <time>2022-03-06T08:30:18.000Z</time>
      </trkpt>
      <trkpt lat="43.31253" lon="2.23482">
        <ele>247</ele>
        <time>2022-03-06T08:30:19.000Z</time>
      </trkpt>
      <trkpt lat="43.31251" lon="2.23481">
        <ele>246.7</ele>
        <time>2022-03-06T08:30:20.000Z</time>
      </trkpt>
      <trkpt lat="43.3125" lon="2.23481">
        <ele>246.4</ele>
        <time>2022-03-06T08:30:21.000Z</time>
      </trkpt>
      <trkpt lat="43.31249" lon="2.23481">
        <ele>246.2</ele>
        <time>2022-03-06T08:30:22.000Z</time>
      </trkpt>
      <trkpt lat="43.31247" lon="2.23481">
        <ele>245.9</ele>
        <time>2022-03-06T08:30:23.000Z</time>
      </trkpt>
      <trkpt lat="43.31245" lon="2.2348">
        <ele>245.7</ele>
        <time>2022-03-06T08:30:24.000Z</time>
      </trkpt>
      <trkpt lat="43.31244" lon="2.23479">
        <ele>245.5</ele>
        <time>2022-03-06T08:30:25.000Z</time>
      </trkpt>
      <trkpt lat="43.31242" lon="2.23478">
        <ele>245.4</ele>
        <time>2022-03-06T08:30:26.000Z</time>
      </trkpt>
      <trkpt lat="43.31241" lon="2.23476">
        <ele>245.3</ele>
        <time>2022-03-06T08:30:27.000Z</time>
      </trkpt>
      <trkpt lat="43.31239" lon="2.23474">
        <ele>245.2</ele>
        <time>2022-03-06T08:30:28.000Z</time>
      </trkpt>
      <trkpt lat="43.31238" lon="2.23472">
        <ele>245.1</ele>
        <time>2022-03-06T08:30:29.000Z</time>
      </trkpt>
      <trkpt lat="43.31236" lon="2.2347">
        <ele>245</ele>
        <time>2022-03-06T08:30:30.000Z</time>
      </trkpt>
      <trkpt lat="43.31234" lon="2.23469">
        <ele>244.7</ele>
        <time>2022-03-06T08:30:31.000Z</time>
      </trkpt>
      <trkpt lat="43.31232" lon="2.23469">
        <ele>244.3</ele>
        <time>2022-03-06T08:30:32.000Z</time>
      </trkpt>
      <trkpt lat="43.3123" lon="2.23469">
        <ele>243.8</ele>
        <time>2022-03-06T08:30:33.000Z</time>
      </trkpt>
      <trkpt lat="43.31228" lon="2.2347">
        <ele>243.2</ele>
        <time>2022-03-06T08:30:34.000Z</time>
      </trkpt>
      <trkpt lat="43.31226" lon="2.23471">
        <ele>242.6</ele>
        <time>2022-03-06T08:30:35.000Z</time>
      </trkpt>
      <trkpt lat="43.31223" lon="2.23472">
        <ele>242.1</ele>
        <time>2022-03-06T08:30:36.000Z</time>
      </trkpt>
      <trkpt lat="43.31221" lon="2.23472">
        <ele>241.6</ele>
        <time>2022-03-06T08:30:37.000Z</time>
      </trkpt>
      <trkpt lat="43.3122" lon="2.23472">
        <ele>241.2</ele>
        <time>2022-03-06T08:30:38.000Z</time>
      </trkpt>
      <trkpt lat="43.31218" lon="2.23472">
        <ele>240.9</ele>
        <time>2022-03-06T08:30:39.000Z</time>
      </trkpt>
      <trkpt lat="43.31216" lon="2.23471">
        <ele>240.6</ele>
        <time>2022-03-06T08:30:40.000Z</time>
      </trkpt>
      <trkpt lat="43.31214" lon="2.2347">
        <ele>240.2</ele>
        <time>2022-03-06T08:30:41.000Z</time>
      </trkpt>
      <trkpt lat="43.31212" lon="2.23469">
        <ele>239.8</ele>
        <time>2022-03-06T08:30:42.000Z</time>
      </trkpt>
      <trkpt lat="43.31209" lon="2.23468">
        <ele>239.4</ele>
        <time>2022-03-06T08:30:43.000Z</time>
      </trkpt>
      <trkpt lat="43.31207" lon="2.23467">
        <ele>238.9</ele>
        <time>2022-03-06T08:30:44.000Z</time>
      </trkpt>
      <trkpt lat="43.31205" lon="2.23466">
        <ele>238.6</ele>
        <time>2022-03-06T08:30:45.000Z</time>
      </trkpt>
      <trkpt lat="43.31203" lon="2.23465">
        <ele>238.3</ele>
        <time>2022-03-06T08:30:46.000Z</time>
      </trkpt>
      <trkpt lat="43.31202" lon="2.23465">
        <ele>238</ele>
        <time>2022-03-06T08:30:47.000Z</time>
      </trkpt>
      <trkpt lat="43.312" lon="2.23465">
        <ele>237.6</ele>
        <time>2022-03-06T08:30:48.000Z</time>
      </trkpt>
      <trkpt lat="43.31198" lon="2.23465">
        <ele>237.2</ele>
        <time>2022-03-06T08:30:49.000Z</time>
      </trkpt>
      <trkpt lat="43.31197" lon="2.23467">
        <ele>236.8</ele>
        <time>2022-03-06T08:30:50.000Z</time>
      </trkpt>
      <trkpt lat="43.31195" lon="2.23468">
        <ele>236.4</ele>
        <time>2022-03-06T08:30:51.000Z</time>
      </trkpt>
      <trkpt lat="43.31194" lon="2.23469">
        <ele>235.9</ele>
        <time>2022-03-06T08:30:52.000Z</time>
      </trkpt>
      <trkpt lat="43.31192" lon="2.2347">
        <ele>235.5</ele>
        <time>2022-03-06T08:30:53.000Z</time>
      </trkpt>
      <trkpt lat="43.3119" lon="2.23472">
        <ele>235.1</ele>
        <time>2022-03-06T08:30:54.000Z</time>
      </trkpt>
      <trkpt lat="43.31189" lon="2.23472">
        <ele>234.7</ele>
        <time>2022-03-06T08:30:55.000Z</time>
      </trkpt>
      <trkpt lat="43.31187" lon="2.23472">
        <ele>234.4</ele>
        <time>2022-03-06T08:30:56.000Z</time>
      </trkpt>
      <trkpt lat="43.31186" lon="2.23472">
        <ele>234.1</ele>
        <time>2022-03-06T08:30:57.000Z</time>
      </trkpt>
      <trkpt lat="43.31184" lon="2.23472">
        <ele>233.8</ele>
        <time>2022-03-06T08:30:58.000Z</time>
      </trkpt>
      <trkpt lat="43.31183" lon="2.23471">
        <ele>233.5</ele>
        <time>2022-03-06T08:30:59.000Z</time>
      </trkpt>
      <trkpt lat="43.31181" lon="2.2347">
        <ele>233.2</ele>
        <time>2022-03-06T08:31:00.000Z</time>
      </trkpt>
      <trkpt lat="43.31179" lon="2.2347">
        <ele>232.8</ele>
        <time>2022-03-06T08:31:01.000Z</time>
      </trkpt>
      <trkpt lat="43.31178" lon="2.23469">
        <ele>232.5</ele>
        <time>2022-03-06T08:31:02.000Z</time>
      </trkpt>
      <trkpt lat="43.31176" lon="2.23468">
        <ele>232</ele>
        <time>2022-03-06T08:31:03.000Z</time>
      </trkpt>
      <trkpt lat="43.31173" lon="2.23468">
        <ele>231.6</ele>
        <time>2022-03-06T08:31:04.000Z</time>
      </trkpt>
      <trkpt lat="43.31171" lon="2.23468">
        <ele>231.1</ele>
        <time>2022-03-06T08:31:05.000Z</time>
      </trkpt>
      <trkpt lat="43.31169" lon="2.23468">
        <ele>230.7</ele>
        <time>2022-03-06T08:31:06.000Z</time>
      </trkpt>
      <trkpt lat="43.31167" lon="2.23467">
        <ele>230.2</ele>
        <time>2022-03-06T08:31:07.000Z</time>
      </trkpt>
      <trkpt lat="43.31165" lon="2.23466">
        <ele>230.1</ele>
        <time>2022-03-06T08:31:08.000Z</time>
      </trkpt>
      <trkpt lat="43.31163" lon="2.23465">
        <ele>230</ele>
        <time>2022-03-06T08:31:09.000Z</time>
      </trkpt>
      <trkpt lat="43.31161" lon="2.23464">
        <ele>229.9</ele>
        <time>2022-03-06T08:31:10.000Z</time>
      </trkpt>
      <trkpt lat="43.3116" lon="2.23462">
        <ele>229.9</ele>
        <time>2022-03-06T08:31:11.000Z</time>
      </trkpt>
      <trkpt lat="43.31158" lon="2.2346">
        <ele>229.8</ele>
        <time>2022-03-06T08:31:12.000Z</time>
      </trkpt>
      <trkpt lat="43.31157" lon="2.23458">
        <ele>229.7</ele>
        <time>2022-03-06T08:31:13.000Z</time>
      </trkpt>
      <trkpt lat="43.31155" lon="2.23456">
        <ele>229.5</ele>
        <time>2022-03-06T08:31:14.000Z</time>
      </trkpt>
      <trkpt lat="43.31153" lon="2.23455">
        <ele>229.4</ele>
        <time>2022-03-06T08:31:15.000Z</time>
      </trkpt>
      <trkpt lat="43.31151" lon="2.23453">
        <ele>229.2</ele>
        <time>2022-03-06T08:31:16.000Z</time>
      </trkpt>
      <trkpt lat="43.31149" lon="2.2345">
        <ele>229</ele>
        <time>2022-03-06T08:31:17.000Z</time>
      </trkpt>
      <trkpt lat="43.31147" lon="2.23448">
        <ele>228.8</ele>
        <time>2022-03-06T08:31:18.000Z</time>
      </trkpt>
      <trkpt lat="43.31145" lon="2.23445">
        <ele>228.5</ele>
        <time>2022-03-06T08:31:19.000Z</time>
      </trkpt>
      <trkpt lat="43.31143" lon="2.23442">
        <ele>228.3</ele>
        <time>2022-03-06T08:31:20.000Z</time>
      </trkpt>
      <trkpt lat="43.31142" lon="2.2344">
        <ele>228</ele>
        <time>2022-03-06T08:31:21.000Z</time>
      </trkpt>
      <trkpt lat="43.3114" lon="2.23437">
        <ele>227.7</ele>
        <time>2022-03-06T08:31:22.000Z</time>
      </trkpt>
      <trkpt lat="43.31139" lon="2.23434">
        <ele>227.5</ele>
        <time>2022-03-06T08:31:23.000Z</time>
      </trkpt>
      <trkpt lat="43.31138" lon="2.23431">
        <ele>227.2</ele>
        <time>2022-03-06T08:31:24.000Z</time>
      </trkpt>
      <trkpt lat="43.31136" lon="2.23428">
        <ele>226.9</ele>
        <time>2022-03-06T08:31:25.000Z</time>
      </trkpt>
      <trkpt lat="43.31135" lon="2.23426">
        <ele>226.7</ele>
        <time>2022-03-06T08:31:26.000Z</time>
      </trkpt>
      <trkpt lat="43.31134" lon="2.23424">
        <ele>226.4</ele>
        <time>2022-03-06T08:31:27.000Z</time>
      </trkpt>
      <trkpt lat="43.31133" lon="2.23422">
        <ele>226.1</ele>
        <time>2022-03-06T08:31:28.000Z</time>
      </trkpt>
      <trkpt lat="43.31131" lon="2.2342">
        <ele>225.8</ele>
        <time>2022-03-06T08:31:29.000Z</time>
      </trkpt>
      <trkpt lat="43.31129" lon="2.23419">
        <ele>225.4</ele>
        <time>2022-03-06T08:31:30.000Z</time>
      </trkpt>
      <trkpt lat="43.31128" lon="2.23417">
        <ele>225</ele>
        <time>2022-03-06T08:31:31.000Z</time>
      </trkpt>
      <trkpt lat="43.31125" lon="2.23417">
        <ele>224.6</ele>
        <time>2022-03-06T08:31:32.000Z</time>
      </trkpt>
      <trkpt lat="43.31123" lon="2.23417">
        <ele>224.2</ele>
        <time>2022-03-06T08:31:33.000Z</time>
      </trkpt>
      <trkpt lat="43.31121" lon="2.23418">
        <ele>223.9</ele>
        <time>2022-03-06T08:31:34.000Z</time>
      </trkpt>
      <trkpt lat="43.31119" lon="2.23421">
        <ele>223.8</ele>
        <time>2022-03-06T08:31:35.000Z</time>
      </trkpt>
      <trkpt lat="43.31118" lon="2.23424">
        <ele>223.7</ele>
        <time>2022-03-06T08:31:36.000Z</time>
      </trkpt>
      <trkpt lat="43.31116" lon="2.23427">
        <ele>223.7</ele>
        <time>2022-03-06T08:31:37.000Z</time>
      </trkpt>
      <trkpt lat="43.31114" lon="2.23429">
        <ele>223.5</ele>
        <time>2022-03-06T08:31:38.000Z</time>
      </trkpt>
      <trkpt lat="43.31112" lon="2.2343">
        <ele>223.4</ele>
        <time>2022-03-06T08:31:39.000Z</time>
      </trkpt>
      <trkpt lat="43.3111" lon="2.23431">
        <ele>223.2</ele>
        <time>2022-03-06T08:31:40.000Z</time>
      </trkpt>
      <trkpt lat="43.31108" lon="2.23432">
        <ele>222.9</ele>
        <time>2022-03-06T08:31:41.000Z</time>
      </trkpt>
      <trkpt lat="43.31106" lon="2.23432">
        <ele>222.6</ele>
        <time>2022-03-06T08:31:42.000Z</time>
      </trkpt>
      <trkpt lat="43.31104" lon="2.23431">
        <ele>222.3</ele>
        <time>2022-03-06T08:31:43.000Z</time>
      </trkpt>
      <trkpt lat="43.31103" lon="2.23431">
        <ele>222</ele>
        <time>2022-03-06T08:31:44.000Z</time>
      </trkpt>
      <trkpt lat="43.31102" lon="2.2343">
        <ele>221.8</ele>
        <time>2022-03-06T08:31:45.000Z</time>
      </trkpt>
      <trkpt lat="43.31101" lon="2.2343">
        <ele>221.6</ele>
        <time>2022-03-06T08:31:46.000Z</time>
      </trkpt>
      <trkpt lat="43.311" lon="2.2343">
        <ele>221.5</ele>
        <time>2022-03-06T08:31:47.000Z</time>
      </trkpt>
      <trkpt lat="43.311" lon="2.2343">
        <ele>221.5</ele>
        <time>2022-03-06T08:31:48.000Z</time>
      </trkpt>
      <trkpt lat="43.311" lon="2.23429">
        <ele>221.4</ele>
        <time>2022-03-06T08:31:49.000Z</time>
      </trkpt>
      <trkpt lat="43.311" lon="2.23429">
        <ele>221.4</ele>
        <time>2022-03-06T08:31:50.000Z</time>
      </trkpt>
      <trkpt lat="43.311" lon="2.23429">
        <ele>221.4</ele>
        <time>2022-03-06T08:31:51.000Z</time>
      </trkpt>
      <trkpt lat="43.311" lon="2.23429">
        <ele>221.4</ele>
        <time>2022-03-06T08:31:52.000Z</time>
      </trkpt>
      <trkpt lat="43.31099" lon="2.23429">
        <ele>221.4</ele>
        <time>2022-03-06T08:31:53.000Z</time>
      </trkpt>
      <trkpt lat="43.31099" lon="2.23429">
        <ele>221.3</ele>
        <time>2022-03-06T08:31:54.000Z</time>
      </trkpt>
      <trkpt lat="43.31099" lon="2.23429">
        <ele>221.2</ele>
        <time>2022-03-06T08:31:55.000Z</time>
      </trkpt>
      <trkpt lat="43.31099" lon="2.23428">
        <ele>221.2</ele>
        <time>2022-03-06T08:31:56.000Z</time>
      </trkpt>
      <trkpt lat="43.31098" lon="2.23428">
        <ele>221.1</ele>
        <time>2022-03-06T08:31:57.000Z</time>
      </trkpt>
      <trkpt lat="43.31098" lon="2.23428">
        <ele>221</ele>
        <time>2022-03-06T08:31:58.000Z</time>
      </trkpt>
      <trkpt lat="43.31097" lon="2.23427">
        <ele>220.8</ele>
        <time>2022-03-06T08:31:59.000Z</time>
      </trkpt>
      <trkpt lat="43.31097" lon="2.23427">
        <ele>220.7</ele>
        <time>2022-03-06T08:32:00.000Z</time>
      </trkpt>
      <trkpt lat="43.31096" lon="2.23426">
        <ele>220.5</ele>
        <time>2022-03-06T08:32:01.000Z</time>
      </trkpt>
      <trkpt lat="43.31095" lon="2.23425">
        <ele>220.3</ele>
        <time>2022-03-06T08:32:02.000Z</time>
      </trkpt>
      <trkpt lat="43.31095" lon="2.23425">
        <ele>220.1</ele>
        <time>2022-03-06T08:32:03.000Z</time>
      </trkpt>
      <trkpt lat="43.31094" lon="2.23424">
        <ele>219.9</ele>
        <time>2022-03-06T08:32:04.000Z</time>
      </trkpt>
      <trkpt lat="43.31093" lon="2.23423">
        <ele>219.6</ele>
        <time>2022-03-06T08:32:05.000Z</time>
      </trkpt>
      <trkpt lat="43.31093" lon="2.23422">
        <ele>219.4</ele>
        <time>2022-03-06T08:32:06.000Z</time>
      </trkpt>
      <trkpt lat="43.31092" lon="2.23421">
        <ele>219.2</ele>
        <time>2022-03-06T08:32:07.000Z</time>
      </trkpt>
      <trkpt lat="43.31092" lon="2.23421">
        <ele>219</ele>
        <time>2022-03-06T08:32:08.000Z</time>
      </trkpt>
      <trkpt lat="43.31091" lon="2.2342">
        <ele>218.8</ele>
        <time>2022-03-06T08:32:09.000Z</time>
      </trkpt>
      <trkpt lat="43.31091" lon="2.23419">
        <ele>218.7</ele>
        <time>2022-03-06T08:32:10.000Z</time>
      </trkpt>
      <trkpt lat="43.31091" lon="2.23418">
        <ele>218.5</ele>
        <time>2022-03-06T08:32:11.000Z</time>
      </trkpt>
      <trkpt lat="43.3109" lon="2.23417">
        <ele>218.3</ele>
        <time>2022-03-06T08:32:12.000Z</time>
      </trkpt>
      <trkpt lat="43.3109" lon="2.23416">
        <ele>218.1</ele>
        <time>2022-03-06T08:32:13.000Z</time>
      </trkpt>
      <trkpt lat="43.31089" lon="2.23415">
        <ele>218</ele>
        <time>2022-03-06T08:32:14.000Z</time>
      </trkpt>
      <trkpt lat="43.31089" lon="2.23414">
        <ele>217.9</ele>
        <time>2022-03-06T08:32:15.000Z</time>
      </trkpt>
      <trkpt lat="43.31088" lon="2.23413">
        <ele>217.7</ele>
        <time>2022-03-06T08:32:16.000Z</time>
      </trkpt>
      <trkpt lat="43.31087" lon="2.23412">
        <ele>217.6</ele>
        <time>2022-03-06T08:32:17.000Z</time>
      </trkpt>
      <trkpt lat="43.31087" lon="2.23411">
        <ele>217.5</ele>
        <time>2022-03-06T08:32:18.000Z</time>
      </trkpt>
      <trkpt lat="43.31086" lon="2.2341">
        <ele>217.4</ele>
        <time>2022-03-06T08:32:19.000Z</time>
      </trkpt>
      <trkpt lat="43.31086" lon="2.2341">
        <ele>217.4</ele>
        <time>2022-03-06T08:32:20.000Z</time>
      </trkpt>
      <trkpt lat="43.31086" lon="2.23409">
        <ele>217.4</ele>
        <time>2022-03-06T08:32:21.000Z</time>
      </trkpt>
      <trkpt lat="43.31087" lon="2.23409">
        <ele>217.4</ele>
        <time>2022-03-06T08:32:22.000Z</time>
      </trkpt>
      <trkpt lat="43.31087" lon="2.23409">
        <ele>217.5</ele>
        <time>2022-03-06T08:32:23.000Z</time>
      </trkpt>
      <trkpt lat="43.31088" lon="2.23409">
        <ele>217.6</ele>
        <time>2022-03-06T08:32:24.000Z</time>
      </trkpt>
      <trkpt lat="43.31088" lon="2.23409">
        <ele>217.7</ele>
        <time>2022-03-06T08:32:25.000Z</time>
      </trkpt>
      <trkpt lat="43.31089" lon="2.23409">
        <ele>217.8</ele>
        <time>2022-03-06T08:32:26.000Z</time>
      </trkpt>
      <trkpt lat="43.31089" lon="2.23409">
        <ele>217.9</ele>
        <time>2022-03-06T08:32:27.000Z</time>
      </trkpt>
      <trkpt lat="43.31089" lon="2.23409">
        <ele>217.9</ele>
        <time>2022-03-06T08:32:28.000Z</time>
      </trkpt>
      <trkpt lat="43.3109" lon="2.23409">
        <ele>218</ele>
        <time>2022-03-06T08:32:29.000Z</time>
      </trkpt>
      <trkpt lat="43.3109" lon="2.23409">
        <ele>218</ele>
        <time>2022-03-06T08:32:30.000Z</time>
      </trkpt>
      <trkpt lat="43.3109" lon="2.23409">
        <ele>218</ele>
        <time>2022-03-06T08:32:31.000Z</time>
      </trkpt>
      <trkpt lat="43.3109" lon="2.23409">
        <ele>218</ele>
        <time>2022-03-06T08:32:32.000Z</time>
      </trkpt>
      <trkpt lat="43.3109" lon="2.23409">
        <ele>218</ele>
        <time>2022-03-06T08:32:33.000Z</time>
      </trkpt>
      <trkpt lat="43.3109" lon="2.23409">
        <ele>218</ele>
        <time>2022-03-06T08:32:34.000Z</time>
      </trkpt>
      <trkpt lat="43.3109" lon="2.23409">
        <ele>218</ele>
        <time>2022-03-06T08:32:35.000Z</time>
      </trkpt>
      <trkpt lat="43.3109" lon="2.23409">
        <ele>218</ele>
        <time>2022-03-06T08:32:36.000Z</time>
      </trkpt>
      <trkpt lat="43.3109" lon="2.23409">
        <ele>218</ele>
        <time>2022-03-06T08:32:37.000Z</time>
      </trkpt>
      <trkpt lat="43.3109" lon="2.23409">
        <ele>218</ele>
        <time>2022-03-06T08:32:38.000Z</time>
      </trkpt>
      <trkpt lat="43.3109" lon="2.23409">
        <ele>218</ele>
        <time>2022-03-06T08:32:39.000Z</time>
      </trkpt>
      <trkpt lat="43.3109" lon="2.23409">
        <ele>218</ele>
        <time>2022-03-06T08:32:40.000Z</time>
      </trkpt>
      <trkpt lat="43.3109" lon="2.23409">
        <ele>218</ele>
        <time>2022-03-06T08:32:41.000Z</time>
      </trkpt>
      <trkpt lat="43.31089" lon="2.23408">
        <ele>217.9</ele>
        <time>2022-03-06T08:32:42.000Z</time>
      </trkpt>
      <trkpt lat="43.31089" lon="2.23408">
        <ele>217.8</ele>
        <time>2022-03-06T08:32:43.000Z</time>
      </trkpt>
      <trkpt lat="43.31089" lon="2.23408">
        <ele>217.7</ele>
        <time>2022-03-06T08:32:44.000Z</time>
      </trkpt>
      <trkpt lat="43.31088" lon="2.23407">
        <ele>217.6</ele>
        <time>2022-03-06T08:32:45.000Z</time>
      </trkpt>
      <trkpt lat="43.31087" lon="2.23406">
        <ele>217.4</ele>
        <time>2022-03-06T08:32:46.000Z</time>
      </trkpt>
      <trkpt lat="43.31086" lon="2.23405">
        <ele>217.3</ele>
        <time>2022-03-06T08:32:47.000Z</time>
      </trkpt>
      <trkpt lat="43.31085" lon="2.23403">
        <ele>217</ele>
        <time>2022-03-06T08:32:48.000Z</time>
      </trkpt>
      <trkpt lat="43.31084" lon="2.23401">
        <ele>216.7</ele>
        <time>2022-03-06T08:32:49.000Z</time>
      </trkpt>
      <trkpt lat="43.31082" lon="2.23399">
        <ele>216.6</ele>
        <time>2022-03-06T08:32:50.000Z</time>
      </trkpt>
      <trkpt lat="43.31081" lon="2.23396">
        <ele>216.6</ele>
        <time>2022-03-06T08:32:51.000Z</time>
      </trkpt>
      <trkpt lat="43.31079" lon="2.23394">
        <ele>216.6</ele>
        <time>2022-03-06T08:32:52.000Z</time>
      </trkpt>
      <trkpt lat="43.31077" lon="2.23391">
        <ele>216.5</ele>
        <time>2022-03-06T08:32:53.000Z</time>
      </trkpt>
      <trkpt lat="43.31075" lon="2.23388">
        <ele>216.5</ele>
        <time>2022-03-06T08:32:54.000Z</time>
      </trkpt>
      <trkpt lat="43.31073" lon="2.23385">
        <ele>216.4</ele>
        <time>2022-03-06T08:32:55.000Z</time>
      </trkpt>
      <trkpt lat="43.31071" lon="2.23382">
        <ele>216.3</ele>
        <time>2022-03-06T08:32:56.000Z</time>
      </trkpt>
      <trkpt lat="43.31068" lon="2.23379">
        <ele>216.2</ele>
        <time>2022-03-06T08:32:57.000Z</time>
      </trkpt>
      <trkpt lat="43.31066" lon="2.23376">
        <ele>216.1</ele>
        <time>2022-03-06T08:32:58.000Z</time>
      </trkpt>
      <trkpt lat="43.31063" lon="2.23373">
        <ele>215.9</ele>
        <time>2022-03-06T08:32:59.000Z</time>
      </trkpt>
      <trkpt lat="43.31061" lon="2.23371">
        <ele>215.7</ele>
        <time>2022-03-06T08:33:00.000Z</time>
      </trkpt>
      <trkpt lat="43.31058" lon="2.23368">
        <ele>215.5</ele>
        <time>2022-03-06T08:33:01.000Z</time>
      </trkpt>
      <trkpt lat="43.31056" lon="2.23365">
        <ele>215.3</ele>
        <time>2022-03-06T08:33:02.000Z</time>
      </trkpt>
      <trkpt lat="43.31053" lon="2.23362">
        <ele>215</ele>
        <time>2022-03-06T08:33:03.000Z</time>
      </trkpt>
      <trkpt lat="43.31051" lon="2.2336">
        <ele>214.8</ele>
        <time>2022-03-06T08:33:04.000Z</time>
      </trkpt>
      <trkpt lat="43.31048" lon="2.23357">
        <ele>214.5</ele>
        <time>2022-03-06T08:33:05.000Z</time>
      </trkpt>
      <trkpt lat="43.31046" lon="2.23354">
        <ele>214.2</ele>
        <time>2022-03-06T08:33:06.000Z</time>
      </trkpt>
      <trkpt lat="43.31043" lon="2.23352">
        <ele>213.8</ele>
        <time>2022-03-06T08:33:07.000Z</time>
      </trkpt>
      <trkpt lat="43.31041" lon="2.23349">
        <ele>213.5</ele>
        <time>2022-03-06T08:33:08.000Z</time>
      </trkpt>
      <trkpt lat="43.31039" lon="2.23346">
        <ele>213.1</ele>
        <time>2022-03-06T08:33:09.000Z</time>
      </trkpt>
      <trkpt lat="43.31036" lon="2.23344">
        <ele>212.7</ele>
        <time>2022-03-06T08:33:10.000Z</time>
      </trkpt>
      <trkpt lat="43.31034" lon="2.23341">
        <ele>212.3</ele>
        <time>2022-03-06T08:33:11.000Z</time>
      </trkpt>
      <trkpt lat="43.31032" lon="2.23338">
        <ele>211.9</ele>
        <time>2022-03-06T08:33:12.000Z</time>
      </trkpt>
      <trkpt lat="43.3103" lon="2.23336">
        <ele>211.4</ele>
        <time>2022-03-06T08:33:13.000Z</time>
      </trkpt>
      <trkpt lat="43.31028" lon="2.23333">
        <ele>211</ele>
        <time>2022-03-06T08:33:14.000Z</time>
      </trkpt>
      <trkpt lat="43.31026" lon="2.2333">
        <ele>210.9</ele>
        <time>2022-03-06T08:33:15.000Z</time>
      </trkpt>
      <trkpt lat="43.31024" lon="2.23328">
        <ele>210.8</ele>
        <time>2022-03-06T08:33:16.000Z</time>
      </trkpt>
      <trkpt lat="43.31022" lon="2.23325">
        <ele>210.7</ele>
        <time>2022-03-06T08:33:17.000Z</time>
      </trkpt>
      <trkpt lat="43.3102" lon="2.23322">
        <ele>210.5</ele>
        <time>2022-03-06T08:33:18.000Z</time>
      </trkpt>
      <trkpt lat="43.31018" lon="2.2332">
        <ele>210.4</ele>
        <time>2022-03-06T08:33:19.000Z</time>
      </trkpt>
      <trkpt lat="43.31017" lon="2.23317">
        <ele>210.3</ele>
        <time>2022-03-06T08:33:20.000Z</time>
      </trkpt>
      <trkpt lat="43.31015" lon="2.23315">
        <ele>210.1</ele>
        <time>2022-03-06T08:33:21.000Z</time>
      </trkpt>
      <trkpt lat="43.31013" lon="2.23312">
        <ele>210</ele>
        <time>2022-03-06T08:33:22.000Z</time>
      </trkpt>
      <trkpt lat="43.31011" lon="2.2331">
        <ele>209.8</ele>
        <time>2022-03-06T08:33:23.000Z</time>
      </trkpt>
      <trkpt lat="43.3101" lon="2.23307">
        <ele>209.6</ele>
        <time>2022-03-06T08:33:24.000Z</time>
      </trkpt>
      <trkpt lat="43.31008" lon="2.23305">
        <ele>209.4</ele>
        <time>2022-03-06T08:33:25.000Z</time>
      </trkpt>
      <trkpt lat="43.31006" lon="2.23302">
        <ele>209.2</ele>
        <time>2022-03-06T08:33:26.000Z</time>
      </trkpt>
      <trkpt lat="43.31004" lon="2.233">
        <ele>209</ele>
        <time>2022-03-06T08:33:27.000Z</time>
      </trkpt>
      <trkpt lat="43.31001" lon="2.23298">
        <ele>208.7</ele>
        <time>2022-03-06T08:33:28.000Z</time>
      </trkpt>
      <trkpt lat="43.30999" lon="2.23296">
        <ele>208.6</ele>
        <time>2022-03-06T08:33:29.000Z</time>
      </trkpt>
      <trkpt lat="43.30997" lon="2.23294">
        <ele>208.7</ele>
        <time>2022-03-06T08:33:30.000Z</time>
      </trkpt>
      <trkpt lat="43.30995" lon="2.23292">
        <ele>208.8</ele>
        <time>2022-03-06T08:33:31.000Z</time>
      </trkpt>
      <trkpt lat="43.30993" lon="2.2329">
        <ele>208.9</ele>
        <time>2022-03-06T08:33:32.000Z</time>
      </trkpt>
      <trkpt lat="43.3099" lon="2.23288">
        <ele>208.9</ele>
        <time>2022-03-06T08:33:33.000Z</time>
      </trkpt>
      <trkpt lat="43.30988" lon="2.23286">
        <ele>209</ele>
        <time>2022-03-06T08:33:34.000Z</time>
      </trkpt>
      <trkpt lat="43.30985" lon="2.23285">
        <ele>209</ele>
        <time>2022-03-06T08:33:35.000Z</time>
      </trkpt>
      <trkpt lat="43.30983" lon="2.23283">
        <ele>209</ele>
        <time>2022-03-06T08:33:36.000Z</time>
      </trkpt>
      <trkpt lat="43.30981" lon="2.23281">
        <ele>209</ele>
        <time>2022-03-06T08:33:37.000Z</time>
      </trkpt>
      <trkpt lat="43.30978" lon="2.23279">
        <ele>209</ele>
        <time>2022-03-06T08:33:38.000Z</time>
      </trkpt>
      <trkpt lat="43.30976" lon="2.23277">
        <ele>208.9</ele>
        <time>2022-03-06T08:33:39.000Z</time>
      </trkpt>
      <trkpt lat="43.30974" lon="2.23275">
        <ele>208.9</ele>
        <time>2022-03-06T08:33:40.000Z</time>
      </trkpt>
      <trkpt lat="43.30972" lon="2.23272">
        <ele>208.8</ele>
        <time>2022-03-06T08:33:41.000Z</time>
      </trkpt>
      <trkpt lat="43.30969" lon="2.2327">
        <ele>208.6</ele>
        <time>2022-03-06T08:33:42.000Z</time>
      </trkpt>
      <trkpt lat="43.30967" lon="2.23267">
        <ele>208.5</ele>
        <time>2022-03-06T08:33:43.000Z</time>
      </trkpt>
      <trkpt lat="43.30965" lon="2.23265">
        <ele>208.3</ele>
        <time>2022-03-06T08:33:44.000Z</time>
      </trkpt>
      <trkpt lat="43.30963" lon="2.23262">
        <ele>208.1</ele>
        <time>2022-03-06T08:33:45.000Z</time>
      </trkpt>
      <trkpt lat="43.30961" lon="2.2326">
        <ele>207.9</ele>
        <time>2022-03-06T08:33:46.000Z</time>
      </trkpt>
      <trkpt lat="43.30959" lon="2.23257">
        <ele>207.7</ele>
        <time>2022-03-06T08:33:47.000Z</time>
      </trkpt>
      <trkpt lat="43.30956" lon="2.23255">
        <ele>207.4</ele>
        <time>2022-03-06T08:33:48.000Z</time>
      </trkpt>
      <trkpt lat="43.30954" lon="2.23252">
        <ele>207.1</ele>
        <time>2022-03-06T08:33:49.000Z</time>
      </trkpt>
      <trkpt lat="43.30952" lon="2.2325">
        <ele>206.9</ele>
        <time>2022-03-06T08:33:50.000Z</time>
      </trkpt>
      <trkpt lat="43.3095" lon="2.23248">
        <ele>206.8</ele>
        <time>2022-03-06T08:33:51.000Z</time>
      </trkpt>
      <trkpt lat="43.30948" lon="2.23245">
        <ele>206.8</ele>
        <time>2022-03-06T08:33:52.000Z</time>
      </trkpt>
      <trkpt lat="43.30946" lon="2.23243">
        <ele>206.7</ele>
        <time>2022-03-06T08:33:53.000Z</time>
      </trkpt>
      <trkpt lat="43.30943" lon="2.2324">
        <ele>206.6</ele>
        <time>2022-03-06T08:33:54.000Z</time>
      </trkpt>
      <trkpt lat="43.30941" lon="2.23238">
        <ele>206.5</ele>
        <time>2022-03-06T08:33:55.000Z</time>
      </trkpt>
      <trkpt lat="43.30939" lon="2.23236">
        <ele>206.3</ele>
        <time>2022-03-06T08:33:56.000Z</time>
      </trkpt>
      <trkpt lat="43.30936" lon="2.23234">
        <ele>206.2</ele>
        <time>2022-03-06T08:33:57.000Z</time>
      </trkpt>
      <trkpt lat="43.30934" lon="2.23231">
        <ele>206</ele>
        <time>2022-03-06T08:33:58.000Z</time>
      </trkpt>
      <trkpt lat="43.30932" lon="2.23229">
        <ele>205.8</ele>
        <time>2022-03-06T08:33:59.000Z</time>
      </trkpt>
      <trkpt lat="43.30929" lon="2.23227">
        <ele>205.6</ele>
        <time>2022-03-06T08:34:00.000Z</time>
      </trkpt>
      <trkpt lat="43.30926" lon="2.23225">
        <ele>205.4</ele>
        <time>2022-03-06T08:34:01.000Z</time>
      </trkpt>
      <trkpt lat="43.30924" lon="2.23223">
        <ele>205.2</ele>
        <time>2022-03-06T08:34:02.000Z</time>
      </trkpt>
      <trkpt lat="43.30921" lon="2.23221">
        <ele>204.9</ele>
        <time>2022-03-06T08:34:03.000Z</time>
      </trkpt>
      <trkpt lat="43.30918" lon="2.23219">
        <ele>204.6</ele>
        <time>2022-03-06T08:34:04.000Z</time>
      </trkpt>
      <trkpt lat="43.30916" lon="2.23217">
        <ele>204.4</ele>
        <time>2022-03-06T08:34:05.000Z</time>
      </trkpt>
      <trkpt lat="43.30913" lon="2.23215">
        <ele>204.2</ele>
        <time>2022-03-06T08:34:06.000Z</time>
      </trkpt>
      <trkpt lat="43.3091" lon="2.23213">
        <ele>203.9</ele>
        <time>2022-03-06T08:34:07.000Z</time>
      </trkpt>
      <trkpt lat="43.30907" lon="2.2321">
        <ele>203.7</ele>
        <time>2022-03-06T08:34:08.000Z</time>
      </trkpt>
      <trkpt lat="43.30905" lon="2.23208">
        <ele>203.4</ele>
        <time>2022-03-06T08:34:09.000Z</time>
      </trkpt>
      <trkpt lat="43.30902" lon="2.23205">
        <ele>203.1</ele>
        <time>2022-03-06T08:34:10.000Z</time>
      </trkpt>
      <trkpt lat="43.30899" lon="2.23202">
        <ele>202.8</ele>
        <time>2022-03-06T08:34:11.000Z</time>
      </trkpt>
      <trkpt lat="43.30897" lon="2.23199">
        <ele>202.5</ele>
        <time>2022-03-06T08:34:12.000Z</time>
      </trkpt>
      <trkpt lat="43.30894" lon="2.23196">
        <ele>202.2</ele>
        <time>2022-03-06T08:34:13.000Z</time>
      </trkpt>
      <trkpt lat="43.30892" lon="2.23193">
        <ele>201.9</ele>
        <time>2022-03-06T08:34:14.000Z</time>
      </trkpt>
      <trkpt lat="43.3089" lon="2.2319">
        <ele>201.6</ele>
        <time>2022-03-06T08:34:15.000Z</time>
      </trkpt>
      <trkpt lat="43.30887" lon="2.23188">
        <ele>201.2</ele>
        <time>2022-03-06T08:34:16.000Z</time>
      </trkpt>
      <trkpt lat="43.30885" lon="2.23185">
        <ele>200.9</ele>
        <time>2022-03-06T08:34:17.000Z</time>
      </trkpt>
      <trkpt lat="43.30883" lon="2.23182">
        <ele>200.6</ele>
        <time>2022-03-06T08:34:18.000Z</time>
      </trkpt>
      <trkpt lat="43.3088" lon="2.2318">
        <ele>200.3</ele>
        <time>2022-03-06T08:34:19.000Z</time>
      </trkpt>
      <trkpt lat="43.30877" lon="2.23178">
        <ele>200</ele>
        <time>2022-03-06T08:34:20.000Z</time>
      </trkpt>
      <trkpt lat="43.30875" lon="2.23176">
        <ele>199.7</ele>
        <time>2022-03-06T08:34:21.000Z</time>
      </trkpt>
      <trkpt lat="43.30872" lon="2.23174">
        <ele>199.3</ele>
        <time>2022-03-06T08:34:22.000Z</time>
      </trkpt>
      <trkpt lat="43.30869" lon="2.23172">
        <ele>199</ele>
        <time>2022-03-06T08:34:23.000Z</time>
      </trkpt>
      <trkpt lat="43.30867" lon="2.2317">
        <ele>198.6</ele>
        <time>2022-03-06T08:34:24.000Z</time>
      </trkpt>
      <trkpt lat="43.30864" lon="2.23168">
        <ele>198.3</ele>
        <time>2022-03-06T08:34:25.000Z</time>
      </trkpt>
      <trkpt lat="43.30861" lon="2.23166">
        <ele>198</ele>
        <time>2022-03-06T08:34:26.000Z</time>
      </trkpt>
      <trkpt lat="43.30859" lon="2.23165">
        <ele>197.8</ele>
        <time>2022-03-06T08:34:27.000Z</time>
      </trkpt>
      <trkpt lat="43.30857" lon="2.23164">
        <ele>197.7</ele>
        <time>2022-03-06T08:34:28.000Z</time>
      </trkpt>
      <trkpt lat="43.30855" lon="2.23164">
        <ele>197.5</ele>
        <time>2022-03-06T08:34:29.000Z</time>
      </trkpt>
      <trkpt lat="43.30853" lon="2.23165">
        <ele>197.4</ele>
        <time>2022-03-06T08:34:30.000Z</time>
      </trkpt>
      <trkpt lat="43.30852" lon="2.23166">
        <ele>197.3</ele>
        <time>2022-03-06T08:34:31.000Z</time>
      </trkpt>
      <trkpt lat="43.30851" lon="2.23168">
        <ele>197.3</ele>
        <time>2022-03-06T08:34:32.000Z</time>
      </trkpt>
      <trkpt lat="43.3085" lon="2.2317">
        <ele>197.4</ele>
        <time>2022-03-06T08:34:33.000Z</time>
      </trkpt>
      <trkpt lat="43.30849" lon="2.23172">
        <ele>197.6</ele>
        <time>2022-03-06T08:34:34.000Z</time>
      </trkpt>
      <trkpt lat="43.30847" lon="2.23175">
        <ele>197.7</ele>
        <time>2022-03-06T08:34:35.000Z</time>
      </trkpt>
      <trkpt lat="43.30846" lon="2.23177">
        <ele>197.9</ele>
        <time>2022-03-06T08:34:36.000Z</time>
      </trkpt>
      <trkpt lat="43.30845" lon="2.2318">
        <ele>198</ele>
        <time>2022-03-06T08:34:37.000Z</time>
      </trkpt>
      <trkpt lat="43.30844" lon="2.23183">
        <ele>198.2</ele>
        <time>2022-03-06T08:34:38.000Z</time>
      </trkpt>
      <trkpt lat="43.30842" lon="2.23185">
        <ele>198.3</ele>
        <time>2022-03-06T08:34:39.000Z</time>
      </trkpt>
      <trkpt lat="43.30841" lon="2.23188">
        <ele>198.5</ele>
        <time>2022-03-06T08:34:40.000Z</time>
      </trkpt>
      <trkpt lat="43.3084" lon="2.23191">
        <ele>198.7</ele>
        <time>2022-03-06T08:34:41.000Z</time>
      </trkpt>
      <trkpt lat="43.30838" lon="2.23193">
        <ele>198.8</ele>
        <time>2022-03-06T08:34:42.000Z</time>
      </trkpt>
      <trkpt lat="43.30837" lon="2.23196">
        <ele>199</ele>
        <time>2022-03-06T08:34:43.000Z</time>
      </trkpt>
      <trkpt lat="43.30835" lon="2.23199">
        <ele>199.2</ele>
        <time>2022-03-06T08:34:44.000Z</time>
      </trkpt>
      <trkpt lat="43.30833" lon="2.23202">
        <ele>199.4</ele>
        <time>2022-03-06T08:34:45.000Z</time>
      </trkpt>
      <trkpt lat="43.30832" lon="2.23204">
        <ele>199.5</ele>
        <time>2022-03-06T08:34:46.000Z</time>
      </trkpt>
      <trkpt lat="43.3083" lon="2.23207">
        <ele>199.7</ele>
        <time>2022-03-06T08:34:47.000Z</time>
      </trkpt>
      <trkpt lat="43.30829" lon="2.2321">
        <ele>199.9</ele>
        <time>2022-03-06T08:34:48.000Z</time>
      </trkpt>
      <trkpt lat="43.30827" lon="2.23213">
        <ele>200</ele>
        <time>2022-03-06T08:34:49.000Z</time>
      </trkpt>
      <trkpt lat="43.30825" lon="2.23215">
        <ele>200.2</ele>
        <time>2022-03-06T08:34:50.000Z</time>
      </trkpt>
      <trkpt lat="43.30824" lon="2.23218">
        <ele>200.3</ele>
        <time>2022-03-06T08:34:51.000Z</time>
      </trkpt>
      <trkpt lat="43.30822" lon="2.23221">
        <ele>200.4</ele>
        <time>2022-03-06T08:34:52.000Z</time>
      </trkpt>
      <trkpt lat="43.30821" lon="2.23223">
        <ele>200.6</ele>
        <time>2022-03-06T08:34:53.000Z</time>
      </trkpt>
      <trkpt lat="43.30819" lon="2.23226">
        <ele>200.7</ele>
        <time>2022-03-06T08:34:54.000Z</time>
      </trkpt>
      <trkpt lat="43.30818" lon="2.23229">
        <ele>200.8</ele>
        <time>2022-03-06T08:34:55.000Z</time>
      </trkpt>
      <trkpt lat="43.30816" lon="2.23231">
        <ele>200.9</ele>
        <time>2022-03-06T08:34:56.000Z</time>
      </trkpt>
      <trkpt lat="43.30815" lon="2.23234">
        <ele>201</ele>
        <time>2022-03-06T08:34:57.000Z</time>
      </trkpt>
      <trkpt lat="43.30814" lon="2.23236">
        <ele>201.1</ele>
        <time>2022-03-06T08:34:58.000Z</time>
      </trkpt>
      <trkpt lat="43.30813" lon="2.23239">
        <ele>201.1</ele>
        <time>2022-03-06T08:34:59.000Z</time>
      </trkpt>
      <trkpt lat="43.30811" lon="2.23241">
        <ele>201.2</ele>
        <time>2022-03-06T08:35:00.000Z</time>
      </trkpt>
      <trkpt lat="43.3081" lon="2.23243">
        <ele>201.3</ele>
        <time>2022-03-06T08:35:01.000Z</time>
      </trkpt>
      <trkpt lat="43.30809" lon="2.23246">
        <ele>201.3</ele>
        <time>2022-03-06T08:35:02.000Z</time>
      </trkpt>
      <trkpt lat="43.30807" lon="2.23248">
        <ele>201.4</ele>
        <time>2022-03-06T08:35:03.000Z</time>
      </trkpt>
      <trkpt lat="43.30806" lon="2.23251">
        <ele>201.4</ele>
        <time>2022-03-06T08:35:04.000Z</time>
      </trkpt>
      <trkpt lat="43.30804" lon="2.23253">
        <ele>201.6</ele>
        <time>2022-03-06T08:35:05.000Z</time>
      </trkpt>
      <trkpt lat="43.30803" lon="2.23256">
        <ele>201.7</ele>
        <time>2022-03-06T08:35:06.000Z</time>
      </trkpt>
      <trkpt lat="43.30801" lon="2.23258">
        <ele>201.9</ele>
        <time>2022-03-06T08:35:07.000Z</time>
      </trkpt>
      <trkpt lat="43.308" lon="2.23261">
        <ele>202</ele>
        <time>2022-03-06T08:35:08.000Z</time>
      </trkpt>
      <trkpt lat="43.30798" lon="2.23264">
        <ele>202.1</ele>
        <time>2022-03-06T08:35:09.000Z</time>
      </trkpt>
      <trkpt lat="43.30797" lon="2.23266">
        <ele>202.2</ele>
        <time>2022-03-06T08:35:10.000Z</time>
      </trkpt>
      <trkpt lat="43.30795" lon="2.23269">
        <ele>202.3</ele>
        <time>2022-03-06T08:35:11.000Z</time>
      </trkpt>
      <trkpt lat="43.30794" lon="2.23271">
        <ele>202.4</ele>
        <time>2022-03-06T08:35:12.000Z</time>
      </trkpt>
      <trkpt lat="43.30793" lon="2.23274">
        <ele>202.5</ele>
        <time>2022-03-06T08:35:13.000Z</time>
      </trkpt>
      <trkpt lat="43.30791" lon="2.23277">
        <ele>202.7</ele>
        <time>2022-03-06T08:35:14.000Z</time>
      </trkpt>
      <trkpt lat="43.3079" lon="2.23279">
        <ele>202.8</ele>
        <time>2022-03-06T08:35:15.000Z</time>
      </trkpt>
      <trkpt lat="43.30789" lon="2.23282">
        <ele>202.9</ele>
        <time>2022-03-06T08:35:16.000Z</time>
      </trkpt>
      <trkpt lat="43.30787" lon="2.23285">
        <ele>203</ele>
        <time>2022-03-06T08:35:17.000Z</time>
      </trkpt>
      <trkpt lat="43.30786" lon="2.23287">
        <ele>203.1</ele>
        <time>2022-03-06T08:35:18.000Z</time>
      </trkpt>
      <trkpt lat="43.30785" lon="2.2329">
        <ele>203.2</ele>
        <time>2022-03-06T08:35:19.000Z</time>
      </trkpt>
      <trkpt lat="43.30784" lon="2.23292">
        <ele>203.3</ele>
        <time>2022-03-06T08:35:20.000Z</time>
      </trkpt>
      <trkpt lat="43.30783" lon="2.23295">
        <ele>203.4</ele>
        <time>2022-03-06T08:35:21.000Z</time>
      </trkpt>
      <trkpt lat="43.30782" lon="2.23297">
        <ele>203.5</ele>
        <time>2022-03-06T08:35:22.000Z</time>
      </trkpt>
      <trkpt lat="43.30781" lon="2.233">
        <ele>203.6</ele>
        <time>2022-03-06T08:35:23.000Z</time>
      </trkpt>
      <trkpt lat="43.3078" lon="2.23303">
        <ele>203.7</ele>
        <time>2022-03-06T08:35:24.000Z</time>
      </trkpt>
      <trkpt lat="43.30779" lon="2.23305">
        <ele>203.8</ele>
        <time>2022-03-06T08:35:25.000Z</time>
      </trkpt>
      <trkpt lat="43.30778" lon="2.23308">
        <ele>203.9</ele>
        <time>2022-03-06T08:35:26.000Z</time>
      </trkpt>
      <trkpt lat="43.30777" lon="2.23311">
        <ele>204</ele>
        <time>2022-03-06T08:35:27.000Z</time>
      </trkpt>
      <trkpt lat="43.30776" lon="2.23314">
        <ele>204</ele>
        <time>2022-03-06T08:35:28.000Z</time>
      </trkpt>
      <trkpt lat="43.30775" lon="2.23317">
        <ele>204.1</ele>
        <time>2022-03-06T08:35:29.000Z</time>
      </trkpt>
      <trkpt lat="43.30774" lon="2.2332">
        <ele>204.2</ele>
        <time>2022-03-06T08:35:30.000Z</time>
      </trkpt>
      <trkpt lat="43.30773" lon="2.23323">
        <ele>204.3</ele>
        <time>2022-03-06T08:35:31.000Z</time>
      </trkpt>
      <trkpt lat="43.30772" lon="2.23327">
        <ele>204.3</ele>
        <time>2022-03-06T08:35:32.000Z</time>
      </trkpt>
      <trkpt lat="43.30771" lon="2.2333">
        <ele>204.4</ele>
        <time>2022-03-06T08:35:33.000Z</time>
      </trkpt>
      <trkpt lat="43.30769" lon="2.23333">
        <ele>204.4</ele>
        <time>2022-03-06T08:35:34.000Z</time>
      </trkpt>
      <trkpt lat="43.30768" lon="2.23336">
        <ele>204.7</ele>
        <time>2022-03-06T08:35:35.000Z</time>
      </trkpt>
      <trkpt lat="43.30767" lon="2.23339">
        <ele>204.9</ele>
        <time>2022-03-06T08:35:36.000Z</time>
      </trkpt>
      <trkpt lat="43.30766" lon="2.23342">
        <ele>205.1</ele>
        <time>2022-03-06T08:35:37.000Z</time>
      </trkpt>
      <trkpt lat="43.30765" lon="2.23345">
        <ele>205.4</ele>
        <time>2022-03-06T08:35:38.000Z</time>
      </trkpt>
      <trkpt lat="43.30764" lon="2.23348">
        <ele>205.6</ele>
        <time>2022-03-06T08:35:39.000Z</time>
      </trkpt>
      <trkpt lat="43.30763" lon="2.23351">
        <ele>205.8</ele>
        <time>2022-03-06T08:35:40.000Z</time>
      </trkpt>
      <trkpt lat="43.30762" lon="2.23354">
        <ele>206</ele>
        <time>2022-03-06T08:35:41.000Z</time>
      </trkpt>
      <trkpt lat="43.30761" lon="2.23357">
        <ele>206.2</ele>
        <time>2022-03-06T08:35:42.000Z</time>
      </trkpt>
      <trkpt lat="43.30759" lon="2.2336">
        <ele>206.3</ele>
        <time>2022-03-06T08:35:43.000Z</time>
      </trkpt>
      <trkpt lat="43.30758" lon="2.23363">
        <ele>206.5</ele>
        <time>2022-03-06T08:35:44.000Z</time>
      </trkpt>
      <trkpt lat="43.30757" lon="2.23365">
        <ele>206.6</ele>
        <time>2022-03-06T08:35:45.000Z</time>
      </trkpt>
      <trkpt lat="43.30756" lon="2.23368">
        <ele>206.7</ele>
        <time>2022-03-06T08:35:46.000Z</time>
      </trkpt>
      <trkpt lat="43.30754" lon="2.23371">
        <ele>206.8</ele>
        <time>2022-03-06T08:35:47.000Z</time>
      </trkpt>
      <trkpt lat="43.30753" lon="2.23373">
        <ele>206.9</ele>
        <time>2022-03-06T08:35:48.000Z</time>
      </trkpt>
      <trkpt lat="43.30752" lon="2.23376">
        <ele>206.9</ele>
        <time>2022-03-06T08:35:49.000Z</time>
      </trkpt>
      <trkpt lat="43.3075" lon="2.23379">
        <ele>207</ele>
        <time>2022-03-06T08:35:50.000Z</time>
      </trkpt>
      <trkpt lat="43.30749" lon="2.23381">
        <ele>207.2</ele>
        <time>2022-03-06T08:35:51.000Z</time>
      </trkpt>
      <trkpt lat="43.30747" lon="2.23384">
        <ele>207.5</ele>
        <time>2022-03-06T08:35:52.000Z</time>
      </trkpt>
      <trkpt lat="43.30746" lon="2.23386">
        <ele>207.8</ele>
        <time>2022-03-06T08:35:53.000Z</time>
      </trkpt>
      <trkpt lat="43.30744" lon="2.23388">
        <ele>208</ele>
        <time>2022-03-06T08:35:54.000Z</time>
      </trkpt>
      <trkpt lat="43.30743" lon="2.23391">
        <ele>208.2</ele>
        <time>2022-03-06T08:35:55.000Z</time>
      </trkpt>
      <trkpt lat="43.30742" lon="2.23393">
        <ele>208.5</ele>
        <time>2022-03-06T08:35:56.000Z</time>
      </trkpt>
      <trkpt lat="43.3074" lon="2.23396">
        <ele>208.7</ele>
        <time>2022-03-06T08:35:57.000Z</time>
      </trkpt>
      <trkpt lat="43.30739" lon="2.23398">
        <ele>208.9</ele>
        <time>2022-03-06T08:35:58.000Z</time>
      </trkpt>
      <trkpt lat="43.30737" lon="2.23401">
        <ele>209.1</ele>
        <time>2022-03-06T08:35:59.000Z</time>
      </trkpt>
      <trkpt lat="43.30736" lon="2.23404">
        <ele>209.2</ele>
        <time>2022-03-06T08:36:00.000Z</time>
      </trkpt>
      <trkpt lat="43.30734" lon="2.23406">
        <ele>209.4</ele>
        <time>2022-03-06T08:36:01.000Z</time>
      </trkpt>
      <trkpt lat="43.30732" lon="2.23409">
        <ele>209.5</ele>
        <time>2022-03-06T08:36:02.000Z</time>
      </trkpt>
      <trkpt lat="43.3073" lon="2.23412">
        <ele>209.6</ele>
        <time>2022-03-06T08:36:03.000Z</time>
      </trkpt>
      <trkpt lat="43.30729" lon="2.23415">
        <ele>209.8</ele>
        <time>2022-03-06T08:36:04.000Z</time>
      </trkpt>
      <trkpt lat="43.30727" lon="2.23418">
        <ele>209.9</ele>
        <time>2022-03-06T08:36:05.000Z</time>
      </trkpt>
      <trkpt lat="43.30726" lon="2.2342">
        <ele>210.1</ele>
        <time>2022-03-06T08:36:06.000Z</time>
      </trkpt>
      <trkpt lat="43.30725" lon="2.23423">
        <ele>210.2</ele>
        <time>2022-03-06T08:36:07.000Z</time>
      </trkpt>
      <trkpt lat="43.30724" lon="2.23426">
        <ele>210.4</ele>
        <time>2022-03-06T08:36:08.000Z</time>
      </trkpt>
      <trkpt lat="43.30723" lon="2.23429">
        <ele>210.6</ele>
        <time>2022-03-06T08:36:09.000Z</time>
      </trkpt>
      <trkpt lat="43.30722" lon="2.23432">
        <ele>210.8</ele>
        <time>2022-03-06T08:36:10.000Z</time>
      </trkpt>
      <trkpt lat="43.30721" lon="2.23435">
        <ele>211</ele>
        <time>2022-03-06T08:36:11.000Z</time>
      </trkpt>
      <trkpt lat="43.3072" lon="2.23438">
        <ele>211.2</ele>
        <time>2022-03-06T08:36:12.000Z</time>
      </trkpt>
      <trkpt lat="43.30719" lon="2.23441">
        <ele>211.3</ele>
        <time>2022-03-06T08:36:13.000Z</time>
      </trkpt>
      <trkpt lat="43.30718" lon="2.23444">
        <ele>211.5</ele>
        <time>2022-03-06T08:36:14.000Z</time>
      </trkpt>
      <trkpt lat="43.30717" lon="2.23447">
        <ele>211.7</ele>
        <time>2022-03-06T08:36:15.000Z</time>
      </trkpt>
      <trkpt lat="43.30716" lon="2.2345">
        <ele>211.8</ele>
        <time>2022-03-06T08:36:16.000Z</time>
      </trkpt>
      <trkpt lat="43.30715" lon="2.23453">
        <ele>211.9</ele>
        <time>2022-03-06T08:36:17.000Z</time>
      </trkpt>
      <trkpt lat="43.30714" lon="2.23455">
        <ele>212</ele>
        <time>2022-03-06T08:36:18.000Z</time>
      </trkpt>
      <trkpt lat="43.30712" lon="2.23458">
        <ele>212.1</ele>
        <time>2022-03-06T08:36:19.000Z</time>
      </trkpt>
      <trkpt lat="43.30711" lon="2.23461">
        <ele>212.1</ele>
        <time>2022-03-06T08:36:20.000Z</time>
      </trkpt>
      <trkpt lat="43.3071" lon="2.23464">
        <ele>212.1</ele>
        <time>2022-03-06T08:36:21.000Z</time>
      </trkpt>
      <trkpt lat="43.30708" lon="2.23466">
        <ele>212.1</ele>
        <time>2022-03-06T08:36:22.000Z</time>
      </trkpt>
      <trkpt lat="43.30707" lon="2.23469">
        <ele>212.1</ele>
        <time>2022-03-06T08:36:23.000Z</time>
      </trkpt>
      <trkpt lat="43.30705" lon="2.23471">
        <ele>212.1</ele>
        <time>2022-03-06T08:36:24.000Z</time>
      </trkpt>
      <trkpt lat="43.30704" lon="2.23474">
        <ele>212</ele>
        <time>2022-03-06T08:36:25.000Z</time>
      </trkpt>
      <trkpt lat="43.30702" lon="2.23476">
        <ele>211.9</ele>
        <time>2022-03-06T08:36:26.000Z</time>
      </trkpt>
      <trkpt lat="43.307" lon="2.23479">
        <ele>211.9</ele>
        <time>2022-03-06T08:36:27.000Z</time>
      </trkpt>
      <trkpt lat="43.30699" lon="2.23482">
        <ele>211.8</ele>
        <time>2022-03-06T08:36:28.000Z</time>
      </trkpt>
      <trkpt lat="43.30697" lon="2.23484">
        <ele>211.7</ele>
        <time>2022-03-06T08:36:29.000Z</time>
      </trkpt>
      <trkpt lat="43.30695" lon="2.23487">
        <ele>211.6</ele>
        <time>2022-03-06T08:36:30.000Z</time>
      </trkpt>
      <trkpt lat="43.30694" lon="2.2349">
        <ele>211.6</ele>
        <time>2022-03-06T08:36:31.000Z</time>
      </trkpt>
      <trkpt lat="43.30692" lon="2.23493">
        <ele>211.4</ele>
        <time>2022-03-06T08:36:32.000Z</time>
      </trkpt>
      <trkpt lat="43.30691" lon="2.23496">
        <ele>211.3</ele>
        <time>2022-03-06T08:36:33.000Z</time>
      </trkpt>
      <trkpt lat="43.30689" lon="2.23498">
        <ele>211.2</ele>
        <time>2022-03-06T08:36:34.000Z</time>
      </trkpt>
      <trkpt lat="43.30687" lon="2.23501">
        <ele>210.9</ele>
        <time>2022-03-06T08:36:35.000Z</time>
      </trkpt>
      <trkpt lat="43.30685" lon="2.23503">
        <ele>210.7</ele>
        <time>2022-03-06T08:36:36.000Z</time>
      </trkpt>
      <trkpt lat="43.30683" lon="2.23505">
        <ele>210.4</ele>
        <time>2022-03-06T08:36:37.000Z</time>
      </trkpt>
      <trkpt lat="43.30681" lon="2.23507">
        <ele>210.2</ele>
        <time>2022-03-06T08:36:38.000Z</time>
      </trkpt>
      <trkpt lat="43.30679" lon="2.2351">
        <ele>209.9</ele>
        <time>2022-03-06T08:36:39.000Z</time>
      </trkpt>
      <trkpt lat="43.30677" lon="2.23512">
        <ele>209.7</ele>
        <time>2022-03-06T08:36:40.000Z</time>
      </trkpt>
      <trkpt lat="43.30676" lon="2.23514">
        <ele>209.5</ele>
        <time>2022-03-06T08:36:41.000Z</time>
      </trkpt>
      <trkpt lat="43.30675" lon="2.23517">
        <ele>209.4</ele>
        <time>2022-03-06T08:36:42.000Z</time>
      </trkpt>
      <trkpt lat="43.30674" lon="2.2352">
        <ele>209.4</ele>
        <time>2022-03-06T08:36:43.000Z</time>
      </trkpt>
      <trkpt lat="43.30674" lon="2.23523">
        <ele>209.5</ele>
        <time>2022-03-06T08:36:44.000Z</time>
      </trkpt>
      <trkpt lat="43.30673" lon="2.23526">
        <ele>209.6</ele>
        <time>2022-03-06T08:36:45.000Z</time>
      </trkpt>
      <trkpt lat="43.30673" lon="2.23529">
        <ele>209.7</ele>
        <time>2022-03-06T08:36:46.000Z</time>
      </trkpt>
      <trkpt lat="43.30673" lon="2.23533">
        <ele>209.9</ele>
        <time>2022-03-06T08:36:47.000Z</time>
      </trkpt>
      <trkpt lat="43.30673" lon="2.23536">
        <ele>210</ele>
        <time>2022-03-06T08:36:48.000Z</time>
      </trkpt>
      <trkpt lat="43.30673" lon="2.23539">
        <ele>210.1</ele>
        <time>2022-03-06T08:36:49.000Z</time>
      </trkpt>
      <trkpt lat="43.30672" lon="2.23542">
        <ele>210.1</ele>
        <time>2022-03-06T08:36:50.000Z</time>
      </trkpt>
      <trkpt lat="43.30671" lon="2.23545">
        <ele>210.1</ele>
        <time>2022-03-06T08:36:51.000Z</time>
      </trkpt>
      <trkpt lat="43.3067" lon="2.23548">
        <ele>210.1</ele>
        <time>2022-03-06T08:36:52.000Z</time>
      </trkpt>
      <trkpt lat="43.30669" lon="2.23551">
        <ele>209.9</ele>
        <time>2022-03-06T08:36:53.000Z</time>
      </trkpt>
      <trkpt lat="43.30668" lon="2.23554">
        <ele>209.9</ele>
        <time>2022-03-06T08:36:54.000Z</time>
      </trkpt>
      <trkpt lat="43.30667" lon="2.23557">
        <ele>209.8</ele>
        <time>2022-03-06T08:36:55.000Z</time>
      </trkpt>
      <trkpt lat="43.30666" lon="2.23561">
        <ele>210.1</ele>
        <time>2022-03-06T08:36:56.000Z</time>
      </trkpt>
      <trkpt lat="43.30665" lon="2.23564">
        <ele>210.4</ele>
        <time>2022-03-06T08:36:57.000Z</time>
      </trkpt>
      <trkpt lat="43.30664" lon="2.23567">
        <ele>210.7</ele>
        <time>2022-03-06T08:36:58.000Z</time>
      </trkpt>
      <trkpt lat="43.30663" lon="2.2357">
        <ele>211</ele>
        <time>2022-03-06T08:36:59.000Z</time>
      </trkpt>
      <trkpt lat="43.30662" lon="2.23573">
        <ele>211.3</ele>
        <time>2022-03-06T08:37:00.000Z</time>
      </trkpt>
      <trkpt lat="43.30661" lon="2.23576">
        <ele>211.5</ele>
        <time>2022-03-06T08:37:01.000Z</time>
      </trkpt>
      <trkpt lat="43.30661" lon="2.2358">
        <ele>211.8</ele>
        <time>2022-03-06T08:37:02.000Z</time>
      </trkpt>
      <trkpt lat="43.3066" lon="2.23583">
        <ele>212.1</ele>
        <time>2022-03-06T08:37:03.000Z</time>
      </trkpt>
      <trkpt lat="43.30659" lon="2.23586">
        <ele>212.3</ele>
        <time>2022-03-06T08:37:04.000Z</time>
      </trkpt>
      <trkpt lat="43.30658" lon="2.23589">
        <ele>212.6</ele>
        <time>2022-03-06T08:37:05.000Z</time>
      </trkpt>
      <trkpt lat="43.30657" lon="2.23592">
        <ele>212.9</ele>
        <time>2022-03-06T08:37:06.000Z</time>
      </trkpt>
      <trkpt lat="43.30656" lon="2.23595">
        <ele>213.1</ele>
        <time>2022-03-06T08:37:07.000Z</time>
      </trkpt>
      <trkpt lat="43.30655" lon="2.23597">
        <ele>213.4</ele>
        <time>2022-03-06T08:37:08.000Z</time>
      </trkpt>
      <trkpt lat="43.30654" lon="2.236">
        <ele>213.7</ele>
        <time>2022-03-06T08:37:09.000Z</time>
      </trkpt>
      <trkpt lat="43.30653" lon="2.23603">
        <ele>214</ele>
        <time>2022-03-06T08:37:10.000Z</time>
      </trkpt>
      <trkpt lat="43.30651" lon="2.23605">
        <ele>214.3</ele>
        <time>2022-03-06T08:37:11.000Z</time>
      </trkpt>
      <trkpt lat="43.3065" lon="2.23607">
        <ele>214.7</ele>
        <time>2022-03-06T08:37:12.000Z</time>
      </trkpt>
      <trkpt lat="43.30649" lon="2.23609">
        <ele>215</ele>
        <time>2022-03-06T08:37:13.000Z</time>
      </trkpt>
      <trkpt lat="43.30648" lon="2.23612">
        <ele>215.3</ele>
        <time>2022-03-06T08:37:14.000Z</time>
      </trkpt>
      <trkpt lat="43.30646" lon="2.23614">
        <ele>215.6</ele>
        <time>2022-03-06T08:37:15.000Z</time>
      </trkpt>
      <trkpt lat="43.30645" lon="2.23616">
        <ele>216</ele>
        <time>2022-03-06T08:37:16.000Z</time>
      </trkpt>
      <trkpt lat="43.30644" lon="2.23618">
        <ele>216.3</ele>
        <time>2022-03-06T08:37:17.000Z</time>
      </trkpt>
      <trkpt lat="43.30643" lon="2.2362">
        <ele>216.6</ele>
        <time>2022-03-06T08:37:18.000Z</time>
      </trkpt>
      <trkpt lat="43.30642" lon="2.23622">
        <ele>216.9</ele>
        <time>2022-03-06T08:37:19.000Z</time>
      </trkpt>
      <trkpt lat="43.3064" lon="2.23624">
        <ele>217.2</ele>
        <time>2022-03-06T08:37:20.000Z</time>
      </trkpt>
      <trkpt lat="43.3064" lon="2.23625">
        <ele>217.4</ele>
        <time>2022-03-06T08:37:21.000Z</time>
      </trkpt>
      <trkpt lat="43.30639" lon="2.23627">
        <ele>217.6</ele>
        <time>2022-03-06T08:37:22.000Z</time>
      </trkpt>
      <trkpt lat="43.30638" lon="2.23628">
        <ele>217.9</ele>
        <time>2022-03-06T08:37:23.000Z</time>
      </trkpt>
      <trkpt lat="43.30637" lon="2.23629">
        <ele>218</ele>
        <time>2022-03-06T08:37:24.000Z</time>
      </trkpt>
      <trkpt lat="43.30636" lon="2.23629">
        <ele>218.2</ele>
        <time>2022-03-06T08:37:25.000Z</time>
      </trkpt>
      <trkpt lat="43.30636" lon="2.23629">
        <ele>218.3</ele>
        <time>2022-03-06T08:37:26.000Z</time>
      </trkpt>
      <trkpt lat="43.30635" lon="2.23629">
        <ele>218.4</ele>
        <time>2022-03-06T08:37:27.000Z</time>
      </trkpt>
      <trkpt lat="43.30634" lon="2.23628">
        <ele>218.5</ele>
        <time>2022-03-06T08:37:28.000Z</time>
      </trkpt>
      <trkpt lat="43.30634" lon="2.23627">
        <ele>218.5</ele>
        <time>2022-03-06T08:37:29.000Z</time>
      </trkpt>
      <trkpt lat="43.30633" lon="2.23625">
        <ele>218.5</ele>
        <time>2022-03-06T08:37:30.000Z</time>
      </trkpt>
      <trkpt lat="43.30633" lon="2.23624">
        <ele>218.5</ele>
        <time>2022-03-06T08:37:31.000Z</time>
      </trkpt>
      <trkpt lat="43.30632" lon="2.23622">
        <ele>218.6</ele>
        <time>2022-03-06T08:37:32.000Z</time>
      </trkpt>
      <trkpt lat="43.30631" lon="2.2362">
        <ele>218.6</ele>
        <time>2022-03-06T08:37:33.000Z</time>
      </trkpt>
      <trkpt lat="43.30631" lon="2.23618">
        <ele>218.6</ele>
        <time>2022-03-06T08:37:34.000Z</time>
      </trkpt>
      <trkpt lat="43.3063" lon="2.23616">
        <ele>218.6</ele>
        <time>2022-03-06T08:37:35.000Z</time>
      </trkpt>
      <trkpt lat="43.30629" lon="2.23614">
        <ele>218.6</ele>
        <time>2022-03-06T08:37:36.000Z</time>
      </trkpt>
      <trkpt lat="43.30629" lon="2.23612">
        <ele>218.6</ele>
        <time>2022-03-06T08:37:37.000Z</time>
      </trkpt>
      <trkpt lat="43.30628" lon="2.2361">
        <ele>218.6</ele>
        <time>2022-03-06T08:37:38.000Z</time>
      </trkpt>
      <trkpt lat="43.30627" lon="2.23608">
        <ele>218.6</ele>
        <time>2022-03-06T08:37:39.000Z</time>
      </trkpt>
      <trkpt lat="43.30626" lon="2.23606">
        <ele>218.7</ele>
        <time>2022-03-06T08:37:40.000Z</time>
      </trkpt>
      <trkpt lat="43.30625" lon="2.23604">
        <ele>218.7</ele>
        <time>2022-03-06T08:37:41.000Z</time>
      </trkpt>
      <trkpt lat="43.30624" lon="2.23602">
        <ele>218.7</ele>
        <time>2022-03-06T08:37:42.000Z</time>
      </trkpt>
      <trkpt lat="43.30623" lon="2.236">
        <ele>218.8</ele>
        <time>2022-03-06T08:37:43.000Z</time>
      </trkpt>
      <trkpt lat="43.30622" lon="2.23598">
        <ele>218.8</ele>
        <time>2022-03-06T08:37:44.000Z</time>
      </trkpt>
      <trkpt lat="43.30622" lon="2.23596">
        <ele>218.8</ele>
        <time>2022-03-06T08:37:45.000Z</time>
      </trkpt>
      <trkpt lat="43.30621" lon="2.23594">
        <ele>218.9</ele>
        <time>2022-03-06T08:37:46.000Z</time>
      </trkpt>
      <trkpt lat="43.3062" lon="2.23592">
        <ele>218.9</ele>
        <time>2022-03-06T08:37:47.000Z</time>
      </trkpt>
      <trkpt lat="43.30619" lon="2.2359">
        <ele>218.9</ele>
        <time>2022-03-06T08:37:48.000Z</time>
      </trkpt>
      <trkpt lat="43.30618" lon="2.23588">
        <ele>218.9</ele>
        <time>2022-03-06T08:37:49.000Z</time>
      </trkpt>
      <trkpt lat="43.30617" lon="2.23586">
        <ele>218.9</ele>
        <time>2022-03-06T08:37:50.000Z</time>
      </trkpt>
      <trkpt lat="43.30616" lon="2.23584">
        <ele>218.9</ele>
        <time>2022-03-06T08:37:51.000Z</time>
      </trkpt>
      <trkpt lat="43.30615" lon="2.23582">
        <ele>219</ele>
        <time>2022-03-06T08:37:52.000Z</time>
      </trkpt>
      <trkpt lat="43.30615" lon="2.2358">
        <ele>219.1</ele>
        <time>2022-03-06T08:37:53.000Z</time>
      </trkpt>
      <trkpt lat="43.30614" lon="2.23577">
        <ele>219.1</ele>
        <time>2022-03-06T08:37:54.000Z</time>
      </trkpt>
      <trkpt lat="43.30613" lon="2.23575">
        <ele>219.2</ele>
        <time>2022-03-06T08:37:55.000Z</time>
      </trkpt>
      <trkpt lat="43.30612" lon="2.23573">
        <ele>219.3</ele>
        <time>2022-03-06T08:37:56.000Z</time>
      </trkpt>
      <trkpt lat="43.30612" lon="2.23571">
        <ele>219.4</ele>
        <time>2022-03-06T08:37:57.000Z</time>
      </trkpt>
      <trkpt lat="43.30611" lon="2.23569">
        <ele>219.5</ele>
        <time>2022-03-06T08:37:58.000Z</time>
      </trkpt>
      <trkpt lat="43.3061" lon="2.23566">
        <ele>219.6</ele>
        <time>2022-03-06T08:37:59.000Z</time>
      </trkpt>
      <trkpt lat="43.30609" lon="2.23564">
        <ele>219.7</ele>
        <time>2022-03-06T08:38:00.000Z</time>
      </trkpt>
      <trkpt lat="43.30609" lon="2.23562">
        <ele>219.8</ele>
        <time>2022-03-06T08:38:01.000Z</time>
      </trkpt>
      <trkpt lat="43.30608" lon="2.23559">
        <ele>219.9</ele>
        <time>2022-03-06T08:38:02.000Z</time>
      </trkpt>
      <trkpt lat="43.30607" lon="2.23557">
        <ele>219.9</ele>
        <time>2022-03-06T08:38:03.000Z</time>
      </trkpt>
      <trkpt lat="43.30606" lon="2.23555">
        <ele>220.1</ele>
        <time>2022-03-06T08:38:04.000Z</time>
      </trkpt>
      <trkpt lat="43.30605" lon="2.23552">
        <ele>220.2</ele>
        <time>2022-03-06T08:38:05.000Z</time>
      </trkpt>
      <trkpt lat="43.30605" lon="2.2355">
        <ele>220.3</ele>
        <time>2022-03-06T08:38:06.000Z</time>
      </trkpt>
      <trkpt lat="43.30604" lon="2.23548">
        <ele>220.4</ele>
        <time>2022-03-06T08:38:07.000Z</time>
      </trkpt>
      <trkpt lat="43.30603" lon="2.23546">
        <ele>220.5</ele>
        <time>2022-03-06T08:38:08.000Z</time>
      </trkpt>
      <trkpt lat="43.30602" lon="2.23544">
        <ele>220.7</ele>
        <time>2022-03-06T08:38:09.000Z</time>
      </trkpt>
      <trkpt lat="43.30601" lon="2.23542">
        <ele>220.8</ele>
        <time>2022-03-06T08:38:10.000Z</time>
      </trkpt>
      <trkpt lat="43.306" lon="2.23541">
        <ele>221</ele>
        <time>2022-03-06T08:38:11.000Z</time>
      </trkpt>
      <trkpt lat="43.30599" lon="2.23539">
        <ele>221.1</ele>
        <time>2022-03-06T08:38:12.000Z</time>
      </trkpt>
      <trkpt lat="43.30598" lon="2.23538">
        <ele>221.3</ele>
        <time>2022-03-06T08:38:13.000Z</time>
      </trkpt>
      <trkpt lat="43.30597" lon="2.23537">
        <ele>221.5</ele>
        <time>2022-03-06T08:38:14.000Z</time>
      </trkpt>
      <trkpt lat="43.30596" lon="2.23536">
        <ele>221.7</ele>
        <time>2022-03-06T08:38:15.000Z</time>
      </trkpt>
      <trkpt lat="43.30595" lon="2.23535">
        <ele>221.9</ele>
        <time>2022-03-06T08:38:16.000Z</time>
      </trkpt>
      <trkpt lat="43.30593" lon="2.23535">
        <ele>222.2</ele>
        <time>2022-03-06T08:38:17.000Z</time>
      </trkpt>
      <trkpt lat="43.30592" lon="2.23536">
        <ele>222.4</ele>
        <time>2022-03-06T08:38:18.000Z</time>
      </trkpt>
      <trkpt lat="43.3059" lon="2.23537">
        <ele>222.7</ele>
        <time>2022-03-06T08:38:19.000Z</time>
      </trkpt>
      <trkpt lat="43.30588" lon="2.23538">
        <ele>223.1</ele>
        <time>2022-03-06T08:38:20.000Z</time>
      </trkpt>
      <trkpt lat="43.30586" lon="2.23539">
        <ele>223.4</ele>
        <time>2022-03-06T08:38:21.000Z</time>
      </trkpt>
      <trkpt lat="43.30585" lon="2.23541">
        <ele>223.8</ele>
        <time>2022-03-06T08:38:22.000Z</time>
      </trkpt>
      <trkpt lat="43.30583" lon="2.23542">
        <ele>224.1</ele>
        <time>2022-03-06T08:38:23.000Z</time>
      </trkpt>
      <trkpt lat="43.30581" lon="2.23543">
        <ele>224.5</ele>
        <time>2022-03-06T08:38:24.000Z</time>
      </trkpt>
      <trkpt lat="43.30579" lon="2.23543">
        <ele>224.9</ele>
        <time>2022-03-06T08:38:25.000Z</time>
      </trkpt>
      <trkpt lat="43.30578" lon="2.23544">
        <ele>225.3</ele>
        <time>2022-03-06T08:38:26.000Z</time>
      </trkpt>
      <trkpt lat="43.30576" lon="2.23545">
        <ele>225.6</ele>
        <time>2022-03-06T08:38:27.000Z</time>
      </trkpt>
      <trkpt lat="43.30575" lon="2.23545">
        <ele>226</ele>
        <time>2022-03-06T08:38:28.000Z</time>
      </trkpt>
      <trkpt lat="43.30573" lon="2.23546">
        <ele>226.3</ele>
        <time>2022-03-06T08:38:29.000Z</time>
      </trkpt>
      <trkpt lat="43.30572" lon="2.23547">
        <ele>226.6</ele>
        <time>2022-03-06T08:38:30.000Z</time>
      </trkpt>
      <trkpt lat="43.3057" lon="2.23547">
        <ele>227</ele>
        <time>2022-03-06T08:38:31.000Z</time>
      </trkpt>
      <trkpt lat="43.30569" lon="2.23548">
        <ele>227.4</ele>
        <time>2022-03-06T08:38:32.000Z</time>
      </trkpt>
      <trkpt lat="43.30567" lon="2.23549">
        <ele>227.7</ele>
        <time>2022-03-06T08:38:33.000Z</time>
      </trkpt>
      <trkpt lat="43.30566" lon="2.2355">
        <ele>228.1</ele>
        <time>2022-03-06T08:38:34.000Z</time>
      </trkpt>
      <trkpt lat="43.30564" lon="2.2355">
        <ele>228.4</ele>
        <time>2022-03-06T08:38:35.000Z</time>
      </trkpt>
      <trkpt lat="43.30563" lon="2.23551">
        <ele>228.7</ele>
        <time>2022-03-06T08:38:36.000Z</time>
      </trkpt>
      <trkpt lat="43.30561" lon="2.23552">
        <ele>229.1</ele>
        <time>2022-03-06T08:38:37.000Z</time>
      </trkpt>
      <trkpt lat="43.3056" lon="2.23553">
        <ele>229.4</ele>
        <time>2022-03-06T08:38:38.000Z</time>
      </trkpt>
      <trkpt lat="43.30559" lon="2.23554">
        <ele>229.7</ele>
        <time>2022-03-06T08:38:39.000Z</time>
      </trkpt>
      <trkpt lat="43.30557" lon="2.23555">
        <ele>230.1</ele>
        <time>2022-03-06T08:38:40.000Z</time>
      </trkpt>
      <trkpt lat="43.30556" lon="2.23556">
        <ele>230.4</ele>
        <time>2022-03-06T08:38:41.000Z</time>
      </trkpt>
      <trkpt lat="43.30554" lon="2.23557">
        <ele>230.8</ele>
        <time>2022-03-06T08:38:42.000Z</time>
      </trkpt>
      <trkpt lat="43.30553" lon="2.23558">
        <ele>231.2</ele>
        <time>2022-03-06T08:38:43.000Z</time>
      </trkpt>
      <trkpt lat="43.30551" lon="2.2356">
        <ele>231.6</ele>
        <time>2022-03-06T08:38:44.000Z</time>
      </trkpt>
      <trkpt lat="43.30549" lon="2.23561">
        <ele>232</ele>
        <time>2022-03-06T08:38:45.000Z</time>
      </trkpt>
      <trkpt lat="43.30548" lon="2.23563">
        <ele>232.5</ele>
        <time>2022-03-06T08:38:46.000Z</time>
      </trkpt>
      <trkpt lat="43.30546" lon="2.23564">
        <ele>232.9</ele>
        <time>2022-03-06T08:38:47.000Z</time>
      </trkpt>
      <trkpt lat="43.30545" lon="2.23565">
        <ele>233.2</ele>
        <time>2022-03-06T08:38:48.000Z</time>
      </trkpt>
      <trkpt lat="43.30544" lon="2.23566">
        <ele>233.5</ele>
        <time>2022-03-06T08:38:49.000Z</time>
      </trkpt>
      <trkpt lat="43.30543" lon="2.23567">
        <ele>233.7</ele>
        <time>2022-03-06T08:38:50.000Z</time>
      </trkpt>
      <trkpt lat="43.30542" lon="2.23568">
        <ele>233.9</ele>
        <time>2022-03-06T08:38:51.000Z</time>
      </trkpt>
      <trkpt lat="43.30542" lon="2.23569">
        <ele>234</ele>
        <time>2022-03-06T08:38:52.000Z</time>
      </trkpt>
      <trkpt lat="43.30542" lon="2.23569">
        <ele>234.1</ele>
        <time>2022-03-06T08:38:53.000Z</time>
      </trkpt>
      <trkpt lat="43.30541" lon="2.2357">
        <ele>234.2</ele>
        <time>2022-03-06T08:38:54.000Z</time>
      </trkpt>
      <trkpt lat="43.30541" lon="2.2357">
        <ele>234.3</ele>
        <time>2022-03-06T08:38:55.000Z</time>
      </trkpt>
      <trkpt lat="43.30541" lon="2.23571">
        <ele>234.4</ele>
        <time>2022-03-06T08:38:56.000Z</time>
      </trkpt>
      <trkpt lat="43.3054" lon="2.23571">
        <ele>234.6</ele>
        <time>2022-03-06T08:38:57.000Z</time>
      </trkpt>
      <trkpt lat="43.30539" lon="2.23572">
        <ele>234.7</ele>
        <time>2022-03-06T08:38:58.000Z</time>
      </trkpt>
      <trkpt lat="43.30539" lon="2.23572">
        <ele>234.9</ele>
        <time>2022-03-06T08:38:59.000Z</time>
      </trkpt>
      <trkpt lat="43.30538" lon="2.23573">
        <ele>235.1</ele>
        <time>2022-03-06T08:39:00.000Z</time>
      </trkpt>
      <trkpt lat="43.30537" lon="2.23574">
        <ele>235.3</ele>
        <time>2022-03-06T08:39:01.000Z</time>
      </trkpt>
      <trkpt lat="43.30536" lon="2.23575">
        <ele>235.5</ele>
        <time>2022-03-06T08:39:02.000Z</time>
      </trkpt>
      <trkpt lat="43.30536" lon="2.23576">
        <ele>235.8</ele>
        <time>2022-03-06T08:39:03.000Z</time>
      </trkpt>
      <trkpt lat="43.30535" lon="2.23576">
        <ele>236</ele>
        <time>2022-03-06T08:39:04.000Z</time>
      </trkpt>
      <trkpt lat="43.30534" lon="2.23577">
        <ele>236.2</ele>
        <time>2022-03-06T08:39:05.000Z</time>
      </trkpt>
      <trkpt lat="43.30534" lon="2.23577">
        <ele>236.3</ele>
        <time>2022-03-06T08:39:06.000Z</time>
      </trkpt>
      <trkpt lat="43.30533" lon="2.23577">
        <ele>236.4</ele>
        <time>2022-03-06T08:39:07.000Z</time>
      </trkpt>
      <trkpt lat="43.30533" lon="2.23578">
        <ele>236.4</ele>
        <time>2022-03-06T08:39:08.000Z</time>
      </trkpt>
      <trkpt lat="43.30533" lon="2.23578">
        <ele>236.5</ele>
        <time>2022-03-06T08:39:09.000Z</time>
      </trkpt>
      <trkpt lat="43.30533" lon="2.23578">
        <ele>236.5</ele>
        <time>2022-03-06T08:39:10.000Z</time>
      </trkpt>
      <trkpt lat="43.30533" lon="2.23577">
        <ele>236.5</ele>
        <time>2022-03-06T08:39:11.000Z</time>
      </trkpt>
      <trkpt lat="43.30533" lon="2.23577">
        <ele>236.5</ele>
        <time>2022-03-06T08:39:12.000Z</time>
      </trkpt>
      <trkpt lat="43.30533" lon="2.23577">
        <ele>236.5</ele>
        <time>2022-03-06T08:39:13.000Z</time>
      </trkpt>
      <trkpt lat="43.30533" lon="2.23577">
        <ele>236.5</ele>
        <time>2022-03-06T08:39:14.000Z</time>
      </trkpt>
      <trkpt lat="43.30533" lon="2.23577">
        <ele>236.5</ele>
        <time>2022-03-06T08:39:15.000Z</time>
      </trkpt>
      <trkpt lat="43.30533" lon="2.23577">
        <ele>236.5</ele>
        <time>2022-03-06T08:39:16.000Z</time>
      </trkpt>
      <trkpt lat="43.30533" lon="2.23577">
        <ele>236.5</ele>
        <time>2022-03-06T08:39:17.000Z</time>
      </trkpt>
      <trkpt lat="43.30533" lon="2.23577">
        <ele>236.5</ele>
        <time>2022-03-06T08:39:18.000Z</time>
      </trkpt>
      <trkpt lat="43.30533" lon="2.23577">
        <ele>236.5</ele>
        <time>2022-03-06T08:39:19.000Z</time>
      </trkpt>
      <trkpt lat="43.30533" lon="2.23577">
        <ele>236.5</ele>
        <time>2022-03-06T08:39:20.000Z</time>
      </trkpt>
      <trkpt lat="43.30533" lon="2.23577">
        <ele>236.6</ele>
        <time>2022-03-06T08:39:21.000Z</time>
      </trkpt>
      <trkpt lat="43.30533" lon="2.23577">
        <ele>236.6</ele>
        <time>2022-03-06T08:39:22.000Z</time>
      </trkpt>
      <trkpt lat="43.30533" lon="2.23577">
        <ele>236.6</ele>
        <time>2022-03-06T08:39:23.000Z</time>
      </trkpt>
      <trkpt lat="43.30533" lon="2.23577">
        <ele>236.6</ele>
        <time>2022-03-06T08:39:24.000Z</time>
      </trkpt>
      <trkpt lat="43.30533" lon="2.23577">
        <ele>236.6</ele>
        <time>2022-03-06T08:39:25.000Z</time>
      </trkpt>
      <trkpt lat="43.30533" lon="2.23577">
        <ele>236.6</ele>
        <time>2022-03-06T08:39:26.000Z</time>
      </trkpt>
      <trkpt lat="43.30533" lon="2.23577">
        <ele>236.6</ele>
        <time>2022-03-06T08:39:27.000Z</time>
      </trkpt>
      <trkpt lat="43.30533" lon="2.23577">
        <ele>236.6</ele>
        <time>2022-03-06T08:39:28.000Z</time>
      </trkpt>
      <trkpt lat="43.30533" lon="2.23577">
        <ele>236.6</ele>
        <time>2022-03-06T08:39:29.000Z</time>
      </trkpt>
      <trkpt lat="43.30533" lon="2.23577">
        <ele>236.6</ele>
        <time>2022-03-06T08:39:30.000Z</time>
      </trkpt>
      <trkpt lat="43.30533" lon="2.23577">
        <ele>236.6</ele>
        <time>2022-03-06T08:39:31.000Z</time>
      </trkpt>
      <trkpt lat="43.30533" lon="2.23577">
        <ele>236.6</ele>
        <time>2022-03-06T08:39:32.000Z</time>
      </trkpt>
      <trkpt lat="43.30533" lon="2.23578">
        <ele>236.6</ele>
        <time>2022-03-06T08:39:33.000Z</time>
      </trkpt>
      <trkpt lat="43.30533" lon="2.23578">
        <ele>236.6</ele>
        <time>2022-03-06T08:39:34.000Z</time>
      </trkpt>
      <trkpt lat="43.30533" lon="2.23578">
        <ele>236.6</ele>
        <time>2022-03-06T08:39:35.000Z</time>
      </trkpt>
      <trkpt lat="43.30533" lon="2.23578">
        <ele>236.6</ele>
        <time>2022-03-06T08:39:36.000Z</time>
      </trkpt>
      <trkpt lat="43.30533" lon="2.23578">
        <ele>236.5</ele>
        <time>2022-03-06T08:39:37.000Z</time>
      </trkpt>
      <trkpt lat="43.30533" lon="2.23578">
        <ele>236.5</ele>
        <time>2022-03-06T08:39:38.000Z</time>
      </trkpt>
      <trkpt lat="43.30533" lon="2.23578">
        <ele>236.5</ele>
        <time>2022-03-06T08:39:39.000Z</time>
      </trkpt>
      <trkpt lat="43.30533" lon="2.23578">
        <ele>236.5</ele>
        <time>2022-03-06T08:39:40.000Z</time>
      </trkpt>
      <trkpt lat="43.30533" lon="2.23578">
        <ele>236.5</ele>
        <time>2022-03-06T08:39:41.000Z</time>
      </trkpt>
      <trkpt lat="43.30533" lon="2.23578">
        <ele>236.5</ele>
        <time>2022-03-06T08:39:42.000Z</time>
      </trkpt>
      <trkpt lat="43.30533" lon="2.23578">
        <ele>236.5</ele>
        <time>2022-03-06T08:39:43.000Z</time>
      </trkpt>
      <trkpt lat="43.30533" lon="2.23578">
        <ele>236.5</ele>
        <time>2022-03-06T08:39:44.000Z</time>
      </trkpt>
      <trkpt lat="43.30533" lon="2.23578">
        <ele>236.5</ele>
        <time>2022-03-06T08:39:45.000Z</time>
      </trkpt>
      <trkpt lat="43.30533" lon="2.23579">
        <ele>236.5</ele>
        <time>2022-03-06T08:39:46.000Z</time>
      </trkpt>
      <trkpt lat="43.30533" lon="2.23579">
        <ele>236.5</ele>
        <time>2022-03-06T08:39:47.000Z</time>
      </trkpt>
      <trkpt lat="43.30533" lon="2.23579">
        <ele>236.5</ele>
        <time>2022-03-06T08:39:48.000Z</time>
      </trkpt>
      <trkpt lat="43.30533" lon="2.23579">
        <ele>236.5</ele>
        <time>2022-03-06T08:39:49.000Z</time>
      </trkpt>
      <trkpt lat="43.30533" lon="2.23579">
        <ele>236.5</ele>
        <time>2022-03-06T08:39:50.000Z</time>
      </trkpt>
      <trkpt lat="43.30533" lon="2.23579">
        <ele>236.5</ele>
        <time>2022-03-06T08:39:51.000Z</time>
      </trkpt>
      <trkpt lat="43.30533" lon="2.23579">
        <ele>236.5</ele>
        <time>2022-03-06T08:39:52.000Z</time>
      </trkpt>
      <trkpt lat="43.30533" lon="2.23579">
        <ele>236.5</ele>
        <time>2022-03-06T08:39:53.000Z</time>
      </trkpt>
      <trkpt lat="43.30533" lon="2.23579">
        <ele>236.5</ele>
        <time>2022-03-06T08:39:54.000Z</time>
      </trkpt>
      <trkpt lat="43.30533" lon="2.23579">
        <ele>236.5</ele>
        <time>2022-03-06T08:39:55.000Z</time>
      </trkpt>
      <trkpt lat="43.30533" lon="2.23579">
        <ele>236.5</ele>
        <time>2022-03-06T08:39:56.000Z</time>
      </trkpt>
      <trkpt lat="43.30533" lon="2.23579">
        <ele>236.5</ele>
        <time>2022-03-06T08:39:57.000Z</time>
      </trkpt>
      <trkpt lat="43.30533" lon="2.23579">
        <ele>236.5</ele>
        <time>2022-03-06T08:39:58.000Z</time>
      </trkpt>
      <trkpt lat="43.30533" lon="2.23579">
        <ele>236.4</ele>
        <time>2022-03-06T08:39:59.000Z</time>
      </trkpt>
      <trkpt lat="43.30533" lon="2.23579">
        <ele>236.4</ele>
        <time>2022-03-06T08:40:00.000Z</time>
      </trkpt>
      <trkpt lat="43.30533" lon="2.23579">
        <ele>236.4</ele>
        <time>2022-03-06T08:40:01.000Z</time>
      </trkpt>
      <trkpt lat="43.30534" lon="2.23579">
        <ele>236.4</ele>
        <time>2022-03-06T08:40:02.000Z</time>
      </trkpt>
      <trkpt lat="43.30534" lon="2.23579">
        <ele>236.4</ele>
        <time>2022-03-06T08:40:03.000Z</time>
      </trkpt>
      <trkpt lat="43.30533" lon="2.23579">
        <ele>236.4</ele>
        <time>2022-03-06T08:40:04.000Z</time>
      </trkpt>
      <trkpt lat="43.30533" lon="2.23579">
        <ele>236.5</ele>
        <time>2022-03-06T08:40:05.000Z</time>
      </trkpt>
      <trkpt lat="43.30533" lon="2.23579">
        <ele>236.5</ele>
        <time>2022-03-06T08:40:06.000Z</time>
      </trkpt>
      <trkpt lat="43.30533" lon="2.23579">
        <ele>236.5</ele>
        <time>2022-03-06T08:40:07.000Z</time>
      </trkpt>
      <trkpt lat="43.30533" lon="2.23579">
        <ele>236.5</ele>
        <time>2022-03-06T08:40:08.000Z</time>
      </trkpt>
      <trkpt lat="43.30533" lon="2.23579">
        <ele>236.5</ele>
        <time>2022-03-06T08:40:09.000Z</time>
      </trkpt>
      <trkpt lat="43.30533" lon="2.23579">
        <ele>236.5</ele>
        <time>2022-03-06T08:40:10.000Z</time>
      </trkpt>
      <trkpt lat="43.30533" lon="2.23579">
        <ele>236.5</ele>
        <time>2022-03-06T08:40:11.000Z</time>
      </trkpt>
      <trkpt lat="43.30533" lon="2.23579">
        <ele>236.5</ele>
        <time>2022-03-06T08:40:12.000Z</time>
      </trkpt>
      <trkpt lat="43.30533" lon="2.23579">
        <ele>236.5</ele>
        <time>2022-03-06T08:40:13.000Z</time>
      </trkpt>
      <trkpt lat="43.30533" lon="2.23579">
        <ele>236.5</ele>
        <time>2022-03-06T08:40:14.000Z</time>
      </trkpt>
      <trkpt lat="43.30533" lon="2.23579">
        <ele>236.5</ele>
        <time>2022-03-06T08:40:15.000Z</time>
      </trkpt>
      <trkpt lat="43.30533" lon="2.23579">
        <ele>236.5</ele>
        <time>2022-03-06T08:40:16.000Z</time>
      </trkpt>
      <trkpt lat="43.30533" lon="2.23579">
        <ele>236.5</ele>
        <time>2022-03-06T08:40:17.000Z</time>
      </trkpt>
      <trkpt lat="43.30533" lon="2.23578">
        <ele>236.5</ele>
        <time>2022-03-06T08:40:18.000Z</time>
      </trkpt>
      <trkpt lat="43.30533" lon="2.23578">
        <ele>236.5</ele>
        <time>2022-03-06T08:40:19.000Z</time>
      </trkpt>
      <trkpt lat="43.30533" lon="2.23578">
        <ele>236.5</ele>
        <time>2022-03-06T08:40:20.000Z</time>
      </trkpt>
      <trkpt lat="43.30533" lon="2.23578">
        <ele>236.6</ele>
        <time>2022-03-06T08:40:21.000Z</time>
      </trkpt>
      <trkpt lat="43.30533" lon="2.23578">
        <ele>236.6</ele>
        <time>2022-03-06T08:40:22.000Z</time>
      </trkpt>
      <trkpt lat="43.30532" lon="2.23577">
        <ele>236.6</ele>
        <time>2022-03-06T08:40:23.000Z</time>
      </trkpt>
      <trkpt lat="43.30532" lon="2.23577">
        <ele>236.6</ele>
        <time>2022-03-06T08:40:24.000Z</time>
      </trkpt>
      <trkpt lat="43.30532" lon="2.23576">
        <ele>236.6</ele>
        <time>2022-03-06T08:40:25.000Z</time>
      </trkpt>
      <trkpt lat="43.30532" lon="2.23576">
        <ele>236.7</ele>
        <time>2022-03-06T08:40:26.000Z</time>
      </trkpt>
      <trkpt lat="43.30532" lon="2.23576">
        <ele>236.7</ele>
        <time>2022-03-06T08:40:27.000Z</time>
      </trkpt>
      <trkpt lat="43.30532" lon="2.23575">
        <ele>236.7</ele>
        <time>2022-03-06T08:40:28.000Z</time>
      </trkpt>
      <trkpt lat="43.30532" lon="2.23575">
        <ele>236.7</ele>
        <time>2022-03-06T08:40:29.000Z</time>
      </trkpt>
      <trkpt lat="43.30532" lon="2.23575">
        <ele>236.6</ele>
        <time>2022-03-06T08:40:30.000Z</time>
      </trkpt>
      <trkpt lat="43.30532" lon="2.23575">
        <ele>236.6</ele>
        <time>2022-03-06T08:40:31.000Z</time>
      </trkpt>
      <trkpt lat="43.30532" lon="2.23575">
        <ele>236.6</ele>
        <time>2022-03-06T08:40:32.000Z</time>
      </trkpt>
      <trkpt lat="43.30532" lon="2.23575">
        <ele>236.6</ele>
        <time>2022-03-06T08:40:33.000Z</time>
      </trkpt>
      <trkpt lat="43.30532" lon="2.23575">
        <ele>236.6</ele>
        <time>2022-03-06T08:40:34.000Z</time>
      </trkpt>
      <trkpt lat="43.30532" lon="2.23575">
        <ele>236.7</ele>
        <time>2022-03-06T08:40:35.000Z</time>
      </trkpt>
      <trkpt lat="43.30531" lon="2.23575">
        <ele>236.8</ele>
        <time>2022-03-06T08:40:36.000Z</time>
      </trkpt>
      <trkpt lat="43.30531" lon="2.23575">
        <ele>236.9</ele>
        <time>2022-03-06T08:40:37.000Z</time>
      </trkpt>
      <trkpt lat="43.3053" lon="2.23576">
        <ele>237.1</ele>
        <time>2022-03-06T08:40:38.000Z</time>
      </trkpt>
      <trkpt lat="43.3053" lon="2.23576">
        <ele>237.2</ele>
        <time>2022-03-06T08:40:39.000Z</time>
      </trkpt>
      <trkpt lat="43.3053" lon="2.23577">
        <ele>237.3</ele>
        <time>2022-03-06T08:40:40.000Z</time>
      </trkpt>
      <trkpt lat="43.30529" lon="2.23577">
        <ele>237.3</ele>
        <time>2022-03-06T08:40:41.000Z</time>
      </trkpt>
      <trkpt lat="43.30529" lon="2.23577">
        <ele>237.3</ele>
        <time>2022-03-06T08:40:42.000Z</time>
      </trkpt>
      <trkpt lat="43.30529" lon="2.23577">
        <ele>237.3</ele>
        <time>2022-03-06T08:40:43.000Z</time>
      </trkpt>
      <trkpt lat="43.30529" lon="2.23577">
        <ele>237.3</ele>
        <time>2022-03-06T08:40:44.000Z</time>
      </trkpt>
      <trkpt lat="43.30529" lon="2.23576">
        <ele>237.4</ele>
        <time>2022-03-06T08:40:45.000Z</time>
      </trkpt>
      <trkpt lat="43.30529" lon="2.23575">
        <ele>237.4</ele>
        <time>2022-03-06T08:40:46.000Z</time>
      </trkpt>
      <trkpt lat="43.30529" lon="2.23574">
        <ele>237.4</ele>
        <time>2022-03-06T08:40:47.000Z</time>
      </trkpt>
      <trkpt lat="43.30528" lon="2.23573">
        <ele>237.5</ele>
        <time>2022-03-06T08:40:48.000Z</time>
      </trkpt>
      <trkpt lat="43.30528" lon="2.23572">
        <ele>237.6</ele>
        <time>2022-03-06T08:40:49.000Z</time>
      </trkpt>
      <trkpt lat="43.30527" lon="2.2357">
        <ele>237.7</ele>
        <time>2022-03-06T08:40:50.000Z</time>
      </trkpt>
      <trkpt lat="43.30526" lon="2.23569">
        <ele>237.8</ele>
        <time>2022-03-06T08:40:51.000Z</time>
      </trkpt>
      <trkpt lat="43.30525" lon="2.23567">
        <ele>238</ele>
        <time>2022-03-06T08:40:52.000Z</time>
      </trkpt>
      <trkpt lat="43.30524" lon="2.23565">
        <ele>238.1</ele>
        <time>2022-03-06T08:40:53.000Z</time>
      </trkpt>
      <trkpt lat="43.30523" lon="2.23563">
        <ele>238.3</ele>
        <time>2022-03-06T08:40:54.000Z</time>
      </trkpt>
      <trkpt lat="43.30522" lon="2.23561">
        <ele>238.4</ele>
        <time>2022-03-06T08:40:55.000Z</time>
      </trkpt>
      <trkpt lat="43.30521" lon="2.23559">
        <ele>238.6</ele>
        <time>2022-03-06T08:40:56.000Z</time>
      </trkpt>
      <trkpt lat="43.3052" lon="2.23557">
        <ele>238.7</ele>
        <time>2022-03-06T08:40:57.000Z</time>
      </trkpt>
      <trkpt lat="43.30519" lon="2.23554">
        <ele>238.8</ele>
        <time>2022-03-06T08:40:58.000Z</time>
      </trkpt>
      <trkpt lat="43.30518" lon="2.23552">
        <ele>239</ele>
        <time>2022-03-06T08:40:59.000Z</time>
      </trkpt>
      <trkpt lat="43.30517" lon="2.2355">
        <ele>239.1</ele>
        <time>2022-03-06T08:41:00.000Z</time>
      </trkpt>
      <trkpt lat="43.30516" lon="2.23548">
        <ele>239.2</ele>
        <time>2022-03-06T08:41:01.000Z</time>
      </trkpt>
      <trkpt lat="43.30515" lon="2.23546">
        <ele>239.4</ele>
        <time>2022-03-06T08:41:02.000Z</time>
      </trkpt>
      <trkpt lat="43.30514" lon="2.23544">
        <ele>239.5</ele>
        <time>2022-03-06T08:41:03.000Z</time>
      </trkpt>
      <trkpt lat="43.30513" lon="2.23541">
        <ele>239.7</ele>
        <time>2022-03-06T08:41:04.000Z</time>
      </trkpt>
      <trkpt lat="43.30511" lon="2.23539">
        <ele>239.8</ele>
        <time>2022-03-06T08:41:05.000Z</time>
      </trkpt>
      <trkpt lat="43.3051" lon="2.23537">
        <ele>240</ele>
        <time>2022-03-06T08:41:06.000Z</time>
      </trkpt>
      <trkpt lat="43.30509" lon="2.23535">
        <ele>240.2</ele>
        <time>2022-03-06T08:41:07.000Z</time>
      </trkpt>
      <trkpt lat="43.30507" lon="2.23533">
        <ele>240.4</ele>
        <time>2022-03-06T08:41:08.000Z</time>
      </trkpt>
      <trkpt lat="43.30506" lon="2.2353">
        <ele>240.6</ele>
        <time>2022-03-06T08:41:09.000Z</time>
      </trkpt>
      <trkpt lat="43.30505" lon="2.23528">
        <ele>240.7</ele>
        <time>2022-03-06T08:41:10.000Z</time>
      </trkpt>
      <trkpt lat="43.30504" lon="2.23526">
        <ele>240.8</ele>
        <time>2022-03-06T08:41:11.000Z</time>
      </trkpt>
      <trkpt lat="43.30503" lon="2.23524">
        <ele>240.9</ele>
        <time>2022-03-06T08:41:12.000Z</time>
      </trkpt>
      <trkpt lat="43.30502" lon="2.23522">
        <ele>240.9</ele>
        <time>2022-03-06T08:41:13.000Z</time>
      </trkpt>
      <trkpt lat="43.30502" lon="2.2352">
        <ele>240.8</ele>
        <time>2022-03-06T08:41:14.000Z</time>
      </trkpt>
      <trkpt lat="43.30502" lon="2.23519">
        <ele>240.8</ele>
        <time>2022-03-06T08:41:15.000Z</time>
      </trkpt>
      <trkpt lat="43.30502" lon="2.23517">
        <ele>240.7</ele>
        <time>2022-03-06T08:41:16.000Z</time>
      </trkpt>
      <trkpt lat="43.30502" lon="2.23515">
        <ele>240.5</ele>
        <time>2022-03-06T08:41:17.000Z</time>
      </trkpt>
      <trkpt lat="43.30502" lon="2.23513">
        <ele>240.3</ele>
        <time>2022-03-06T08:41:18.000Z</time>
      </trkpt>
      <trkpt lat="43.30502" lon="2.2351">
        <ele>240.2</ele>
        <time>2022-03-06T08:41:19.000Z</time>
      </trkpt>
      <trkpt lat="43.30503" lon="2.23508">
        <ele>239.9</ele>
        <time>2022-03-06T08:41:20.000Z</time>
      </trkpt>
      <trkpt lat="43.30503" lon="2.23505">
        <ele>239.7</ele>
        <time>2022-03-06T08:41:21.000Z</time>
      </trkpt>
      <trkpt lat="43.30504" lon="2.23502">
        <ele>239.4</ele>
        <time>2022-03-06T08:41:22.000Z</time>
      </trkpt>
      <trkpt lat="43.30504" lon="2.23499">
        <ele>239.2</ele>
        <time>2022-03-06T08:41:23.000Z</time>
      </trkpt>
      <trkpt lat="43.30505" lon="2.23496">
        <ele>239.3</ele>
        <time>2022-03-06T08:41:24.000Z</time>
      </trkpt>
      <trkpt lat="43.30505" lon="2.23493">
        <ele>239.3</ele>
        <time>2022-03-06T08:41:25.000Z</time>
      </trkpt>
      <trkpt lat="43.30506" lon="2.2349">
        <ele>239.4</ele>
        <time>2022-03-06T08:41:26.000Z</time>
      </trkpt>
      <trkpt lat="43.30506" lon="2.23487">
        <ele>239.5</ele>
        <time>2022-03-06T08:41:27.000Z</time>
      </trkpt>
      <trkpt lat="43.30506" lon="2.23484">
        <ele>239.5</ele>
        <time>2022-03-06T08:41:28.000Z</time>
      </trkpt>
      <trkpt lat="43.30506" lon="2.23481">
        <ele>239.6</ele>
        <time>2022-03-06T08:41:29.000Z</time>
      </trkpt>
      <trkpt lat="43.30507" lon="2.23478">
        <ele>239.7</ele>
        <time>2022-03-06T08:41:30.000Z</time>
      </trkpt>
      <trkpt lat="43.30507" lon="2.23475">
        <ele>239.8</ele>
        <time>2022-03-06T08:41:31.000Z</time>
      </trkpt>
      <trkpt lat="43.30507" lon="2.23472">
        <ele>239.8</ele>
        <time>2022-03-06T08:41:32.000Z</time>
      </trkpt>
      <trkpt lat="43.30508" lon="2.2347">
        <ele>239.9</ele>
        <time>2022-03-06T08:41:33.000Z</time>
      </trkpt>
      <trkpt lat="43.30508" lon="2.23467">
        <ele>240</ele>
        <time>2022-03-06T08:41:34.000Z</time>
      </trkpt>
      <trkpt lat="43.30508" lon="2.23464">
        <ele>240</ele>
        <time>2022-03-06T08:41:35.000Z</time>
      </trkpt>
      <trkpt lat="43.30509" lon="2.23461">
        <ele>240</ele>
        <time>2022-03-06T08:41:36.000Z</time>
      </trkpt>
      <trkpt lat="43.30509" lon="2.23458">
        <ele>240.1</ele>
        <time>2022-03-06T08:41:37.000Z</time>
      </trkpt>
      <trkpt lat="43.30509" lon="2.23456">
        <ele>240.1</ele>
        <time>2022-03-06T08:41:38.000Z</time>
      </trkpt>
      <trkpt lat="43.3051" lon="2.23453">
        <ele>240.1</ele>
        <time>2022-03-06T08:41:39.000Z</time>
      </trkpt>
      <trkpt lat="43.3051" lon="2.2345">
        <ele>240.1</ele>
        <time>2022-03-06T08:41:40.000Z</time>
      </trkpt>
      <trkpt lat="43.30511" lon="2.23447">
        <ele>240.2</ele>
        <time>2022-03-06T08:41:41.000Z</time>
      </trkpt>
      <trkpt lat="43.30511" lon="2.23444">
        <ele>240.2</ele>
        <time>2022-03-06T08:41:42.000Z</time>
      </trkpt>
      <trkpt lat="43.30512" lon="2.23441">
        <ele>240.2</ele>
        <time>2022-03-06T08:41:43.000Z</time>
      </trkpt>
      <trkpt lat="43.30512" lon="2.23439">
        <ele>240.2</ele>
        <time>2022-03-06T08:41:44.000Z</time>
      </trkpt>
      <trkpt lat="43.30512" lon="2.23436">
        <ele>240.3</ele>
        <time>2022-03-06T08:41:45.000Z</time>
      </trkpt>
      <trkpt lat="43.30513" lon="2.23433">
        <ele>240.3</ele>
        <time>2022-03-06T08:41:46.000Z</time>
      </trkpt>
      <trkpt lat="43.30513" lon="2.2343">
        <ele>240.4</ele>
        <time>2022-03-06T08:41:47.000Z</time>
      </trkpt>
      <trkpt lat="43.30513" lon="2.23427">
        <ele>240.4</ele>
        <time>2022-03-06T08:41:48.000Z</time>
      </trkpt>
      <trkpt lat="43.30514" lon="2.23424">
        <ele>240.5</ele>
        <time>2022-03-06T08:41:49.000Z</time>
      </trkpt>
      <trkpt lat="43.30514" lon="2.23421">
        <ele>240.5</ele>
        <time>2022-03-06T08:41:50.000Z</time>
      </trkpt>
      <trkpt lat="43.30514" lon="2.23418">
        <ele>240.6</ele>
        <time>2022-03-06T08:41:51.000Z</time>
      </trkpt>
      <trkpt lat="43.30514" lon="2.23415">
        <ele>240.6</ele>
        <time>2022-03-06T08:41:52.000Z</time>
      </trkpt>
      <trkpt lat="43.30515" lon="2.23412">
        <ele>240.6</ele>
        <time>2022-03-06T08:41:53.000Z</time>
      </trkpt>
      <trkpt lat="43.30515" lon="2.23409">
        <ele>240.6</ele>
        <time>2022-03-06T08:41:54.000Z</time>
      </trkpt>
      <trkpt lat="43.30515" lon="2.23406">
        <ele>240.6</ele>
        <time>2022-03-06T08:41:55.000Z</time>
      </trkpt>
      <trkpt lat="43.30516" lon="2.23403">
        <ele>240.7</ele>
        <time>2022-03-06T08:41:56.000Z</time>
      </trkpt>
      <trkpt lat="43.30516" lon="2.234">
        <ele>240.6</ele>
        <time>2022-03-06T08:41:57.000Z</time>
      </trkpt>
      <trkpt lat="43.30517" lon="2.23397">
        <ele>240.6</ele>
        <time>2022-03-06T08:41:58.000Z</time>
      </trkpt>
      <trkpt lat="43.30518" lon="2.23394">
        <ele>240.6</ele>
        <time>2022-03-06T08:41:59.000Z</time>
      </trkpt>
      <trkpt lat="43.30518" lon="2.23391">
        <ele>240.5</ele>
        <time>2022-03-06T08:42:00.000Z</time>
      </trkpt>
      <trkpt lat="43.30519" lon="2.23388">
        <ele>240.4</ele>
        <time>2022-03-06T08:42:01.000Z</time>
      </trkpt>
      <trkpt lat="43.3052" lon="2.23384">
        <ele>240.3</ele>
        <time>2022-03-06T08:42:02.000Z</time>
      </trkpt>
      <trkpt lat="43.30522" lon="2.23381">
        <ele>240.1</ele>
        <time>2022-03-06T08:42:03.000Z</time>
      </trkpt>
      <trkpt lat="43.30523" lon="2.23377">
        <ele>240</ele>
        <time>2022-03-06T08:42:04.000Z</time>
      </trkpt>
      <trkpt lat="43.30524" lon="2.23374">
        <ele>239.9</ele>
        <time>2022-03-06T08:42:05.000Z</time>
      </trkpt>
      <trkpt lat="43.30525" lon="2.23371">
        <ele>239.8</ele>
        <time>2022-03-06T08:42:06.000Z</time>
      </trkpt>
      <trkpt lat="43.30526" lon="2.23367">
        <ele>239.7</ele>
        <time>2022-03-06T08:42:07.000Z</time>
      </trkpt>
      <trkpt lat="43.30526" lon="2.23364">
        <ele>239.8</ele>
        <time>2022-03-06T08:42:08.000Z</time>
      </trkpt>
      <trkpt lat="43.30527" lon="2.23361">
        <ele>239.8</ele>
        <time>2022-03-06T08:42:09.000Z</time>
      </trkpt>
      <trkpt lat="43.30526" lon="2.23358">
        <ele>240</ele>
        <time>2022-03-06T08:42:10.000Z</time>
      </trkpt>
      <trkpt lat="43.30526" lon="2.23355">
        <ele>240.1</ele>
        <time>2022-03-06T08:42:11.000Z</time>
      </trkpt>
      <trkpt lat="43.30526" lon="2.23353">
        <ele>240.3</ele>
        <time>2022-03-06T08:42:12.000Z</time>
      </trkpt>
      <trkpt lat="43.30525" lon="2.2335">
        <ele>240.5</ele>
        <time>2022-03-06T08:42:13.000Z</time>
      </trkpt>
      <trkpt lat="43.30525" lon="2.23347">
        <ele>240.7</ele>
        <time>2022-03-06T08:42:14.000Z</time>
      </trkpt>
      <trkpt lat="43.30524" lon="2.23345">
        <ele>240.9</ele>
        <time>2022-03-06T08:42:15.000Z</time>
      </trkpt>
      <trkpt lat="43.30524" lon="2.23342">
        <ele>241.1</ele>
        <time>2022-03-06T08:42:16.000Z</time>
      </trkpt>
      <trkpt lat="43.30524" lon="2.2334">
        <ele>241.2</ele>
        <time>2022-03-06T08:42:17.000Z</time>
      </trkpt>
      <trkpt lat="43.30523" lon="2.23337">
        <ele>241.4</ele>
        <time>2022-03-06T08:42:18.000Z</time>
      </trkpt>
      <trkpt lat="43.30523" lon="2.23335">
        <ele>241.5</ele>
        <time>2022-03-06T08:42:19.000Z</time>
      </trkpt>
      <trkpt lat="43.30523" lon="2.23332">
        <ele>241.6</ele>
        <time>2022-03-06T08:42:20.000Z</time>
      </trkpt>
      <trkpt lat="43.30523" lon="2.2333">
        <ele>241.5</ele>
        <time>2022-03-06T08:42:21.000Z</time>
      </trkpt>
      <trkpt lat="43.30523" lon="2.23327">
        <ele>241.5</ele>
        <time>2022-03-06T08:42:22.000Z</time>
      </trkpt>
      <trkpt lat="43.30523" lon="2.23325">
        <ele>241.5</ele>
        <time>2022-03-06T08:42:23.000Z</time>
      </trkpt>
      <trkpt lat="43.30522" lon="2.23322">
        <ele>241.5</ele>
        <time>2022-03-06T08:42:24.000Z</time>
      </trkpt>
      <trkpt lat="43.30522" lon="2.2332">
        <ele>241.5</ele>
        <time>2022-03-06T08:42:25.000Z</time>
      </trkpt>
      <trkpt lat="43.30522" lon="2.23318">
        <ele>241.5</ele>
        <time>2022-03-06T08:42:26.000Z</time>
      </trkpt>
      <trkpt lat="43.30522" lon="2.23316">
        <ele>241.5</ele>
        <time>2022-03-06T08:42:27.000Z</time>
      </trkpt>
      <trkpt lat="43.30522" lon="2.23314">
        <ele>241.5</ele>
        <time>2022-03-06T08:42:28.000Z</time>
      </trkpt>
      <trkpt lat="43.30521" lon="2.23312">
        <ele>241.5</ele>
        <time>2022-03-06T08:42:29.000Z</time>
      </trkpt>
      <trkpt lat="43.30521" lon="2.2331">
        <ele>241.5</ele>
        <time>2022-03-06T08:42:30.000Z</time>
      </trkpt>
      <trkpt lat="43.30521" lon="2.23308">
        <ele>241.5</ele>
        <time>2022-03-06T08:42:31.000Z</time>
      </trkpt>
      <trkpt lat="43.30521" lon="2.23306">
        <ele>241.4</ele>
        <time>2022-03-06T08:42:32.000Z</time>
      </trkpt>
      <trkpt lat="43.30521" lon="2.23304">
        <ele>241.4</ele>
        <time>2022-03-06T08:42:33.000Z</time>
      </trkpt>
      <trkpt lat="43.30521" lon="2.23302">
        <ele>241.3</ele>
        <time>2022-03-06T08:42:34.000Z</time>
      </trkpt>
      <trkpt lat="43.30521" lon="2.23299">
        <ele>241.3</ele>
        <time>2022-03-06T08:42:35.000Z</time>
      </trkpt>
      <trkpt lat="43.30522" lon="2.23297">
        <ele>241.2</ele>
        <time>2022-03-06T08:42:36.000Z</time>
      </trkpt>
      <trkpt lat="43.30522" lon="2.23295">
        <ele>241.2</ele>
        <time>2022-03-06T08:42:37.000Z</time>
      </trkpt>
      <trkpt lat="43.30522" lon="2.23293">
        <ele>241.2</ele>
        <time>2022-03-06T08:42:38.000Z</time>
      </trkpt>
      <trkpt lat="43.30522" lon="2.2329">
        <ele>241.1</ele>
        <time>2022-03-06T08:42:39.000Z</time>
      </trkpt>
      <trkpt lat="43.30522" lon="2.23288">
        <ele>241.1</ele>
        <time>2022-03-06T08:42:40.000Z</time>
      </trkpt>
      <trkpt lat="43.30521" lon="2.23286">
        <ele>241.1</ele>
        <time>2022-03-06T08:42:41.000Z</time>
      </trkpt>
      <trkpt lat="43.30521" lon="2.23283">
        <ele>241</ele>
        <time>2022-03-06T08:42:42.000Z</time>
      </trkpt>
      <trkpt lat="43.30521" lon="2.23281">
        <ele>241</ele>
        <time>2022-03-06T08:42:43.000Z</time>
      </trkpt>
      <trkpt lat="43.30521" lon="2.23279">
        <ele>241</ele>
        <time>2022-03-06T08:42:44.000Z</time>
      </trkpt>
      <trkpt lat="43.3052" lon="2.23277">
        <ele>241</ele>
        <time>2022-03-06T08:42:45.000Z</time>
      </trkpt>
      <trkpt lat="43.3052" lon="2.23275">
        <ele>241</ele>
        <time>2022-03-06T08:42:46.000Z</time>
      </trkpt>
      <trkpt lat="43.3052" lon="2.23273">
        <ele>241.1</ele>
        <time>2022-03-06T08:42:47.000Z</time>
      </trkpt>
      <trkpt lat="43.30519" lon="2.23271">
        <ele>241.1</ele>
        <time>2022-03-06T08:42:48.000Z</time>
      </trkpt>
      <trkpt lat="43.30519" lon="2.2327">
        <ele>241.1</ele>
        <time>2022-03-06T08:42:49.000Z</time>
      </trkpt>
      <trkpt lat="43.30519" lon="2.23269">
        <ele>241.1</ele>
        <time>2022-03-06T08:42:50.000Z</time>
      </trkpt>
      <trkpt lat="43.30519" lon="2.23268">
        <ele>241.1</ele>
        <time>2022-03-06T08:42:51.000Z</time>
      </trkpt>
      <trkpt lat="43.30518" lon="2.23267">
        <ele>241.1</ele>
        <time>2022-03-06T08:42:52.000Z</time>
      </trkpt>
      <trkpt lat="43.30518" lon="2.23267">
        <ele>241.2</ele>
        <time>2022-03-06T08:42:53.000Z</time>
      </trkpt>
      <trkpt lat="43.30517" lon="2.23267">
        <ele>241.3</ele>
        <time>2022-03-06T08:42:54.000Z</time>
      </trkpt>
      <trkpt lat="43.30516" lon="2.23268">
        <ele>241.4</ele>
        <time>2022-03-06T08:42:55.000Z</time>
      </trkpt>
      <trkpt lat="43.30515" lon="2.23268">
        <ele>241.6</ele>
        <time>2022-03-06T08:42:56.000Z</time>
      </trkpt>
      <trkpt lat="43.30514" lon="2.23269">
        <ele>241.8</ele>
        <time>2022-03-06T08:42:57.000Z</time>
      </trkpt>
      <trkpt lat="43.30513" lon="2.23269">
        <ele>241.9</ele>
        <time>2022-03-06T08:42:58.000Z</time>
      </trkpt>
      <trkpt lat="43.30512" lon="2.2327">
        <ele>242.1</ele>
        <time>2022-03-06T08:42:59.000Z</time>
      </trkpt>
      <trkpt lat="43.30511" lon="2.23271">
        <ele>242.3</ele>
        <time>2022-03-06T08:43:00.000Z</time>
      </trkpt>
      <trkpt lat="43.3051" lon="2.23271">
        <ele>242.4</ele>
        <time>2022-03-06T08:43:01.000Z</time>
      </trkpt>
      <trkpt lat="43.30509" lon="2.23272">
        <ele>242.5</ele>
        <time>2022-03-06T08:43:02.000Z</time>
      </trkpt>
      <trkpt lat="43.30509" lon="2.23273">
        <ele>242.6</ele>
        <time>2022-03-06T08:43:03.000Z</time>
      </trkpt>
      <trkpt lat="43.30508" lon="2.23273">
        <ele>242.7</ele>
        <time>2022-03-06T08:43:04.000Z</time>
      </trkpt>
      <trkpt lat="43.30508" lon="2.23274">
        <ele>242.8</ele>
        <time>2022-03-06T08:43:05.000Z</time>
      </trkpt>
      <trkpt lat="43.30508" lon="2.23274">
        <ele>242.8</ele>
        <time>2022-03-06T08:43:06.000Z</time>
      </trkpt>
      <trkpt lat="43.30507" lon="2.23274">
        <ele>242.8</ele>
        <time>2022-03-06T08:43:07.000Z</time>
      </trkpt>
      <trkpt lat="43.30507" lon="2.23274">
        <ele>242.9</ele>
        <time>2022-03-06T08:43:08.000Z</time>
      </trkpt>
      <trkpt lat="43.30507" lon="2.23275">
        <ele>242.9</ele>
        <time>2022-03-06T08:43:09.000Z</time>
      </trkpt>
      <trkpt lat="43.30507" lon="2.23275">
        <ele>242.9</ele>
        <time>2022-03-06T08:43:10.000Z</time>
      </trkpt>
      <trkpt lat="43.30507" lon="2.23274">
        <ele>242.9</ele>
        <time>2022-03-06T08:43:11.000Z</time>
      </trkpt>
      <trkpt lat="43.30507" lon="2.23274">
        <ele>242.9</ele>
        <time>2022-03-06T08:43:12.000Z</time>
      </trkpt>
      <trkpt lat="43.30507" lon="2.23274">
        <ele>242.9</ele>
        <time>2022-03-06T08:43:13.000Z</time>
      </trkpt>
      <trkpt lat="43.30507" lon="2.23274">
        <ele>242.9</ele>
        <time>2022-03-06T08:43:14.000Z</time>
      </trkpt>
      <trkpt lat="43.30507" lon="2.23274">
        <ele>242.9</ele>
        <time>2022-03-06T08:43:15.000Z</time>
      </trkpt>
      <trkpt lat="43.30507" lon="2.23274">
        <ele>242.9</ele>
        <time>2022-03-06T08:43:16.000Z</time>
      </trkpt>
      <trkpt lat="43.30507" lon="2.23274">
        <ele>242.9</ele>
        <time>2022-03-06T08:43:17.000Z</time>
      </trkpt>
      <trkpt lat="43.30507" lon="2.23274">
        <ele>242.9</ele>
        <time>2022-03-06T08:43:18.000Z</time>
      </trkpt>
      <trkpt lat="43.30507" lon="2.23274">
        <ele>242.9</ele>
        <time>2022-03-06T08:43:19.000Z</time>
      </trkpt>
      <trkpt lat="43.30507" lon="2.23274">
        <ele>242.9</ele>
        <time>2022-03-06T08:43:20.000Z</time>
      </trkpt>
      <trkpt lat="43.30507" lon="2.23274">
        <ele>242.9</ele>
        <time>2022-03-06T08:43:21.000Z</time>
      </trkpt>
      <trkpt lat="43.30507" lon="2.23274">
        <ele>242.9</ele>
        <time>2022-03-06T08:43:22.000Z</time>
      </trkpt>
      <trkpt lat="43.30507" lon="2.23274">
        <ele>242.9</ele>
        <time>2022-03-06T08:43:23.000Z</time>
      </trkpt>
      <trkpt lat="43.30507" lon="2.23274">
        <ele>242.9</ele>
        <time>2022-03-06T08:43:24.000Z</time>
      </trkpt>
      <trkpt lat="43.30507" lon="2.23274">
        <ele>242.9</ele>
        <time>2022-03-06T08:43:25.000Z</time>
      </trkpt>
      <trkpt lat="43.30507" lon="2.23275">
        <ele>242.9</ele>
        <time>2022-03-06T08:43:26.000Z</time>
      </trkpt>
      <trkpt lat="43.30507" lon="2.23275">
        <ele>242.9</ele>
        <time>2022-03-06T08:43:27.000Z</time>
      </trkpt>
      <trkpt lat="43.30507" lon="2.23275">
        <ele>242.9</ele>
        <time>2022-03-06T08:43:28.000Z</time>
      </trkpt>
      <trkpt lat="43.30507" lon="2.23275">
        <ele>242.9</ele>
        <time>2022-03-06T08:43:29.000Z</time>
      </trkpt>
      <trkpt lat="43.30507" lon="2.23275">
        <ele>242.9</ele>
        <time>2022-03-06T08:43:30.000Z</time>
      </trkpt>
      <trkpt lat="43.30507" lon="2.23275">
        <ele>242.9</ele>
        <time>2022-03-06T08:43:31.000Z</time>
      </trkpt>
      <trkpt lat="43.30507" lon="2.23275">
        <ele>242.9</ele>
        <time>2022-03-06T08:43:32.000Z</time>
      </trkpt>
      <trkpt lat="43.30507" lon="2.23275">
        <ele>242.9</ele>
        <time>2022-03-06T08:43:33.000Z</time>
      </trkpt>
      <trkpt lat="43.30507" lon="2.23274">
        <ele>242.9</ele>
        <time>2022-03-06T08:43:34.000Z</time>
      </trkpt>
      <trkpt lat="43.30507" lon="2.23274">
        <ele>242.9</ele>
        <time>2022-03-06T08:43:35.000Z</time>
      </trkpt>
      <trkpt lat="43.30507" lon="2.23273">
        <ele>242.9</ele>
        <time>2022-03-06T08:43:36.000Z</time>
      </trkpt>
      <trkpt lat="43.30507" lon="2.23273">
        <ele>242.8</ele>
        <time>2022-03-06T08:43:37.000Z</time>
      </trkpt>
      <trkpt lat="43.30507" lon="2.23272">
        <ele>242.8</ele>
        <time>2022-03-06T08:43:38.000Z</time>
      </trkpt>
      <trkpt lat="43.30508" lon="2.23272">
        <ele>242.7</ele>
        <time>2022-03-06T08:43:39.000Z</time>
      </trkpt>
      <trkpt lat="43.30508" lon="2.23271">
        <ele>242.7</ele>
        <time>2022-03-06T08:43:40.000Z</time>
      </trkpt>
      <trkpt lat="43.30508" lon="2.23271">
        <ele>242.7</ele>
        <time>2022-03-06T08:43:41.000Z</time>
      </trkpt>
      <trkpt lat="43.30508" lon="2.2327">
        <ele>242.6</ele>
        <time>2022-03-06T08:43:42.000Z</time>
      </trkpt>
      <trkpt lat="43.30509" lon="2.2327">
        <ele>242.5</ele>
        <time>2022-03-06T08:43:43.000Z</time>
      </trkpt>
      <trkpt lat="43.30509" lon="2.23269">
        <ele>242.5</ele>
        <time>2022-03-06T08:43:44.000Z</time>
      </trkpt>
      <trkpt lat="43.30509" lon="2.23269">
        <ele>242.4</ele>
        <time>2022-03-06T08:43:45.000Z</time>
      </trkpt>
      <trkpt lat="43.30509" lon="2.23268">
        <ele>242.4</ele>
        <time>2022-03-06T08:43:46.000Z</time>
      </trkpt>
      <trkpt lat="43.3051" lon="2.23267">
        <ele>242.3</ele>
        <time>2022-03-06T08:43:47.000Z</time>
      </trkpt>
      <trkpt lat="43.3051" lon="2.23266">
        <ele>242.2</ele>
        <time>2022-03-06T08:43:48.000Z</time>
      </trkpt>
      <trkpt lat="43.3051" lon="2.23265">
        <ele>242.2</ele>
        <time>2022-03-06T08:43:49.000Z</time>
      </trkpt>
      <trkpt lat="43.30511" lon="2.23264">
        <ele>242.1</ele>
        <time>2022-03-06T08:43:50.000Z</time>
      </trkpt>
      <trkpt lat="43.30511" lon="2.23262">
        <ele>242</ele>
        <time>2022-03-06T08:43:51.000Z</time>
      </trkpt>
      <trkpt lat="43.30511" lon="2.23261">
        <ele>242</ele>
        <time>2022-03-06T08:43:52.000Z</time>
      </trkpt>
      <trkpt lat="43.30511" lon="2.2326">
        <ele>241.9</ele>
        <time>2022-03-06T08:43:53.000Z</time>
      </trkpt>
      <trkpt lat="43.30512" lon="2.23258">
        <ele>241.8</ele>
        <time>2022-03-06T08:43:54.000Z</time>
      </trkpt>
      <trkpt lat="43.30512" lon="2.23257">
        <ele>241.7</ele>
        <time>2022-03-06T08:43:55.000Z</time>
      </trkpt>
      <trkpt lat="43.30513" lon="2.23256">
        <ele>241.6</ele>
        <time>2022-03-06T08:43:56.000Z</time>
      </trkpt>
      <trkpt lat="43.30513" lon="2.23255">
        <ele>241.6</ele>
        <time>2022-03-06T08:43:57.000Z</time>
      </trkpt>
      <trkpt lat="43.30513" lon="2.23253">
        <ele>241.5</ele>
        <time>2022-03-06T08:43:58.000Z</time>
      </trkpt>
      <trkpt lat="43.30514" lon="2.23252">
        <ele>241.4</ele>
        <time>2022-03-06T08:43:59.000Z</time>
      </trkpt>
      <trkpt lat="43.30514" lon="2.23251">
        <ele>241.3</ele>
        <time>2022-03-06T08:44:00.000Z</time>
      </trkpt>
      <trkpt lat="43.30514" lon="2.2325">
        <ele>241.3</ele>
        <time>2022-03-06T08:44:01.000Z</time>
      </trkpt>
      <trkpt lat="43.30515" lon="2.23249">
        <ele>241.3</ele>
        <time>2022-03-06T08:44:02.000Z</time>
      </trkpt>
      <trkpt lat="43.30515" lon="2.23247">
        <ele>241.3</ele>
        <time>2022-03-06T08:44:03.000Z</time>
      </trkpt>
      <trkpt lat="43.30515" lon="2.23246">
        <ele>241.3</ele>
        <time>2022-03-06T08:44:04.000Z</time>
      </trkpt>
      <trkpt lat="43.30515" lon="2.23245">
        <ele>241.3</ele>
        <time>2022-03-06T08:44:05.000Z</time>
      </trkpt>
      <trkpt lat="43.30515" lon="2.23243">
        <ele>241.2</ele>
        <time>2022-03-06T08:44:06.000Z</time>
      </trkpt>
      <trkpt lat="43.30516" lon="2.23242">
        <ele>241.2</ele>
        <time>2022-03-06T08:44:07.000Z</time>
      </trkpt>
      <trkpt lat="43.30516" lon="2.23241">
        <ele>241.2</ele>
        <time>2022-03-06T08:44:08.000Z</time>
      </trkpt>
      <trkpt lat="43.30517" lon="2.23239">
        <ele>241.2</ele>
        <time>2022-03-06T08:44:09.000Z</time>
      </trkpt>
      <trkpt lat="43.30517" lon="2.23238">
        <ele>241.1</ele>
        <time>2022-03-06T08:44:10.000Z</time>
      </trkpt>
      <trkpt lat="43.30518" lon="2.23236">
        <ele>241.1</ele>
        <time>2022-03-06T08:44:11.000Z</time>
      </trkpt>
      <trkpt lat="43.30518" lon="2.23235">
        <ele>241.1</ele>
        <time>2022-03-06T08:44:12.000Z</time>
      </trkpt>
      <trkpt lat="43.30519" lon="2.23233">
        <ele>241</ele>
        <time>2022-03-06T08:44:13.000Z</time>
      </trkpt>
      <trkpt lat="43.3052" lon="2.23232">
        <ele>241</ele>
        <time>2022-03-06T08:44:14.000Z</time>
      </trkpt>
      <trkpt lat="43.3052" lon="2.2323">
        <ele>240.9</ele>
        <time>2022-03-06T08:44:15.000Z</time>
      </trkpt>
      <trkpt lat="43.30521" lon="2.23228">
        <ele>240.9</ele>
        <time>2022-03-06T08:44:16.000Z</time>
      </trkpt>
      <trkpt lat="43.30522" lon="2.23225">
        <ele>240.9</ele>
        <time>2022-03-06T08:44:17.000Z</time>
      </trkpt>
      <trkpt lat="43.30522" lon="2.23223">
        <ele>240.9</ele>
        <time>2022-03-06T08:44:18.000Z</time>
      </trkpt>
      <trkpt lat="43.30523" lon="2.23221">
        <ele>240.9</ele>
        <time>2022-03-06T08:44:19.000Z</time>
      </trkpt>
      <trkpt lat="43.30523" lon="2.23218">
        <ele>240.8</ele>
        <time>2022-03-06T08:44:20.000Z</time>
      </trkpt>
      <trkpt lat="43.30524" lon="2.23216">
        <ele>240.8</ele>
        <time>2022-03-06T08:44:21.000Z</time>
      </trkpt>
      <trkpt lat="43.30525" lon="2.23213">
        <ele>240.8</ele>
        <time>2022-03-06T08:44:22.000Z</time>
      </trkpt>
      <trkpt lat="43.30525" lon="2.23211">
        <ele>240.8</ele>
        <time>2022-03-06T08:44:23.000Z</time>
      </trkpt>
      <trkpt lat="43.30526" lon="2.23209">
        <ele>240.8</ele>
        <time>2022-03-06T08:44:24.000Z</time>
      </trkpt>
      <trkpt lat="43.30527" lon="2.23206">
        <ele>240.8</ele>
        <time>2022-03-06T08:44:25.000Z</time>
      </trkpt>
      <trkpt lat="43.30528" lon="2.23204">
        <ele>240.8</ele>
        <time>2022-03-06T08:44:26.000Z</time>
      </trkpt>
      <trkpt lat="43.30528" lon="2.23201">
        <ele>240.8</ele>
        <time>2022-03-06T08:44:27.000Z</time>
      </trkpt>
      <trkpt lat="43.30529" lon="2.23199">
        <ele>240.8</ele>
        <time>2022-03-06T08:44:28.000Z</time>
      </trkpt>
      <trkpt lat="43.3053" lon="2.23197">
        <ele>240.8</ele>
        <time>2022-03-06T08:44:29.000Z</time>
      </trkpt>
      <trkpt lat="43.3053" lon="2.23194">
        <ele>240.8</ele>
        <time>2022-03-06T08:44:30.000Z</time>
      </trkpt>
      <trkpt lat="43.30531" lon="2.23192">
        <ele>240.8</ele>
        <time>2022-03-06T08:44:31.000Z</time>
      </trkpt>
      <trkpt lat="43.30532" lon="2.2319">
        <ele>240.9</ele>
        <time>2022-03-06T08:44:32.000Z</time>
      </trkpt>
      <trkpt lat="43.30532" lon="2.23187">
        <ele>240.9</ele>
        <time>2022-03-06T08:44:33.000Z</time>
      </trkpt>
      <trkpt lat="43.30533" lon="2.23185">
        <ele>240.9</ele>
        <time>2022-03-06T08:44:34.000Z</time>
      </trkpt>
      <trkpt lat="43.30534" lon="2.23183">
        <ele>240.9</ele>
        <time>2022-03-06T08:44:35.000Z</time>
      </trkpt>
      <trkpt lat="43.30534" lon="2.23181">
        <ele>240.9</ele>
        <time>2022-03-06T08:44:36.000Z</time>
      </trkpt>
      <trkpt lat="43.30535" lon="2.23178">
        <ele>241</ele>
        <time>2022-03-06T08:44:37.000Z</time>
      </trkpt>
      <trkpt lat="43.30535" lon="2.23176">
        <ele>241</ele>
        <time>2022-03-06T08:44:38.000Z</time>
      </trkpt>
      <trkpt lat="43.30536" lon="2.23174">
        <ele>241.1</ele>
        <time>2022-03-06T08:44:39.000Z</time>
      </trkpt>
      <trkpt lat="43.30537" lon="2.23171">
        <ele>241.1</ele>
        <time>2022-03-06T08:44:40.000Z</time>
      </trkpt>
      <trkpt lat="43.30537" lon="2.23169">
        <ele>241.1</ele>
        <time>2022-03-06T08:44:41.000Z</time>
      </trkpt>
      <trkpt lat="43.30538" lon="2.23167">
        <ele>241.2</ele>
        <time>2022-03-06T08:44:42.000Z</time>
      </trkpt>
      <trkpt lat="43.30538" lon="2.23164">
        <ele>241.3</ele>
        <time>2022-03-06T08:44:43.000Z</time>
      </trkpt>
      <trkpt lat="43.30538" lon="2.23162">
        <ele>241.3</ele>
        <time>2022-03-06T08:44:44.000Z</time>
      </trkpt>
      <trkpt lat="43.30539" lon="2.23159">
        <ele>241.4</ele>
        <time>2022-03-06T08:44:45.000Z</time>
      </trkpt>
      <trkpt lat="43.30539" lon="2.23157">
        <ele>241.5</ele>
        <time>2022-03-06T08:44:46.000Z</time>
      </trkpt>
      <trkpt lat="43.3054" lon="2.23154">
        <ele>241.5</ele>
        <time>2022-03-06T08:44:47.000Z</time>
      </trkpt>
      <trkpt lat="43.3054" lon="2.23152">
        <ele>241.6</ele>
        <time>2022-03-06T08:44:48.000Z</time>
      </trkpt>
      <trkpt lat="43.3054" lon="2.23149">
        <ele>241.7</ele>
        <time>2022-03-06T08:44:49.000Z</time>
      </trkpt>
      <trkpt lat="43.3054" lon="2.23146">
        <ele>241.8</ele>
        <time>2022-03-06T08:44:50.000Z</time>
      </trkpt>
      <trkpt lat="43.3054" lon="2.23144">
        <ele>241.9</ele>
        <time>2022-03-06T08:44:51.000Z</time>
      </trkpt>
      <trkpt lat="43.3054" lon="2.23141">
        <ele>242</ele>
        <time>2022-03-06T08:44:52.000Z</time>
      </trkpt>
      <trkpt lat="43.30541" lon="2.23138">
        <ele>242</ele>
        <time>2022-03-06T08:44:53.000Z</time>
      </trkpt>
      <trkpt lat="43.30541" lon="2.23136">
        <ele>242.1</ele>
        <time>2022-03-06T08:44:54.000Z</time>
      </trkpt>
      <trkpt lat="43.30541" lon="2.23133">
        <ele>242.2</ele>
        <time>2022-03-06T08:44:55.000Z</time>
      </trkpt>
      <trkpt lat="43.30542" lon="2.23131">
        <ele>242.3</ele>
        <time>2022-03-06T08:44:56.000Z</time>
      </trkpt>
      <trkpt lat="43.30542" lon="2.23128">
        <ele>242.4</ele>
        <time>2022-03-06T08:44:57.000Z</time>
      </trkpt>
      <trkpt lat="43.30542" lon="2.23126">
        <ele>242.5</ele>
        <time>2022-03-06T08:44:58.000Z</time>
      </trkpt>
      <trkpt lat="43.30543" lon="2.23124">
        <ele>242.5</ele>
        <time>2022-03-06T08:44:59.000Z</time>
      </trkpt>
      <trkpt lat="43.30543" lon="2.23121">
        <ele>242.6</ele>
        <time>2022-03-06T08:45:00.000Z</time>
      </trkpt>
      <trkpt lat="43.30544" lon="2.23119">
        <ele>242.7</ele>
        <time>2022-03-06T08:45:01.000Z</time>
      </trkpt>
      <trkpt lat="43.30544" lon="2.23116">
        <ele>242.8</ele>
        <time>2022-03-06T08:45:02.000Z</time>
      </trkpt>
      <trkpt lat="43.30544" lon="2.23114">
        <ele>242.9</ele>
        <time>2022-03-06T08:45:03.000Z</time>
      </trkpt>
      <trkpt lat="43.30545" lon="2.23112">
        <ele>243</ele>
        <time>2022-03-06T08:45:04.000Z</time>
      </trkpt>
      <trkpt lat="43.30545" lon="2.2311">
        <ele>243.1</ele>
        <time>2022-03-06T08:45:05.000Z</time>
      </trkpt>
      <trkpt lat="43.30546" lon="2.23107">
        <ele>243.2</ele>
        <time>2022-03-06T08:45:06.000Z</time>
      </trkpt>
      <trkpt lat="43.30546" lon="2.23105">
        <ele>243.3</ele>
        <time>2022-03-06T08:45:07.000Z</time>
      </trkpt>
      <trkpt lat="43.30546" lon="2.23102">
        <ele>243.4</ele>
        <time>2022-03-06T08:45:08.000Z</time>
      </trkpt>
      <trkpt lat="43.30547" lon="2.23099">
        <ele>243.5</ele>
        <time>2022-03-06T08:45:09.000Z</time>
      </trkpt>
      <trkpt lat="43.30547" lon="2.23096">
        <ele>243.6</ele>
        <time>2022-03-06T08:45:10.000Z</time>
      </trkpt>
      <trkpt lat="43.30548" lon="2.23093">
        <ele>243.8</ele>
        <time>2022-03-06T08:45:11.000Z</time>
      </trkpt>
      <trkpt lat="43.30548" lon="2.2309">
        <ele>243.9</ele>
        <time>2022-03-06T08:45:12.000Z</time>
      </trkpt>
      <trkpt lat="43.30549" lon="2.23087">
        <ele>244</ele>
        <time>2022-03-06T08:45:13.000Z</time>
      </trkpt>
      <trkpt lat="43.3055" lon="2.23084">
        <ele>244.2</ele>
        <time>2022-03-06T08:45:14.000Z</time>
      </trkpt>
      <trkpt lat="43.30551" lon="2.23081">
        <ele>244.1</ele>
        <time>2022-03-06T08:45:15.000Z</time>
      </trkpt>
      <trkpt lat="43.30551" lon="2.23079">
        <ele>243.9</ele>
        <time>2022-03-06T08:45:16.000Z</time>
      </trkpt>
      <trkpt lat="43.30552" lon="2.23076">
        <ele>243.8</ele>
        <time>2022-03-06T08:45:17.000Z</time>
      </trkpt>
      <trkpt lat="43.30553" lon="2.23074">
        <ele>243.7</ele>
        <time>2022-03-06T08:45:18.000Z</time>
      </trkpt>
      <trkpt lat="43.30554" lon="2.23072">
        <ele>243.6</ele>
        <time>2022-03-06T08:45:19.000Z</time>
      </trkpt>
      <trkpt lat="43.30554" lon="2.2307">
        <ele>243.5</ele>
        <time>2022-03-06T08:45:20.000Z</time>
      </trkpt>
      <trkpt lat="43.30555" lon="2.23069">
        <ele>243.4</ele>
        <time>2022-03-06T08:45:21.000Z</time>
      </trkpt>
      <trkpt lat="43.30555" lon="2.23067">
        <ele>243.3</ele>
        <time>2022-03-06T08:45:22.000Z</time>
      </trkpt>
      <trkpt lat="43.30555" lon="2.23065">
        <ele>243.2</ele>
        <time>2022-03-06T08:45:23.000Z</time>
      </trkpt>
      <trkpt lat="43.30555" lon="2.23063">
        <ele>243</ele>
        <time>2022-03-06T08:45:24.000Z</time>
      </trkpt>
      <trkpt lat="43.30555" lon="2.23061">
        <ele>242.9</ele>
        <time>2022-03-06T08:45:25.000Z</time>
      </trkpt>
      <trkpt lat="43.30555" lon="2.23059">
        <ele>242.8</ele>
        <time>2022-03-06T08:45:26.000Z</time>
      </trkpt>
      <trkpt lat="43.30555" lon="2.23058">
        <ele>242.7</ele>
        <time>2022-03-06T08:45:27.000Z</time>
      </trkpt>
      <trkpt lat="43.30555" lon="2.23057">
        <ele>242.6</ele>
        <time>2022-03-06T08:45:28.000Z</time>
      </trkpt>
      <trkpt lat="43.30554" lon="2.23056">
        <ele>242.5</ele>
        <time>2022-03-06T08:45:29.000Z</time>
      </trkpt>
      <trkpt lat="43.30554" lon="2.23055">
        <ele>242.5</ele>
        <time>2022-03-06T08:45:30.000Z</time>
      </trkpt>
      <trkpt lat="43.30554" lon="2.23055">
        <ele>242.4</ele>
        <time>2022-03-06T08:45:31.000Z</time>
      </trkpt>
      <trkpt lat="43.30554" lon="2.23054">
        <ele>242.4</ele>
        <time>2022-03-06T08:45:32.000Z</time>
      </trkpt>
      <trkpt lat="43.30554" lon="2.23054">
        <ele>242.4</ele>
        <time>2022-03-06T08:45:33.000Z</time>
      </trkpt>
      <trkpt lat="43.30554" lon="2.23054">
        <ele>242.4</ele>
        <time>2022-03-06T08:45:34.000Z</time>
      </trkpt>
      <trkpt lat="43.30554" lon="2.23054">
        <ele>242.4</ele>
        <time>2022-03-06T08:45:35.000Z</time>
      </trkpt>
      <trkpt lat="43.30554" lon="2.23053">
        <ele>242.3</ele>
        <time>2022-03-06T08:45:36.000Z</time>
      </trkpt>
      <trkpt lat="43.30554" lon="2.23052">
        <ele>242.2</ele>
        <time>2022-03-06T08:45:37.000Z</time>
      </trkpt>
      <trkpt lat="43.30554" lon="2.23051">
        <ele>242.2</ele>
        <time>2022-03-06T08:45:38.000Z</time>
      </trkpt>
      <trkpt lat="43.30554" lon="2.23051">
        <ele>242.2</ele>
        <time>2022-03-06T08:45:39.000Z</time>
      </trkpt>
      <trkpt lat="43.30554" lon="2.2305">
        <ele>242.2</ele>
        <time>2022-03-06T08:45:40.000Z</time>
      </trkpt>
      <trkpt lat="43.30554" lon="2.2305">
        <ele>242.1</ele>
        <time>2022-03-06T08:45:41.000Z</time>
      </trkpt>
      <trkpt lat="43.30554" lon="2.23049">
        <ele>242.1</ele>
        <time>2022-03-06T08:45:42.000Z</time>
      </trkpt>
      <trkpt lat="43.30554" lon="2.23048">
        <ele>242</ele>
        <time>2022-03-06T08:45:43.000Z</time>
      </trkpt>
      <trkpt lat="43.30554" lon="2.23047">
        <ele>242</ele>
        <time>2022-03-06T08:45:44.000Z</time>
      </trkpt>
      <trkpt lat="43.30554" lon="2.23046">
        <ele>241.9</ele>
        <time>2022-03-06T08:45:45.000Z</time>
      </trkpt>
      <trkpt lat="43.30555" lon="2.23045">
        <ele>241.8</ele>
        <time>2022-03-06T08:45:46.000Z</time>
      </trkpt>
      <trkpt lat="43.30555" lon="2.23043">
        <ele>241.7</ele>
        <time>2022-03-06T08:45:47.000Z</time>
      </trkpt>
      <trkpt lat="43.30555" lon="2.23042">
        <ele>241.7</ele>
        <time>2022-03-06T08:45:48.000Z</time>
      </trkpt>
      <trkpt lat="43.30555" lon="2.23041">
        <ele>241.6</ele>
        <time>2022-03-06T08:45:49.000Z</time>
      </trkpt>
      <trkpt lat="43.30555" lon="2.2304">
        <ele>241.5</ele>
        <time>2022-03-06T08:45:50.000Z</time>
      </trkpt>
      <trkpt lat="43.30556" lon="2.23039">
        <ele>241.5</ele>
        <time>2022-03-06T08:45:51.000Z</time>
      </trkpt>
      <trkpt lat="43.30556" lon="2.23038">
        <ele>241.4</ele>
        <time>2022-03-06T08:45:52.000Z</time>
      </trkpt>
      <trkpt lat="43.30556" lon="2.23037">
        <ele>241.4</ele>
        <time>2022-03-06T08:45:53.000Z</time>
      </trkpt>
      <trkpt lat="43.30556" lon="2.23036">
        <ele>241.3</ele>
        <time>2022-03-06T08:45:54.000Z</time>
      </trkpt>
      <trkpt lat="43.30556" lon="2.23036">
        <ele>241.3</ele>
        <time>2022-03-06T08:45:55.000Z</time>
      </trkpt>
      <trkpt lat="43.30556" lon="2.23035">
        <ele>241.3</ele>
        <time>2022-03-06T08:45:56.000Z</time>
      </trkpt>
      <trkpt lat="43.30556" lon="2.23035">
        <ele>241.3</ele>
        <time>2022-03-06T08:45:57.000Z</time>
      </trkpt>
      <trkpt lat="43.30556" lon="2.23034">
        <ele>241.2</ele>
        <time>2022-03-06T08:45:58.000Z</time>
      </trkpt>
      <trkpt lat="43.30556" lon="2.23034">
        <ele>241.2</ele>
        <time>2022-03-06T08:45:59.000Z</time>
      </trkpt>
      <trkpt lat="43.30556" lon="2.23034">
        <ele>241.2</ele>
        <time>2022-03-06T08:46:00.000Z</time>
      </trkpt>
      <trkpt lat="43.30556" lon="2.23034">
        <ele>241.2</ele>
        <time>2022-03-06T08:46:01.000Z</time>
      </trkpt>
      <trkpt lat="43.30556" lon="2.23034">
        <ele>241.2</ele>
        <time>2022-03-06T08:46:02.000Z</time>
      </trkpt>
      <trkpt lat="43.30556" lon="2.23034">
        <ele>241.2</ele>
        <time>2022-03-06T08:46:03.000Z</time>
      </trkpt>
      <trkpt lat="43.30556" lon="2.23034">
        <ele>241.2</ele>
        <time>2022-03-06T08:46:04.000Z</time>
      </trkpt>
      <trkpt lat="43.30556" lon="2.23034">
        <ele>241.2</ele>
        <time>2022-03-06T08:46:05.000Z</time>
      </trkpt>
      <trkpt lat="43.30556" lon="2.23034">
        <ele>241.2</ele>
        <time>2022-03-06T08:46:06.000Z</time>
      </trkpt>
      <trkpt lat="43.30556" lon="2.23034">
        <ele>241.2</ele>
        <time>2022-03-06T08:46:07.000Z</time>
      </trkpt>
      <trkpt lat="43.30556" lon="2.23034">
        <ele>241.2</ele>
        <time>2022-03-06T08:46:08.000Z</time>
      </trkpt>
      <trkpt lat="43.30556" lon="2.23034">
        <ele>241.2</ele>
        <time>2022-03-06T08:46:09.000Z</time>
      </trkpt>
      <trkpt lat="43.30556" lon="2.23034">
        <ele>241.2</ele>
        <time>2022-03-06T08:46:10.000Z</time>
      </trkpt>
      <trkpt lat="43.30556" lon="2.23034">
        <ele>241.2</ele>
        <time>2022-03-06T08:46:11.000Z</time>
      </trkpt>
      <trkpt lat="43.30556" lon="2.23034">
        <ele>241.2</ele>
        <time>2022-03-06T08:46:12.000Z</time>
      </trkpt>
      <trkpt lat="43.30556" lon="2.23034">
        <ele>241.2</ele>
        <time>2022-03-06T08:46:13.000Z</time>
      </trkpt>
      <trkpt lat="43.30556" lon="2.23034">
        <ele>241.2</ele>
        <time>2022-03-06T08:46:14.000Z</time>
      </trkpt>
      <trkpt lat="43.30556" lon="2.23034">
        <ele>241.2</ele>
        <time>2022-03-06T08:46:15.000Z</time>
      </trkpt>
      <trkpt lat="43.30556" lon="2.23034">
        <ele>241.2</ele>
        <time>2022-03-06T08:46:16.000Z</time>
      </trkpt>
      <trkpt lat="43.30556" lon="2.23034">
        <ele>241.2</ele>
        <time>2022-03-06T08:46:17.000Z</time>
      </trkpt>
      <trkpt lat="43.30556" lon="2.23033">
        <ele>241.1</ele>
        <time>2022-03-06T08:46:18.000Z</time>
      </trkpt>
      <trkpt lat="43.30555" lon="2.23033">
        <ele>241.1</ele>
        <time>2022-03-06T08:46:19.000Z</time>
      </trkpt>
      <trkpt lat="43.30555" lon="2.23033">
        <ele>241.1</ele>
        <time>2022-03-06T08:46:20.000Z</time>
      </trkpt>
      <trkpt lat="43.30555" lon="2.23033">
        <ele>241.1</ele>
        <time>2022-03-06T08:46:21.000Z</time>
      </trkpt>
      <trkpt lat="43.30555" lon="2.23033">
        <ele>241.1</ele>
        <time>2022-03-06T08:46:22.000Z</time>
      </trkpt>
      <trkpt lat="43.30555" lon="2.23033">
        <ele>241.1</ele>
        <time>2022-03-06T08:46:23.000Z</time>
      </trkpt>
      <trkpt lat="43.30555" lon="2.23033">
        <ele>241.1</ele>
        <time>2022-03-06T08:46:24.000Z</time>
      </trkpt>
      <trkpt lat="43.30555" lon="2.23033">
        <ele>241.1</ele>
        <time>2022-03-06T08:46:25.000Z</time>
      </trkpt>
      <trkpt lat="43.30555" lon="2.23033">
        <ele>241.1</ele>
        <time>2022-03-06T08:46:26.000Z</time>
      </trkpt>
      <trkpt lat="43.30555" lon="2.23033">
        <ele>241.1</ele>
        <time>2022-03-06T08:46:27.000Z</time>
      </trkpt>
      <trkpt lat="43.30555" lon="2.23033">
        <ele>241.1</ele>
        <time>2022-03-06T08:46:28.000Z</time>
      </trkpt>
      <trkpt lat="43.30555" lon="2.23033">
        <ele>241.1</ele>
        <time>2022-03-06T08:46:29.000Z</time>
      </trkpt>
      <trkpt lat="43.30555" lon="2.23034">
        <ele>241.1</ele>
        <time>2022-03-06T08:46:30.000Z</time>
      </trkpt>
      <trkpt lat="43.30555" lon="2.23034">
        <ele>241.1</ele>
        <time>2022-03-06T08:46:31.000Z</time>
      </trkpt>
      <trkpt lat="43.30555" lon="2.23034">
        <ele>241.1</ele>
        <time>2022-03-06T08:46:32.000Z</time>
      </trkpt>
      <trkpt lat="43.30555" lon="2.23034">
        <ele>241.1</ele>
        <time>2022-03-06T08:46:33.000Z</time>
      </trkpt>
      <trkpt lat="43.30555" lon="2.23034">
        <ele>241.2</ele>
        <time>2022-03-06T08:46:34.000Z</time>
      </trkpt>
      <trkpt lat="43.30555" lon="2.23034">
        <ele>241.1</ele>
        <time>2022-03-06T08:46:35.000Z</time>
      </trkpt>
      <trkpt lat="43.30555" lon="2.23034">
        <ele>241.1</ele>
        <time>2022-03-06T08:46:36.000Z</time>
      </trkpt>
      <trkpt lat="43.30555" lon="2.23034">
        <ele>241.1</ele>
        <time>2022-03-06T08:46:37.000Z</time>
      </trkpt>
      <trkpt lat="43.30555" lon="2.23034">
        <ele>241.1</ele>
        <time>2022-03-06T08:46:38.000Z</time>
      </trkpt>
      <trkpt lat="43.30555" lon="2.23034">
        <ele>241.1</ele>
        <time>2022-03-06T08:46:39.000Z</time>
      </trkpt>
      <trkpt lat="43.30555" lon="2.23034">
        <ele>241.1</ele>
        <time>2022-03-06T08:46:40.000Z</time>
      </trkpt>
      <trkpt lat="43.30555" lon="2.23034">
        <ele>241.2</ele>
        <time>2022-03-06T08:46:41.000Z</time>
      </trkpt>
      <trkpt lat="43.30555" lon="2.23034">
        <ele>241.2</ele>
        <time>2022-03-06T08:46:42.000Z</time>
      </trkpt>
      <trkpt lat="43.30555" lon="2.23034">
        <ele>241.2</ele>
        <time>2022-03-06T08:46:43.000Z</time>
      </trkpt>
      <trkpt lat="43.30555" lon="2.23034">
        <ele>241.2</ele>
        <time>2022-03-06T08:46:44.000Z</time>
      </trkpt>
      <trkpt lat="43.30555" lon="2.23034">
        <ele>241.2</ele>
        <time>2022-03-06T08:46:45.000Z</time>
      </trkpt>
      <trkpt lat="43.30555" lon="2.23034">
        <ele>241.2</ele>
        <time>2022-03-06T08:46:46.000Z</time>
      </trkpt>
      <trkpt lat="43.30555" lon="2.23034">
        <ele>241.2</ele>
        <time>2022-03-06T08:46:47.000Z</time>
      </trkpt>
      <trkpt lat="43.30555" lon="2.23034">
        <ele>241.2</ele>
        <time>2022-03-06T08:46:48.000Z</time>
      </trkpt>
      <trkpt lat="43.30555" lon="2.23034">
        <ele>241.2</ele>
        <time>2022-03-06T08:46:49.000Z</time>
      </trkpt>
      <trkpt lat="43.30555" lon="2.23034">
        <ele>241.2</ele>
        <time>2022-03-06T08:46:50.000Z</time>
      </trkpt>
      <trkpt lat="43.30555" lon="2.23034">
        <ele>241.2</ele>
        <time>2022-03-06T08:46:51.000Z</time>
      </trkpt>
      <trkpt lat="43.30555" lon="2.23034">
        <ele>241.2</ele>
        <time>2022-03-06T08:46:52.000Z</time>
      </trkpt>
      <trkpt lat="43.30555" lon="2.23034">
        <ele>241.2</ele>
        <time>2022-03-06T08:46:53.000Z</time>
      </trkpt>
      <trkpt lat="43.30555" lon="2.23034">
        <ele>241.2</ele>
        <time>2022-03-06T08:46:54.000Z</time>
      </trkpt>
      <trkpt lat="43.30555" lon="2.23034">
        <ele>241.1</ele>
        <time>2022-03-06T08:46:55.000Z</time>
      </trkpt>
      <trkpt lat="43.30555" lon="2.23034">
        <ele>241.2</ele>
        <time>2022-03-06T08:46:56.000Z</time>
      </trkpt>
      <trkpt lat="43.30555" lon="2.23034">
        <ele>241.2</ele>
        <time>2022-03-06T08:46:57.000Z</time>
      </trkpt>
      <trkpt lat="43.30555" lon="2.23034">
        <ele>241.2</ele>
        <time>2022-03-06T08:46:58.000Z</time>
      </trkpt>
      <trkpt lat="43.30555" lon="2.23034">
        <ele>241.2</ele>
        <time>2022-03-06T08:46:59.000Z</time>
      </trkpt>
      <trkpt lat="43.30555" lon="2.23034">
        <ele>241.2</ele>
        <time>2022-03-06T08:47:00.000Z</time>
      </trkpt>
      <trkpt lat="43.30555" lon="2.23034">
        <ele>241.1</ele>
        <time>2022-03-06T08:47:01.000Z</time>
      </trkpt>
      <trkpt lat="43.30555" lon="2.23034">
        <ele>241.1</ele>
        <time>2022-03-06T08:47:02.000Z</time>
      </trkpt>
      <trkpt lat="43.30555" lon="2.23034">
        <ele>241.1</ele>
        <time>2022-03-06T08:47:03.000Z</time>
      </trkpt>
      <trkpt lat="43.30554" lon="2.23034">
        <ele>241.1</ele>
        <time>2022-03-06T08:47:04.000Z</time>
      </trkpt>
      <trkpt lat="43.30554" lon="2.23033">
        <ele>241</ele>
        <time>2022-03-06T08:47:05.000Z</time>
      </trkpt>
      <trkpt lat="43.30554" lon="2.23033">
        <ele>241</ele>
        <time>2022-03-06T08:47:06.000Z</time>
      </trkpt>
      <trkpt lat="43.30554" lon="2.23032">
        <ele>240.9</ele>
        <time>2022-03-06T08:47:07.000Z</time>
      </trkpt>
      <trkpt lat="43.30554" lon="2.2303">
        <ele>240.9</ele>
        <time>2022-03-06T08:47:08.000Z</time>
      </trkpt>
      <trkpt lat="43.30555" lon="2.23029">
        <ele>240.8</ele>
        <time>2022-03-06T08:47:09.000Z</time>
      </trkpt>
      <trkpt lat="43.30555" lon="2.23028">
        <ele>240.8</ele>
        <time>2022-03-06T08:47:10.000Z</time>
      </trkpt>
      <trkpt lat="43.30555" lon="2.23027">
        <ele>240.7</ele>
        <time>2022-03-06T08:47:11.000Z</time>
      </trkpt>
      <trkpt lat="43.30555" lon="2.23027">
        <ele>240.7</ele>
        <time>2022-03-06T08:47:12.000Z</time>
      </trkpt>
      <trkpt lat="43.30555" lon="2.23026">
        <ele>240.6</ele>
        <time>2022-03-06T08:47:13.000Z</time>
      </trkpt>
      <trkpt lat="43.30554" lon="2.23026">
        <ele>240.6</ele>
        <time>2022-03-06T08:47:14.000Z</time>
      </trkpt>
      <trkpt lat="43.30554" lon="2.23025">
        <ele>240.5</ele>
        <time>2022-03-06T08:47:15.000Z</time>
      </trkpt>
      <trkpt lat="43.30554" lon="2.23025">
        <ele>240.5</ele>
        <time>2022-03-06T08:47:16.000Z</time>
      </trkpt>
      <trkpt lat="43.30553" lon="2.23025">
        <ele>240.5</ele>
        <time>2022-03-06T08:47:17.000Z</time>
      </trkpt>
      <trkpt lat="43.30553" lon="2.23025">
        <ele>240.4</ele>
        <time>2022-03-06T08:47:18.000Z</time>
      </trkpt>
      <trkpt lat="43.30552" lon="2.23025">
        <ele>240.4</ele>
        <time>2022-03-06T08:47:19.000Z</time>
      </trkpt>
      <trkpt lat="43.30551" lon="2.23025">
        <ele>240.3</ele>
        <time>2022-03-06T08:47:20.000Z</time>
      </trkpt>
      <trkpt lat="43.3055" lon="2.23025">
        <ele>240.3</ele>
        <time>2022-03-06T08:47:21.000Z</time>
      </trkpt>
      <trkpt lat="43.30549" lon="2.23025">
        <ele>240.2</ele>
        <time>2022-03-06T08:47:22.000Z</time>
      </trkpt>
      <trkpt lat="43.30548" lon="2.23025">
        <ele>240.2</ele>
        <time>2022-03-06T08:47:23.000Z</time>
      </trkpt>
      <trkpt lat="43.30547" lon="2.23025">
        <ele>240.1</ele>
        <time>2022-03-06T08:47:24.000Z</time>
      </trkpt>
      <trkpt lat="43.30546" lon="2.23024">
        <ele>240</ele>
        <time>2022-03-06T08:47:25.000Z</time>
      </trkpt>
      <trkpt lat="43.30545" lon="2.23024">
        <ele>239.9</ele>
        <time>2022-03-06T08:47:26.000Z</time>
      </trkpt>
      <trkpt lat="43.30544" lon="2.23024">
        <ele>239.8</ele>
        <time>2022-03-06T08:47:27.000Z</time>
      </trkpt>
      <trkpt lat="43.30543" lon="2.23023">
        <ele>239.7</ele>
        <time>2022-03-06T08:47:28.000Z</time>
      </trkpt>
      <trkpt lat="43.30542" lon="2.23022">
        <ele>239.6</ele>
        <time>2022-03-06T08:47:29.000Z</time>
      </trkpt>
      <trkpt lat="43.30541" lon="2.23022">
        <ele>239.5</ele>
        <time>2022-03-06T08:47:30.000Z</time>
      </trkpt>
      <trkpt lat="43.30541" lon="2.23021">
        <ele>239.4</ele>
        <time>2022-03-06T08:47:31.000Z</time>
      </trkpt>
      <trkpt lat="43.3054" lon="2.2302">
        <ele>239.3</ele>
        <time>2022-03-06T08:47:32.000Z</time>
      </trkpt>
      <trkpt lat="43.30539" lon="2.23019">
        <ele>239.2</ele>
        <time>2022-03-06T08:47:33.000Z</time>
      </trkpt>
      <trkpt lat="43.30539" lon="2.23018">
        <ele>239.1</ele>
        <time>2022-03-06T08:47:34.000Z</time>
      </trkpt>
      <trkpt lat="43.30538" lon="2.23018">
        <ele>239</ele>
        <time>2022-03-06T08:47:35.000Z</time>
      </trkpt>
      <trkpt lat="43.30538" lon="2.23017">
        <ele>239</ele>
        <time>2022-03-06T08:47:36.000Z</time>
      </trkpt>
      <trkpt lat="43.30537" lon="2.23016">
        <ele>238.9</ele>
        <time>2022-03-06T08:47:37.000Z</time>
      </trkpt>
      <trkpt lat="43.30537" lon="2.23016">
        <ele>238.8</ele>
        <time>2022-03-06T08:47:38.000Z</time>
      </trkpt>
      <trkpt lat="43.30536" lon="2.23015">
        <ele>238.7</ele>
        <time>2022-03-06T08:47:39.000Z</time>
      </trkpt>
      <trkpt lat="43.30536" lon="2.23014">
        <ele>238.6</ele>
        <time>2022-03-06T08:47:40.000Z</time>
      </trkpt>
      <trkpt lat="43.30535" lon="2.23013">
        <ele>238.5</ele>
        <time>2022-03-06T08:47:41.000Z</time>
      </trkpt>
      <trkpt lat="43.30534" lon="2.23012">
        <ele>238.4</ele>
        <time>2022-03-06T08:47:42.000Z</time>
      </trkpt>
      <trkpt lat="43.30534" lon="2.23011">
        <ele>238.3</ele>
        <time>2022-03-06T08:47:43.000Z</time>
      </trkpt>
      <trkpt lat="43.30533" lon="2.2301">
        <ele>238.2</ele>
        <time>2022-03-06T08:47:44.000Z</time>
      </trkpt>
      <trkpt lat="43.30532" lon="2.23009">
        <ele>238</ele>
        <time>2022-03-06T08:47:45.000Z</time>
      </trkpt>
      <trkpt lat="43.30532" lon="2.23008">
        <ele>237.9</ele>
        <time>2022-03-06T08:47:46.000Z</time>
      </trkpt>
      <trkpt lat="43.30531" lon="2.23006">
        <ele>237.7</ele>
        <time>2022-03-06T08:47:47.000Z</time>
      </trkpt>
      <trkpt lat="43.3053" lon="2.23005">
        <ele>237.6</ele>
        <time>2022-03-06T08:47:48.000Z</time>
      </trkpt>
      <trkpt lat="43.3053" lon="2.23003">
        <ele>237.4</ele>
        <time>2022-03-06T08:47:49.000Z</time>
      </trkpt>
      <trkpt lat="43.3053" lon="2.23002">
        <ele>237.3</ele>
        <time>2022-03-06T08:47:50.000Z</time>
      </trkpt>
      <trkpt lat="43.30529" lon="2.23001">
        <ele>237.1</ele>
        <time>2022-03-06T08:47:51.000Z</time>
      </trkpt>
      <trkpt lat="43.30529" lon="2.22999">
        <ele>237</ele>
        <time>2022-03-06T08:47:52.000Z</time>
      </trkpt>
      <trkpt lat="43.30529" lon="2.22998">
        <ele>236.8</ele>
        <time>2022-03-06T08:47:53.000Z</time>
      </trkpt>
      <trkpt lat="43.30529" lon="2.22996">
        <ele>236.6</ele>
        <time>2022-03-06T08:47:54.000Z</time>
      </trkpt>
      <trkpt lat="43.30529" lon="2.22995">
        <ele>236.4</ele>
        <time>2022-03-06T08:47:55.000Z</time>
      </trkpt>
      <trkpt lat="43.30528" lon="2.22994">
        <ele>236.2</ele>
        <time>2022-03-06T08:47:56.000Z</time>
      </trkpt>
      <trkpt lat="43.30528" lon="2.22993">
        <ele>236.1</ele>
        <time>2022-03-06T08:47:57.000Z</time>
      </trkpt>
      <trkpt lat="43.30528" lon="2.22992">
        <ele>235.9</ele>
        <time>2022-03-06T08:47:58.000Z</time>
      </trkpt>
      <trkpt lat="43.30528" lon="2.2299">
        <ele>235.8</ele>
        <time>2022-03-06T08:47:59.000Z</time>
      </trkpt>
      <trkpt lat="43.30528" lon="2.22989">
        <ele>235.6</ele>
        <time>2022-03-06T08:48:00.000Z</time>
      </trkpt>
      <trkpt lat="43.30528" lon="2.22988">
        <ele>235.5</ele>
        <time>2022-03-06T08:48:01.000Z</time>
      </trkpt>
      <trkpt lat="43.30528" lon="2.22987">
        <ele>235.3</ele>
        <time>2022-03-06T08:48:02.000Z</time>
      </trkpt>
      <trkpt lat="43.30527" lon="2.22985">
        <ele>235.1</ele>
        <time>2022-03-06T08:48:03.000Z</time>
      </trkpt>
      <trkpt lat="43.30527" lon="2.22984">
        <ele>234.9</ele>
        <time>2022-03-06T08:48:04.000Z</time>
      </trkpt>
      <trkpt lat="43.30527" lon="2.22982">
        <ele>234.7</ele>
        <time>2022-03-06T08:48:05.000Z</time>
      </trkpt>
      <trkpt lat="43.30527" lon="2.22981">
        <ele>234.5</ele>
        <time>2022-03-06T08:48:06.000Z</time>
      </trkpt>
      <trkpt lat="43.30527" lon="2.22979">
        <ele>234.3</ele>
        <time>2022-03-06T08:48:07.000Z</time>
      </trkpt>
      <trkpt lat="43.30528" lon="2.22978">
        <ele>234.2</ele>
        <time>2022-03-06T08:48:08.000Z</time>
      </trkpt>
      <trkpt lat="43.30528" lon="2.22977">
        <ele>234</ele>
        <time>2022-03-06T08:48:09.000Z</time>
      </trkpt>
      <trkpt lat="43.30528" lon="2.22976">
        <ele>233.9</ele>
        <time>2022-03-06T08:48:10.000Z</time>
      </trkpt>
      <trkpt lat="43.30529" lon="2.22974">
        <ele>233.8</ele>
        <time>2022-03-06T08:48:11.000Z</time>
      </trkpt>
      <trkpt lat="43.3053" lon="2.22973">
        <ele>233.7</ele>
        <time>2022-03-06T08:48:12.000Z</time>
      </trkpt>
      <trkpt lat="43.3053" lon="2.22972">
        <ele>233.6</ele>
        <time>2022-03-06T08:48:13.000Z</time>
      </trkpt>
      <trkpt lat="43.30531" lon="2.22971">
        <ele>233.5</ele>
        <time>2022-03-06T08:48:14.000Z</time>
      </trkpt>
      <trkpt lat="43.30532" lon="2.2297">
        <ele>233.4</ele>
        <time>2022-03-06T08:48:15.000Z</time>
      </trkpt>
      <trkpt lat="43.30533" lon="2.22968">
        <ele>233.3</ele>
        <time>2022-03-06T08:48:16.000Z</time>
      </trkpt>
      <trkpt lat="43.30534" lon="2.22966">
        <ele>233.1</ele>
        <time>2022-03-06T08:48:17.000Z</time>
      </trkpt>
      <trkpt lat="43.30535" lon="2.22964">
        <ele>232.8</ele>
        <time>2022-03-06T08:48:18.000Z</time>
      </trkpt>
      <trkpt lat="43.30535" lon="2.22962">
        <ele>232.6</ele>
        <time>2022-03-06T08:48:19.000Z</time>
      </trkpt>
      <trkpt lat="43.30536" lon="2.2296">
        <ele>232.3</ele>
        <time>2022-03-06T08:48:20.000Z</time>
      </trkpt>
      <trkpt lat="43.30536" lon="2.22958">
        <ele>232.1</ele>
        <time>2022-03-06T08:48:21.000Z</time>
      </trkpt>
      <trkpt lat="43.30535" lon="2.22956">
        <ele>231.8</ele>
        <time>2022-03-06T08:48:22.000Z</time>
      </trkpt>
      <trkpt lat="43.30535" lon="2.22954">
        <ele>231.6</ele>
        <time>2022-03-06T08:48:23.000Z</time>
      </trkpt>
      <trkpt lat="43.30533" lon="2.22953">
        <ele>231.3</ele>
        <time>2022-03-06T08:48:24.000Z</time>
      </trkpt>
      <trkpt lat="43.30532" lon="2.22952">
        <ele>231.1</ele>
        <time>2022-03-06T08:48:25.000Z</time>
      </trkpt>
      <trkpt lat="43.30529" lon="2.22952">
        <ele>230.9</ele>
        <time>2022-03-06T08:48:26.000Z</time>
      </trkpt>
      <trkpt lat="43.30527" lon="2.22952">
        <ele>230.8</ele>
        <time>2022-03-06T08:48:27.000Z</time>
      </trkpt>
      <trkpt lat="43.30524" lon="2.22953">
        <ele>230.7</ele>
        <time>2022-03-06T08:48:28.000Z</time>
      </trkpt>
      <trkpt lat="43.30521" lon="2.22953">
        <ele>230.5</ele>
        <time>2022-03-06T08:48:29.000Z</time>
      </trkpt>
      <trkpt lat="43.30518" lon="2.22953">
        <ele>230.4</ele>
        <time>2022-03-06T08:48:30.000Z</time>
      </trkpt>
      <trkpt lat="43.30516" lon="2.22951">
        <ele>230.1</ele>
        <time>2022-03-06T08:48:31.000Z</time>
      </trkpt>
      <trkpt lat="43.30514" lon="2.22949">
        <ele>229.7</ele>
        <time>2022-03-06T08:48:32.000Z</time>
      </trkpt>
      <trkpt lat="43.30513" lon="2.22946">
        <ele>229.3</ele>
        <time>2022-03-06T08:48:33.000Z</time>
      </trkpt>
      <trkpt lat="43.30512" lon="2.22943">
        <ele>228.8</ele>
        <time>2022-03-06T08:48:34.000Z</time>
      </trkpt>
      <trkpt lat="43.30511" lon="2.22939">
        <ele>228.3</ele>
        <time>2022-03-06T08:48:35.000Z</time>
      </trkpt>
      <trkpt lat="43.30511" lon="2.22935">
        <ele>227.8</ele>
        <time>2022-03-06T08:48:36.000Z</time>
      </trkpt>
      <trkpt lat="43.30511" lon="2.22931">
        <ele>227.3</ele>
        <time>2022-03-06T08:48:37.000Z</time>
      </trkpt>
      <trkpt lat="43.30511" lon="2.22927">
        <ele>226.8</ele>
        <time>2022-03-06T08:48:38.000Z</time>
      </trkpt>
      <trkpt lat="43.30512" lon="2.22923">
        <ele>226.3</ele>
        <time>2022-03-06T08:48:39.000Z</time>
      </trkpt>
      <trkpt lat="43.30512" lon="2.22919">
        <ele>225.8</ele>
        <time>2022-03-06T08:48:40.000Z</time>
      </trkpt>
      <trkpt lat="43.30512" lon="2.22915">
        <ele>225.4</ele>
        <time>2022-03-06T08:48:41.000Z</time>
      </trkpt>
      <trkpt lat="43.30513" lon="2.22911">
        <ele>224.8</ele>
        <time>2022-03-06T08:48:42.000Z</time>
      </trkpt>
      <trkpt lat="43.30513" lon="2.22907">
        <ele>224.4</ele>
        <time>2022-03-06T08:48:43.000Z</time>
      </trkpt>
      <trkpt lat="43.30513" lon="2.22903">
        <ele>223.9</ele>
        <time>2022-03-06T08:48:44.000Z</time>
      </trkpt>
      <trkpt lat="43.30512" lon="2.229">
        <ele>223.4</ele>
        <time>2022-03-06T08:48:45.000Z</time>
      </trkpt>
      <trkpt lat="43.30511" lon="2.22897">
        <ele>223</ele>
        <time>2022-03-06T08:48:46.000Z</time>
      </trkpt>
      <trkpt lat="43.3051" lon="2.22895">
        <ele>222.7</ele>
        <time>2022-03-06T08:48:47.000Z</time>
      </trkpt>
      <trkpt lat="43.30509" lon="2.22893">
        <ele>222.5</ele>
        <time>2022-03-06T08:48:48.000Z</time>
      </trkpt>
      <trkpt lat="43.30508" lon="2.22893">
        <ele>222.4</ele>
        <time>2022-03-06T08:48:49.000Z</time>
      </trkpt>
      <trkpt lat="43.30507" lon="2.22894">
        <ele>222.5</ele>
        <time>2022-03-06T08:48:50.000Z</time>
      </trkpt>
      <trkpt lat="43.30506" lon="2.22896">
        <ele>222.7</ele>
        <time>2022-03-06T08:48:51.000Z</time>
      </trkpt>
      <trkpt lat="43.30505" lon="2.22899">
        <ele>223</ele>
        <time>2022-03-06T08:48:52.000Z</time>
      </trkpt>
      <trkpt lat="43.30505" lon="2.22901">
        <ele>223.4</ele>
        <time>2022-03-06T08:48:53.000Z</time>
      </trkpt>
      <trkpt lat="43.30505" lon="2.22904">
        <ele>223.7</ele>
        <time>2022-03-06T08:48:54.000Z</time>
      </trkpt>
      <trkpt lat="43.30506" lon="2.22907">
        <ele>224</ele>
        <time>2022-03-06T08:48:55.000Z</time>
      </trkpt>
      <trkpt lat="43.30506" lon="2.2291">
        <ele>224.4</ele>
        <time>2022-03-06T08:48:56.000Z</time>
      </trkpt>
      <trkpt lat="43.30506" lon="2.22912">
        <ele>224.8</ele>
        <time>2022-03-06T08:48:57.000Z</time>
      </trkpt>
      <trkpt lat="43.30507" lon="2.22915">
        <ele>225.1</ele>
        <time>2022-03-06T08:48:58.000Z</time>
      </trkpt>
      <trkpt lat="43.30507" lon="2.22918">
        <ele>225.5</ele>
        <time>2022-03-06T08:48:59.000Z</time>
      </trkpt>
      <trkpt lat="43.30507" lon="2.22921">
        <ele>225.9</ele>
        <time>2022-03-06T08:49:00.000Z</time>
      </trkpt>
      <trkpt lat="43.30507" lon="2.22924">
        <ele>226.2</ele>
        <time>2022-03-06T08:49:01.000Z</time>
      </trkpt>
      <trkpt lat="43.30507" lon="2.22927">
        <ele>226.6</ele>
        <time>2022-03-06T08:49:02.000Z</time>
      </trkpt>
      <trkpt lat="43.30507" lon="2.2293">
        <ele>226.9</ele>
        <time>2022-03-06T08:49:03.000Z</time>
      </trkpt>
      <trkpt lat="43.30506" lon="2.22932">
        <ele>227.2</ele>
        <time>2022-03-06T08:49:04.000Z</time>
      </trkpt>
      <trkpt lat="43.30506" lon="2.22934">
        <ele>227.4</ele>
        <time>2022-03-06T08:49:05.000Z</time>
      </trkpt>
      <trkpt lat="43.30506" lon="2.22936">
        <ele>227.6</ele>
        <time>2022-03-06T08:49:06.000Z</time>
      </trkpt>
      <trkpt lat="43.30506" lon="2.22937">
        <ele>227.7</ele>
        <time>2022-03-06T08:49:07.000Z</time>
      </trkpt>
      <trkpt lat="43.30505" lon="2.22938">
        <ele>227.9</ele>
        <time>2022-03-06T08:49:08.000Z</time>
      </trkpt>
      <trkpt lat="43.30505" lon="2.22939">
        <ele>227.9</ele>
        <time>2022-03-06T08:49:09.000Z</time>
      </trkpt>
      <trkpt lat="43.30505" lon="2.22939">
        <ele>228</ele>
        <time>2022-03-06T08:49:10.000Z</time>
      </trkpt>
      <trkpt lat="43.30505" lon="2.2294">
        <ele>228.1</ele>
        <time>2022-03-06T08:49:11.000Z</time>
      </trkpt>
      <trkpt lat="43.30505" lon="2.22941">
        <ele>228.2</ele>
        <time>2022-03-06T08:49:12.000Z</time>
      </trkpt>
      <trkpt lat="43.30505" lon="2.22941">
        <ele>228.2</ele>
        <time>2022-03-06T08:49:13.000Z</time>
      </trkpt>
      <trkpt lat="43.30505" lon="2.22942">
        <ele>228.3</ele>
        <time>2022-03-06T08:49:14.000Z</time>
      </trkpt>
      <trkpt lat="43.30505" lon="2.22943">
        <ele>228.4</ele>
        <time>2022-03-06T08:49:15.000Z</time>
      </trkpt>
      <trkpt lat="43.30504" lon="2.22944">
        <ele>228.6</ele>
        <time>2022-03-06T08:49:16.000Z</time>
      </trkpt>
      <trkpt lat="43.30504" lon="2.22945">
        <ele>228.7</ele>
        <time>2022-03-06T08:49:17.000Z</time>
      </trkpt>
      <trkpt lat="43.30504" lon="2.22946">
        <ele>228.8</ele>
        <time>2022-03-06T08:49:18.000Z</time>
      </trkpt>
      <trkpt lat="43.30504" lon="2.22947">
        <ele>228.8</ele>
        <time>2022-03-06T08:49:19.000Z</time>
      </trkpt>
      <trkpt lat="43.30504" lon="2.22947">
        <ele>228.9</ele>
        <time>2022-03-06T08:49:20.000Z</time>
      </trkpt>
      <trkpt lat="43.30504" lon="2.22947">
        <ele>228.9</ele>
        <time>2022-03-06T08:49:21.000Z</time>
      </trkpt>
      <trkpt lat="43.30504" lon="2.22948">
        <ele>228.9</ele>
        <time>2022-03-06T08:49:22.000Z</time>
      </trkpt>
      <trkpt lat="43.30504" lon="2.22947">
        <ele>228.9</ele>
        <time>2022-03-06T08:49:23.000Z</time>
      </trkpt>
      <trkpt lat="43.30504" lon="2.22947">
        <ele>228.9</ele>
        <time>2022-03-06T08:49:24.000Z</time>
      </trkpt>
      <trkpt lat="43.30504" lon="2.22947">
        <ele>228.9</ele>
        <time>2022-03-06T08:49:25.000Z</time>
      </trkpt>
      <trkpt lat="43.30504" lon="2.22947">
        <ele>228.9</ele>
        <time>2022-03-06T08:49:26.000Z</time>
      </trkpt>
      <trkpt lat="43.30504" lon="2.22947">
        <ele>228.9</ele>
        <time>2022-03-06T08:49:27.000Z</time>
      </trkpt>
      <trkpt lat="43.30504" lon="2.22948">
        <ele>228.9</ele>
        <time>2022-03-06T08:49:28.000Z</time>
      </trkpt>
      <trkpt lat="43.30504" lon="2.22948">
        <ele>229</ele>
        <time>2022-03-06T08:49:29.000Z</time>
      </trkpt>
      <trkpt lat="43.30504" lon="2.22949">
        <ele>229.1</ele>
        <time>2022-03-06T08:49:30.000Z</time>
      </trkpt>
      <trkpt lat="43.30504" lon="2.2295">
        <ele>229.3</ele>
        <time>2022-03-06T08:49:31.000Z</time>
      </trkpt>
      <trkpt lat="43.30504" lon="2.22952">
        <ele>229.5</ele>
        <time>2022-03-06T08:49:32.000Z</time>
      </trkpt>
      <trkpt lat="43.30504" lon="2.22954">
        <ele>229.7</ele>
        <time>2022-03-06T08:49:33.000Z</time>
      </trkpt>
      <trkpt lat="43.30504" lon="2.22956">
        <ele>230</ele>
        <time>2022-03-06T08:49:34.000Z</time>
      </trkpt>
      <trkpt lat="43.30505" lon="2.22958">
        <ele>230.3</ele>
        <time>2022-03-06T08:49:35.000Z</time>
      </trkpt>
      <trkpt lat="43.30505" lon="2.22961">
        <ele>230.6</ele>
        <time>2022-03-06T08:49:36.000Z</time>
      </trkpt>
      <trkpt lat="43.30505" lon="2.22964">
        <ele>230.9</ele>
        <time>2022-03-06T08:49:37.000Z</time>
      </trkpt>
      <trkpt lat="43.30505" lon="2.22966">
        <ele>231.2</ele>
        <time>2022-03-06T08:49:38.000Z</time>
      </trkpt>
      <trkpt lat="43.30505" lon="2.22968">
        <ele>231.5</ele>
        <time>2022-03-06T08:49:39.000Z</time>
      </trkpt>
      <trkpt lat="43.30505" lon="2.2297">
        <ele>231.7</ele>
        <time>2022-03-06T08:49:40.000Z</time>
      </trkpt>
      <trkpt lat="43.30504" lon="2.22972">
        <ele>231.9</ele>
        <time>2022-03-06T08:49:41.000Z</time>
      </trkpt>
      <trkpt lat="43.30504" lon="2.22974">
        <ele>232.1</ele>
        <time>2022-03-06T08:49:42.000Z</time>
      </trkpt>
      <trkpt lat="43.30503" lon="2.22976">
        <ele>232.3</ele>
        <time>2022-03-06T08:49:43.000Z</time>
      </trkpt>
      <trkpt lat="43.30503" lon="2.22978">
        <ele>232.6</ele>
        <time>2022-03-06T08:49:44.000Z</time>
      </trkpt>
      <trkpt lat="43.30502" lon="2.22981">
        <ele>232.8</ele>
        <time>2022-03-06T08:49:45.000Z</time>
      </trkpt>
      <trkpt lat="43.30501" lon="2.22983">
        <ele>233.1</ele>
        <time>2022-03-06T08:49:46.000Z</time>
      </trkpt>
      <trkpt lat="43.305" lon="2.22986">
        <ele>233.3</ele>
        <time>2022-03-06T08:49:47.000Z</time>
      </trkpt>
      <trkpt lat="43.305" lon="2.22989">
        <ele>233.6</ele>
        <time>2022-03-06T08:49:48.000Z</time>
      </trkpt>
      <trkpt lat="43.30499" lon="2.22992">
        <ele>233.7</ele>
        <time>2022-03-06T08:49:49.000Z</time>
      </trkpt>
      <trkpt lat="43.30498" lon="2.22994">
        <ele>233.9</ele>
        <time>2022-03-06T08:49:50.000Z</time>
      </trkpt>
      <trkpt lat="43.30497" lon="2.22997">
        <ele>234.1</ele>
        <time>2022-03-06T08:49:51.000Z</time>
      </trkpt>
      <trkpt lat="43.30496" lon="2.23">
        <ele>234.2</ele>
        <time>2022-03-06T08:49:52.000Z</time>
      </trkpt>
      <trkpt lat="43.30495" lon="2.23003">
        <ele>234.3</ele>
        <time>2022-03-06T08:49:53.000Z</time>
      </trkpt>
      <trkpt lat="43.30494" lon="2.23006">
        <ele>234.4</ele>
        <time>2022-03-06T08:49:54.000Z</time>
      </trkpt>
      <trkpt lat="43.30493" lon="2.2301">
        <ele>234.4</ele>
        <time>2022-03-06T08:49:55.000Z</time>
      </trkpt>
      <trkpt lat="43.30491" lon="2.23013">
        <ele>234.5</ele>
        <time>2022-03-06T08:49:56.000Z</time>
      </trkpt>
      <trkpt lat="43.3049" lon="2.23016">
        <ele>234.6</ele>
        <time>2022-03-06T08:49:57.000Z</time>
      </trkpt>
      <trkpt lat="43.30489" lon="2.23019">
        <ele>234.6</ele>
        <time>2022-03-06T08:49:58.000Z</time>
      </trkpt>
      <trkpt lat="43.30488" lon="2.23022">
        <ele>234.7</ele>
        <time>2022-03-06T08:49:59.000Z</time>
      </trkpt>
      <trkpt lat="43.30487" lon="2.23025">
        <ele>234.7</ele>
        <time>2022-03-06T08:50:00.000Z</time>
      </trkpt>
      <trkpt lat="43.30486" lon="2.23028">
        <ele>234.8</ele>
        <time>2022-03-06T08:50:01.000Z</time>
      </trkpt>
      <trkpt lat="43.30485" lon="2.23031">
        <ele>234.8</ele>
        <time>2022-03-06T08:50:02.000Z</time>
      </trkpt>
      <trkpt lat="43.30484" lon="2.23034">
        <ele>234.9</ele>
        <time>2022-03-06T08:50:03.000Z</time>
      </trkpt>
      <trkpt lat="43.30483" lon="2.23037">
        <ele>234.9</ele>
        <time>2022-03-06T08:50:04.000Z</time>
      </trkpt>
      <trkpt lat="43.30482" lon="2.2304">
        <ele>235</ele>
        <time>2022-03-06T08:50:05.000Z</time>
      </trkpt>
      <trkpt lat="43.3048" lon="2.23043">
        <ele>235</ele>
        <time>2022-03-06T08:50:06.000Z</time>
      </trkpt>
      <trkpt lat="43.30479" lon="2.23046">
        <ele>235</ele>
        <time>2022-03-06T08:50:07.000Z</time>
      </trkpt>
      <trkpt lat="43.30478" lon="2.23049">
        <ele>235.1</ele>
        <time>2022-03-06T08:50:08.000Z</time>
      </trkpt>
      <trkpt lat="43.30477" lon="2.23052">
        <ele>235.1</ele>
        <time>2022-03-06T08:50:09.000Z</time>
      </trkpt>
      <trkpt lat="43.30476" lon="2.23055">
        <ele>235.1</ele>
        <time>2022-03-06T08:50:10.000Z</time>
      </trkpt>
      <trkpt lat="43.30476" lon="2.23057">
        <ele>235.2</ele>
        <time>2022-03-06T08:50:11.000Z</time>
      </trkpt>
      <trkpt lat="43.30475" lon="2.2306">
        <ele>235.2</ele>
        <time>2022-03-06T08:50:12.000Z</time>
      </trkpt>
      <trkpt lat="43.30474" lon="2.23063">
        <ele>235.3</ele>
        <time>2022-03-06T08:50:13.000Z</time>
      </trkpt>
      <trkpt lat="43.30473" lon="2.23066">
        <ele>235.3</ele>
        <time>2022-03-06T08:50:14.000Z</time>
      </trkpt>
      <trkpt lat="43.30472" lon="2.23069">
        <ele>235.3</ele>
        <time>2022-03-06T08:50:15.000Z</time>
      </trkpt>
      <trkpt lat="43.30471" lon="2.23072">
        <ele>235.4</ele>
        <time>2022-03-06T08:50:16.000Z</time>
      </trkpt>
      <trkpt lat="43.3047" lon="2.23075">
        <ele>235.4</ele>
        <time>2022-03-06T08:50:17.000Z</time>
      </trkpt>
      <trkpt lat="43.30469" lon="2.23078">
        <ele>235.5</ele>
        <time>2022-03-06T08:50:18.000Z</time>
      </trkpt>
      <trkpt lat="43.30468" lon="2.23081">
        <ele>235.5</ele>
        <time>2022-03-06T08:50:19.000Z</time>
      </trkpt>
      <trkpt lat="43.30467" lon="2.23083">
        <ele>235.5</ele>
        <time>2022-03-06T08:50:20.000Z</time>
      </trkpt>
      <trkpt lat="43.30466" lon="2.23086">
        <ele>235.4</ele>
        <time>2022-03-06T08:50:21.000Z</time>
      </trkpt>
      <trkpt lat="43.30466" lon="2.2309">
        <ele>235.2</ele>
        <time>2022-03-06T08:50:22.000Z</time>
      </trkpt>
      <trkpt lat="43.30465" lon="2.23093">
        <ele>235</ele>
        <time>2022-03-06T08:50:23.000Z</time>
      </trkpt>
      <trkpt lat="43.30464" lon="2.23096">
        <ele>234.8</ele>
        <time>2022-03-06T08:50:24.000Z</time>
      </trkpt>
      <trkpt lat="43.30463" lon="2.23099">
        <ele>234.7</ele>
        <time>2022-03-06T08:50:25.000Z</time>
      </trkpt>
      <trkpt lat="43.30462" lon="2.23102">
        <ele>234.5</ele>
        <time>2022-03-06T08:50:26.000Z</time>
      </trkpt>
      <trkpt lat="43.30462" lon="2.23105">
        <ele>234.4</ele>
        <time>2022-03-06T08:50:27.000Z</time>
      </trkpt>
      <trkpt lat="43.30461" lon="2.23109">
        <ele>234.2</ele>
        <time>2022-03-06T08:50:28.000Z</time>
      </trkpt>
      <trkpt lat="43.3046" lon="2.23112">
        <ele>234.1</ele>
        <time>2022-03-06T08:50:29.000Z</time>
      </trkpt>
      <trkpt lat="43.3046" lon="2.23115">
        <ele>234</ele>
        <time>2022-03-06T08:50:30.000Z</time>
      </trkpt>
      <trkpt lat="43.30459" lon="2.23119">
        <ele>233.8</ele>
        <time>2022-03-06T08:50:31.000Z</time>
      </trkpt>
      <trkpt lat="43.30458" lon="2.23122">
        <ele>233.7</ele>
        <time>2022-03-06T08:50:32.000Z</time>
      </trkpt>
      <trkpt lat="43.30458" lon="2.23126">
        <ele>233.6</ele>
        <time>2022-03-06T08:50:33.000Z</time>
      </trkpt>
      <trkpt lat="43.30457" lon="2.23129">
        <ele>233.5</ele>
        <time>2022-03-06T08:50:34.000Z</time>
      </trkpt>
      <trkpt lat="43.30457" lon="2.23133">
        <ele>233.4</ele>
        <time>2022-03-06T08:50:35.000Z</time>
      </trkpt>
      <trkpt lat="43.30456" lon="2.23136">
        <ele>233.3</ele>
        <time>2022-03-06T08:50:36.000Z</time>
      </trkpt>
      <trkpt lat="43.30455" lon="2.23139">
        <ele>233.2</ele>
        <time>2022-03-06T08:50:37.000Z</time>
      </trkpt>
      <trkpt lat="43.30455" lon="2.23142">
        <ele>233</ele>
        <time>2022-03-06T08:50:38.000Z</time>
      </trkpt>
      <trkpt lat="43.30454" lon="2.23145">
        <ele>232.9</ele>
        <time>2022-03-06T08:50:39.000Z</time>
      </trkpt>
      <trkpt lat="43.30453" lon="2.23148">
        <ele>232.7</ele>
        <time>2022-03-06T08:50:40.000Z</time>
      </trkpt>
      <trkpt lat="43.30452" lon="2.2315">
        <ele>232.5</ele>
        <time>2022-03-06T08:50:41.000Z</time>
      </trkpt>
      <trkpt lat="43.3045" lon="2.23152">
        <ele>232.2</ele>
        <time>2022-03-06T08:50:42.000Z</time>
      </trkpt>
      <trkpt lat="43.30449" lon="2.23153">
        <ele>231.8</ele>
        <time>2022-03-06T08:50:43.000Z</time>
      </trkpt>
      <trkpt lat="43.30446" lon="2.23152">
        <ele>231.2</ele>
        <time>2022-03-06T08:50:44.000Z</time>
      </trkpt>
      <trkpt lat="43.30444" lon="2.23152">
        <ele>230.7</ele>
        <time>2022-03-06T08:50:45.000Z</time>
      </trkpt>
      <trkpt lat="43.30441" lon="2.23151">
        <ele>230.1</ele>
        <time>2022-03-06T08:50:46.000Z</time>
      </trkpt>
      <trkpt lat="43.30438" lon="2.23149">
        <ele>229.5</ele>
        <time>2022-03-06T08:50:47.000Z</time>
      </trkpt>
      <trkpt lat="43.30436" lon="2.23148">
        <ele>228.9</ele>
        <time>2022-03-06T08:50:48.000Z</time>
      </trkpt>
      <trkpt lat="43.30433" lon="2.23147">
        <ele>228.3</ele>
        <time>2022-03-06T08:50:49.000Z</time>
      </trkpt>
      <trkpt lat="43.30431" lon="2.23147">
        <ele>227.8</ele>
        <time>2022-03-06T08:50:50.000Z</time>
      </trkpt>
      <trkpt lat="43.30428" lon="2.23146">
        <ele>227.3</ele>
        <time>2022-03-06T08:50:51.000Z</time>
      </trkpt>
      <trkpt lat="43.30426" lon="2.23145">
        <ele>226.7</ele>
        <time>2022-03-06T08:50:52.000Z</time>
      </trkpt>
      <trkpt lat="43.30423" lon="2.23144">
        <ele>226.2</ele>
        <time>2022-03-06T08:50:53.000Z</time>
      </trkpt>
      <trkpt lat="43.30421" lon="2.23144">
        <ele>225.6</ele>
        <time>2022-03-06T08:50:54.000Z</time>
      </trkpt>
      <trkpt lat="43.30418" lon="2.23143">
        <ele>225.1</ele>
        <time>2022-03-06T08:50:55.000Z</time>
      </trkpt>
      <trkpt lat="43.30416" lon="2.23142">
        <ele>224.6</ele>
        <time>2022-03-06T08:50:56.000Z</time>
      </trkpt>
      <trkpt lat="43.30413" lon="2.23142">
        <ele>224.3</ele>
        <time>2022-03-06T08:50:57.000Z</time>
      </trkpt>
      <trkpt lat="43.30411" lon="2.23142">
        <ele>224</ele>
        <time>2022-03-06T08:50:58.000Z</time>
      </trkpt>
      <trkpt lat="43.30408" lon="2.23141">
        <ele>223.7</ele>
        <time>2022-03-06T08:50:59.000Z</time>
      </trkpt>
      <trkpt lat="43.30406" lon="2.23141">
        <ele>223.4</ele>
        <time>2022-03-06T08:51:00.000Z</time>
      </trkpt>
      <trkpt lat="43.30403" lon="2.23141">
        <ele>223.1</ele>
        <time>2022-03-06T08:51:01.000Z</time>
      </trkpt>
      <trkpt lat="43.30401" lon="2.2314">
        <ele>222.9</ele>
        <time>2022-03-06T08:51:02.000Z</time>
      </trkpt>
      <trkpt lat="43.30398" lon="2.2314">
        <ele>222.6</ele>
        <time>2022-03-06T08:51:03.000Z</time>
      </trkpt>
      <trkpt lat="43.30396" lon="2.2314">
        <ele>222.3</ele>
        <time>2022-03-06T08:51:04.000Z</time>
      </trkpt>
      <trkpt lat="43.30394" lon="2.2314">
        <ele>222</ele>
        <time>2022-03-06T08:51:05.000Z</time>
      </trkpt>
      <trkpt lat="43.30391" lon="2.2314">
        <ele>221.7</ele>
        <time>2022-03-06T08:51:06.000Z</time>
      </trkpt>
      <trkpt lat="43.30389" lon="2.2314">
        <ele>221.5</ele>
        <time>2022-03-06T08:51:07.000Z</time>
      </trkpt>
      <trkpt lat="43.30386" lon="2.2314">
        <ele>221.2</ele>
        <time>2022-03-06T08:51:08.000Z</time>
      </trkpt>
      <trkpt lat="43.30384" lon="2.2314">
        <ele>220.9</ele>
        <time>2022-03-06T08:51:09.000Z</time>
      </trkpt>
      <trkpt lat="43.30382" lon="2.2314">
        <ele>220.6</ele>
        <time>2022-03-06T08:51:10.000Z</time>
      </trkpt>
      <trkpt lat="43.30379" lon="2.2314">
        <ele>220.4</ele>
        <time>2022-03-06T08:51:11.000Z</time>
      </trkpt>
      <trkpt lat="43.30377" lon="2.2314">
        <ele>220.1</ele>
        <time>2022-03-06T08:51:12.000Z</time>
      </trkpt>
      <trkpt lat="43.30375" lon="2.23141">
        <ele>219.8</ele>
        <time>2022-03-06T08:51:13.000Z</time>
      </trkpt>
      <trkpt lat="43.30372" lon="2.23141">
        <ele>219.6</ele>
        <time>2022-03-06T08:51:14.000Z</time>
      </trkpt>
      <trkpt lat="43.3037" lon="2.23141">
        <ele>219.3</ele>
        <time>2022-03-06T08:51:15.000Z</time>
      </trkpt>
      <trkpt lat="43.30368" lon="2.23142">
        <ele>219.1</ele>
        <time>2022-03-06T08:51:16.000Z</time>
      </trkpt>
      <trkpt lat="43.30366" lon="2.23142">
        <ele>218.8</ele>
        <time>2022-03-06T08:51:17.000Z</time>
      </trkpt>
      <trkpt lat="43.30363" lon="2.23142">
        <ele>218.6</ele>
        <time>2022-03-06T08:51:18.000Z</time>
      </trkpt>
      <trkpt lat="43.30361" lon="2.23143">
        <ele>218.3</ele>
        <time>2022-03-06T08:51:19.000Z</time>
      </trkpt>
      <trkpt lat="43.30358" lon="2.23143">
        <ele>218</ele>
        <time>2022-03-06T08:51:20.000Z</time>
      </trkpt>
      <trkpt lat="43.30356" lon="2.23144">
        <ele>217.8</ele>
        <time>2022-03-06T08:51:21.000Z</time>
      </trkpt>
      <trkpt lat="43.30353" lon="2.23144">
        <ele>217.5</ele>
        <time>2022-03-06T08:51:22.000Z</time>
      </trkpt>
      <trkpt lat="43.30351" lon="2.23145">
        <ele>217.2</ele>
        <time>2022-03-06T08:51:23.000Z</time>
      </trkpt>
      <trkpt lat="43.30348" lon="2.23145">
        <ele>216.9</ele>
        <time>2022-03-06T08:51:24.000Z</time>
      </trkpt>
      <trkpt lat="43.30346" lon="2.23146">
        <ele>216.7</ele>
        <time>2022-03-06T08:51:25.000Z</time>
      </trkpt>
      <trkpt lat="43.30344" lon="2.23147">
        <ele>216.5</ele>
        <time>2022-03-06T08:51:26.000Z</time>
      </trkpt>
      <trkpt lat="43.30341" lon="2.23149">
        <ele>216.3</ele>
        <time>2022-03-06T08:51:27.000Z</time>
      </trkpt>
      <trkpt lat="43.30339" lon="2.23151">
        <ele>216.1</ele>
        <time>2022-03-06T08:51:28.000Z</time>
      </trkpt>
      <trkpt lat="43.30338" lon="2.23154">
        <ele>216</ele>
        <time>2022-03-06T08:51:29.000Z</time>
      </trkpt>
      <trkpt lat="43.30336" lon="2.23156">
        <ele>215.9</ele>
        <time>2022-03-06T08:51:30.000Z</time>
      </trkpt>
      <trkpt lat="43.30335" lon="2.2316">
        <ele>215.9</ele>
        <time>2022-03-06T08:51:31.000Z</time>
      </trkpt>
      <trkpt lat="43.30334" lon="2.23163">
        <ele>215.9</ele>
        <time>2022-03-06T08:51:32.000Z</time>
      </trkpt>
      <trkpt lat="43.30333" lon="2.23167">
        <ele>215.9</ele>
        <time>2022-03-06T08:51:33.000Z</time>
      </trkpt>
      <trkpt lat="43.30332" lon="2.23171">
        <ele>215.8</ele>
        <time>2022-03-06T08:51:34.000Z</time>
      </trkpt>
      <trkpt lat="43.30332" lon="2.23175">
        <ele>215.7</ele>
        <time>2022-03-06T08:51:35.000Z</time>
      </trkpt>
      <trkpt lat="43.30331" lon="2.23179">
        <ele>215.7</ele>
        <time>2022-03-06T08:51:36.000Z</time>
      </trkpt>
      <trkpt lat="43.30331" lon="2.23183">
        <ele>215.7</ele>
        <time>2022-03-06T08:51:37.000Z</time>
      </trkpt>
      <trkpt lat="43.30331" lon="2.23186">
        <ele>215.7</ele>
        <time>2022-03-06T08:51:38.000Z</time>
      </trkpt>
      <trkpt lat="43.30331" lon="2.2319">
        <ele>215.7</ele>
        <time>2022-03-06T08:51:39.000Z</time>
      </trkpt>
      <trkpt lat="43.30331" lon="2.23194">
        <ele>215.7</ele>
        <time>2022-03-06T08:51:40.000Z</time>
      </trkpt>
      <trkpt lat="43.30331" lon="2.23198">
        <ele>215.7</ele>
        <time>2022-03-06T08:51:41.000Z</time>
      </trkpt>
      <trkpt lat="43.30331" lon="2.23201">
        <ele>215.6</ele>
        <time>2022-03-06T08:51:42.000Z</time>
      </trkpt>
      <trkpt lat="43.30331" lon="2.23205">
        <ele>215.6</ele>
        <time>2022-03-06T08:51:43.000Z</time>
      </trkpt>
      <trkpt lat="43.3033" lon="2.23209">
        <ele>215.6</ele>
        <time>2022-03-06T08:51:44.000Z</time>
      </trkpt>
      <trkpt lat="43.3033" lon="2.23213">
        <ele>215.5</ele>
        <time>2022-03-06T08:51:45.000Z</time>
      </trkpt>
      <trkpt lat="43.3033" lon="2.23217">
        <ele>215.5</ele>
        <time>2022-03-06T08:51:46.000Z</time>
      </trkpt>
      <trkpt lat="43.30329" lon="2.23221">
        <ele>215.4</ele>
        <time>2022-03-06T08:51:47.000Z</time>
      </trkpt>
      <trkpt lat="43.30328" lon="2.23225">
        <ele>215.3</ele>
        <time>2022-03-06T08:51:48.000Z</time>
      </trkpt>
      <trkpt lat="43.30328" lon="2.23229">
        <ele>215.2</ele>
        <time>2022-03-06T08:51:49.000Z</time>
      </trkpt>
      <trkpt lat="43.30327" lon="2.23232">
        <ele>215.1</ele>
        <time>2022-03-06T08:51:50.000Z</time>
      </trkpt>
      <trkpt lat="43.30326" lon="2.23236">
        <ele>215.1</ele>
        <time>2022-03-06T08:51:51.000Z</time>
      </trkpt>
      <trkpt lat="43.30326" lon="2.2324">
        <ele>215</ele>
        <time>2022-03-06T08:51:52.000Z</time>
      </trkpt>
      <trkpt lat="43.30325" lon="2.23244">
        <ele>214.9</ele>
        <time>2022-03-06T08:51:53.000Z</time>
      </trkpt>
      <trkpt lat="43.30324" lon="2.23248">
        <ele>214.8</ele>
        <time>2022-03-06T08:51:54.000Z</time>
      </trkpt>
      <trkpt lat="43.30323" lon="2.23251">
        <ele>214.6</ele>
        <time>2022-03-06T08:51:55.000Z</time>
      </trkpt>
      <trkpt lat="43.30322" lon="2.23255">
        <ele>214.6</ele>
        <time>2022-03-06T08:51:56.000Z</time>
      </trkpt>
      <trkpt lat="43.30321" lon="2.23259">
        <ele>214.5</ele>
        <time>2022-03-06T08:51:57.000Z</time>
      </trkpt>
      <trkpt lat="43.30321" lon="2.23262">
        <ele>214.4</ele>
        <time>2022-03-06T08:51:58.000Z</time>
      </trkpt>
      <trkpt lat="43.3032" lon="2.23266">
        <ele>214.3</ele>
        <time>2022-03-06T08:51:59.000Z</time>
      </trkpt>
      <trkpt lat="43.30319" lon="2.23269">
        <ele>214.2</ele>
        <time>2022-03-06T08:52:00.000Z</time>
      </trkpt>
      <trkpt lat="43.30318" lon="2.23273">
        <ele>214.1</ele>
        <time>2022-03-06T08:52:01.000Z</time>
      </trkpt>
      <trkpt lat="43.30317" lon="2.23276">
        <ele>214</ele>
        <time>2022-03-06T08:52:02.000Z</time>
      </trkpt>
      <trkpt lat="43.30315" lon="2.23279">
        <ele>213.8</ele>
        <time>2022-03-06T08:52:03.000Z</time>
      </trkpt>
      <trkpt lat="43.30314" lon="2.23283">
        <ele>213.6</ele>
        <time>2022-03-06T08:52:04.000Z</time>
      </trkpt>
      <trkpt lat="43.30312" lon="2.23286">
        <ele>213.4</ele>
        <time>2022-03-06T08:52:05.000Z</time>
      </trkpt>
      <trkpt lat="43.30311" lon="2.23289">
        <ele>213.2</ele>
        <time>2022-03-06T08:52:06.000Z</time>
      </trkpt>
      <trkpt lat="43.30309" lon="2.23292">
        <ele>212.9</ele>
        <time>2022-03-06T08:52:07.000Z</time>
      </trkpt>
      <trkpt lat="43.30307" lon="2.23295">
        <ele>212.7</ele>
        <time>2022-03-06T08:52:08.000Z</time>
      </trkpt>
      <trkpt lat="43.30305" lon="2.23297">
        <ele>212.4</ele>
        <time>2022-03-06T08:52:09.000Z</time>
      </trkpt>
      <trkpt lat="43.30303" lon="2.233">
        <ele>212.1</ele>
        <time>2022-03-06T08:52:10.000Z</time>
      </trkpt>
      <trkpt lat="43.30301" lon="2.23303">
        <ele>211.8</ele>
        <time>2022-03-06T08:52:11.000Z</time>
      </trkpt>
      <trkpt lat="43.30299" lon="2.23305">
        <ele>211.6</ele>
        <time>2022-03-06T08:52:12.000Z</time>
      </trkpt>
      <trkpt lat="43.30297" lon="2.23308">
        <ele>211.3</ele>
        <time>2022-03-06T08:52:13.000Z</time>
      </trkpt>
      <trkpt lat="43.30296" lon="2.23311">
        <ele>211.1</ele>
        <time>2022-03-06T08:52:14.000Z</time>
      </trkpt>
      <trkpt lat="43.30294" lon="2.23314">
        <ele>210.9</ele>
        <time>2022-03-06T08:52:15.000Z</time>
      </trkpt>
      <trkpt lat="43.30293" lon="2.23317">
        <ele>210.7</ele>
        <time>2022-03-06T08:52:16.000Z</time>
      </trkpt>
      <trkpt lat="43.30291" lon="2.23319">
        <ele>210.4</ele>
        <time>2022-03-06T08:52:17.000Z</time>
      </trkpt>
      <trkpt lat="43.30289" lon="2.2332">
        <ele>210</ele>
        <time>2022-03-06T08:52:18.000Z</time>
      </trkpt>
      <trkpt lat="43.30286" lon="2.2332">
        <ele>209.6</ele>
        <time>2022-03-06T08:52:19.000Z</time>
      </trkpt>
      <trkpt lat="43.30283" lon="2.2332">
        <ele>209.2</ele>
        <time>2022-03-06T08:52:20.000Z</time>
      </trkpt>
      <trkpt lat="43.3028" lon="2.23319">
        <ele>208.7</ele>
        <time>2022-03-06T08:52:21.000Z</time>
      </trkpt>
      <trkpt lat="43.30277" lon="2.23317">
        <ele>208.3</ele>
        <time>2022-03-06T08:52:22.000Z</time>
      </trkpt>
      <trkpt lat="43.30275" lon="2.23315">
        <ele>207.9</ele>
        <time>2022-03-06T08:52:23.000Z</time>
      </trkpt>
      <trkpt lat="43.30272" lon="2.23313">
        <ele>207.6</ele>
        <time>2022-03-06T08:52:24.000Z</time>
      </trkpt>
      <trkpt lat="43.3027" lon="2.2331">
        <ele>207.2</ele>
        <time>2022-03-06T08:52:25.000Z</time>
      </trkpt>
      <trkpt lat="43.30267" lon="2.23308">
        <ele>206.9</ele>
        <time>2022-03-06T08:52:26.000Z</time>
      </trkpt>
      <trkpt lat="43.30265" lon="2.23306">
        <ele>206.5</ele>
        <time>2022-03-06T08:52:27.000Z</time>
      </trkpt>
      <trkpt lat="43.30262" lon="2.23304">
        <ele>206.2</ele>
        <time>2022-03-06T08:52:28.000Z</time>
      </trkpt>
      <trkpt lat="43.3026" lon="2.23302">
        <ele>205.8</ele>
        <time>2022-03-06T08:52:29.000Z</time>
      </trkpt>
      <trkpt lat="43.30257" lon="2.233">
        <ele>205.5</ele>
        <time>2022-03-06T08:52:30.000Z</time>
      </trkpt>
      <trkpt lat="43.30255" lon="2.23298">
        <ele>205.1</ele>
        <time>2022-03-06T08:52:31.000Z</time>
      </trkpt>
      <trkpt lat="43.30252" lon="2.23296">
        <ele>204.8</ele>
        <time>2022-03-06T08:52:32.000Z</time>
      </trkpt>
      <trkpt lat="43.3025" lon="2.23294">
        <ele>204.5</ele>
        <time>2022-03-06T08:52:33.000Z</time>
      </trkpt>
      <trkpt lat="43.30247" lon="2.23293">
        <ele>204.1</ele>
        <time>2022-03-06T08:52:34.000Z</time>
      </trkpt>
      <trkpt lat="43.30245" lon="2.23291">
        <ele>203.8</ele>
        <time>2022-03-06T08:52:35.000Z</time>
      </trkpt>
      <trkpt lat="43.30242" lon="2.23289">
        <ele>203.4</ele>
        <time>2022-03-06T08:52:36.000Z</time>
      </trkpt>
      <trkpt lat="43.3024" lon="2.23287">
        <ele>203.1</ele>
        <time>2022-03-06T08:52:37.000Z</time>
      </trkpt>
      <trkpt lat="43.30237" lon="2.23286">
        <ele>202.7</ele>
        <time>2022-03-06T08:52:38.000Z</time>
      </trkpt>
      <trkpt lat="43.30235" lon="2.23284">
        <ele>202.3</ele>
        <time>2022-03-06T08:52:39.000Z</time>
      </trkpt>
      <trkpt lat="43.30232" lon="2.23282">
        <ele>201.9</ele>
        <time>2022-03-06T08:52:40.000Z</time>
      </trkpt>
      <trkpt lat="43.3023" lon="2.23281">
        <ele>201.5</ele>
        <time>2022-03-06T08:52:41.000Z</time>
      </trkpt>
      <trkpt lat="43.30227" lon="2.23279">
        <ele>201.1</ele>
        <time>2022-03-06T08:52:42.000Z</time>
      </trkpt>
      <trkpt lat="43.30225" lon="2.23278">
        <ele>200.7</ele>
        <time>2022-03-06T08:52:43.000Z</time>
      </trkpt>
      <trkpt lat="43.30222" lon="2.23276">
        <ele>200.3</ele>
        <time>2022-03-06T08:52:44.000Z</time>
      </trkpt>
      <trkpt lat="43.3022" lon="2.23275">
        <ele>199.9</ele>
        <time>2022-03-06T08:52:45.000Z</time>
      </trkpt>
      <trkpt lat="43.30217" lon="2.23273">
        <ele>199.5</ele>
        <time>2022-03-06T08:52:46.000Z</time>
      </trkpt>
      <trkpt lat="43.30215" lon="2.23271">
        <ele>199.1</ele>
        <time>2022-03-06T08:52:47.000Z</time>
      </trkpt>
      <trkpt lat="43.30213" lon="2.2327">
        <ele>198.7</ele>
        <time>2022-03-06T08:52:48.000Z</time>
      </trkpt>
      <trkpt lat="43.3021" lon="2.23268">
        <ele>198.2</ele>
        <time>2022-03-06T08:52:49.000Z</time>
      </trkpt>
      <trkpt lat="43.30208" lon="2.23266">
        <ele>197.8</ele>
        <time>2022-03-06T08:52:50.000Z</time>
      </trkpt>
      <trkpt lat="43.30205" lon="2.23265">
        <ele>197.3</ele>
        <time>2022-03-06T08:52:51.000Z</time>
      </trkpt>
      <trkpt lat="43.30203" lon="2.23263">
        <ele>196.8</ele>
        <time>2022-03-06T08:52:52.000Z</time>
      </trkpt>
      <trkpt lat="43.302" lon="2.23261">
        <ele>196.4</ele>
        <time>2022-03-06T08:52:53.000Z</time>
      </trkpt>
      <trkpt lat="43.30198" lon="2.23259">
        <ele>195.9</ele>
        <time>2022-03-06T08:52:54.000Z</time>
      </trkpt>
      <trkpt lat="43.30196" lon="2.23257">
        <ele>195.4</ele>
        <time>2022-03-06T08:52:55.000Z</time>
      </trkpt>
      <trkpt lat="43.30193" lon="2.23255">
        <ele>195</ele>
        <time>2022-03-06T08:52:56.000Z</time>
      </trkpt>
      <trkpt lat="43.30191" lon="2.23253">
        <ele>194.5</ele>
        <time>2022-03-06T08:52:57.000Z</time>
      </trkpt>
      <trkpt lat="43.30189" lon="2.23251">
        <ele>194</ele>
        <time>2022-03-06T08:52:58.000Z</time>
      </trkpt>
      <trkpt lat="43.30186" lon="2.23249">
        <ele>193.5</ele>
        <time>2022-03-06T08:52:59.000Z</time>
      </trkpt>
      <trkpt lat="43.30184" lon="2.23247">
        <ele>193</ele>
        <time>2022-03-06T08:53:00.000Z</time>
      </trkpt>
      <trkpt lat="43.30182" lon="2.23245">
        <ele>192.5</ele>
        <time>2022-03-06T08:53:01.000Z</time>
      </trkpt>
      <trkpt lat="43.3018" lon="2.23244">
        <ele>192.1</ele>
        <time>2022-03-06T08:53:02.000Z</time>
      </trkpt>
      <trkpt lat="43.30178" lon="2.23242">
        <ele>191.7</ele>
        <time>2022-03-06T08:53:03.000Z</time>
      </trkpt>
      <trkpt lat="43.30176" lon="2.2324">
        <ele>191.3</ele>
        <time>2022-03-06T08:53:04.000Z</time>
      </trkpt>
      <trkpt lat="43.30175" lon="2.23237">
        <ele>190.9</ele>
        <time>2022-03-06T08:53:05.000Z</time>
      </trkpt>
      <trkpt lat="43.30174" lon="2.23235">
        <ele>190.6</ele>
        <time>2022-03-06T08:53:06.000Z</time>
      </trkpt>
      <trkpt lat="43.30173" lon="2.23231">
        <ele>190.2</ele>
        <time>2022-03-06T08:53:07.000Z</time>
      </trkpt>
      <trkpt lat="43.30172" lon="2.23228">
        <ele>189.9</ele>
        <time>2022-03-06T08:53:08.000Z</time>
      </trkpt>
      <trkpt lat="43.30171" lon="2.23225">
        <ele>189.6</ele>
        <time>2022-03-06T08:53:09.000Z</time>
      </trkpt>
      <trkpt lat="43.3017" lon="2.23222">
        <ele>189.3</ele>
        <time>2022-03-06T08:53:10.000Z</time>
      </trkpt>
      <trkpt lat="43.30169" lon="2.23219">
        <ele>189</ele>
        <time>2022-03-06T08:53:11.000Z</time>
      </trkpt>
      <trkpt lat="43.30168" lon="2.23217">
        <ele>188.7</ele>
        <time>2022-03-06T08:53:12.000Z</time>
      </trkpt>
      <trkpt lat="43.30167" lon="2.23214">
        <ele>188.4</ele>
        <time>2022-03-06T08:53:13.000Z</time>
      </trkpt>
      <trkpt lat="43.30166" lon="2.23212">
        <ele>188.2</ele>
        <time>2022-03-06T08:53:14.000Z</time>
      </trkpt>
      <trkpt lat="43.30166" lon="2.2321">
        <ele>188.2</ele>
        <time>2022-03-06T08:53:15.000Z</time>
      </trkpt>
      <trkpt lat="43.30165" lon="2.23209">
        <ele>188.2</ele>
        <time>2022-03-06T08:53:16.000Z</time>
      </trkpt>
      <trkpt lat="43.30164" lon="2.23207">
        <ele>188.1</ele>
        <time>2022-03-06T08:53:17.000Z</time>
      </trkpt>
      <trkpt lat="43.30164" lon="2.23206">
        <ele>188.1</ele>
        <time>2022-03-06T08:53:18.000Z</time>
      </trkpt>
      <trkpt lat="43.30163" lon="2.23205">
        <ele>188.1</ele>
        <time>2022-03-06T08:53:19.000Z</time>
      </trkpt>
      <trkpt lat="43.30163" lon="2.23204">
        <ele>188.1</ele>
        <time>2022-03-06T08:53:20.000Z</time>
      </trkpt>
      <trkpt lat="43.30163" lon="2.23203">
        <ele>188</ele>
        <time>2022-03-06T08:53:21.000Z</time>
      </trkpt>
      <trkpt lat="43.30163" lon="2.23201">
        <ele>187.9</ele>
        <time>2022-03-06T08:53:22.000Z</time>
      </trkpt>
      <trkpt lat="43.30163" lon="2.23199">
        <ele>187.9</ele>
        <time>2022-03-06T08:53:23.000Z</time>
      </trkpt>
      <trkpt lat="43.30163" lon="2.23197">
        <ele>187.7</ele>
        <time>2022-03-06T08:53:24.000Z</time>
      </trkpt>
      <trkpt lat="43.30164" lon="2.23195">
        <ele>187.6</ele>
        <time>2022-03-06T08:53:25.000Z</time>
      </trkpt>
      <trkpt lat="43.30164" lon="2.23193">
        <ele>187.4</ele>
        <time>2022-03-06T08:53:26.000Z</time>
      </trkpt>
      <trkpt lat="43.30165" lon="2.2319">
        <ele>187.3</ele>
        <time>2022-03-06T08:53:27.000Z</time>
      </trkpt>
      <trkpt lat="43.30165" lon="2.23187">
        <ele>187.1</ele>
        <time>2022-03-06T08:53:28.000Z</time>
      </trkpt>
      <trkpt lat="43.30166" lon="2.23184">
        <ele>186.9</ele>
        <time>2022-03-06T08:53:29.000Z</time>
      </trkpt>
      <trkpt lat="43.30167" lon="2.23181">
        <ele>186.7</ele>
        <time>2022-03-06T08:53:30.000Z</time>
      </trkpt>
      <trkpt lat="43.30167" lon="2.23178">
        <ele>186.7</ele>
        <time>2022-03-06T08:53:31.000Z</time>
      </trkpt>
      <trkpt lat="43.30168" lon="2.23175">
        <ele>186.7</ele>
        <time>2022-03-06T08:53:32.000Z</time>
      </trkpt>
      <trkpt lat="43.30169" lon="2.23171">
        <ele>186.7</ele>
        <time>2022-03-06T08:53:33.000Z</time>
      </trkpt>
      <trkpt lat="43.30169" lon="2.23168">
        <ele>186.6</ele>
        <time>2022-03-06T08:53:34.000Z</time>
      </trkpt>
      <trkpt lat="43.3017" lon="2.23164">
        <ele>186.6</ele>
        <time>2022-03-06T08:53:35.000Z</time>
      </trkpt>
      <trkpt lat="43.3017" lon="2.2316">
        <ele>186.5</ele>
        <time>2022-03-06T08:53:36.000Z</time>
      </trkpt>
      <trkpt lat="43.30171" lon="2.23157">
        <ele>186.4</ele>
        <time>2022-03-06T08:53:37.000Z</time>
      </trkpt>
      <trkpt lat="43.30171" lon="2.23153">
        <ele>186.3</ele>
        <time>2022-03-06T08:53:38.000Z</time>
      </trkpt>
      <trkpt lat="43.30171" lon="2.23149">
        <ele>186.1</ele>
        <time>2022-03-06T08:53:39.000Z</time>
      </trkpt>
      <trkpt lat="43.30171" lon="2.23145">
        <ele>186</ele>
        <time>2022-03-06T08:53:40.000Z</time>
      </trkpt>
      <trkpt lat="43.30171" lon="2.23141">
        <ele>185.8</ele>
        <time>2022-03-06T08:53:41.000Z</time>
      </trkpt>
      <trkpt lat="43.30171" lon="2.23138">
        <ele>185.6</ele>
        <time>2022-03-06T08:53:42.000Z</time>
      </trkpt>
      <trkpt lat="43.30171" lon="2.23134">
        <ele>185.4</ele>
        <time>2022-03-06T08:53:43.000Z</time>
      </trkpt>
      <trkpt lat="43.30171" lon="2.2313">
        <ele>185.3</ele>
        <time>2022-03-06T08:53:44.000Z</time>
      </trkpt>
      <trkpt lat="43.30171" lon="2.23126">
        <ele>185.1</ele>
        <time>2022-03-06T08:53:45.000Z</time>
      </trkpt>
      <trkpt lat="43.30171" lon="2.23122">
        <ele>184.9</ele>
        <time>2022-03-06T08:53:46.000Z</time>
      </trkpt>
      <trkpt lat="43.30172" lon="2.23118">
        <ele>184.7</ele>
        <time>2022-03-06T08:53:47.000Z</time>
      </trkpt>
      <trkpt lat="43.30172" lon="2.23115">
        <ele>184.6</ele>
        <time>2022-03-06T08:53:48.000Z</time>
      </trkpt>
      <trkpt lat="43.30172" lon="2.23111">
        <ele>184.4</ele>
        <time>2022-03-06T08:53:49.000Z</time>
      </trkpt>
      <trkpt lat="43.30172" lon="2.23107">
        <ele>184.3</ele>
        <time>2022-03-06T08:53:50.000Z</time>
      </trkpt>
      <trkpt lat="43.30172" lon="2.23104">
        <ele>184.2</ele>
        <time>2022-03-06T08:53:51.000Z</time>
      </trkpt>
      <trkpt lat="43.30173" lon="2.231">
        <ele>184.1</ele>
        <time>2022-03-06T08:53:52.000Z</time>
      </trkpt>
      <trkpt lat="43.30173" lon="2.23097">
        <ele>184.1</ele>
        <time>2022-03-06T08:53:53.000Z</time>
      </trkpt>
      <trkpt lat="43.30174" lon="2.23094">
        <ele>184</ele>
        <time>2022-03-06T08:53:54.000Z</time>
      </trkpt>
      <trkpt lat="43.30174" lon="2.2309">
        <ele>183.9</ele>
        <time>2022-03-06T08:53:55.000Z</time>
      </trkpt>
      <trkpt lat="43.30174" lon="2.23087">
        <ele>183.8</ele>
        <time>2022-03-06T08:53:56.000Z</time>
      </trkpt>
      <trkpt lat="43.30175" lon="2.23083">
        <ele>183.7</ele>
        <time>2022-03-06T08:53:57.000Z</time>
      </trkpt>
      <trkpt lat="43.30175" lon="2.2308">
        <ele>183.7</ele>
        <time>2022-03-06T08:53:58.000Z</time>
      </trkpt>
      <trkpt lat="43.30175" lon="2.23076">
        <ele>183.7</ele>
        <time>2022-03-06T08:53:59.000Z</time>
      </trkpt>
      <trkpt lat="43.30175" lon="2.23072">
        <ele>183.7</ele>
        <time>2022-03-06T08:54:00.000Z</time>
      </trkpt>
      <trkpt lat="43.30176" lon="2.23069">
        <ele>183.7</ele>
        <time>2022-03-06T08:54:01.000Z</time>
      </trkpt>
      <trkpt lat="43.30176" lon="2.23065">
        <ele>183.7</ele>
        <time>2022-03-06T08:54:02.000Z</time>
      </trkpt>
      <trkpt lat="43.30177" lon="2.23062">
        <ele>183.7</ele>
        <time>2022-03-06T08:54:03.000Z</time>
      </trkpt>
      <trkpt lat="43.30177" lon="2.23058">
        <ele>183.8</ele>
        <time>2022-03-06T08:54:04.000Z</time>
      </trkpt>
      <trkpt lat="43.30177" lon="2.23055">
        <ele>183.8</ele>
        <time>2022-03-06T08:54:05.000Z</time>
      </trkpt>
      <trkpt lat="43.30177" lon="2.23051">
        <ele>183.7</ele>
        <time>2022-03-06T08:54:06.000Z</time>
      </trkpt>
      <trkpt lat="43.30177" lon="2.23048">
        <ele>183.7</ele>
        <time>2022-03-06T08:54:07.000Z</time>
      </trkpt>
      <trkpt lat="43.30177" lon="2.23044">
        <ele>183.6</ele>
        <time>2022-03-06T08:54:08.000Z</time>
      </trkpt>
      <trkpt lat="43.30177" lon="2.2304">
        <ele>183.5</ele>
        <time>2022-03-06T08:54:09.000Z</time>
      </trkpt>
      <trkpt lat="43.30177" lon="2.23037">
        <ele>183.3</ele>
        <time>2022-03-06T08:54:10.000Z</time>
      </trkpt>
      <trkpt lat="43.30176" lon="2.23033">
        <ele>183.2</ele>
        <time>2022-03-06T08:54:11.000Z</time>
      </trkpt>
      <trkpt lat="43.30176" lon="2.2303">
        <ele>183</ele>
        <time>2022-03-06T08:54:12.000Z</time>
      </trkpt>
      <trkpt lat="43.30175" lon="2.23026">
        <ele>182.9</ele>
        <time>2022-03-06T08:54:13.000Z</time>
      </trkpt>
      <trkpt lat="43.30174" lon="2.23022">
        <ele>182.7</ele>
        <time>2022-03-06T08:54:14.000Z</time>
      </trkpt>
      <trkpt lat="43.30174" lon="2.23019">
        <ele>182.5</ele>
        <time>2022-03-06T08:54:15.000Z</time>
      </trkpt>
      <trkpt lat="43.30173" lon="2.23015">
        <ele>182.3</ele>
        <time>2022-03-06T08:54:16.000Z</time>
      </trkpt>
      <trkpt lat="43.30172" lon="2.23012">
        <ele>182.1</ele>
        <time>2022-03-06T08:54:17.000Z</time>
      </trkpt>
      <trkpt lat="43.30171" lon="2.23008">
        <ele>181.9</ele>
        <time>2022-03-06T08:54:18.000Z</time>
      </trkpt>
      <trkpt lat="43.3017" lon="2.23004">
        <ele>181.7</ele>
        <time>2022-03-06T08:54:19.000Z</time>
      </trkpt>
      <trkpt lat="43.30169" lon="2.23001">
        <ele>181.5</ele>
        <time>2022-03-06T08:54:20.000Z</time>
      </trkpt>
      <trkpt lat="43.30168" lon="2.22997">
        <ele>181.2</ele>
        <time>2022-03-06T08:54:21.000Z</time>
      </trkpt>
      <trkpt lat="43.30168" lon="2.22994">
        <ele>181</ele>
        <time>2022-03-06T08:54:22.000Z</time>
      </trkpt>
      <trkpt lat="43.30167" lon="2.2299">
        <ele>180.8</ele>
        <time>2022-03-06T08:54:23.000Z</time>
      </trkpt>
      <trkpt lat="43.30166" lon="2.22987">
        <ele>180.6</ele>
        <time>2022-03-06T08:54:24.000Z</time>
      </trkpt>
      <trkpt lat="43.30165" lon="2.22983">
        <ele>180.5</ele>
        <time>2022-03-06T08:54:25.000Z</time>
      </trkpt>
      <trkpt lat="43.30164" lon="2.2298">
        <ele>180.4</ele>
        <time>2022-03-06T08:54:26.000Z</time>
      </trkpt>
      <trkpt lat="43.30163" lon="2.22976">
        <ele>180.2</ele>
        <time>2022-03-06T08:54:27.000Z</time>
      </trkpt>
      <trkpt lat="43.30162" lon="2.22973">
        <ele>180.1</ele>
        <time>2022-03-06T08:54:28.000Z</time>
      </trkpt>
      <trkpt lat="43.30161" lon="2.22969">
        <ele>179.9</ele>
        <time>2022-03-06T08:54:29.000Z</time>
      </trkpt>
      <trkpt lat="43.3016" lon="2.22966">
        <ele>179.8</ele>
        <time>2022-03-06T08:54:30.000Z</time>
      </trkpt>
      <trkpt lat="43.30159" lon="2.22962">
        <ele>179.6</ele>
        <time>2022-03-06T08:54:31.000Z</time>
      </trkpt>
      <trkpt lat="43.30158" lon="2.22959">
        <ele>179.4</ele>
        <time>2022-03-06T08:54:32.000Z</time>
      </trkpt>
      <trkpt lat="43.30157" lon="2.22955">
        <ele>179.3</ele>
        <time>2022-03-06T08:54:33.000Z</time>
      </trkpt>
      <trkpt lat="43.30156" lon="2.22951">
        <ele>179.1</ele>
        <time>2022-03-06T08:54:34.000Z</time>
      </trkpt>
      <trkpt lat="43.30155" lon="2.22948">
        <ele>178.9</ele>
        <time>2022-03-06T08:54:35.000Z</time>
      </trkpt>
      <trkpt lat="43.30155" lon="2.22944">
        <ele>178.7</ele>
        <time>2022-03-06T08:54:36.000Z</time>
      </trkpt>
      <trkpt lat="43.30154" lon="2.2294">
        <ele>178.6</ele>
        <time>2022-03-06T08:54:37.000Z</time>
      </trkpt>
      <trkpt lat="43.30153" lon="2.22937">
        <ele>178.4</ele>
        <time>2022-03-06T08:54:38.000Z</time>
      </trkpt>
      <trkpt lat="43.30152" lon="2.22933">
        <ele>178.2</ele>
        <time>2022-03-06T08:54:39.000Z</time>
      </trkpt>
      <trkpt lat="43.30152" lon="2.22929">
        <ele>178</ele>
        <time>2022-03-06T08:54:40.000Z</time>
      </trkpt>
      <trkpt lat="43.30151" lon="2.22926">
        <ele>177.8</ele>
        <time>2022-03-06T08:54:41.000Z</time>
      </trkpt>
      <trkpt lat="43.30151" lon="2.22922">
        <ele>177.6</ele>
        <time>2022-03-06T08:54:42.000Z</time>
      </trkpt>
      <trkpt lat="43.3015" lon="2.22918">
        <ele>177.5</ele>
        <time>2022-03-06T08:54:43.000Z</time>
      </trkpt>
      <trkpt lat="43.3015" lon="2.22915">
        <ele>177.3</ele>
        <time>2022-03-06T08:54:44.000Z</time>
      </trkpt>
      <trkpt lat="43.30149" lon="2.22911">
        <ele>177.2</ele>
        <time>2022-03-06T08:54:45.000Z</time>
      </trkpt>
      <trkpt lat="43.30149" lon="2.22907">
        <ele>177.2</ele>
        <time>2022-03-06T08:54:46.000Z</time>
      </trkpt>
      <trkpt lat="43.30148" lon="2.22904">
        <ele>177.1</ele>
        <time>2022-03-06T08:54:47.000Z</time>
      </trkpt>
      <trkpt lat="43.30148" lon="2.229">
        <ele>177</ele>
        <time>2022-03-06T08:54:48.000Z</time>
      </trkpt>
      <trkpt lat="43.30148" lon="2.22896">
        <ele>177</ele>
        <time>2022-03-06T08:54:49.000Z</time>
      </trkpt>
      <trkpt lat="43.30148" lon="2.22893">
        <ele>176.9</ele>
        <time>2022-03-06T08:54:50.000Z</time>
      </trkpt>
      <trkpt lat="43.30148" lon="2.22889">
        <ele>176.9</ele>
        <time>2022-03-06T08:54:51.000Z</time>
      </trkpt>
      <trkpt lat="43.30147" lon="2.22886">
        <ele>176.8</ele>
        <time>2022-03-06T08:54:52.000Z</time>
      </trkpt>
      <trkpt lat="43.30147" lon="2.22882">
        <ele>176.8</ele>
        <time>2022-03-06T08:54:53.000Z</time>
      </trkpt>
      <trkpt lat="43.30147" lon="2.22878">
        <ele>176.7</ele>
        <time>2022-03-06T08:54:54.000Z</time>
      </trkpt>
      <trkpt lat="43.30147" lon="2.22875">
        <ele>176.7</ele>
        <time>2022-03-06T08:54:55.000Z</time>
      </trkpt>
      <trkpt lat="43.30147" lon="2.22871">
        <ele>176.6</ele>
        <time>2022-03-06T08:54:56.000Z</time>
      </trkpt>
      <trkpt lat="43.30147" lon="2.22868">
        <ele>176.6</ele>
        <time>2022-03-06T08:54:57.000Z</time>
      </trkpt>
      <trkpt lat="43.30147" lon="2.22864">
        <ele>176.5</ele>
        <time>2022-03-06T08:54:58.000Z</time>
      </trkpt>
      <trkpt lat="43.30147" lon="2.22861">
        <ele>176.5</ele>
        <time>2022-03-06T08:54:59.000Z</time>
      </trkpt>
      <trkpt lat="43.30147" lon="2.22857">
        <ele>176.4</ele>
        <time>2022-03-06T08:55:00.000Z</time>
      </trkpt>
      <trkpt lat="43.30147" lon="2.22854">
        <ele>176.4</ele>
        <time>2022-03-06T08:55:01.000Z</time>
      </trkpt>
      <trkpt lat="43.30147" lon="2.22851">
        <ele>176.3</ele>
        <time>2022-03-06T08:55:02.000Z</time>
      </trkpt>
      <trkpt lat="43.30147" lon="2.22847">
        <ele>176.3</ele>
        <time>2022-03-06T08:55:03.000Z</time>
      </trkpt>
      <trkpt lat="43.30147" lon="2.22844">
        <ele>176.2</ele>
        <time>2022-03-06T08:55:04.000Z</time>
      </trkpt>
      <trkpt lat="43.30147" lon="2.2284">
        <ele>176.2</ele>
        <time>2022-03-06T08:55:05.000Z</time>
      </trkpt>
      <trkpt lat="43.30147" lon="2.22837">
        <ele>176.1</ele>
        <time>2022-03-06T08:55:06.000Z</time>
      </trkpt>
      <trkpt lat="43.30146" lon="2.22833">
        <ele>176.1</ele>
        <time>2022-03-06T08:55:07.000Z</time>
      </trkpt>
      <trkpt lat="43.30146" lon="2.2283">
        <ele>176</ele>
        <time>2022-03-06T08:55:08.000Z</time>
      </trkpt>
      <trkpt lat="43.30146" lon="2.22827">
        <ele>175.9</ele>
        <time>2022-03-06T08:55:09.000Z</time>
      </trkpt>
      <trkpt lat="43.30146" lon="2.22823">
        <ele>175.8</ele>
        <time>2022-03-06T08:55:10.000Z</time>
      </trkpt>
      <trkpt lat="43.30146" lon="2.2282">
        <ele>175.7</ele>
        <time>2022-03-06T08:55:11.000Z</time>
      </trkpt>
      <trkpt lat="43.30146" lon="2.22816">
        <ele>175.6</ele>
        <time>2022-03-06T08:55:12.000Z</time>
      </trkpt>
      <trkpt lat="43.30146" lon="2.22813">
        <ele>175.6</ele>
        <time>2022-03-06T08:55:13.000Z</time>
      </trkpt>
      <trkpt lat="43.30146" lon="2.22809">
        <ele>175.5</ele>
        <time>2022-03-06T08:55:14.000Z</time>
      </trkpt>
      <trkpt lat="43.30146" lon="2.22806">
        <ele>175.4</ele>
        <time>2022-03-06T08:55:15.000Z</time>
      </trkpt>
      <trkpt lat="43.30146" lon="2.22802">
        <ele>175.4</ele>
        <time>2022-03-06T08:55:16.000Z</time>
      </trkpt>
      <trkpt lat="43.30146" lon="2.22798">
        <ele>175.3</ele>
        <time>2022-03-06T08:55:17.000Z</time>
      </trkpt>
      <trkpt lat="43.30146" lon="2.22795">
        <ele>175.2</ele>
        <time>2022-03-06T08:55:18.000Z</time>
      </trkpt>
      <trkpt lat="43.30146" lon="2.22791">
        <ele>175.1</ele>
        <time>2022-03-06T08:55:19.000Z</time>
      </trkpt>
      <trkpt lat="43.30146" lon="2.22787">
        <ele>175.1</ele>
        <time>2022-03-06T08:55:20.000Z</time>
      </trkpt>
      <trkpt lat="43.30146" lon="2.22784">
        <ele>175</ele>
        <time>2022-03-06T08:55:21.000Z</time>
      </trkpt>
      <trkpt lat="43.30146" lon="2.22781">
        <ele>174.9</ele>
        <time>2022-03-06T08:55:22.000Z</time>
      </trkpt>
      <trkpt lat="43.30145" lon="2.22777">
        <ele>174.8</ele>
        <time>2022-03-06T08:55:23.000Z</time>
      </trkpt>
      <trkpt lat="43.30145" lon="2.22774">
        <ele>174.6</ele>
        <time>2022-03-06T08:55:24.000Z</time>
      </trkpt>
      <trkpt lat="43.30144" lon="2.22771">
        <ele>174.5</ele>
        <time>2022-03-06T08:55:25.000Z</time>
      </trkpt>
      <trkpt lat="43.30144" lon="2.22768">
        <ele>174.3</ele>
        <time>2022-03-06T08:55:26.000Z</time>
      </trkpt>
      <trkpt lat="43.30143" lon="2.22765">
        <ele>174.1</ele>
        <time>2022-03-06T08:55:27.000Z</time>
      </trkpt>
      <trkpt lat="43.30141" lon="2.22762">
        <ele>173.9</ele>
        <time>2022-03-06T08:55:28.000Z</time>
      </trkpt>
      <trkpt lat="43.3014" lon="2.22758">
        <ele>173.7</ele>
        <time>2022-03-06T08:55:29.000Z</time>
      </trkpt>
      <trkpt lat="43.30139" lon="2.22755">
        <ele>173.4</ele>
        <time>2022-03-06T08:55:30.000Z</time>
      </trkpt>
      <trkpt lat="43.30137" lon="2.22751">
        <ele>173.1</ele>
        <time>2022-03-06T08:55:31.000Z</time>
      </trkpt>
      <trkpt lat="43.30136" lon="2.22747">
        <ele>172.8</ele>
        <time>2022-03-06T08:55:32.000Z</time>
      </trkpt>
      <trkpt lat="43.30134" lon="2.22743">
        <ele>172.3</ele>
        <time>2022-03-06T08:55:33.000Z</time>
      </trkpt>
      <trkpt lat="43.30133" lon="2.2274">
        <ele>172</ele>
        <time>2022-03-06T08:55:34.000Z</time>
      </trkpt>
      <trkpt lat="43.30131" lon="2.22737">
        <ele>171.7</ele>
        <time>2022-03-06T08:55:35.000Z</time>
      </trkpt>
      <trkpt lat="43.3013" lon="2.22734">
        <ele>171.4</ele>
        <time>2022-03-06T08:55:36.000Z</time>
      </trkpt>
      <trkpt lat="43.30129" lon="2.22732">
        <ele>171.1</ele>
        <time>2022-03-06T08:55:37.000Z</time>
      </trkpt>
      <trkpt lat="43.30128" lon="2.2273">
        <ele>171</ele>
        <time>2022-03-06T08:55:38.000Z</time>
      </trkpt>
      <trkpt lat="43.30128" lon="2.22729">
        <ele>170.8</ele>
        <time>2022-03-06T08:55:39.000Z</time>
      </trkpt>
      <trkpt lat="43.30128" lon="2.22728">
        <ele>170.7</ele>
        <time>2022-03-06T08:55:40.000Z</time>
      </trkpt>
      <trkpt lat="43.30127" lon="2.22727">
        <ele>170.7</ele>
        <time>2022-03-06T08:55:41.000Z</time>
      </trkpt>
      <trkpt lat="43.30127" lon="2.22727">
        <ele>170.6</ele>
        <time>2022-03-06T08:55:42.000Z</time>
      </trkpt>
      <trkpt lat="43.30127" lon="2.22727">
        <ele>170.6</ele>
        <time>2022-03-06T08:55:43.000Z</time>
      </trkpt>
      <trkpt lat="43.30127" lon="2.22726">
        <ele>170.6</ele>
        <time>2022-03-06T08:55:44.000Z</time>
      </trkpt>
      <trkpt lat="43.30127" lon="2.22726">
        <ele>170.6</ele>
        <time>2022-03-06T08:55:45.000Z</time>
      </trkpt>
      <trkpt lat="43.30127" lon="2.22726">
        <ele>170.6</ele>
        <time>2022-03-06T08:55:46.000Z</time>
      </trkpt>
      <trkpt lat="43.30127" lon="2.22726">
        <ele>170.6</ele>
        <time>2022-03-06T08:55:47.000Z</time>
      </trkpt>
      <trkpt lat="43.30127" lon="2.22726">
        <ele>170.6</ele>
        <time>2022-03-06T08:55:48.000Z</time>
      </trkpt>
      <trkpt lat="43.30127" lon="2.22727">
        <ele>170.6</ele>
        <time>2022-03-06T08:55:49.000Z</time>
      </trkpt>
      <trkpt lat="43.30127" lon="2.22728">
        <ele>170.6</ele>
        <time>2022-03-06T08:55:50.000Z</time>
      </trkpt>
      <trkpt lat="43.30127" lon="2.22728">
        <ele>170.7</ele>
        <time>2022-03-06T08:55:51.000Z</time>
      </trkpt>
      <trkpt lat="43.30127" lon="2.2273">
        <ele>170.7</ele>
        <time>2022-03-06T08:55:52.000Z</time>
      </trkpt>
      <trkpt lat="43.30126" lon="2.22731">
        <ele>170.7</ele>
        <time>2022-03-06T08:55:53.000Z</time>
      </trkpt>
      <trkpt lat="43.30126" lon="2.22732">
        <ele>170.7</ele>
        <time>2022-03-06T08:55:54.000Z</time>
      </trkpt>
      <trkpt lat="43.30125" lon="2.22733">
        <ele>170.7</ele>
        <time>2022-03-06T08:55:55.000Z</time>
      </trkpt>
      <trkpt lat="43.30125" lon="2.22735">
        <ele>170.7</ele>
        <time>2022-03-06T08:55:56.000Z</time>
      </trkpt>
      <trkpt lat="43.30124" lon="2.22736">
        <ele>170.7</ele>
        <time>2022-03-06T08:55:57.000Z</time>
      </trkpt>
      <trkpt lat="43.30123" lon="2.22737">
        <ele>170.6</ele>
        <time>2022-03-06T08:55:58.000Z</time>
      </trkpt>
      <trkpt lat="43.30122" lon="2.22738">
        <ele>170.5</ele>
        <time>2022-03-06T08:55:59.000Z</time>
      </trkpt>
      <trkpt lat="43.3012" lon="2.22738">
        <ele>170.3</ele>
        <time>2022-03-06T08:56:00.000Z</time>
      </trkpt>
      <trkpt lat="43.30119" lon="2.22739">
        <ele>170.2</ele>
        <time>2022-03-06T08:56:01.000Z</time>
      </trkpt>
      <trkpt lat="43.30118" lon="2.2274">
        <ele>170.1</ele>
        <time>2022-03-06T08:56:02.000Z</time>
      </trkpt>
      <trkpt lat="43.30117" lon="2.22741">
        <ele>170</ele>
        <time>2022-03-06T08:56:03.000Z</time>
      </trkpt>
      <trkpt lat="43.30116" lon="2.22742">
        <ele>169.9</ele>
        <time>2022-03-06T08:56:04.000Z</time>
      </trkpt>
      <trkpt lat="43.30115" lon="2.22743">
        <ele>169.9</ele>
        <time>2022-03-06T08:56:05.000Z</time>
      </trkpt>
      <trkpt lat="43.30114" lon="2.22745">
        <ele>169.8</ele>
        <time>2022-03-06T08:56:06.000Z</time>
      </trkpt>
      <trkpt lat="43.30114" lon="2.22746">
        <ele>169.8</ele>
        <time>2022-03-06T08:56:07.000Z</time>
      </trkpt>
      <trkpt lat="43.30113" lon="2.22748">
        <ele>169.8</ele>
        <time>2022-03-06T08:56:08.000Z</time>
      </trkpt>
      <trkpt lat="43.30113" lon="2.2275">
        <ele>169.9</ele>
        <time>2022-03-06T08:56:09.000Z</time>
      </trkpt>
      <trkpt lat="43.30112" lon="2.22752">
        <ele>169.9</ele>
        <time>2022-03-06T08:56:10.000Z</time>
      </trkpt>
      <trkpt lat="43.30112" lon="2.22754">
        <ele>169.9</ele>
        <time>2022-03-06T08:56:11.000Z</time>
      </trkpt>
      <trkpt lat="43.30112" lon="2.22756">
        <ele>169.9</ele>
        <time>2022-03-06T08:56:12.000Z</time>
      </trkpt>
      <trkpt lat="43.30112" lon="2.22758">
        <ele>169.9</ele>
        <time>2022-03-06T08:56:13.000Z</time>
      </trkpt>
      <trkpt lat="43.30112" lon="2.2276">
        <ele>169.9</ele>
        <time>2022-03-06T08:56:14.000Z</time>
      </trkpt>
      <trkpt lat="43.30112" lon="2.22762">
        <ele>169.9</ele>
        <time>2022-03-06T08:56:15.000Z</time>
      </trkpt>
      <trkpt lat="43.30112" lon="2.22764">
        <ele>169.9</ele>
        <time>2022-03-06T08:56:16.000Z</time>
      </trkpt>
      <trkpt lat="43.30111" lon="2.22766">
        <ele>170</ele>
        <time>2022-03-06T08:56:17.000Z</time>
      </trkpt>
      <trkpt lat="43.30111" lon="2.22769">
        <ele>170</ele>
        <time>2022-03-06T08:56:18.000Z</time>
      </trkpt>
      <trkpt lat="43.30111" lon="2.22772">
        <ele>170</ele>
        <time>2022-03-06T08:56:19.000Z</time>
      </trkpt>
      <trkpt lat="43.3011" lon="2.22775">
        <ele>169.9</ele>
        <time>2022-03-06T08:56:20.000Z</time>
      </trkpt>
      <trkpt lat="43.3011" lon="2.22778">
        <ele>169.9</ele>
        <time>2022-03-06T08:56:21.000Z</time>
      </trkpt>
      <trkpt lat="43.30109" lon="2.22781">
        <ele>169.9</ele>
        <time>2022-03-06T08:56:22.000Z</time>
      </trkpt>
      <trkpt lat="43.30108" lon="2.22784">
        <ele>169.8</ele>
        <time>2022-03-06T08:56:23.000Z</time>
      </trkpt>
      <trkpt lat="43.30108" lon="2.22787">
        <ele>169.8</ele>
        <time>2022-03-06T08:56:24.000Z</time>
      </trkpt>
      <trkpt lat="43.30106" lon="2.22791">
        <ele>169.7</ele>
        <time>2022-03-06T08:56:25.000Z</time>
      </trkpt>
      <trkpt lat="43.30105" lon="2.22794">
        <ele>169.5</ele>
        <time>2022-03-06T08:56:26.000Z</time>
      </trkpt>
      <trkpt lat="43.30104" lon="2.22796">
        <ele>169.4</ele>
        <time>2022-03-06T08:56:27.000Z</time>
      </trkpt>
      <trkpt lat="43.30102" lon="2.22799">
        <ele>169.2</ele>
        <time>2022-03-06T08:56:28.000Z</time>
      </trkpt>
      <trkpt lat="43.301" lon="2.22802">
        <ele>169</ele>
        <time>2022-03-06T08:56:29.000Z</time>
      </trkpt>
      <trkpt lat="43.30099" lon="2.22804">
        <ele>168.8</ele>
        <time>2022-03-06T08:56:30.000Z</time>
      </trkpt>
      <trkpt lat="43.30097" lon="2.22807">
        <ele>168.6</ele>
        <time>2022-03-06T08:56:31.000Z</time>
      </trkpt>
      <trkpt lat="43.30096" lon="2.2281">
        <ele>168.4</ele>
        <time>2022-03-06T08:56:32.000Z</time>
      </trkpt>
      <trkpt lat="43.30094" lon="2.22813">
        <ele>168.3</ele>
        <time>2022-03-06T08:56:33.000Z</time>
      </trkpt>
      <trkpt lat="43.30094" lon="2.22816">
        <ele>168.2</ele>
        <time>2022-03-06T08:56:34.000Z</time>
      </trkpt>
      <trkpt lat="43.30093" lon="2.22819">
        <ele>168.2</ele>
        <time>2022-03-06T08:56:35.000Z</time>
      </trkpt>
      <trkpt lat="43.30093" lon="2.22823">
        <ele>168.2</ele>
        <time>2022-03-06T08:56:36.000Z</time>
      </trkpt>
      <trkpt lat="43.30092" lon="2.22827">
        <ele>168.2</ele>
        <time>2022-03-06T08:56:37.000Z</time>
      </trkpt>
      <trkpt lat="43.30092" lon="2.2283">
        <ele>168.2</ele>
        <time>2022-03-06T08:56:38.000Z</time>
      </trkpt>
      <trkpt lat="43.30092" lon="2.22834">
        <ele>168.2</ele>
        <time>2022-03-06T08:56:39.000Z</time>
      </trkpt>
      <trkpt lat="43.30091" lon="2.22837">
        <ele>168.3</ele>
        <time>2022-03-06T08:56:40.000Z</time>
      </trkpt>
      <trkpt lat="43.3009" lon="2.2284">
        <ele>168.3</ele>
        <time>2022-03-06T08:56:41.000Z</time>
      </trkpt>
      <trkpt lat="43.30089" lon="2.22843">
        <ele>168.3</ele>
        <time>2022-03-06T08:56:42.000Z</time>
      </trkpt>
      <trkpt lat="43.30088" lon="2.22846">
        <ele>168.2</ele>
        <time>2022-03-06T08:56:43.000Z</time>
      </trkpt>
      <trkpt lat="43.30087" lon="2.22848">
        <ele>168.1</ele>
        <time>2022-03-06T08:56:44.000Z</time>
      </trkpt>
      <trkpt lat="43.30085" lon="2.2285">
        <ele>168</ele>
        <time>2022-03-06T08:56:45.000Z</time>
      </trkpt>
      <trkpt lat="43.30083" lon="2.22852">
        <ele>167.9</ele>
        <time>2022-03-06T08:56:46.000Z</time>
      </trkpt>
      <trkpt lat="43.30082" lon="2.22854">
        <ele>168.3</ele>
        <time>2022-03-06T08:56:47.000Z</time>
      </trkpt>
      <trkpt lat="43.3008" lon="2.22856">
        <ele>168.7</ele>
        <time>2022-03-06T08:56:48.000Z</time>
      </trkpt>
      <trkpt lat="43.30078" lon="2.22857">
        <ele>169.1</ele>
        <time>2022-03-06T08:56:49.000Z</time>
      </trkpt>
      <trkpt lat="43.30076" lon="2.22859">
        <ele>169.5</ele>
        <time>2022-03-06T08:56:50.000Z</time>
      </trkpt>
      <trkpt lat="43.30075" lon="2.2286">
        <ele>169.9</ele>
        <time>2022-03-06T08:56:51.000Z</time>
      </trkpt>
      <trkpt lat="43.30073" lon="2.22861">
        <ele>170.3</ele>
        <time>2022-03-06T08:56:52.000Z</time>
      </trkpt>
      <trkpt lat="43.30072" lon="2.22863">
        <ele>170.6</ele>
        <time>2022-03-06T08:56:53.000Z</time>
      </trkpt>
      <trkpt lat="43.3007" lon="2.22864">
        <ele>170.9</ele>
        <time>2022-03-06T08:56:54.000Z</time>
      </trkpt>
      <trkpt lat="43.3007" lon="2.22865">
        <ele>171.1</ele>
        <time>2022-03-06T08:56:55.000Z</time>
      </trkpt>
      <trkpt lat="43.30069" lon="2.22866">
        <ele>171.3</ele>
        <time>2022-03-06T08:56:56.000Z</time>
      </trkpt>
      <trkpt lat="43.30069" lon="2.22867">
        <ele>171.5</ele>
        <time>2022-03-06T08:56:57.000Z</time>
      </trkpt>
      <trkpt lat="43.30068" lon="2.22868">
        <ele>171.6</ele>
        <time>2022-03-06T08:56:58.000Z</time>
      </trkpt>
      <trkpt lat="43.30068" lon="2.22869">
        <ele>171.7</ele>
        <time>2022-03-06T08:56:59.000Z</time>
      </trkpt>
      <trkpt lat="43.30068" lon="2.2287">
        <ele>171.9</ele>
        <time>2022-03-06T08:57:00.000Z</time>
      </trkpt>
      <trkpt lat="43.30067" lon="2.22871">
        <ele>172.1</ele>
        <time>2022-03-06T08:57:01.000Z</time>
      </trkpt>
      <trkpt lat="43.30066" lon="2.22873">
        <ele>172.3</ele>
        <time>2022-03-06T08:57:02.000Z</time>
      </trkpt>
      <trkpt lat="43.30066" lon="2.22874">
        <ele>172.5</ele>
        <time>2022-03-06T08:57:03.000Z</time>
      </trkpt>
      <trkpt lat="43.30065" lon="2.22876">
        <ele>172.8</ele>
        <time>2022-03-06T08:57:04.000Z</time>
      </trkpt>
      <trkpt lat="43.30064" lon="2.22877">
        <ele>173.1</ele>
        <time>2022-03-06T08:57:05.000Z</time>
      </trkpt>
      <trkpt lat="43.30063" lon="2.22879">
        <ele>173.5</ele>
        <time>2022-03-06T08:57:06.000Z</time>
      </trkpt>
      <trkpt lat="43.30062" lon="2.22881">
        <ele>173.8</ele>
        <time>2022-03-06T08:57:07.000Z</time>
      </trkpt>
      <trkpt lat="43.30061" lon="2.22882">
        <ele>174.1</ele>
        <time>2022-03-06T08:57:08.000Z</time>
      </trkpt>
      <trkpt lat="43.3006" lon="2.22884">
        <ele>174.4</ele>
        <time>2022-03-06T08:57:09.000Z</time>
      </trkpt>
      <trkpt lat="43.3006" lon="2.22886">
        <ele>174.7</ele>
        <time>2022-03-06T08:57:10.000Z</time>
      </trkpt>
      <trkpt lat="43.30059" lon="2.22888">
        <ele>175</ele>
        <time>2022-03-06T08:57:11.000Z</time>
      </trkpt>
      <trkpt lat="43.30058" lon="2.2289">
        <ele>175.3</ele>
        <time>2022-03-06T08:57:12.000Z</time>
      </trkpt>
      <trkpt lat="43.30058" lon="2.22892">
        <ele>175.6</ele>
        <time>2022-03-06T08:57:13.000Z</time>
      </trkpt>
      <trkpt lat="43.30057" lon="2.22894">
        <ele>175.8</ele>
        <time>2022-03-06T08:57:14.000Z</time>
      </trkpt>
      <trkpt lat="43.30056" lon="2.22895">
        <ele>176.1</ele>
        <time>2022-03-06T08:57:15.000Z</time>
      </trkpt>
      <trkpt lat="43.30056" lon="2.22896">
        <ele>176.4</ele>
        <time>2022-03-06T08:57:16.000Z</time>
      </trkpt>
      <trkpt lat="43.30055" lon="2.22898">
        <ele>176.7</ele>
        <time>2022-03-06T08:57:17.000Z</time>
      </trkpt>
      <trkpt lat="43.30054" lon="2.22899">
        <ele>177</ele>
        <time>2022-03-06T08:57:18.000Z</time>
      </trkpt>
      <trkpt lat="43.30053" lon="2.229">
        <ele>177.3</ele>
        <time>2022-03-06T08:57:19.000Z</time>
      </trkpt>
      <trkpt lat="43.30052" lon="2.229">
        <ele>177.6</ele>
        <time>2022-03-06T08:57:20.000Z</time>
      </trkpt>
      <trkpt lat="43.3005" lon="2.22901">
        <ele>177.9</ele>
        <time>2022-03-06T08:57:21.000Z</time>
      </trkpt>
      <trkpt lat="43.30049" lon="2.22901">
        <ele>178.2</ele>
        <time>2022-03-06T08:57:22.000Z</time>
      </trkpt>
      <trkpt lat="43.30048" lon="2.229">
        <ele>178.6</ele>
        <time>2022-03-06T08:57:23.000Z</time>
      </trkpt>
      <trkpt lat="43.30046" lon="2.229">
        <ele>178.9</ele>
        <time>2022-03-06T08:57:24.000Z</time>
      </trkpt>
      <trkpt lat="43.30044" lon="2.22899">
        <ele>179.2</ele>
        <time>2022-03-06T08:57:25.000Z</time>
      </trkpt>
      <trkpt lat="43.30043" lon="2.22899">
        <ele>179.5</ele>
        <time>2022-03-06T08:57:26.000Z</time>
      </trkpt>
      <trkpt lat="43.30042" lon="2.22898">
        <ele>179.7</ele>
        <time>2022-03-06T08:57:27.000Z</time>
      </trkpt>
      <trkpt lat="43.30041" lon="2.22898">
        <ele>179.9</ele>
        <time>2022-03-06T08:57:28.000Z</time>
      </trkpt>
      <trkpt lat="43.30039" lon="2.22897">
        <ele>180.1</ele>
        <time>2022-03-06T08:57:29.000Z</time>
      </trkpt>
      <trkpt lat="43.30038" lon="2.22896">
        <ele>180.3</ele>
        <time>2022-03-06T08:57:30.000Z</time>
      </trkpt>
      <trkpt lat="43.30037" lon="2.22896">
        <ele>180.6</ele>
        <time>2022-03-06T08:57:31.000Z</time>
      </trkpt>
      <trkpt lat="43.30036" lon="2.22895">
        <ele>180.8</ele>
        <time>2022-03-06T08:57:32.000Z</time>
      </trkpt>
      <trkpt lat="43.30034" lon="2.22894">
        <ele>181.1</ele>
        <time>2022-03-06T08:57:33.000Z</time>
      </trkpt>
      <trkpt lat="43.30033" lon="2.22894">
        <ele>181.3</ele>
        <time>2022-03-06T08:57:34.000Z</time>
      </trkpt>
      <trkpt lat="43.30031" lon="2.22893">
        <ele>181.6</ele>
        <time>2022-03-06T08:57:35.000Z</time>
      </trkpt>
      <trkpt lat="43.3003" lon="2.22893">
        <ele>181.9</ele>
        <time>2022-03-06T08:57:36.000Z</time>
      </trkpt>
      <trkpt lat="43.30028" lon="2.22892">
        <ele>182.1</ele>
        <time>2022-03-06T08:57:37.000Z</time>
      </trkpt>
      <trkpt lat="43.30027" lon="2.22892">
        <ele>182.4</ele>
        <time>2022-03-06T08:57:38.000Z</time>
      </trkpt>
      <trkpt lat="43.30026" lon="2.22891">
        <ele>182.7</ele>
        <time>2022-03-06T08:57:39.000Z</time>
      </trkpt>
      <trkpt lat="43.30024" lon="2.22891">
        <ele>183</ele>
        <time>2022-03-06T08:57:40.000Z</time>
      </trkpt>
      <trkpt lat="43.30023" lon="2.22891">
        <ele>183.2</ele>
        <time>2022-03-06T08:57:41.000Z</time>
      </trkpt>
      <trkpt lat="43.30021" lon="2.22891">
        <ele>183.5</ele>
        <time>2022-03-06T08:57:42.000Z</time>
      </trkpt>
      <trkpt lat="43.3002" lon="2.22891">
        <ele>183.8</ele>
        <time>2022-03-06T08:57:43.000Z</time>
      </trkpt>
      <trkpt lat="43.30019" lon="2.22891">
        <ele>184.1</ele>
        <time>2022-03-06T08:57:44.000Z</time>
      </trkpt>
      <trkpt lat="43.30017" lon="2.2289">
        <ele>184.4</ele>
        <time>2022-03-06T08:57:45.000Z</time>
      </trkpt>
      <trkpt lat="43.30016" lon="2.2289">
        <ele>184.7</ele>
        <time>2022-03-06T08:57:46.000Z</time>
      </trkpt>
      <trkpt lat="43.30014" lon="2.2289">
        <ele>185</ele>
        <time>2022-03-06T08:57:47.000Z</time>
      </trkpt>
      <trkpt lat="43.30013" lon="2.2289">
        <ele>185.3</ele>
        <time>2022-03-06T08:57:48.000Z</time>
      </trkpt>
      <trkpt lat="43.30011" lon="2.2289">
        <ele>185.6</ele>
        <time>2022-03-06T08:57:49.000Z</time>
      </trkpt>
      <trkpt lat="43.3001" lon="2.2289">
        <ele>186</ele>
        <time>2022-03-06T08:57:50.000Z</time>
      </trkpt>
      <trkpt lat="43.30008" lon="2.2289">
        <ele>186.3</ele>
        <time>2022-03-06T08:57:51.000Z</time>
      </trkpt>
      <trkpt lat="43.30007" lon="2.22889">
        <ele>186.6</ele>
        <time>2022-03-06T08:57:52.000Z</time>
      </trkpt>
      <trkpt lat="43.30005" lon="2.22889">
        <ele>186.9</ele>
        <time>2022-03-06T08:57:53.000Z</time>
      </trkpt>
      <trkpt lat="43.30004" lon="2.2289">
        <ele>187.3</ele>
        <time>2022-03-06T08:57:54.000Z</time>
      </trkpt>
      <trkpt lat="43.30003" lon="2.22891">
        <ele>187.6</ele>
        <time>2022-03-06T08:57:55.000Z</time>
      </trkpt>
      <trkpt lat="43.30002" lon="2.22892">
        <ele>187.9</ele>
        <time>2022-03-06T08:57:56.000Z</time>
      </trkpt>
      <trkpt lat="43.30001" lon="2.22893">
        <ele>188.3</ele>
        <time>2022-03-06T08:57:57.000Z</time>
      </trkpt>
      <trkpt lat="43.30001" lon="2.22894">
        <ele>188.6</ele>
        <time>2022-03-06T08:57:58.000Z</time>
      </trkpt>
      <trkpt lat="43.3" lon="2.22895">
        <ele>189</ele>
        <time>2022-03-06T08:57:59.000Z</time>
      </trkpt>
      <trkpt lat="43.29999" lon="2.22897">
        <ele>189.5</ele>
        <time>2022-03-06T08:58:00.000Z</time>
      </trkpt>
      <trkpt lat="43.29998" lon="2.22898">
        <ele>190</ele>
        <time>2022-03-06T08:58:01.000Z</time>
      </trkpt>
      <trkpt lat="43.29997" lon="2.22899">
        <ele>190.5</ele>
        <time>2022-03-06T08:58:02.000Z</time>
      </trkpt>
      <trkpt lat="43.29996" lon="2.22899">
        <ele>190.9</ele>
        <time>2022-03-06T08:58:03.000Z</time>
      </trkpt>
      <trkpt lat="43.29994" lon="2.229">
        <ele>191.3</ele>
        <time>2022-03-06T08:58:04.000Z</time>
      </trkpt>
      <trkpt lat="43.29993" lon="2.229">
        <ele>191.8</ele>
        <time>2022-03-06T08:58:05.000Z</time>
      </trkpt>
      <trkpt lat="43.29992" lon="2.229">
        <ele>192.2</ele>
        <time>2022-03-06T08:58:06.000Z</time>
      </trkpt>
      <trkpt lat="43.29991" lon="2.229">
        <ele>192.5</ele>
        <time>2022-03-06T08:58:07.000Z</time>
      </trkpt>
      <trkpt lat="43.2999" lon="2.229">
        <ele>192.9</ele>
        <time>2022-03-06T08:58:08.000Z</time>
      </trkpt>
      <trkpt lat="43.29988" lon="2.229">
        <ele>193.3</ele>
        <time>2022-03-06T08:58:09.000Z</time>
      </trkpt>
      <trkpt lat="43.29987" lon="2.22899">
        <ele>193.6</ele>
        <time>2022-03-06T08:58:10.000Z</time>
      </trkpt>
      <trkpt lat="43.29986" lon="2.22899">
        <ele>194</ele>
        <time>2022-03-06T08:58:11.000Z</time>
      </trkpt>
      <trkpt lat="43.29985" lon="2.22899">
        <ele>194.4</ele>
        <time>2022-03-06T08:58:12.000Z</time>
      </trkpt>
      <trkpt lat="43.29983" lon="2.229">
        <ele>194.8</ele>
        <time>2022-03-06T08:58:13.000Z</time>
      </trkpt>
      <trkpt lat="43.29982" lon="2.229">
        <ele>195.3</ele>
        <time>2022-03-06T08:58:14.000Z</time>
      </trkpt>
      <trkpt lat="43.29981" lon="2.229">
        <ele>195.7</ele>
        <time>2022-03-06T08:58:15.000Z</time>
      </trkpt>
      <trkpt lat="43.2998" lon="2.22901">
        <ele>196.1</ele>
        <time>2022-03-06T08:58:16.000Z</time>
      </trkpt>
      <trkpt lat="43.29979" lon="2.22901">
        <ele>196.6</ele>
        <time>2022-03-06T08:58:17.000Z</time>
      </trkpt>
      <trkpt lat="43.29978" lon="2.22901">
        <ele>196.9</ele>
        <time>2022-03-06T08:58:18.000Z</time>
      </trkpt>
      <trkpt lat="43.29977" lon="2.22901">
        <ele>197.2</ele>
        <time>2022-03-06T08:58:19.000Z</time>
      </trkpt>
      <trkpt lat="43.29976" lon="2.22901">
        <ele>197.5</ele>
        <time>2022-03-06T08:58:20.000Z</time>
      </trkpt>
      <trkpt lat="43.29975" lon="2.22901">
        <ele>197.7</ele>
        <time>2022-03-06T08:58:21.000Z</time>
      </trkpt>
      <trkpt lat="43.29975" lon="2.22901">
        <ele>197.8</ele>
        <time>2022-03-06T08:58:22.000Z</time>
      </trkpt>
      <trkpt lat="43.29975" lon="2.22901">
        <ele>197.9</ele>
        <time>2022-03-06T08:58:23.000Z</time>
      </trkpt>
      <trkpt lat="43.29975" lon="2.22901">
        <ele>197.9</ele>
        <time>2022-03-06T08:58:24.000Z</time>
      </trkpt>
      <trkpt lat="43.29975" lon="2.22901">
        <ele>197.8</ele>
        <time>2022-03-06T08:58:25.000Z</time>
      </trkpt>
      <trkpt lat="43.29975" lon="2.22901">
        <ele>197.8</ele>
        <time>2022-03-06T08:58:26.000Z</time>
      </trkpt>
      <trkpt lat="43.29975" lon="2.22901">
        <ele>197.8</ele>
        <time>2022-03-06T08:58:27.000Z</time>
      </trkpt>
      <trkpt lat="43.29975" lon="2.22902">
        <ele>197.7</ele>
        <time>2022-03-06T08:58:28.000Z</time>
      </trkpt>
      <trkpt lat="43.29975" lon="2.22902">
        <ele>197.8</ele>
        <time>2022-03-06T08:58:29.000Z</time>
      </trkpt>
      <trkpt lat="43.29975" lon="2.22902">
        <ele>197.8</ele>
        <time>2022-03-06T08:58:30.000Z</time>
      </trkpt>
      <trkpt lat="43.29975" lon="2.22902">
        <ele>197.8</ele>
        <time>2022-03-06T08:58:31.000Z</time>
      </trkpt>
      <trkpt lat="43.29975" lon="2.22902">
        <ele>197.8</ele>
        <time>2022-03-06T08:58:32.000Z</time>
      </trkpt>
      <trkpt lat="43.29975" lon="2.22902">
        <ele>197.8</ele>
        <time>2022-03-06T08:58:33.000Z</time>
      </trkpt>
      <trkpt lat="43.29975" lon="2.22902">
        <ele>197.8</ele>
        <time>2022-03-06T08:58:34.000Z</time>
      </trkpt>
      <trkpt lat="43.29975" lon="2.22902">
        <ele>197.9</ele>
        <time>2022-03-06T08:58:35.000Z</time>
      </trkpt>
      <trkpt lat="43.29975" lon="2.22902">
        <ele>197.9</ele>
        <time>2022-03-06T08:58:36.000Z</time>
      </trkpt>
      <trkpt lat="43.29975" lon="2.22902">
        <ele>197.9</ele>
        <time>2022-03-06T08:58:37.000Z</time>
      </trkpt>
      <trkpt lat="43.29975" lon="2.22902">
        <ele>197.9</ele>
        <time>2022-03-06T08:58:38.000Z</time>
      </trkpt>
      <trkpt lat="43.29975" lon="2.22902">
        <ele>197.9</ele>
        <time>2022-03-06T08:58:39.000Z</time>
      </trkpt>
      <trkpt lat="43.29975" lon="2.22902">
        <ele>197.9</ele>
        <time>2022-03-06T08:58:40.000Z</time>
      </trkpt>
      <trkpt lat="43.29975" lon="2.22902">
        <ele>197.9</ele>
        <time>2022-03-06T08:58:41.000Z</time>
      </trkpt>
      <trkpt lat="43.29975" lon="2.22902">
        <ele>197.9</ele>
        <time>2022-03-06T08:58:42.000Z</time>
      </trkpt>
      <trkpt lat="43.29975" lon="2.22902">
        <ele>197.9</ele>
        <time>2022-03-06T08:58:43.000Z</time>
      </trkpt>
      <trkpt lat="43.29975" lon="2.22902">
        <ele>197.9</ele>
        <time>2022-03-06T08:58:44.000Z</time>
      </trkpt>
      <trkpt lat="43.29975" lon="2.22902">
        <ele>197.8</ele>
        <time>2022-03-06T08:58:45.000Z</time>
      </trkpt>
      <trkpt lat="43.29975" lon="2.22902">
        <ele>197.8</ele>
        <time>2022-03-06T08:58:46.000Z</time>
      </trkpt>
      <trkpt lat="43.29975" lon="2.22902">
        <ele>197.9</ele>
        <time>2022-03-06T08:58:47.000Z</time>
      </trkpt>
      <trkpt lat="43.29975" lon="2.22902">
        <ele>197.9</ele>
        <time>2022-03-06T08:58:48.000Z</time>
      </trkpt>
      <trkpt lat="43.29975" lon="2.22902">
        <ele>197.9</ele>
        <time>2022-03-06T08:58:49.000Z</time>
      </trkpt>
      <trkpt lat="43.29975" lon="2.22902">
        <ele>197.8</ele>
        <time>2022-03-06T08:58:50.000Z</time>
      </trkpt>
      <trkpt lat="43.29975" lon="2.22902">
        <ele>197.7</ele>
        <time>2022-03-06T08:58:51.000Z</time>
      </trkpt>
      <trkpt lat="43.29975" lon="2.22901">
        <ele>197.7</ele>
        <time>2022-03-06T08:58:52.000Z</time>
      </trkpt>
      <trkpt lat="43.29976" lon="2.22901">
        <ele>197.6</ele>
        <time>2022-03-06T08:58:53.000Z</time>
      </trkpt>
      <trkpt lat="43.29976" lon="2.22901">
        <ele>197.5</ele>
        <time>2022-03-06T08:58:54.000Z</time>
      </trkpt>
      <trkpt lat="43.29976" lon="2.229">
        <ele>197.4</ele>
        <time>2022-03-06T08:58:55.000Z</time>
      </trkpt>
      <trkpt lat="43.29976" lon="2.229">
        <ele>197.5</ele>
        <time>2022-03-06T08:58:56.000Z</time>
      </trkpt>
      <trkpt lat="43.29975" lon="2.229">
        <ele>197.5</ele>
        <time>2022-03-06T08:58:57.000Z</time>
      </trkpt>
      <trkpt lat="43.29975" lon="2.229">
        <ele>197.5</ele>
        <time>2022-03-06T08:58:58.000Z</time>
      </trkpt>
      <trkpt lat="43.29975" lon="2.229">
        <ele>197.5</ele>
        <time>2022-03-06T08:58:59.000Z</time>
      </trkpt>
      <trkpt lat="43.29975" lon="2.22899">
        <ele>197.5</ele>
        <time>2022-03-06T08:59:00.000Z</time>
      </trkpt>
      <trkpt lat="43.29975" lon="2.22898">
        <ele>197.5</ele>
        <time>2022-03-06T08:59:01.000Z</time>
      </trkpt>
      <trkpt lat="43.29975" lon="2.22897">
        <ele>197.4</ele>
        <time>2022-03-06T08:59:02.000Z</time>
      </trkpt>
      <trkpt lat="43.29974" lon="2.22896">
        <ele>197.2</ele>
        <time>2022-03-06T08:59:03.000Z</time>
      </trkpt>
      <trkpt lat="43.29974" lon="2.22894">
        <ele>196.9</ele>
        <time>2022-03-06T08:59:04.000Z</time>
      </trkpt>
      <trkpt lat="43.29974" lon="2.22892">
        <ele>196.7</ele>
        <time>2022-03-06T08:59:05.000Z</time>
      </trkpt>
      <trkpt lat="43.29974" lon="2.22889">
        <ele>196.4</ele>
        <time>2022-03-06T08:59:06.000Z</time>
      </trkpt>
      <trkpt lat="43.29974" lon="2.22887">
        <ele>196</ele>
        <time>2022-03-06T08:59:07.000Z</time>
      </trkpt>
      <trkpt lat="43.29974" lon="2.22884">
        <ele>195.7</ele>
        <time>2022-03-06T08:59:08.000Z</time>
      </trkpt>
      <trkpt lat="43.29974" lon="2.22881">
        <ele>195.3</ele>
        <time>2022-03-06T08:59:09.000Z</time>
      </trkpt>
      <trkpt lat="43.29974" lon="2.22878">
        <ele>194.9</ele>
        <time>2022-03-06T08:59:10.000Z</time>
      </trkpt>
      <trkpt lat="43.29974" lon="2.22875">
        <ele>194.5</ele>
        <time>2022-03-06T08:59:11.000Z</time>
      </trkpt>
      <trkpt lat="43.29974" lon="2.22871">
        <ele>194</ele>
        <time>2022-03-06T08:59:12.000Z</time>
      </trkpt>
      <trkpt lat="43.29974" lon="2.22867">
        <ele>193.6</ele>
        <time>2022-03-06T08:59:13.000Z</time>
      </trkpt>
      <trkpt lat="43.29974" lon="2.22864">
        <ele>193.1</ele>
        <time>2022-03-06T08:59:14.000Z</time>
      </trkpt>
      <trkpt lat="43.29974" lon="2.2286">
        <ele>192.7</ele>
        <time>2022-03-06T08:59:15.000Z</time>
      </trkpt>
      <trkpt lat="43.29974" lon="2.22856">
        <ele>192.2</ele>
        <time>2022-03-06T08:59:16.000Z</time>
      </trkpt>
      <trkpt lat="43.29973" lon="2.22852">
        <ele>191.8</ele>
        <time>2022-03-06T08:59:17.000Z</time>
      </trkpt>
      <trkpt lat="43.29973" lon="2.22849">
        <ele>191.3</ele>
        <time>2022-03-06T08:59:18.000Z</time>
      </trkpt>
      <trkpt lat="43.29973" lon="2.22845">
        <ele>190.9</ele>
        <time>2022-03-06T08:59:19.000Z</time>
      </trkpt>
      <trkpt lat="43.29973" lon="2.22841">
        <ele>190.4</ele>
        <time>2022-03-06T08:59:20.000Z</time>
      </trkpt>
      <trkpt lat="43.29973" lon="2.22838">
        <ele>190</ele>
        <time>2022-03-06T08:59:21.000Z</time>
      </trkpt>
      <trkpt lat="43.29972" lon="2.22834">
        <ele>189.8</ele>
        <time>2022-03-06T08:59:22.000Z</time>
      </trkpt>
      <trkpt lat="43.29971" lon="2.22831">
        <ele>189.7</ele>
        <time>2022-03-06T08:59:23.000Z</time>
      </trkpt>
      <trkpt lat="43.2997" lon="2.22828">
        <ele>189.7</ele>
        <time>2022-03-06T08:59:24.000Z</time>
      </trkpt>
      <trkpt lat="43.29969" lon="2.22824">
        <ele>189.7</ele>
        <time>2022-03-06T08:59:25.000Z</time>
      </trkpt>
      <trkpt lat="43.29968" lon="2.22821">
        <ele>189.7</ele>
        <time>2022-03-06T08:59:26.000Z</time>
      </trkpt>
      <trkpt lat="43.29968" lon="2.22818">
        <ele>189.6</ele>
        <time>2022-03-06T08:59:27.000Z</time>
      </trkpt>
      <trkpt lat="43.29967" lon="2.22815">
        <ele>189.4</ele>
        <time>2022-03-06T08:59:28.000Z</time>
      </trkpt>
      <trkpt lat="43.29967" lon="2.22813">
        <ele>189.3</ele>
        <time>2022-03-06T08:59:29.000Z</time>
      </trkpt>
      <trkpt lat="43.29967" lon="2.22812">
        <ele>189.2</ele>
        <time>2022-03-06T08:59:30.000Z</time>
      </trkpt>
      <trkpt lat="43.29967" lon="2.22812">
        <ele>189.2</ele>
        <time>2022-03-06T08:59:31.000Z</time>
      </trkpt>
      <trkpt lat="43.29967" lon="2.22812">
        <ele>189.2</ele>
        <time>2022-03-06T08:59:32.000Z</time>
      </trkpt>
      <trkpt lat="43.29966" lon="2.22811">
        <ele>189.2</ele>
        <time>2022-03-06T08:59:33.000Z</time>
      </trkpt>
      <trkpt lat="43.29966" lon="2.22809">
        <ele>189</ele>
        <time>2022-03-06T08:59:34.000Z</time>
      </trkpt>
      <trkpt lat="43.29966" lon="2.22807">
        <ele>188.8</ele>
        <time>2022-03-06T08:59:35.000Z</time>
      </trkpt>
      <trkpt lat="43.29966" lon="2.22805">
        <ele>188.6</ele>
        <time>2022-03-06T08:59:36.000Z</time>
      </trkpt>
      <trkpt lat="43.29966" lon="2.22802">
        <ele>188.4</ele>
        <time>2022-03-06T08:59:37.000Z</time>
      </trkpt>
      <trkpt lat="43.29965" lon="2.228">
        <ele>188.2</ele>
        <time>2022-03-06T08:59:38.000Z</time>
      </trkpt>
      <trkpt lat="43.29965" lon="2.22798">
        <ele>188.1</ele>
        <time>2022-03-06T08:59:39.000Z</time>
      </trkpt>
      <trkpt lat="43.29965" lon="2.22795">
        <ele>188</ele>
        <time>2022-03-06T08:59:40.000Z</time>
      </trkpt>
      <trkpt lat="43.29964" lon="2.22792">
        <ele>187.9</ele>
        <time>2022-03-06T08:59:41.000Z</time>
      </trkpt>
      <trkpt lat="43.29963" lon="2.2279">
        <ele>187.9</ele>
        <time>2022-03-06T08:59:42.000Z</time>
      </trkpt>
      <trkpt lat="43.29961" lon="2.22787">
        <ele>188</ele>
        <time>2022-03-06T08:59:43.000Z</time>
      </trkpt>
      <trkpt lat="43.2996" lon="2.22784">
        <ele>188</ele>
        <time>2022-03-06T08:59:44.000Z</time>
      </trkpt>
      <trkpt lat="43.29959" lon="2.22782">
        <ele>188.2</ele>
        <time>2022-03-06T08:59:45.000Z</time>
      </trkpt>
      <trkpt lat="43.29957" lon="2.22779">
        <ele>188.3</ele>
        <time>2022-03-06T08:59:46.000Z</time>
      </trkpt>
      <trkpt lat="43.29956" lon="2.22777">
        <ele>188.5</ele>
        <time>2022-03-06T08:59:47.000Z</time>
      </trkpt>
      <trkpt lat="43.29954" lon="2.22774">
        <ele>188.6</ele>
        <time>2022-03-06T08:59:48.000Z</time>
      </trkpt>
      <trkpt lat="43.29953" lon="2.22772">
        <ele>188.8</ele>
        <time>2022-03-06T08:59:49.000Z</time>
      </trkpt>
      <trkpt lat="43.29951" lon="2.2277">
        <ele>189</ele>
        <time>2022-03-06T08:59:50.000Z</time>
      </trkpt>
      <trkpt lat="43.2995" lon="2.22767">
        <ele>189.1</ele>
        <time>2022-03-06T08:59:51.000Z</time>
      </trkpt>
      <trkpt lat="43.29948" lon="2.22765">
        <ele>189.3</ele>
        <time>2022-03-06T08:59:52.000Z</time>
      </trkpt>
      <trkpt lat="43.29946" lon="2.22762">
        <ele>189.4</ele>
        <time>2022-03-06T08:59:53.000Z</time>
      </trkpt>
      <trkpt lat="43.29945" lon="2.2276">
        <ele>189.5</ele>
        <time>2022-03-06T08:59:54.000Z</time>
      </trkpt>
      <trkpt lat="43.29943" lon="2.22757">
        <ele>189.6</ele>
        <time>2022-03-06T08:59:55.000Z</time>
      </trkpt>
      <trkpt lat="43.29942" lon="2.22755">
        <ele>189.7</ele>
        <time>2022-03-06T08:59:56.000Z</time>
      </trkpt>
      <trkpt lat="43.29941" lon="2.22752">
        <ele>189.7</ele>
        <time>2022-03-06T08:59:57.000Z</time>
      </trkpt>
      <trkpt lat="43.29939" lon="2.22749">
        <ele>189.7</ele>
        <time>2022-03-06T08:59:58.000Z</time>
      </trkpt>
      <trkpt lat="43.29938" lon="2.22747">
        <ele>189.6</ele>
        <time>2022-03-06T08:59:59.000Z</time>
      </trkpt>
      <trkpt lat="43.29937" lon="2.22744">
        <ele>189.4</ele>
        <time>2022-03-06T09:00:00.000Z</time>
      </trkpt>
      <trkpt lat="43.29935" lon="2.22741">
        <ele>189.3</ele>
        <time>2022-03-06T09:00:01.000Z</time>
      </trkpt>
      <trkpt lat="43.29934" lon="2.22738">
        <ele>189.1</ele>
        <time>2022-03-06T09:00:02.000Z</time>
      </trkpt>
      <trkpt lat="43.29933" lon="2.22734">
        <ele>188.9</ele>
        <time>2022-03-06T09:00:03.000Z</time>
      </trkpt>
      <trkpt lat="43.29932" lon="2.22731">
        <ele>188.8</ele>
        <time>2022-03-06T09:00:04.000Z</time>
      </trkpt>
      <trkpt lat="43.2993" lon="2.22728">
        <ele>188.6</ele>
        <time>2022-03-06T09:00:05.000Z</time>
      </trkpt>
      <trkpt lat="43.29929" lon="2.22725">
        <ele>188.4</ele>
        <time>2022-03-06T09:00:06.000Z</time>
      </trkpt>
      <trkpt lat="43.29927" lon="2.22722">
        <ele>188.3</ele>
        <time>2022-03-06T09:00:07.000Z</time>
      </trkpt>
      <trkpt lat="43.29926" lon="2.22719">
        <ele>188.1</ele>
        <time>2022-03-06T09:00:08.000Z</time>
      </trkpt>
      <trkpt lat="43.29924" lon="2.22716">
        <ele>188.1</ele>
        <time>2022-03-06T09:00:09.000Z</time>
      </trkpt>
      <trkpt lat="43.29923" lon="2.22713">
        <ele>187.9</ele>
        <time>2022-03-06T09:00:10.000Z</time>
      </trkpt>
      <trkpt lat="43.29922" lon="2.22711">
        <ele>187.8</ele>
        <time>2022-03-06T09:00:11.000Z</time>
      </trkpt>
      <trkpt lat="43.29921" lon="2.2271">
        <ele>187.7</ele>
        <time>2022-03-06T09:00:12.000Z</time>
      </trkpt>
      <trkpt lat="43.29921" lon="2.22709">
        <ele>187.6</ele>
        <time>2022-03-06T09:00:13.000Z</time>
      </trkpt>
      <trkpt lat="43.29921" lon="2.22708">
        <ele>187.5</ele>
        <time>2022-03-06T09:00:14.000Z</time>
      </trkpt>
      <trkpt lat="43.2992" lon="2.22707">
        <ele>187.4</ele>
        <time>2022-03-06T09:00:15.000Z</time>
      </trkpt>
      <trkpt lat="43.2992" lon="2.22707">
        <ele>187.4</ele>
        <time>2022-03-06T09:00:16.000Z</time>
      </trkpt>
      <trkpt lat="43.2992" lon="2.22705">
        <ele>187.3</ele>
        <time>2022-03-06T09:00:17.000Z</time>
      </trkpt>
      <trkpt lat="43.29919" lon="2.22704">
        <ele>187.2</ele>
        <time>2022-03-06T09:00:18.000Z</time>
      </trkpt>
      <trkpt lat="43.29918" lon="2.22702">
        <ele>187</ele>
        <time>2022-03-06T09:00:19.000Z</time>
      </trkpt>
      <trkpt lat="43.29917" lon="2.227">
        <ele>186.8</ele>
        <time>2022-03-06T09:00:20.000Z</time>
      </trkpt>
      <trkpt lat="43.29917" lon="2.22698">
        <ele>186.6</ele>
        <time>2022-03-06T09:00:21.000Z</time>
      </trkpt>
      <trkpt lat="43.29916" lon="2.22696">
        <ele>186.4</ele>
        <time>2022-03-06T09:00:22.000Z</time>
      </trkpt>
      <trkpt lat="43.29915" lon="2.22693">
        <ele>186.1</ele>
        <time>2022-03-06T09:00:23.000Z</time>
      </trkpt>
      <trkpt lat="43.29914" lon="2.22691">
        <ele>185.8</ele>
        <time>2022-03-06T09:00:24.000Z</time>
      </trkpt>
      <trkpt lat="43.29914" lon="2.22689">
        <ele>185.5</ele>
        <time>2022-03-06T09:00:25.000Z</time>
      </trkpt>
      <trkpt lat="43.29913" lon="2.22686">
        <ele>185.2</ele>
        <time>2022-03-06T09:00:26.000Z</time>
      </trkpt>
      <trkpt lat="43.29912" lon="2.22683">
        <ele>184.9</ele>
        <time>2022-03-06T09:00:27.000Z</time>
      </trkpt>
      <trkpt lat="43.29911" lon="2.22681">
        <ele>184.6</ele>
        <time>2022-03-06T09:00:28.000Z</time>
      </trkpt>
      <trkpt lat="43.2991" lon="2.22678">
        <ele>184.4</ele>
        <time>2022-03-06T09:00:29.000Z</time>
      </trkpt>
      <trkpt lat="43.29908" lon="2.22675">
        <ele>184.1</ele>
        <time>2022-03-06T09:00:30.000Z</time>
      </trkpt>
      <trkpt lat="43.29907" lon="2.22673">
        <ele>183.9</ele>
        <time>2022-03-06T09:00:31.000Z</time>
      </trkpt>
      <trkpt lat="43.29906" lon="2.2267">
        <ele>183.6</ele>
        <time>2022-03-06T09:00:32.000Z</time>
      </trkpt>
      <trkpt lat="43.29904" lon="2.22667">
        <ele>183.4</ele>
        <time>2022-03-06T09:00:33.000Z</time>
      </trkpt>
      <trkpt lat="43.29903" lon="2.22664">
        <ele>183.3</ele>
        <time>2022-03-06T09:00:34.000Z</time>
      </trkpt>
      <trkpt lat="43.29901" lon="2.22661">
        <ele>183.2</ele>
        <time>2022-03-06T09:00:35.000Z</time>
      </trkpt>
      <trkpt lat="43.299" lon="2.22658">
        <ele>183.1</ele>
        <time>2022-03-06T09:00:36.000Z</time>
      </trkpt>
      <trkpt lat="43.29898" lon="2.22655">
        <ele>183</ele>
        <time>2022-03-06T09:00:37.000Z</time>
      </trkpt>
      <trkpt lat="43.29896" lon="2.22651">
        <ele>182.9</ele>
        <time>2022-03-06T09:00:38.000Z</time>
      </trkpt>
      <trkpt lat="43.29895" lon="2.22648">
        <ele>182.9</ele>
        <time>2022-03-06T09:00:39.000Z</time>
      </trkpt>
      <trkpt lat="43.29893" lon="2.22645">
        <ele>182.8</ele>
        <time>2022-03-06T09:00:40.000Z</time>
      </trkpt>
      <trkpt lat="43.29891" lon="2.22641">
        <ele>182.7</ele>
        <time>2022-03-06T09:00:41.000Z</time>
      </trkpt>
      <trkpt lat="43.29889" lon="2.22638">
        <ele>182.6</ele>
        <time>2022-03-06T09:00:42.000Z</time>
      </trkpt>
      <trkpt lat="43.29887" lon="2.22635">
        <ele>182.5</ele>
        <time>2022-03-06T09:00:43.000Z</time>
      </trkpt>
      <trkpt lat="43.29886" lon="2.22631">
        <ele>182.4</ele>
        <time>2022-03-06T09:00:44.000Z</time>
      </trkpt>
      <trkpt lat="43.29884" lon="2.22628">
        <ele>182.3</ele>
        <time>2022-03-06T09:00:45.000Z</time>
      </trkpt>
      <trkpt lat="43.29882" lon="2.22625">
        <ele>182.3</ele>
        <time>2022-03-06T09:00:46.000Z</time>
      </trkpt>
      <trkpt lat="43.29881" lon="2.22622">
        <ele>182.2</ele>
        <time>2022-03-06T09:00:47.000Z</time>
      </trkpt>
      <trkpt lat="43.29879" lon="2.22619">
        <ele>182.1</ele>
        <time>2022-03-06T09:00:48.000Z</time>
      </trkpt>
      <trkpt lat="43.29878" lon="2.22616">
        <ele>182.1</ele>
        <time>2022-03-06T09:00:49.000Z</time>
      </trkpt>
      <trkpt lat="43.29876" lon="2.22613">
        <ele>182</ele>
        <time>2022-03-06T09:00:50.000Z</time>
      </trkpt>
      <trkpt lat="43.29875" lon="2.2261">
        <ele>181.9</ele>
        <time>2022-03-06T09:00:51.000Z</time>
      </trkpt>
      <trkpt lat="43.29874" lon="2.22607">
        <ele>181.8</ele>
        <time>2022-03-06T09:00:52.000Z</time>
      </trkpt>
      <trkpt lat="43.29873" lon="2.22605">
        <ele>181.6</ele>
        <time>2022-03-06T09:00:53.000Z</time>
      </trkpt>
      <trkpt lat="43.29872" lon="2.22602">
        <ele>181.4</ele>
        <time>2022-03-06T09:00:54.000Z</time>
      </trkpt>
      <trkpt lat="43.29871" lon="2.22598">
        <ele>181.1</ele>
        <time>2022-03-06T09:00:55.000Z</time>
      </trkpt>
      <trkpt lat="43.29871" lon="2.22595">
        <ele>180.8</ele>
        <time>2022-03-06T09:00:56.000Z</time>
      </trkpt>
      <trkpt lat="43.2987" lon="2.22591">
        <ele>180.4</ele>
        <time>2022-03-06T09:00:57.000Z</time>
      </trkpt>
      <trkpt lat="43.2987" lon="2.22586">
        <ele>179.9</ele>
        <time>2022-03-06T09:00:58.000Z</time>
      </trkpt>
      <trkpt lat="43.29869" lon="2.22582">
        <ele>179.5</ele>
        <time>2022-03-06T09:00:59.000Z</time>
      </trkpt>
      <trkpt lat="43.29868" lon="2.22577">
        <ele>178.9</ele>
        <time>2022-03-06T09:01:00.000Z</time>
      </trkpt>
      <trkpt lat="43.29867" lon="2.22572">
        <ele>178.4</ele>
        <time>2022-03-06T09:01:01.000Z</time>
      </trkpt>
      <trkpt lat="43.29866" lon="2.22567">
        <ele>178</ele>
        <time>2022-03-06T09:01:02.000Z</time>
      </trkpt>
      <trkpt lat="43.29865" lon="2.22563">
        <ele>177.7</ele>
        <time>2022-03-06T09:01:03.000Z</time>
      </trkpt>
      <trkpt lat="43.29863" lon="2.22559">
        <ele>177.5</ele>
        <time>2022-03-06T09:01:04.000Z</time>
      </trkpt>
      <trkpt lat="43.29862" lon="2.22556">
        <ele>177.4</ele>
        <time>2022-03-06T09:01:05.000Z</time>
      </trkpt>
      <trkpt lat="43.2986" lon="2.22553">
        <ele>177.3</ele>
        <time>2022-03-06T09:01:06.000Z</time>
      </trkpt>
      <trkpt lat="43.29858" lon="2.22551">
        <ele>177.3</ele>
        <time>2022-03-06T09:01:07.000Z</time>
      </trkpt>
      <trkpt lat="43.29857" lon="2.22548">
        <ele>177.3</ele>
        <time>2022-03-06T09:01:08.000Z</time>
      </trkpt>
      <trkpt lat="43.29855" lon="2.22546">
        <ele>177.3</ele>
        <time>2022-03-06T09:01:09.000Z</time>
      </trkpt>
      <trkpt lat="43.29854" lon="2.22543">
        <ele>177.2</ele>
        <time>2022-03-06T09:01:10.000Z</time>
      </trkpt>
      <trkpt lat="43.29852" lon="2.22541">
        <ele>177.1</ele>
        <time>2022-03-06T09:01:11.000Z</time>
      </trkpt>
      <trkpt lat="43.29851" lon="2.22538">
        <ele>176.9</ele>
        <time>2022-03-06T09:01:12.000Z</time>
      </trkpt>
      <trkpt lat="43.2985" lon="2.22535">
        <ele>176.8</ele>
        <time>2022-03-06T09:01:13.000Z</time>
      </trkpt>
      <trkpt lat="43.29849" lon="2.22533">
        <ele>176.7</ele>
        <time>2022-03-06T09:01:14.000Z</time>
      </trkpt>
      <trkpt lat="43.29848" lon="2.2253">
        <ele>176.5</ele>
        <time>2022-03-06T09:01:15.000Z</time>
      </trkpt>
      <trkpt lat="43.29846" lon="2.22527">
        <ele>176.4</ele>
        <time>2022-03-06T09:01:16.000Z</time>
      </trkpt>
      <trkpt lat="43.29845" lon="2.22525">
        <ele>176.3</ele>
        <time>2022-03-06T09:01:17.000Z</time>
      </trkpt>
      <trkpt lat="43.29844" lon="2.22522">
        <ele>176.2</ele>
        <time>2022-03-06T09:01:18.000Z</time>
      </trkpt>
      <trkpt lat="43.29842" lon="2.22519">
        <ele>176.1</ele>
        <time>2022-03-06T09:01:19.000Z</time>
      </trkpt>
      <trkpt lat="43.2984" lon="2.22517">
        <ele>176</ele>
        <time>2022-03-06T09:01:20.000Z</time>
      </trkpt>
      <trkpt lat="43.29839" lon="2.22514">
        <ele>176</ele>
        <time>2022-03-06T09:01:21.000Z</time>
      </trkpt>
      <trkpt lat="43.29837" lon="2.22511">
        <ele>175.9</ele>
        <time>2022-03-06T09:01:22.000Z</time>
      </trkpt>
      <trkpt lat="43.29835" lon="2.22509">
        <ele>175.9</ele>
        <time>2022-03-06T09:01:23.000Z</time>
      </trkpt>
      <trkpt lat="43.29833" lon="2.22506">
        <ele>175.8</ele>
        <time>2022-03-06T09:01:24.000Z</time>
      </trkpt>
      <trkpt lat="43.29831" lon="2.22503">
        <ele>175.6</ele>
        <time>2022-03-06T09:01:25.000Z</time>
      </trkpt>
      <trkpt lat="43.29829" lon="2.225">
        <ele>175.3</ele>
        <time>2022-03-06T09:01:26.000Z</time>
      </trkpt>
      <trkpt lat="43.29827" lon="2.22497">
        <ele>175.1</ele>
        <time>2022-03-06T09:01:27.000Z</time>
      </trkpt>
      <trkpt lat="43.29825" lon="2.22494">
        <ele>174.9</ele>
        <time>2022-03-06T09:01:28.000Z</time>
      </trkpt>
      <trkpt lat="43.29822" lon="2.22491">
        <ele>174.7</ele>
        <time>2022-03-06T09:01:29.000Z</time>
      </trkpt>
      <trkpt lat="43.2982" lon="2.22488">
        <ele>174.4</ele>
        <time>2022-03-06T09:01:30.000Z</time>
      </trkpt>
      <trkpt lat="43.29818" lon="2.22484">
        <ele>174.2</ele>
        <time>2022-03-06T09:01:31.000Z</time>
      </trkpt>
      <trkpt lat="43.29817" lon="2.22481">
        <ele>173.9</ele>
        <time>2022-03-06T09:01:32.000Z</time>
      </trkpt>
      <trkpt lat="43.29815" lon="2.22477">
        <ele>173.6</ele>
        <time>2022-03-06T09:01:33.000Z</time>
      </trkpt>
      <trkpt lat="43.29813" lon="2.22474">
        <ele>173.3</ele>
        <time>2022-03-06T09:01:34.000Z</time>
      </trkpt>
      <trkpt lat="43.29811" lon="2.2247">
        <ele>173</ele>
        <time>2022-03-06T09:01:35.000Z</time>
      </trkpt>
      <trkpt lat="43.29809" lon="2.22467">
        <ele>172.7</ele>
        <time>2022-03-06T09:01:36.000Z</time>
      </trkpt>
      <trkpt lat="43.29808" lon="2.22464">
        <ele>172.4</ele>
        <time>2022-03-06T09:01:37.000Z</time>
      </trkpt>
      <trkpt lat="43.29806" lon="2.22461">
        <ele>172.2</ele>
        <time>2022-03-06T09:01:38.000Z</time>
      </trkpt>
      <trkpt lat="43.29804" lon="2.22459">
        <ele>172</ele>
        <time>2022-03-06T09:01:39.000Z</time>
      </trkpt>
      <trkpt lat="43.29802" lon="2.22457">
        <ele>171.9</ele>
        <time>2022-03-06T09:01:40.000Z</time>
      </trkpt>
      <trkpt lat="43.298" lon="2.22455">
        <ele>171.7</ele>
        <time>2022-03-06T09:01:41.000Z</time>
      </trkpt>
      <trkpt lat="43.29799" lon="2.22453">
        <ele>171.7</ele>
        <time>2022-03-06T09:01:42.000Z</time>
      </trkpt>
      <trkpt lat="43.29797" lon="2.22452">
        <ele>171.6</ele>
        <time>2022-03-06T09:01:43.000Z</time>
      </trkpt>
      <trkpt lat="43.29796" lon="2.22451">
        <ele>171.5</ele>
        <time>2022-03-06T09:01:44.000Z</time>
      </trkpt>
      <trkpt lat="43.29795" lon="2.2245">
        <ele>171.4</ele>
        <time>2022-03-06T09:01:45.000Z</time>
      </trkpt>
      <trkpt lat="43.29794" lon="2.22449">
        <ele>171.4</ele>
        <time>2022-03-06T09:01:46.000Z</time>
      </trkpt>
      <trkpt lat="43.29793" lon="2.22448">
        <ele>171.4</ele>
        <time>2022-03-06T09:01:47.000Z</time>
      </trkpt>
      <trkpt lat="43.29792" lon="2.22448">
        <ele>171.4</ele>
        <time>2022-03-06T09:01:48.000Z</time>
      </trkpt>
      <trkpt lat="43.29792" lon="2.22447">
        <ele>171.4</ele>
        <time>2022-03-06T09:01:49.000Z</time>
      </trkpt>
      <trkpt lat="43.29791" lon="2.22447">
        <ele>171.3</ele>
        <time>2022-03-06T09:01:50.000Z</time>
      </trkpt>
      <trkpt lat="43.29791" lon="2.22447">
        <ele>171.3</ele>
        <time>2022-03-06T09:01:51.000Z</time>
      </trkpt>
      <trkpt lat="43.2979" lon="2.22446">
        <ele>171.3</ele>
        <time>2022-03-06T09:01:52.000Z</time>
      </trkpt>
      <trkpt lat="43.2979" lon="2.22446">
        <ele>171.3</ele>
        <time>2022-03-06T09:01:53.000Z</time>
      </trkpt>
      <trkpt lat="43.29789" lon="2.22446">
        <ele>171.3</ele>
        <time>2022-03-06T09:01:54.000Z</time>
      </trkpt>
      <trkpt lat="43.29789" lon="2.22446">
        <ele>171.3</ele>
        <time>2022-03-06T09:01:55.000Z</time>
      </trkpt>
      <trkpt lat="43.29789" lon="2.22446">
        <ele>171.3</ele>
        <time>2022-03-06T09:01:56.000Z</time>
      </trkpt>
      <trkpt lat="43.29789" lon="2.22446">
        <ele>171.3</ele>
        <time>2022-03-06T09:01:57.000Z</time>
      </trkpt>
      <trkpt lat="43.29789" lon="2.22446">
        <ele>171.3</ele>
        <time>2022-03-06T09:01:58.000Z</time>
      </trkpt>
      <trkpt lat="43.29789" lon="2.22445">
        <ele>171.3</ele>
        <time>2022-03-06T09:01:59.000Z</time>
      </trkpt>
      <trkpt lat="43.29788" lon="2.22445">
        <ele>171.3</ele>
        <time>2022-03-06T09:02:00.000Z</time>
      </trkpt>
      <trkpt lat="43.29788" lon="2.22445">
        <ele>171.3</ele>
        <time>2022-03-06T09:02:01.000Z</time>
      </trkpt>
      <trkpt lat="43.29788" lon="2.22445">
        <ele>171.3</ele>
        <time>2022-03-06T09:02:02.000Z</time>
      </trkpt>
      <trkpt lat="43.29788" lon="2.22445">
        <ele>171.3</ele>
        <time>2022-03-06T09:02:03.000Z</time>
      </trkpt>
      <trkpt lat="43.29788" lon="2.22445">
        <ele>171.3</ele>
        <time>2022-03-06T09:02:04.000Z</time>
      </trkpt>
      <trkpt lat="43.29788" lon="2.22445">
        <ele>171.3</ele>
        <time>2022-03-06T09:02:05.000Z</time>
      </trkpt>
      <trkpt lat="43.29788" lon="2.22445">
        <ele>171.3</ele>
        <time>2022-03-06T09:02:06.000Z</time>
      </trkpt>
      <trkpt lat="43.29788" lon="2.22445">
        <ele>171.3</ele>
        <time>2022-03-06T09:02:07.000Z</time>
      </trkpt>
      <trkpt lat="43.29788" lon="2.22445">
        <ele>171.3</ele>
        <time>2022-03-06T09:02:08.000Z</time>
      </trkpt>
      <trkpt lat="43.29788" lon="2.22445">
        <ele>171.3</ele>
        <time>2022-03-06T09:02:09.000Z</time>
      </trkpt>
      <trkpt lat="43.29788" lon="2.22445">
        <ele>171.3</ele>
        <time>2022-03-06T09:02:10.000Z</time>
      </trkpt>
      <trkpt lat="43.29788" lon="2.22445">
        <ele>171.3</ele>
        <time>2022-03-06T09:02:11.000Z</time>
      </trkpt>
      <trkpt lat="43.29788" lon="2.22445">
        <ele>171.3</ele>
        <time>2022-03-06T09:02:12.000Z</time>
      </trkpt>
      <trkpt lat="43.29788" lon="2.22445">
        <ele>171.3</ele>
        <time>2022-03-06T09:02:13.000Z</time>
      </trkpt>
      <trkpt lat="43.29788" lon="2.22445">
        <ele>171.2</ele>
        <time>2022-03-06T09:02:14.000Z</time>
      </trkpt>
      <trkpt lat="43.29788" lon="2.22444">
        <ele>171.2</ele>
        <time>2022-03-06T09:02:15.000Z</time>
      </trkpt>
      <trkpt lat="43.29788" lon="2.22444">
        <ele>171.2</ele>
        <time>2022-03-06T09:02:16.000Z</time>
      </trkpt>
      <trkpt lat="43.29788" lon="2.22444">
        <ele>171.1</ele>
        <time>2022-03-06T09:02:17.000Z</time>
      </trkpt>
      <trkpt lat="43.29788" lon="2.22444">
        <ele>171.1</ele>
        <time>2022-03-06T09:02:18.000Z</time>
      </trkpt>
      <trkpt lat="43.29788" lon="2.22444">
        <ele>171.1</ele>
        <time>2022-03-06T09:02:19.000Z</time>
      </trkpt>
      <trkpt lat="43.29788" lon="2.22444">
        <ele>171.1</ele>
        <time>2022-03-06T09:02:20.000Z</time>
      </trkpt>
      <trkpt lat="43.29788" lon="2.22444">
        <ele>171.1</ele>
        <time>2022-03-06T09:02:21.000Z</time>
      </trkpt>
      <trkpt lat="43.29788" lon="2.22444">
        <ele>171.1</ele>
        <time>2022-03-06T09:02:22.000Z</time>
      </trkpt>
      <trkpt lat="43.29788" lon="2.22444">
        <ele>171.1</ele>
        <time>2022-03-06T09:02:23.000Z</time>
      </trkpt>
      <trkpt lat="43.29788" lon="2.22443">
        <ele>171.1</ele>
        <time>2022-03-06T09:02:24.000Z</time>
      </trkpt>
      <trkpt lat="43.29788" lon="2.22443">
        <ele>171</ele>
        <time>2022-03-06T09:02:25.000Z</time>
      </trkpt>
      <trkpt lat="43.29788" lon="2.22443">
        <ele>171</ele>
        <time>2022-03-06T09:02:26.000Z</time>
      </trkpt>
      <trkpt lat="43.29788" lon="2.22443">
        <ele>171</ele>
        <time>2022-03-06T09:02:27.000Z</time>
      </trkpt>
      <trkpt lat="43.29788" lon="2.22442">
        <ele>170.9</ele>
        <time>2022-03-06T09:02:28.000Z</time>
      </trkpt>
      <trkpt lat="43.29788" lon="2.22442">
        <ele>170.9</ele>
        <time>2022-03-06T09:02:29.000Z</time>
      </trkpt>
      <trkpt lat="43.29788" lon="2.22442">
        <ele>170.9</ele>
        <time>2022-03-06T09:02:30.000Z</time>
      </trkpt>
      <trkpt lat="43.29789" lon="2.22443">
        <ele>171</ele>
        <time>2022-03-06T09:02:31.000Z</time>
      </trkpt>
      <trkpt lat="43.29789" lon="2.22443">
        <ele>171</ele>
        <time>2022-03-06T09:02:32.000Z</time>
      </trkpt>
      <trkpt lat="43.29789" lon="2.22443">
        <ele>171</ele>
        <time>2022-03-06T09:02:33.000Z</time>
      </trkpt>
      <trkpt lat="43.29789" lon="2.22443">
        <ele>171</ele>
        <time>2022-03-06T09:02:34.000Z</time>
      </trkpt>
      <trkpt lat="43.29789" lon="2.22444">
        <ele>171.1</ele>
        <time>2022-03-06T09:02:35.000Z</time>
      </trkpt>
      <trkpt lat="43.29789" lon="2.22444">
        <ele>171.1</ele>
        <time>2022-03-06T09:02:36.000Z</time>
      </trkpt>
      <trkpt lat="43.29789" lon="2.22444">
        <ele>171.1</ele>
        <time>2022-03-06T09:02:37.000Z</time>
      </trkpt>
      <trkpt lat="43.29789" lon="2.22444">
        <ele>171.2</ele>
        <time>2022-03-06T09:02:38.000Z</time>
      </trkpt>
      <trkpt lat="43.29789" lon="2.22444">
        <ele>171.2</ele>
        <time>2022-03-06T09:02:39.000Z</time>
      </trkpt>
      <trkpt lat="43.29789" lon="2.22444">
        <ele>171.2</ele>
        <time>2022-03-06T09:02:40.000Z</time>
      </trkpt>
      <trkpt lat="43.29788" lon="2.22445">
        <ele>171.2</ele>
        <time>2022-03-06T09:02:41.000Z</time>
      </trkpt>
      <trkpt lat="43.29788" lon="2.22445">
        <ele>171.3</ele>
        <time>2022-03-06T09:02:42.000Z</time>
      </trkpt>
      <trkpt lat="43.29788" lon="2.22446">
        <ele>171.5</ele>
        <time>2022-03-06T09:02:43.000Z</time>
      </trkpt>
      <trkpt lat="43.29787" lon="2.22447">
        <ele>171.6</ele>
        <time>2022-03-06T09:02:44.000Z</time>
      </trkpt>
      <trkpt lat="43.29787" lon="2.22448">
        <ele>171.8</ele>
        <time>2022-03-06T09:02:45.000Z</time>
      </trkpt>
      <trkpt lat="43.29786" lon="2.2245">
        <ele>172</ele>
        <time>2022-03-06T09:02:46.000Z</time>
      </trkpt>
      <trkpt lat="43.29786" lon="2.22451">
        <ele>172.2</ele>
        <time>2022-03-06T09:02:47.000Z</time>
      </trkpt>
      <trkpt lat="43.29786" lon="2.22453">
        <ele>172.4</ele>
        <time>2022-03-06T09:02:48.000Z</time>
      </trkpt>
      <trkpt lat="43.29786" lon="2.22454">
        <ele>172.6</ele>
        <time>2022-03-06T09:02:49.000Z</time>
      </trkpt>
      <trkpt lat="43.29786" lon="2.22456">
        <ele>172.8</ele>
        <time>2022-03-06T09:02:50.000Z</time>
      </trkpt>
      <trkpt lat="43.29786" lon="2.22457">
        <ele>173</ele>
        <time>2022-03-06T09:02:51.000Z</time>
      </trkpt>
      <trkpt lat="43.29787" lon="2.22459">
        <ele>173.1</ele>
        <time>2022-03-06T09:02:52.000Z</time>
      </trkpt>
      <trkpt lat="43.29787" lon="2.2246">
        <ele>173.3</ele>
        <time>2022-03-06T09:02:53.000Z</time>
      </trkpt>
      <trkpt lat="43.29787" lon="2.22462">
        <ele>173.5</ele>
        <time>2022-03-06T09:02:54.000Z</time>
      </trkpt>
      <trkpt lat="43.29787" lon="2.22464">
        <ele>173.7</ele>
        <time>2022-03-06T09:02:55.000Z</time>
      </trkpt>
      <trkpt lat="43.29786" lon="2.22465">
        <ele>174</ele>
        <time>2022-03-06T09:02:56.000Z</time>
      </trkpt>
      <trkpt lat="43.29786" lon="2.22467">
        <ele>174.2</ele>
        <time>2022-03-06T09:02:57.000Z</time>
      </trkpt>
      <trkpt lat="43.29785" lon="2.22469">
        <ele>174.5</ele>
        <time>2022-03-06T09:02:58.000Z</time>
      </trkpt>
      <trkpt lat="43.29785" lon="2.2247">
        <ele>174.7</ele>
        <time>2022-03-06T09:02:59.000Z</time>
      </trkpt>
      <trkpt lat="43.29784" lon="2.22472">
        <ele>175</ele>
        <time>2022-03-06T09:03:00.000Z</time>
      </trkpt>
      <trkpt lat="43.29784" lon="2.22474">
        <ele>175.3</ele>
        <time>2022-03-06T09:03:01.000Z</time>
      </trkpt>
      <trkpt lat="43.29783" lon="2.22476">
        <ele>175.6</ele>
        <time>2022-03-06T09:03:02.000Z</time>
      </trkpt>
      <trkpt lat="43.29783" lon="2.22478">
        <ele>175.9</ele>
        <time>2022-03-06T09:03:03.000Z</time>
      </trkpt>
      <trkpt lat="43.29782" lon="2.2248">
        <ele>176.2</ele>
        <time>2022-03-06T09:03:04.000Z</time>
      </trkpt>
      <trkpt lat="43.29781" lon="2.22483">
        <ele>176.5</ele>
        <time>2022-03-06T09:03:05.000Z</time>
      </trkpt>
      <trkpt lat="43.29781" lon="2.22485">
        <ele>176.9</ele>
        <time>2022-03-06T09:03:06.000Z</time>
      </trkpt>
      <trkpt lat="43.2978" lon="2.22487">
        <ele>177.2</ele>
        <time>2022-03-06T09:03:07.000Z</time>
      </trkpt>
      <trkpt lat="43.2978" lon="2.2249">
        <ele>177.5</ele>
        <time>2022-03-06T09:03:08.000Z</time>
      </trkpt>
      <trkpt lat="43.29779" lon="2.22492">
        <ele>177.9</ele>
        <time>2022-03-06T09:03:09.000Z</time>
      </trkpt>
      <trkpt lat="43.29778" lon="2.22493">
        <ele>178.1</ele>
        <time>2022-03-06T09:03:10.000Z</time>
      </trkpt>
      <trkpt lat="43.29777" lon="2.22495">
        <ele>178.4</ele>
        <time>2022-03-06T09:03:11.000Z</time>
      </trkpt>
      <trkpt lat="43.29777" lon="2.22496">
        <ele>178.6</ele>
        <time>2022-03-06T09:03:12.000Z</time>
      </trkpt>
      <trkpt lat="43.29776" lon="2.22498">
        <ele>178.8</ele>
        <time>2022-03-06T09:03:13.000Z</time>
      </trkpt>
      <trkpt lat="43.29776" lon="2.22499">
        <ele>179</ele>
        <time>2022-03-06T09:03:14.000Z</time>
      </trkpt>
      <trkpt lat="43.29775" lon="2.225">
        <ele>179.2</ele>
        <time>2022-03-06T09:03:15.000Z</time>
      </trkpt>
      <trkpt lat="43.29775" lon="2.22502">
        <ele>179.4</ele>
        <time>2022-03-06T09:03:16.000Z</time>
      </trkpt>
      <trkpt lat="43.29775" lon="2.22503">
        <ele>179.6</ele>
        <time>2022-03-06T09:03:17.000Z</time>
      </trkpt>
      <trkpt lat="43.29775" lon="2.22505">
        <ele>179.8</ele>
        <time>2022-03-06T09:03:18.000Z</time>
      </trkpt>
      <trkpt lat="43.29776" lon="2.22506">
        <ele>180</ele>
        <time>2022-03-06T09:03:19.000Z</time>
      </trkpt>
      <trkpt lat="43.29776" lon="2.22508">
        <ele>180.2</ele>
        <time>2022-03-06T09:03:20.000Z</time>
      </trkpt>
      <trkpt lat="43.29777" lon="2.2251">
        <ele>180.4</ele>
        <time>2022-03-06T09:03:21.000Z</time>
      </trkpt>
      <trkpt lat="43.29777" lon="2.22512">
        <ele>180.6</ele>
        <time>2022-03-06T09:03:22.000Z</time>
      </trkpt>
      <trkpt lat="43.29777" lon="2.22514">
        <ele>180.8</ele>
        <time>2022-03-06T09:03:23.000Z</time>
      </trkpt>
      <trkpt lat="43.29777" lon="2.22515">
        <ele>181</ele>
        <time>2022-03-06T09:03:24.000Z</time>
      </trkpt>
      <trkpt lat="43.29778" lon="2.22517">
        <ele>181.2</ele>
        <time>2022-03-06T09:03:25.000Z</time>
      </trkpt>
      <trkpt lat="43.29778" lon="2.22519">
        <ele>181.5</ele>
        <time>2022-03-06T09:03:26.000Z</time>
      </trkpt>
      <trkpt lat="43.29778" lon="2.22521">
        <ele>181.7</ele>
        <time>2022-03-06T09:03:27.000Z</time>
      </trkpt>
      <trkpt lat="43.29777" lon="2.22523">
        <ele>181.9</ele>
        <time>2022-03-06T09:03:28.000Z</time>
      </trkpt>
      <trkpt lat="43.29778" lon="2.22524">
        <ele>182.1</ele>
        <time>2022-03-06T09:03:29.000Z</time>
      </trkpt>
      <trkpt lat="43.29778" lon="2.22526">
        <ele>182.4</ele>
        <time>2022-03-06T09:03:30.000Z</time>
      </trkpt>
      <trkpt lat="43.29778" lon="2.22528">
        <ele>182.6</ele>
        <time>2022-03-06T09:03:31.000Z</time>
      </trkpt>
      <trkpt lat="43.29778" lon="2.2253">
        <ele>182.9</ele>
        <time>2022-03-06T09:03:32.000Z</time>
      </trkpt>
      <trkpt lat="43.29779" lon="2.22532">
        <ele>183.1</ele>
        <time>2022-03-06T09:03:33.000Z</time>
      </trkpt>
      <trkpt lat="43.29779" lon="2.22535">
        <ele>183.3</ele>
        <time>2022-03-06T09:03:34.000Z</time>
      </trkpt>
      <trkpt lat="43.2978" lon="2.22537">
        <ele>183.6</ele>
        <time>2022-03-06T09:03:35.000Z</time>
      </trkpt>
      <trkpt lat="43.2978" lon="2.22539">
        <ele>183.8</ele>
        <time>2022-03-06T09:03:36.000Z</time>
      </trkpt>
      <trkpt lat="43.29781" lon="2.22541">
        <ele>184.1</ele>
        <time>2022-03-06T09:03:37.000Z</time>
      </trkpt>
      <trkpt lat="43.29781" lon="2.22543">
        <ele>184.3</ele>
        <time>2022-03-06T09:03:38.000Z</time>
      </trkpt>
      <trkpt lat="43.29782" lon="2.22546">
        <ele>184.6</ele>
        <time>2022-03-06T09:03:39.000Z</time>
      </trkpt>
      <trkpt lat="43.29782" lon="2.22548">
        <ele>184.9</ele>
        <time>2022-03-06T09:03:40.000Z</time>
      </trkpt>
      <trkpt lat="43.29782" lon="2.2255">
        <ele>185.1</ele>
        <time>2022-03-06T09:03:41.000Z</time>
      </trkpt>
      <trkpt lat="43.29783" lon="2.22552">
        <ele>185.4</ele>
        <time>2022-03-06T09:03:42.000Z</time>
      </trkpt>
      <trkpt lat="43.29783" lon="2.22554">
        <ele>185.7</ele>
        <time>2022-03-06T09:03:43.000Z</time>
      </trkpt>
      <trkpt lat="43.29783" lon="2.22556">
        <ele>185.9</ele>
        <time>2022-03-06T09:03:44.000Z</time>
      </trkpt>
      <trkpt lat="43.29783" lon="2.22558">
        <ele>186.2</ele>
        <time>2022-03-06T09:03:45.000Z</time>
      </trkpt>
      <trkpt lat="43.29782" lon="2.2256">
        <ele>186.5</ele>
        <time>2022-03-06T09:03:46.000Z</time>
      </trkpt>
      <trkpt lat="43.29782" lon="2.22562">
        <ele>186.8</ele>
        <time>2022-03-06T09:03:47.000Z</time>
      </trkpt>
      <trkpt lat="43.29782" lon="2.22564">
        <ele>187</ele>
        <time>2022-03-06T09:03:48.000Z</time>
      </trkpt>
      <trkpt lat="43.29781" lon="2.22566">
        <ele>187.3</ele>
        <time>2022-03-06T09:03:49.000Z</time>
      </trkpt>
      <trkpt lat="43.29781" lon="2.22568">
        <ele>187.6</ele>
        <time>2022-03-06T09:03:50.000Z</time>
      </trkpt>
      <trkpt lat="43.29781" lon="2.2257">
        <ele>187.8</ele>
        <time>2022-03-06T09:03:51.000Z</time>
      </trkpt>
      <trkpt lat="43.2978" lon="2.22572">
        <ele>188.1</ele>
        <time>2022-03-06T09:03:52.000Z</time>
      </trkpt>
      <trkpt lat="43.2978" lon="2.22574">
        <ele>188.4</ele>
        <time>2022-03-06T09:03:53.000Z</time>
      </trkpt>
      <trkpt lat="43.2978" lon="2.22576">
        <ele>188.6</ele>
        <time>2022-03-06T09:03:54.000Z</time>
      </trkpt>
      <trkpt lat="43.2978" lon="2.22579">
        <ele>188.9</ele>
        <time>2022-03-06T09:03:55.000Z</time>
      </trkpt>
      <trkpt lat="43.2978" lon="2.22581">
        <ele>189.2</ele>
        <time>2022-03-06T09:03:56.000Z</time>
      </trkpt>
      <trkpt lat="43.2978" lon="2.22583">
        <ele>189.5</ele>
        <time>2022-03-06T09:03:57.000Z</time>
      </trkpt>
      <trkpt lat="43.29781" lon="2.22586">
        <ele>189.7</ele>
        <time>2022-03-06T09:03:58.000Z</time>
      </trkpt>
      <trkpt lat="43.29781" lon="2.22589">
        <ele>189.9</ele>
        <time>2022-03-06T09:03:59.000Z</time>
      </trkpt>
      <trkpt lat="43.29781" lon="2.22592">
        <ele>190.1</ele>
        <time>2022-03-06T09:04:00.000Z</time>
      </trkpt>
      <trkpt lat="43.29781" lon="2.22595">
        <ele>190.4</ele>
        <time>2022-03-06T09:04:01.000Z</time>
      </trkpt>
      <trkpt lat="43.29782" lon="2.22598">
        <ele>190.6</ele>
        <time>2022-03-06T09:04:02.000Z</time>
      </trkpt>
      <trkpt lat="43.29782" lon="2.226">
        <ele>190.8</ele>
        <time>2022-03-06T09:04:03.000Z</time>
      </trkpt>
      <trkpt lat="43.29782" lon="2.22603">
        <ele>190.9</ele>
        <time>2022-03-06T09:04:04.000Z</time>
      </trkpt>
      <trkpt lat="43.29781" lon="2.22605">
        <ele>191.1</ele>
        <time>2022-03-06T09:04:05.000Z</time>
      </trkpt>
      <trkpt lat="43.29781" lon="2.22606">
        <ele>191.2</ele>
        <time>2022-03-06T09:04:06.000Z</time>
      </trkpt>
      <trkpt lat="43.29781" lon="2.22608">
        <ele>191.3</ele>
        <time>2022-03-06T09:04:07.000Z</time>
      </trkpt>
      <trkpt lat="43.29781" lon="2.22609">
        <ele>191.4</ele>
        <time>2022-03-06T09:04:08.000Z</time>
      </trkpt>
      <trkpt lat="43.2978" lon="2.2261">
        <ele>191.5</ele>
        <time>2022-03-06T09:04:09.000Z</time>
      </trkpt>
      <trkpt lat="43.2978" lon="2.22611">
        <ele>191.6</ele>
        <time>2022-03-06T09:04:10.000Z</time>
      </trkpt>
      <trkpt lat="43.2978" lon="2.22611">
        <ele>191.6</ele>
        <time>2022-03-06T09:04:11.000Z</time>
      </trkpt>
      <trkpt lat="43.2978" lon="2.22611">
        <ele>191.6</ele>
        <time>2022-03-06T09:04:12.000Z</time>
      </trkpt>
      <trkpt lat="43.2978" lon="2.22611">
        <ele>191.6</ele>
        <time>2022-03-06T09:04:13.000Z</time>
      </trkpt>
      <trkpt lat="43.2978" lon="2.22611">
        <ele>191.6</ele>
        <time>2022-03-06T09:04:14.000Z</time>
      </trkpt>
      <trkpt lat="43.2978" lon="2.22611">
        <ele>191.6</ele>
        <time>2022-03-06T09:04:15.000Z</time>
      </trkpt>
      <trkpt lat="43.2978" lon="2.22611">
        <ele>191.6</ele>
        <time>2022-03-06T09:04:16.000Z</time>
      </trkpt>
      <trkpt lat="43.2978" lon="2.22611">
        <ele>191.6</ele>
        <time>2022-03-06T09:04:17.000Z</time>
      </trkpt>
      <trkpt lat="43.2978" lon="2.22611">
        <ele>191.6</ele>
        <time>2022-03-06T09:04:18.000Z</time>
      </trkpt>
      <trkpt lat="43.2978" lon="2.22611">
        <ele>191.6</ele>
        <time>2022-03-06T09:04:19.000Z</time>
      </trkpt>
      <trkpt lat="43.2978" lon="2.22612">
        <ele>191.6</ele>
        <time>2022-03-06T09:04:20.000Z</time>
      </trkpt>
      <trkpt lat="43.2978" lon="2.22612">
        <ele>191.7</ele>
        <time>2022-03-06T09:04:21.000Z</time>
      </trkpt>
      <trkpt lat="43.2978" lon="2.22613">
        <ele>191.8</ele>
        <time>2022-03-06T09:04:22.000Z</time>
      </trkpt>
      <trkpt lat="43.2978" lon="2.22614">
        <ele>191.9</ele>
        <time>2022-03-06T09:04:23.000Z</time>
      </trkpt>
      <trkpt lat="43.2978" lon="2.22615">
        <ele>191.9</ele>
        <time>2022-03-06T09:04:24.000Z</time>
      </trkpt>
      <trkpt lat="43.2978" lon="2.22616">
        <ele>192</ele>
        <time>2022-03-06T09:04:25.000Z</time>
      </trkpt>
      <trkpt lat="43.2978" lon="2.22616">
        <ele>192</ele>
        <time>2022-03-06T09:04:26.000Z</time>
      </trkpt>
      <trkpt lat="43.2978" lon="2.22616">
        <ele>192</ele>
        <time>2022-03-06T09:04:27.000Z</time>
      </trkpt>
      <trkpt lat="43.2978" lon="2.22616">
        <ele>192</ele>
        <time>2022-03-06T09:04:28.000Z</time>
      </trkpt>
      <trkpt lat="43.2978" lon="2.22616">
        <ele>192</ele>
        <time>2022-03-06T09:04:29.000Z</time>
      </trkpt>
      <trkpt lat="43.2978" lon="2.22616">
        <ele>192</ele>
        <time>2022-03-06T09:04:30.000Z</time>
      </trkpt>
      <trkpt lat="43.2978" lon="2.22616">
        <ele>192</ele>
        <time>2022-03-06T09:04:31.000Z</time>
      </trkpt>
      <trkpt lat="43.2978" lon="2.22616">
        <ele>192</ele>
        <time>2022-03-06T09:04:32.000Z</time>
      </trkpt>
      <trkpt lat="43.2978" lon="2.22616">
        <ele>192</ele>
        <time>2022-03-06T09:04:33.000Z</time>
      </trkpt>
      <trkpt lat="43.2978" lon="2.22617">
        <ele>192</ele>
        <time>2022-03-06T09:04:34.000Z</time>
      </trkpt>
      <trkpt lat="43.2978" lon="2.22618">
        <ele>192.1</ele>
        <time>2022-03-06T09:04:35.000Z</time>
      </trkpt>
      <trkpt lat="43.2978" lon="2.2262">
        <ele>192.2</ele>
        <time>2022-03-06T09:04:36.000Z</time>
      </trkpt>
      <trkpt lat="43.2978" lon="2.22622">
        <ele>192.4</ele>
        <time>2022-03-06T09:04:37.000Z</time>
      </trkpt>
      <trkpt lat="43.2978" lon="2.22624">
        <ele>192.6</ele>
        <time>2022-03-06T09:04:38.000Z</time>
      </trkpt>
      <trkpt lat="43.29779" lon="2.22626">
        <ele>192.7</ele>
        <time>2022-03-06T09:04:39.000Z</time>
      </trkpt>
      <trkpt lat="43.29779" lon="2.22629">
        <ele>192.9</ele>
        <time>2022-03-06T09:04:40.000Z</time>
      </trkpt>
      <trkpt lat="43.29778" lon="2.22631">
        <ele>193.1</ele>
        <time>2022-03-06T09:04:41.000Z</time>
      </trkpt>
      <trkpt lat="43.29778" lon="2.22634">
        <ele>193.3</ele>
        <time>2022-03-06T09:04:42.000Z</time>
      </trkpt>
      <trkpt lat="43.29777" lon="2.22636">
        <ele>193.5</ele>
        <time>2022-03-06T09:04:43.000Z</time>
      </trkpt>
      <trkpt lat="43.29777" lon="2.22639">
        <ele>193.7</ele>
        <time>2022-03-06T09:04:44.000Z</time>
      </trkpt>
      <trkpt lat="43.29776" lon="2.22642">
        <ele>193.9</ele>
        <time>2022-03-06T09:04:45.000Z</time>
      </trkpt>
      <trkpt lat="43.29775" lon="2.22645">
        <ele>194.1</ele>
        <time>2022-03-06T09:04:46.000Z</time>
      </trkpt>
      <trkpt lat="43.29774" lon="2.22648">
        <ele>194.3</ele>
        <time>2022-03-06T09:04:47.000Z</time>
      </trkpt>
      <trkpt lat="43.29773" lon="2.2265">
        <ele>194.4</ele>
        <time>2022-03-06T09:04:48.000Z</time>
      </trkpt>
      <trkpt lat="43.29772" lon="2.22653">
        <ele>194.6</ele>
        <time>2022-03-06T09:04:49.000Z</time>
      </trkpt>
      <trkpt lat="43.2977" lon="2.22654">
        <ele>194.6</ele>
        <time>2022-03-06T09:04:50.000Z</time>
      </trkpt>
      <trkpt lat="43.29769" lon="2.22654">
        <ele>194.7</ele>
        <time>2022-03-06T09:04:51.000Z</time>
      </trkpt>
      <trkpt lat="43.29766" lon="2.22654">
        <ele>194.6</ele>
        <time>2022-03-06T09:04:52.000Z</time>
      </trkpt>
      <trkpt lat="43.29764" lon="2.22654">
        <ele>194.6</ele>
        <time>2022-03-06T09:04:53.000Z</time>
      </trkpt>
      <trkpt lat="43.29762" lon="2.22653">
        <ele>194.5</ele>
        <time>2022-03-06T09:04:54.000Z</time>
      </trkpt>
      <trkpt lat="43.2976" lon="2.22652">
        <ele>194.4</ele>
        <time>2022-03-06T09:04:55.000Z</time>
      </trkpt>
      <trkpt lat="43.29757" lon="2.22651">
        <ele>194.3</ele>
        <time>2022-03-06T09:04:56.000Z</time>
      </trkpt>
      <trkpt lat="43.29755" lon="2.2265">
        <ele>194.2</ele>
        <time>2022-03-06T09:04:57.000Z</time>
      </trkpt>
      <trkpt lat="43.29753" lon="2.22649">
        <ele>194.2</ele>
        <time>2022-03-06T09:04:58.000Z</time>
      </trkpt>
      <trkpt lat="43.29751" lon="2.22649">
        <ele>194.2</ele>
        <time>2022-03-06T09:04:59.000Z</time>
      </trkpt>
      <trkpt lat="43.29749" lon="2.2265">
        <ele>194</ele>
        <time>2022-03-06T09:05:00.000Z</time>
      </trkpt>
      <trkpt lat="43.29747" lon="2.22651">
        <ele>193.7</ele>
        <time>2022-03-06T09:05:01.000Z</time>
      </trkpt>
      <trkpt lat="43.29745" lon="2.22653">
        <ele>193.5</ele>
        <time>2022-03-06T09:05:02.000Z</time>
      </trkpt>
      <trkpt lat="43.29743" lon="2.22655">
        <ele>193.2</ele>
        <time>2022-03-06T09:05:03.000Z</time>
      </trkpt>
      <trkpt lat="43.29741" lon="2.22657">
        <ele>193</ele>
        <time>2022-03-06T09:05:04.000Z</time>
      </trkpt>
      <trkpt lat="43.2974" lon="2.2266">
        <ele>192.9</ele>
        <time>2022-03-06T09:05:05.000Z</time>
      </trkpt>
      <trkpt lat="43.29738" lon="2.22662">
        <ele>192.7</ele>
        <time>2022-03-06T09:05:06.000Z</time>
      </trkpt>
      <trkpt lat="43.29736" lon="2.22665">
        <ele>192.6</ele>
        <time>2022-03-06T09:05:07.000Z</time>
      </trkpt>
      <trkpt lat="43.29735" lon="2.22667">
        <ele>192.4</ele>
        <time>2022-03-06T09:05:08.000Z</time>
      </trkpt>
      <trkpt lat="43.29733" lon="2.22669">
        <ele>192.2</ele>
        <time>2022-03-06T09:05:09.000Z</time>
      </trkpt>
      <trkpt lat="43.29731" lon="2.22671">
        <ele>192</ele>
        <time>2022-03-06T09:05:10.000Z</time>
      </trkpt>
      <trkpt lat="43.29729" lon="2.22673">
        <ele>191.7</ele>
        <time>2022-03-06T09:05:11.000Z</time>
      </trkpt>
      <trkpt lat="43.29726" lon="2.22674">
        <ele>191.4</ele>
        <time>2022-03-06T09:05:12.000Z</time>
      </trkpt>
      <trkpt lat="43.29724" lon="2.22676">
        <ele>191</ele>
        <time>2022-03-06T09:05:13.000Z</time>
      </trkpt>
      <trkpt lat="43.29721" lon="2.22677">
        <ele>190.6</ele>
        <time>2022-03-06T09:05:14.000Z</time>
      </trkpt>
      <trkpt lat="43.29718" lon="2.22678">
        <ele>190.2</ele>
        <time>2022-03-06T09:05:15.000Z</time>
      </trkpt>
      <trkpt lat="43.29716" lon="2.2268">
        <ele>189.9</ele>
        <time>2022-03-06T09:05:16.000Z</time>
      </trkpt>
      <trkpt lat="43.29713" lon="2.22681">
        <ele>189.5</ele>
        <time>2022-03-06T09:05:17.000Z</time>
      </trkpt>
      <trkpt lat="43.29711" lon="2.22682">
        <ele>189.2</ele>
        <time>2022-03-06T09:05:18.000Z</time>
      </trkpt>
      <trkpt lat="43.29709" lon="2.22684">
        <ele>189</ele>
        <time>2022-03-06T09:05:19.000Z</time>
      </trkpt>
      <trkpt lat="43.29707" lon="2.22685">
        <ele>188.7</ele>
        <time>2022-03-06T09:05:20.000Z</time>
      </trkpt>
      <trkpt lat="43.29705" lon="2.22686">
        <ele>188.4</ele>
        <time>2022-03-06T09:05:21.000Z</time>
      </trkpt>
      <trkpt lat="43.29703" lon="2.22688">
        <ele>188.1</ele>
        <time>2022-03-06T09:05:22.000Z</time>
      </trkpt>
      <trkpt lat="43.29701" lon="2.22689">
        <ele>187.7</ele>
        <time>2022-03-06T09:05:23.000Z</time>
      </trkpt>
      <trkpt lat="43.29698" lon="2.2269">
        <ele>187.4</ele>
        <time>2022-03-06T09:05:24.000Z</time>
      </trkpt>
      <trkpt lat="43.29696" lon="2.22692">
        <ele>187.2</ele>
        <time>2022-03-06T09:05:25.000Z</time>
      </trkpt>
      <trkpt lat="43.29694" lon="2.22695">
        <ele>187</ele>
        <time>2022-03-06T09:05:26.000Z</time>
      </trkpt>
      <trkpt lat="43.29693" lon="2.22698">
        <ele>186.9</ele>
        <time>2022-03-06T09:05:27.000Z</time>
      </trkpt>
      <trkpt lat="43.29691" lon="2.22702">
        <ele>186.7</ele>
        <time>2022-03-06T09:05:28.000Z</time>
      </trkpt>
      <trkpt lat="43.29689" lon="2.22706">
        <ele>186.7</ele>
        <time>2022-03-06T09:05:29.000Z</time>
      </trkpt>
      <trkpt lat="43.29688" lon="2.2271">
        <ele>186.6</ele>
        <time>2022-03-06T09:05:30.000Z</time>
      </trkpt>
      <trkpt lat="43.29686" lon="2.22714">
        <ele>186.5</ele>
        <time>2022-03-06T09:05:31.000Z</time>
      </trkpt>
      <trkpt lat="43.29685" lon="2.22718">
        <ele>186.4</ele>
        <time>2022-03-06T09:05:32.000Z</time>
      </trkpt>
      <trkpt lat="43.29683" lon="2.22721">
        <ele>186.4</ele>
        <time>2022-03-06T09:05:33.000Z</time>
      </trkpt>
      <trkpt lat="43.29681" lon="2.22725">
        <ele>186.3</ele>
        <time>2022-03-06T09:05:34.000Z</time>
      </trkpt>
      <trkpt lat="43.2968" lon="2.22729">
        <ele>186.2</ele>
        <time>2022-03-06T09:05:35.000Z</time>
      </trkpt>
      <trkpt lat="43.29678" lon="2.22733">
        <ele>186.1</ele>
        <time>2022-03-06T09:05:36.000Z</time>
      </trkpt>
      <trkpt lat="43.29676" lon="2.22736">
        <ele>185.9</ele>
        <time>2022-03-06T09:05:37.000Z</time>
      </trkpt>
      <trkpt lat="43.29674" lon="2.2274">
        <ele>185.7</ele>
        <time>2022-03-06T09:05:38.000Z</time>
      </trkpt>
      <trkpt lat="43.29672" lon="2.22744">
        <ele>185.5</ele>
        <time>2022-03-06T09:05:39.000Z</time>
      </trkpt>
      <trkpt lat="43.29669" lon="2.22748">
        <ele>185.3</ele>
        <time>2022-03-06T09:05:40.000Z</time>
      </trkpt>
      <trkpt lat="43.29667" lon="2.22751">
        <ele>185.1</ele>
        <time>2022-03-06T09:05:41.000Z</time>
      </trkpt>
      <trkpt lat="43.29665" lon="2.22755">
        <ele>184.9</ele>
        <time>2022-03-06T09:05:42.000Z</time>
      </trkpt>
      <trkpt lat="43.29663" lon="2.22758">
        <ele>184.7</ele>
        <time>2022-03-06T09:05:43.000Z</time>
      </trkpt>
      <trkpt lat="43.29661" lon="2.22761">
        <ele>184.5</ele>
        <time>2022-03-06T09:05:44.000Z</time>
      </trkpt>
      <trkpt lat="43.2966" lon="2.22764">
        <ele>184.4</ele>
        <time>2022-03-06T09:05:45.000Z</time>
      </trkpt>
      <trkpt lat="43.29658" lon="2.22768">
        <ele>184.4</ele>
        <time>2022-03-06T09:05:46.000Z</time>
      </trkpt>
      <trkpt lat="43.29657" lon="2.22772">
        <ele>184.4</ele>
        <time>2022-03-06T09:05:47.000Z</time>
      </trkpt>
      <trkpt lat="43.29656" lon="2.22776">
        <ele>184.4</ele>
        <time>2022-03-06T09:05:48.000Z</time>
      </trkpt>
      <trkpt lat="43.29655" lon="2.2278">
        <ele>184.4</ele>
        <time>2022-03-06T09:05:49.000Z</time>
      </trkpt>
      <trkpt lat="43.29654" lon="2.22784">
        <ele>184.5</ele>
        <time>2022-03-06T09:05:50.000Z</time>
      </trkpt>
      <trkpt lat="43.29653" lon="2.22787">
        <ele>184.4</ele>
        <time>2022-03-06T09:05:51.000Z</time>
      </trkpt>
      <trkpt lat="43.29651" lon="2.2279">
        <ele>184.4</ele>
        <time>2022-03-06T09:05:52.000Z</time>
      </trkpt>
      <trkpt lat="43.2965" lon="2.22793">
        <ele>184.3</ele>
        <time>2022-03-06T09:05:53.000Z</time>
      </trkpt>
      <trkpt lat="43.29649" lon="2.22796">
        <ele>184.2</ele>
        <time>2022-03-06T09:05:54.000Z</time>
      </trkpt>
      <trkpt lat="43.29648" lon="2.22799">
        <ele>184.2</ele>
        <time>2022-03-06T09:05:55.000Z</time>
      </trkpt>
      <trkpt lat="43.29646" lon="2.22802">
        <ele>184.1</ele>
        <time>2022-03-06T09:05:56.000Z</time>
      </trkpt>
      <trkpt lat="43.29645" lon="2.22806">
        <ele>184.1</ele>
        <time>2022-03-06T09:05:57.000Z</time>
      </trkpt>
      <trkpt lat="43.29644" lon="2.22809">
        <ele>184.1</ele>
        <time>2022-03-06T09:05:58.000Z</time>
      </trkpt>
      <trkpt lat="43.29643" lon="2.22813">
        <ele>184.1</ele>
        <time>2022-03-06T09:05:59.000Z</time>
      </trkpt>
      <trkpt lat="43.29642" lon="2.22817">
        <ele>184.1</ele>
        <time>2022-03-06T09:06:00.000Z</time>
      </trkpt>
      <trkpt lat="43.29641" lon="2.22821">
        <ele>184.2</ele>
        <time>2022-03-06T09:06:01.000Z</time>
      </trkpt>
      <trkpt lat="43.2964" lon="2.22825">
        <ele>184.3</ele>
        <time>2022-03-06T09:06:02.000Z</time>
      </trkpt>
      <trkpt lat="43.29639" lon="2.22829">
        <ele>184.4</ele>
        <time>2022-03-06T09:06:03.000Z</time>
      </trkpt>
      <trkpt lat="43.29639" lon="2.22833">
        <ele>184.6</ele>
        <time>2022-03-06T09:06:04.000Z</time>
      </trkpt>
      <trkpt lat="43.29638" lon="2.22837">
        <ele>184.7</ele>
        <time>2022-03-06T09:06:05.000Z</time>
      </trkpt>
      <trkpt lat="43.29638" lon="2.22841">
        <ele>184.8</ele>
        <time>2022-03-06T09:06:06.000Z</time>
      </trkpt>
      <trkpt lat="43.29638" lon="2.22845">
        <ele>184.9</ele>
        <time>2022-03-06T09:06:07.000Z</time>
      </trkpt>
      <trkpt lat="43.29637" lon="2.22848">
        <ele>185</ele>
        <time>2022-03-06T09:06:08.000Z</time>
      </trkpt>
      <trkpt lat="43.29637" lon="2.22851">
        <ele>185.1</ele>
        <time>2022-03-06T09:06:09.000Z</time>
      </trkpt>
      <trkpt lat="43.29637" lon="2.22855">
        <ele>185.2</ele>
        <time>2022-03-06T09:06:10.000Z</time>
      </trkpt>
      <trkpt lat="43.29637" lon="2.22858">
        <ele>185.3</ele>
        <time>2022-03-06T09:06:11.000Z</time>
      </trkpt>
      <trkpt lat="43.29637" lon="2.2286">
        <ele>185.5</ele>
        <time>2022-03-06T09:06:12.000Z</time>
      </trkpt>
      <trkpt lat="43.29638" lon="2.22863">
        <ele>185.7</ele>
        <time>2022-03-06T09:06:13.000Z</time>
      </trkpt>
      <trkpt lat="43.29638" lon="2.22866">
        <ele>185.9</ele>
        <time>2022-03-06T09:06:14.000Z</time>
      </trkpt>
      <trkpt lat="43.29639" lon="2.22869">
        <ele>186.1</ele>
        <time>2022-03-06T09:06:15.000Z</time>
      </trkpt>
      <trkpt lat="43.2964" lon="2.22872">
        <ele>186.4</ele>
        <time>2022-03-06T09:06:16.000Z</time>
      </trkpt>
      <trkpt lat="43.29641" lon="2.22875">
        <ele>186.7</ele>
        <time>2022-03-06T09:06:17.000Z</time>
      </trkpt>
      <trkpt lat="43.29642" lon="2.22878">
        <ele>187</ele>
        <time>2022-03-06T09:06:18.000Z</time>
      </trkpt>
      <trkpt lat="43.29643" lon="2.2288">
        <ele>187.4</ele>
        <time>2022-03-06T09:06:19.000Z</time>
      </trkpt>
      <trkpt lat="43.29645" lon="2.22883">
        <ele>187.7</ele>
        <time>2022-03-06T09:06:20.000Z</time>
      </trkpt>
      <trkpt lat="43.29646" lon="2.22886">
        <ele>188</ele>
        <time>2022-03-06T09:06:21.000Z</time>
      </trkpt>
      <trkpt lat="43.29647" lon="2.22888">
        <ele>188.3</ele>
        <time>2022-03-06T09:06:22.000Z</time>
      </trkpt>
      <trkpt lat="43.29648" lon="2.22891">
        <ele>188.6</ele>
        <time>2022-03-06T09:06:23.000Z</time>
      </trkpt>
      <trkpt lat="43.29649" lon="2.22893">
        <ele>188.9</ele>
        <time>2022-03-06T09:06:24.000Z</time>
      </trkpt>
      <trkpt lat="43.2965" lon="2.22896">
        <ele>189.2</ele>
        <time>2022-03-06T09:06:25.000Z</time>
      </trkpt>
      <trkpt lat="43.29651" lon="2.22898">
        <ele>189.5</ele>
        <time>2022-03-06T09:06:26.000Z</time>
      </trkpt>
      <trkpt lat="43.29652" lon="2.229">
        <ele>189.8</ele>
        <time>2022-03-06T09:06:27.000Z</time>
      </trkpt>
      <trkpt lat="43.29653" lon="2.22902">
        <ele>190</ele>
        <time>2022-03-06T09:06:28.000Z</time>
      </trkpt>
      <trkpt lat="43.29654" lon="2.22904">
        <ele>190.3</ele>
        <time>2022-03-06T09:06:29.000Z</time>
      </trkpt>
      <trkpt lat="43.29655" lon="2.22907">
        <ele>190.5</ele>
        <time>2022-03-06T09:06:30.000Z</time>
      </trkpt>
      <trkpt lat="43.29656" lon="2.22909">
        <ele>190.7</ele>
        <time>2022-03-06T09:06:31.000Z</time>
      </trkpt>
      <trkpt lat="43.29657" lon="2.22911">
        <ele>191</ele>
        <time>2022-03-06T09:06:32.000Z</time>
      </trkpt>
      <trkpt lat="43.29657" lon="2.22913">
        <ele>191.2</ele>
        <time>2022-03-06T09:06:33.000Z</time>
      </trkpt>
      <trkpt lat="43.29658" lon="2.22916">
        <ele>191.3</ele>
        <time>2022-03-06T09:06:34.000Z</time>
      </trkpt>
      <trkpt lat="43.29658" lon="2.22918">
        <ele>191.6</ele>
        <time>2022-03-06T09:06:35.000Z</time>
      </trkpt>
      <trkpt lat="43.29659" lon="2.2292">
        <ele>191.7</ele>
        <time>2022-03-06T09:06:36.000Z</time>
      </trkpt>
      <trkpt lat="43.29659" lon="2.22923">
        <ele>191.9</ele>
        <time>2022-03-06T09:06:37.000Z</time>
      </trkpt>
      <trkpt lat="43.29659" lon="2.22926">
        <ele>192.1</ele>
        <time>2022-03-06T09:06:38.000Z</time>
      </trkpt>
      <trkpt lat="43.2966" lon="2.22928">
        <ele>192.3</ele>
        <time>2022-03-06T09:06:39.000Z</time>
      </trkpt>
      <trkpt lat="43.2966" lon="2.22931">
        <ele>192.4</ele>
        <time>2022-03-06T09:06:40.000Z</time>
      </trkpt>
      <trkpt lat="43.2966" lon="2.22933">
        <ele>192.6</ele>
        <time>2022-03-06T09:06:41.000Z</time>
      </trkpt>
      <trkpt lat="43.2966" lon="2.22936">
        <ele>192.7</ele>
        <time>2022-03-06T09:06:42.000Z</time>
      </trkpt>
      <trkpt lat="43.2966" lon="2.22939">
        <ele>192.9</ele>
        <time>2022-03-06T09:06:43.000Z</time>
      </trkpt>
      <trkpt lat="43.2966" lon="2.22942">
        <ele>193</ele>
        <time>2022-03-06T09:06:44.000Z</time>
      </trkpt>
      <trkpt lat="43.2966" lon="2.22944">
        <ele>193.2</ele>
        <time>2022-03-06T09:06:45.000Z</time>
      </trkpt>
      <trkpt lat="43.29661" lon="2.22947">
        <ele>193.4</ele>
        <time>2022-03-06T09:06:46.000Z</time>
      </trkpt>
      <trkpt lat="43.29661" lon="2.2295">
        <ele>193.5</ele>
        <time>2022-03-06T09:06:47.000Z</time>
      </trkpt>
      <trkpt lat="43.29661" lon="2.22953">
        <ele>193.7</ele>
        <time>2022-03-06T09:06:48.000Z</time>
      </trkpt>
      <trkpt lat="43.29661" lon="2.22955">
        <ele>193.9</ele>
        <time>2022-03-06T09:06:49.000Z</time>
      </trkpt>
      <trkpt lat="43.29662" lon="2.22958">
        <ele>194.1</ele>
        <time>2022-03-06T09:06:50.000Z</time>
      </trkpt>
      <trkpt lat="43.29662" lon="2.22961">
        <ele>194.3</ele>
        <time>2022-03-06T09:06:51.000Z</time>
      </trkpt>
      <trkpt lat="43.29662" lon="2.22963">
        <ele>194.5</ele>
        <time>2022-03-06T09:06:52.000Z</time>
      </trkpt>
      <trkpt lat="43.29663" lon="2.22966">
        <ele>194.7</ele>
        <time>2022-03-06T09:06:53.000Z</time>
      </trkpt>
      <trkpt lat="43.29663" lon="2.22969">
        <ele>194.9</ele>
        <time>2022-03-06T09:06:54.000Z</time>
      </trkpt>
      <trkpt lat="43.29664" lon="2.22971">
        <ele>195.1</ele>
        <time>2022-03-06T09:06:55.000Z</time>
      </trkpt>
      <trkpt lat="43.29664" lon="2.22974">
        <ele>195.3</ele>
        <time>2022-03-06T09:06:56.000Z</time>
      </trkpt>
      <trkpt lat="43.29665" lon="2.22977">
        <ele>195.6</ele>
        <time>2022-03-06T09:06:57.000Z</time>
      </trkpt>
      <trkpt lat="43.29666" lon="2.2298">
        <ele>195.8</ele>
        <time>2022-03-06T09:06:58.000Z</time>
      </trkpt>
      <trkpt lat="43.29666" lon="2.22982">
        <ele>196.1</ele>
        <time>2022-03-06T09:06:59.000Z</time>
      </trkpt>
      <trkpt lat="43.29667" lon="2.22985">
        <ele>196.3</ele>
        <time>2022-03-06T09:07:00.000Z</time>
      </trkpt>
      <trkpt lat="43.29667" lon="2.22988">
        <ele>196.5</ele>
        <time>2022-03-06T09:07:01.000Z</time>
      </trkpt>
      <trkpt lat="43.29668" lon="2.22991">
        <ele>196.7</ele>
        <time>2022-03-06T09:07:02.000Z</time>
      </trkpt>
      <trkpt lat="43.29668" lon="2.22995">
        <ele>196.9</ele>
        <time>2022-03-06T09:07:03.000Z</time>
      </trkpt>
      <trkpt lat="43.29669" lon="2.22998">
        <ele>197.1</ele>
        <time>2022-03-06T09:07:04.000Z</time>
      </trkpt>
      <trkpt lat="43.29669" lon="2.23001">
        <ele>197.3</ele>
        <time>2022-03-06T09:07:05.000Z</time>
      </trkpt>
      <trkpt lat="43.29669" lon="2.23004">
        <ele>197.4</ele>
        <time>2022-03-06T09:07:06.000Z</time>
      </trkpt>
      <trkpt lat="43.29669" lon="2.23007">
        <ele>197.5</ele>
        <time>2022-03-06T09:07:07.000Z</time>
      </trkpt>
      <trkpt lat="43.2967" lon="2.2301">
        <ele>197.5</ele>
        <time>2022-03-06T09:07:08.000Z</time>
      </trkpt>
      <trkpt lat="43.2967" lon="2.23013">
        <ele>197.6</ele>
        <time>2022-03-06T09:07:09.000Z</time>
      </trkpt>
      <trkpt lat="43.2967" lon="2.23016">
        <ele>197.6</ele>
        <time>2022-03-06T09:07:10.000Z</time>
      </trkpt>
      <trkpt lat="43.29669" lon="2.23019">
        <ele>197.6</ele>
        <time>2022-03-06T09:07:11.000Z</time>
      </trkpt>
      <trkpt lat="43.29669" lon="2.23021">
        <ele>197.6</ele>
        <time>2022-03-06T09:07:12.000Z</time>
      </trkpt>
      <trkpt lat="43.29669" lon="2.23023">
        <ele>197.6</ele>
        <time>2022-03-06T09:07:13.000Z</time>
      </trkpt>
      <trkpt lat="43.29669" lon="2.23024">
        <ele>197.6</ele>
        <time>2022-03-06T09:07:14.000Z</time>
      </trkpt>
      <trkpt lat="43.29668" lon="2.23026">
        <ele>197.5</ele>
        <time>2022-03-06T09:07:15.000Z</time>
      </trkpt>
      <trkpt lat="43.29668" lon="2.23027">
        <ele>197.5</ele>
        <time>2022-03-06T09:07:16.000Z</time>
      </trkpt>
      <trkpt lat="43.29668" lon="2.23027">
        <ele>197.5</ele>
        <time>2022-03-06T09:07:17.000Z</time>
      </trkpt>
      <trkpt lat="43.29668" lon="2.23028">
        <ele>197.5</ele>
        <time>2022-03-06T09:07:18.000Z</time>
      </trkpt>
      <trkpt lat="43.29668" lon="2.23028">
        <ele>197.5</ele>
        <time>2022-03-06T09:07:19.000Z</time>
      </trkpt>
      <trkpt lat="43.29668" lon="2.23029">
        <ele>197.5</ele>
        <time>2022-03-06T09:07:20.000Z</time>
      </trkpt>
      <trkpt lat="43.29668" lon="2.23029">
        <ele>197.5</ele>
        <time>2022-03-06T09:07:21.000Z</time>
      </trkpt>
      <trkpt lat="43.29668" lon="2.23029">
        <ele>197.5</ele>
        <time>2022-03-06T09:07:22.000Z</time>
      </trkpt>
      <trkpt lat="43.29668" lon="2.23029">
        <ele>197.5</ele>
        <time>2022-03-06T09:07:23.000Z</time>
      </trkpt>
      <trkpt lat="43.29668" lon="2.23029">
        <ele>197.5</ele>
        <time>2022-03-06T09:07:24.000Z</time>
      </trkpt>
      <trkpt lat="43.29668" lon="2.2303">
        <ele>197.6</ele>
        <time>2022-03-06T09:07:25.000Z</time>
      </trkpt>
      <trkpt lat="43.29668" lon="2.2303">
        <ele>197.6</ele>
        <time>2022-03-06T09:07:26.000Z</time>
      </trkpt>
      <trkpt lat="43.29668" lon="2.2303">
        <ele>197.6</ele>
        <time>2022-03-06T09:07:27.000Z</time>
      </trkpt>
      <trkpt lat="43.29668" lon="2.23031">
        <ele>197.6</ele>
        <time>2022-03-06T09:07:28.000Z</time>
      </trkpt>
      <trkpt lat="43.29668" lon="2.23032">
        <ele>197.5</ele>
        <time>2022-03-06T09:07:29.000Z</time>
      </trkpt>
      <trkpt lat="43.29667" lon="2.23033">
        <ele>197.5</ele>
        <time>2022-03-06T09:07:30.000Z</time>
      </trkpt>
      <trkpt lat="43.29667" lon="2.23035">
        <ele>197.4</ele>
        <time>2022-03-06T09:07:31.000Z</time>
      </trkpt>
      <trkpt lat="43.29666" lon="2.23036">
        <ele>197.3</ele>
        <time>2022-03-06T09:07:32.000Z</time>
      </trkpt>
      <trkpt lat="43.29665" lon="2.23036">
        <ele>197.2</ele>
        <time>2022-03-06T09:07:33.000Z</time>
      </trkpt>
      <trkpt lat="43.29665" lon="2.23037">
        <ele>197.1</ele>
        <time>2022-03-06T09:07:34.000Z</time>
      </trkpt>
      <trkpt lat="43.29664" lon="2.23039">
        <ele>197</ele>
        <time>2022-03-06T09:07:35.000Z</time>
      </trkpt>
      <trkpt lat="43.29664" lon="2.2304">
        <ele>197</ele>
        <time>2022-03-06T09:07:36.000Z</time>
      </trkpt>
      <trkpt lat="43.29664" lon="2.23042">
        <ele>197.1</ele>
        <time>2022-03-06T09:07:37.000Z</time>
      </trkpt>
      <trkpt lat="43.29665" lon="2.23045">
        <ele>197.2</ele>
        <time>2022-03-06T09:07:38.000Z</time>
      </trkpt>
      <trkpt lat="43.29665" lon="2.23047">
        <ele>197.3</ele>
        <time>2022-03-06T09:07:39.000Z</time>
      </trkpt>
      <trkpt lat="43.29666" lon="2.2305">
        <ele>197.4</ele>
        <time>2022-03-06T09:07:40.000Z</time>
      </trkpt>
      <trkpt lat="43.29667" lon="2.23053">
        <ele>197.6</ele>
        <time>2022-03-06T09:07:41.000Z</time>
      </trkpt>
      <trkpt lat="43.29667" lon="2.23056">
        <ele>197.7</ele>
        <time>2022-03-06T09:07:42.000Z</time>
      </trkpt>
      <trkpt lat="43.29668" lon="2.23059">
        <ele>197.9</ele>
        <time>2022-03-06T09:07:43.000Z</time>
      </trkpt>
      <trkpt lat="43.29669" lon="2.23062">
        <ele>198</ele>
        <time>2022-03-06T09:07:44.000Z</time>
      </trkpt>
      <trkpt lat="43.29669" lon="2.23065">
        <ele>198.2</ele>
        <time>2022-03-06T09:07:45.000Z</time>
      </trkpt>
      <trkpt lat="43.2967" lon="2.23068">
        <ele>198.3</ele>
        <time>2022-03-06T09:07:46.000Z</time>
      </trkpt>
      <trkpt lat="43.2967" lon="2.23071">
        <ele>198.4</ele>
        <time>2022-03-06T09:07:47.000Z</time>
      </trkpt>
      <trkpt lat="43.29671" lon="2.23073">
        <ele>198.4</ele>
        <time>2022-03-06T09:07:48.000Z</time>
      </trkpt>
      <trkpt lat="43.29671" lon="2.23075">
        <ele>198.5</ele>
        <time>2022-03-06T09:07:49.000Z</time>
      </trkpt>
      <trkpt lat="43.29671" lon="2.23078">
        <ele>198.5</ele>
        <time>2022-03-06T09:07:50.000Z</time>
      </trkpt>
      <trkpt lat="43.29671" lon="2.2308">
        <ele>198.6</ele>
        <time>2022-03-06T09:07:51.000Z</time>
      </trkpt>
      <trkpt lat="43.29671" lon="2.23082">
        <ele>198.6</ele>
        <time>2022-03-06T09:07:52.000Z</time>
      </trkpt>
      <trkpt lat="43.29671" lon="2.23084">
        <ele>198.6</ele>
        <time>2022-03-06T09:07:53.000Z</time>
      </trkpt>
      <trkpt lat="43.29672" lon="2.23087">
        <ele>198.6</ele>
        <time>2022-03-06T09:07:54.000Z</time>
      </trkpt>
      <trkpt lat="43.29672" lon="2.23089">
        <ele>198.6</ele>
        <time>2022-03-06T09:07:55.000Z</time>
      </trkpt>
      <trkpt lat="43.29673" lon="2.23092">
        <ele>198.7</ele>
        <time>2022-03-06T09:07:56.000Z</time>
      </trkpt>
      <trkpt lat="43.29673" lon="2.23094">
        <ele>198.7</ele>
        <time>2022-03-06T09:07:57.000Z</time>
      </trkpt>
      <trkpt lat="43.29674" lon="2.23097">
        <ele>198.8</ele>
        <time>2022-03-06T09:07:58.000Z</time>
      </trkpt>
      <trkpt lat="43.29675" lon="2.23099">
        <ele>198.9</ele>
        <time>2022-03-06T09:07:59.000Z</time>
      </trkpt>
      <trkpt lat="43.29677" lon="2.23102">
        <ele>199.1</ele>
        <time>2022-03-06T09:08:00.000Z</time>
      </trkpt>
      <trkpt lat="43.29678" lon="2.23104">
        <ele>199.3</ele>
        <time>2022-03-06T09:08:01.000Z</time>
      </trkpt>
      <trkpt lat="43.2968" lon="2.23107">
        <ele>199.5</ele>
        <time>2022-03-06T09:08:02.000Z</time>
      </trkpt>
      <trkpt lat="43.29682" lon="2.2311">
        <ele>199.8</ele>
        <time>2022-03-06T09:08:03.000Z</time>
      </trkpt>
      <trkpt lat="43.29684" lon="2.23112">
        <ele>200</ele>
        <time>2022-03-06T09:08:04.000Z</time>
      </trkpt>
      <trkpt lat="43.29686" lon="2.23114">
        <ele>200.3</ele>
        <time>2022-03-06T09:08:05.000Z</time>
      </trkpt>
      <trkpt lat="43.29688" lon="2.23117">
        <ele>200.6</ele>
        <time>2022-03-06T09:08:06.000Z</time>
      </trkpt>
      <trkpt lat="43.2969" lon="2.23119">
        <ele>200.8</ele>
        <time>2022-03-06T09:08:07.000Z</time>
      </trkpt>
      <trkpt lat="43.29691" lon="2.23121">
        <ele>201</ele>
        <time>2022-03-06T09:08:08.000Z</time>
      </trkpt>
      <trkpt lat="43.29692" lon="2.23123">
        <ele>201.2</ele>
        <time>2022-03-06T09:08:09.000Z</time>
      </trkpt>
      <trkpt lat="43.29694" lon="2.23125">
        <ele>201.3</ele>
        <time>2022-03-06T09:08:10.000Z</time>
      </trkpt>
      <trkpt lat="43.29695" lon="2.23127">
        <ele>201.5</ele>
        <time>2022-03-06T09:08:11.000Z</time>
      </trkpt>
      <trkpt lat="43.29696" lon="2.23129">
        <ele>201.6</ele>
        <time>2022-03-06T09:08:12.000Z</time>
      </trkpt>
      <trkpt lat="43.29697" lon="2.23132">
        <ele>201.8</ele>
        <time>2022-03-06T09:08:13.000Z</time>
      </trkpt>
      <trkpt lat="43.29698" lon="2.23134">
        <ele>201.9</ele>
        <time>2022-03-06T09:08:14.000Z</time>
      </trkpt>
      <trkpt lat="43.29699" lon="2.23136">
        <ele>202.1</ele>
        <time>2022-03-06T09:08:15.000Z</time>
      </trkpt>
      <trkpt lat="43.297" lon="2.23138">
        <ele>202.3</ele>
        <time>2022-03-06T09:08:16.000Z</time>
      </trkpt>
      <trkpt lat="43.29702" lon="2.2314">
        <ele>202.5</ele>
        <time>2022-03-06T09:08:17.000Z</time>
      </trkpt>
      <trkpt lat="43.29703" lon="2.23143">
        <ele>202.7</ele>
        <time>2022-03-06T09:08:18.000Z</time>
      </trkpt>
      <trkpt lat="43.29705" lon="2.23145">
        <ele>203</ele>
        <time>2022-03-06T09:08:19.000Z</time>
      </trkpt>
      <trkpt lat="43.29706" lon="2.23148">
        <ele>203.3</ele>
        <time>2022-03-06T09:08:20.000Z</time>
      </trkpt>
      <trkpt lat="43.29708" lon="2.23151">
        <ele>203.6</ele>
        <time>2022-03-06T09:08:21.000Z</time>
      </trkpt>
      <trkpt lat="43.2971" lon="2.23154">
        <ele>203.9</ele>
        <time>2022-03-06T09:08:22.000Z</time>
      </trkpt>
      <trkpt lat="43.29712" lon="2.23157">
        <ele>204.2</ele>
        <time>2022-03-06T09:08:23.000Z</time>
      </trkpt>
      <trkpt lat="43.29714" lon="2.23161">
        <ele>204.6</ele>
        <time>2022-03-06T09:08:24.000Z</time>
      </trkpt>
      <trkpt lat="43.29716" lon="2.23164">
        <ele>204.9</ele>
        <time>2022-03-06T09:08:25.000Z</time>
      </trkpt>
      <trkpt lat="43.29718" lon="2.23167">
        <ele>205.3</ele>
        <time>2022-03-06T09:08:26.000Z</time>
      </trkpt>
      <trkpt lat="43.2972" lon="2.2317">
        <ele>205.7</ele>
        <time>2022-03-06T09:08:27.000Z</time>
      </trkpt>
      <trkpt lat="43.29721" lon="2.23173">
        <ele>206</ele>
        <time>2022-03-06T09:08:28.000Z</time>
      </trkpt>
      <trkpt lat="43.29722" lon="2.23176">
        <ele>206.3</ele>
        <time>2022-03-06T09:08:29.000Z</time>
      </trkpt>
      <trkpt lat="43.29723" lon="2.23179">
        <ele>206.5</ele>
        <time>2022-03-06T09:08:30.000Z</time>
      </trkpt>
      <trkpt lat="43.29723" lon="2.23181">
        <ele>206.7</ele>
        <time>2022-03-06T09:08:31.000Z</time>
      </trkpt>
      <trkpt lat="43.29724" lon="2.23184">
        <ele>206.9</ele>
        <time>2022-03-06T09:08:32.000Z</time>
      </trkpt>
      <trkpt lat="43.29724" lon="2.23188">
        <ele>207.1</ele>
        <time>2022-03-06T09:08:33.000Z</time>
      </trkpt>
      <trkpt lat="43.29725" lon="2.23191">
        <ele>207.3</ele>
        <time>2022-03-06T09:08:34.000Z</time>
      </trkpt>
      <trkpt lat="43.29726" lon="2.23194">
        <ele>207.5</ele>
        <time>2022-03-06T09:08:35.000Z</time>
      </trkpt>
      <trkpt lat="43.29727" lon="2.23197">
        <ele>207.8</ele>
        <time>2022-03-06T09:08:36.000Z</time>
      </trkpt>
      <trkpt lat="43.29728" lon="2.232">
        <ele>208</ele>
        <time>2022-03-06T09:08:37.000Z</time>
      </trkpt>
      <trkpt lat="43.29729" lon="2.23203">
        <ele>208.3</ele>
        <time>2022-03-06T09:08:38.000Z</time>
      </trkpt>
      <trkpt lat="43.2973" lon="2.23205">
        <ele>208.5</ele>
        <time>2022-03-06T09:08:39.000Z</time>
      </trkpt>
      <trkpt lat="43.29731" lon="2.23207">
        <ele>208.6</ele>
        <time>2022-03-06T09:08:40.000Z</time>
      </trkpt>
      <trkpt lat="43.29731" lon="2.23209">
        <ele>208.7</ele>
        <time>2022-03-06T09:08:41.000Z</time>
      </trkpt>
      <trkpt lat="43.29731" lon="2.23211">
        <ele>208.7</ele>
        <time>2022-03-06T09:08:42.000Z</time>
      </trkpt>
      <trkpt lat="43.29731" lon="2.23213">
        <ele>208.7</ele>
        <time>2022-03-06T09:08:43.000Z</time>
      </trkpt>
      <trkpt lat="43.29731" lon="2.23214">
        <ele>208.7</ele>
        <time>2022-03-06T09:08:44.000Z</time>
      </trkpt>
      <trkpt lat="43.29731" lon="2.23215">
        <ele>208.7</ele>
        <time>2022-03-06T09:08:45.000Z</time>
      </trkpt>
      <trkpt lat="43.29731" lon="2.23216">
        <ele>208.8</ele>
        <time>2022-03-06T09:08:46.000Z</time>
      </trkpt>
      <trkpt lat="43.29731" lon="2.23218">
        <ele>208.8</ele>
        <time>2022-03-06T09:08:47.000Z</time>
      </trkpt>
      <trkpt lat="43.2973" lon="2.2322">
        <ele>208.8</ele>
        <time>2022-03-06T09:08:48.000Z</time>
      </trkpt>
      <trkpt lat="43.2973" lon="2.23221">
        <ele>208.9</ele>
        <time>2022-03-06T09:08:49.000Z</time>
      </trkpt>
      <trkpt lat="43.29731" lon="2.23224">
        <ele>208.9</ele>
        <time>2022-03-06T09:08:50.000Z</time>
      </trkpt>
      <trkpt lat="43.29731" lon="2.23226">
        <ele>209</ele>
        <time>2022-03-06T09:08:51.000Z</time>
      </trkpt>
      <trkpt lat="43.29732" lon="2.23228">
        <ele>209.2</ele>
        <time>2022-03-06T09:08:52.000Z</time>
      </trkpt>
      <trkpt lat="43.29733" lon="2.2323">
        <ele>209.3</ele>
        <time>2022-03-06T09:08:53.000Z</time>
      </trkpt>
      <trkpt lat="43.29734" lon="2.23233">
        <ele>209.5</ele>
        <time>2022-03-06T09:08:54.000Z</time>
      </trkpt>
      <trkpt lat="43.29735" lon="2.23235">
        <ele>209.7</ele>
        <time>2022-03-06T09:08:55.000Z</time>
      </trkpt>
      <trkpt lat="43.29736" lon="2.23238">
        <ele>209.8</ele>
        <time>2022-03-06T09:08:56.000Z</time>
      </trkpt>
      <trkpt lat="43.29737" lon="2.2324">
        <ele>209.9</ele>
        <time>2022-03-06T09:08:57.000Z</time>
      </trkpt>
      <trkpt lat="43.29738" lon="2.23242">
        <ele>210</ele>
        <time>2022-03-06T09:08:58.000Z</time>
      </trkpt>
      <trkpt lat="43.29739" lon="2.23244">
        <ele>210.1</ele>
        <time>2022-03-06T09:08:59.000Z</time>
      </trkpt>
      <trkpt lat="43.29739" lon="2.23246">
        <ele>210.2</ele>
        <time>2022-03-06T09:09:00.000Z</time>
      </trkpt>
      <trkpt lat="43.2974" lon="2.23247">
        <ele>210.2</ele>
        <time>2022-03-06T09:09:01.000Z</time>
      </trkpt>
      <trkpt lat="43.2974" lon="2.23248">
        <ele>210.3</ele>
        <time>2022-03-06T09:09:02.000Z</time>
      </trkpt>
      <trkpt lat="43.2974" lon="2.2325">
        <ele>210.3</ele>
        <time>2022-03-06T09:09:03.000Z</time>
      </trkpt>
      <trkpt lat="43.2974" lon="2.2325">
        <ele>210.3</ele>
        <time>2022-03-06T09:09:04.000Z</time>
      </trkpt>
      <trkpt lat="43.2974" lon="2.23251">
        <ele>210.4</ele>
        <time>2022-03-06T09:09:05.000Z</time>
      </trkpt>
      <trkpt lat="43.2974" lon="2.23252">
        <ele>210.4</ele>
        <time>2022-03-06T09:09:06.000Z</time>
      </trkpt>
      <trkpt lat="43.2974" lon="2.23252">
        <ele>210.4</ele>
        <time>2022-03-06T09:09:07.000Z</time>
      </trkpt>
      <trkpt lat="43.2974" lon="2.23252">
        <ele>210.4</ele>
        <time>2022-03-06T09:09:08.000Z</time>
      </trkpt>
      <trkpt lat="43.2974" lon="2.23252">
        <ele>210.5</ele>
        <time>2022-03-06T09:09:09.000Z</time>
      </trkpt>
      <trkpt lat="43.2974" lon="2.23253">
        <ele>210.5</ele>
        <time>2022-03-06T09:09:10.000Z</time>
      </trkpt>
      <trkpt lat="43.2974" lon="2.23253">
        <ele>210.5</ele>
        <time>2022-03-06T09:09:11.000Z</time>
      </trkpt>
      <trkpt lat="43.2974" lon="2.23253">
        <ele>210.5</ele>
        <time>2022-03-06T09:09:12.000Z</time>
      </trkpt>
      <trkpt lat="43.2974" lon="2.23253">
        <ele>210.5</ele>
        <time>2022-03-06T09:09:13.000Z</time>
      </trkpt>
      <trkpt lat="43.2974" lon="2.23253">
        <ele>210.5</ele>
        <time>2022-03-06T09:09:14.000Z</time>
      </trkpt>
      <trkpt lat="43.2974" lon="2.23253">
        <ele>210.5</ele>
        <time>2022-03-06T09:09:15.000Z</time>
      </trkpt>
      <trkpt lat="43.2974" lon="2.23254">
        <ele>210.5</ele>
        <time>2022-03-06T09:09:16.000Z</time>
      </trkpt>
      <trkpt lat="43.29741" lon="2.23254">
        <ele>210.6</ele>
        <time>2022-03-06T09:09:17.000Z</time>
      </trkpt>
      <trkpt lat="43.29741" lon="2.23254">
        <ele>210.6</ele>
        <time>2022-03-06T09:09:18.000Z</time>
      </trkpt>
      <trkpt lat="43.29741" lon="2.23254">
        <ele>210.6</ele>
        <time>2022-03-06T09:09:19.000Z</time>
      </trkpt>
      <trkpt lat="43.29741" lon="2.23254">
        <ele>210.6</ele>
        <time>2022-03-06T09:09:20.000Z</time>
      </trkpt>
      <trkpt lat="43.29741" lon="2.23255">
        <ele>210.6</ele>
        <time>2022-03-06T09:09:21.000Z</time>
      </trkpt>
      <trkpt lat="43.29741" lon="2.23255">
        <ele>210.6</ele>
        <time>2022-03-06T09:09:22.000Z</time>
      </trkpt>
      <trkpt lat="43.29741" lon="2.23255">
        <ele>210.6</ele>
        <time>2022-03-06T09:09:23.000Z</time>
      </trkpt>
      <trkpt lat="43.29741" lon="2.23255">
        <ele>210.7</ele>
        <time>2022-03-06T09:09:24.000Z</time>
      </trkpt>
      <trkpt lat="43.29741" lon="2.23255">
        <ele>210.7</ele>
        <time>2022-03-06T09:09:25.000Z</time>
      </trkpt>
      <trkpt lat="43.29741" lon="2.23255">
        <ele>210.7</ele>
        <time>2022-03-06T09:09:26.000Z</time>
      </trkpt>
      <trkpt lat="43.29741" lon="2.23256">
        <ele>210.7</ele>
        <time>2022-03-06T09:09:27.000Z</time>
      </trkpt>
      <trkpt lat="43.29741" lon="2.23256">
        <ele>210.7</ele>
        <time>2022-03-06T09:09:28.000Z</time>
      </trkpt>
      <trkpt lat="43.29741" lon="2.23256">
        <ele>210.7</ele>
        <time>2022-03-06T09:09:29.000Z</time>
      </trkpt>
      <trkpt lat="43.29741" lon="2.23256">
        <ele>210.7</ele>
        <time>2022-03-06T09:09:30.000Z</time>
      </trkpt>
      <trkpt lat="43.29741" lon="2.23256">
        <ele>210.7</ele>
        <time>2022-03-06T09:09:31.000Z</time>
      </trkpt>
      <trkpt lat="43.29741" lon="2.23256">
        <ele>210.7</ele>
        <time>2022-03-06T09:09:32.000Z</time>
      </trkpt>
      <trkpt lat="43.29741" lon="2.23256">
        <ele>210.7</ele>
        <time>2022-03-06T09:09:33.000Z</time>
      </trkpt>
      <trkpt lat="43.29741" lon="2.23256">
        <ele>210.7</ele>
        <time>2022-03-06T09:09:34.000Z</time>
      </trkpt>
      <trkpt lat="43.29741" lon="2.23256">
        <ele>210.7</ele>
        <time>2022-03-06T09:09:35.000Z</time>
      </trkpt>
      <trkpt lat="43.29741" lon="2.23256">
        <ele>210.7</ele>
        <time>2022-03-06T09:09:36.000Z</time>
      </trkpt>
      <trkpt lat="43.29741" lon="2.23256">
        <ele>210.7</ele>
        <time>2022-03-06T09:09:37.000Z</time>
      </trkpt>
      <trkpt lat="43.29741" lon="2.23256">
        <ele>210.7</ele>
        <time>2022-03-06T09:09:38.000Z</time>
      </trkpt>
      <trkpt lat="43.29741" lon="2.23256">
        <ele>210.7</ele>
        <time>2022-03-06T09:09:39.000Z</time>
      </trkpt>
      <trkpt lat="43.29741" lon="2.23256">
        <ele>210.7</ele>
        <time>2022-03-06T09:09:40.000Z</time>
      </trkpt>
      <trkpt lat="43.29741" lon="2.23256">
        <ele>210.7</ele>
        <time>2022-03-06T09:09:41.000Z</time>
      </trkpt>
      <trkpt lat="43.29741" lon="2.23256">
        <ele>210.7</ele>
        <time>2022-03-06T09:09:42.000Z</time>
      </trkpt>
      <trkpt lat="43.29741" lon="2.23256">
        <ele>210.7</ele>
        <time>2022-03-06T09:09:43.000Z</time>
      </trkpt>
      <trkpt lat="43.29741" lon="2.23256">
        <ele>210.7</ele>
        <time>2022-03-06T09:09:44.000Z</time>
      </trkpt>
      <trkpt lat="43.29741" lon="2.23256">
        <ele>210.7</ele>
        <time>2022-03-06T09:09:45.000Z</time>
      </trkpt>
      <trkpt lat="43.2974" lon="2.23256">
        <ele>210.7</ele>
        <time>2022-03-06T09:09:46.000Z</time>
      </trkpt>
      <trkpt lat="43.29739" lon="2.23255">
        <ele>210.5</ele>
        <time>2022-03-06T09:09:47.000Z</time>
      </trkpt>
      <trkpt lat="43.29738" lon="2.23254">
        <ele>210.4</ele>
        <time>2022-03-06T09:09:48.000Z</time>
      </trkpt>
      <trkpt lat="43.29737" lon="2.23254">
        <ele>210.3</ele>
        <time>2022-03-06T09:09:49.000Z</time>
      </trkpt>
      <trkpt lat="43.29735" lon="2.23254">
        <ele>210.2</ele>
        <time>2022-03-06T09:09:50.000Z</time>
      </trkpt>
      <trkpt lat="43.29735" lon="2.23253">
        <ele>210.1</ele>
        <time>2022-03-06T09:09:51.000Z</time>
      </trkpt>
      <trkpt lat="43.29734" lon="2.23252">
        <ele>210</ele>
        <time>2022-03-06T09:09:52.000Z</time>
      </trkpt>
      <trkpt lat="43.29734" lon="2.23251">
        <ele>209.9</ele>
        <time>2022-03-06T09:09:53.000Z</time>
      </trkpt>
      <trkpt lat="43.29733" lon="2.2325">
        <ele>209.8</ele>
        <time>2022-03-06T09:09:54.000Z</time>
      </trkpt>
      <trkpt lat="43.29732" lon="2.23249">
        <ele>209.7</ele>
        <time>2022-03-06T09:09:55.000Z</time>
      </trkpt>
      <trkpt lat="43.29731" lon="2.23247">
        <ele>209.6</ele>
        <time>2022-03-06T09:09:56.000Z</time>
      </trkpt>
      <trkpt lat="43.2973" lon="2.23246">
        <ele>209.5</ele>
        <time>2022-03-06T09:09:57.000Z</time>
      </trkpt>
      <trkpt lat="43.29729" lon="2.23245">
        <ele>209.3</ele>
        <time>2022-03-06T09:09:58.000Z</time>
      </trkpt>
      <trkpt lat="43.29728" lon="2.23244">
        <ele>209.2</ele>
        <time>2022-03-06T09:09:59.000Z</time>
      </trkpt>
      <trkpt lat="43.29727" lon="2.23242">
        <ele>209.1</ele>
        <time>2022-03-06T09:10:00.000Z</time>
      </trkpt>
      <trkpt lat="43.29726" lon="2.23241">
        <ele>209</ele>
        <time>2022-03-06T09:10:01.000Z</time>
      </trkpt>
      <trkpt lat="43.29725" lon="2.2324">
        <ele>208.9</ele>
        <time>2022-03-06T09:10:02.000Z</time>
      </trkpt>
      <trkpt lat="43.29724" lon="2.23238">
        <ele>208.7</ele>
        <time>2022-03-06T09:10:03.000Z</time>
      </trkpt>
      <trkpt lat="43.29723" lon="2.23237">
        <ele>208.6</ele>
        <time>2022-03-06T09:10:04.000Z</time>
      </trkpt>
      <trkpt lat="43.29722" lon="2.23235">
        <ele>208.4</ele>
        <time>2022-03-06T09:10:05.000Z</time>
      </trkpt>
      <trkpt lat="43.29721" lon="2.23234">
        <ele>208.3</ele>
        <time>2022-03-06T09:10:06.000Z</time>
      </trkpt>
      <trkpt lat="43.2972" lon="2.23232">
        <ele>208.1</ele>
        <time>2022-03-06T09:10:07.000Z</time>
      </trkpt>
      <trkpt lat="43.29719" lon="2.23231">
        <ele>208</ele>
        <time>2022-03-06T09:10:08.000Z</time>
      </trkpt>
      <trkpt lat="43.29718" lon="2.23229">
        <ele>207.8</ele>
        <time>2022-03-06T09:10:09.000Z</time>
      </trkpt>
      <trkpt lat="43.29717" lon="2.23228">
        <ele>207.7</ele>
        <time>2022-03-06T09:10:10.000Z</time>
      </trkpt>
      <trkpt lat="43.29716" lon="2.23226">
        <ele>207.5</ele>
        <time>2022-03-06T09:10:11.000Z</time>
      </trkpt>
      <trkpt lat="43.29715" lon="2.23225">
        <ele>207.3</ele>
        <time>2022-03-06T09:10:12.000Z</time>
      </trkpt>
      <trkpt lat="43.29714" lon="2.23223">
        <ele>207.1</ele>
        <time>2022-03-06T09:10:13.000Z</time>
      </trkpt>
      <trkpt lat="43.29712" lon="2.23221">
        <ele>206.9</ele>
        <time>2022-03-06T09:10:14.000Z</time>
      </trkpt>
      <trkpt lat="43.29711" lon="2.23219">
        <ele>206.6</ele>
        <time>2022-03-06T09:10:15.000Z</time>
      </trkpt>
      <trkpt lat="43.2971" lon="2.23216">
        <ele>206.3</ele>
        <time>2022-03-06T09:10:16.000Z</time>
      </trkpt>
      <trkpt lat="43.29708" lon="2.23214">
        <ele>206</ele>
        <time>2022-03-06T09:10:17.000Z</time>
      </trkpt>
      <trkpt lat="43.29707" lon="2.23211">
        <ele>205.7</ele>
        <time>2022-03-06T09:10:18.000Z</time>
      </trkpt>
      <trkpt lat="43.29705" lon="2.23209">
        <ele>205.4</ele>
        <time>2022-03-06T09:10:19.000Z</time>
      </trkpt>
      <trkpt lat="43.29704" lon="2.23206">
        <ele>205</ele>
        <time>2022-03-06T09:10:20.000Z</time>
      </trkpt>
      <trkpt lat="43.29702" lon="2.23204">
        <ele>204.7</ele>
        <time>2022-03-06T09:10:21.000Z</time>
      </trkpt>
      <trkpt lat="43.297" lon="2.23202">
        <ele>204.3</ele>
        <time>2022-03-06T09:10:22.000Z</time>
      </trkpt>
      <trkpt lat="43.29698" lon="2.23201">
        <ele>204</ele>
        <time>2022-03-06T09:10:23.000Z</time>
      </trkpt>
      <trkpt lat="43.29696" lon="2.23199">
        <ele>203.6</ele>
        <time>2022-03-06T09:10:24.000Z</time>
      </trkpt>
      <trkpt lat="43.29695" lon="2.23198">
        <ele>203.3</ele>
        <time>2022-03-06T09:10:25.000Z</time>
      </trkpt>
      <trkpt lat="43.29693" lon="2.23197">
        <ele>202.9</ele>
        <time>2022-03-06T09:10:26.000Z</time>
      </trkpt>
      <trkpt lat="43.29691" lon="2.23196">
        <ele>202.6</ele>
        <time>2022-03-06T09:10:27.000Z</time>
      </trkpt>
      <trkpt lat="43.29689" lon="2.23194">
        <ele>202.2</ele>
        <time>2022-03-06T09:10:28.000Z</time>
      </trkpt>
      <trkpt lat="43.29687" lon="2.23193">
        <ele>201.8</ele>
        <time>2022-03-06T09:10:29.000Z</time>
      </trkpt>
      <trkpt lat="43.29685" lon="2.23192">
        <ele>201.4</ele>
        <time>2022-03-06T09:10:30.000Z</time>
      </trkpt>
      <trkpt lat="43.29683" lon="2.2319">
        <ele>201</ele>
        <time>2022-03-06T09:10:31.000Z</time>
      </trkpt>
      <trkpt lat="43.29681" lon="2.23189">
        <ele>200.6</ele>
        <time>2022-03-06T09:10:32.000Z</time>
      </trkpt>
      <trkpt lat="43.29679" lon="2.23187">
        <ele>200.2</ele>
        <time>2022-03-06T09:10:33.000Z</time>
      </trkpt>
      <trkpt lat="43.29678" lon="2.23186">
        <ele>199.8</ele>
        <time>2022-03-06T09:10:34.000Z</time>
      </trkpt>
      <trkpt lat="43.29677" lon="2.23184">
        <ele>199.5</ele>
        <time>2022-03-06T09:10:35.000Z</time>
      </trkpt>
      <trkpt lat="43.29676" lon="2.23183">
        <ele>199.2</ele>
        <time>2022-03-06T09:10:36.000Z</time>
      </trkpt>
      <trkpt lat="43.29675" lon="2.23182">
        <ele>198.9</ele>
        <time>2022-03-06T09:10:37.000Z</time>
      </trkpt>
      <trkpt lat="43.29674" lon="2.23181">
        <ele>198.7</ele>
        <time>2022-03-06T09:10:38.000Z</time>
      </trkpt>
      <trkpt lat="43.29673" lon="2.23179">
        <ele>198.4</ele>
        <time>2022-03-06T09:10:39.000Z</time>
      </trkpt>
      <trkpt lat="43.29671" lon="2.23177">
        <ele>197.9</ele>
        <time>2022-03-06T09:10:40.000Z</time>
      </trkpt>
      <trkpt lat="43.2967" lon="2.23175">
        <ele>197.4</ele>
        <time>2022-03-06T09:10:41.000Z</time>
      </trkpt>
      <trkpt lat="43.29667" lon="2.23172">
        <ele>196.7</ele>
        <time>2022-03-06T09:10:42.000Z</time>
      </trkpt>
      <trkpt lat="43.29665" lon="2.23169">
        <ele>196.1</ele>
        <time>2022-03-06T09:10:43.000Z</time>
      </trkpt>
      <trkpt lat="43.29663" lon="2.23167">
        <ele>195.6</ele>
        <time>2022-03-06T09:10:44.000Z</time>
      </trkpt>
      <trkpt lat="43.29662" lon="2.23165">
        <ele>195.4</ele>
        <time>2022-03-06T09:10:45.000Z</time>
      </trkpt>
      <trkpt lat="43.2966" lon="2.23163">
        <ele>195.2</ele>
        <time>2022-03-06T09:10:46.000Z</time>
      </trkpt>
      <trkpt lat="43.29658" lon="2.23162">
        <ele>195</ele>
        <time>2022-03-06T09:10:47.000Z</time>
      </trkpt>
      <trkpt lat="43.29656" lon="2.2316">
        <ele>194.8</ele>
        <time>2022-03-06T09:10:48.000Z</time>
      </trkpt>
      <trkpt lat="43.29655" lon="2.23159">
        <ele>194.5</ele>
        <time>2022-03-06T09:10:49.000Z</time>
      </trkpt>
      <trkpt lat="43.29653" lon="2.23158">
        <ele>194.3</ele>
        <time>2022-03-06T09:10:50.000Z</time>
      </trkpt>
      <trkpt lat="43.29651" lon="2.23156">
        <ele>194</ele>
        <time>2022-03-06T09:10:51.000Z</time>
      </trkpt>
      <trkpt lat="43.29648" lon="2.23155">
        <ele>193.7</ele>
        <time>2022-03-06T09:10:52.000Z</time>
      </trkpt>
      <trkpt lat="43.29646" lon="2.23154">
        <ele>193.4</ele>
        <time>2022-03-06T09:10:53.000Z</time>
      </trkpt>
      <trkpt lat="43.29643" lon="2.23152">
        <ele>193.1</ele>
        <time>2022-03-06T09:10:54.000Z</time>
      </trkpt>
      <trkpt lat="43.29641" lon="2.23151">
        <ele>192.7</ele>
        <time>2022-03-06T09:10:55.000Z</time>
      </trkpt>
      <trkpt lat="43.29638" lon="2.23149">
        <ele>192.3</ele>
        <time>2022-03-06T09:10:56.000Z</time>
      </trkpt>
      <trkpt lat="43.29635" lon="2.23148">
        <ele>191.9</ele>
        <time>2022-03-06T09:10:57.000Z</time>
      </trkpt>
      <trkpt lat="43.29632" lon="2.23146">
        <ele>191.5</ele>
        <time>2022-03-06T09:10:58.000Z</time>
      </trkpt>
      <trkpt lat="43.29629" lon="2.23145">
        <ele>191.1</ele>
        <time>2022-03-06T09:10:59.000Z</time>
      </trkpt>
      <trkpt lat="43.29626" lon="2.23144">
        <ele>190.7</ele>
        <time>2022-03-06T09:11:00.000Z</time>
      </trkpt>
      <trkpt lat="43.29623" lon="2.23143">
        <ele>190.3</ele>
        <time>2022-03-06T09:11:01.000Z</time>
      </trkpt>
      <trkpt lat="43.29621" lon="2.23141">
        <ele>189.8</ele>
        <time>2022-03-06T09:11:02.000Z</time>
      </trkpt>
      <trkpt lat="43.29618" lon="2.2314">
        <ele>189.4</ele>
        <time>2022-03-06T09:11:03.000Z</time>
      </trkpt>
      <trkpt lat="43.29615" lon="2.23139">
        <ele>189</ele>
        <time>2022-03-06T09:11:04.000Z</time>
      </trkpt>
      <trkpt lat="43.29613" lon="2.23138">
        <ele>188.7</ele>
        <time>2022-03-06T09:11:05.000Z</time>
      </trkpt>
      <trkpt lat="43.2961" lon="2.23137">
        <ele>188.3</ele>
        <time>2022-03-06T09:11:06.000Z</time>
      </trkpt>
      <trkpt lat="43.29608" lon="2.23137">
        <ele>187.9</ele>
        <time>2022-03-06T09:11:07.000Z</time>
      </trkpt>
      <trkpt lat="43.29606" lon="2.23136">
        <ele>187.6</ele>
        <time>2022-03-06T09:11:08.000Z</time>
      </trkpt>
      <trkpt lat="43.29603" lon="2.23136">
        <ele>187.2</ele>
        <time>2022-03-06T09:11:09.000Z</time>
      </trkpt>
      <trkpt lat="43.29601" lon="2.23136">
        <ele>186.9</ele>
        <time>2022-03-06T09:11:10.000Z</time>
      </trkpt>
      <trkpt lat="43.29599" lon="2.23136">
        <ele>186.5</ele>
        <time>2022-03-06T09:11:11.000Z</time>
      </trkpt>
      <trkpt lat="43.29596" lon="2.23137">
        <ele>186.2</ele>
        <time>2022-03-06T09:11:12.000Z</time>
      </trkpt>
      <trkpt lat="43.29594" lon="2.23138">
        <ele>185.9</ele>
        <time>2022-03-06T09:11:13.000Z</time>
      </trkpt>
      <trkpt lat="43.29592" lon="2.23139">
        <ele>185.6</ele>
        <time>2022-03-06T09:11:14.000Z</time>
      </trkpt>
      <trkpt lat="43.2959" lon="2.2314">
        <ele>185.3</ele>
        <time>2022-03-06T09:11:15.000Z</time>
      </trkpt>
      <trkpt lat="43.29588" lon="2.23142">
        <ele>185.1</ele>
        <time>2022-03-06T09:11:16.000Z</time>
      </trkpt>
      <trkpt lat="43.29587" lon="2.23144">
        <ele>185</ele>
        <time>2022-03-06T09:11:17.000Z</time>
      </trkpt>
      <trkpt lat="43.29586" lon="2.23145">
        <ele>184.8</ele>
        <time>2022-03-06T09:11:18.000Z</time>
      </trkpt>
      <trkpt lat="43.29585" lon="2.23146">
        <ele>184.7</ele>
        <time>2022-03-06T09:11:19.000Z</time>
      </trkpt>
      <trkpt lat="43.29584" lon="2.23147">
        <ele>184.6</ele>
        <time>2022-03-06T09:11:20.000Z</time>
      </trkpt>
      <trkpt lat="43.29583" lon="2.23148">
        <ele>184.6</ele>
        <time>2022-03-06T09:11:21.000Z</time>
      </trkpt>
      <trkpt lat="43.29583" lon="2.23148">
        <ele>184.7</ele>
        <time>2022-03-06T09:11:22.000Z</time>
      </trkpt>
      <trkpt lat="43.29583" lon="2.23148">
        <ele>184.8</ele>
        <time>2022-03-06T09:11:23.000Z</time>
      </trkpt>
      <trkpt lat="43.29582" lon="2.23148">
        <ele>184.8</ele>
        <time>2022-03-06T09:11:24.000Z</time>
      </trkpt>
      <trkpt lat="43.29582" lon="2.23148">
        <ele>184.8</ele>
        <time>2022-03-06T09:11:25.000Z</time>
      </trkpt>
      <trkpt lat="43.29582" lon="2.23149">
        <ele>184.8</ele>
        <time>2022-03-06T09:11:26.000Z</time>
      </trkpt>
      <trkpt lat="43.29582" lon="2.23149">
        <ele>185</ele>
        <time>2022-03-06T09:11:27.000Z</time>
      </trkpt>
      <trkpt lat="43.29581" lon="2.23149">
        <ele>185.1</ele>
        <time>2022-03-06T09:11:28.000Z</time>
      </trkpt>
      <trkpt lat="43.29581" lon="2.2315">
        <ele>185.3</ele>
        <time>2022-03-06T09:11:29.000Z</time>
      </trkpt>
      <trkpt lat="43.2958" lon="2.2315">
        <ele>185.6</ele>
        <time>2022-03-06T09:11:30.000Z</time>
      </trkpt>
      <trkpt lat="43.29579" lon="2.23151">
        <ele>185.8</ele>
        <time>2022-03-06T09:11:31.000Z</time>
      </trkpt>
      <trkpt lat="43.29578" lon="2.23151">
        <ele>186.1</ele>
        <time>2022-03-06T09:11:32.000Z</time>
      </trkpt>
      <trkpt lat="43.29577" lon="2.23151">
        <ele>186.4</ele>
        <time>2022-03-06T09:11:33.000Z</time>
      </trkpt>
      <trkpt lat="43.29576" lon="2.23152">
        <ele>186.7</ele>
        <time>2022-03-06T09:11:34.000Z</time>
      </trkpt>
      <trkpt lat="43.29575" lon="2.23152">
        <ele>187</ele>
        <time>2022-03-06T09:11:35.000Z</time>
      </trkpt>
      <trkpt lat="43.29574" lon="2.23152">
        <ele>187.3</ele>
        <time>2022-03-06T09:11:36.000Z</time>
      </trkpt>
      <trkpt lat="43.29572" lon="2.23152">
        <ele>187.6</ele>
        <time>2022-03-06T09:11:37.000Z</time>
      </trkpt>
      <trkpt lat="43.29571" lon="2.23152">
        <ele>187.9</ele>
        <time>2022-03-06T09:11:38.000Z</time>
      </trkpt>
      <trkpt lat="43.2957" lon="2.23152">
        <ele>188.2</ele>
        <time>2022-03-06T09:11:39.000Z</time>
      </trkpt>
      <trkpt lat="43.29569" lon="2.23152">
        <ele>188.5</ele>
        <time>2022-03-06T09:11:40.000Z</time>
      </trkpt>
      <trkpt lat="43.29568" lon="2.23152">
        <ele>188.8</ele>
        <time>2022-03-06T09:11:41.000Z</time>
      </trkpt>
      <trkpt lat="43.29567" lon="2.23152">
        <ele>189.1</ele>
        <time>2022-03-06T09:11:42.000Z</time>
      </trkpt>
      <trkpt lat="43.29566" lon="2.23152">
        <ele>189.4</ele>
        <time>2022-03-06T09:11:43.000Z</time>
      </trkpt>
      <trkpt lat="43.29565" lon="2.23151">
        <ele>189.6</ele>
        <time>2022-03-06T09:11:44.000Z</time>
      </trkpt>
      <trkpt lat="43.29564" lon="2.23151">
        <ele>189.9</ele>
        <time>2022-03-06T09:11:45.000Z</time>
      </trkpt>
      <trkpt lat="43.29563" lon="2.2315">
        <ele>190.2</ele>
        <time>2022-03-06T09:11:46.000Z</time>
      </trkpt>
      <trkpt lat="43.29562" lon="2.2315">
        <ele>190.5</ele>
        <time>2022-03-06T09:11:47.000Z</time>
      </trkpt>
      <trkpt lat="43.2956" lon="2.23149">
        <ele>190.7</ele>
        <time>2022-03-06T09:11:48.000Z</time>
      </trkpt>
      <trkpt lat="43.29559" lon="2.23148">
        <ele>191</ele>
        <time>2022-03-06T09:11:49.000Z</time>
      </trkpt>
      <trkpt lat="43.29558" lon="2.23148">
        <ele>191.2</ele>
        <time>2022-03-06T09:11:50.000Z</time>
      </trkpt>
      <trkpt lat="43.29557" lon="2.23147">
        <ele>191.5</ele>
        <time>2022-03-06T09:11:51.000Z</time>
      </trkpt>
      <trkpt lat="43.29556" lon="2.23146">
        <ele>191.7</ele>
        <time>2022-03-06T09:11:52.000Z</time>
      </trkpt>
      <trkpt lat="43.29556" lon="2.23145">
        <ele>191.9</ele>
        <time>2022-03-06T09:11:53.000Z</time>
      </trkpt>
      <trkpt lat="43.29555" lon="2.23143">
        <ele>192</ele>
        <time>2022-03-06T09:11:54.000Z</time>
      </trkpt>
      <trkpt lat="43.29554" lon="2.23141">
        <ele>192.2</ele>
        <time>2022-03-06T09:11:55.000Z</time>
      </trkpt>
      <trkpt lat="43.29553" lon="2.2314">
        <ele>192.3</ele>
        <time>2022-03-06T09:11:56.000Z</time>
      </trkpt>
      <trkpt lat="43.29553" lon="2.23138">
        <ele>192.4</ele>
        <time>2022-03-06T09:11:57.000Z</time>
      </trkpt>
      <trkpt lat="43.29552" lon="2.23135">
        <ele>192.4</ele>
        <time>2022-03-06T09:11:58.000Z</time>
      </trkpt>
      <trkpt lat="43.29552" lon="2.23133">
        <ele>192.5</ele>
        <time>2022-03-06T09:11:59.000Z</time>
      </trkpt>
      <trkpt lat="43.29551" lon="2.23131">
        <ele>192.5</ele>
        <time>2022-03-06T09:12:00.000Z</time>
      </trkpt>
      <trkpt lat="43.29551" lon="2.23128">
        <ele>192.5</ele>
        <time>2022-03-06T09:12:01.000Z</time>
      </trkpt>
      <trkpt lat="43.29551" lon="2.23126">
        <ele>192.5</ele>
        <time>2022-03-06T09:12:02.000Z</time>
      </trkpt>
      <trkpt lat="43.2955" lon="2.23124">
        <ele>192.5</ele>
        <time>2022-03-06T09:12:03.000Z</time>
      </trkpt>
      <trkpt lat="43.2955" lon="2.23121">
        <ele>192.4</ele>
        <time>2022-03-06T09:12:04.000Z</time>
      </trkpt>
      <trkpt lat="43.2955" lon="2.23118">
        <ele>192.4</ele>
        <time>2022-03-06T09:12:05.000Z</time>
      </trkpt>
      <trkpt lat="43.29549" lon="2.23116">
        <ele>192.4</ele>
        <time>2022-03-06T09:12:06.000Z</time>
      </trkpt>
      <trkpt lat="43.29549" lon="2.23113">
        <ele>192.4</ele>
        <time>2022-03-06T09:12:07.000Z</time>
      </trkpt>
      <trkpt lat="43.29549" lon="2.2311">
        <ele>192.4</ele>
        <time>2022-03-06T09:12:08.000Z</time>
      </trkpt>
      <trkpt lat="43.29548" lon="2.23108">
        <ele>192.4</ele>
        <time>2022-03-06T09:12:09.000Z</time>
      </trkpt>
      <trkpt lat="43.29548" lon="2.23105">
        <ele>192.4</ele>
        <time>2022-03-06T09:12:10.000Z</time>
      </trkpt>
      <trkpt lat="43.29547" lon="2.23101">
        <ele>192.4</ele>
        <time>2022-03-06T09:12:11.000Z</time>
      </trkpt>
      <trkpt lat="43.29547" lon="2.23097">
        <ele>192.3</ele>
        <time>2022-03-06T09:12:12.000Z</time>
      </trkpt>
      <trkpt lat="43.29547" lon="2.23093">
        <ele>192.2</ele>
        <time>2022-03-06T09:12:13.000Z</time>
      </trkpt>
      <trkpt lat="43.29546" lon="2.23088">
        <ele>192.1</ele>
        <time>2022-03-06T09:12:14.000Z</time>
      </trkpt>
      <trkpt lat="43.29546" lon="2.23083">
        <ele>191.9</ele>
        <time>2022-03-06T09:12:15.000Z</time>
      </trkpt>
      <trkpt lat="43.29546" lon="2.23079">
        <ele>191.8</ele>
        <time>2022-03-06T09:12:16.000Z</time>
      </trkpt>
      <trkpt lat="43.29546" lon="2.23076">
        <ele>191.7</ele>
        <time>2022-03-06T09:12:17.000Z</time>
      </trkpt>
      <trkpt lat="43.29547" lon="2.23072">
        <ele>191.5</ele>
        <time>2022-03-06T09:12:18.000Z</time>
      </trkpt>
      <trkpt lat="43.29547" lon="2.23069">
        <ele>191.4</ele>
        <time>2022-03-06T09:12:19.000Z</time>
      </trkpt>
      <trkpt lat="43.29547" lon="2.23066">
        <ele>191.3</ele>
        <time>2022-03-06T09:12:20.000Z</time>
      </trkpt>
      <trkpt lat="43.29547" lon="2.23063">
        <ele>191.2</ele>
        <time>2022-03-06T09:12:21.000Z</time>
      </trkpt>
      <trkpt lat="43.29547" lon="2.2306">
        <ele>191.1</ele>
        <time>2022-03-06T09:12:22.000Z</time>
      </trkpt>
      <trkpt lat="43.29547" lon="2.23057">
        <ele>191.1</ele>
        <time>2022-03-06T09:12:23.000Z</time>
      </trkpt>
      <trkpt lat="43.29546" lon="2.23054">
        <ele>191.1</ele>
        <time>2022-03-06T09:12:24.000Z</time>
      </trkpt>
      <trkpt lat="43.29546" lon="2.23051">
        <ele>191.1</ele>
        <time>2022-03-06T09:12:25.000Z</time>
      </trkpt>
      <trkpt lat="43.29545" lon="2.23047">
        <ele>191.2</ele>
        <time>2022-03-06T09:12:26.000Z</time>
      </trkpt>
      <trkpt lat="43.29544" lon="2.23044">
        <ele>191.3</ele>
        <time>2022-03-06T09:12:27.000Z</time>
      </trkpt>
      <trkpt lat="43.29544" lon="2.2304">
        <ele>191.3</ele>
        <time>2022-03-06T09:12:28.000Z</time>
      </trkpt>
      <trkpt lat="43.29543" lon="2.23037">
        <ele>191.4</ele>
        <time>2022-03-06T09:12:29.000Z</time>
      </trkpt>
      <trkpt lat="43.29542" lon="2.23033">
        <ele>191.4</ele>
        <time>2022-03-06T09:12:30.000Z</time>
      </trkpt>
      <trkpt lat="43.29542" lon="2.2303">
        <ele>191.4</ele>
        <time>2022-03-06T09:12:31.000Z</time>
      </trkpt>
      <trkpt lat="43.29541" lon="2.23026">
        <ele>191.5</ele>
        <time>2022-03-06T09:12:32.000Z</time>
      </trkpt>
      <trkpt lat="43.2954" lon="2.23023">
        <ele>191.5</ele>
        <time>2022-03-06T09:12:33.000Z</time>
      </trkpt>
      <trkpt lat="43.2954" lon="2.23019">
        <ele>191.5</ele>
        <time>2022-03-06T09:12:34.000Z</time>
      </trkpt>
      <trkpt lat="43.29539" lon="2.23015">
        <ele>191.5</ele>
        <time>2022-03-06T09:12:35.000Z</time>
      </trkpt>
      <trkpt lat="43.29539" lon="2.23011">
        <ele>191.4</ele>
        <time>2022-03-06T09:12:36.000Z</time>
      </trkpt>
      <trkpt lat="43.29538" lon="2.23008">
        <ele>191.4</ele>
        <time>2022-03-06T09:12:37.000Z</time>
      </trkpt>
      <trkpt lat="43.29538" lon="2.23004">
        <ele>191.4</ele>
        <time>2022-03-06T09:12:38.000Z</time>
      </trkpt>
      <trkpt lat="43.29537" lon="2.23">
        <ele>191.4</ele>
        <time>2022-03-06T09:12:39.000Z</time>
      </trkpt>
      <trkpt lat="43.29537" lon="2.22996">
        <ele>191.1</ele>
        <time>2022-03-06T09:12:40.000Z</time>
      </trkpt>
      <trkpt lat="43.29536" lon="2.22991">
        <ele>190.9</ele>
        <time>2022-03-06T09:12:41.000Z</time>
      </trkpt>
      <trkpt lat="43.29535" lon="2.22987">
        <ele>190.7</ele>
        <time>2022-03-06T09:12:42.000Z</time>
      </trkpt>
      <trkpt lat="43.29535" lon="2.22983">
        <ele>190.4</ele>
        <time>2022-03-06T09:12:43.000Z</time>
      </trkpt>
      <trkpt lat="43.29534" lon="2.22978">
        <ele>190.1</ele>
        <time>2022-03-06T09:12:44.000Z</time>
      </trkpt>
      <trkpt lat="43.29533" lon="2.22973">
        <ele>189.9</ele>
        <time>2022-03-06T09:12:45.000Z</time>
      </trkpt>
      <trkpt lat="43.29532" lon="2.22968">
        <ele>189.6</ele>
        <time>2022-03-06T09:12:46.000Z</time>
      </trkpt>
      <trkpt lat="43.29531" lon="2.22963">
        <ele>189.2</ele>
        <time>2022-03-06T09:12:47.000Z</time>
      </trkpt>
      <trkpt lat="43.2953" lon="2.22957">
        <ele>188.8</ele>
        <time>2022-03-06T09:12:48.000Z</time>
      </trkpt>
      <trkpt lat="43.29529" lon="2.22951">
        <ele>188.4</ele>
        <time>2022-03-06T09:12:49.000Z</time>
      </trkpt>
      <trkpt lat="43.29528" lon="2.22945">
        <ele>188</ele>
        <time>2022-03-06T09:12:50.000Z</time>
      </trkpt>
      <trkpt lat="43.29527" lon="2.2294">
        <ele>187.7</ele>
        <time>2022-03-06T09:12:51.000Z</time>
      </trkpt>
      <trkpt lat="43.29526" lon="2.22936">
        <ele>187.4</ele>
        <time>2022-03-06T09:12:52.000Z</time>
      </trkpt>
      <trkpt lat="43.29525" lon="2.22931">
        <ele>187.2</ele>
        <time>2022-03-06T09:12:53.000Z</time>
      </trkpt>
      <trkpt lat="43.29523" lon="2.22928">
        <ele>187.1</ele>
        <time>2022-03-06T09:12:54.000Z</time>
      </trkpt>
      <trkpt lat="43.29522" lon="2.22924">
        <ele>186.9</ele>
        <time>2022-03-06T09:12:55.000Z</time>
      </trkpt>
      <trkpt lat="43.2952" lon="2.22921">
        <ele>186.8</ele>
        <time>2022-03-06T09:12:56.000Z</time>
      </trkpt>
      <trkpt lat="43.29519" lon="2.22917">
        <ele>186.6</ele>
        <time>2022-03-06T09:12:57.000Z</time>
      </trkpt>
      <trkpt lat="43.29517" lon="2.22914">
        <ele>186.4</ele>
        <time>2022-03-06T09:12:58.000Z</time>
      </trkpt>
      <trkpt lat="43.29516" lon="2.2291">
        <ele>186.1</ele>
        <time>2022-03-06T09:12:59.000Z</time>
      </trkpt>
      <trkpt lat="43.29515" lon="2.22906">
        <ele>185.8</ele>
        <time>2022-03-06T09:13:00.000Z</time>
      </trkpt>
      <trkpt lat="43.29514" lon="2.22902">
        <ele>185.4</ele>
        <time>2022-03-06T09:13:01.000Z</time>
      </trkpt>
      <trkpt lat="43.29514" lon="2.22898">
        <ele>185</ele>
        <time>2022-03-06T09:13:02.000Z</time>
      </trkpt>
      <trkpt lat="43.29513" lon="2.22894">
        <ele>184.6</ele>
        <time>2022-03-06T09:13:03.000Z</time>
      </trkpt>
      <trkpt lat="43.29513" lon="2.2289">
        <ele>184.1</ele>
        <time>2022-03-06T09:13:04.000Z</time>
      </trkpt>
      <trkpt lat="43.29513" lon="2.22886">
        <ele>183.6</ele>
        <time>2022-03-06T09:13:05.000Z</time>
      </trkpt>
      <trkpt lat="43.29514" lon="2.22882">
        <ele>183</ele>
        <time>2022-03-06T09:13:06.000Z</time>
      </trkpt>
      <trkpt lat="43.29515" lon="2.22877">
        <ele>182.5</ele>
        <time>2022-03-06T09:13:07.000Z</time>
      </trkpt>
      <trkpt lat="43.29515" lon="2.22873">
        <ele>181.9</ele>
        <time>2022-03-06T09:13:08.000Z</time>
      </trkpt>
      <trkpt lat="43.29516" lon="2.22869">
        <ele>181.3</ele>
        <time>2022-03-06T09:13:09.000Z</time>
      </trkpt>
      <trkpt lat="43.29517" lon="2.22864">
        <ele>180.8</ele>
        <time>2022-03-06T09:13:10.000Z</time>
      </trkpt>
      <trkpt lat="43.29517" lon="2.2286">
        <ele>180.3</ele>
        <time>2022-03-06T09:13:11.000Z</time>
      </trkpt>
      <trkpt lat="43.29517" lon="2.22856">
        <ele>179.8</ele>
        <time>2022-03-06T09:13:12.000Z</time>
      </trkpt>
      <trkpt lat="43.29517" lon="2.22852">
        <ele>179.3</ele>
        <time>2022-03-06T09:13:13.000Z</time>
      </trkpt>
      <trkpt lat="43.29517" lon="2.22848">
        <ele>178.8</ele>
        <time>2022-03-06T09:13:14.000Z</time>
      </trkpt>
      <trkpt lat="43.29517" lon="2.22844">
        <ele>178.4</ele>
        <time>2022-03-06T09:13:15.000Z</time>
      </trkpt>
      <trkpt lat="43.29517" lon="2.22839">
        <ele>177.9</ele>
        <time>2022-03-06T09:13:16.000Z</time>
      </trkpt>
      <trkpt lat="43.29516" lon="2.22835">
        <ele>177.4</ele>
        <time>2022-03-06T09:13:17.000Z</time>
      </trkpt>
      <trkpt lat="43.29516" lon="2.22831">
        <ele>177</ele>
        <time>2022-03-06T09:13:18.000Z</time>
      </trkpt>
      <trkpt lat="43.29515" lon="2.22827">
        <ele>176.5</ele>
        <time>2022-03-06T09:13:19.000Z</time>
      </trkpt>
      <trkpt lat="43.29515" lon="2.22822">
        <ele>176</ele>
        <time>2022-03-06T09:13:20.000Z</time>
      </trkpt>
      <trkpt lat="43.29514" lon="2.22818">
        <ele>175.6</ele>
        <time>2022-03-06T09:13:21.000Z</time>
      </trkpt>
      <trkpt lat="43.29514" lon="2.22813">
        <ele>175.1</ele>
        <time>2022-03-06T09:13:22.000Z</time>
      </trkpt>
      <trkpt lat="43.29513" lon="2.22809">
        <ele>174.7</ele>
        <time>2022-03-06T09:13:23.000Z</time>
      </trkpt>
      <trkpt lat="43.29512" lon="2.22805">
        <ele>174.3</ele>
        <time>2022-03-06T09:13:24.000Z</time>
      </trkpt>
      <trkpt lat="43.29512" lon="2.22802">
        <ele>173.9</ele>
        <time>2022-03-06T09:13:25.000Z</time>
      </trkpt>
      <trkpt lat="43.29511" lon="2.22799">
        <ele>173.6</ele>
        <time>2022-03-06T09:13:26.000Z</time>
      </trkpt>
      <trkpt lat="43.29509" lon="2.22796">
        <ele>173.3</ele>
        <time>2022-03-06T09:13:27.000Z</time>
      </trkpt>
      <trkpt lat="43.29508" lon="2.22794">
        <ele>173.1</ele>
        <time>2022-03-06T09:13:28.000Z</time>
      </trkpt>
      <trkpt lat="43.29506" lon="2.22793">
        <ele>173</ele>
        <time>2022-03-06T09:13:29.000Z</time>
      </trkpt>
      <trkpt lat="43.29504" lon="2.22791">
        <ele>172.9</ele>
        <time>2022-03-06T09:13:30.000Z</time>
      </trkpt>
      <trkpt lat="43.29502" lon="2.22791">
        <ele>172.8</ele>
        <time>2022-03-06T09:13:31.000Z</time>
      </trkpt>
      <trkpt lat="43.295" lon="2.2279">
        <ele>172.8</ele>
        <time>2022-03-06T09:13:32.000Z</time>
      </trkpt>
      <trkpt lat="43.29498" lon="2.2279">
        <ele>173</ele>
        <time>2022-03-06T09:13:33.000Z</time>
      </trkpt>
      <trkpt lat="43.29496" lon="2.2279">
        <ele>173.2</ele>
        <time>2022-03-06T09:13:34.000Z</time>
      </trkpt>
      <trkpt lat="43.29494" lon="2.22791">
        <ele>173.4</ele>
        <time>2022-03-06T09:13:35.000Z</time>
      </trkpt>
      <trkpt lat="43.29491" lon="2.22791">
        <ele>173.7</ele>
        <time>2022-03-06T09:13:36.000Z</time>
      </trkpt>
      <trkpt lat="43.29489" lon="2.22792">
        <ele>174</ele>
        <time>2022-03-06T09:13:37.000Z</time>
      </trkpt>
      <trkpt lat="43.29487" lon="2.22793">
        <ele>174.3</ele>
        <time>2022-03-06T09:13:38.000Z</time>
      </trkpt>
      <trkpt lat="43.29484" lon="2.22794">
        <ele>174.6</ele>
        <time>2022-03-06T09:13:39.000Z</time>
      </trkpt>
      <trkpt lat="43.29482" lon="2.22795">
        <ele>174.9</ele>
        <time>2022-03-06T09:13:40.000Z</time>
      </trkpt>
      <trkpt lat="43.2948" lon="2.22797">
        <ele>175.1</ele>
        <time>2022-03-06T09:13:41.000Z</time>
      </trkpt>
      <trkpt lat="43.29478" lon="2.22798">
        <ele>175.4</ele>
        <time>2022-03-06T09:13:42.000Z</time>
      </trkpt>
      <trkpt lat="43.29475" lon="2.22799">
        <ele>175.7</ele>
        <time>2022-03-06T09:13:43.000Z</time>
      </trkpt>
      <trkpt lat="43.29473" lon="2.228">
        <ele>175.9</ele>
        <time>2022-03-06T09:13:44.000Z</time>
      </trkpt>
      <trkpt lat="43.29471" lon="2.22801">
        <ele>176.1</ele>
        <time>2022-03-06T09:13:45.000Z</time>
      </trkpt>
      <trkpt lat="43.29469" lon="2.22801">
        <ele>176.3</ele>
        <time>2022-03-06T09:13:46.000Z</time>
      </trkpt>
      <trkpt lat="43.29467" lon="2.22802">
        <ele>176.5</ele>
        <time>2022-03-06T09:13:47.000Z</time>
      </trkpt>
      <trkpt lat="43.29464" lon="2.22802">
        <ele>176.7</ele>
        <time>2022-03-06T09:13:48.000Z</time>
      </trkpt>
      <trkpt lat="43.29462" lon="2.22801">
        <ele>176.8</ele>
        <time>2022-03-06T09:13:49.000Z</time>
      </trkpt>
      <trkpt lat="43.29459" lon="2.22801">
        <ele>177</ele>
        <time>2022-03-06T09:13:50.000Z</time>
      </trkpt>
      <trkpt lat="43.29457" lon="2.228">
        <ele>177.1</ele>
        <time>2022-03-06T09:13:51.000Z</time>
      </trkpt>
      <trkpt lat="43.29454" lon="2.22799">
        <ele>177.3</ele>
        <time>2022-03-06T09:13:52.000Z</time>
      </trkpt>
      <trkpt lat="43.29452" lon="2.22799">
        <ele>177.4</ele>
        <time>2022-03-06T09:13:53.000Z</time>
      </trkpt>
      <trkpt lat="43.2945" lon="2.22798">
        <ele>177.5</ele>
        <time>2022-03-06T09:13:54.000Z</time>
      </trkpt>
      <trkpt lat="43.29447" lon="2.22797">
        <ele>177.7</ele>
        <time>2022-03-06T09:13:55.000Z</time>
      </trkpt>
      <trkpt lat="43.29445" lon="2.22797">
        <ele>177.8</ele>
        <time>2022-03-06T09:13:56.000Z</time>
      </trkpt>
      <trkpt lat="43.29443" lon="2.22796">
        <ele>177.9</ele>
        <time>2022-03-06T09:13:57.000Z</time>
      </trkpt>
      <trkpt lat="43.29442" lon="2.22796">
        <ele>178.1</ele>
        <time>2022-03-06T09:13:58.000Z</time>
      </trkpt>
      <trkpt lat="43.2944" lon="2.22795">
        <ele>178.2</ele>
        <time>2022-03-06T09:13:59.000Z</time>
      </trkpt>
      <trkpt lat="43.29438" lon="2.22795">
        <ele>178.3</ele>
        <time>2022-03-06T09:14:00.000Z</time>
      </trkpt>
      <trkpt lat="43.29437" lon="2.22795">
        <ele>178.4</ele>
        <time>2022-03-06T09:14:01.000Z</time>
      </trkpt>
      <trkpt lat="43.29435" lon="2.22794">
        <ele>178.5</ele>
        <time>2022-03-06T09:14:02.000Z</time>
      </trkpt>
      <trkpt lat="43.29434" lon="2.22794">
        <ele>178.6</ele>
        <time>2022-03-06T09:14:03.000Z</time>
      </trkpt>
      <trkpt lat="43.29433" lon="2.22793">
        <ele>178.7</ele>
        <time>2022-03-06T09:14:04.000Z</time>
      </trkpt>
      <trkpt lat="43.29431" lon="2.22792">
        <ele>178.8</ele>
        <time>2022-03-06T09:14:05.000Z</time>
      </trkpt>
      <trkpt lat="43.2943" lon="2.22791">
        <ele>178.8</ele>
        <time>2022-03-06T09:14:06.000Z</time>
      </trkpt>
      <trkpt lat="43.29429" lon="2.2279">
        <ele>178.9</ele>
        <time>2022-03-06T09:14:07.000Z</time>
      </trkpt>
      <trkpt lat="43.29429" lon="2.22789">
        <ele>179</ele>
        <time>2022-03-06T09:14:08.000Z</time>
      </trkpt>
      <trkpt lat="43.29428" lon="2.22788">
        <ele>179</ele>
        <time>2022-03-06T09:14:09.000Z</time>
      </trkpt>
      <trkpt lat="43.29427" lon="2.22787">
        <ele>179.1</ele>
        <time>2022-03-06T09:14:10.000Z</time>
      </trkpt>
      <trkpt lat="43.29426" lon="2.22785">
        <ele>179.1</ele>
        <time>2022-03-06T09:14:11.000Z</time>
      </trkpt>
      <trkpt lat="43.29426" lon="2.22785">
        <ele>179.1</ele>
        <time>2022-03-06T09:14:12.000Z</time>
      </trkpt>
      <trkpt lat="43.29426" lon="2.22784">
        <ele>179.2</ele>
        <time>2022-03-06T09:14:13.000Z</time>
      </trkpt>
      <trkpt lat="43.29425" lon="2.22784">
        <ele>179.2</ele>
        <time>2022-03-06T09:14:14.000Z</time>
      </trkpt>
      <trkpt lat="43.29425" lon="2.22784">
        <ele>179.2</ele>
        <time>2022-03-06T09:14:15.000Z</time>
      </trkpt>
      <trkpt lat="43.29425" lon="2.22784">
        <ele>179.2</ele>
        <time>2022-03-06T09:14:16.000Z</time>
      </trkpt>
      <trkpt lat="43.29425" lon="2.22784">
        <ele>179.2</ele>
        <time>2022-03-06T09:14:17.000Z</time>
      </trkpt>
      <trkpt lat="43.29425" lon="2.22784">
        <ele>179.2</ele>
        <time>2022-03-06T09:14:18.000Z</time>
      </trkpt>
      <trkpt lat="43.29425" lon="2.22784">
        <ele>179.2</ele>
        <time>2022-03-06T09:14:19.000Z</time>
      </trkpt>
      <trkpt lat="43.29425" lon="2.22784">
        <ele>179.2</ele>
        <time>2022-03-06T09:14:20.000Z</time>
      </trkpt>
      <trkpt lat="43.29424" lon="2.22783">
        <ele>179.3</ele>
        <time>2022-03-06T09:14:21.000Z</time>
      </trkpt>
      <trkpt lat="43.29424" lon="2.22783">
        <ele>179.3</ele>
        <time>2022-03-06T09:14:22.000Z</time>
      </trkpt>
      <trkpt lat="43.29423" lon="2.22783">
        <ele>179.3</ele>
        <time>2022-03-06T09:14:23.000Z</time>
      </trkpt>
      <trkpt lat="43.29423" lon="2.22783">
        <ele>179.4</ele>
        <time>2022-03-06T09:14:24.000Z</time>
      </trkpt>
      <trkpt lat="43.29423" lon="2.22783">
        <ele>179.4</ele>
        <time>2022-03-06T09:14:25.000Z</time>
      </trkpt>
      <trkpt lat="43.29422" lon="2.22783">
        <ele>179.5</ele>
        <time>2022-03-06T09:14:26.000Z</time>
      </trkpt>
      <trkpt lat="43.29422" lon="2.22783">
        <ele>179.5</ele>
        <time>2022-03-06T09:14:27.000Z</time>
      </trkpt>
      <trkpt lat="43.29422" lon="2.22783">
        <ele>179.5</ele>
        <time>2022-03-06T09:14:28.000Z</time>
      </trkpt>
      <trkpt lat="43.29422" lon="2.22783">
        <ele>179.5</ele>
        <time>2022-03-06T09:14:29.000Z</time>
      </trkpt>
      <trkpt lat="43.29421" lon="2.22783">
        <ele>179.6</ele>
        <time>2022-03-06T09:14:30.000Z</time>
      </trkpt>
      <trkpt lat="43.29421" lon="2.22783">
        <ele>179.6</ele>
        <time>2022-03-06T09:14:31.000Z</time>
      </trkpt>
      <trkpt lat="43.29421" lon="2.22783">
        <ele>179.6</ele>
        <time>2022-03-06T09:14:32.000Z</time>
      </trkpt>
      <trkpt lat="43.29421" lon="2.22783">
        <ele>179.6</ele>
        <time>2022-03-06T09:14:33.000Z</time>
      </trkpt>
      <trkpt lat="43.29421" lon="2.22784">
        <ele>179.6</ele>
        <time>2022-03-06T09:14:34.000Z</time>
      </trkpt>
      <trkpt lat="43.29421" lon="2.22784">
        <ele>179.6</ele>
        <time>2022-03-06T09:14:35.000Z</time>
      </trkpt>
      <trkpt lat="43.29421" lon="2.22784">
        <ele>179.6</ele>
        <time>2022-03-06T09:14:36.000Z</time>
      </trkpt>
      <trkpt lat="43.2942" lon="2.22784">
        <ele>179.6</ele>
        <time>2022-03-06T09:14:37.000Z</time>
      </trkpt>
      <trkpt lat="43.2942" lon="2.22784">
        <ele>179.7</ele>
        <time>2022-03-06T09:14:38.000Z</time>
      </trkpt>
      <trkpt lat="43.2942" lon="2.22784">
        <ele>179.7</ele>
        <time>2022-03-06T09:14:39.000Z</time>
      </trkpt>
      <trkpt lat="43.2942" lon="2.22784">
        <ele>179.7</ele>
        <time>2022-03-06T09:14:40.000Z</time>
      </trkpt>
      <trkpt lat="43.2942" lon="2.22784">
        <ele>179.7</ele>
        <time>2022-03-06T09:14:41.000Z</time>
      </trkpt>
      <trkpt lat="43.2942" lon="2.22784">
        <ele>179.7</ele>
        <time>2022-03-06T09:14:42.000Z</time>
      </trkpt>
      <trkpt lat="43.2942" lon="2.22784">
        <ele>179.7</ele>
        <time>2022-03-06T09:14:43.000Z</time>
      </trkpt>
      <trkpt lat="43.2942" lon="2.22784">
        <ele>179.7</ele>
        <time>2022-03-06T09:14:44.000Z</time>
      </trkpt>
      <trkpt lat="43.2942" lon="2.22784">
        <ele>179.7</ele>
        <time>2022-03-06T09:14:45.000Z</time>
      </trkpt>
      <trkpt lat="43.2942" lon="2.22784">
        <ele>179.7</ele>
        <time>2022-03-06T09:14:46.000Z</time>
      </trkpt>
      <trkpt lat="43.2942" lon="2.22784">
        <ele>179.7</ele>
        <time>2022-03-06T09:14:47.000Z</time>
      </trkpt>
      <trkpt lat="43.2942" lon="2.22785">
        <ele>179.7</ele>
        <time>2022-03-06T09:14:48.000Z</time>
      </trkpt>
      <trkpt lat="43.2942" lon="2.22785">
        <ele>179.7</ele>
        <time>2022-03-06T09:14:49.000Z</time>
      </trkpt>
      <trkpt lat="43.29419" lon="2.22785">
        <ele>179.8</ele>
        <time>2022-03-06T09:14:50.000Z</time>
      </trkpt>
      <trkpt lat="43.29419" lon="2.22785">
        <ele>179.8</ele>
        <time>2022-03-06T09:14:51.000Z</time>
      </trkpt>
      <trkpt lat="43.29418" lon="2.22785">
        <ele>179.9</ele>
        <time>2022-03-06T09:14:52.000Z</time>
      </trkpt>
      <trkpt lat="43.29417" lon="2.22786">
        <ele>179.9</ele>
        <time>2022-03-06T09:14:53.000Z</time>
      </trkpt>
      <trkpt lat="43.29417" lon="2.22786">
        <ele>180</ele>
        <time>2022-03-06T09:14:54.000Z</time>
      </trkpt>
      <trkpt lat="43.29416" lon="2.22786">
        <ele>180.1</ele>
        <time>2022-03-06T09:14:55.000Z</time>
      </trkpt>
      <trkpt lat="43.29415" lon="2.22786">
        <ele>180.2</ele>
        <time>2022-03-06T09:14:56.000Z</time>
      </trkpt>
      <trkpt lat="43.29415" lon="2.22785">
        <ele>180.3</ele>
        <time>2022-03-06T09:14:57.000Z</time>
      </trkpt>
      <trkpt lat="43.29414" lon="2.22785">
        <ele>180.3</ele>
        <time>2022-03-06T09:14:58.000Z</time>
      </trkpt>
      <trkpt lat="43.29414" lon="2.22785">
        <ele>180.4</ele>
        <time>2022-03-06T09:14:59.000Z</time>
      </trkpt>
      <trkpt lat="43.29414" lon="2.22784">
        <ele>180.4</ele>
        <time>2022-03-06T09:15:00.000Z</time>
      </trkpt>
      <trkpt lat="43.29414" lon="2.22784">
        <ele>180.4</ele>
        <time>2022-03-06T09:15:01.000Z</time>
      </trkpt>
      <trkpt lat="43.29414" lon="2.22783">
        <ele>180.4</ele>
        <time>2022-03-06T09:15:02.000Z</time>
      </trkpt>
      <trkpt lat="43.29414" lon="2.22783">
        <ele>180.4</ele>
        <time>2022-03-06T09:15:03.000Z</time>
      </trkpt>
      <trkpt lat="43.29414" lon="2.22783">
        <ele>180.4</ele>
        <time>2022-03-06T09:15:04.000Z</time>
      </trkpt>
      <trkpt lat="43.29414" lon="2.22783">
        <ele>180.4</ele>
        <time>2022-03-06T09:15:05.000Z</time>
      </trkpt>
      <trkpt lat="43.29413" lon="2.22783">
        <ele>180.4</ele>
        <time>2022-03-06T09:15:06.000Z</time>
      </trkpt>
      <trkpt lat="43.29413" lon="2.22783">
        <ele>180.5</ele>
        <time>2022-03-06T09:15:07.000Z</time>
      </trkpt>
      <trkpt lat="43.29413" lon="2.22783">
        <ele>180.5</ele>
        <time>2022-03-06T09:15:08.000Z</time>
      </trkpt>
      <trkpt lat="43.29413" lon="2.22784">
        <ele>180.5</ele>
        <time>2022-03-06T09:15:09.000Z</time>
      </trkpt>
      <trkpt lat="43.29413" lon="2.22784">
        <ele>180.5</ele>
        <time>2022-03-06T09:15:10.000Z</time>
      </trkpt>
      <trkpt lat="43.29412" lon="2.22785">
        <ele>180.6</ele>
        <time>2022-03-06T09:15:11.000Z</time>
      </trkpt>
      <trkpt lat="43.29412" lon="2.22786">
        <ele>180.6</ele>
        <time>2022-03-06T09:15:12.000Z</time>
      </trkpt>
      <trkpt lat="43.29412" lon="2.22787">
        <ele>180.7</ele>
        <time>2022-03-06T09:15:13.000Z</time>
      </trkpt>
      <trkpt lat="43.29411" lon="2.22788">
        <ele>180.7</ele>
        <time>2022-03-06T09:15:14.000Z</time>
      </trkpt>
      <trkpt lat="43.2941" lon="2.22789">
        <ele>180.8</ele>
        <time>2022-03-06T09:15:15.000Z</time>
      </trkpt>
      <trkpt lat="43.2941" lon="2.2279">
        <ele>180.9</ele>
        <time>2022-03-06T09:15:16.000Z</time>
      </trkpt>
      <trkpt lat="43.29409" lon="2.2279">
        <ele>180.9</ele>
        <time>2022-03-06T09:15:17.000Z</time>
      </trkpt>
      <trkpt lat="43.29409" lon="2.22791">
        <ele>181</ele>
        <time>2022-03-06T09:15:18.000Z</time>
      </trkpt>
      <trkpt lat="43.29409" lon="2.22791">
        <ele>181</ele>
        <time>2022-03-06T09:15:19.000Z</time>
      </trkpt>
      <trkpt lat="43.29409" lon="2.22792">
        <ele>181</ele>
        <time>2022-03-06T09:15:20.000Z</time>
      </trkpt>
      <trkpt lat="43.29409" lon="2.22792">
        <ele>181</ele>
        <time>2022-03-06T09:15:21.000Z</time>
      </trkpt>
      <trkpt lat="43.29408" lon="2.22792">
        <ele>181</ele>
        <time>2022-03-06T09:15:22.000Z</time>
      </trkpt>
      <trkpt lat="43.29408" lon="2.22792">
        <ele>181.1</ele>
        <time>2022-03-06T09:15:23.000Z</time>
      </trkpt>
      <trkpt lat="43.29408" lon="2.22793">
        <ele>181.1</ele>
        <time>2022-03-06T09:15:24.000Z</time>
      </trkpt>
      <trkpt lat="43.29407" lon="2.22793">
        <ele>181.2</ele>
        <time>2022-03-06T09:15:25.000Z</time>
      </trkpt>
      <trkpt lat="43.29406" lon="2.22794">
        <ele>181.3</ele>
        <time>2022-03-06T09:15:26.000Z</time>
      </trkpt>
      <trkpt lat="43.29406" lon="2.22795">
        <ele>181.3</ele>
        <time>2022-03-06T09:15:27.000Z</time>
      </trkpt>
      <trkpt lat="43.29405" lon="2.22796">
        <ele>181.4</ele>
        <time>2022-03-06T09:15:28.000Z</time>
      </trkpt>
      <trkpt lat="43.29404" lon="2.22797">
        <ele>181.5</ele>
        <time>2022-03-06T09:15:29.000Z</time>
      </trkpt>
      <trkpt lat="43.29404" lon="2.22797">
        <ele>181.5</ele>
        <time>2022-03-06T09:15:30.000Z</time>
      </trkpt>
      <trkpt lat="43.29404" lon="2.22797">
        <ele>181.6</ele>
        <time>2022-03-06T09:15:31.000Z</time>
      </trkpt>
      <trkpt lat="43.29403" lon="2.22797">
        <ele>181.6</ele>
        <time>2022-03-06T09:15:32.000Z</time>
      </trkpt>
      <trkpt lat="43.29403" lon="2.22797">
        <ele>181.6</ele>
        <time>2022-03-06T09:15:33.000Z</time>
      </trkpt>
      <trkpt lat="43.29403" lon="2.22798">
        <ele>181.6</ele>
        <time>2022-03-06T09:15:34.000Z</time>
      </trkpt>
      <trkpt lat="43.29403" lon="2.22798">
        <ele>181.6</ele>
        <time>2022-03-06T09:15:35.000Z</time>
      </trkpt>
      <trkpt lat="43.29403" lon="2.22798">
        <ele>181.6</ele>
        <time>2022-03-06T09:15:36.000Z</time>
      </trkpt>
      <trkpt lat="43.29402" lon="2.22798">
        <ele>181.7</ele>
        <time>2022-03-06T09:15:37.000Z</time>
      </trkpt>
      <trkpt lat="43.29402" lon="2.22799">
        <ele>181.8</ele>
        <time>2022-03-06T09:15:38.000Z</time>
      </trkpt>
      <trkpt lat="43.29401" lon="2.228">
        <ele>181.8</ele>
        <time>2022-03-06T09:15:39.000Z</time>
      </trkpt>
      <trkpt lat="43.294" lon="2.22801">
        <ele>181.9</ele>
        <time>2022-03-06T09:15:40.000Z</time>
      </trkpt>
      <trkpt lat="43.29399" lon="2.22802">
        <ele>182</ele>
        <time>2022-03-06T09:15:41.000Z</time>
      </trkpt>
      <trkpt lat="43.29397" lon="2.22803">
        <ele>182.2</ele>
        <time>2022-03-06T09:15:42.000Z</time>
      </trkpt>
      <trkpt lat="43.29396" lon="2.22804">
        <ele>182.3</ele>
        <time>2022-03-06T09:15:43.000Z</time>
      </trkpt>
      <trkpt lat="43.29395" lon="2.22805">
        <ele>182.4</ele>
        <time>2022-03-06T09:15:44.000Z</time>
      </trkpt>
      <trkpt lat="43.29393" lon="2.22806">
        <ele>182.5</ele>
        <time>2022-03-06T09:15:45.000Z</time>
      </trkpt>
      <trkpt lat="43.29392" lon="2.22808">
        <ele>182.6</ele>
        <time>2022-03-06T09:15:46.000Z</time>
      </trkpt>
      <trkpt lat="43.29391" lon="2.22809">
        <ele>182.7</ele>
        <time>2022-03-06T09:15:47.000Z</time>
      </trkpt>
      <trkpt lat="43.2939" lon="2.2281">
        <ele>182.7</ele>
        <time>2022-03-06T09:15:48.000Z</time>
      </trkpt>
      <trkpt lat="43.2939" lon="2.22811">
        <ele>182.7</ele>
        <time>2022-03-06T09:15:49.000Z</time>
      </trkpt>
      <trkpt lat="43.29389" lon="2.22812">
        <ele>182.8</ele>
        <time>2022-03-06T09:15:50.000Z</time>
      </trkpt>
      <trkpt lat="43.29388" lon="2.22813">
        <ele>182.8</ele>
        <time>2022-03-06T09:15:51.000Z</time>
      </trkpt>
      <trkpt lat="43.29386" lon="2.22814">
        <ele>182.9</ele>
        <time>2022-03-06T09:15:52.000Z</time>
      </trkpt>
      <trkpt lat="43.29385" lon="2.22816">
        <ele>183</ele>
        <time>2022-03-06T09:15:53.000Z</time>
      </trkpt>
      <trkpt lat="43.29383" lon="2.22817">
        <ele>183.1</ele>
        <time>2022-03-06T09:15:54.000Z</time>
      </trkpt>
      <trkpt lat="43.29382" lon="2.22818">
        <ele>183.2</ele>
        <time>2022-03-06T09:15:55.000Z</time>
      </trkpt>
      <trkpt lat="43.2938" lon="2.22819">
        <ele>183.3</ele>
        <time>2022-03-06T09:15:56.000Z</time>
      </trkpt>
      <trkpt lat="43.29379" lon="2.22821">
        <ele>183.4</ele>
        <time>2022-03-06T09:15:57.000Z</time>
      </trkpt>
      <trkpt lat="43.29377" lon="2.22822">
        <ele>183.5</ele>
        <time>2022-03-06T09:15:58.000Z</time>
      </trkpt>
      <trkpt lat="43.29375" lon="2.22823">
        <ele>183.5</ele>
        <time>2022-03-06T09:15:59.000Z</time>
      </trkpt>
      <trkpt lat="43.29374" lon="2.22824">
        <ele>183.6</ele>
        <time>2022-03-06T09:16:00.000Z</time>
      </trkpt>
      <trkpt lat="43.29372" lon="2.22826">
        <ele>183.7</ele>
        <time>2022-03-06T09:16:01.000Z</time>
      </trkpt>
      <trkpt lat="43.2937" lon="2.22827">
        <ele>183.7</ele>
        <time>2022-03-06T09:16:02.000Z</time>
      </trkpt>
      <trkpt lat="43.29368" lon="2.22829">
        <ele>183.8</ele>
        <time>2022-03-06T09:16:03.000Z</time>
      </trkpt>
      <trkpt lat="43.29366" lon="2.22831">
        <ele>183.8</ele>
        <time>2022-03-06T09:16:04.000Z</time>
      </trkpt>
      <trkpt lat="43.29364" lon="2.22833">
        <ele>183.8</ele>
        <time>2022-03-06T09:16:05.000Z</time>
      </trkpt>
      <trkpt lat="43.29363" lon="2.22834">
        <ele>183.9</ele>
        <time>2022-03-06T09:16:06.000Z</time>
      </trkpt>
      <trkpt lat="43.29361" lon="2.22836">
        <ele>184.1</ele>
        <time>2022-03-06T09:16:07.000Z</time>
      </trkpt>
      <trkpt lat="43.29359" lon="2.22838">
        <ele>184.3</ele>
        <time>2022-03-06T09:16:08.000Z</time>
      </trkpt>
      <trkpt lat="43.29357" lon="2.2284">
        <ele>184.5</ele>
        <time>2022-03-06T09:16:09.000Z</time>
      </trkpt>
      <trkpt lat="43.29355" lon="2.22841">
        <ele>184.7</ele>
        <time>2022-03-06T09:16:10.000Z</time>
      </trkpt>
      <trkpt lat="43.29353" lon="2.22843">
        <ele>184.8</ele>
        <time>2022-03-06T09:16:11.000Z</time>
      </trkpt>
      <trkpt lat="43.29351" lon="2.22844">
        <ele>185</ele>
        <time>2022-03-06T09:16:12.000Z</time>
      </trkpt>
      <trkpt lat="43.2935" lon="2.22846">
        <ele>185.1</ele>
        <time>2022-03-06T09:16:13.000Z</time>
      </trkpt>
      <trkpt lat="43.29348" lon="2.22847">
        <ele>185.2</ele>
        <time>2022-03-06T09:16:14.000Z</time>
      </trkpt>
      <trkpt lat="43.29346" lon="2.22848">
        <ele>185.3</ele>
        <time>2022-03-06T09:16:15.000Z</time>
      </trkpt>
      <trkpt lat="43.29344" lon="2.2285">
        <ele>185.5</ele>
        <time>2022-03-06T09:16:16.000Z</time>
      </trkpt>
      <trkpt lat="43.29342" lon="2.22851">
        <ele>185.6</ele>
        <time>2022-03-06T09:16:17.000Z</time>
      </trkpt>
      <trkpt lat="43.2934" lon="2.22852">
        <ele>185.7</ele>
        <time>2022-03-06T09:16:18.000Z</time>
      </trkpt>
      <trkpt lat="43.29338" lon="2.22853">
        <ele>185.8</ele>
        <time>2022-03-06T09:16:19.000Z</time>
      </trkpt>
      <trkpt lat="43.29336" lon="2.22855">
        <ele>185.9</ele>
        <time>2022-03-06T09:16:20.000Z</time>
      </trkpt>
      <trkpt lat="43.29334" lon="2.22856">
        <ele>186</ele>
        <time>2022-03-06T09:16:21.000Z</time>
      </trkpt>
      <trkpt lat="43.29331" lon="2.22857">
        <ele>186.1</ele>
        <time>2022-03-06T09:16:22.000Z</time>
      </trkpt>
      <trkpt lat="43.29329" lon="2.22859">
        <ele>186.2</ele>
        <time>2022-03-06T09:16:23.000Z</time>
      </trkpt>
      <trkpt lat="43.29327" lon="2.2286">
        <ele>186.3</ele>
        <time>2022-03-06T09:16:24.000Z</time>
      </trkpt>
      <trkpt lat="43.29325" lon="2.22862">
        <ele>186.4</ele>
        <time>2022-03-06T09:16:25.000Z</time>
      </trkpt>
      <trkpt lat="43.29323" lon="2.22864">
        <ele>186.5</ele>
        <time>2022-03-06T09:16:26.000Z</time>
      </trkpt>
      <trkpt lat="43.29321" lon="2.22866">
        <ele>186.5</ele>
        <time>2022-03-06T09:16:27.000Z</time>
      </trkpt>
      <trkpt lat="43.29318" lon="2.22868">
        <ele>186.6</ele>
        <time>2022-03-06T09:16:28.000Z</time>
      </trkpt>
      <trkpt lat="43.29316" lon="2.2287">
        <ele>186.7</ele>
        <time>2022-03-06T09:16:29.000Z</time>
      </trkpt>
      <trkpt lat="43.29314" lon="2.22873">
        <ele>186.7</ele>
        <time>2022-03-06T09:16:30.000Z</time>
      </trkpt>
      <trkpt lat="43.29312" lon="2.22875">
        <ele>186.8</ele>
        <time>2022-03-06T09:16:31.000Z</time>
      </trkpt>
      <trkpt lat="43.2931" lon="2.22878">
        <ele>186.8</ele>
        <time>2022-03-06T09:16:32.000Z</time>
      </trkpt>
      <trkpt lat="43.29309" lon="2.2288">
        <ele>186.8</ele>
        <time>2022-03-06T09:16:33.000Z</time>
      </trkpt>
      <trkpt lat="43.29307" lon="2.22882">
        <ele>186.8</ele>
        <time>2022-03-06T09:16:34.000Z</time>
      </trkpt>
      <trkpt lat="43.29306" lon="2.22884">
        <ele>186.8</ele>
        <time>2022-03-06T09:16:35.000Z</time>
      </trkpt>
      <trkpt lat="43.29305" lon="2.22885">
        <ele>186.8</ele>
        <time>2022-03-06T09:16:36.000Z</time>
      </trkpt>
      <trkpt lat="43.29305" lon="2.22886">
        <ele>186.8</ele>
        <time>2022-03-06T09:16:37.000Z</time>
      </trkpt>
      <trkpt lat="43.29304" lon="2.22888">
        <ele>186.8</ele>
        <time>2022-03-06T09:16:38.000Z</time>
      </trkpt>
      <trkpt lat="43.29303" lon="2.22889">
        <ele>186.8</ele>
        <time>2022-03-06T09:16:39.000Z</time>
      </trkpt>
      <trkpt lat="43.29302" lon="2.22891">
        <ele>186.8</ele>
        <time>2022-03-06T09:16:40.000Z</time>
      </trkpt>
      <trkpt lat="43.29301" lon="2.22892">
        <ele>186.8</ele>
        <time>2022-03-06T09:16:41.000Z</time>
      </trkpt>
      <trkpt lat="43.293" lon="2.22893">
        <ele>186.8</ele>
        <time>2022-03-06T09:16:42.000Z</time>
      </trkpt>
      <trkpt lat="43.29299" lon="2.22894">
        <ele>186.8</ele>
        <time>2022-03-06T09:16:43.000Z</time>
      </trkpt>
      <trkpt lat="43.29298" lon="2.22895">
        <ele>186.9</ele>
        <time>2022-03-06T09:16:44.000Z</time>
      </trkpt>
      <trkpt lat="43.29297" lon="2.22896">
        <ele>186.9</ele>
        <time>2022-03-06T09:16:45.000Z</time>
      </trkpt>
      <trkpt lat="43.29296" lon="2.22897">
        <ele>186.9</ele>
        <time>2022-03-06T09:16:46.000Z</time>
      </trkpt>
      <trkpt lat="43.29295" lon="2.22898">
        <ele>186.9</ele>
        <time>2022-03-06T09:16:47.000Z</time>
      </trkpt>
      <trkpt lat="43.29294" lon="2.22899">
        <ele>186.9</ele>
        <time>2022-03-06T09:16:48.000Z</time>
      </trkpt>
      <trkpt lat="43.29292" lon="2.229">
        <ele>186.9</ele>
        <time>2022-03-06T09:16:49.000Z</time>
      </trkpt>
      <trkpt lat="43.29291" lon="2.22901">
        <ele>186.9</ele>
        <time>2022-03-06T09:16:50.000Z</time>
      </trkpt>
      <trkpt lat="43.2929" lon="2.22902">
        <ele>186.9</ele>
        <time>2022-03-06T09:16:51.000Z</time>
      </trkpt>
      <trkpt lat="43.29289" lon="2.22903">
        <ele>186.9</ele>
        <time>2022-03-06T09:16:52.000Z</time>
      </trkpt>
      <trkpt lat="43.29288" lon="2.22904">
        <ele>186.9</ele>
        <time>2022-03-06T09:16:53.000Z</time>
      </trkpt>
      <trkpt lat="43.29287" lon="2.22905">
        <ele>186.9</ele>
        <time>2022-03-06T09:16:54.000Z</time>
      </trkpt>
      <trkpt lat="43.29286" lon="2.22907">
        <ele>186.8</ele>
        <time>2022-03-06T09:16:55.000Z</time>
      </trkpt>
      <trkpt lat="43.29285" lon="2.22908">
        <ele>186.8</ele>
        <time>2022-03-06T09:16:56.000Z</time>
      </trkpt>
      <trkpt lat="43.29284" lon="2.22909">
        <ele>186.8</ele>
        <time>2022-03-06T09:16:57.000Z</time>
      </trkpt>
      <trkpt lat="43.29283" lon="2.22911">
        <ele>186.8</ele>
        <time>2022-03-06T09:16:58.000Z</time>
      </trkpt>
      <trkpt lat="43.29282" lon="2.22912">
        <ele>186.8</ele>
        <time>2022-03-06T09:16:59.000Z</time>
      </trkpt>
      <trkpt lat="43.29281" lon="2.22914">
        <ele>186.7</ele>
        <time>2022-03-06T09:17:00.000Z</time>
      </trkpt>
      <trkpt lat="43.2928" lon="2.22915">
        <ele>186.7</ele>
        <time>2022-03-06T09:17:01.000Z</time>
      </trkpt>
      <trkpt lat="43.29279" lon="2.22917">
        <ele>186.7</ele>
        <time>2022-03-06T09:17:02.000Z</time>
      </trkpt>
      <trkpt lat="43.29277" lon="2.22919">
        <ele>186.9</ele>
        <time>2022-03-06T09:17:03.000Z</time>
      </trkpt>
      <trkpt lat="43.29276" lon="2.22921">
        <ele>187.1</ele>
        <time>2022-03-06T09:17:04.000Z</time>
      </trkpt>
      <trkpt lat="43.29275" lon="2.22922">
        <ele>187.3</ele>
        <time>2022-03-06T09:17:05.000Z</time>
      </trkpt>
      <trkpt lat="43.29274" lon="2.22924">
        <ele>187.5</ele>
        <time>2022-03-06T09:17:06.000Z</time>
      </trkpt>
      <trkpt lat="43.29272" lon="2.22926">
        <ele>187.7</ele>
        <time>2022-03-06T09:17:07.000Z</time>
      </trkpt>
      <trkpt lat="43.29271" lon="2.22928">
        <ele>187.9</ele>
        <time>2022-03-06T09:17:08.000Z</time>
      </trkpt>
      <trkpt lat="43.29269" lon="2.2293">
        <ele>188.1</ele>
        <time>2022-03-06T09:17:09.000Z</time>
      </trkpt>
      <trkpt lat="43.29268" lon="2.22931">
        <ele>188.3</ele>
        <time>2022-03-06T09:17:10.000Z</time>
      </trkpt>
      <trkpt lat="43.29266" lon="2.22933">
        <ele>188.4</ele>
        <time>2022-03-06T09:17:11.000Z</time>
      </trkpt>
      <trkpt lat="43.29264" lon="2.22934">
        <ele>188.5</ele>
        <time>2022-03-06T09:17:12.000Z</time>
      </trkpt>
      <trkpt lat="43.29262" lon="2.22935">
        <ele>188.6</ele>
        <time>2022-03-06T09:17:13.000Z</time>
      </trkpt>
      <trkpt lat="43.2926" lon="2.22936">
        <ele>188.7</ele>
        <time>2022-03-06T09:17:14.000Z</time>
      </trkpt>
      <trkpt lat="43.29258" lon="2.22937">
        <ele>188.8</ele>
        <time>2022-03-06T09:17:15.000Z</time>
      </trkpt>
      <trkpt lat="43.29256" lon="2.22938">
        <ele>188.8</ele>
        <time>2022-03-06T09:17:16.000Z</time>
      </trkpt>
      <trkpt lat="43.29254" lon="2.22939">
        <ele>188.9</ele>
        <time>2022-03-06T09:17:17.000Z</time>
      </trkpt>
      <trkpt lat="43.29252" lon="2.22939">
        <ele>188.9</ele>
        <time>2022-03-06T09:17:18.000Z</time>
      </trkpt>
      <trkpt lat="43.2925" lon="2.2294">
        <ele>189</ele>
        <time>2022-03-06T09:17:19.000Z</time>
      </trkpt>
      <trkpt lat="43.29247" lon="2.2294">
        <ele>189.1</ele>
        <time>2022-03-06T09:17:20.000Z</time>
      </trkpt>
      <trkpt lat="43.29245" lon="2.2294">
        <ele>189.2</ele>
        <time>2022-03-06T09:17:21.000Z</time>
      </trkpt>
      <trkpt lat="43.29243" lon="2.22941">
        <ele>189.3</ele>
        <time>2022-03-06T09:17:22.000Z</time>
      </trkpt>
      <trkpt lat="43.29241" lon="2.22941">
        <ele>189.4</ele>
        <time>2022-03-06T09:17:23.000Z</time>
      </trkpt>
      <trkpt lat="43.29239" lon="2.22941">
        <ele>189.4</ele>
        <time>2022-03-06T09:17:24.000Z</time>
      </trkpt>
      <trkpt lat="43.29238" lon="2.22941">
        <ele>189.5</ele>
        <time>2022-03-06T09:17:25.000Z</time>
      </trkpt>
      <trkpt lat="43.29236" lon="2.22941">
        <ele>189.6</ele>
        <time>2022-03-06T09:17:26.000Z</time>
      </trkpt>
      <trkpt lat="43.29234" lon="2.22941">
        <ele>189.6</ele>
        <time>2022-03-06T09:17:27.000Z</time>
      </trkpt>
      <trkpt lat="43.29233" lon="2.22941">
        <ele>189.7</ele>
        <time>2022-03-06T09:17:28.000Z</time>
      </trkpt>
      <trkpt lat="43.29232" lon="2.2294">
        <ele>189.7</ele>
        <time>2022-03-06T09:17:29.000Z</time>
      </trkpt>
      <trkpt lat="43.29231" lon="2.2294">
        <ele>189.7</ele>
        <time>2022-03-06T09:17:30.000Z</time>
      </trkpt>
      <trkpt lat="43.2923" lon="2.2294">
        <ele>189.8</ele>
        <time>2022-03-06T09:17:31.000Z</time>
      </trkpt>
      <trkpt lat="43.29229" lon="2.2294">
        <ele>189.8</ele>
        <time>2022-03-06T09:17:32.000Z</time>
      </trkpt>
      <trkpt lat="43.29228" lon="2.2294">
        <ele>189.9</ele>
        <time>2022-03-06T09:17:33.000Z</time>
      </trkpt>
      <trkpt lat="43.29226" lon="2.2294">
        <ele>189.9</ele>
        <time>2022-03-06T09:17:34.000Z</time>
      </trkpt>
      <trkpt lat="43.29225" lon="2.2294">
        <ele>190</ele>
        <time>2022-03-06T09:17:35.000Z</time>
      </trkpt>
      <trkpt lat="43.29223" lon="2.2294">
        <ele>190</ele>
        <time>2022-03-06T09:17:36.000Z</time>
      </trkpt>
      <trkpt lat="43.29221" lon="2.2294">
        <ele>190.1</ele>
        <time>2022-03-06T09:17:37.000Z</time>
      </trkpt>
      <trkpt lat="43.29219" lon="2.2294">
        <ele>190.2</ele>
        <time>2022-03-06T09:17:38.000Z</time>
      </trkpt>
      <trkpt lat="43.29217" lon="2.22941">
        <ele>190.3</ele>
        <time>2022-03-06T09:17:39.000Z</time>
      </trkpt>
      <trkpt lat="43.29215" lon="2.22941">
        <ele>190.4</ele>
        <time>2022-03-06T09:17:40.000Z</time>
      </trkpt>
      <trkpt lat="43.29213" lon="2.22942">
        <ele>190.5</ele>
        <time>2022-03-06T09:17:41.000Z</time>
      </trkpt>
      <trkpt lat="43.29211" lon="2.22943">
        <ele>190.7</ele>
        <time>2022-03-06T09:17:42.000Z</time>
      </trkpt>
      <trkpt lat="43.29208" lon="2.22944">
        <ele>190.8</ele>
        <time>2022-03-06T09:17:43.000Z</time>
      </trkpt>
      <trkpt lat="43.29206" lon="2.22945">
        <ele>190.9</ele>
        <time>2022-03-06T09:17:44.000Z</time>
      </trkpt>
      <trkpt lat="43.29204" lon="2.22946">
        <ele>191.1</ele>
        <time>2022-03-06T09:17:45.000Z</time>
      </trkpt>
      <trkpt lat="43.29201" lon="2.22947">
        <ele>191.2</ele>
        <time>2022-03-06T09:17:46.000Z</time>
      </trkpt>
      <trkpt lat="43.29199" lon="2.22949">
        <ele>191.3</ele>
        <time>2022-03-06T09:17:47.000Z</time>
      </trkpt>
      <trkpt lat="43.29197" lon="2.2295">
        <ele>191.5</ele>
        <time>2022-03-06T09:17:48.000Z</time>
      </trkpt>
      <trkpt lat="43.29195" lon="2.22952">
        <ele>191.6</ele>
        <time>2022-03-06T09:17:49.000Z</time>
      </trkpt>
      <trkpt lat="43.29193" lon="2.22954">
        <ele>191.7</ele>
        <time>2022-03-06T09:17:50.000Z</time>
      </trkpt>
      <trkpt lat="43.29191" lon="2.22955">
        <ele>191.8</ele>
        <time>2022-03-06T09:17:51.000Z</time>
      </trkpt>
      <trkpt lat="43.29189" lon="2.22957">
        <ele>191.9</ele>
        <time>2022-03-06T09:17:52.000Z</time>
      </trkpt>
      <trkpt lat="43.29187" lon="2.22959">
        <ele>192</ele>
        <time>2022-03-06T09:17:53.000Z</time>
      </trkpt>
      <trkpt lat="43.29185" lon="2.22961">
        <ele>192.1</ele>
        <time>2022-03-06T09:17:54.000Z</time>
      </trkpt>
      <trkpt lat="43.29183" lon="2.22964">
        <ele>192.2</ele>
        <time>2022-03-06T09:17:55.000Z</time>
      </trkpt>
      <trkpt lat="43.29182" lon="2.22966">
        <ele>192.3</ele>
        <time>2022-03-06T09:17:56.000Z</time>
      </trkpt>
      <trkpt lat="43.2918" lon="2.22969">
        <ele>192.4</ele>
        <time>2022-03-06T09:17:57.000Z</time>
      </trkpt>
      <trkpt lat="43.29179" lon="2.22972">
        <ele>192.5</ele>
        <time>2022-03-06T09:17:58.000Z</time>
      </trkpt>
      <trkpt lat="43.29177" lon="2.22975">
        <ele>192.6</ele>
        <time>2022-03-06T09:17:59.000Z</time>
      </trkpt>
      <trkpt lat="43.29176" lon="2.22978">
        <ele>192.7</ele>
        <time>2022-03-06T09:18:00.000Z</time>
      </trkpt>
      <trkpt lat="43.29175" lon="2.22981">
        <ele>192.7</ele>
        <time>2022-03-06T09:18:01.000Z</time>
      </trkpt>
      <trkpt lat="43.29173" lon="2.22983">
        <ele>192.8</ele>
        <time>2022-03-06T09:18:02.000Z</time>
      </trkpt>
      <trkpt lat="43.29172" lon="2.22986">
        <ele>192.8</ele>
        <time>2022-03-06T09:18:03.000Z</time>
      </trkpt>
      <trkpt lat="43.29171" lon="2.22988">
        <ele>192.9</ele>
        <time>2022-03-06T09:18:04.000Z</time>
      </trkpt>
      <trkpt lat="43.29169" lon="2.2299">
        <ele>192.9</ele>
        <time>2022-03-06T09:18:05.000Z</time>
      </trkpt>
      <trkpt lat="43.29168" lon="2.22991">
        <ele>192.9</ele>
        <time>2022-03-06T09:18:06.000Z</time>
      </trkpt>
      <trkpt lat="43.29167" lon="2.22992">
        <ele>192.9</ele>
        <time>2022-03-06T09:18:07.000Z</time>
      </trkpt>
      <trkpt lat="43.29165" lon="2.22993">
        <ele>192.9</ele>
        <time>2022-03-06T09:18:08.000Z</time>
      </trkpt>
      <trkpt lat="43.29164" lon="2.22994">
        <ele>193</ele>
        <time>2022-03-06T09:18:09.000Z</time>
      </trkpt>
      <trkpt lat="43.29163" lon="2.22995">
        <ele>193</ele>
        <time>2022-03-06T09:18:10.000Z</time>
      </trkpt>
      <trkpt lat="43.29162" lon="2.22995">
        <ele>193</ele>
        <time>2022-03-06T09:18:11.000Z</time>
      </trkpt>
      <trkpt lat="43.29161" lon="2.22995">
        <ele>193</ele>
        <time>2022-03-06T09:18:12.000Z</time>
      </trkpt>
      <trkpt lat="43.2916" lon="2.22995">
        <ele>193</ele>
        <time>2022-03-06T09:18:13.000Z</time>
      </trkpt>
      <trkpt lat="43.29159" lon="2.22996">
        <ele>193.1</ele>
        <time>2022-03-06T09:18:14.000Z</time>
      </trkpt>
      <trkpt lat="43.29158" lon="2.22996">
        <ele>193.1</ele>
        <time>2022-03-06T09:18:15.000Z</time>
      </trkpt>
      <trkpt lat="43.29157" lon="2.22996">
        <ele>193.1</ele>
        <time>2022-03-06T09:18:16.000Z</time>
      </trkpt>
      <trkpt lat="43.29156" lon="2.22997">
        <ele>193.1</ele>
        <time>2022-03-06T09:18:17.000Z</time>
      </trkpt>
      <trkpt lat="43.29155" lon="2.22998">
        <ele>193.1</ele>
        <time>2022-03-06T09:18:18.000Z</time>
      </trkpt>
      <trkpt lat="43.29154" lon="2.22999">
        <ele>193.1</ele>
        <time>2022-03-06T09:18:19.000Z</time>
      </trkpt>
      <trkpt lat="43.29153" lon="2.23">
        <ele>193.2</ele>
        <time>2022-03-06T09:18:20.000Z</time>
      </trkpt>
      <trkpt lat="43.29152" lon="2.23001">
        <ele>193.2</ele>
        <time>2022-03-06T09:18:21.000Z</time>
      </trkpt>
      <trkpt lat="43.29151" lon="2.23003">
        <ele>193.3</ele>
        <time>2022-03-06T09:18:22.000Z</time>
      </trkpt>
      <trkpt lat="43.2915" lon="2.23004">
        <ele>193.3</ele>
        <time>2022-03-06T09:18:23.000Z</time>
      </trkpt>
      <trkpt lat="43.2915" lon="2.23005">
        <ele>193.4</ele>
        <time>2022-03-06T09:18:24.000Z</time>
      </trkpt>
      <trkpt lat="43.29149" lon="2.23007">
        <ele>193.4</ele>
        <time>2022-03-06T09:18:25.000Z</time>
      </trkpt>
      <trkpt lat="43.29149" lon="2.23008">
        <ele>193.5</ele>
        <time>2022-03-06T09:18:26.000Z</time>
      </trkpt>
      <trkpt lat="43.29149" lon="2.2301">
        <ele>193.5</ele>
        <time>2022-03-06T09:18:27.000Z</time>
      </trkpt>
      <trkpt lat="43.29148" lon="2.23011">
        <ele>193.6</ele>
        <time>2022-03-06T09:18:28.000Z</time>
      </trkpt>
      <trkpt lat="43.29148" lon="2.23013">
        <ele>193.6</ele>
        <time>2022-03-06T09:18:29.000Z</time>
      </trkpt>
      <trkpt lat="43.29148" lon="2.23015">
        <ele>193.7</ele>
        <time>2022-03-06T09:18:30.000Z</time>
      </trkpt>
      <trkpt lat="43.29148" lon="2.23017">
        <ele>193.7</ele>
        <time>2022-03-06T09:18:31.000Z</time>
      </trkpt>
      <trkpt lat="43.29147" lon="2.23019">
        <ele>193.8</ele>
        <time>2022-03-06T09:18:32.000Z</time>
      </trkpt>
      <trkpt lat="43.29147" lon="2.23021">
        <ele>193.9</ele>
        <time>2022-03-06T09:18:33.000Z</time>
      </trkpt>
      <trkpt lat="43.29147" lon="2.23022">
        <ele>193.9</ele>
        <time>2022-03-06T09:18:34.000Z</time>
      </trkpt>
      <trkpt lat="43.29147" lon="2.23024">
        <ele>194</ele>
        <time>2022-03-06T09:18:35.000Z</time>
      </trkpt>
      <trkpt lat="43.29147" lon="2.23025">
        <ele>194</ele>
        <time>2022-03-06T09:18:36.000Z</time>
      </trkpt>
      <trkpt lat="43.29147" lon="2.23026">
        <ele>194</ele>
        <time>2022-03-06T09:18:37.000Z</time>
      </trkpt>
      <trkpt lat="43.29146" lon="2.23027">
        <ele>194.1</ele>
        <time>2022-03-06T09:18:38.000Z</time>
      </trkpt>
      <trkpt lat="43.29146" lon="2.23027">
        <ele>194.1</ele>
        <time>2022-03-06T09:18:39.000Z</time>
      </trkpt>
      <trkpt lat="43.29146" lon="2.23028">
        <ele>194.1</ele>
        <time>2022-03-06T09:18:40.000Z</time>
      </trkpt>
      <trkpt lat="43.29146" lon="2.23028">
        <ele>194.1</ele>
        <time>2022-03-06T09:18:41.000Z</time>
      </trkpt>
      <trkpt lat="43.29146" lon="2.23027">
        <ele>194.1</ele>
        <time>2022-03-06T09:18:42.000Z</time>
      </trkpt>
      <trkpt lat="43.29146" lon="2.23027">
        <ele>194.1</ele>
        <time>2022-03-06T09:18:43.000Z</time>
      </trkpt>
      <trkpt lat="43.29146" lon="2.23027">
        <ele>194.1</ele>
        <time>2022-03-06T09:18:44.000Z</time>
      </trkpt>
      <trkpt lat="43.29146" lon="2.23028">
        <ele>194.1</ele>
        <time>2022-03-06T09:18:45.000Z</time>
      </trkpt>
      <trkpt lat="43.29146" lon="2.23028">
        <ele>194.1</ele>
        <time>2022-03-06T09:18:46.000Z</time>
      </trkpt>
      <trkpt lat="43.29146" lon="2.23029">
        <ele>194.1</ele>
        <time>2022-03-06T09:18:47.000Z</time>
      </trkpt>
      <trkpt lat="43.29146" lon="2.2303">
        <ele>194.1</ele>
        <time>2022-03-06T09:18:48.000Z</time>
      </trkpt>
      <trkpt lat="43.29146" lon="2.23031">
        <ele>194.2</ele>
        <time>2022-03-06T09:18:49.000Z</time>
      </trkpt>
      <trkpt lat="43.29145" lon="2.23032">
        <ele>194.2</ele>
        <time>2022-03-06T09:18:50.000Z</time>
      </trkpt>
      <trkpt lat="43.29145" lon="2.23033">
        <ele>194.2</ele>
        <time>2022-03-06T09:18:51.000Z</time>
      </trkpt>
      <trkpt lat="43.29145" lon="2.23035">
        <ele>194.3</ele>
        <time>2022-03-06T09:18:52.000Z</time>
      </trkpt>
      <trkpt lat="43.29144" lon="2.23036">
        <ele>194.3</ele>
        <time>2022-03-06T09:18:53.000Z</time>
      </trkpt>
      <trkpt lat="43.29144" lon="2.23038">
        <ele>194.4</ele>
        <time>2022-03-06T09:18:54.000Z</time>
      </trkpt>
      <trkpt lat="43.29143" lon="2.23039">
        <ele>194.4</ele>
        <time>2022-03-06T09:18:55.000Z</time>
      </trkpt>
      <trkpt lat="43.29143" lon="2.23041">
        <ele>194.5</ele>
        <time>2022-03-06T09:18:56.000Z</time>
      </trkpt>
      <trkpt lat="43.29142" lon="2.23042">
        <ele>194.5</ele>
        <time>2022-03-06T09:18:57.000Z</time>
      </trkpt>
      <trkpt lat="43.29142" lon="2.23044">
        <ele>194.6</ele>
        <time>2022-03-06T09:18:58.000Z</time>
      </trkpt>
      <trkpt lat="43.29141" lon="2.23046">
        <ele>194.6</ele>
        <time>2022-03-06T09:18:59.000Z</time>
      </trkpt>
      <trkpt lat="43.2914" lon="2.23047">
        <ele>194.7</ele>
        <time>2022-03-06T09:19:00.000Z</time>
      </trkpt>
      <trkpt lat="43.2914" lon="2.23049">
        <ele>194.7</ele>
        <time>2022-03-06T09:19:01.000Z</time>
      </trkpt>
      <trkpt lat="43.29139" lon="2.2305">
        <ele>194.7</ele>
        <time>2022-03-06T09:19:02.000Z</time>
      </trkpt>
      <trkpt lat="43.29138" lon="2.23051">
        <ele>194.8</ele>
        <time>2022-03-06T09:19:03.000Z</time>
      </trkpt>
      <trkpt lat="43.29137" lon="2.23052">
        <ele>194.8</ele>
        <time>2022-03-06T09:19:04.000Z</time>
      </trkpt>
      <trkpt lat="43.29137" lon="2.23053">
        <ele>194.8</ele>
        <time>2022-03-06T09:19:05.000Z</time>
      </trkpt>
      <trkpt lat="43.29136" lon="2.23054">
        <ele>194.8</ele>
        <time>2022-03-06T09:19:06.000Z</time>
      </trkpt>
      <trkpt lat="43.29135" lon="2.23055">
        <ele>194.9</ele>
        <time>2022-03-06T09:19:07.000Z</time>
      </trkpt>
      <trkpt lat="43.29135" lon="2.23055">
        <ele>194.9</ele>
        <time>2022-03-06T09:19:08.000Z</time>
      </trkpt>
      <trkpt lat="43.29134" lon="2.23056">
        <ele>194.9</ele>
        <time>2022-03-06T09:19:09.000Z</time>
      </trkpt>
      <trkpt lat="43.29134" lon="2.23056">
        <ele>194.9</ele>
        <time>2022-03-06T09:19:10.000Z</time>
      </trkpt>
      <trkpt lat="43.29134" lon="2.23056">
        <ele>194.9</ele>
        <time>2022-03-06T09:19:11.000Z</time>
      </trkpt>
      <trkpt lat="43.29134" lon="2.23056">
        <ele>194.9</ele>
        <time>2022-03-06T09:19:12.000Z</time>
      </trkpt>
      <trkpt lat="43.29134" lon="2.23056">
        <ele>194.9</ele>
        <time>2022-03-06T09:19:13.000Z</time>
      </trkpt>
      <trkpt lat="43.29134" lon="2.23056">
        <ele>194.9</ele>
        <time>2022-03-06T09:19:14.000Z</time>
      </trkpt>
      <trkpt lat="43.29134" lon="2.23056">
        <ele>194.9</ele>
        <time>2022-03-06T09:19:15.000Z</time>
      </trkpt>
      <trkpt lat="43.29134" lon="2.23056">
        <ele>194.9</ele>
        <time>2022-03-06T09:19:16.000Z</time>
      </trkpt>
      <trkpt lat="43.29133" lon="2.23056">
        <ele>194.9</ele>
        <time>2022-03-06T09:19:17.000Z</time>
      </trkpt>
      <trkpt lat="43.29133" lon="2.23056">
        <ele>194.9</ele>
        <time>2022-03-06T09:19:18.000Z</time>
      </trkpt>
      <trkpt lat="43.29132" lon="2.23057">
        <ele>194.9</ele>
        <time>2022-03-06T09:19:19.000Z</time>
      </trkpt>
      <trkpt lat="43.29131" lon="2.23057">
        <ele>194.9</ele>
        <time>2022-03-06T09:19:20.000Z</time>
      </trkpt>
      <trkpt lat="43.2913" lon="2.23058">
        <ele>194.9</ele>
        <time>2022-03-06T09:19:21.000Z</time>
      </trkpt>
      <trkpt lat="43.29128" lon="2.23058">
        <ele>194.9</ele>
        <time>2022-03-06T09:19:22.000Z</time>
      </trkpt>
      <trkpt lat="43.29127" lon="2.23058">
        <ele>194.9</ele>
        <time>2022-03-06T09:19:23.000Z</time>
      </trkpt>
      <trkpt lat="43.29126" lon="2.23059">
        <ele>194.9</ele>
        <time>2022-03-06T09:19:24.000Z</time>
      </trkpt>
      <trkpt lat="43.29125" lon="2.23059">
        <ele>194.9</ele>
        <time>2022-03-06T09:19:25.000Z</time>
      </trkpt>
      <trkpt lat="43.29123" lon="2.2306">
        <ele>194.9</ele>
        <time>2022-03-06T09:19:26.000Z</time>
      </trkpt>
      <trkpt lat="43.29122" lon="2.2306">
        <ele>194.9</ele>
        <time>2022-03-06T09:19:27.000Z</time>
      </trkpt>
      <trkpt lat="43.2912" lon="2.2306">
        <ele>194.9</ele>
        <time>2022-03-06T09:19:28.000Z</time>
      </trkpt>
      <trkpt lat="43.29118" lon="2.23061">
        <ele>194.9</ele>
        <time>2022-03-06T09:19:29.000Z</time>
      </trkpt>
      <trkpt lat="43.29116" lon="2.23061">
        <ele>194.9</ele>
        <time>2022-03-06T09:19:30.000Z</time>
      </trkpt>
      <trkpt lat="43.29114" lon="2.2306">
        <ele>194.9</ele>
        <time>2022-03-06T09:19:31.000Z</time>
      </trkpt>
      <trkpt lat="43.29112" lon="2.2306">
        <ele>194.9</ele>
        <time>2022-03-06T09:19:32.000Z</time>
      </trkpt>
      <trkpt lat="43.29109" lon="2.2306">
        <ele>194.8</ele>
        <time>2022-03-06T09:19:33.000Z</time>
      </trkpt>
      <trkpt lat="43.29107" lon="2.23059">
        <ele>194.8</ele>
        <time>2022-03-06T09:19:34.000Z</time>
      </trkpt>
      <trkpt lat="43.29104" lon="2.23058">
        <ele>194.8</ele>
        <time>2022-03-06T09:19:35.000Z</time>
      </trkpt>
      <trkpt lat="43.29102" lon="2.23058">
        <ele>194.8</ele>
        <time>2022-03-06T09:19:36.000Z</time>
      </trkpt>
      <trkpt lat="43.29099" lon="2.23057">
        <ele>194.8</ele>
        <time>2022-03-06T09:19:37.000Z</time>
      </trkpt>
      <trkpt lat="43.29097" lon="2.23056">
        <ele>194.7</ele>
        <time>2022-03-06T09:19:38.000Z</time>
      </trkpt>
      <trkpt lat="43.29094" lon="2.23056">
        <ele>194.7</ele>
        <time>2022-03-06T09:19:39.000Z</time>
      </trkpt>
      <trkpt lat="43.29091" lon="2.23056">
        <ele>194.7</ele>
        <time>2022-03-06T09:19:40.000Z</time>
      </trkpt>
      <trkpt lat="43.29089" lon="2.23056">
        <ele>194.7</ele>
        <time>2022-03-06T09:19:41.000Z</time>
      </trkpt>
      <trkpt lat="43.29086" lon="2.23057">
        <ele>194.7</ele>
        <time>2022-03-06T09:19:42.000Z</time>
      </trkpt>
      <trkpt lat="43.29084" lon="2.23058">
        <ele>194.7</ele>
        <time>2022-03-06T09:19:43.000Z</time>
      </trkpt>
      <trkpt lat="43.29081" lon="2.2306">
        <ele>194.7</ele>
        <time>2022-03-06T09:19:44.000Z</time>
      </trkpt>
      <trkpt lat="43.29079" lon="2.23061">
        <ele>194.7</ele>
        <time>2022-03-06T09:19:45.000Z</time>
      </trkpt>
      <trkpt lat="43.29076" lon="2.23063">
        <ele>194.6</ele>
        <time>2022-03-06T09:19:46.000Z</time>
      </trkpt>
      <trkpt lat="43.29074" lon="2.23065">
        <ele>194.6</ele>
        <time>2022-03-06T09:19:47.000Z</time>
      </trkpt>
      <trkpt lat="43.29072" lon="2.23067">
        <ele>194.5</ele>
        <time>2022-03-06T09:19:48.000Z</time>
      </trkpt>
      <trkpt lat="43.29069" lon="2.23069">
        <ele>194.5</ele>
        <time>2022-03-06T09:19:49.000Z</time>
      </trkpt>
      <trkpt lat="43.29067" lon="2.23071">
        <ele>194.4</ele>
        <time>2022-03-06T09:19:50.000Z</time>
      </trkpt>
      <trkpt lat="43.29064" lon="2.23073">
        <ele>194.4</ele>
        <time>2022-03-06T09:19:51.000Z</time>
      </trkpt>
      <trkpt lat="43.29062" lon="2.23075">
        <ele>194.3</ele>
        <time>2022-03-06T09:19:52.000Z</time>
      </trkpt>
      <trkpt lat="43.2906" lon="2.23076">
        <ele>194.2</ele>
        <time>2022-03-06T09:19:53.000Z</time>
      </trkpt>
      <trkpt lat="43.29058" lon="2.23078">
        <ele>194.1</ele>
        <time>2022-03-06T09:19:54.000Z</time>
      </trkpt>
      <trkpt lat="43.29055" lon="2.2308">
        <ele>194</ele>
        <time>2022-03-06T09:19:55.000Z</time>
      </trkpt>
      <trkpt lat="43.29053" lon="2.23082">
        <ele>193.9</ele>
        <time>2022-03-06T09:19:56.000Z</time>
      </trkpt>
      <trkpt lat="43.29051" lon="2.23084">
        <ele>193.8</ele>
        <time>2022-03-06T09:19:57.000Z</time>
      </trkpt>
      <trkpt lat="43.29049" lon="2.23086">
        <ele>193.8</ele>
        <time>2022-03-06T09:19:58.000Z</time>
      </trkpt>
      <trkpt lat="43.29046" lon="2.23088">
        <ele>193.7</ele>
        <time>2022-03-06T09:19:59.000Z</time>
      </trkpt>
      <trkpt lat="43.29044" lon="2.2309">
        <ele>193.6</ele>
        <time>2022-03-06T09:20:00.000Z</time>
      </trkpt>
      <trkpt lat="43.29042" lon="2.23092">
        <ele>193.5</ele>
        <time>2022-03-06T09:20:01.000Z</time>
      </trkpt>
      <trkpt lat="43.2904" lon="2.23094">
        <ele>193.4</ele>
        <time>2022-03-06T09:20:02.000Z</time>
      </trkpt>
      <trkpt lat="43.29038" lon="2.23096">
        <ele>193.4</ele>
        <time>2022-03-06T09:20:03.000Z</time>
      </trkpt>
      <trkpt lat="43.29036" lon="2.23098">
        <ele>193.3</ele>
        <time>2022-03-06T09:20:04.000Z</time>
      </trkpt>
      <trkpt lat="43.29034" lon="2.231">
        <ele>193.2</ele>
        <time>2022-03-06T09:20:05.000Z</time>
      </trkpt>
      <trkpt lat="43.29032" lon="2.23102">
        <ele>193.1</ele>
        <time>2022-03-06T09:20:06.000Z</time>
      </trkpt>
      <trkpt lat="43.2903" lon="2.23104">
        <ele>193</ele>
        <time>2022-03-06T09:20:07.000Z</time>
      </trkpt>
      <trkpt lat="43.29028" lon="2.23106">
        <ele>192.9</ele>
        <time>2022-03-06T09:20:08.000Z</time>
      </trkpt>
      <trkpt lat="43.29026" lon="2.23108">
        <ele>192.8</ele>
        <time>2022-03-06T09:20:09.000Z</time>
      </trkpt>
      <trkpt lat="43.29025" lon="2.2311">
        <ele>192.7</ele>
        <time>2022-03-06T09:20:10.000Z</time>
      </trkpt>
      <trkpt lat="43.29023" lon="2.23112">
        <ele>192.7</ele>
        <time>2022-03-06T09:20:11.000Z</time>
      </trkpt>
      <trkpt lat="43.29021" lon="2.23115">
        <ele>192.6</ele>
        <time>2022-03-06T09:20:12.000Z</time>
      </trkpt>
      <trkpt lat="43.29019" lon="2.23117">
        <ele>192.5</ele>
        <time>2022-03-06T09:20:13.000Z</time>
      </trkpt>
      <trkpt lat="43.29017" lon="2.23119">
        <ele>192.4</ele>
        <time>2022-03-06T09:20:14.000Z</time>
      </trkpt>
      <trkpt lat="43.29015" lon="2.23121">
        <ele>192.3</ele>
        <time>2022-03-06T09:20:15.000Z</time>
      </trkpt>
      <trkpt lat="43.29013" lon="2.23123">
        <ele>192.1</ele>
        <time>2022-03-06T09:20:16.000Z</time>
      </trkpt>
      <trkpt lat="43.29011" lon="2.23125">
        <ele>192</ele>
        <time>2022-03-06T09:20:17.000Z</time>
      </trkpt>
      <trkpt lat="43.29009" lon="2.23127">
        <ele>191.9</ele>
        <time>2022-03-06T09:20:18.000Z</time>
      </trkpt>
      <trkpt lat="43.29007" lon="2.23129">
        <ele>191.8</ele>
        <time>2022-03-06T09:20:19.000Z</time>
      </trkpt>
      <trkpt lat="43.29005" lon="2.23131">
        <ele>191.7</ele>
        <time>2022-03-06T09:20:20.000Z</time>
      </trkpt>
      <trkpt lat="43.29003" lon="2.23133">
        <ele>191.6</ele>
        <time>2022-03-06T09:20:21.000Z</time>
      </trkpt>
      <trkpt lat="43.29001" lon="2.23135">
        <ele>191.4</ele>
        <time>2022-03-06T09:20:22.000Z</time>
      </trkpt>
      <trkpt lat="43.28999" lon="2.23137">
        <ele>191.3</ele>
        <time>2022-03-06T09:20:23.000Z</time>
      </trkpt>
      <trkpt lat="43.28997" lon="2.23139">
        <ele>191.3</ele>
        <time>2022-03-06T09:20:24.000Z</time>
      </trkpt>
      <trkpt lat="43.28995" lon="2.23142">
        <ele>191.3</ele>
        <time>2022-03-06T09:20:25.000Z</time>
      </trkpt>
      <trkpt lat="43.28993" lon="2.23144">
        <ele>191.2</ele>
        <time>2022-03-06T09:20:26.000Z</time>
      </trkpt>
      <trkpt lat="43.28991" lon="2.23146">
        <ele>191.1</ele>
        <time>2022-03-06T09:20:27.000Z</time>
      </trkpt>
      <trkpt lat="43.28989" lon="2.23148">
        <ele>191.1</ele>
        <time>2022-03-06T09:20:28.000Z</time>
      </trkpt>
      <trkpt lat="43.28987" lon="2.2315">
        <ele>191</ele>
        <time>2022-03-06T09:20:29.000Z</time>
      </trkpt>
      <trkpt lat="43.28984" lon="2.23152">
        <ele>190.9</ele>
        <time>2022-03-06T09:20:30.000Z</time>
      </trkpt>
      <trkpt lat="43.28982" lon="2.23154">
        <ele>190.8</ele>
        <time>2022-03-06T09:20:31.000Z</time>
      </trkpt>
      <trkpt lat="43.2898" lon="2.23157">
        <ele>190.6</ele>
        <time>2022-03-06T09:20:32.000Z</time>
      </trkpt>
      <trkpt lat="43.28978" lon="2.23159">
        <ele>190.5</ele>
        <time>2022-03-06T09:20:33.000Z</time>
      </trkpt>
      <trkpt lat="43.28976" lon="2.23161">
        <ele>190.3</ele>
        <time>2022-03-06T09:20:34.000Z</time>
      </trkpt>
      <trkpt lat="43.28974" lon="2.23164">
        <ele>190.2</ele>
        <time>2022-03-06T09:20:35.000Z</time>
      </trkpt>
      <trkpt lat="43.28971" lon="2.23166">
        <ele>190</ele>
        <time>2022-03-06T09:20:36.000Z</time>
      </trkpt>
      <trkpt lat="43.28969" lon="2.23168">
        <ele>189.9</ele>
        <time>2022-03-06T09:20:37.000Z</time>
      </trkpt>
      <trkpt lat="43.28967" lon="2.23171">
        <ele>189.8</ele>
        <time>2022-03-06T09:20:38.000Z</time>
      </trkpt>
      <trkpt lat="43.28965" lon="2.23173">
        <ele>189.7</ele>
        <time>2022-03-06T09:20:39.000Z</time>
      </trkpt>
      <trkpt lat="43.28963" lon="2.23176">
        <ele>189.5</ele>
        <time>2022-03-06T09:20:40.000Z</time>
      </trkpt>
      <trkpt lat="43.2896" lon="2.23178">
        <ele>189.4</ele>
        <time>2022-03-06T09:20:41.000Z</time>
      </trkpt>
      <trkpt lat="43.28958" lon="2.23181">
        <ele>189.3</ele>
        <time>2022-03-06T09:20:42.000Z</time>
      </trkpt>
      <trkpt lat="43.28956" lon="2.23183">
        <ele>189.2</ele>
        <time>2022-03-06T09:20:43.000Z</time>
      </trkpt>
      <trkpt lat="43.28954" lon="2.23185">
        <ele>189.1</ele>
        <time>2022-03-06T09:20:44.000Z</time>
      </trkpt>
      <trkpt lat="43.28951" lon="2.23188">
        <ele>189</ele>
        <time>2022-03-06T09:20:45.000Z</time>
      </trkpt>
      <trkpt lat="43.28949" lon="2.2319">
        <ele>188.9</ele>
        <time>2022-03-06T09:20:46.000Z</time>
      </trkpt>
      <trkpt lat="43.28947" lon="2.23193">
        <ele>188.8</ele>
        <time>2022-03-06T09:20:47.000Z</time>
      </trkpt>
      <trkpt lat="43.28944" lon="2.23195">
        <ele>188.7</ele>
        <time>2022-03-06T09:20:48.000Z</time>
      </trkpt>
      <trkpt lat="43.28942" lon="2.23197">
        <ele>188.5</ele>
        <time>2022-03-06T09:20:49.000Z</time>
      </trkpt>
      <trkpt lat="43.2894" lon="2.232">
        <ele>188.4</ele>
        <time>2022-03-06T09:20:50.000Z</time>
      </trkpt>
      <trkpt lat="43.28937" lon="2.23202">
        <ele>188.3</ele>
        <time>2022-03-06T09:20:51.000Z</time>
      </trkpt>
      <trkpt lat="43.28935" lon="2.23204">
        <ele>188.2</ele>
        <time>2022-03-06T09:20:52.000Z</time>
      </trkpt>
      <trkpt lat="43.28933" lon="2.23206">
        <ele>188.1</ele>
        <time>2022-03-06T09:20:53.000Z</time>
      </trkpt>
      <trkpt lat="43.2893" lon="2.23209">
        <ele>188</ele>
        <time>2022-03-06T09:20:54.000Z</time>
      </trkpt>
      <trkpt lat="43.28928" lon="2.23211">
        <ele>187.9</ele>
        <time>2022-03-06T09:20:55.000Z</time>
      </trkpt>
      <trkpt lat="43.28926" lon="2.23213">
        <ele>187.8</ele>
        <time>2022-03-06T09:20:56.000Z</time>
      </trkpt>
      <trkpt lat="43.28924" lon="2.23216">
        <ele>187.7</ele>
        <time>2022-03-06T09:20:57.000Z</time>
      </trkpt>
      <trkpt lat="43.28922" lon="2.23218">
        <ele>187.6</ele>
        <time>2022-03-06T09:20:58.000Z</time>
      </trkpt>
      <trkpt lat="43.2892" lon="2.23221">
        <ele>187.5</ele>
        <time>2022-03-06T09:20:59.000Z</time>
      </trkpt>
      <trkpt lat="43.28919" lon="2.23224">
        <ele>187.4</ele>
        <time>2022-03-06T09:21:00.000Z</time>
      </trkpt>
      <trkpt lat="43.28918" lon="2.23227">
        <ele>187.3</ele>
        <time>2022-03-06T09:21:01.000Z</time>
      </trkpt>
      <trkpt lat="43.28916" lon="2.2323">
        <ele>187.2</ele>
        <time>2022-03-06T09:21:02.000Z</time>
      </trkpt>
      <trkpt lat="43.28915" lon="2.23233">
        <ele>187.2</ele>
        <time>2022-03-06T09:21:03.000Z</time>
      </trkpt>
      <trkpt lat="43.28914" lon="2.23236">
        <ele>187.2</ele>
        <time>2022-03-06T09:21:04.000Z</time>
      </trkpt>
      <trkpt lat="43.28913" lon="2.2324">
        <ele>187.2</ele>
        <time>2022-03-06T09:21:05.000Z</time>
      </trkpt>
      <trkpt lat="43.28912" lon="2.23243">
        <ele>187.1</ele>
        <time>2022-03-06T09:21:06.000Z</time>
      </trkpt>
      <trkpt lat="43.28911" lon="2.23245">
        <ele>187.1</ele>
        <time>2022-03-06T09:21:07.000Z</time>
      </trkpt>
      <trkpt lat="43.2891" lon="2.23248">
        <ele>187</ele>
        <time>2022-03-06T09:21:08.000Z</time>
      </trkpt>
      <trkpt lat="43.28909" lon="2.23251">
        <ele>187</ele>
        <time>2022-03-06T09:21:09.000Z</time>
      </trkpt>
      <trkpt lat="43.28909" lon="2.23253">
        <ele>187</ele>
        <time>2022-03-06T09:21:10.000Z</time>
      </trkpt>
      <trkpt lat="43.28909" lon="2.23255">
        <ele>186.9</ele>
        <time>2022-03-06T09:21:11.000Z</time>
      </trkpt>
      <trkpt lat="43.2891" lon="2.23257">
        <ele>186.9</ele>
        <time>2022-03-06T09:21:12.000Z</time>
      </trkpt>
      <trkpt lat="43.28911" lon="2.23258">
        <ele>186.9</ele>
        <time>2022-03-06T09:21:13.000Z</time>
      </trkpt>
      <trkpt lat="43.2891" lon="2.2326">
        <ele>186.8</ele>
        <time>2022-03-06T09:21:14.000Z</time>
      </trkpt>
      <trkpt lat="43.28909" lon="2.23261">
        <ele>186.8</ele>
        <time>2022-03-06T09:21:15.000Z</time>
      </trkpt>
      <trkpt lat="43.28908" lon="2.23263">
        <ele>186.8</ele>
        <time>2022-03-06T09:21:16.000Z</time>
      </trkpt>
      <trkpt lat="43.28905" lon="2.23264">
        <ele>186.7</ele>
        <time>2022-03-06T09:21:17.000Z</time>
      </trkpt>
      <trkpt lat="43.28903" lon="2.23265">
        <ele>186.7</ele>
        <time>2022-03-06T09:21:18.000Z</time>
      </trkpt>
      <trkpt lat="43.289" lon="2.23266">
        <ele>186.7</ele>
        <time>2022-03-06T09:21:19.000Z</time>
      </trkpt>
      <trkpt lat="43.28898" lon="2.23267">
        <ele>186.6</ele>
        <time>2022-03-06T09:21:20.000Z</time>
      </trkpt>
      <trkpt lat="43.28895" lon="2.23269">
        <ele>186.5</ele>
        <time>2022-03-06T09:21:21.000Z</time>
      </trkpt>
      <trkpt lat="43.28892" lon="2.2327">
        <ele>186.5</ele>
        <time>2022-03-06T09:21:22.000Z</time>
      </trkpt>
      <trkpt lat="43.2889" lon="2.23271">
        <ele>186.4</ele>
        <time>2022-03-06T09:21:23.000Z</time>
      </trkpt>
      <trkpt lat="43.28887" lon="2.23272">
        <ele>186.4</ele>
        <time>2022-03-06T09:21:24.000Z</time>
      </trkpt>
      <trkpt lat="43.28885" lon="2.23273">
        <ele>186.3</ele>
        <time>2022-03-06T09:21:25.000Z</time>
      </trkpt>
      <trkpt lat="43.28882" lon="2.23274">
        <ele>186.2</ele>
        <time>2022-03-06T09:21:26.000Z</time>
      </trkpt>
      <trkpt lat="43.2888" lon="2.23275">
        <ele>186.2</ele>
        <time>2022-03-06T09:21:27.000Z</time>
      </trkpt>
      <trkpt lat="43.28878" lon="2.23276">
        <ele>186.1</ele>
        <time>2022-03-06T09:21:28.000Z</time>
      </trkpt>
      <trkpt lat="43.28875" lon="2.23278">
        <ele>186</ele>
        <time>2022-03-06T09:21:29.000Z</time>
      </trkpt>
      <trkpt lat="43.28873" lon="2.23279">
        <ele>185.9</ele>
        <time>2022-03-06T09:21:30.000Z</time>
      </trkpt>
      <trkpt lat="43.2887" lon="2.2328">
        <ele>185.8</ele>
        <time>2022-03-06T09:21:31.000Z</time>
      </trkpt>
      <trkpt lat="43.28867" lon="2.23281">
        <ele>185.8</ele>
        <time>2022-03-06T09:21:32.000Z</time>
      </trkpt>
      <trkpt lat="43.28865" lon="2.23282">
        <ele>185.7</ele>
        <time>2022-03-06T09:21:33.000Z</time>
      </trkpt>
      <trkpt lat="43.28862" lon="2.23283">
        <ele>185.6</ele>
        <time>2022-03-06T09:21:34.000Z</time>
      </trkpt>
      <trkpt lat="43.2886" lon="2.23284">
        <ele>185.5</ele>
        <time>2022-03-06T09:21:35.000Z</time>
      </trkpt>
      <trkpt lat="43.28857" lon="2.23285">
        <ele>185.4</ele>
        <time>2022-03-06T09:21:36.000Z</time>
      </trkpt>
      <trkpt lat="43.28855" lon="2.23286">
        <ele>185.3</ele>
        <time>2022-03-06T09:21:37.000Z</time>
      </trkpt>
      <trkpt lat="43.28852" lon="2.23287">
        <ele>185.2</ele>
        <time>2022-03-06T09:21:38.000Z</time>
      </trkpt>
      <trkpt lat="43.2885" lon="2.23288">
        <ele>185.1</ele>
        <time>2022-03-06T09:21:39.000Z</time>
      </trkpt>
      <trkpt lat="43.28847" lon="2.23289">
        <ele>185</ele>
        <time>2022-03-06T09:21:40.000Z</time>
      </trkpt>
      <trkpt lat="43.28845" lon="2.2329">
        <ele>184.9</ele>
        <time>2022-03-06T09:21:41.000Z</time>
      </trkpt>
      <trkpt lat="43.28843" lon="2.23291">
        <ele>184.8</ele>
        <time>2022-03-06T09:21:42.000Z</time>
      </trkpt>
      <trkpt lat="43.28841" lon="2.23292">
        <ele>184.7</ele>
        <time>2022-03-06T09:21:43.000Z</time>
      </trkpt>
      <trkpt lat="43.2884" lon="2.23293">
        <ele>184.6</ele>
        <time>2022-03-06T09:21:44.000Z</time>
      </trkpt>
      <trkpt lat="43.28838" lon="2.23294">
        <ele>184.5</ele>
        <time>2022-03-06T09:21:45.000Z</time>
      </trkpt>
      <trkpt lat="43.28837" lon="2.23295">
        <ele>184.4</ele>
        <time>2022-03-06T09:21:46.000Z</time>
      </trkpt>
      <trkpt lat="43.28836" lon="2.23295">
        <ele>184.3</ele>
        <time>2022-03-06T09:21:47.000Z</time>
      </trkpt>
      <trkpt lat="43.28834" lon="2.23296">
        <ele>184.3</ele>
        <time>2022-03-06T09:21:48.000Z</time>
      </trkpt>
      <trkpt lat="43.28833" lon="2.23297">
        <ele>184.2</ele>
        <time>2022-03-06T09:21:49.000Z</time>
      </trkpt>
      <trkpt lat="43.28832" lon="2.23297">
        <ele>184.2</ele>
        <time>2022-03-06T09:21:50.000Z</time>
      </trkpt>
      <trkpt lat="43.28831" lon="2.23298">
        <ele>184.3</ele>
        <time>2022-03-06T09:21:51.000Z</time>
      </trkpt>
      <trkpt lat="43.2883" lon="2.23299">
        <ele>184.3</ele>
        <time>2022-03-06T09:21:52.000Z</time>
      </trkpt>
      <trkpt lat="43.28829" lon="2.233">
        <ele>184.3</ele>
        <time>2022-03-06T09:21:53.000Z</time>
      </trkpt>
      <trkpt lat="43.28828" lon="2.233">
        <ele>184.4</ele>
        <time>2022-03-06T09:21:54.000Z</time>
      </trkpt>
      <trkpt lat="43.28826" lon="2.23301">
        <ele>184.4</ele>
        <time>2022-03-06T09:21:55.000Z</time>
      </trkpt>
      <trkpt lat="43.28824" lon="2.23302">
        <ele>184.5</ele>
        <time>2022-03-06T09:21:56.000Z</time>
      </trkpt>
      <trkpt lat="43.28823" lon="2.23302">
        <ele>184.6</ele>
        <time>2022-03-06T09:21:57.000Z</time>
      </trkpt>
      <trkpt lat="43.28821" lon="2.23303">
        <ele>184.7</ele>
        <time>2022-03-06T09:21:58.000Z</time>
      </trkpt>
      <trkpt lat="43.28819" lon="2.23304">
        <ele>184.8</ele>
        <time>2022-03-06T09:21:59.000Z</time>
      </trkpt>
      <trkpt lat="43.28816" lon="2.23304">
        <ele>184.8</ele>
        <time>2022-03-06T09:22:00.000Z</time>
      </trkpt>
      <trkpt lat="43.28814" lon="2.23305">
        <ele>184.9</ele>
        <time>2022-03-06T09:22:01.000Z</time>
      </trkpt>
      <trkpt lat="43.28812" lon="2.23306">
        <ele>185</ele>
        <time>2022-03-06T09:22:02.000Z</time>
      </trkpt>
      <trkpt lat="43.2881" lon="2.23306">
        <ele>185.1</ele>
        <time>2022-03-06T09:22:03.000Z</time>
      </trkpt>
      <trkpt lat="43.28808" lon="2.23307">
        <ele>185.2</ele>
        <time>2022-03-06T09:22:04.000Z</time>
      </trkpt>
      <trkpt lat="43.28805" lon="2.23307">
        <ele>185.3</ele>
        <time>2022-03-06T09:22:05.000Z</time>
      </trkpt>
      <trkpt lat="43.28803" lon="2.23308">
        <ele>185.4</ele>
        <time>2022-03-06T09:22:06.000Z</time>
      </trkpt>
      <trkpt lat="43.28801" lon="2.23309">
        <ele>185.5</ele>
        <time>2022-03-06T09:22:07.000Z</time>
      </trkpt>
      <trkpt lat="43.28798" lon="2.23309">
        <ele>185.6</ele>
        <time>2022-03-06T09:22:08.000Z</time>
      </trkpt>
      <trkpt lat="43.28795" lon="2.2331">
        <ele>185.7</ele>
        <time>2022-03-06T09:22:09.000Z</time>
      </trkpt>
      <trkpt lat="43.28793" lon="2.23311">
        <ele>185.8</ele>
        <time>2022-03-06T09:22:10.000Z</time>
      </trkpt>
      <trkpt lat="43.28789" lon="2.23312">
        <ele>185.9</ele>
        <time>2022-03-06T09:22:11.000Z</time>
      </trkpt>
      <trkpt lat="43.28786" lon="2.23314">
        <ele>186</ele>
        <time>2022-03-06T09:22:12.000Z</time>
      </trkpt>
      <trkpt lat="43.28783" lon="2.23315">
        <ele>186.1</ele>
        <time>2022-03-06T09:22:13.000Z</time>
      </trkpt>
      <trkpt lat="43.2878" lon="2.23316">
        <ele>186.1</ele>
        <time>2022-03-06T09:22:14.000Z</time>
      </trkpt>
      <trkpt lat="43.28776" lon="2.23318">
        <ele>186.2</ele>
        <time>2022-03-06T09:22:15.000Z</time>
      </trkpt>
      <trkpt lat="43.28773" lon="2.23319">
        <ele>186.3</ele>
        <time>2022-03-06T09:22:16.000Z</time>
      </trkpt>
      <trkpt lat="43.2877" lon="2.2332">
        <ele>186.3</ele>
        <time>2022-03-06T09:22:17.000Z</time>
      </trkpt>
      <trkpt lat="43.28767" lon="2.23321">
        <ele>186.4</ele>
        <time>2022-03-06T09:22:18.000Z</time>
      </trkpt>
      <trkpt lat="43.28764" lon="2.23323">
        <ele>186.4</ele>
        <time>2022-03-06T09:22:19.000Z</time>
      </trkpt>
      <trkpt lat="43.28761" lon="2.23324">
        <ele>186.5</ele>
        <time>2022-03-06T09:22:20.000Z</time>
      </trkpt>
      <trkpt lat="43.28758" lon="2.23325">
        <ele>186.5</ele>
        <time>2022-03-06T09:22:21.000Z</time>
      </trkpt>
      <trkpt lat="43.28755" lon="2.23326">
        <ele>186.5</ele>
        <time>2022-03-06T09:22:22.000Z</time>
      </trkpt>
      <trkpt lat="43.28752" lon="2.23327">
        <ele>186.6</ele>
        <time>2022-03-06T09:22:23.000Z</time>
      </trkpt>
      <trkpt lat="43.2875" lon="2.23328">
        <ele>186.6</ele>
        <time>2022-03-06T09:22:24.000Z</time>
      </trkpt>
      <trkpt lat="43.28747" lon="2.23329">
        <ele>186.9</ele>
        <time>2022-03-06T09:22:25.000Z</time>
      </trkpt>
      <trkpt lat="43.28744" lon="2.2333">
        <ele>187.2</ele>
        <time>2022-03-06T09:22:26.000Z</time>
      </trkpt>
      <trkpt lat="43.28741" lon="2.23331">
        <ele>187.5</ele>
        <time>2022-03-06T09:22:27.000Z</time>
      </trkpt>
      <trkpt lat="43.28738" lon="2.23333">
        <ele>187.8</ele>
        <time>2022-03-06T09:22:28.000Z</time>
      </trkpt>
      <trkpt lat="43.28735" lon="2.23334">
        <ele>188.1</ele>
        <time>2022-03-06T09:22:29.000Z</time>
      </trkpt>
      <trkpt lat="43.28733" lon="2.23335">
        <ele>188.4</ele>
        <time>2022-03-06T09:22:30.000Z</time>
      </trkpt>
      <trkpt lat="43.2873" lon="2.23336">
        <ele>188.7</ele>
        <time>2022-03-06T09:22:31.000Z</time>
      </trkpt>
      <trkpt lat="43.28727" lon="2.23337">
        <ele>189</ele>
        <time>2022-03-06T09:22:32.000Z</time>
      </trkpt>
      <trkpt lat="43.28724" lon="2.23338">
        <ele>189.2</ele>
        <time>2022-03-06T09:22:33.000Z</time>
      </trkpt>
      <trkpt lat="43.28721" lon="2.23339">
        <ele>189.5</ele>
        <time>2022-03-06T09:22:34.000Z</time>
      </trkpt>
      <trkpt lat="43.28719" lon="2.23341">
        <ele>189.8</ele>
        <time>2022-03-06T09:22:35.000Z</time>
      </trkpt>
      <trkpt lat="43.28716" lon="2.23342">
        <ele>190</ele>
        <time>2022-03-06T09:22:36.000Z</time>
      </trkpt>
      <trkpt lat="43.28713" lon="2.23343">
        <ele>190.2</ele>
        <time>2022-03-06T09:22:37.000Z</time>
      </trkpt>
      <trkpt lat="43.2871" lon="2.23345">
        <ele>190.4</ele>
        <time>2022-03-06T09:22:38.000Z</time>
      </trkpt>
      <trkpt lat="43.28708" lon="2.23346">
        <ele>190.6</ele>
        <time>2022-03-06T09:22:39.000Z</time>
      </trkpt>
      <trkpt lat="43.28705" lon="2.23348">
        <ele>190.8</ele>
        <time>2022-03-06T09:22:40.000Z</time>
      </trkpt>
      <trkpt lat="43.28702" lon="2.23349">
        <ele>191</ele>
        <time>2022-03-06T09:22:41.000Z</time>
      </trkpt>
      <trkpt lat="43.28699" lon="2.23351">
        <ele>191.1</ele>
        <time>2022-03-06T09:22:42.000Z</time>
      </trkpt>
      <trkpt lat="43.28697" lon="2.23353">
        <ele>191.3</ele>
        <time>2022-03-06T09:22:43.000Z</time>
      </trkpt>
      <trkpt lat="43.28694" lon="2.23354">
        <ele>191.4</ele>
        <time>2022-03-06T09:22:44.000Z</time>
      </trkpt>
      <trkpt lat="43.28691" lon="2.23356">
        <ele>191.5</ele>
        <time>2022-03-06T09:22:45.000Z</time>
      </trkpt>
      <trkpt lat="43.28689" lon="2.23358">
        <ele>191.6</ele>
        <time>2022-03-06T09:22:46.000Z</time>
      </trkpt>
      <trkpt lat="43.28686" lon="2.2336">
        <ele>191.6</ele>
        <time>2022-03-06T09:22:47.000Z</time>
      </trkpt>
      <trkpt lat="43.28683" lon="2.23362">
        <ele>191.6</ele>
        <time>2022-03-06T09:22:48.000Z</time>
      </trkpt>
      <trkpt lat="43.28681" lon="2.23364">
        <ele>191.7</ele>
        <time>2022-03-06T09:22:49.000Z</time>
      </trkpt>
      <trkpt lat="43.28678" lon="2.23366">
        <ele>191.6</ele>
        <time>2022-03-06T09:22:50.000Z</time>
      </trkpt>
      <trkpt lat="43.28676" lon="2.23368">
        <ele>191.6</ele>
        <time>2022-03-06T09:22:51.000Z</time>
      </trkpt>
      <trkpt lat="43.28673" lon="2.2337">
        <ele>191.6</ele>
        <time>2022-03-06T09:22:52.000Z</time>
      </trkpt>
      <trkpt lat="43.28671" lon="2.23372">
        <ele>191.5</ele>
        <time>2022-03-06T09:22:53.000Z</time>
      </trkpt>
      <trkpt lat="43.28668" lon="2.23374">
        <ele>191.4</ele>
        <time>2022-03-06T09:22:54.000Z</time>
      </trkpt>
      <trkpt lat="43.28666" lon="2.23377">
        <ele>191.4</ele>
        <time>2022-03-06T09:22:55.000Z</time>
      </trkpt>
      <trkpt lat="43.28663" lon="2.23379">
        <ele>191.4</ele>
        <time>2022-03-06T09:22:56.000Z</time>
      </trkpt>
      <trkpt lat="43.28661" lon="2.23381">
        <ele>191.4</ele>
        <time>2022-03-06T09:22:57.000Z</time>
      </trkpt>
      <trkpt lat="43.28659" lon="2.23383">
        <ele>191.4</ele>
        <time>2022-03-06T09:22:58.000Z</time>
      </trkpt>
      <trkpt lat="43.28656" lon="2.23386">
        <ele>191.5</ele>
        <time>2022-03-06T09:22:59.000Z</time>
      </trkpt>
      <trkpt lat="43.28654" lon="2.23388">
        <ele>191.5</ele>
        <time>2022-03-06T09:23:00.000Z</time>
      </trkpt>
      <trkpt lat="43.28651" lon="2.2339">
        <ele>191.6</ele>
        <time>2022-03-06T09:23:01.000Z</time>
      </trkpt>
      <trkpt lat="43.28649" lon="2.23393">
        <ele>191.7</ele>
        <time>2022-03-06T09:23:02.000Z</time>
      </trkpt>
      <trkpt lat="43.28647" lon="2.23395">
        <ele>191.8</ele>
        <time>2022-03-06T09:23:03.000Z</time>
      </trkpt>
      <trkpt lat="43.28644" lon="2.23397">
        <ele>191.9</ele>
        <time>2022-03-06T09:23:04.000Z</time>
      </trkpt>
      <trkpt lat="43.28642" lon="2.23399">
        <ele>192</ele>
        <time>2022-03-06T09:23:05.000Z</time>
      </trkpt>
      <trkpt lat="43.2864" lon="2.23402">
        <ele>192.1</ele>
        <time>2022-03-06T09:23:06.000Z</time>
      </trkpt>
      <trkpt lat="43.28637" lon="2.23404">
        <ele>192.2</ele>
        <time>2022-03-06T09:23:07.000Z</time>
      </trkpt>
      <trkpt lat="43.28635" lon="2.23406">
        <ele>192.3</ele>
        <time>2022-03-06T09:23:08.000Z</time>
      </trkpt>
      <trkpt lat="43.28633" lon="2.23408">
        <ele>192.5</ele>
        <time>2022-03-06T09:23:09.000Z</time>
      </trkpt>
      <trkpt lat="43.28631" lon="2.23411">
        <ele>192.6</ele>
        <time>2022-03-06T09:23:10.000Z</time>
      </trkpt>
      <trkpt lat="43.28629" lon="2.23413">
        <ele>192.7</ele>
        <time>2022-03-06T09:23:11.000Z</time>
      </trkpt>
      <trkpt lat="43.28627" lon="2.23415">
        <ele>192.9</ele>
        <time>2022-03-06T09:23:12.000Z</time>
      </trkpt>
      <trkpt lat="43.28625" lon="2.23417">
        <ele>193</ele>
        <time>2022-03-06T09:23:13.000Z</time>
      </trkpt>
      <trkpt lat="43.28623" lon="2.2342">
        <ele>193.1</ele>
        <time>2022-03-06T09:23:14.000Z</time>
      </trkpt>
      <trkpt lat="43.28621" lon="2.23422">
        <ele>193.3</ele>
        <time>2022-03-06T09:23:15.000Z</time>
      </trkpt>
      <trkpt lat="43.28619" lon="2.23424">
        <ele>193.4</ele>
        <time>2022-03-06T09:23:16.000Z</time>
      </trkpt>
      <trkpt lat="43.28617" lon="2.23426">
        <ele>193.5</ele>
        <time>2022-03-06T09:23:17.000Z</time>
      </trkpt>
      <trkpt lat="43.28615" lon="2.23429">
        <ele>193.6</ele>
        <time>2022-03-06T09:23:18.000Z</time>
      </trkpt>
      <trkpt lat="43.28614" lon="2.23431">
        <ele>193.6</ele>
        <time>2022-03-06T09:23:19.000Z</time>
      </trkpt>
      <trkpt lat="43.28612" lon="2.23433">
        <ele>193.7</ele>
        <time>2022-03-06T09:23:20.000Z</time>
      </trkpt>
      <trkpt lat="43.2861" lon="2.23436">
        <ele>193.8</ele>
        <time>2022-03-06T09:23:21.000Z</time>
      </trkpt>
      <trkpt lat="43.28608" lon="2.23438">
        <ele>193.8</ele>
        <time>2022-03-06T09:23:22.000Z</time>
      </trkpt>
      <trkpt lat="43.28606" lon="2.23441">
        <ele>193.8</ele>
        <time>2022-03-06T09:23:23.000Z</time>
      </trkpt>
      <trkpt lat="43.28605" lon="2.23443">
        <ele>193.8</ele>
        <time>2022-03-06T09:23:24.000Z</time>
      </trkpt>
      <trkpt lat="43.28603" lon="2.23446">
        <ele>193.9</ele>
        <time>2022-03-06T09:23:25.000Z</time>
      </trkpt>
      <trkpt lat="43.28601" lon="2.23448">
        <ele>193.9</ele>
        <time>2022-03-06T09:23:26.000Z</time>
      </trkpt>
      <trkpt lat="43.28599" lon="2.2345">
        <ele>193.9</ele>
        <time>2022-03-06T09:23:27.000Z</time>
      </trkpt>
      <trkpt lat="43.28597" lon="2.23453">
        <ele>194</ele>
        <time>2022-03-06T09:23:28.000Z</time>
      </trkpt>
      <trkpt lat="43.28595" lon="2.23455">
        <ele>194</ele>
        <time>2022-03-06T09:23:29.000Z</time>
      </trkpt>
      <trkpt lat="43.28593" lon="2.23457">
        <ele>194</ele>
        <time>2022-03-06T09:23:30.000Z</time>
      </trkpt>
      <trkpt lat="43.28592" lon="2.23459">
        <ele>194</ele>
        <time>2022-03-06T09:23:31.000Z</time>
      </trkpt>
      <trkpt lat="43.2859" lon="2.23462">
        <ele>194.1</ele>
        <time>2022-03-06T09:23:32.000Z</time>
      </trkpt>
      <trkpt lat="43.28588" lon="2.23464">
        <ele>194.1</ele>
        <time>2022-03-06T09:23:33.000Z</time>
      </trkpt>
      <trkpt lat="43.28586" lon="2.23466">
        <ele>194.1</ele>
        <time>2022-03-06T09:23:34.000Z</time>
      </trkpt>
      <trkpt lat="43.28584" lon="2.23468">
        <ele>194.1</ele>
        <time>2022-03-06T09:23:35.000Z</time>
      </trkpt>
      <trkpt lat="43.28582" lon="2.23471">
        <ele>194.1</ele>
        <time>2022-03-06T09:23:36.000Z</time>
      </trkpt>
      <trkpt lat="43.2858" lon="2.23473">
        <ele>194</ele>
        <time>2022-03-06T09:23:37.000Z</time>
      </trkpt>
      <trkpt lat="43.28578" lon="2.23475">
        <ele>193.9</ele>
        <time>2022-03-06T09:23:38.000Z</time>
      </trkpt>
      <trkpt lat="43.28576" lon="2.23477">
        <ele>193.8</ele>
        <time>2022-03-06T09:23:39.000Z</time>
      </trkpt>
      <trkpt lat="43.28574" lon="2.2348">
        <ele>193.7</ele>
        <time>2022-03-06T09:23:40.000Z</time>
      </trkpt>
      <trkpt lat="43.28572" lon="2.23482">
        <ele>193.7</ele>
        <time>2022-03-06T09:23:41.000Z</time>
      </trkpt>
      <trkpt lat="43.2857" lon="2.23484">
        <ele>193.6</ele>
        <time>2022-03-06T09:23:42.000Z</time>
      </trkpt>
      <trkpt lat="43.28568" lon="2.23487">
        <ele>193.6</ele>
        <time>2022-03-06T09:23:43.000Z</time>
      </trkpt>
      <trkpt lat="43.28566" lon="2.23489">
        <ele>193.5</ele>
        <time>2022-03-06T09:23:44.000Z</time>
      </trkpt>
      <trkpt lat="43.28564" lon="2.23492">
        <ele>193.5</ele>
        <time>2022-03-06T09:23:45.000Z</time>
      </trkpt>
      <trkpt lat="43.28563" lon="2.23494">
        <ele>193.4</ele>
        <time>2022-03-06T09:23:46.000Z</time>
      </trkpt>
      <trkpt lat="43.28561" lon="2.23496">
        <ele>193.4</ele>
        <time>2022-03-06T09:23:47.000Z</time>
      </trkpt>
      <trkpt lat="43.28559" lon="2.23499">
        <ele>193.4</ele>
        <time>2022-03-06T09:23:48.000Z</time>
      </trkpt>
      <trkpt lat="43.28557" lon="2.23501">
        <ele>193.3</ele>
        <time>2022-03-06T09:23:49.000Z</time>
      </trkpt>
      <trkpt lat="43.28555" lon="2.23504">
        <ele>193.4</ele>
        <time>2022-03-06T09:23:50.000Z</time>
      </trkpt>
      <trkpt lat="43.28553" lon="2.23506">
        <ele>193.3</ele>
        <time>2022-03-06T09:23:51.000Z</time>
      </trkpt>
      <trkpt lat="43.28551" lon="2.23509">
        <ele>193.3</ele>
        <time>2022-03-06T09:23:52.000Z</time>
      </trkpt>
      <trkpt lat="43.2855" lon="2.23512">
        <ele>193.3</ele>
        <time>2022-03-06T09:23:53.000Z</time>
      </trkpt>
      <trkpt lat="43.28548" lon="2.23514">
        <ele>193.3</ele>
        <time>2022-03-06T09:23:54.000Z</time>
      </trkpt>
      <trkpt lat="43.28546" lon="2.23517">
        <ele>193.4</ele>
        <time>2022-03-06T09:23:55.000Z</time>
      </trkpt>
      <trkpt lat="43.28544" lon="2.23519">
        <ele>193.4</ele>
        <time>2022-03-06T09:23:56.000Z</time>
      </trkpt>
      <trkpt lat="43.28542" lon="2.23522">
        <ele>193.4</ele>
        <time>2022-03-06T09:23:57.000Z</time>
      </trkpt>
      <trkpt lat="43.28541" lon="2.23525">
        <ele>193.4</ele>
        <time>2022-03-06T09:23:58.000Z</time>
      </trkpt>
      <trkpt lat="43.28539" lon="2.23527">
        <ele>193.5</ele>
        <time>2022-03-06T09:23:59.000Z</time>
      </trkpt>
      <trkpt lat="43.28537" lon="2.2353">
        <ele>193.5</ele>
        <time>2022-03-06T09:24:00.000Z</time>
      </trkpt>
      <trkpt lat="43.28535" lon="2.23532">
        <ele>193.6</ele>
        <time>2022-03-06T09:24:01.000Z</time>
      </trkpt>
      <trkpt lat="43.28533" lon="2.23535">
        <ele>193.7</ele>
        <time>2022-03-06T09:24:02.000Z</time>
      </trkpt>
      <trkpt lat="43.28532" lon="2.23538">
        <ele>193.7</ele>
        <time>2022-03-06T09:24:03.000Z</time>
      </trkpt>
      <trkpt lat="43.2853" lon="2.2354">
        <ele>193.8</ele>
        <time>2022-03-06T09:24:04.000Z</time>
      </trkpt>
      <trkpt lat="43.28528" lon="2.23543">
        <ele>193.9</ele>
        <time>2022-03-06T09:24:05.000Z</time>
      </trkpt>
      <trkpt lat="43.28526" lon="2.23545">
        <ele>194</ele>
        <time>2022-03-06T09:24:06.000Z</time>
      </trkpt>
      <trkpt lat="43.28524" lon="2.23548">
        <ele>194.1</ele>
        <time>2022-03-06T09:24:07.000Z</time>
      </trkpt>
      <trkpt lat="43.28522" lon="2.23551">
        <ele>194.3</ele>
        <time>2022-03-06T09:24:08.000Z</time>
      </trkpt>
      <trkpt lat="43.2852" lon="2.23553">
        <ele>194.4</ele>
        <time>2022-03-06T09:24:09.000Z</time>
      </trkpt>
      <trkpt lat="43.28518" lon="2.23556">
        <ele>194.6</ele>
        <time>2022-03-06T09:24:10.000Z</time>
      </trkpt>
      <trkpt lat="43.28516" lon="2.23558">
        <ele>194.7</ele>
        <time>2022-03-06T09:24:11.000Z</time>
      </trkpt>
      <trkpt lat="43.28514" lon="2.23561">
        <ele>194.9</ele>
        <time>2022-03-06T09:24:12.000Z</time>
      </trkpt>
      <trkpt lat="43.28512" lon="2.23563">
        <ele>195.1</ele>
        <time>2022-03-06T09:24:13.000Z</time>
      </trkpt>
      <trkpt lat="43.2851" lon="2.23566">
        <ele>195.3</ele>
        <time>2022-03-06T09:24:14.000Z</time>
      </trkpt>
      <trkpt lat="43.28508" lon="2.23568">
        <ele>195.5</ele>
        <time>2022-03-06T09:24:15.000Z</time>
      </trkpt>
      <trkpt lat="43.28506" lon="2.23571">
        <ele>195.7</ele>
        <time>2022-03-06T09:24:16.000Z</time>
      </trkpt>
      <trkpt lat="43.28503" lon="2.23573">
        <ele>196</ele>
        <time>2022-03-06T09:24:17.000Z</time>
      </trkpt>
      <trkpt lat="43.28501" lon="2.23576">
        <ele>196.2</ele>
        <time>2022-03-06T09:24:18.000Z</time>
      </trkpt>
      <trkpt lat="43.28499" lon="2.23579">
        <ele>196.3</ele>
        <time>2022-03-06T09:24:19.000Z</time>
      </trkpt>
      <trkpt lat="43.28497" lon="2.23581">
        <ele>196.2</ele>
        <time>2022-03-06T09:24:20.000Z</time>
      </trkpt>
      <trkpt lat="43.28494" lon="2.23583">
        <ele>196.1</ele>
        <time>2022-03-06T09:24:21.000Z</time>
      </trkpt>
      <trkpt lat="43.28492" lon="2.23586">
        <ele>196</ele>
        <time>2022-03-06T09:24:22.000Z</time>
      </trkpt>
      <trkpt lat="43.28489" lon="2.23588">
        <ele>195.8</ele>
        <time>2022-03-06T09:24:23.000Z</time>
      </trkpt>
      <trkpt lat="43.28487" lon="2.2359">
        <ele>195.7</ele>
        <time>2022-03-06T09:24:24.000Z</time>
      </trkpt>
      <trkpt lat="43.28484" lon="2.23591">
        <ele>195.6</ele>
        <time>2022-03-06T09:24:25.000Z</time>
      </trkpt>
      <trkpt lat="43.28481" lon="2.23593">
        <ele>195.6</ele>
        <time>2022-03-06T09:24:26.000Z</time>
      </trkpt>
      <trkpt lat="43.28478" lon="2.23594">
        <ele>195.6</ele>
        <time>2022-03-06T09:24:27.000Z</time>
      </trkpt>
      <trkpt lat="43.28475" lon="2.23595">
        <ele>195.6</ele>
        <time>2022-03-06T09:24:28.000Z</time>
      </trkpt>
      <trkpt lat="43.28472" lon="2.23596">
        <ele>195.6</ele>
        <time>2022-03-06T09:24:29.000Z</time>
      </trkpt>
      <trkpt lat="43.28469" lon="2.23596">
        <ele>195.7</ele>
        <time>2022-03-06T09:24:30.000Z</time>
      </trkpt>
      <trkpt lat="43.28467" lon="2.23596">
        <ele>195.8</ele>
        <time>2022-03-06T09:24:31.000Z</time>
      </trkpt>
      <trkpt lat="43.28464" lon="2.23597">
        <ele>195.9</ele>
        <time>2022-03-06T09:24:32.000Z</time>
      </trkpt>
      <trkpt lat="43.28461" lon="2.23597">
        <ele>195.9</ele>
        <time>2022-03-06T09:24:33.000Z</time>
      </trkpt>
      <trkpt lat="43.28459" lon="2.23597">
        <ele>196</ele>
        <time>2022-03-06T09:24:34.000Z</time>
      </trkpt>
      <trkpt lat="43.28457" lon="2.23597">
        <ele>196.1</ele>
        <time>2022-03-06T09:24:35.000Z</time>
      </trkpt>
      <trkpt lat="43.28456" lon="2.23597">
        <ele>196.1</ele>
        <time>2022-03-06T09:24:36.000Z</time>
      </trkpt>
      <trkpt lat="43.28455" lon="2.23597">
        <ele>196.1</ele>
        <time>2022-03-06T09:24:37.000Z</time>
      </trkpt>
      <trkpt lat="43.28454" lon="2.23598">
        <ele>196.1</ele>
        <time>2022-03-06T09:24:38.000Z</time>
      </trkpt>
      <trkpt lat="43.28453" lon="2.23598">
        <ele>196.1</ele>
        <time>2022-03-06T09:24:39.000Z</time>
      </trkpt>
      <trkpt lat="43.28452" lon="2.23598">
        <ele>196.2</ele>
        <time>2022-03-06T09:24:40.000Z</time>
      </trkpt>
      <trkpt lat="43.28451" lon="2.23598">
        <ele>196.2</ele>
        <time>2022-03-06T09:24:41.000Z</time>
      </trkpt>
      <trkpt lat="43.2845" lon="2.23597">
        <ele>196.3</ele>
        <time>2022-03-06T09:24:42.000Z</time>
      </trkpt>
      <trkpt lat="43.28449" lon="2.23597">
        <ele>196.4</ele>
        <time>2022-03-06T09:24:43.000Z</time>
      </trkpt>
      <trkpt lat="43.28447" lon="2.23596">
        <ele>196.5</ele>
        <time>2022-03-06T09:24:44.000Z</time>
      </trkpt>
      <trkpt lat="43.28446" lon="2.23595">
        <ele>196.6</ele>
        <time>2022-03-06T09:24:45.000Z</time>
      </trkpt>
      <trkpt lat="43.28445" lon="2.23594">
        <ele>196.7</ele>
        <time>2022-03-06T09:24:46.000Z</time>
      </trkpt>
      <trkpt lat="43.28443" lon="2.23593">
        <ele>196.8</ele>
        <time>2022-03-06T09:24:47.000Z</time>
      </trkpt>
      <trkpt lat="43.28442" lon="2.23593">
        <ele>196.9</ele>
        <time>2022-03-06T09:24:48.000Z</time>
      </trkpt>
      <trkpt lat="43.28441" lon="2.23592">
        <ele>196.9</ele>
        <time>2022-03-06T09:24:49.000Z</time>
      </trkpt>
      <trkpt lat="43.2844" lon="2.23591">
        <ele>197</ele>
        <time>2022-03-06T09:24:50.000Z</time>
      </trkpt>
      <trkpt lat="43.28439" lon="2.2359">
        <ele>197.1</ele>
        <time>2022-03-06T09:24:51.000Z</time>
      </trkpt>
      <trkpt lat="43.28438" lon="2.23589">
        <ele>197.2</ele>
        <time>2022-03-06T09:24:52.000Z</time>
      </trkpt>
      <trkpt lat="43.28436" lon="2.23588">
        <ele>197.3</ele>
        <time>2022-03-06T09:24:53.000Z</time>
      </trkpt>
      <trkpt lat="43.28435" lon="2.23587">
        <ele>197.3</ele>
        <time>2022-03-06T09:24:54.000Z</time>
      </trkpt>
      <trkpt lat="43.28434" lon="2.23586">
        <ele>197.4</ele>
        <time>2022-03-06T09:24:55.000Z</time>
      </trkpt>
      <trkpt lat="43.28433" lon="2.23586">
        <ele>197.5</ele>
        <time>2022-03-06T09:24:56.000Z</time>
      </trkpt>
      <trkpt lat="43.28432" lon="2.23585">
        <ele>197.6</ele>
        <time>2022-03-06T09:24:57.000Z</time>
      </trkpt>
      <trkpt lat="43.28431" lon="2.23584">
        <ele>197.6</ele>
        <time>2022-03-06T09:24:58.000Z</time>
      </trkpt>
      <trkpt lat="43.28429" lon="2.23583">
        <ele>197.7</ele>
        <time>2022-03-06T09:24:59.000Z</time>
      </trkpt>
      <trkpt lat="43.28428" lon="2.23583">
        <ele>197.7</ele>
        <time>2022-03-06T09:25:00.000Z</time>
      </trkpt>
      <trkpt lat="43.28427" lon="2.23582">
        <ele>197.8</ele>
        <time>2022-03-06T09:25:01.000Z</time>
      </trkpt>
      <trkpt lat="43.28425" lon="2.23581">
        <ele>197.8</ele>
        <time>2022-03-06T09:25:02.000Z</time>
      </trkpt>
      <trkpt lat="43.28424" lon="2.2358">
        <ele>197.9</ele>
        <time>2022-03-06T09:25:03.000Z</time>
      </trkpt>
      <trkpt lat="43.28423" lon="2.23579">
        <ele>197.9</ele>
        <time>2022-03-06T09:25:04.000Z</time>
      </trkpt>
      <trkpt lat="43.28421" lon="2.23578">
        <ele>198</ele>
        <time>2022-03-06T09:25:05.000Z</time>
      </trkpt>
      <trkpt lat="43.2842" lon="2.23577">
        <ele>198</ele>
        <time>2022-03-06T09:25:06.000Z</time>
      </trkpt>
      <trkpt lat="43.28418" lon="2.23575">
        <ele>198.1</ele>
        <time>2022-03-06T09:25:07.000Z</time>
      </trkpt>
      <trkpt lat="43.28417" lon="2.23573">
        <ele>198.1</ele>
        <time>2022-03-06T09:25:08.000Z</time>
      </trkpt>
      <trkpt lat="43.28416" lon="2.23571">
        <ele>198.1</ele>
        <time>2022-03-06T09:25:09.000Z</time>
      </trkpt>
      <trkpt lat="43.28415" lon="2.23568">
        <ele>198.1</ele>
        <time>2022-03-06T09:25:10.000Z</time>
      </trkpt>
      <trkpt lat="43.28413" lon="2.23566">
        <ele>198</ele>
        <time>2022-03-06T09:25:11.000Z</time>
      </trkpt>
      <trkpt lat="43.28412" lon="2.23563">
        <ele>198</ele>
        <time>2022-03-06T09:25:12.000Z</time>
      </trkpt>
      <trkpt lat="43.28411" lon="2.2356">
        <ele>198</ele>
        <time>2022-03-06T09:25:13.000Z</time>
      </trkpt>
      <trkpt lat="43.2841" lon="2.23558">
        <ele>197.9</ele>
        <time>2022-03-06T09:25:14.000Z</time>
      </trkpt>
      <trkpt lat="43.28409" lon="2.23555">
        <ele>197.9</ele>
        <time>2022-03-06T09:25:15.000Z</time>
      </trkpt>
      <trkpt lat="43.28407" lon="2.23553">
        <ele>197.9</ele>
        <time>2022-03-06T09:25:16.000Z</time>
      </trkpt>
      <trkpt lat="43.28406" lon="2.2355">
        <ele>197.8</ele>
        <time>2022-03-06T09:25:17.000Z</time>
      </trkpt>
      <trkpt lat="43.28405" lon="2.23548">
        <ele>197.8</ele>
        <time>2022-03-06T09:25:18.000Z</time>
      </trkpt>
      <trkpt lat="43.28404" lon="2.23546">
        <ele>197.7</ele>
        <time>2022-03-06T09:25:19.000Z</time>
      </trkpt>
      <trkpt lat="43.28402" lon="2.23544">
        <ele>197.7</ele>
        <time>2022-03-06T09:25:20.000Z</time>
      </trkpt>
      <trkpt lat="43.28401" lon="2.23542">
        <ele>197.6</ele>
        <time>2022-03-06T09:25:21.000Z</time>
      </trkpt>
      <trkpt lat="43.28399" lon="2.2354">
        <ele>197.6</ele>
        <time>2022-03-06T09:25:22.000Z</time>
      </trkpt>
      <trkpt lat="43.28397" lon="2.23538">
        <ele>197.5</ele>
        <time>2022-03-06T09:25:23.000Z</time>
      </trkpt>
      <trkpt lat="43.28396" lon="2.23536">
        <ele>197.4</ele>
        <time>2022-03-06T09:25:24.000Z</time>
      </trkpt>
      <trkpt lat="43.28394" lon="2.23534">
        <ele>197.4</ele>
        <time>2022-03-06T09:25:25.000Z</time>
      </trkpt>
      <trkpt lat="43.28393" lon="2.23531">
        <ele>197.3</ele>
        <time>2022-03-06T09:25:26.000Z</time>
      </trkpt>
      <trkpt lat="43.28391" lon="2.23529">
        <ele>197.2</ele>
        <time>2022-03-06T09:25:27.000Z</time>
      </trkpt>
      <trkpt lat="43.2839" lon="2.23527">
        <ele>197.2</ele>
        <time>2022-03-06T09:25:28.000Z</time>
      </trkpt>
      <trkpt lat="43.2839" lon="2.23524">
        <ele>197.2</ele>
        <time>2022-03-06T09:25:29.000Z</time>
      </trkpt>
      <trkpt lat="43.28389" lon="2.23521">
        <ele>197.2</ele>
        <time>2022-03-06T09:25:30.000Z</time>
      </trkpt>
      <trkpt lat="43.28389" lon="2.23518">
        <ele>197.2</ele>
        <time>2022-03-06T09:25:31.000Z</time>
      </trkpt>
      <trkpt lat="43.28388" lon="2.23515">
        <ele>197.2</ele>
        <time>2022-03-06T09:25:32.000Z</time>
      </trkpt>
      <trkpt lat="43.28388" lon="2.23512">
        <ele>197.2</ele>
        <time>2022-03-06T09:25:33.000Z</time>
      </trkpt>
      <trkpt lat="43.28388" lon="2.23509">
        <ele>197.2</ele>
        <time>2022-03-06T09:25:34.000Z</time>
      </trkpt>
      <trkpt lat="43.28387" lon="2.23506">
        <ele>197.2</ele>
        <time>2022-03-06T09:25:35.000Z</time>
      </trkpt>
      <trkpt lat="43.28387" lon="2.23504">
        <ele>197.2</ele>
        <time>2022-03-06T09:25:36.000Z</time>
      </trkpt>
      <trkpt lat="43.28386" lon="2.23501">
        <ele>197.1</ele>
        <time>2022-03-06T09:25:37.000Z</time>
      </trkpt>
      <trkpt lat="43.28385" lon="2.23499">
        <ele>197.1</ele>
        <time>2022-03-06T09:25:38.000Z</time>
      </trkpt>
      <trkpt lat="43.28384" lon="2.23496">
        <ele>197.2</ele>
        <time>2022-03-06T09:25:39.000Z</time>
      </trkpt>
      <trkpt lat="43.28383" lon="2.23494">
        <ele>197.3</ele>
        <time>2022-03-06T09:25:40.000Z</time>
      </trkpt>
      <trkpt lat="43.28382" lon="2.23491">
        <ele>197.3</ele>
        <time>2022-03-06T09:25:41.000Z</time>
      </trkpt>
      <trkpt lat="43.28381" lon="2.23489">
        <ele>197.4</ele>
        <time>2022-03-06T09:25:42.000Z</time>
      </trkpt>
      <trkpt lat="43.28381" lon="2.23486">
        <ele>197.4</ele>
        <time>2022-03-06T09:25:43.000Z</time>
      </trkpt>
      <trkpt lat="43.2838" lon="2.23483">
        <ele>197.5</ele>
        <time>2022-03-06T09:25:44.000Z</time>
      </trkpt>
      <trkpt lat="43.2838" lon="2.23481">
        <ele>197.6</ele>
        <time>2022-03-06T09:25:45.000Z</time>
      </trkpt>
      <trkpt lat="43.2838" lon="2.23478">
        <ele>197.7</ele>
        <time>2022-03-06T09:25:46.000Z</time>
      </trkpt>
      <trkpt lat="43.28379" lon="2.23476">
        <ele>197.8</ele>
        <time>2022-03-06T09:25:47.000Z</time>
      </trkpt>
      <trkpt lat="43.28379" lon="2.23473">
        <ele>197.9</ele>
        <time>2022-03-06T09:25:48.000Z</time>
      </trkpt>
      <trkpt lat="43.28378" lon="2.2347">
        <ele>198</ele>
        <time>2022-03-06T09:25:49.000Z</time>
      </trkpt>
      <trkpt lat="43.28377" lon="2.23467">
        <ele>198</ele>
        <time>2022-03-06T09:25:50.000Z</time>
      </trkpt>
      <trkpt lat="43.28376" lon="2.23464">
        <ele>198.1</ele>
        <time>2022-03-06T09:25:51.000Z</time>
      </trkpt>
      <trkpt lat="43.28375" lon="2.23461">
        <ele>198.2</ele>
        <time>2022-03-06T09:25:52.000Z</time>
      </trkpt>
      <trkpt lat="43.28374" lon="2.23458">
        <ele>198.2</ele>
        <time>2022-03-06T09:25:53.000Z</time>
      </trkpt>
      <trkpt lat="43.28373" lon="2.23454">
        <ele>198.3</ele>
        <time>2022-03-06T09:25:54.000Z</time>
      </trkpt>
      <trkpt lat="43.28372" lon="2.23452">
        <ele>198.3</ele>
        <time>2022-03-06T09:25:55.000Z</time>
      </trkpt>
      <trkpt lat="43.28371" lon="2.23449">
        <ele>198.3</ele>
        <time>2022-03-06T09:25:56.000Z</time>
      </trkpt>
      <trkpt lat="43.2837" lon="2.23447">
        <ele>198.4</ele>
        <time>2022-03-06T09:25:57.000Z</time>
      </trkpt>
      <trkpt lat="43.28369" lon="2.23444">
        <ele>198.4</ele>
        <time>2022-03-06T09:25:58.000Z</time>
      </trkpt>
      <trkpt lat="43.28368" lon="2.23442">
        <ele>198.4</ele>
        <time>2022-03-06T09:25:59.000Z</time>
      </trkpt>
      <trkpt lat="43.28368" lon="2.23441">
        <ele>198.5</ele>
        <time>2022-03-06T09:26:00.000Z</time>
      </trkpt>
      <trkpt lat="43.28367" lon="2.23439">
        <ele>198.5</ele>
        <time>2022-03-06T09:26:01.000Z</time>
      </trkpt>
      <trkpt lat="43.28367" lon="2.23437">
        <ele>198.6</ele>
        <time>2022-03-06T09:26:02.000Z</time>
      </trkpt>
      <trkpt lat="43.28366" lon="2.23436">
        <ele>198.6</ele>
        <time>2022-03-06T09:26:03.000Z</time>
      </trkpt>
      <trkpt lat="43.28366" lon="2.23434">
        <ele>198.6</ele>
        <time>2022-03-06T09:26:04.000Z</time>
      </trkpt>
      <trkpt lat="43.28365" lon="2.23432">
        <ele>198.7</ele>
        <time>2022-03-06T09:26:05.000Z</time>
      </trkpt>
      <trkpt lat="43.28365" lon="2.2343">
        <ele>198.7</ele>
        <time>2022-03-06T09:26:06.000Z</time>
      </trkpt>
      <trkpt lat="43.28365" lon="2.23429">
        <ele>198.8</ele>
        <time>2022-03-06T09:26:07.000Z</time>
      </trkpt>
      <trkpt lat="43.28365" lon="2.23427">
        <ele>198.8</ele>
        <time>2022-03-06T09:26:08.000Z</time>
      </trkpt>
      <trkpt lat="43.28364" lon="2.23426">
        <ele>198.9</ele>
        <time>2022-03-06T09:26:09.000Z</time>
      </trkpt>
      <trkpt lat="43.28364" lon="2.23425">
        <ele>198.9</ele>
        <time>2022-03-06T09:26:10.000Z</time>
      </trkpt>
      <trkpt lat="43.28364" lon="2.23424">
        <ele>198.9</ele>
        <time>2022-03-06T09:26:11.000Z</time>
      </trkpt>
      <trkpt lat="43.28364" lon="2.23423">
        <ele>199</ele>
        <time>2022-03-06T09:26:12.000Z</time>
      </trkpt>
      <trkpt lat="43.28364" lon="2.23422">
        <ele>199</ele>
        <time>2022-03-06T09:26:13.000Z</time>
      </trkpt>
      <trkpt lat="43.28364" lon="2.23421">
        <ele>199.1</ele>
        <time>2022-03-06T09:26:14.000Z</time>
      </trkpt>
      <trkpt lat="43.28364" lon="2.2342">
        <ele>199.1</ele>
        <time>2022-03-06T09:26:15.000Z</time>
      </trkpt>
      <trkpt lat="43.28364" lon="2.23419">
        <ele>199.2</ele>
        <time>2022-03-06T09:26:16.000Z</time>
      </trkpt>
      <trkpt lat="43.28365" lon="2.23417">
        <ele>199.2</ele>
        <time>2022-03-06T09:26:17.000Z</time>
      </trkpt>
      <trkpt lat="43.28365" lon="2.23415">
        <ele>199.3</ele>
        <time>2022-03-06T09:26:18.000Z</time>
      </trkpt>
      <trkpt lat="43.28364" lon="2.23413">
        <ele>199.3</ele>
        <time>2022-03-06T09:26:19.000Z</time>
      </trkpt>
      <trkpt lat="43.28364" lon="2.2341">
        <ele>199.4</ele>
        <time>2022-03-06T09:26:20.000Z</time>
      </trkpt>
      <trkpt lat="43.28364" lon="2.23408">
        <ele>199.4</ele>
        <time>2022-03-06T09:26:21.000Z</time>
      </trkpt>
      <trkpt lat="43.28364" lon="2.23405">
        <ele>199.4</ele>
        <time>2022-03-06T09:26:22.000Z</time>
      </trkpt>
      <trkpt lat="43.28364" lon="2.23403">
        <ele>199.5</ele>
        <time>2022-03-06T09:26:23.000Z</time>
      </trkpt>
      <trkpt lat="43.28364" lon="2.23401">
        <ele>199.5</ele>
        <time>2022-03-06T09:26:24.000Z</time>
      </trkpt>
      <trkpt lat="43.28364" lon="2.23399">
        <ele>199.6</ele>
        <time>2022-03-06T09:26:25.000Z</time>
      </trkpt>
      <trkpt lat="43.28364" lon="2.23397">
        <ele>199.6</ele>
        <time>2022-03-06T09:26:26.000Z</time>
      </trkpt>
      <trkpt lat="43.28364" lon="2.23396">
        <ele>199.6</ele>
        <time>2022-03-06T09:26:27.000Z</time>
      </trkpt>
      <trkpt lat="43.28364" lon="2.23395">
        <ele>199.6</ele>
        <time>2022-03-06T09:26:28.000Z</time>
      </trkpt>
      <trkpt lat="43.28364" lon="2.23394">
        <ele>199.7</ele>
        <time>2022-03-06T09:26:29.000Z</time>
      </trkpt>
      <trkpt lat="43.28364" lon="2.23393">
        <ele>199.7</ele>
        <time>2022-03-06T09:26:30.000Z</time>
      </trkpt>
      <trkpt lat="43.28364" lon="2.23393">
        <ele>199.7</ele>
        <time>2022-03-06T09:26:31.000Z</time>
      </trkpt>
      <trkpt lat="43.28363" lon="2.23391">
        <ele>199.7</ele>
        <time>2022-03-06T09:26:32.000Z</time>
      </trkpt>
      <trkpt lat="43.28363" lon="2.2339">
        <ele>199.6</ele>
        <time>2022-03-06T09:26:33.000Z</time>
      </trkpt>
      <trkpt lat="43.28361" lon="2.23388">
        <ele>199.6</ele>
        <time>2022-03-06T09:26:34.000Z</time>
      </trkpt>
      <trkpt lat="43.2836" lon="2.23386">
        <ele>199.5</ele>
        <time>2022-03-06T09:26:35.000Z</time>
      </trkpt>
      <trkpt lat="43.28358" lon="2.23384">
        <ele>199.5</ele>
        <time>2022-03-06T09:26:36.000Z</time>
      </trkpt>
      <trkpt lat="43.28357" lon="2.23381">
        <ele>199.4</ele>
        <time>2022-03-06T09:26:37.000Z</time>
      </trkpt>
      <trkpt lat="43.28355" lon="2.23379">
        <ele>199.4</ele>
        <time>2022-03-06T09:26:38.000Z</time>
      </trkpt>
      <trkpt lat="43.28354" lon="2.23376">
        <ele>199.3</ele>
        <time>2022-03-06T09:26:39.000Z</time>
      </trkpt>
      <trkpt lat="43.28352" lon="2.23373">
        <ele>199.3</ele>
        <time>2022-03-06T09:26:40.000Z</time>
      </trkpt>
      <trkpt lat="43.28351" lon="2.23371">
        <ele>199.2</ele>
        <time>2022-03-06T09:26:41.000Z</time>
      </trkpt>
      <trkpt lat="43.2835" lon="2.23368">
        <ele>199.2</ele>
        <time>2022-03-06T09:26:42.000Z</time>
      </trkpt>
      <trkpt lat="43.28349" lon="2.23365">
        <ele>199.2</ele>
        <time>2022-03-06T09:26:43.000Z</time>
      </trkpt>
      <trkpt lat="43.28348" lon="2.23362">
        <ele>199.3</ele>
        <time>2022-03-06T09:26:44.000Z</time>
      </trkpt>
      <trkpt lat="43.28347" lon="2.23359">
        <ele>199.3</ele>
        <time>2022-03-06T09:26:45.000Z</time>
      </trkpt>
      <trkpt lat="43.28347" lon="2.23356">
        <ele>199.3</ele>
        <time>2022-03-06T09:26:46.000Z</time>
      </trkpt>
      <trkpt lat="43.28347" lon="2.23353">
        <ele>199.4</ele>
        <time>2022-03-06T09:26:47.000Z</time>
      </trkpt>
      <trkpt lat="43.28346" lon="2.2335">
        <ele>199.4</ele>
        <time>2022-03-06T09:26:48.000Z</time>
      </trkpt>
      <trkpt lat="43.28346" lon="2.23347">
        <ele>199.5</ele>
        <time>2022-03-06T09:26:49.000Z</time>
      </trkpt>
      <trkpt lat="43.28346" lon="2.23344">
        <ele>199.5</ele>
        <time>2022-03-06T09:26:50.000Z</time>
      </trkpt>
      <trkpt lat="43.28346" lon="2.23341">
        <ele>199.6</ele>
        <time>2022-03-06T09:26:51.000Z</time>
      </trkpt>
      <trkpt lat="43.28346" lon="2.23338">
        <ele>199.6</ele>
        <time>2022-03-06T09:26:52.000Z</time>
      </trkpt>
      <trkpt lat="43.28345" lon="2.23334">
        <ele>199.7</ele>
        <time>2022-03-06T09:26:53.000Z</time>
      </trkpt>
      <trkpt lat="43.28345" lon="2.23331">
        <ele>199.7</ele>
        <time>2022-03-06T09:26:54.000Z</time>
      </trkpt>
      <trkpt lat="43.28344" lon="2.23327">
        <ele>199.6</ele>
        <time>2022-03-06T09:26:55.000Z</time>
      </trkpt>
      <trkpt lat="43.28344" lon="2.23324">
        <ele>199.5</ele>
        <time>2022-03-06T09:26:56.000Z</time>
      </trkpt>
      <trkpt lat="43.28343" lon="2.23321">
        <ele>199.4</ele>
        <time>2022-03-06T09:26:57.000Z</time>
      </trkpt>
      <trkpt lat="43.28341" lon="2.23318">
        <ele>199.3</ele>
        <time>2022-03-06T09:26:58.000Z</time>
      </trkpt>
      <trkpt lat="43.2834" lon="2.23315">
        <ele>199.2</ele>
        <time>2022-03-06T09:26:59.000Z</time>
      </trkpt>
      <trkpt lat="43.28338" lon="2.23312">
        <ele>199</ele>
        <time>2022-03-06T09:27:00.000Z</time>
      </trkpt>
      <trkpt lat="43.28336" lon="2.2331">
        <ele>198.9</ele>
        <time>2022-03-06T09:27:01.000Z</time>
      </trkpt>
      <trkpt lat="43.28334" lon="2.23309">
        <ele>198.7</ele>
        <time>2022-03-06T09:27:02.000Z</time>
      </trkpt>
      <trkpt lat="43.28331" lon="2.23307">
        <ele>198.4</ele>
        <time>2022-03-06T09:27:03.000Z</time>
      </trkpt>
      <trkpt lat="43.28328" lon="2.23306">
        <ele>198.2</ele>
        <time>2022-03-06T09:27:04.000Z</time>
      </trkpt>
      <trkpt lat="43.28325" lon="2.23305">
        <ele>197.9</ele>
        <time>2022-03-06T09:27:05.000Z</time>
      </trkpt>
      <trkpt lat="43.28323" lon="2.23304">
        <ele>197.6</ele>
        <time>2022-03-06T09:27:06.000Z</time>
      </trkpt>
      <trkpt lat="43.2832" lon="2.23303">
        <ele>197.3</ele>
        <time>2022-03-06T09:27:07.000Z</time>
      </trkpt>
      <trkpt lat="43.28317" lon="2.23302">
        <ele>197</ele>
        <time>2022-03-06T09:27:08.000Z</time>
      </trkpt>
      <trkpt lat="43.28315" lon="2.23301">
        <ele>196.8</ele>
        <time>2022-03-06T09:27:09.000Z</time>
      </trkpt>
      <trkpt lat="43.28312" lon="2.23299">
        <ele>196.5</ele>
        <time>2022-03-06T09:27:10.000Z</time>
      </trkpt>
      <trkpt lat="43.2831" lon="2.23298">
        <ele>196.3</ele>
        <time>2022-03-06T09:27:11.000Z</time>
      </trkpt>
      <trkpt lat="43.28307" lon="2.23297">
        <ele>196</ele>
        <time>2022-03-06T09:27:12.000Z</time>
      </trkpt>
      <trkpt lat="43.28305" lon="2.23296">
        <ele>195.8</ele>
        <time>2022-03-06T09:27:13.000Z</time>
      </trkpt>
      <trkpt lat="43.28302" lon="2.23296">
        <ele>195.5</ele>
        <time>2022-03-06T09:27:14.000Z</time>
      </trkpt>
      <trkpt lat="43.283" lon="2.23295">
        <ele>195.3</ele>
        <time>2022-03-06T09:27:15.000Z</time>
      </trkpt>
      <trkpt lat="43.28297" lon="2.23295">
        <ele>195</ele>
        <time>2022-03-06T09:27:16.000Z</time>
      </trkpt>
      <trkpt lat="43.28295" lon="2.23294">
        <ele>194.8</ele>
        <time>2022-03-06T09:27:17.000Z</time>
      </trkpt>
      <trkpt lat="43.28292" lon="2.23294">
        <ele>194.5</ele>
        <time>2022-03-06T09:27:18.000Z</time>
      </trkpt>
      <trkpt lat="43.28289" lon="2.23294">
        <ele>194.3</ele>
        <time>2022-03-06T09:27:19.000Z</time>
      </trkpt>
      <trkpt lat="43.28287" lon="2.23294">
        <ele>194</ele>
        <time>2022-03-06T09:27:20.000Z</time>
      </trkpt>
      <trkpt lat="43.28284" lon="2.23293">
        <ele>193.7</ele>
        <time>2022-03-06T09:27:21.000Z</time>
      </trkpt>
      <trkpt lat="43.28281" lon="2.23293">
        <ele>193.5</ele>
        <time>2022-03-06T09:27:22.000Z</time>
      </trkpt>
      <trkpt lat="43.28279" lon="2.23293">
        <ele>193.3</ele>
        <time>2022-03-06T09:27:23.000Z</time>
      </trkpt>
      <trkpt lat="43.28276" lon="2.23292">
        <ele>193</ele>
        <time>2022-03-06T09:27:24.000Z</time>
      </trkpt>
      <trkpt lat="43.28274" lon="2.23291">
        <ele>192.8</ele>
        <time>2022-03-06T09:27:25.000Z</time>
      </trkpt>
      <trkpt lat="43.28271" lon="2.2329">
        <ele>192.6</ele>
        <time>2022-03-06T09:27:26.000Z</time>
      </trkpt>
      <trkpt lat="43.28269" lon="2.23289">
        <ele>192.3</ele>
        <time>2022-03-06T09:27:27.000Z</time>
      </trkpt>
      <trkpt lat="43.28267" lon="2.23287">
        <ele>192.1</ele>
        <time>2022-03-06T09:27:28.000Z</time>
      </trkpt>
      <trkpt lat="43.28265" lon="2.23286">
        <ele>192</ele>
        <time>2022-03-06T09:27:29.000Z</time>
      </trkpt>
      <trkpt lat="43.28263" lon="2.23283">
        <ele>191.8</ele>
        <time>2022-03-06T09:27:30.000Z</time>
      </trkpt>
      <trkpt lat="43.28261" lon="2.23281">
        <ele>191.6</ele>
        <time>2022-03-06T09:27:31.000Z</time>
      </trkpt>
      <trkpt lat="43.28259" lon="2.23278">
        <ele>191.5</ele>
        <time>2022-03-06T09:27:32.000Z</time>
      </trkpt>
      <trkpt lat="43.28257" lon="2.23275">
        <ele>191.4</ele>
        <time>2022-03-06T09:27:33.000Z</time>
      </trkpt>
      <trkpt lat="43.28256" lon="2.23272">
        <ele>191.2</ele>
        <time>2022-03-06T09:27:34.000Z</time>
      </trkpt>
      <trkpt lat="43.28254" lon="2.23269">
        <ele>191.1</ele>
        <time>2022-03-06T09:27:35.000Z</time>
      </trkpt>
      <trkpt lat="43.28253" lon="2.23265">
        <ele>191.1</ele>
        <time>2022-03-06T09:27:36.000Z</time>
      </trkpt>
      <trkpt lat="43.28252" lon="2.23262">
        <ele>191</ele>
        <time>2022-03-06T09:27:37.000Z</time>
      </trkpt>
      <trkpt lat="43.28251" lon="2.23259">
        <ele>190.9</ele>
        <time>2022-03-06T09:27:38.000Z</time>
      </trkpt>
      <trkpt lat="43.28249" lon="2.23255">
        <ele>190.9</ele>
        <time>2022-03-06T09:27:39.000Z</time>
      </trkpt>
      <trkpt lat="43.28248" lon="2.23252">
        <ele>190.9</ele>
        <time>2022-03-06T09:27:40.000Z</time>
      </trkpt>
      <trkpt lat="43.28247" lon="2.23248">
        <ele>190.8</ele>
        <time>2022-03-06T09:27:41.000Z</time>
      </trkpt>
      <trkpt lat="43.28246" lon="2.23244">
        <ele>190.8</ele>
        <time>2022-03-06T09:27:42.000Z</time>
      </trkpt>
      <trkpt lat="43.28245" lon="2.23241">
        <ele>190.7</ele>
        <time>2022-03-06T09:27:43.000Z</time>
      </trkpt>
      <trkpt lat="43.28244" lon="2.23237">
        <ele>190.7</ele>
        <time>2022-03-06T09:27:44.000Z</time>
      </trkpt>
      <trkpt lat="43.28242" lon="2.23234">
        <ele>190.6</ele>
        <time>2022-03-06T09:27:45.000Z</time>
      </trkpt>
      <trkpt lat="43.28241" lon="2.23231">
        <ele>190.5</ele>
        <time>2022-03-06T09:27:46.000Z</time>
      </trkpt>
      <trkpt lat="43.28239" lon="2.23227">
        <ele>190.4</ele>
        <time>2022-03-06T09:27:47.000Z</time>
      </trkpt>
      <trkpt lat="43.28237" lon="2.23224">
        <ele>190.4</ele>
        <time>2022-03-06T09:27:48.000Z</time>
      </trkpt>
      <trkpt lat="43.28236" lon="2.23221">
        <ele>190.3</ele>
        <time>2022-03-06T09:27:49.000Z</time>
      </trkpt>
      <trkpt lat="43.28234" lon="2.23217">
        <ele>190.2</ele>
        <time>2022-03-06T09:27:50.000Z</time>
      </trkpt>
      <trkpt lat="43.28232" lon="2.23214">
        <ele>190.1</ele>
        <time>2022-03-06T09:27:51.000Z</time>
      </trkpt>
      <trkpt lat="43.2823" lon="2.23211">
        <ele>189.9</ele>
        <time>2022-03-06T09:27:52.000Z</time>
      </trkpt>
      <trkpt lat="43.28228" lon="2.23208">
        <ele>189.8</ele>
        <time>2022-03-06T09:27:53.000Z</time>
      </trkpt>
      <trkpt lat="43.28227" lon="2.23205">
        <ele>189.7</ele>
        <time>2022-03-06T09:27:54.000Z</time>
      </trkpt>
      <trkpt lat="43.28225" lon="2.23202">
        <ele>189.6</ele>
        <time>2022-03-06T09:27:55.000Z</time>
      </trkpt>
      <trkpt lat="43.28222" lon="2.23199">
        <ele>189.4</ele>
        <time>2022-03-06T09:27:56.000Z</time>
      </trkpt>
      <trkpt lat="43.2822" lon="2.23197">
        <ele>189.3</ele>
        <time>2022-03-06T09:27:57.000Z</time>
      </trkpt>
      <trkpt lat="43.28218" lon="2.23194">
        <ele>189.1</ele>
        <time>2022-03-06T09:27:58.000Z</time>
      </trkpt>
      <trkpt lat="43.28216" lon="2.23191">
        <ele>189</ele>
        <time>2022-03-06T09:27:59.000Z</time>
      </trkpt>
      <trkpt lat="43.28214" lon="2.23189">
        <ele>188.8</ele>
        <time>2022-03-06T09:28:00.000Z</time>
      </trkpt>
      <trkpt lat="43.28211" lon="2.23187">
        <ele>188.6</ele>
        <time>2022-03-06T09:28:01.000Z</time>
      </trkpt>
      <trkpt lat="43.28209" lon="2.23185">
        <ele>188.4</ele>
        <time>2022-03-06T09:28:02.000Z</time>
      </trkpt>
      <trkpt lat="43.28206" lon="2.23183">
        <ele>188.2</ele>
        <time>2022-03-06T09:28:03.000Z</time>
      </trkpt>
      <trkpt lat="43.28204" lon="2.23181">
        <ele>188</ele>
        <time>2022-03-06T09:28:04.000Z</time>
      </trkpt>
      <trkpt lat="43.28201" lon="2.23179">
        <ele>187.8</ele>
        <time>2022-03-06T09:28:05.000Z</time>
      </trkpt>
      <trkpt lat="43.28198" lon="2.23178">
        <ele>187.6</ele>
        <time>2022-03-06T09:28:06.000Z</time>
      </trkpt>
      <trkpt lat="43.28195" lon="2.23177">
        <ele>187.4</ele>
        <time>2022-03-06T09:28:07.000Z</time>
      </trkpt>
      <trkpt lat="43.28192" lon="2.23176">
        <ele>187.1</ele>
        <time>2022-03-06T09:28:08.000Z</time>
      </trkpt>
      <trkpt lat="43.2819" lon="2.23175">
        <ele>186.9</ele>
        <time>2022-03-06T09:28:09.000Z</time>
      </trkpt>
      <trkpt lat="43.28187" lon="2.23174">
        <ele>186.7</ele>
        <time>2022-03-06T09:28:10.000Z</time>
      </trkpt>
      <trkpt lat="43.28184" lon="2.23173">
        <ele>186.4</ele>
        <time>2022-03-06T09:28:11.000Z</time>
      </trkpt>
      <trkpt lat="43.28181" lon="2.23173">
        <ele>186.2</ele>
        <time>2022-03-06T09:28:12.000Z</time>
      </trkpt>
      <trkpt lat="43.28178" lon="2.23173">
        <ele>185.9</ele>
        <time>2022-03-06T09:28:13.000Z</time>
      </trkpt>
      <trkpt lat="43.28175" lon="2.23173">
        <ele>185.7</ele>
        <time>2022-03-06T09:28:14.000Z</time>
      </trkpt>
      <trkpt lat="43.28172" lon="2.23173">
        <ele>185.4</ele>
        <time>2022-03-06T09:28:15.000Z</time>
      </trkpt>
      <trkpt lat="43.28169" lon="2.23173">
        <ele>185.2</ele>
        <time>2022-03-06T09:28:16.000Z</time>
      </trkpt>
      <trkpt lat="43.28166" lon="2.23174">
        <ele>185</ele>
        <time>2022-03-06T09:28:17.000Z</time>
      </trkpt>
      <trkpt lat="43.28163" lon="2.23175">
        <ele>184.7</ele>
        <time>2022-03-06T09:28:18.000Z</time>
      </trkpt>
      <trkpt lat="43.2816" lon="2.23176">
        <ele>184.5</ele>
        <time>2022-03-06T09:28:19.000Z</time>
      </trkpt>
      <trkpt lat="43.28157" lon="2.23177">
        <ele>184.3</ele>
        <time>2022-03-06T09:28:20.000Z</time>
      </trkpt>
      <trkpt lat="43.28155" lon="2.23178">
        <ele>184.2</ele>
        <time>2022-03-06T09:28:21.000Z</time>
      </trkpt>
      <trkpt lat="43.28152" lon="2.2318">
        <ele>184</ele>
        <time>2022-03-06T09:28:22.000Z</time>
      </trkpt>
      <trkpt lat="43.28149" lon="2.23181">
        <ele>183.8</ele>
        <time>2022-03-06T09:28:23.000Z</time>
      </trkpt>
      <trkpt lat="43.28146" lon="2.23183">
        <ele>183.6</ele>
        <time>2022-03-06T09:28:24.000Z</time>
      </trkpt>
      <trkpt lat="43.28144" lon="2.23185">
        <ele>183.4</ele>
        <time>2022-03-06T09:28:25.000Z</time>
      </trkpt>
      <trkpt lat="43.28141" lon="2.23186">
        <ele>183.2</ele>
        <time>2022-03-06T09:28:26.000Z</time>
      </trkpt>
      <trkpt lat="43.28138" lon="2.23188">
        <ele>183.1</ele>
        <time>2022-03-06T09:28:27.000Z</time>
      </trkpt>
      <trkpt lat="43.28136" lon="2.2319">
        <ele>182.9</ele>
        <time>2022-03-06T09:28:28.000Z</time>
      </trkpt>
      <trkpt lat="43.28133" lon="2.23191">
        <ele>182.7</ele>
        <time>2022-03-06T09:28:29.000Z</time>
      </trkpt>
      <trkpt lat="43.2813" lon="2.23193">
        <ele>182.5</ele>
        <time>2022-03-06T09:28:30.000Z</time>
      </trkpt>
      <trkpt lat="43.28128" lon="2.23195">
        <ele>182.4</ele>
        <time>2022-03-06T09:28:31.000Z</time>
      </trkpt>
      <trkpt lat="43.28125" lon="2.23196">
        <ele>182.2</ele>
        <time>2022-03-06T09:28:32.000Z</time>
      </trkpt>
      <trkpt lat="43.28122" lon="2.23197">
        <ele>182</ele>
        <time>2022-03-06T09:28:33.000Z</time>
      </trkpt>
      <trkpt lat="43.28119" lon="2.23198">
        <ele>181.8</ele>
        <time>2022-03-06T09:28:34.000Z</time>
      </trkpt>
      <trkpt lat="43.28116" lon="2.23199">
        <ele>181.6</ele>
        <time>2022-03-06T09:28:35.000Z</time>
      </trkpt>
      <trkpt lat="43.28113" lon="2.232">
        <ele>181.4</ele>
        <time>2022-03-06T09:28:36.000Z</time>
      </trkpt>
      <trkpt lat="43.2811" lon="2.232">
        <ele>181.2</ele>
        <time>2022-03-06T09:28:37.000Z</time>
      </trkpt>
      <trkpt lat="43.28107" lon="2.23201">
        <ele>181</ele>
        <time>2022-03-06T09:28:38.000Z</time>
      </trkpt>
      <trkpt lat="43.28104" lon="2.23201">
        <ele>180.8</ele>
        <time>2022-03-06T09:28:39.000Z</time>
      </trkpt>
      <trkpt lat="43.28101" lon="2.232">
        <ele>180.6</ele>
        <time>2022-03-06T09:28:40.000Z</time>
      </trkpt>
      <trkpt lat="43.28098" lon="2.232">
        <ele>180.4</ele>
        <time>2022-03-06T09:28:41.000Z</time>
      </trkpt>
      <trkpt lat="43.28096" lon="2.23199">
        <ele>180.2</ele>
        <time>2022-03-06T09:28:42.000Z</time>
      </trkpt>
      <trkpt lat="43.28093" lon="2.23197">
        <ele>180</ele>
        <time>2022-03-06T09:28:43.000Z</time>
      </trkpt>
      <trkpt lat="43.2809" lon="2.23196">
        <ele>179.8</ele>
        <time>2022-03-06T09:28:44.000Z</time>
      </trkpt>
      <trkpt lat="43.28088" lon="2.23194">
        <ele>179.6</ele>
        <time>2022-03-06T09:28:45.000Z</time>
      </trkpt>
      <trkpt lat="43.28085" lon="2.23191">
        <ele>179.4</ele>
        <time>2022-03-06T09:28:46.000Z</time>
      </trkpt>
      <trkpt lat="43.28083" lon="2.23189">
        <ele>179.3</ele>
        <time>2022-03-06T09:28:47.000Z</time>
      </trkpt>
      <trkpt lat="43.28081" lon="2.23186">
        <ele>179.2</ele>
        <time>2022-03-06T09:28:48.000Z</time>
      </trkpt>
      <trkpt lat="43.28079" lon="2.23184">
        <ele>179.1</ele>
        <time>2022-03-06T09:28:49.000Z</time>
      </trkpt>
      <trkpt lat="43.28077" lon="2.23182">
        <ele>179</ele>
        <time>2022-03-06T09:28:50.000Z</time>
      </trkpt>
      <trkpt lat="43.28075" lon="2.23181">
        <ele>178.9</ele>
        <time>2022-03-06T09:28:51.000Z</time>
      </trkpt>
      <trkpt lat="43.28073" lon="2.23181">
        <ele>178.8</ele>
        <time>2022-03-06T09:28:52.000Z</time>
      </trkpt>
      <trkpt lat="43.28071" lon="2.23181">
        <ele>178.7</ele>
        <time>2022-03-06T09:28:53.000Z</time>
      </trkpt>
      <trkpt lat="43.28069" lon="2.23182">
        <ele>178.7</ele>
        <time>2022-03-06T09:28:54.000Z</time>
      </trkpt>
      <trkpt lat="43.28066" lon="2.23182">
        <ele>178.6</ele>
        <time>2022-03-06T09:28:55.000Z</time>
      </trkpt>
      <trkpt lat="43.28064" lon="2.23183">
        <ele>178.5</ele>
        <time>2022-03-06T09:28:56.000Z</time>
      </trkpt>
      <trkpt lat="43.28061" lon="2.23183">
        <ele>178.4</ele>
        <time>2022-03-06T09:28:57.000Z</time>
      </trkpt>
      <trkpt lat="43.28058" lon="2.23183">
        <ele>178.3</ele>
        <time>2022-03-06T09:28:58.000Z</time>
      </trkpt>
      <trkpt lat="43.28055" lon="2.23183">
        <ele>178.2</ele>
        <time>2022-03-06T09:28:59.000Z</time>
      </trkpt>
      <trkpt lat="43.28052" lon="2.23183">
        <ele>178.1</ele>
        <time>2022-03-06T09:29:00.000Z</time>
      </trkpt>
      <trkpt lat="43.28049" lon="2.23183">
        <ele>178</ele>
        <time>2022-03-06T09:29:01.000Z</time>
      </trkpt>
      <trkpt lat="43.28046" lon="2.23183">
        <ele>177.9</ele>
        <time>2022-03-06T09:29:02.000Z</time>
      </trkpt>
      <trkpt lat="43.28043" lon="2.23184">
        <ele>177.8</ele>
        <time>2022-03-06T09:29:03.000Z</time>
      </trkpt>
      <trkpt lat="43.2804" lon="2.23184">
        <ele>177.7</ele>
        <time>2022-03-06T09:29:04.000Z</time>
      </trkpt>
      <trkpt lat="43.28037" lon="2.23184">
        <ele>177.6</ele>
        <time>2022-03-06T09:29:05.000Z</time>
      </trkpt>
      <trkpt lat="43.28034" lon="2.23185">
        <ele>177.4</ele>
        <time>2022-03-06T09:29:06.000Z</time>
      </trkpt>
      <trkpt lat="43.28031" lon="2.23185">
        <ele>177.3</ele>
        <time>2022-03-06T09:29:07.000Z</time>
      </trkpt>
      <trkpt lat="43.28028" lon="2.23185">
        <ele>177.2</ele>
        <time>2022-03-06T09:29:08.000Z</time>
      </trkpt>
      <trkpt lat="43.28025" lon="2.23185">
        <ele>177.1</ele>
        <time>2022-03-06T09:29:09.000Z</time>
      </trkpt>
      <trkpt lat="43.28022" lon="2.23185">
        <ele>177</ele>
        <time>2022-03-06T09:29:10.000Z</time>
      </trkpt>
      <trkpt lat="43.2802" lon="2.23184">
        <ele>176.9</ele>
        <time>2022-03-06T09:29:11.000Z</time>
      </trkpt>
      <trkpt lat="43.28017" lon="2.23183">
        <ele>176.8</ele>
        <time>2022-03-06T09:29:12.000Z</time>
      </trkpt>
      <trkpt lat="43.28015" lon="2.23182">
        <ele>176.7</ele>
        <time>2022-03-06T09:29:13.000Z</time>
      </trkpt>
      <trkpt lat="43.28013" lon="2.2318">
        <ele>176.6</ele>
        <time>2022-03-06T09:29:14.000Z</time>
      </trkpt>
      <trkpt lat="43.28011" lon="2.23177">
        <ele>176.5</ele>
        <time>2022-03-06T09:29:15.000Z</time>
      </trkpt>
      <trkpt lat="43.28009" lon="2.23174">
        <ele>176.4</ele>
        <time>2022-03-06T09:29:16.000Z</time>
      </trkpt>
      <trkpt lat="43.28007" lon="2.23171">
        <ele>176.3</ele>
        <time>2022-03-06T09:29:17.000Z</time>
      </trkpt>
      <trkpt lat="43.28006" lon="2.23168">
        <ele>176.2</ele>
        <time>2022-03-06T09:29:18.000Z</time>
      </trkpt>
      <trkpt lat="43.28004" lon="2.23164">
        <ele>176.1</ele>
        <time>2022-03-06T09:29:19.000Z</time>
      </trkpt>
      <trkpt lat="43.28003" lon="2.23161">
        <ele>176</ele>
        <time>2022-03-06T09:29:20.000Z</time>
      </trkpt>
      <trkpt lat="43.28002" lon="2.23157">
        <ele>176</ele>
        <time>2022-03-06T09:29:21.000Z</time>
      </trkpt>
      <trkpt lat="43.28001" lon="2.23154">
        <ele>175.9</ele>
        <time>2022-03-06T09:29:22.000Z</time>
      </trkpt>
      <trkpt lat="43.28001" lon="2.2315">
        <ele>175.8</ele>
        <time>2022-03-06T09:29:23.000Z</time>
      </trkpt>
      <trkpt lat="43.28" lon="2.23147">
        <ele>175.7</ele>
        <time>2022-03-06T09:29:24.000Z</time>
      </trkpt>
      <trkpt lat="43.27999" lon="2.23143">
        <ele>175.6</ele>
        <time>2022-03-06T09:29:25.000Z</time>
      </trkpt>
      <trkpt lat="43.27998" lon="2.23141">
        <ele>175.5</ele>
        <time>2022-03-06T09:29:26.000Z</time>
      </trkpt>
      <trkpt lat="43.27997" lon="2.23138">
        <ele>175.4</ele>
        <time>2022-03-06T09:29:27.000Z</time>
      </trkpt>
      <trkpt lat="43.27996" lon="2.23136">
        <ele>175.3</ele>
        <time>2022-03-06T09:29:28.000Z</time>
      </trkpt>
      <trkpt lat="43.27994" lon="2.23135">
        <ele>175.1</ele>
        <time>2022-03-06T09:29:29.000Z</time>
      </trkpt>
      <trkpt lat="43.27992" lon="2.23135">
        <ele>174.9</ele>
        <time>2022-03-06T09:29:30.000Z</time>
      </trkpt>
      <trkpt lat="43.27989" lon="2.23134">
        <ele>174.7</ele>
        <time>2022-03-06T09:29:31.000Z</time>
      </trkpt>
      <trkpt lat="43.27987" lon="2.23135">
        <ele>174.5</ele>
        <time>2022-03-06T09:29:32.000Z</time>
      </trkpt>
      <trkpt lat="43.27984" lon="2.23136">
        <ele>174.3</ele>
        <time>2022-03-06T09:29:33.000Z</time>
      </trkpt>
      <trkpt lat="43.27982" lon="2.23137">
        <ele>174.1</ele>
        <time>2022-03-06T09:29:34.000Z</time>
      </trkpt>
      <trkpt lat="43.27979" lon="2.23137">
        <ele>173.9</ele>
        <time>2022-03-06T09:29:35.000Z</time>
      </trkpt>
      <trkpt lat="43.27977" lon="2.23138">
        <ele>173.8</ele>
        <time>2022-03-06T09:29:36.000Z</time>
      </trkpt>
      <trkpt lat="43.27975" lon="2.23137">
        <ele>173.6</ele>
        <time>2022-03-06T09:29:37.000Z</time>
      </trkpt>
      <trkpt lat="43.27974" lon="2.23137">
        <ele>173.5</ele>
        <time>2022-03-06T09:29:38.000Z</time>
      </trkpt>
      <trkpt lat="43.27972" lon="2.23135">
        <ele>173.3</ele>
        <time>2022-03-06T09:29:39.000Z</time>
      </trkpt>
      <trkpt lat="43.27971" lon="2.23134">
        <ele>173.2</ele>
        <time>2022-03-06T09:29:40.000Z</time>
      </trkpt>
      <trkpt lat="43.27969" lon="2.23132">
        <ele>173.1</ele>
        <time>2022-03-06T09:29:41.000Z</time>
      </trkpt>
      <trkpt lat="43.27968" lon="2.2313">
        <ele>173</ele>
        <time>2022-03-06T09:29:42.000Z</time>
      </trkpt>
      <trkpt lat="43.27967" lon="2.23127">
        <ele>172.9</ele>
        <time>2022-03-06T09:29:43.000Z</time>
      </trkpt>
      <trkpt lat="43.27966" lon="2.23124">
        <ele>172.8</ele>
        <time>2022-03-06T09:29:44.000Z</time>
      </trkpt>
      <trkpt lat="43.27964" lon="2.23121">
        <ele>172.7</ele>
        <time>2022-03-06T09:29:45.000Z</time>
      </trkpt>
      <trkpt lat="43.27963" lon="2.23118">
        <ele>172.6</ele>
        <time>2022-03-06T09:29:46.000Z</time>
      </trkpt>
      <trkpt lat="43.27962" lon="2.23115">
        <ele>172.6</ele>
        <time>2022-03-06T09:29:47.000Z</time>
      </trkpt>
      <trkpt lat="43.2796" lon="2.23111">
        <ele>172.5</ele>
        <time>2022-03-06T09:29:48.000Z</time>
      </trkpt>
      <trkpt lat="43.27959" lon="2.23108">
        <ele>172.4</ele>
        <time>2022-03-06T09:29:49.000Z</time>
      </trkpt>
      <trkpt lat="43.27957" lon="2.23105">
        <ele>172.3</ele>
        <time>2022-03-06T09:29:50.000Z</time>
      </trkpt>
      <trkpt lat="43.27955" lon="2.23102">
        <ele>172.2</ele>
        <time>2022-03-06T09:29:51.000Z</time>
      </trkpt>
      <trkpt lat="43.27953" lon="2.231">
        <ele>172.1</ele>
        <time>2022-03-06T09:29:52.000Z</time>
      </trkpt>
      <trkpt lat="43.27951" lon="2.23099">
        <ele>171.9</ele>
        <time>2022-03-06T09:29:53.000Z</time>
      </trkpt>
      <trkpt lat="43.27949" lon="2.23099">
        <ele>171.8</ele>
        <time>2022-03-06T09:29:54.000Z</time>
      </trkpt>
      <trkpt lat="43.27946" lon="2.23099">
        <ele>171.6</ele>
        <time>2022-03-06T09:29:55.000Z</time>
      </trkpt>
      <trkpt lat="43.27943" lon="2.23101">
        <ele>171.4</ele>
        <time>2022-03-06T09:29:56.000Z</time>
      </trkpt>
      <trkpt lat="43.27941" lon="2.23102">
        <ele>171.2</ele>
        <time>2022-03-06T09:29:57.000Z</time>
      </trkpt>
      <trkpt lat="43.27938" lon="2.23104">
        <ele>171</ele>
        <time>2022-03-06T09:29:58.000Z</time>
      </trkpt>
      <trkpt lat="43.27935" lon="2.23105">
        <ele>170.7</ele>
        <time>2022-03-06T09:29:59.000Z</time>
      </trkpt>
      <trkpt lat="43.27932" lon="2.23107">
        <ele>170.5</ele>
        <time>2022-03-06T09:30:00.000Z</time>
      </trkpt>
      <trkpt lat="43.2793" lon="2.23109">
        <ele>170.3</ele>
        <time>2022-03-06T09:30:01.000Z</time>
      </trkpt>
      <trkpt lat="43.27927" lon="2.2311">
        <ele>170.1</ele>
        <time>2022-03-06T09:30:02.000Z</time>
      </trkpt>
      <trkpt lat="43.27925" lon="2.23112">
        <ele>169.9</ele>
        <time>2022-03-06T09:30:03.000Z</time>
      </trkpt>
      <trkpt lat="43.27923" lon="2.23114">
        <ele>169.7</ele>
        <time>2022-03-06T09:30:04.000Z</time>
      </trkpt>
      <trkpt lat="43.27922" lon="2.23116">
        <ele>169.6</ele>
        <time>2022-03-06T09:30:05.000Z</time>
      </trkpt>
      <trkpt lat="43.2792" lon="2.23117">
        <ele>169.4</ele>
        <time>2022-03-06T09:30:06.000Z</time>
      </trkpt>
      <trkpt lat="43.27919" lon="2.23119">
        <ele>169.3</ele>
        <time>2022-03-06T09:30:07.000Z</time>
      </trkpt>
      <trkpt lat="43.27919" lon="2.23121">
        <ele>169.3</ele>
        <time>2022-03-06T09:30:08.000Z</time>
      </trkpt>
      <trkpt lat="43.27919" lon="2.23122">
        <ele>169.2</ele>
        <time>2022-03-06T09:30:09.000Z</time>
      </trkpt>
      <trkpt lat="43.27919" lon="2.23123">
        <ele>169.2</ele>
        <time>2022-03-06T09:30:10.000Z</time>
      </trkpt>
    </trkseg>
  </trk>
</gpx>